<?xml version="1.0" encoding="UTF-8" standalone="no" ?>
<gpx xmlns="http://www.topografix.com/GPX/1/1" xmlns:xsi="http://www.w3.org/2001/XMLSchema-instance" xsi:schemaLocation="http://www.topografix.com/GPX/1/1 http://www.topografix.com/GPX/1/1/gpx.xsd" version="1.1" creator="VisuGPX - https://www.visugpx.com">
  <metadata>
    <name>Les Demoiselles Coiffées </name>
  </metadata>
  <trk>
    <name><![CDATA[Trace 1763712371000]]></name>
    <trkseg>
      <trkpt lat="44.46533" lon="6.2312">
        <ele>721</ele>
        <time>2025-11-21T08:06:11.000Z</time>
      </trkpt>
      <trkpt lat="44.46532" lon="6.23121">
        <ele>721</ele>
        <time>2025-11-21T08:06:12.000Z</time>
      </trkpt>
      <trkpt lat="44.46532" lon="6.23123">
        <ele>721</ele>
        <time>2025-11-21T08:06:13.000Z</time>
      </trkpt>
      <trkpt lat="44.46532" lon="6.23125">
        <ele>721</ele>
        <time>2025-11-21T08:06:14.000Z</time>
      </trkpt>
      <trkpt lat="44.46532" lon="6.23126">
        <ele>720</ele>
        <time>2025-11-21T08:06:15.000Z</time>
      </trkpt>
      <trkpt lat="44.46533" lon="6.23127">
        <ele>720</ele>
        <time>2025-11-21T08:06:16.000Z</time>
      </trkpt>
      <trkpt lat="44.46534" lon="6.23127">
        <ele>720</ele>
        <time>2025-11-21T08:06:17.000Z</time>
      </trkpt>
      <trkpt lat="44.46535" lon="6.23127">
        <ele>720</ele>
        <time>2025-11-21T08:06:18.000Z</time>
      </trkpt>
      <trkpt lat="44.46536" lon="6.23127">
        <ele>720</ele>
        <time>2025-11-21T08:06:19.000Z</time>
      </trkpt>
      <trkpt lat="44.46538" lon="6.23127">
        <ele>720</ele>
        <time>2025-11-21T08:06:20.000Z</time>
      </trkpt>
      <trkpt lat="44.46538" lon="6.23127">
        <ele>719</ele>
        <time>2025-11-21T08:06:21.000Z</time>
      </trkpt>
      <trkpt lat="44.46538" lon="6.23127">
        <ele>719</ele>
        <time>2025-11-21T08:06:22.000Z</time>
      </trkpt>
      <trkpt lat="44.4654" lon="6.23129">
        <ele>719</ele>
        <time>2025-11-21T08:06:23.000Z</time>
      </trkpt>
      <trkpt lat="44.46541" lon="6.23129">
        <ele>719</ele>
        <time>2025-11-21T08:06:24.000Z</time>
      </trkpt>
      <trkpt lat="44.46542" lon="6.23129">
        <ele>719</ele>
        <time>2025-11-21T08:06:25.000Z</time>
      </trkpt>
      <trkpt lat="44.46543" lon="6.23129">
        <ele>718</ele>
        <time>2025-11-21T08:06:26.000Z</time>
      </trkpt>
      <trkpt lat="44.46545" lon="6.23129">
        <ele>719</ele>
        <time>2025-11-21T08:06:27.000Z</time>
      </trkpt>
      <trkpt lat="44.46546" lon="6.23128">
        <ele>719</ele>
        <time>2025-11-21T08:06:28.000Z</time>
      </trkpt>
      <trkpt lat="44.46547" lon="6.23128">
        <ele>720</ele>
        <time>2025-11-21T08:06:29.000Z</time>
      </trkpt>
      <trkpt lat="44.46548" lon="6.23129">
        <ele>720</ele>
        <time>2025-11-21T08:06:30.000Z</time>
      </trkpt>
      <trkpt lat="44.46549" lon="6.23128">
        <ele>720</ele>
        <time>2025-11-21T08:06:31.000Z</time>
      </trkpt>
      <trkpt lat="44.46548" lon="6.23128">
        <ele>721</ele>
        <time>2025-11-21T08:06:32.000Z</time>
      </trkpt>
      <trkpt lat="44.4655" lon="6.23128">
        <ele>721</ele>
        <time>2025-11-21T08:06:33.000Z</time>
      </trkpt>
      <trkpt lat="44.46551" lon="6.23127">
        <ele>722</ele>
        <time>2025-11-21T08:06:34.000Z</time>
      </trkpt>
      <trkpt lat="44.46552" lon="6.23126">
        <ele>722</ele>
        <time>2025-11-21T08:06:35.000Z</time>
      </trkpt>
      <trkpt lat="44.46552" lon="6.23126">
        <ele>722</ele>
        <time>2025-11-21T08:06:36.000Z</time>
      </trkpt>
      <trkpt lat="44.46553" lon="6.23125">
        <ele>723</ele>
        <time>2025-11-21T08:06:37.000Z</time>
      </trkpt>
      <trkpt lat="44.46554" lon="6.23125">
        <ele>723</ele>
        <time>2025-11-21T08:06:38.000Z</time>
      </trkpt>
      <trkpt lat="44.46555" lon="6.23125">
        <ele>723</ele>
        <time>2025-11-21T08:06:39.000Z</time>
      </trkpt>
      <trkpt lat="44.46555" lon="6.23125">
        <ele>723</ele>
        <time>2025-11-21T08:06:40.000Z</time>
      </trkpt>
      <trkpt lat="44.46555" lon="6.23125">
        <ele>724</ele>
        <time>2025-11-21T08:06:41.000Z</time>
      </trkpt>
      <trkpt lat="44.46557" lon="6.23124">
        <ele>726</ele>
        <time>2025-11-21T08:06:42.000Z</time>
      </trkpt>
      <trkpt lat="44.46557" lon="6.23124">
        <ele>727</ele>
        <time>2025-11-21T08:06:43.000Z</time>
      </trkpt>
      <trkpt lat="44.46558" lon="6.23124">
        <ele>726</ele>
        <time>2025-11-21T08:06:44.000Z</time>
      </trkpt>
      <trkpt lat="44.4656" lon="6.23123">
        <ele>726</ele>
        <time>2025-11-21T08:06:45.000Z</time>
      </trkpt>
      <trkpt lat="44.46562" lon="6.23123">
        <ele>726</ele>
        <time>2025-11-21T08:06:46.000Z</time>
      </trkpt>
      <trkpt lat="44.46563" lon="6.23123">
        <ele>726</ele>
        <time>2025-11-21T08:06:47.000Z</time>
      </trkpt>
      <trkpt lat="44.46564" lon="6.23123">
        <ele>727</ele>
        <time>2025-11-21T08:06:48.000Z</time>
      </trkpt>
      <trkpt lat="44.46565" lon="6.23123">
        <ele>727</ele>
        <time>2025-11-21T08:06:49.000Z</time>
      </trkpt>
      <trkpt lat="44.46566" lon="6.23122">
        <ele>726</ele>
        <time>2025-11-21T08:06:50.000Z</time>
      </trkpt>
      <trkpt lat="44.46567" lon="6.23122">
        <ele>727</ele>
        <time>2025-11-21T08:06:51.000Z</time>
      </trkpt>
      <trkpt lat="44.46568" lon="6.23122">
        <ele>727</ele>
        <time>2025-11-21T08:06:52.000Z</time>
      </trkpt>
      <trkpt lat="44.46569" lon="6.23122">
        <ele>728</ele>
        <time>2025-11-21T08:06:53.000Z</time>
      </trkpt>
      <trkpt lat="44.4657" lon="6.23123">
        <ele>728</ele>
        <time>2025-11-21T08:06:54.000Z</time>
      </trkpt>
      <trkpt lat="44.46573" lon="6.23123">
        <ele>729</ele>
        <time>2025-11-21T08:06:55.000Z</time>
      </trkpt>
      <trkpt lat="44.46574" lon="6.23124">
        <ele>728</ele>
        <time>2025-11-21T08:06:56.000Z</time>
      </trkpt>
      <trkpt lat="44.46576" lon="6.23124">
        <ele>728</ele>
        <time>2025-11-21T08:06:57.000Z</time>
      </trkpt>
      <trkpt lat="44.46578" lon="6.23123">
        <ele>727</ele>
        <time>2025-11-21T08:06:58.000Z</time>
      </trkpt>
      <trkpt lat="44.46579" lon="6.23122">
        <ele>728</ele>
        <time>2025-11-21T08:06:59.000Z</time>
      </trkpt>
      <trkpt lat="44.46581" lon="6.23122">
        <ele>728</ele>
        <time>2025-11-21T08:07:00.000Z</time>
      </trkpt>
      <trkpt lat="44.46583" lon="6.23121">
        <ele>728</ele>
        <time>2025-11-21T08:07:01.000Z</time>
      </trkpt>
      <trkpt lat="44.46585" lon="6.2312">
        <ele>729</ele>
        <time>2025-11-21T08:07:02.000Z</time>
      </trkpt>
      <trkpt lat="44.46586" lon="6.23121">
        <ele>729</ele>
        <time>2025-11-21T08:07:03.000Z</time>
      </trkpt>
      <trkpt lat="44.46587" lon="6.23121">
        <ele>730</ele>
        <time>2025-11-21T08:07:04.000Z</time>
      </trkpt>
      <trkpt lat="44.46587" lon="6.23121">
        <ele>731</ele>
        <time>2025-11-21T08:07:05.000Z</time>
      </trkpt>
      <trkpt lat="44.46589" lon="6.23121">
        <ele>731</ele>
        <time>2025-11-21T08:07:06.000Z</time>
      </trkpt>
      <trkpt lat="44.46589" lon="6.23122">
        <ele>732</ele>
        <time>2025-11-21T08:07:07.000Z</time>
      </trkpt>
      <trkpt lat="44.46591" lon="6.23122">
        <ele>732</ele>
        <time>2025-11-21T08:07:08.000Z</time>
      </trkpt>
      <trkpt lat="44.46592" lon="6.23122">
        <ele>732</ele>
        <time>2025-11-21T08:07:09.000Z</time>
      </trkpt>
      <trkpt lat="44.46593" lon="6.23122">
        <ele>732</ele>
        <time>2025-11-21T08:07:10.000Z</time>
      </trkpt>
      <trkpt lat="44.46594" lon="6.23122">
        <ele>732</ele>
        <time>2025-11-21T08:07:11.000Z</time>
      </trkpt>
      <trkpt lat="44.46596" lon="6.23122">
        <ele>732</ele>
        <time>2025-11-21T08:07:12.000Z</time>
      </trkpt>
      <trkpt lat="44.46597" lon="6.23122">
        <ele>731</ele>
        <time>2025-11-21T08:07:13.000Z</time>
      </trkpt>
      <trkpt lat="44.46598" lon="6.23122">
        <ele>731</ele>
        <time>2025-11-21T08:07:14.000Z</time>
      </trkpt>
      <trkpt lat="44.46599" lon="6.23121">
        <ele>731</ele>
        <time>2025-11-21T08:07:15.000Z</time>
      </trkpt>
      <trkpt lat="44.466" lon="6.23122">
        <ele>731</ele>
        <time>2025-11-21T08:07:16.000Z</time>
      </trkpt>
      <trkpt lat="44.466" lon="6.23121">
        <ele>731</ele>
        <time>2025-11-21T08:07:17.000Z</time>
      </trkpt>
      <trkpt lat="44.46601" lon="6.23122">
        <ele>731</ele>
        <time>2025-11-21T08:07:18.000Z</time>
      </trkpt>
      <trkpt lat="44.46602" lon="6.23122">
        <ele>731</ele>
        <time>2025-11-21T08:07:19.000Z</time>
      </trkpt>
      <trkpt lat="44.46603" lon="6.23122">
        <ele>730</ele>
        <time>2025-11-21T08:07:20.000Z</time>
      </trkpt>
      <trkpt lat="44.46604" lon="6.23122">
        <ele>730</ele>
        <time>2025-11-21T08:07:21.000Z</time>
      </trkpt>
      <trkpt lat="44.46605" lon="6.23122">
        <ele>730</ele>
        <time>2025-11-21T08:07:22.000Z</time>
      </trkpt>
      <trkpt lat="44.46605" lon="6.23122">
        <ele>730</ele>
        <time>2025-11-21T08:07:23.000Z</time>
      </trkpt>
      <trkpt lat="44.46606" lon="6.23122">
        <ele>730</ele>
        <time>2025-11-21T08:07:24.000Z</time>
      </trkpt>
      <trkpt lat="44.46607" lon="6.23122">
        <ele>729</ele>
        <time>2025-11-21T08:07:25.000Z</time>
      </trkpt>
      <trkpt lat="44.46607" lon="6.23122">
        <ele>729</ele>
        <time>2025-11-21T08:07:26.000Z</time>
      </trkpt>
      <trkpt lat="44.46608" lon="6.23122">
        <ele>730</ele>
        <time>2025-11-21T08:07:27.000Z</time>
      </trkpt>
      <trkpt lat="44.46609" lon="6.23122">
        <ele>730</ele>
        <time>2025-11-21T08:07:28.000Z</time>
      </trkpt>
      <trkpt lat="44.4661" lon="6.23123">
        <ele>730</ele>
        <time>2025-11-21T08:07:29.000Z</time>
      </trkpt>
      <trkpt lat="44.46611" lon="6.23123">
        <ele>730</ele>
        <time>2025-11-21T08:07:30.000Z</time>
      </trkpt>
      <trkpt lat="44.46612" lon="6.23124">
        <ele>730</ele>
        <time>2025-11-21T08:07:31.000Z</time>
      </trkpt>
      <trkpt lat="44.46613" lon="6.23124">
        <ele>731</ele>
        <time>2025-11-21T08:07:32.000Z</time>
      </trkpt>
      <trkpt lat="44.46614" lon="6.23125">
        <ele>731</ele>
        <time>2025-11-21T08:07:33.000Z</time>
      </trkpt>
      <trkpt lat="44.46615" lon="6.23125">
        <ele>730</ele>
        <time>2025-11-21T08:07:34.000Z</time>
      </trkpt>
      <trkpt lat="44.46616" lon="6.23125">
        <ele>731</ele>
        <time>2025-11-21T08:07:35.000Z</time>
      </trkpt>
      <trkpt lat="44.46618" lon="6.23125">
        <ele>730</ele>
        <time>2025-11-21T08:07:36.000Z</time>
      </trkpt>
      <trkpt lat="44.46619" lon="6.23125">
        <ele>731</ele>
        <time>2025-11-21T08:07:37.000Z</time>
      </trkpt>
      <trkpt lat="44.4662" lon="6.23126">
        <ele>730</ele>
        <time>2025-11-21T08:07:38.000Z</time>
      </trkpt>
      <trkpt lat="44.46621" lon="6.23127">
        <ele>730</ele>
        <time>2025-11-21T08:07:39.000Z</time>
      </trkpt>
      <trkpt lat="44.46622" lon="6.23128">
        <ele>731</ele>
        <time>2025-11-21T08:07:40.000Z</time>
      </trkpt>
      <trkpt lat="44.46622" lon="6.23129">
        <ele>731</ele>
        <time>2025-11-21T08:07:41.000Z</time>
      </trkpt>
      <trkpt lat="44.46622" lon="6.23129">
        <ele>731</ele>
        <time>2025-11-21T08:07:42.000Z</time>
      </trkpt>
      <trkpt lat="44.46623" lon="6.23129">
        <ele>730</ele>
        <time>2025-11-21T08:07:43.000Z</time>
      </trkpt>
      <trkpt lat="44.46624" lon="6.23129">
        <ele>730</ele>
        <time>2025-11-21T08:07:44.000Z</time>
      </trkpt>
      <trkpt lat="44.46625" lon="6.23129">
        <ele>730</ele>
        <time>2025-11-21T08:07:45.000Z</time>
      </trkpt>
      <trkpt lat="44.46626" lon="6.23129">
        <ele>731</ele>
        <time>2025-11-21T08:07:46.000Z</time>
      </trkpt>
      <trkpt lat="44.46627" lon="6.23129">
        <ele>731</ele>
        <time>2025-11-21T08:07:47.000Z</time>
      </trkpt>
      <trkpt lat="44.46627" lon="6.2313">
        <ele>732</ele>
        <time>2025-11-21T08:07:48.000Z</time>
      </trkpt>
      <trkpt lat="44.46628" lon="6.2313">
        <ele>732</ele>
        <time>2025-11-21T08:07:49.000Z</time>
      </trkpt>
      <trkpt lat="44.4663" lon="6.2313">
        <ele>731</ele>
        <time>2025-11-21T08:07:50.000Z</time>
      </trkpt>
      <trkpt lat="44.4663" lon="6.2313">
        <ele>731</ele>
        <time>2025-11-21T08:07:51.000Z</time>
      </trkpt>
      <trkpt lat="44.46631" lon="6.23131">
        <ele>730</ele>
        <time>2025-11-21T08:07:52.000Z</time>
      </trkpt>
      <trkpt lat="44.46632" lon="6.23132">
        <ele>731</ele>
        <time>2025-11-21T08:07:53.000Z</time>
      </trkpt>
      <trkpt lat="44.46634" lon="6.23133">
        <ele>731</ele>
        <time>2025-11-21T08:07:54.000Z</time>
      </trkpt>
      <trkpt lat="44.46635" lon="6.23133">
        <ele>731</ele>
        <time>2025-11-21T08:07:55.000Z</time>
      </trkpt>
      <trkpt lat="44.46636" lon="6.23133">
        <ele>732</ele>
        <time>2025-11-21T08:07:56.000Z</time>
      </trkpt>
      <trkpt lat="44.46637" lon="6.23132">
        <ele>732</ele>
        <time>2025-11-21T08:07:57.000Z</time>
      </trkpt>
      <trkpt lat="44.46638" lon="6.23132">
        <ele>732</ele>
        <time>2025-11-21T08:07:58.000Z</time>
      </trkpt>
      <trkpt lat="44.46639" lon="6.23132">
        <ele>731</ele>
        <time>2025-11-21T08:07:59.000Z</time>
      </trkpt>
      <trkpt lat="44.4664" lon="6.23131">
        <ele>731</ele>
        <time>2025-11-21T08:08:00.000Z</time>
      </trkpt>
      <trkpt lat="44.46641" lon="6.23131">
        <ele>730</ele>
        <time>2025-11-21T08:08:01.000Z</time>
      </trkpt>
      <trkpt lat="44.46641" lon="6.23131">
        <ele>730</ele>
        <time>2025-11-21T08:08:02.000Z</time>
      </trkpt>
      <trkpt lat="44.46642" lon="6.23131">
        <ele>730</ele>
        <time>2025-11-21T08:08:03.000Z</time>
      </trkpt>
      <trkpt lat="44.46643" lon="6.23131">
        <ele>730</ele>
        <time>2025-11-21T08:08:04.000Z</time>
      </trkpt>
      <trkpt lat="44.46644" lon="6.23131">
        <ele>731</ele>
        <time>2025-11-21T08:08:05.000Z</time>
      </trkpt>
      <trkpt lat="44.46645" lon="6.2313">
        <ele>730</ele>
        <time>2025-11-21T08:08:06.000Z</time>
      </trkpt>
      <trkpt lat="44.46645" lon="6.23131">
        <ele>731</ele>
        <time>2025-11-21T08:08:07.000Z</time>
      </trkpt>
      <trkpt lat="44.46646" lon="6.2313">
        <ele>731</ele>
        <time>2025-11-21T08:08:08.000Z</time>
      </trkpt>
      <trkpt lat="44.46647" lon="6.2313">
        <ele>731</ele>
        <time>2025-11-21T08:08:09.000Z</time>
      </trkpt>
      <trkpt lat="44.46647" lon="6.2313">
        <ele>731</ele>
        <time>2025-11-21T08:08:10.000Z</time>
      </trkpt>
      <trkpt lat="44.46648" lon="6.23129">
        <ele>730</ele>
        <time>2025-11-21T08:08:11.000Z</time>
      </trkpt>
      <trkpt lat="44.46649" lon="6.23129">
        <ele>730</ele>
        <time>2025-11-21T08:08:12.000Z</time>
      </trkpt>
      <trkpt lat="44.4665" lon="6.23129">
        <ele>730</ele>
        <time>2025-11-21T08:08:13.000Z</time>
      </trkpt>
      <trkpt lat="44.46651" lon="6.23129">
        <ele>729</ele>
        <time>2025-11-21T08:08:14.000Z</time>
      </trkpt>
      <trkpt lat="44.46652" lon="6.23128">
        <ele>729</ele>
        <time>2025-11-21T08:08:15.000Z</time>
      </trkpt>
      <trkpt lat="44.46653" lon="6.23127">
        <ele>729</ele>
        <time>2025-11-21T08:08:16.000Z</time>
      </trkpt>
      <trkpt lat="44.46654" lon="6.23126">
        <ele>729</ele>
        <time>2025-11-21T08:08:17.000Z</time>
      </trkpt>
      <trkpt lat="44.46655" lon="6.23125">
        <ele>728</ele>
        <time>2025-11-21T08:08:18.000Z</time>
      </trkpt>
      <trkpt lat="44.46657" lon="6.23124">
        <ele>728</ele>
        <time>2025-11-21T08:08:19.000Z</time>
      </trkpt>
      <trkpt lat="44.46658" lon="6.23124">
        <ele>728</ele>
        <time>2025-11-21T08:08:20.000Z</time>
      </trkpt>
      <trkpt lat="44.46659" lon="6.23124">
        <ele>728</ele>
        <time>2025-11-21T08:08:21.000Z</time>
      </trkpt>
      <trkpt lat="44.4666" lon="6.23123">
        <ele>728</ele>
        <time>2025-11-21T08:08:22.000Z</time>
      </trkpt>
      <trkpt lat="44.46661" lon="6.23122">
        <ele>728</ele>
        <time>2025-11-21T08:08:23.000Z</time>
      </trkpt>
      <trkpt lat="44.46661" lon="6.23122">
        <ele>729</ele>
        <time>2025-11-21T08:08:24.000Z</time>
      </trkpt>
      <trkpt lat="44.46663" lon="6.23121">
        <ele>728</ele>
        <time>2025-11-21T08:08:25.000Z</time>
      </trkpt>
      <trkpt lat="44.46663" lon="6.23121">
        <ele>728</ele>
        <time>2025-11-21T08:08:26.000Z</time>
      </trkpt>
      <trkpt lat="44.46664" lon="6.2312">
        <ele>729</ele>
        <time>2025-11-21T08:08:27.000Z</time>
      </trkpt>
      <trkpt lat="44.46665" lon="6.23119">
        <ele>729</ele>
        <time>2025-11-21T08:08:28.000Z</time>
      </trkpt>
      <trkpt lat="44.46666" lon="6.23118">
        <ele>729</ele>
        <time>2025-11-21T08:08:29.000Z</time>
      </trkpt>
      <trkpt lat="44.46667" lon="6.23118">
        <ele>729</ele>
        <time>2025-11-21T08:08:30.000Z</time>
      </trkpt>
      <trkpt lat="44.46668" lon="6.23117">
        <ele>729</ele>
        <time>2025-11-21T08:08:31.000Z</time>
      </trkpt>
      <trkpt lat="44.4667" lon="6.23117">
        <ele>729</ele>
        <time>2025-11-21T08:08:32.000Z</time>
      </trkpt>
      <trkpt lat="44.46672" lon="6.23116">
        <ele>729</ele>
        <time>2025-11-21T08:08:33.000Z</time>
      </trkpt>
      <trkpt lat="44.46673" lon="6.23116">
        <ele>728</ele>
        <time>2025-11-21T08:08:34.000Z</time>
      </trkpt>
      <trkpt lat="44.46674" lon="6.23115">
        <ele>728</ele>
        <time>2025-11-21T08:08:35.000Z</time>
      </trkpt>
      <trkpt lat="44.46675" lon="6.23115">
        <ele>728</ele>
        <time>2025-11-21T08:08:36.000Z</time>
      </trkpt>
      <trkpt lat="44.46676" lon="6.23114">
        <ele>728</ele>
        <time>2025-11-21T08:08:37.000Z</time>
      </trkpt>
      <trkpt lat="44.46677" lon="6.23113">
        <ele>728</ele>
        <time>2025-11-21T08:08:38.000Z</time>
      </trkpt>
      <trkpt lat="44.46678" lon="6.23112">
        <ele>728</ele>
        <time>2025-11-21T08:08:39.000Z</time>
      </trkpt>
      <trkpt lat="44.46679" lon="6.23112">
        <ele>729</ele>
        <time>2025-11-21T08:08:40.000Z</time>
      </trkpt>
      <trkpt lat="44.46679" lon="6.23111">
        <ele>730</ele>
        <time>2025-11-21T08:08:41.000Z</time>
      </trkpt>
      <trkpt lat="44.4668" lon="6.2311">
        <ele>730</ele>
        <time>2025-11-21T08:08:42.000Z</time>
      </trkpt>
      <trkpt lat="44.46681" lon="6.2311">
        <ele>730</ele>
        <time>2025-11-21T08:08:43.000Z</time>
      </trkpt>
      <trkpt lat="44.46682" lon="6.2311">
        <ele>730</ele>
        <time>2025-11-21T08:08:44.000Z</time>
      </trkpt>
      <trkpt lat="44.46683" lon="6.23109">
        <ele>730</ele>
        <time>2025-11-21T08:08:45.000Z</time>
      </trkpt>
      <trkpt lat="44.46684" lon="6.23109">
        <ele>730</ele>
        <time>2025-11-21T08:08:46.000Z</time>
      </trkpt>
      <trkpt lat="44.46685" lon="6.23109">
        <ele>731</ele>
        <time>2025-11-21T08:08:47.000Z</time>
      </trkpt>
      <trkpt lat="44.46686" lon="6.23108">
        <ele>731</ele>
        <time>2025-11-21T08:08:48.000Z</time>
      </trkpt>
      <trkpt lat="44.46687" lon="6.23107">
        <ele>731</ele>
        <time>2025-11-21T08:08:49.000Z</time>
      </trkpt>
      <trkpt lat="44.46688" lon="6.23105">
        <ele>732</ele>
        <time>2025-11-21T08:08:50.000Z</time>
      </trkpt>
      <trkpt lat="44.46688" lon="6.23105">
        <ele>732</ele>
        <time>2025-11-21T08:08:51.000Z</time>
      </trkpt>
      <trkpt lat="44.46689" lon="6.23104">
        <ele>733</ele>
        <time>2025-11-21T08:08:52.000Z</time>
      </trkpt>
      <trkpt lat="44.4669" lon="6.23104">
        <ele>733</ele>
        <time>2025-11-21T08:08:53.000Z</time>
      </trkpt>
      <trkpt lat="44.46691" lon="6.23103">
        <ele>734</ele>
        <time>2025-11-21T08:08:54.000Z</time>
      </trkpt>
      <trkpt lat="44.46693" lon="6.23102">
        <ele>734</ele>
        <time>2025-11-21T08:08:55.000Z</time>
      </trkpt>
      <trkpt lat="44.46694" lon="6.23101">
        <ele>734</ele>
        <time>2025-11-21T08:08:56.000Z</time>
      </trkpt>
      <trkpt lat="44.46695" lon="6.23101">
        <ele>734</ele>
        <time>2025-11-21T08:08:57.000Z</time>
      </trkpt>
      <trkpt lat="44.46695" lon="6.23101">
        <ele>734</ele>
        <time>2025-11-21T08:08:58.000Z</time>
      </trkpt>
      <trkpt lat="44.46696" lon="6.231">
        <ele>734</ele>
        <time>2025-11-21T08:08:59.000Z</time>
      </trkpt>
      <trkpt lat="44.46697" lon="6.231">
        <ele>734</ele>
        <time>2025-11-21T08:09:00.000Z</time>
      </trkpt>
      <trkpt lat="44.46698" lon="6.23099">
        <ele>735</ele>
        <time>2025-11-21T08:09:01.000Z</time>
      </trkpt>
      <trkpt lat="44.46699" lon="6.23099">
        <ele>735</ele>
        <time>2025-11-21T08:09:02.000Z</time>
      </trkpt>
      <trkpt lat="44.46699" lon="6.23099">
        <ele>735</ele>
        <time>2025-11-21T08:09:03.000Z</time>
      </trkpt>
      <trkpt lat="44.467" lon="6.23099">
        <ele>735</ele>
        <time>2025-11-21T08:09:04.000Z</time>
      </trkpt>
      <trkpt lat="44.46701" lon="6.23098">
        <ele>736</ele>
        <time>2025-11-21T08:09:05.000Z</time>
      </trkpt>
      <trkpt lat="44.46702" lon="6.23098">
        <ele>736</ele>
        <time>2025-11-21T08:09:06.000Z</time>
      </trkpt>
      <trkpt lat="44.46703" lon="6.23098">
        <ele>735</ele>
        <time>2025-11-21T08:09:07.000Z</time>
      </trkpt>
      <trkpt lat="44.46705" lon="6.23098">
        <ele>735</ele>
        <time>2025-11-21T08:09:08.000Z</time>
      </trkpt>
      <trkpt lat="44.46706" lon="6.23097">
        <ele>735</ele>
        <time>2025-11-21T08:09:09.000Z</time>
      </trkpt>
      <trkpt lat="44.46707" lon="6.23097">
        <ele>735</ele>
        <time>2025-11-21T08:09:10.000Z</time>
      </trkpt>
      <trkpt lat="44.46708" lon="6.23096">
        <ele>736</ele>
        <time>2025-11-21T08:09:11.000Z</time>
      </trkpt>
      <trkpt lat="44.46709" lon="6.23095">
        <ele>736</ele>
        <time>2025-11-21T08:09:12.000Z</time>
      </trkpt>
      <trkpt lat="44.46711" lon="6.23095">
        <ele>736</ele>
        <time>2025-11-21T08:09:13.000Z</time>
      </trkpt>
      <trkpt lat="44.46712" lon="6.23094">
        <ele>736</ele>
        <time>2025-11-21T08:09:14.000Z</time>
      </trkpt>
      <trkpt lat="44.46714" lon="6.23095">
        <ele>735</ele>
        <time>2025-11-21T08:09:15.000Z</time>
      </trkpt>
      <trkpt lat="44.46715" lon="6.23095">
        <ele>736</ele>
        <time>2025-11-21T08:09:16.000Z</time>
      </trkpt>
      <trkpt lat="44.46716" lon="6.23094">
        <ele>735</ele>
        <time>2025-11-21T08:09:17.000Z</time>
      </trkpt>
      <trkpt lat="44.46716" lon="6.23093">
        <ele>735</ele>
        <time>2025-11-21T08:09:18.000Z</time>
      </trkpt>
      <trkpt lat="44.46717" lon="6.23093">
        <ele>736</ele>
        <time>2025-11-21T08:09:19.000Z</time>
      </trkpt>
      <trkpt lat="44.46717" lon="6.23093">
        <ele>736</ele>
        <time>2025-11-21T08:09:20.000Z</time>
      </trkpt>
      <trkpt lat="44.46718" lon="6.23093">
        <ele>735</ele>
        <time>2025-11-21T08:09:21.000Z</time>
      </trkpt>
      <trkpt lat="44.46719" lon="6.23093">
        <ele>735</ele>
        <time>2025-11-21T08:09:22.000Z</time>
      </trkpt>
      <trkpt lat="44.46721" lon="6.23093">
        <ele>735</ele>
        <time>2025-11-21T08:09:23.000Z</time>
      </trkpt>
      <trkpt lat="44.46722" lon="6.23092">
        <ele>735</ele>
        <time>2025-11-21T08:09:24.000Z</time>
      </trkpt>
      <trkpt lat="44.46723" lon="6.23092">
        <ele>735</ele>
        <time>2025-11-21T08:09:25.000Z</time>
      </trkpt>
      <trkpt lat="44.46724" lon="6.23091">
        <ele>735</ele>
        <time>2025-11-21T08:09:26.000Z</time>
      </trkpt>
      <trkpt lat="44.46725" lon="6.2309">
        <ele>735</ele>
        <time>2025-11-21T08:09:27.000Z</time>
      </trkpt>
      <trkpt lat="44.46726" lon="6.2309">
        <ele>735</ele>
        <time>2025-11-21T08:09:28.000Z</time>
      </trkpt>
      <trkpt lat="44.46727" lon="6.2309">
        <ele>735</ele>
        <time>2025-11-21T08:09:29.000Z</time>
      </trkpt>
      <trkpt lat="44.46728" lon="6.2309">
        <ele>735</ele>
        <time>2025-11-21T08:09:30.000Z</time>
      </trkpt>
      <trkpt lat="44.46729" lon="6.2309">
        <ele>735</ele>
        <time>2025-11-21T08:09:31.000Z</time>
      </trkpt>
      <trkpt lat="44.4673" lon="6.23091">
        <ele>735</ele>
        <time>2025-11-21T08:09:32.000Z</time>
      </trkpt>
      <trkpt lat="44.46731" lon="6.23091">
        <ele>735</ele>
        <time>2025-11-21T08:09:33.000Z</time>
      </trkpt>
      <trkpt lat="44.46731" lon="6.23091">
        <ele>734</ele>
        <time>2025-11-21T08:09:34.000Z</time>
      </trkpt>
      <trkpt lat="44.46732" lon="6.23092">
        <ele>735</ele>
        <time>2025-11-21T08:09:35.000Z</time>
      </trkpt>
      <trkpt lat="44.46733" lon="6.23091">
        <ele>736</ele>
        <time>2025-11-21T08:09:36.000Z</time>
      </trkpt>
      <trkpt lat="44.46734" lon="6.2309">
        <ele>736</ele>
        <time>2025-11-21T08:09:37.000Z</time>
      </trkpt>
      <trkpt lat="44.46736" lon="6.23089">
        <ele>736</ele>
        <time>2025-11-21T08:09:38.000Z</time>
      </trkpt>
      <trkpt lat="44.46738" lon="6.23089">
        <ele>737</ele>
        <time>2025-11-21T08:09:39.000Z</time>
      </trkpt>
      <trkpt lat="44.46739" lon="6.23088">
        <ele>737</ele>
        <time>2025-11-21T08:09:40.000Z</time>
      </trkpt>
      <trkpt lat="44.46739" lon="6.23087">
        <ele>737</ele>
        <time>2025-11-21T08:09:41.000Z</time>
      </trkpt>
      <trkpt lat="44.4674" lon="6.23086">
        <ele>737</ele>
        <time>2025-11-21T08:09:42.000Z</time>
      </trkpt>
      <trkpt lat="44.46741" lon="6.23085">
        <ele>737</ele>
        <time>2025-11-21T08:09:43.000Z</time>
      </trkpt>
      <trkpt lat="44.46741" lon="6.23084">
        <ele>737</ele>
        <time>2025-11-21T08:09:44.000Z</time>
      </trkpt>
      <trkpt lat="44.46742" lon="6.23084">
        <ele>737</ele>
        <time>2025-11-21T08:09:45.000Z</time>
      </trkpt>
      <trkpt lat="44.46743" lon="6.23083">
        <ele>737</ele>
        <time>2025-11-21T08:09:46.000Z</time>
      </trkpt>
      <trkpt lat="44.46743" lon="6.23082">
        <ele>737</ele>
        <time>2025-11-21T08:09:47.000Z</time>
      </trkpt>
      <trkpt lat="44.46743" lon="6.23081">
        <ele>737</ele>
        <time>2025-11-21T08:09:48.000Z</time>
      </trkpt>
      <trkpt lat="44.46743" lon="6.2308">
        <ele>737</ele>
        <time>2025-11-21T08:09:49.000Z</time>
      </trkpt>
      <trkpt lat="44.46744" lon="6.23078">
        <ele>737</ele>
        <time>2025-11-21T08:09:50.000Z</time>
      </trkpt>
      <trkpt lat="44.46745" lon="6.23077">
        <ele>737</ele>
        <time>2025-11-21T08:09:51.000Z</time>
      </trkpt>
      <trkpt lat="44.46745" lon="6.23076">
        <ele>736</ele>
        <time>2025-11-21T08:09:52.000Z</time>
      </trkpt>
      <trkpt lat="44.46746" lon="6.23075">
        <ele>737</ele>
        <time>2025-11-21T08:09:53.000Z</time>
      </trkpt>
      <trkpt lat="44.46746" lon="6.23074">
        <ele>737</ele>
        <time>2025-11-21T08:09:54.000Z</time>
      </trkpt>
      <trkpt lat="44.46746" lon="6.23072">
        <ele>737</ele>
        <time>2025-11-21T08:09:55.000Z</time>
      </trkpt>
      <trkpt lat="44.46746" lon="6.23071">
        <ele>736</ele>
        <time>2025-11-21T08:09:56.000Z</time>
      </trkpt>
      <trkpt lat="44.46747" lon="6.23069">
        <ele>736</ele>
        <time>2025-11-21T08:09:57.000Z</time>
      </trkpt>
      <trkpt lat="44.46747" lon="6.23067">
        <ele>736</ele>
        <time>2025-11-21T08:09:58.000Z</time>
      </trkpt>
      <trkpt lat="44.46747" lon="6.23065">
        <ele>737</ele>
        <time>2025-11-21T08:09:59.000Z</time>
      </trkpt>
      <trkpt lat="44.46747" lon="6.23064">
        <ele>737</ele>
        <time>2025-11-21T08:10:00.000Z</time>
      </trkpt>
      <trkpt lat="44.46747" lon="6.23063">
        <ele>738</ele>
        <time>2025-11-21T08:10:01.000Z</time>
      </trkpt>
      <trkpt lat="44.46747" lon="6.23061">
        <ele>738</ele>
        <time>2025-11-21T08:10:02.000Z</time>
      </trkpt>
      <trkpt lat="44.46747" lon="6.23059">
        <ele>737</ele>
        <time>2025-11-21T08:10:03.000Z</time>
      </trkpt>
      <trkpt lat="44.46748" lon="6.23058">
        <ele>737</ele>
        <time>2025-11-21T08:10:04.000Z</time>
      </trkpt>
      <trkpt lat="44.46748" lon="6.23057">
        <ele>736</ele>
        <time>2025-11-21T08:10:05.000Z</time>
      </trkpt>
      <trkpt lat="44.46748" lon="6.23055">
        <ele>737</ele>
        <time>2025-11-21T08:10:06.000Z</time>
      </trkpt>
      <trkpt lat="44.46748" lon="6.23054">
        <ele>737</ele>
        <time>2025-11-21T08:10:07.000Z</time>
      </trkpt>
      <trkpt lat="44.46749" lon="6.23052">
        <ele>737</ele>
        <time>2025-11-21T08:10:08.000Z</time>
      </trkpt>
      <trkpt lat="44.46749" lon="6.23051">
        <ele>737</ele>
        <time>2025-11-21T08:10:09.000Z</time>
      </trkpt>
      <trkpt lat="44.46749" lon="6.23051">
        <ele>736</ele>
        <time>2025-11-21T08:10:10.000Z</time>
      </trkpt>
      <trkpt lat="44.46749" lon="6.23049">
        <ele>736</ele>
        <time>2025-11-21T08:10:11.000Z</time>
      </trkpt>
      <trkpt lat="44.46749" lon="6.23047">
        <ele>737</ele>
        <time>2025-11-21T08:10:12.000Z</time>
      </trkpt>
      <trkpt lat="44.4675" lon="6.23046">
        <ele>736</ele>
        <time>2025-11-21T08:10:13.000Z</time>
      </trkpt>
      <trkpt lat="44.4675" lon="6.23045">
        <ele>736</ele>
        <time>2025-11-21T08:10:14.000Z</time>
      </trkpt>
      <trkpt lat="44.46749" lon="6.23043">
        <ele>736</ele>
        <time>2025-11-21T08:10:15.000Z</time>
      </trkpt>
      <trkpt lat="44.46749" lon="6.23042">
        <ele>735</ele>
        <time>2025-11-21T08:10:16.000Z</time>
      </trkpt>
      <trkpt lat="44.46749" lon="6.23041">
        <ele>735</ele>
        <time>2025-11-21T08:10:17.000Z</time>
      </trkpt>
      <trkpt lat="44.46749" lon="6.2304">
        <ele>735</ele>
        <time>2025-11-21T08:10:18.000Z</time>
      </trkpt>
      <trkpt lat="44.46749" lon="6.23038">
        <ele>735</ele>
        <time>2025-11-21T08:10:19.000Z</time>
      </trkpt>
      <trkpt lat="44.46749" lon="6.23037">
        <ele>735</ele>
        <time>2025-11-21T08:10:20.000Z</time>
      </trkpt>
      <trkpt lat="44.46748" lon="6.23035">
        <ele>735</ele>
        <time>2025-11-21T08:10:21.000Z</time>
      </trkpt>
      <trkpt lat="44.46748" lon="6.23033">
        <ele>736</ele>
        <time>2025-11-21T08:10:22.000Z</time>
      </trkpt>
      <trkpt lat="44.46747" lon="6.23031">
        <ele>736</ele>
        <time>2025-11-21T08:10:23.000Z</time>
      </trkpt>
      <trkpt lat="44.46747" lon="6.23031">
        <ele>736</ele>
        <time>2025-11-21T08:10:24.000Z</time>
      </trkpt>
      <trkpt lat="44.46748" lon="6.2303">
        <ele>736</ele>
        <time>2025-11-21T08:10:25.000Z</time>
      </trkpt>
      <trkpt lat="44.46748" lon="6.23029">
        <ele>736</ele>
        <time>2025-11-21T08:10:26.000Z</time>
      </trkpt>
      <trkpt lat="44.46748" lon="6.23027">
        <ele>736</ele>
        <time>2025-11-21T08:10:27.000Z</time>
      </trkpt>
      <trkpt lat="44.46747" lon="6.23025">
        <ele>735</ele>
        <time>2025-11-21T08:10:28.000Z</time>
      </trkpt>
      <trkpt lat="44.46747" lon="6.23023">
        <ele>734</ele>
        <time>2025-11-21T08:10:29.000Z</time>
      </trkpt>
      <trkpt lat="44.46747" lon="6.23021">
        <ele>734</ele>
        <time>2025-11-21T08:10:30.000Z</time>
      </trkpt>
      <trkpt lat="44.46747" lon="6.2302">
        <ele>734</ele>
        <time>2025-11-21T08:10:31.000Z</time>
      </trkpt>
      <trkpt lat="44.46747" lon="6.23018">
        <ele>734</ele>
        <time>2025-11-21T08:10:32.000Z</time>
      </trkpt>
      <trkpt lat="44.46747" lon="6.23016">
        <ele>734</ele>
        <time>2025-11-21T08:10:33.000Z</time>
      </trkpt>
      <trkpt lat="44.46747" lon="6.23015">
        <ele>734</ele>
        <time>2025-11-21T08:10:34.000Z</time>
      </trkpt>
      <trkpt lat="44.46747" lon="6.23012">
        <ele>735</ele>
        <time>2025-11-21T08:10:35.000Z</time>
      </trkpt>
      <trkpt lat="44.46748" lon="6.23011">
        <ele>735</ele>
        <time>2025-11-21T08:10:36.000Z</time>
      </trkpt>
      <trkpt lat="44.46747" lon="6.23009">
        <ele>736</ele>
        <time>2025-11-21T08:10:37.000Z</time>
      </trkpt>
      <trkpt lat="44.46748" lon="6.23007">
        <ele>736</ele>
        <time>2025-11-21T08:10:38.000Z</time>
      </trkpt>
      <trkpt lat="44.46747" lon="6.23006">
        <ele>737</ele>
        <time>2025-11-21T08:10:39.000Z</time>
      </trkpt>
      <trkpt lat="44.46748" lon="6.23004">
        <ele>737</ele>
        <time>2025-11-21T08:10:40.000Z</time>
      </trkpt>
      <trkpt lat="44.46748" lon="6.23002">
        <ele>737</ele>
        <time>2025-11-21T08:10:41.000Z</time>
      </trkpt>
      <trkpt lat="44.46749" lon="6.23">
        <ele>738</ele>
        <time>2025-11-21T08:10:42.000Z</time>
      </trkpt>
      <trkpt lat="44.46749" lon="6.22999">
        <ele>739</ele>
        <time>2025-11-21T08:10:43.000Z</time>
      </trkpt>
      <trkpt lat="44.46749" lon="6.22997">
        <ele>739</ele>
        <time>2025-11-21T08:10:44.000Z</time>
      </trkpt>
      <trkpt lat="44.4675" lon="6.22996">
        <ele>740</ele>
        <time>2025-11-21T08:10:45.000Z</time>
      </trkpt>
      <trkpt lat="44.4675" lon="6.22994">
        <ele>741</ele>
        <time>2025-11-21T08:10:46.000Z</time>
      </trkpt>
      <trkpt lat="44.46751" lon="6.22993">
        <ele>741</ele>
        <time>2025-11-21T08:10:47.000Z</time>
      </trkpt>
      <trkpt lat="44.46751" lon="6.22992">
        <ele>741</ele>
        <time>2025-11-21T08:10:48.000Z</time>
      </trkpt>
      <trkpt lat="44.46752" lon="6.2299">
        <ele>741</ele>
        <time>2025-11-21T08:10:49.000Z</time>
      </trkpt>
      <trkpt lat="44.46752" lon="6.22988">
        <ele>741</ele>
        <time>2025-11-21T08:10:50.000Z</time>
      </trkpt>
      <trkpt lat="44.46753" lon="6.22987">
        <ele>740</ele>
        <time>2025-11-21T08:10:51.000Z</time>
      </trkpt>
      <trkpt lat="44.46754" lon="6.22986">
        <ele>740</ele>
        <time>2025-11-21T08:10:52.000Z</time>
      </trkpt>
      <trkpt lat="44.46754" lon="6.22984">
        <ele>740</ele>
        <time>2025-11-21T08:10:53.000Z</time>
      </trkpt>
      <trkpt lat="44.46755" lon="6.22983">
        <ele>740</ele>
        <time>2025-11-21T08:10:54.000Z</time>
      </trkpt>
      <trkpt lat="44.46755" lon="6.22982">
        <ele>739</ele>
        <time>2025-11-21T08:10:55.000Z</time>
      </trkpt>
      <trkpt lat="44.46755" lon="6.2298">
        <ele>739</ele>
        <time>2025-11-21T08:10:56.000Z</time>
      </trkpt>
      <trkpt lat="44.46755" lon="6.22979">
        <ele>740</ele>
        <time>2025-11-21T08:10:57.000Z</time>
      </trkpt>
      <trkpt lat="44.46755" lon="6.22978">
        <ele>740</ele>
        <time>2025-11-21T08:10:58.000Z</time>
      </trkpt>
      <trkpt lat="44.46755" lon="6.22977">
        <ele>740</ele>
        <time>2025-11-21T08:10:59.000Z</time>
      </trkpt>
      <trkpt lat="44.46755" lon="6.22976">
        <ele>740</ele>
        <time>2025-11-21T08:11:00.000Z</time>
      </trkpt>
      <trkpt lat="44.46755" lon="6.22975">
        <ele>740</ele>
        <time>2025-11-21T08:11:01.000Z</time>
      </trkpt>
      <trkpt lat="44.46756" lon="6.22973">
        <ele>740</ele>
        <time>2025-11-21T08:11:02.000Z</time>
      </trkpt>
      <trkpt lat="44.46756" lon="6.22972">
        <ele>739</ele>
        <time>2025-11-21T08:11:03.000Z</time>
      </trkpt>
      <trkpt lat="44.46757" lon="6.22971">
        <ele>740</ele>
        <time>2025-11-21T08:11:04.000Z</time>
      </trkpt>
      <trkpt lat="44.46757" lon="6.2297">
        <ele>739</ele>
        <time>2025-11-21T08:11:05.000Z</time>
      </trkpt>
      <trkpt lat="44.46758" lon="6.22968">
        <ele>739</ele>
        <time>2025-11-21T08:11:06.000Z</time>
      </trkpt>
      <trkpt lat="44.46758" lon="6.22967">
        <ele>739</ele>
        <time>2025-11-21T08:11:07.000Z</time>
      </trkpt>
      <trkpt lat="44.46758" lon="6.22965">
        <ele>740</ele>
        <time>2025-11-21T08:11:08.000Z</time>
      </trkpt>
      <trkpt lat="44.46759" lon="6.22963">
        <ele>740</ele>
        <time>2025-11-21T08:11:09.000Z</time>
      </trkpt>
      <trkpt lat="44.46759" lon="6.22962">
        <ele>740</ele>
        <time>2025-11-21T08:11:10.000Z</time>
      </trkpt>
      <trkpt lat="44.46758" lon="6.22959">
        <ele>740</ele>
        <time>2025-11-21T08:11:11.000Z</time>
      </trkpt>
      <trkpt lat="44.46759" lon="6.22958">
        <ele>741</ele>
        <time>2025-11-21T08:11:12.000Z</time>
      </trkpt>
      <trkpt lat="44.46759" lon="6.22956">
        <ele>740</ele>
        <time>2025-11-21T08:11:13.000Z</time>
      </trkpt>
      <trkpt lat="44.46758" lon="6.22955">
        <ele>740</ele>
        <time>2025-11-21T08:11:14.000Z</time>
      </trkpt>
      <trkpt lat="44.46759" lon="6.22953">
        <ele>740</ele>
        <time>2025-11-21T08:11:15.000Z</time>
      </trkpt>
      <trkpt lat="44.46758" lon="6.22952">
        <ele>741</ele>
        <time>2025-11-21T08:11:16.000Z</time>
      </trkpt>
      <trkpt lat="44.46758" lon="6.2295">
        <ele>741</ele>
        <time>2025-11-21T08:11:17.000Z</time>
      </trkpt>
      <trkpt lat="44.46758" lon="6.22949">
        <ele>741</ele>
        <time>2025-11-21T08:11:18.000Z</time>
      </trkpt>
      <trkpt lat="44.46759" lon="6.22948">
        <ele>740</ele>
        <time>2025-11-21T08:11:19.000Z</time>
      </trkpt>
      <trkpt lat="44.4676" lon="6.22947">
        <ele>740</ele>
        <time>2025-11-21T08:11:20.000Z</time>
      </trkpt>
      <trkpt lat="44.4676" lon="6.22945">
        <ele>740</ele>
        <time>2025-11-21T08:11:21.000Z</time>
      </trkpt>
      <trkpt lat="44.4676" lon="6.22944">
        <ele>740</ele>
        <time>2025-11-21T08:11:22.000Z</time>
      </trkpt>
      <trkpt lat="44.4676" lon="6.22942">
        <ele>741</ele>
        <time>2025-11-21T08:11:23.000Z</time>
      </trkpt>
      <trkpt lat="44.46761" lon="6.2294">
        <ele>741</ele>
        <time>2025-11-21T08:11:24.000Z</time>
      </trkpt>
      <trkpt lat="44.46761" lon="6.22939">
        <ele>741</ele>
        <time>2025-11-21T08:11:25.000Z</time>
      </trkpt>
      <trkpt lat="44.46761" lon="6.22937">
        <ele>742</ele>
        <time>2025-11-21T08:11:26.000Z</time>
      </trkpt>
      <trkpt lat="44.46762" lon="6.22935">
        <ele>741</ele>
        <time>2025-11-21T08:11:27.000Z</time>
      </trkpt>
      <trkpt lat="44.46761" lon="6.22933">
        <ele>741</ele>
        <time>2025-11-21T08:11:28.000Z</time>
      </trkpt>
      <trkpt lat="44.46762" lon="6.22932">
        <ele>742</ele>
        <time>2025-11-21T08:11:29.000Z</time>
      </trkpt>
      <trkpt lat="44.46761" lon="6.22932">
        <ele>742</ele>
        <time>2025-11-21T08:11:30.000Z</time>
      </trkpt>
      <trkpt lat="44.46761" lon="6.22933">
        <ele>742</ele>
        <time>2025-11-21T08:11:31.000Z</time>
      </trkpt>
      <trkpt lat="44.46761" lon="6.22932">
        <ele>742</ele>
        <time>2025-11-21T08:11:32.000Z</time>
      </trkpt>
      <trkpt lat="44.46762" lon="6.22932">
        <ele>741</ele>
        <time>2025-11-21T08:11:33.000Z</time>
      </trkpt>
      <trkpt lat="44.46763" lon="6.22931">
        <ele>741</ele>
        <time>2025-11-21T08:11:34.000Z</time>
      </trkpt>
      <trkpt lat="44.46763" lon="6.22931">
        <ele>741</ele>
        <time>2025-11-21T08:11:35.000Z</time>
      </trkpt>
      <trkpt lat="44.46764" lon="6.22931">
        <ele>740</ele>
        <time>2025-11-21T08:11:36.000Z</time>
      </trkpt>
      <trkpt lat="44.46764" lon="6.22931">
        <ele>740</ele>
        <time>2025-11-21T08:11:37.000Z</time>
      </trkpt>
      <trkpt lat="44.46764" lon="6.2293">
        <ele>741</ele>
        <time>2025-11-21T08:11:38.000Z</time>
      </trkpt>
      <trkpt lat="44.46765" lon="6.2293">
        <ele>741</ele>
        <time>2025-11-21T08:11:39.000Z</time>
      </trkpt>
      <trkpt lat="44.46766" lon="6.22931">
        <ele>742</ele>
        <time>2025-11-21T08:11:40.000Z</time>
      </trkpt>
      <trkpt lat="44.46767" lon="6.22931">
        <ele>743</ele>
        <time>2025-11-21T08:11:41.000Z</time>
      </trkpt>
      <trkpt lat="44.46768" lon="6.22931">
        <ele>743</ele>
        <time>2025-11-21T08:11:42.000Z</time>
      </trkpt>
      <trkpt lat="44.46768" lon="6.22931">
        <ele>743</ele>
        <time>2025-11-21T08:11:43.000Z</time>
      </trkpt>
      <trkpt lat="44.46769" lon="6.22931">
        <ele>744</ele>
        <time>2025-11-21T08:11:44.000Z</time>
      </trkpt>
      <trkpt lat="44.4677" lon="6.22931">
        <ele>743</ele>
        <time>2025-11-21T08:11:45.000Z</time>
      </trkpt>
      <trkpt lat="44.4677" lon="6.22932">
        <ele>743</ele>
        <time>2025-11-21T08:11:46.000Z</time>
      </trkpt>
      <trkpt lat="44.46771" lon="6.22932">
        <ele>744</ele>
        <time>2025-11-21T08:11:47.000Z</time>
      </trkpt>
      <trkpt lat="44.46772" lon="6.22933">
        <ele>744</ele>
        <time>2025-11-21T08:11:48.000Z</time>
      </trkpt>
      <trkpt lat="44.46773" lon="6.22933">
        <ele>744</ele>
        <time>2025-11-21T08:11:49.000Z</time>
      </trkpt>
      <trkpt lat="44.46773" lon="6.22933">
        <ele>744</ele>
        <time>2025-11-21T08:11:50.000Z</time>
      </trkpt>
      <trkpt lat="44.46773" lon="6.22933">
        <ele>744</ele>
        <time>2025-11-21T08:11:51.000Z</time>
      </trkpt>
      <trkpt lat="44.46773" lon="6.22933">
        <ele>744</ele>
        <time>2025-11-21T08:11:52.000Z</time>
      </trkpt>
      <trkpt lat="44.46774" lon="6.22933">
        <ele>744</ele>
        <time>2025-11-21T08:11:53.000Z</time>
      </trkpt>
      <trkpt lat="44.46776" lon="6.22933">
        <ele>744</ele>
        <time>2025-11-21T08:11:54.000Z</time>
      </trkpt>
      <trkpt lat="44.46777" lon="6.22933">
        <ele>744</ele>
        <time>2025-11-21T08:11:55.000Z</time>
      </trkpt>
      <trkpt lat="44.46778" lon="6.22934">
        <ele>744</ele>
        <time>2025-11-21T08:11:56.000Z</time>
      </trkpt>
      <trkpt lat="44.4678" lon="6.22934">
        <ele>744</ele>
        <time>2025-11-21T08:11:57.000Z</time>
      </trkpt>
      <trkpt lat="44.46781" lon="6.22934">
        <ele>744</ele>
        <time>2025-11-21T08:11:58.000Z</time>
      </trkpt>
      <trkpt lat="44.46781" lon="6.22934">
        <ele>744</ele>
        <time>2025-11-21T08:11:59.000Z</time>
      </trkpt>
      <trkpt lat="44.46782" lon="6.22935">
        <ele>744</ele>
        <time>2025-11-21T08:12:00.000Z</time>
      </trkpt>
      <trkpt lat="44.46783" lon="6.22934">
        <ele>743</ele>
        <time>2025-11-21T08:12:01.000Z</time>
      </trkpt>
      <trkpt lat="44.46785" lon="6.22934">
        <ele>744</ele>
        <time>2025-11-21T08:12:02.000Z</time>
      </trkpt>
      <trkpt lat="44.46786" lon="6.22934">
        <ele>744</ele>
        <time>2025-11-21T08:12:03.000Z</time>
      </trkpt>
      <trkpt lat="44.46787" lon="6.22935">
        <ele>743</ele>
        <time>2025-11-21T08:12:04.000Z</time>
      </trkpt>
      <trkpt lat="44.46788" lon="6.22934">
        <ele>742</ele>
        <time>2025-11-21T08:12:05.000Z</time>
      </trkpt>
      <trkpt lat="44.46789" lon="6.22934">
        <ele>743</ele>
        <time>2025-11-21T08:12:06.000Z</time>
      </trkpt>
      <trkpt lat="44.4679" lon="6.22934">
        <ele>743</ele>
        <time>2025-11-21T08:12:07.000Z</time>
      </trkpt>
      <trkpt lat="44.46791" lon="6.22934">
        <ele>743</ele>
        <time>2025-11-21T08:12:08.000Z</time>
      </trkpt>
      <trkpt lat="44.46792" lon="6.22934">
        <ele>743</ele>
        <time>2025-11-21T08:12:09.000Z</time>
      </trkpt>
      <trkpt lat="44.46793" lon="6.22935">
        <ele>743</ele>
        <time>2025-11-21T08:12:10.000Z</time>
      </trkpt>
      <trkpt lat="44.46795" lon="6.22935">
        <ele>743</ele>
        <time>2025-11-21T08:12:11.000Z</time>
      </trkpt>
      <trkpt lat="44.46795" lon="6.22936">
        <ele>743</ele>
        <time>2025-11-21T08:12:12.000Z</time>
      </trkpt>
      <trkpt lat="44.46796" lon="6.22936">
        <ele>743</ele>
        <time>2025-11-21T08:12:13.000Z</time>
      </trkpt>
      <trkpt lat="44.46797" lon="6.22936">
        <ele>744</ele>
        <time>2025-11-21T08:12:14.000Z</time>
      </trkpt>
      <trkpt lat="44.46798" lon="6.22937">
        <ele>744</ele>
        <time>2025-11-21T08:12:15.000Z</time>
      </trkpt>
      <trkpt lat="44.46799" lon="6.22937">
        <ele>744</ele>
        <time>2025-11-21T08:12:16.000Z</time>
      </trkpt>
      <trkpt lat="44.468" lon="6.22937">
        <ele>745</ele>
        <time>2025-11-21T08:12:17.000Z</time>
      </trkpt>
      <trkpt lat="44.46801" lon="6.22937">
        <ele>745</ele>
        <time>2025-11-21T08:12:18.000Z</time>
      </trkpt>
      <trkpt lat="44.46802" lon="6.22937">
        <ele>745</ele>
        <time>2025-11-21T08:12:19.000Z</time>
      </trkpt>
      <trkpt lat="44.46803" lon="6.22938">
        <ele>746</ele>
        <time>2025-11-21T08:12:20.000Z</time>
      </trkpt>
      <trkpt lat="44.46804" lon="6.22938">
        <ele>746</ele>
        <time>2025-11-21T08:12:21.000Z</time>
      </trkpt>
      <trkpt lat="44.46804" lon="6.22938">
        <ele>746</ele>
        <time>2025-11-21T08:12:22.000Z</time>
      </trkpt>
      <trkpt lat="44.46804" lon="6.22938">
        <ele>746</ele>
        <time>2025-11-21T08:12:23.000Z</time>
      </trkpt>
      <trkpt lat="44.46806" lon="6.22939">
        <ele>744</ele>
        <time>2025-11-21T08:12:24.000Z</time>
      </trkpt>
      <trkpt lat="44.46807" lon="6.2294">
        <ele>744</ele>
        <time>2025-11-21T08:12:25.000Z</time>
      </trkpt>
      <trkpt lat="44.46808" lon="6.2294">
        <ele>744</ele>
        <time>2025-11-21T08:12:26.000Z</time>
      </trkpt>
      <trkpt lat="44.46809" lon="6.2294">
        <ele>744</ele>
        <time>2025-11-21T08:12:27.000Z</time>
      </trkpt>
      <trkpt lat="44.4681" lon="6.2294">
        <ele>744</ele>
        <time>2025-11-21T08:12:28.000Z</time>
      </trkpt>
      <trkpt lat="44.46811" lon="6.2294">
        <ele>743</ele>
        <time>2025-11-21T08:12:29.000Z</time>
      </trkpt>
      <trkpt lat="44.46813" lon="6.2294">
        <ele>743</ele>
        <time>2025-11-21T08:12:30.000Z</time>
      </trkpt>
      <trkpt lat="44.46814" lon="6.2294">
        <ele>743</ele>
        <time>2025-11-21T08:12:31.000Z</time>
      </trkpt>
      <trkpt lat="44.46816" lon="6.22941">
        <ele>744</ele>
        <time>2025-11-21T08:12:32.000Z</time>
      </trkpt>
      <trkpt lat="44.46817" lon="6.22941">
        <ele>744</ele>
        <time>2025-11-21T08:12:33.000Z</time>
      </trkpt>
      <trkpt lat="44.46818" lon="6.22942">
        <ele>744</ele>
        <time>2025-11-21T08:12:34.000Z</time>
      </trkpt>
      <trkpt lat="44.46819" lon="6.22942">
        <ele>744</ele>
        <time>2025-11-21T08:12:35.000Z</time>
      </trkpt>
      <trkpt lat="44.4682" lon="6.22942">
        <ele>744</ele>
        <time>2025-11-21T08:12:36.000Z</time>
      </trkpt>
      <trkpt lat="44.46821" lon="6.22942">
        <ele>744</ele>
        <time>2025-11-21T08:12:37.000Z</time>
      </trkpt>
      <trkpt lat="44.46822" lon="6.22943">
        <ele>743</ele>
        <time>2025-11-21T08:12:38.000Z</time>
      </trkpt>
      <trkpt lat="44.46823" lon="6.22943">
        <ele>744</ele>
        <time>2025-11-21T08:12:39.000Z</time>
      </trkpt>
      <trkpt lat="44.46824" lon="6.22942">
        <ele>744</ele>
        <time>2025-11-21T08:12:40.000Z</time>
      </trkpt>
      <trkpt lat="44.46825" lon="6.22942">
        <ele>745</ele>
        <time>2025-11-21T08:12:41.000Z</time>
      </trkpt>
      <trkpt lat="44.46826" lon="6.22942">
        <ele>745</ele>
        <time>2025-11-21T08:12:42.000Z</time>
      </trkpt>
      <trkpt lat="44.46827" lon="6.22942">
        <ele>745</ele>
        <time>2025-11-21T08:12:43.000Z</time>
      </trkpt>
      <trkpt lat="44.46829" lon="6.22942">
        <ele>745</ele>
        <time>2025-11-21T08:12:44.000Z</time>
      </trkpt>
      <trkpt lat="44.4683" lon="6.22942">
        <ele>744</ele>
        <time>2025-11-21T08:12:45.000Z</time>
      </trkpt>
      <trkpt lat="44.4683" lon="6.22942">
        <ele>744</ele>
        <time>2025-11-21T08:12:46.000Z</time>
      </trkpt>
      <trkpt lat="44.46831" lon="6.22942">
        <ele>744</ele>
        <time>2025-11-21T08:12:47.000Z</time>
      </trkpt>
      <trkpt lat="44.46833" lon="6.22942">
        <ele>743</ele>
        <time>2025-11-21T08:12:48.000Z</time>
      </trkpt>
      <trkpt lat="44.46834" lon="6.22941">
        <ele>744</ele>
        <time>2025-11-21T08:12:49.000Z</time>
      </trkpt>
      <trkpt lat="44.46834" lon="6.22941">
        <ele>744</ele>
        <time>2025-11-21T08:12:50.000Z</time>
      </trkpt>
      <trkpt lat="44.46834" lon="6.2294">
        <ele>745</ele>
        <time>2025-11-21T08:12:51.000Z</time>
      </trkpt>
      <trkpt lat="44.46835" lon="6.2294">
        <ele>745</ele>
        <time>2025-11-21T08:12:52.000Z</time>
      </trkpt>
      <trkpt lat="44.46836" lon="6.2294">
        <ele>745</ele>
        <time>2025-11-21T08:12:53.000Z</time>
      </trkpt>
      <trkpt lat="44.46837" lon="6.2294">
        <ele>744</ele>
        <time>2025-11-21T08:12:54.000Z</time>
      </trkpt>
      <trkpt lat="44.46841" lon="6.22939">
        <ele>745</ele>
        <time>2025-11-21T08:13:14.000Z</time>
      </trkpt>
      <trkpt lat="44.46841" lon="6.22939">
        <ele>745</ele>
        <time>2025-11-21T08:13:15.000Z</time>
      </trkpt>
      <trkpt lat="44.46841" lon="6.22939">
        <ele>745</ele>
        <time>2025-11-21T08:13:16.000Z</time>
      </trkpt>
      <trkpt lat="44.46842" lon="6.22939">
        <ele>745</ele>
        <time>2025-11-21T08:13:17.000Z</time>
      </trkpt>
      <trkpt lat="44.46842" lon="6.22939">
        <ele>750</ele>
        <time>2025-11-21T08:13:50.000Z</time>
      </trkpt>
      <trkpt lat="44.46841" lon="6.22936">
        <ele>749</ele>
        <time>2025-11-21T08:13:51.000Z</time>
      </trkpt>
      <trkpt lat="44.4684" lon="6.22935">
        <ele>749</ele>
        <time>2025-11-21T08:13:52.000Z</time>
      </trkpt>
      <trkpt lat="44.46841" lon="6.22933">
        <ele>748</ele>
        <time>2025-11-21T08:13:53.000Z</time>
      </trkpt>
      <trkpt lat="44.4684" lon="6.22931">
        <ele>749</ele>
        <time>2025-11-21T08:13:54.000Z</time>
      </trkpt>
      <trkpt lat="44.46841" lon="6.22931">
        <ele>750</ele>
        <time>2025-11-21T08:13:55.000Z</time>
      </trkpt>
      <trkpt lat="44.4684" lon="6.22931">
        <ele>750</ele>
        <time>2025-11-21T08:13:56.000Z</time>
      </trkpt>
      <trkpt lat="44.4684" lon="6.22931">
        <ele>750</ele>
        <time>2025-11-21T08:13:57.000Z</time>
      </trkpt>
      <trkpt lat="44.4684" lon="6.22931">
        <ele>750</ele>
        <time>2025-11-21T08:13:58.000Z</time>
      </trkpt>
      <trkpt lat="44.46841" lon="6.22932">
        <ele>751</ele>
        <time>2025-11-21T08:13:59.000Z</time>
      </trkpt>
      <trkpt lat="44.46842" lon="6.22933">
        <ele>751</ele>
        <time>2025-11-21T08:14:00.000Z</time>
      </trkpt>
      <trkpt lat="44.46841" lon="6.22933">
        <ele>751</ele>
        <time>2025-11-21T08:14:01.000Z</time>
      </trkpt>
      <trkpt lat="44.46841" lon="6.22934">
        <ele>751</ele>
        <time>2025-11-21T08:14:02.000Z</time>
      </trkpt>
      <trkpt lat="44.4684" lon="6.22934">
        <ele>751</ele>
        <time>2025-11-21T08:14:03.000Z</time>
      </trkpt>
      <trkpt lat="44.4684" lon="6.22933">
        <ele>751</ele>
        <time>2025-11-21T08:14:04.000Z</time>
      </trkpt>
      <trkpt lat="44.4684" lon="6.22933">
        <ele>751</ele>
        <time>2025-11-21T08:14:05.000Z</time>
      </trkpt>
      <trkpt lat="44.46839" lon="6.22934">
        <ele>751</ele>
        <time>2025-11-21T08:14:06.000Z</time>
      </trkpt>
      <trkpt lat="44.46839" lon="6.22934">
        <ele>751</ele>
        <time>2025-11-21T08:14:07.000Z</time>
      </trkpt>
      <trkpt lat="44.46839" lon="6.22934">
        <ele>751</ele>
        <time>2025-11-21T08:14:08.000Z</time>
      </trkpt>
      <trkpt lat="44.46839" lon="6.22934">
        <ele>751</ele>
        <time>2025-11-21T08:14:09.000Z</time>
      </trkpt>
      <trkpt lat="44.46839" lon="6.22934">
        <ele>751</ele>
        <time>2025-11-21T08:14:10.000Z</time>
      </trkpt>
      <trkpt lat="44.46839" lon="6.22934">
        <ele>751</ele>
        <time>2025-11-21T08:14:11.000Z</time>
      </trkpt>
      <trkpt lat="44.46839" lon="6.22935">
        <ele>751</ele>
        <time>2025-11-21T08:14:12.000Z</time>
      </trkpt>
      <trkpt lat="44.46839" lon="6.22936">
        <ele>750</ele>
        <time>2025-11-21T08:14:13.000Z</time>
      </trkpt>
      <trkpt lat="44.46841" lon="6.22937">
        <ele>752</ele>
        <time>2025-11-21T08:14:14.000Z</time>
      </trkpt>
      <trkpt lat="44.4684" lon="6.2294">
        <ele>753</ele>
        <time>2025-11-21T08:16:02.000Z</time>
      </trkpt>
      <trkpt lat="44.4684" lon="6.22939">
        <ele>753</ele>
        <time>2025-11-21T08:16:03.000Z</time>
      </trkpt>
      <trkpt lat="44.4684" lon="6.22939">
        <ele>753</ele>
        <time>2025-11-21T08:16:04.000Z</time>
      </trkpt>
      <trkpt lat="44.4684" lon="6.22938">
        <ele>753</ele>
        <time>2025-11-21T08:16:05.000Z</time>
      </trkpt>
      <trkpt lat="44.46842" lon="6.22939">
        <ele>754</ele>
        <time>2025-11-21T08:16:41.000Z</time>
      </trkpt>
      <trkpt lat="44.46841" lon="6.22937">
        <ele>754</ele>
        <time>2025-11-21T08:16:42.000Z</time>
      </trkpt>
      <trkpt lat="44.46841" lon="6.22936">
        <ele>754</ele>
        <time>2025-11-21T08:16:43.000Z</time>
      </trkpt>
      <trkpt lat="44.46842" lon="6.22935">
        <ele>754</ele>
        <time>2025-11-21T08:16:44.000Z</time>
      </trkpt>
      <trkpt lat="44.46842" lon="6.22933">
        <ele>754</ele>
        <time>2025-11-21T08:16:45.000Z</time>
      </trkpt>
      <trkpt lat="44.46842" lon="6.22932">
        <ele>754</ele>
        <time>2025-11-21T08:16:46.000Z</time>
      </trkpt>
      <trkpt lat="44.46842" lon="6.2293">
        <ele>754</ele>
        <time>2025-11-21T08:16:47.000Z</time>
      </trkpt>
      <trkpt lat="44.46842" lon="6.22929">
        <ele>754</ele>
        <time>2025-11-21T08:16:48.000Z</time>
      </trkpt>
      <trkpt lat="44.46842" lon="6.22927">
        <ele>753</ele>
        <time>2025-11-21T08:16:49.000Z</time>
      </trkpt>
      <trkpt lat="44.46843" lon="6.22926">
        <ele>752</ele>
        <time>2025-11-21T08:16:50.000Z</time>
      </trkpt>
      <trkpt lat="44.46844" lon="6.22925">
        <ele>752</ele>
        <time>2025-11-21T08:16:51.000Z</time>
      </trkpt>
      <trkpt lat="44.46845" lon="6.22923">
        <ele>752</ele>
        <time>2025-11-21T08:16:52.000Z</time>
      </trkpt>
      <trkpt lat="44.46846" lon="6.22922">
        <ele>751</ele>
        <time>2025-11-21T08:16:53.000Z</time>
      </trkpt>
      <trkpt lat="44.46847" lon="6.22921">
        <ele>750</ele>
        <time>2025-11-21T08:16:54.000Z</time>
      </trkpt>
      <trkpt lat="44.46848" lon="6.22919">
        <ele>749</ele>
        <time>2025-11-21T08:16:55.000Z</time>
      </trkpt>
      <trkpt lat="44.46849" lon="6.22918">
        <ele>749</ele>
        <time>2025-11-21T08:16:56.000Z</time>
      </trkpt>
      <trkpt lat="44.4685" lon="6.22916">
        <ele>749</ele>
        <time>2025-11-21T08:16:57.000Z</time>
      </trkpt>
      <trkpt lat="44.46851" lon="6.22915">
        <ele>748</ele>
        <time>2025-11-21T08:16:58.000Z</time>
      </trkpt>
      <trkpt lat="44.46851" lon="6.22914">
        <ele>749</ele>
        <time>2025-11-21T08:16:59.000Z</time>
      </trkpt>
      <trkpt lat="44.46852" lon="6.22913">
        <ele>748</ele>
        <time>2025-11-21T08:17:00.000Z</time>
      </trkpt>
      <trkpt lat="44.46853" lon="6.22912">
        <ele>749</ele>
        <time>2025-11-21T08:17:01.000Z</time>
      </trkpt>
      <trkpt lat="44.46854" lon="6.22911">
        <ele>749</ele>
        <time>2025-11-21T08:17:02.000Z</time>
      </trkpt>
      <trkpt lat="44.46854" lon="6.22911">
        <ele>749</ele>
        <time>2025-11-21T08:17:03.000Z</time>
      </trkpt>
      <trkpt lat="44.46854" lon="6.2291">
        <ele>748</ele>
        <time>2025-11-21T08:17:04.000Z</time>
      </trkpt>
      <trkpt lat="44.46855" lon="6.22909">
        <ele>749</ele>
        <time>2025-11-21T08:17:05.000Z</time>
      </trkpt>
      <trkpt lat="44.46855" lon="6.22907">
        <ele>749</ele>
        <time>2025-11-21T08:17:06.000Z</time>
      </trkpt>
      <trkpt lat="44.46855" lon="6.22905">
        <ele>749</ele>
        <time>2025-11-21T08:17:07.000Z</time>
      </trkpt>
      <trkpt lat="44.46856" lon="6.22902">
        <ele>749</ele>
        <time>2025-11-21T08:17:08.000Z</time>
      </trkpt>
      <trkpt lat="44.46857" lon="6.229">
        <ele>750</ele>
        <time>2025-11-21T08:17:09.000Z</time>
      </trkpt>
      <trkpt lat="44.46857" lon="6.22898">
        <ele>750</ele>
        <time>2025-11-21T08:17:10.000Z</time>
      </trkpt>
      <trkpt lat="44.46858" lon="6.22897">
        <ele>751</ele>
        <time>2025-11-21T08:17:11.000Z</time>
      </trkpt>
      <trkpt lat="44.46858" lon="6.22896">
        <ele>751</ele>
        <time>2025-11-21T08:17:12.000Z</time>
      </trkpt>
      <trkpt lat="44.46859" lon="6.22894">
        <ele>751</ele>
        <time>2025-11-21T08:17:13.000Z</time>
      </trkpt>
      <trkpt lat="44.4686" lon="6.22893">
        <ele>751</ele>
        <time>2025-11-21T08:17:14.000Z</time>
      </trkpt>
      <trkpt lat="44.46861" lon="6.22891">
        <ele>751</ele>
        <time>2025-11-21T08:17:15.000Z</time>
      </trkpt>
      <trkpt lat="44.46862" lon="6.22889">
        <ele>750</ele>
        <time>2025-11-21T08:17:16.000Z</time>
      </trkpt>
      <trkpt lat="44.46862" lon="6.22888">
        <ele>750</ele>
        <time>2025-11-21T08:17:17.000Z</time>
      </trkpt>
      <trkpt lat="44.46862" lon="6.22886">
        <ele>750</ele>
        <time>2025-11-21T08:17:18.000Z</time>
      </trkpt>
      <trkpt lat="44.46863" lon="6.22885">
        <ele>749</ele>
        <time>2025-11-21T08:17:19.000Z</time>
      </trkpt>
      <trkpt lat="44.46864" lon="6.22884">
        <ele>749</ele>
        <time>2025-11-21T08:17:20.000Z</time>
      </trkpt>
      <trkpt lat="44.46864" lon="6.22882">
        <ele>749</ele>
        <time>2025-11-21T08:17:21.000Z</time>
      </trkpt>
      <trkpt lat="44.46865" lon="6.22881">
        <ele>749</ele>
        <time>2025-11-21T08:17:22.000Z</time>
      </trkpt>
      <trkpt lat="44.46865" lon="6.2288">
        <ele>749</ele>
        <time>2025-11-21T08:17:23.000Z</time>
      </trkpt>
      <trkpt lat="44.46866" lon="6.22879">
        <ele>749</ele>
        <time>2025-11-21T08:17:24.000Z</time>
      </trkpt>
      <trkpt lat="44.46866" lon="6.22877">
        <ele>748</ele>
        <time>2025-11-21T08:17:25.000Z</time>
      </trkpt>
      <trkpt lat="44.46866" lon="6.22876">
        <ele>747</ele>
        <time>2025-11-21T08:17:26.000Z</time>
      </trkpt>
      <trkpt lat="44.46867" lon="6.22874">
        <ele>746</ele>
        <time>2025-11-21T08:17:27.000Z</time>
      </trkpt>
      <trkpt lat="44.46867" lon="6.22873">
        <ele>746</ele>
        <time>2025-11-21T08:17:28.000Z</time>
      </trkpt>
      <trkpt lat="44.46867" lon="6.22873">
        <ele>746</ele>
        <time>2025-11-21T08:17:29.000Z</time>
      </trkpt>
      <trkpt lat="44.46868" lon="6.22871">
        <ele>746</ele>
        <time>2025-11-21T08:17:30.000Z</time>
      </trkpt>
      <trkpt lat="44.46868" lon="6.2287">
        <ele>746</ele>
        <time>2025-11-21T08:17:31.000Z</time>
      </trkpt>
      <trkpt lat="44.46869" lon="6.22869">
        <ele>746</ele>
        <time>2025-11-21T08:17:32.000Z</time>
      </trkpt>
      <trkpt lat="44.46869" lon="6.22869">
        <ele>746</ele>
        <time>2025-11-21T08:17:33.000Z</time>
      </trkpt>
      <trkpt lat="44.46869" lon="6.22868">
        <ele>746</ele>
        <time>2025-11-21T08:17:34.000Z</time>
      </trkpt>
      <trkpt lat="44.4687" lon="6.22868">
        <ele>745</ele>
        <time>2025-11-21T08:17:35.000Z</time>
      </trkpt>
      <trkpt lat="44.46871" lon="6.22868">
        <ele>745</ele>
        <time>2025-11-21T08:17:36.000Z</time>
      </trkpt>
      <trkpt lat="44.46873" lon="6.22868">
        <ele>746</ele>
        <time>2025-11-21T08:17:37.000Z</time>
      </trkpt>
      <trkpt lat="44.46873" lon="6.22866">
        <ele>746</ele>
        <time>2025-11-21T08:17:38.000Z</time>
      </trkpt>
      <trkpt lat="44.46874" lon="6.22866">
        <ele>747</ele>
        <time>2025-11-21T08:17:39.000Z</time>
      </trkpt>
      <trkpt lat="44.46875" lon="6.22865">
        <ele>747</ele>
        <time>2025-11-21T08:17:40.000Z</time>
      </trkpt>
      <trkpt lat="44.46875" lon="6.22863">
        <ele>746</ele>
        <time>2025-11-21T08:17:41.000Z</time>
      </trkpt>
      <trkpt lat="44.46876" lon="6.22862">
        <ele>746</ele>
        <time>2025-11-21T08:17:42.000Z</time>
      </trkpt>
      <trkpt lat="44.46876" lon="6.2286">
        <ele>746</ele>
        <time>2025-11-21T08:17:43.000Z</time>
      </trkpt>
      <trkpt lat="44.46877" lon="6.22859">
        <ele>745</ele>
        <time>2025-11-21T08:17:44.000Z</time>
      </trkpt>
      <trkpt lat="44.46877" lon="6.22857">
        <ele>745</ele>
        <time>2025-11-21T08:17:45.000Z</time>
      </trkpt>
      <trkpt lat="44.46878" lon="6.22856">
        <ele>745</ele>
        <time>2025-11-21T08:17:46.000Z</time>
      </trkpt>
      <trkpt lat="44.46878" lon="6.22855">
        <ele>745</ele>
        <time>2025-11-21T08:17:47.000Z</time>
      </trkpt>
      <trkpt lat="44.46879" lon="6.22854">
        <ele>745</ele>
        <time>2025-11-21T08:17:48.000Z</time>
      </trkpt>
      <trkpt lat="44.4688" lon="6.22853">
        <ele>745</ele>
        <time>2025-11-21T08:17:49.000Z</time>
      </trkpt>
      <trkpt lat="44.46882" lon="6.22851">
        <ele>744</ele>
        <time>2025-11-21T08:17:50.000Z</time>
      </trkpt>
      <trkpt lat="44.46883" lon="6.2285">
        <ele>744</ele>
        <time>2025-11-21T08:17:51.000Z</time>
      </trkpt>
      <trkpt lat="44.46884" lon="6.22848">
        <ele>745</ele>
        <time>2025-11-21T08:17:52.000Z</time>
      </trkpt>
      <trkpt lat="44.46885" lon="6.22846">
        <ele>745</ele>
        <time>2025-11-21T08:17:53.000Z</time>
      </trkpt>
      <trkpt lat="44.46886" lon="6.22845">
        <ele>745</ele>
        <time>2025-11-21T08:17:54.000Z</time>
      </trkpt>
      <trkpt lat="44.46886" lon="6.22844">
        <ele>744</ele>
        <time>2025-11-21T08:17:55.000Z</time>
      </trkpt>
      <trkpt lat="44.46886" lon="6.22843">
        <ele>744</ele>
        <time>2025-11-21T08:17:56.000Z</time>
      </trkpt>
      <trkpt lat="44.46887" lon="6.22842">
        <ele>744</ele>
        <time>2025-11-21T08:17:57.000Z</time>
      </trkpt>
      <trkpt lat="44.46887" lon="6.22841">
        <ele>744</ele>
        <time>2025-11-21T08:17:58.000Z</time>
      </trkpt>
      <trkpt lat="44.46888" lon="6.2284">
        <ele>745</ele>
        <time>2025-11-21T08:17:59.000Z</time>
      </trkpt>
      <trkpt lat="44.46888" lon="6.22838">
        <ele>745</ele>
        <time>2025-11-21T08:18:00.000Z</time>
      </trkpt>
      <trkpt lat="44.46889" lon="6.22836">
        <ele>745</ele>
        <time>2025-11-21T08:18:01.000Z</time>
      </trkpt>
      <trkpt lat="44.4689" lon="6.22835">
        <ele>746</ele>
        <time>2025-11-21T08:18:02.000Z</time>
      </trkpt>
      <trkpt lat="44.4689" lon="6.22834">
        <ele>746</ele>
        <time>2025-11-21T08:18:03.000Z</time>
      </trkpt>
      <trkpt lat="44.46891" lon="6.22832">
        <ele>747</ele>
        <time>2025-11-21T08:18:04.000Z</time>
      </trkpt>
      <trkpt lat="44.46892" lon="6.22831">
        <ele>748</ele>
        <time>2025-11-21T08:18:05.000Z</time>
      </trkpt>
      <trkpt lat="44.46893" lon="6.22829">
        <ele>748</ele>
        <time>2025-11-21T08:18:06.000Z</time>
      </trkpt>
      <trkpt lat="44.46893" lon="6.22828">
        <ele>748</ele>
        <time>2025-11-21T08:18:07.000Z</time>
      </trkpt>
      <trkpt lat="44.46894" lon="6.22827">
        <ele>748</ele>
        <time>2025-11-21T08:18:08.000Z</time>
      </trkpt>
      <trkpt lat="44.46895" lon="6.22826">
        <ele>749</ele>
        <time>2025-11-21T08:18:09.000Z</time>
      </trkpt>
      <trkpt lat="44.46896" lon="6.22824">
        <ele>748</ele>
        <time>2025-11-21T08:18:10.000Z</time>
      </trkpt>
      <trkpt lat="44.46896" lon="6.22824">
        <ele>749</ele>
        <time>2025-11-21T08:18:11.000Z</time>
      </trkpt>
      <trkpt lat="44.46897" lon="6.22823">
        <ele>750</ele>
        <time>2025-11-21T08:18:12.000Z</time>
      </trkpt>
      <trkpt lat="44.46897" lon="6.22821">
        <ele>749</ele>
        <time>2025-11-21T08:18:13.000Z</time>
      </trkpt>
      <trkpt lat="44.46898" lon="6.2282">
        <ele>750</ele>
        <time>2025-11-21T08:18:14.000Z</time>
      </trkpt>
      <trkpt lat="44.46898" lon="6.22819">
        <ele>750</ele>
        <time>2025-11-21T08:18:15.000Z</time>
      </trkpt>
      <trkpt lat="44.46899" lon="6.22817">
        <ele>750</ele>
        <time>2025-11-21T08:18:16.000Z</time>
      </trkpt>
      <trkpt lat="44.469" lon="6.22816">
        <ele>750</ele>
        <time>2025-11-21T08:18:17.000Z</time>
      </trkpt>
      <trkpt lat="44.46901" lon="6.22815">
        <ele>751</ele>
        <time>2025-11-21T08:18:18.000Z</time>
      </trkpt>
      <trkpt lat="44.46903" lon="6.22814">
        <ele>752</ele>
        <time>2025-11-21T08:18:19.000Z</time>
      </trkpt>
      <trkpt lat="44.46904" lon="6.22814">
        <ele>752</ele>
        <time>2025-11-21T08:18:20.000Z</time>
      </trkpt>
      <trkpt lat="44.46904" lon="6.22814">
        <ele>752</ele>
        <time>2025-11-21T08:18:21.000Z</time>
      </trkpt>
      <trkpt lat="44.46905" lon="6.22814">
        <ele>752</ele>
        <time>2025-11-21T08:18:22.000Z</time>
      </trkpt>
      <trkpt lat="44.46906" lon="6.22813">
        <ele>752</ele>
        <time>2025-11-21T08:18:23.000Z</time>
      </trkpt>
      <trkpt lat="44.46906" lon="6.22813">
        <ele>752</ele>
        <time>2025-11-21T08:18:24.000Z</time>
      </trkpt>
      <trkpt lat="44.46906" lon="6.22813">
        <ele>752</ele>
        <time>2025-11-21T08:18:25.000Z</time>
      </trkpt>
      <trkpt lat="44.46906" lon="6.22813">
        <ele>752</ele>
        <time>2025-11-21T08:18:26.000Z</time>
      </trkpt>
      <trkpt lat="44.46908" lon="6.22811">
        <ele>752</ele>
        <time>2025-11-21T08:18:27.000Z</time>
      </trkpt>
      <trkpt lat="44.46908" lon="6.2281">
        <ele>752</ele>
        <time>2025-11-21T08:18:28.000Z</time>
      </trkpt>
      <trkpt lat="44.46908" lon="6.22809">
        <ele>753</ele>
        <time>2025-11-21T08:18:29.000Z</time>
      </trkpt>
      <trkpt lat="44.46908" lon="6.22807">
        <ele>754</ele>
        <time>2025-11-21T08:18:30.000Z</time>
      </trkpt>
      <trkpt lat="44.46908" lon="6.22807">
        <ele>754</ele>
        <time>2025-11-21T08:18:31.000Z</time>
      </trkpt>
      <trkpt lat="44.46908" lon="6.22806">
        <ele>753</ele>
        <time>2025-11-21T08:18:32.000Z</time>
      </trkpt>
      <trkpt lat="44.46909" lon="6.22805">
        <ele>753</ele>
        <time>2025-11-21T08:18:33.000Z</time>
      </trkpt>
      <trkpt lat="44.46909" lon="6.22805">
        <ele>754</ele>
        <time>2025-11-21T08:18:34.000Z</time>
      </trkpt>
      <trkpt lat="44.4691" lon="6.22803">
        <ele>754</ele>
        <time>2025-11-21T08:18:35.000Z</time>
      </trkpt>
      <trkpt lat="44.4691" lon="6.22803">
        <ele>754</ele>
        <time>2025-11-21T08:18:36.000Z</time>
      </trkpt>
      <trkpt lat="44.4691" lon="6.22803">
        <ele>754</ele>
        <time>2025-11-21T08:18:37.000Z</time>
      </trkpt>
      <trkpt lat="44.46911" lon="6.228">
        <ele>753</ele>
        <time>2025-11-21T08:18:38.000Z</time>
      </trkpt>
      <trkpt lat="44.46912" lon="6.22798">
        <ele>753</ele>
        <time>2025-11-21T08:18:39.000Z</time>
      </trkpt>
      <trkpt lat="44.46912" lon="6.22797">
        <ele>753</ele>
        <time>2025-11-21T08:18:40.000Z</time>
      </trkpt>
      <trkpt lat="44.46912" lon="6.22797">
        <ele>753</ele>
        <time>2025-11-21T08:18:41.000Z</time>
      </trkpt>
      <trkpt lat="44.46912" lon="6.22796">
        <ele>753</ele>
        <time>2025-11-21T08:18:42.000Z</time>
      </trkpt>
      <trkpt lat="44.46912" lon="6.22795">
        <ele>753</ele>
        <time>2025-11-21T08:18:43.000Z</time>
      </trkpt>
      <trkpt lat="44.46913" lon="6.22794">
        <ele>753</ele>
        <time>2025-11-21T08:18:44.000Z</time>
      </trkpt>
      <trkpt lat="44.46913" lon="6.22793">
        <ele>753</ele>
        <time>2025-11-21T08:18:45.000Z</time>
      </trkpt>
      <trkpt lat="44.46913" lon="6.22791">
        <ele>753</ele>
        <time>2025-11-21T08:18:46.000Z</time>
      </trkpt>
      <trkpt lat="44.46913" lon="6.22791">
        <ele>753</ele>
        <time>2025-11-21T08:18:47.000Z</time>
      </trkpt>
      <trkpt lat="44.46913" lon="6.22789">
        <ele>752</ele>
        <time>2025-11-21T08:18:48.000Z</time>
      </trkpt>
      <trkpt lat="44.46913" lon="6.22787">
        <ele>752</ele>
        <time>2025-11-21T08:18:49.000Z</time>
      </trkpt>
      <trkpt lat="44.46913" lon="6.22785">
        <ele>753</ele>
        <time>2025-11-21T08:18:50.000Z</time>
      </trkpt>
      <trkpt lat="44.46913" lon="6.22784">
        <ele>753</ele>
        <time>2025-11-21T08:18:51.000Z</time>
      </trkpt>
      <trkpt lat="44.46913" lon="6.22783">
        <ele>753</ele>
        <time>2025-11-21T08:18:52.000Z</time>
      </trkpt>
      <trkpt lat="44.46913" lon="6.22782">
        <ele>753</ele>
        <time>2025-11-21T08:18:53.000Z</time>
      </trkpt>
      <trkpt lat="44.46913" lon="6.22781">
        <ele>753</ele>
        <time>2025-11-21T08:18:54.000Z</time>
      </trkpt>
      <trkpt lat="44.46913" lon="6.22781">
        <ele>753</ele>
        <time>2025-11-21T08:18:55.000Z</time>
      </trkpt>
      <trkpt lat="44.46912" lon="6.22778">
        <ele>753</ele>
        <time>2025-11-21T08:18:56.000Z</time>
      </trkpt>
      <trkpt lat="44.46911" lon="6.22776">
        <ele>753</ele>
        <time>2025-11-21T08:18:57.000Z</time>
      </trkpt>
      <trkpt lat="44.46911" lon="6.22774">
        <ele>754</ele>
        <time>2025-11-21T08:18:58.000Z</time>
      </trkpt>
      <trkpt lat="44.4691" lon="6.22773">
        <ele>754</ele>
        <time>2025-11-21T08:18:59.000Z</time>
      </trkpt>
      <trkpt lat="44.4691" lon="6.22771">
        <ele>753</ele>
        <time>2025-11-21T08:19:00.000Z</time>
      </trkpt>
      <trkpt lat="44.4691" lon="6.2277">
        <ele>754</ele>
        <time>2025-11-21T08:19:01.000Z</time>
      </trkpt>
      <trkpt lat="44.46909" lon="6.22769">
        <ele>754</ele>
        <time>2025-11-21T08:19:02.000Z</time>
      </trkpt>
      <trkpt lat="44.46909" lon="6.22768">
        <ele>753</ele>
        <time>2025-11-21T08:19:03.000Z</time>
      </trkpt>
      <trkpt lat="44.46909" lon="6.22767">
        <ele>753</ele>
        <time>2025-11-21T08:19:04.000Z</time>
      </trkpt>
      <trkpt lat="44.46908" lon="6.22766">
        <ele>753</ele>
        <time>2025-11-21T08:19:05.000Z</time>
      </trkpt>
      <trkpt lat="44.46908" lon="6.22764">
        <ele>753</ele>
        <time>2025-11-21T08:19:06.000Z</time>
      </trkpt>
      <trkpt lat="44.46908" lon="6.22763">
        <ele>754</ele>
        <time>2025-11-21T08:19:07.000Z</time>
      </trkpt>
      <trkpt lat="44.46909" lon="6.22762">
        <ele>754</ele>
        <time>2025-11-21T08:19:08.000Z</time>
      </trkpt>
      <trkpt lat="44.46909" lon="6.22762">
        <ele>754</ele>
        <time>2025-11-21T08:19:09.000Z</time>
      </trkpt>
      <trkpt lat="44.46909" lon="6.22761">
        <ele>753</ele>
        <time>2025-11-21T08:19:10.000Z</time>
      </trkpt>
      <trkpt lat="44.46909" lon="6.22761">
        <ele>753</ele>
        <time>2025-11-21T08:19:11.000Z</time>
      </trkpt>
      <trkpt lat="44.46908" lon="6.22759">
        <ele>753</ele>
        <time>2025-11-21T08:19:12.000Z</time>
      </trkpt>
      <trkpt lat="44.46908" lon="6.22757">
        <ele>753</ele>
        <time>2025-11-21T08:19:13.000Z</time>
      </trkpt>
      <trkpt lat="44.46907" lon="6.22756">
        <ele>753</ele>
        <time>2025-11-21T08:19:14.000Z</time>
      </trkpt>
      <trkpt lat="44.46907" lon="6.22755">
        <ele>753</ele>
        <time>2025-11-21T08:19:15.000Z</time>
      </trkpt>
      <trkpt lat="44.46907" lon="6.22754">
        <ele>753</ele>
        <time>2025-11-21T08:19:16.000Z</time>
      </trkpt>
      <trkpt lat="44.46906" lon="6.22753">
        <ele>753</ele>
        <time>2025-11-21T08:19:17.000Z</time>
      </trkpt>
      <trkpt lat="44.46906" lon="6.22753">
        <ele>753</ele>
        <time>2025-11-21T08:19:18.000Z</time>
      </trkpt>
      <trkpt lat="44.46906" lon="6.22752">
        <ele>752</ele>
        <time>2025-11-21T08:19:19.000Z</time>
      </trkpt>
      <trkpt lat="44.46907" lon="6.2275">
        <ele>751</ele>
        <time>2025-11-21T08:19:20.000Z</time>
      </trkpt>
      <trkpt lat="44.46907" lon="6.22749">
        <ele>751</ele>
        <time>2025-11-21T08:19:21.000Z</time>
      </trkpt>
      <trkpt lat="44.46908" lon="6.22747">
        <ele>751</ele>
        <time>2025-11-21T08:19:22.000Z</time>
      </trkpt>
      <trkpt lat="44.46908" lon="6.22746">
        <ele>750</ele>
        <time>2025-11-21T08:19:23.000Z</time>
      </trkpt>
      <trkpt lat="44.46908" lon="6.22745">
        <ele>750</ele>
        <time>2025-11-21T08:19:24.000Z</time>
      </trkpt>
      <trkpt lat="44.46908" lon="6.22743">
        <ele>750</ele>
        <time>2025-11-21T08:19:25.000Z</time>
      </trkpt>
      <trkpt lat="44.46908" lon="6.22742">
        <ele>750</ele>
        <time>2025-11-21T08:19:26.000Z</time>
      </trkpt>
      <trkpt lat="44.46908" lon="6.2274">
        <ele>751</ele>
        <time>2025-11-21T08:19:27.000Z</time>
      </trkpt>
      <trkpt lat="44.46908" lon="6.22739">
        <ele>751</ele>
        <time>2025-11-21T08:19:28.000Z</time>
      </trkpt>
      <trkpt lat="44.46908" lon="6.22738">
        <ele>751</ele>
        <time>2025-11-21T08:19:29.000Z</time>
      </trkpt>
      <trkpt lat="44.46908" lon="6.22736">
        <ele>751</ele>
        <time>2025-11-21T08:19:30.000Z</time>
      </trkpt>
      <trkpt lat="44.46908" lon="6.22735">
        <ele>750</ele>
        <time>2025-11-21T08:19:31.000Z</time>
      </trkpt>
      <trkpt lat="44.46908" lon="6.22734">
        <ele>750</ele>
        <time>2025-11-21T08:19:32.000Z</time>
      </trkpt>
      <trkpt lat="44.46908" lon="6.22732">
        <ele>750</ele>
        <time>2025-11-21T08:19:33.000Z</time>
      </trkpt>
      <trkpt lat="44.46909" lon="6.22732">
        <ele>749</ele>
        <time>2025-11-21T08:19:34.000Z</time>
      </trkpt>
      <trkpt lat="44.4691" lon="6.22731">
        <ele>749</ele>
        <time>2025-11-21T08:19:35.000Z</time>
      </trkpt>
      <trkpt lat="44.4691" lon="6.22729">
        <ele>749</ele>
        <time>2025-11-21T08:19:36.000Z</time>
      </trkpt>
      <trkpt lat="44.46911" lon="6.22728">
        <ele>750</ele>
        <time>2025-11-21T08:19:37.000Z</time>
      </trkpt>
      <trkpt lat="44.46912" lon="6.22727">
        <ele>750</ele>
        <time>2025-11-21T08:19:38.000Z</time>
      </trkpt>
      <trkpt lat="44.46912" lon="6.22726">
        <ele>750</ele>
        <time>2025-11-21T08:19:39.000Z</time>
      </trkpt>
      <trkpt lat="44.46913" lon="6.22725">
        <ele>750</ele>
        <time>2025-11-21T08:19:40.000Z</time>
      </trkpt>
      <trkpt lat="44.46914" lon="6.22724">
        <ele>750</ele>
        <time>2025-11-21T08:19:41.000Z</time>
      </trkpt>
      <trkpt lat="44.46914" lon="6.22723">
        <ele>750</ele>
        <time>2025-11-21T08:19:42.000Z</time>
      </trkpt>
      <trkpt lat="44.46915" lon="6.22722">
        <ele>749</ele>
        <time>2025-11-21T08:19:43.000Z</time>
      </trkpt>
      <trkpt lat="44.46915" lon="6.22721">
        <ele>749</ele>
        <time>2025-11-21T08:19:44.000Z</time>
      </trkpt>
      <trkpt lat="44.46915" lon="6.22719">
        <ele>750</ele>
        <time>2025-11-21T08:19:45.000Z</time>
      </trkpt>
      <trkpt lat="44.46915" lon="6.22717">
        <ele>749</ele>
        <time>2025-11-21T08:19:46.000Z</time>
      </trkpt>
      <trkpt lat="44.46915" lon="6.22716">
        <ele>750</ele>
        <time>2025-11-21T08:19:47.000Z</time>
      </trkpt>
      <trkpt lat="44.46915" lon="6.22715">
        <ele>750</ele>
        <time>2025-11-21T08:19:48.000Z</time>
      </trkpt>
      <trkpt lat="44.46915" lon="6.22715">
        <ele>750</ele>
        <time>2025-11-21T08:19:49.000Z</time>
      </trkpt>
      <trkpt lat="44.46915" lon="6.22714">
        <ele>750</ele>
        <time>2025-11-21T08:19:50.000Z</time>
      </trkpt>
      <trkpt lat="44.46915" lon="6.22712">
        <ele>750</ele>
        <time>2025-11-21T08:19:51.000Z</time>
      </trkpt>
      <trkpt lat="44.46916" lon="6.22712">
        <ele>750</ele>
        <time>2025-11-21T08:19:52.000Z</time>
      </trkpt>
      <trkpt lat="44.46915" lon="6.2271">
        <ele>751</ele>
        <time>2025-11-21T08:19:53.000Z</time>
      </trkpt>
      <trkpt lat="44.46915" lon="6.22709">
        <ele>752</ele>
        <time>2025-11-21T08:19:54.000Z</time>
      </trkpt>
      <trkpt lat="44.46915" lon="6.22708">
        <ele>752</ele>
        <time>2025-11-21T08:19:55.000Z</time>
      </trkpt>
      <trkpt lat="44.46915" lon="6.22707">
        <ele>753</ele>
        <time>2025-11-21T08:19:56.000Z</time>
      </trkpt>
      <trkpt lat="44.46915" lon="6.22706">
        <ele>753</ele>
        <time>2025-11-21T08:19:57.000Z</time>
      </trkpt>
      <trkpt lat="44.46914" lon="6.22705">
        <ele>754</ele>
        <time>2025-11-21T08:19:58.000Z</time>
      </trkpt>
      <trkpt lat="44.46914" lon="6.22705">
        <ele>754</ele>
        <time>2025-11-21T08:19:59.000Z</time>
      </trkpt>
      <trkpt lat="44.46914" lon="6.22705">
        <ele>754</ele>
        <time>2025-11-21T08:20:00.000Z</time>
      </trkpt>
      <trkpt lat="44.46915" lon="6.22703">
        <ele>754</ele>
        <time>2025-11-21T08:20:01.000Z</time>
      </trkpt>
      <trkpt lat="44.46915" lon="6.22702">
        <ele>754</ele>
        <time>2025-11-21T08:20:02.000Z</time>
      </trkpt>
      <trkpt lat="44.46914" lon="6.22702">
        <ele>754</ele>
        <time>2025-11-21T08:20:03.000Z</time>
      </trkpt>
      <trkpt lat="44.46914" lon="6.22701">
        <ele>754</ele>
        <time>2025-11-21T08:20:04.000Z</time>
      </trkpt>
      <trkpt lat="44.46914" lon="6.227">
        <ele>755</ele>
        <time>2025-11-21T08:20:05.000Z</time>
      </trkpt>
      <trkpt lat="44.46914" lon="6.22699">
        <ele>755</ele>
        <time>2025-11-21T08:20:06.000Z</time>
      </trkpt>
      <trkpt lat="44.46914" lon="6.22699">
        <ele>755</ele>
        <time>2025-11-21T08:20:07.000Z</time>
      </trkpt>
      <trkpt lat="44.46914" lon="6.22698">
        <ele>755</ele>
        <time>2025-11-21T08:20:08.000Z</time>
      </trkpt>
      <trkpt lat="44.46914" lon="6.22698">
        <ele>755</ele>
        <time>2025-11-21T08:20:09.000Z</time>
      </trkpt>
      <trkpt lat="44.46914" lon="6.22698">
        <ele>755</ele>
        <time>2025-11-21T08:20:10.000Z</time>
      </trkpt>
      <trkpt lat="44.46914" lon="6.22698">
        <ele>755</ele>
        <time>2025-11-21T08:20:11.000Z</time>
      </trkpt>
      <trkpt lat="44.46914" lon="6.22698">
        <ele>755</ele>
        <time>2025-11-21T08:20:12.000Z</time>
      </trkpt>
      <trkpt lat="44.46914" lon="6.22697">
        <ele>756</ele>
        <time>2025-11-21T08:20:13.000Z</time>
      </trkpt>
      <trkpt lat="44.46914" lon="6.22697">
        <ele>756</ele>
        <time>2025-11-21T08:20:14.000Z</time>
      </trkpt>
      <trkpt lat="44.46915" lon="6.22696">
        <ele>756</ele>
        <time>2025-11-21T08:20:15.000Z</time>
      </trkpt>
      <trkpt lat="44.46915" lon="6.22696">
        <ele>756</ele>
        <time>2025-11-21T08:20:16.000Z</time>
      </trkpt>
      <trkpt lat="44.46915" lon="6.22696">
        <ele>756</ele>
        <time>2025-11-21T08:20:17.000Z</time>
      </trkpt>
      <trkpt lat="44.46915" lon="6.22695">
        <ele>757</ele>
        <time>2025-11-21T08:20:18.000Z</time>
      </trkpt>
      <trkpt lat="44.46914" lon="6.22694">
        <ele>757</ele>
        <time>2025-11-21T08:20:19.000Z</time>
      </trkpt>
      <trkpt lat="44.46914" lon="6.22694">
        <ele>757</ele>
        <time>2025-11-21T08:20:20.000Z</time>
      </trkpt>
      <trkpt lat="44.46913" lon="6.22693">
        <ele>757</ele>
        <time>2025-11-21T08:20:21.000Z</time>
      </trkpt>
      <trkpt lat="44.46913" lon="6.22691">
        <ele>757</ele>
        <time>2025-11-21T08:20:22.000Z</time>
      </trkpt>
      <trkpt lat="44.46913" lon="6.22691">
        <ele>757</ele>
        <time>2025-11-21T08:20:23.000Z</time>
      </trkpt>
      <trkpt lat="44.46912" lon="6.2269">
        <ele>757</ele>
        <time>2025-11-21T08:20:24.000Z</time>
      </trkpt>
      <trkpt lat="44.46912" lon="6.2269">
        <ele>757</ele>
        <time>2025-11-21T08:20:25.000Z</time>
      </trkpt>
      <trkpt lat="44.46912" lon="6.22688">
        <ele>757</ele>
        <time>2025-11-21T08:20:26.000Z</time>
      </trkpt>
      <trkpt lat="44.46912" lon="6.22686">
        <ele>757</ele>
        <time>2025-11-21T08:20:27.000Z</time>
      </trkpt>
      <trkpt lat="44.46912" lon="6.22684">
        <ele>757</ele>
        <time>2025-11-21T08:20:28.000Z</time>
      </trkpt>
      <trkpt lat="44.46911" lon="6.22683">
        <ele>758</ele>
        <time>2025-11-21T08:20:29.000Z</time>
      </trkpt>
      <trkpt lat="44.46911" lon="6.22682">
        <ele>759</ele>
        <time>2025-11-21T08:20:30.000Z</time>
      </trkpt>
      <trkpt lat="44.46911" lon="6.22681">
        <ele>759</ele>
        <time>2025-11-21T08:20:31.000Z</time>
      </trkpt>
      <trkpt lat="44.46911" lon="6.2268">
        <ele>758</ele>
        <time>2025-11-21T08:20:32.000Z</time>
      </trkpt>
      <trkpt lat="44.46911" lon="6.2268">
        <ele>758</ele>
        <time>2025-11-21T08:20:33.000Z</time>
      </trkpt>
      <trkpt lat="44.46911" lon="6.2268">
        <ele>758</ele>
        <time>2025-11-21T08:20:34.000Z</time>
      </trkpt>
      <trkpt lat="44.4691" lon="6.22679">
        <ele>758</ele>
        <time>2025-11-21T08:20:35.000Z</time>
      </trkpt>
      <trkpt lat="44.4691" lon="6.22679">
        <ele>758</ele>
        <time>2025-11-21T08:20:36.000Z</time>
      </trkpt>
      <trkpt lat="44.4691" lon="6.22678">
        <ele>758</ele>
        <time>2025-11-21T08:20:37.000Z</time>
      </trkpt>
      <trkpt lat="44.46909" lon="6.22677">
        <ele>758</ele>
        <time>2025-11-21T08:20:38.000Z</time>
      </trkpt>
      <trkpt lat="44.46909" lon="6.22676">
        <ele>757</ele>
        <time>2025-11-21T08:20:39.000Z</time>
      </trkpt>
      <trkpt lat="44.46908" lon="6.22675">
        <ele>757</ele>
        <time>2025-11-21T08:20:40.000Z</time>
      </trkpt>
      <trkpt lat="44.46908" lon="6.22674">
        <ele>757</ele>
        <time>2025-11-21T08:20:41.000Z</time>
      </trkpt>
      <trkpt lat="44.46908" lon="6.22673">
        <ele>757</ele>
        <time>2025-11-21T08:20:42.000Z</time>
      </trkpt>
      <trkpt lat="44.46908" lon="6.22672">
        <ele>756</ele>
        <time>2025-11-21T08:20:43.000Z</time>
      </trkpt>
      <trkpt lat="44.46908" lon="6.22671">
        <ele>756</ele>
        <time>2025-11-21T08:20:44.000Z</time>
      </trkpt>
      <trkpt lat="44.46907" lon="6.2267">
        <ele>755</ele>
        <time>2025-11-21T08:20:45.000Z</time>
      </trkpt>
      <trkpt lat="44.46907" lon="6.2267">
        <ele>755</ele>
        <time>2025-11-21T08:20:46.000Z</time>
      </trkpt>
      <trkpt lat="44.46907" lon="6.2267">
        <ele>755</ele>
        <time>2025-11-21T08:20:47.000Z</time>
      </trkpt>
      <trkpt lat="44.46907" lon="6.22667">
        <ele>755</ele>
        <time>2025-11-21T08:20:48.000Z</time>
      </trkpt>
      <trkpt lat="44.46906" lon="6.22666">
        <ele>754</ele>
        <time>2025-11-21T08:20:49.000Z</time>
      </trkpt>
      <trkpt lat="44.46906" lon="6.22665">
        <ele>753</ele>
        <time>2025-11-21T08:20:50.000Z</time>
      </trkpt>
      <trkpt lat="44.46905" lon="6.22664">
        <ele>752</ele>
        <time>2025-11-21T08:20:51.000Z</time>
      </trkpt>
      <trkpt lat="44.46905" lon="6.22663">
        <ele>752</ele>
        <time>2025-11-21T08:20:52.000Z</time>
      </trkpt>
      <trkpt lat="44.46905" lon="6.22662">
        <ele>752</ele>
        <time>2025-11-21T08:20:53.000Z</time>
      </trkpt>
      <trkpt lat="44.46904" lon="6.22662">
        <ele>753</ele>
        <time>2025-11-21T08:20:54.000Z</time>
      </trkpt>
      <trkpt lat="44.46904" lon="6.22661">
        <ele>753</ele>
        <time>2025-11-21T08:20:55.000Z</time>
      </trkpt>
      <trkpt lat="44.46903" lon="6.2266">
        <ele>752</ele>
        <time>2025-11-21T08:20:56.000Z</time>
      </trkpt>
      <trkpt lat="44.46903" lon="6.22659">
        <ele>753</ele>
        <time>2025-11-21T08:20:57.000Z</time>
      </trkpt>
      <trkpt lat="44.46903" lon="6.22658">
        <ele>753</ele>
        <time>2025-11-21T08:20:58.000Z</time>
      </trkpt>
      <trkpt lat="44.46902" lon="6.22657">
        <ele>753</ele>
        <time>2025-11-21T08:20:59.000Z</time>
      </trkpt>
      <trkpt lat="44.46902" lon="6.22656">
        <ele>753</ele>
        <time>2025-11-21T08:21:00.000Z</time>
      </trkpt>
      <trkpt lat="44.46901" lon="6.22654">
        <ele>753</ele>
        <time>2025-11-21T08:21:01.000Z</time>
      </trkpt>
      <trkpt lat="44.469" lon="6.22653">
        <ele>753</ele>
        <time>2025-11-21T08:21:02.000Z</time>
      </trkpt>
      <trkpt lat="44.46899" lon="6.22653">
        <ele>754</ele>
        <time>2025-11-21T08:21:03.000Z</time>
      </trkpt>
      <trkpt lat="44.46899" lon="6.22652">
        <ele>754</ele>
        <time>2025-11-21T08:21:04.000Z</time>
      </trkpt>
      <trkpt lat="44.46898" lon="6.22651">
        <ele>754</ele>
        <time>2025-11-21T08:21:05.000Z</time>
      </trkpt>
      <trkpt lat="44.46898" lon="6.2265">
        <ele>754</ele>
        <time>2025-11-21T08:21:06.000Z</time>
      </trkpt>
      <trkpt lat="44.46898" lon="6.2265">
        <ele>754</ele>
        <time>2025-11-21T08:21:07.000Z</time>
      </trkpt>
      <trkpt lat="44.46898" lon="6.2265">
        <ele>754</ele>
        <time>2025-11-21T08:21:08.000Z</time>
      </trkpt>
      <trkpt lat="44.46898" lon="6.22647">
        <ele>753</ele>
        <time>2025-11-21T08:21:09.000Z</time>
      </trkpt>
      <trkpt lat="44.46897" lon="6.22646">
        <ele>753</ele>
        <time>2025-11-21T08:21:10.000Z</time>
      </trkpt>
      <trkpt lat="44.46897" lon="6.22644">
        <ele>752</ele>
        <time>2025-11-21T08:21:11.000Z</time>
      </trkpt>
      <trkpt lat="44.46897" lon="6.22643">
        <ele>752</ele>
        <time>2025-11-21T08:21:12.000Z</time>
      </trkpt>
      <trkpt lat="44.46897" lon="6.22642">
        <ele>752</ele>
        <time>2025-11-21T08:21:13.000Z</time>
      </trkpt>
      <trkpt lat="44.46897" lon="6.22642">
        <ele>752</ele>
        <time>2025-11-21T08:21:14.000Z</time>
      </trkpt>
      <trkpt lat="44.46897" lon="6.22642">
        <ele>752</ele>
        <time>2025-11-21T08:21:15.000Z</time>
      </trkpt>
      <trkpt lat="44.46897" lon="6.22639">
        <ele>750</ele>
        <time>2025-11-21T08:21:16.000Z</time>
      </trkpt>
      <trkpt lat="44.46897" lon="6.22637">
        <ele>750</ele>
        <time>2025-11-21T08:21:17.000Z</time>
      </trkpt>
      <trkpt lat="44.46897" lon="6.22637">
        <ele>750</ele>
        <time>2025-11-21T08:21:18.000Z</time>
      </trkpt>
      <trkpt lat="44.46897" lon="6.22635">
        <ele>750</ele>
        <time>2025-11-21T08:21:19.000Z</time>
      </trkpt>
      <trkpt lat="44.46897" lon="6.22634">
        <ele>750</ele>
        <time>2025-11-21T08:21:20.000Z</time>
      </trkpt>
      <trkpt lat="44.46896" lon="6.22634">
        <ele>750</ele>
        <time>2025-11-21T08:21:21.000Z</time>
      </trkpt>
      <trkpt lat="44.46895" lon="6.22632">
        <ele>750</ele>
        <time>2025-11-21T08:21:22.000Z</time>
      </trkpt>
      <trkpt lat="44.46894" lon="6.22631">
        <ele>750</ele>
        <time>2025-11-21T08:21:23.000Z</time>
      </trkpt>
      <trkpt lat="44.46894" lon="6.22629">
        <ele>750</ele>
        <time>2025-11-21T08:21:24.000Z</time>
      </trkpt>
      <trkpt lat="44.46893" lon="6.22627">
        <ele>750</ele>
        <time>2025-11-21T08:21:25.000Z</time>
      </trkpt>
      <trkpt lat="44.46893" lon="6.22625">
        <ele>750</ele>
        <time>2025-11-21T08:21:26.000Z</time>
      </trkpt>
      <trkpt lat="44.46892" lon="6.22624">
        <ele>750</ele>
        <time>2025-11-21T08:21:27.000Z</time>
      </trkpt>
      <trkpt lat="44.46892" lon="6.22623">
        <ele>750</ele>
        <time>2025-11-21T08:21:28.000Z</time>
      </trkpt>
      <trkpt lat="44.46892" lon="6.22622">
        <ele>750</ele>
        <time>2025-11-21T08:21:29.000Z</time>
      </trkpt>
      <trkpt lat="44.46891" lon="6.22621">
        <ele>750</ele>
        <time>2025-11-21T08:21:30.000Z</time>
      </trkpt>
      <trkpt lat="44.4689" lon="6.2262">
        <ele>750</ele>
        <time>2025-11-21T08:21:31.000Z</time>
      </trkpt>
      <trkpt lat="44.4689" lon="6.22619">
        <ele>750</ele>
        <time>2025-11-21T08:21:32.000Z</time>
      </trkpt>
      <trkpt lat="44.4689" lon="6.22617">
        <ele>750</ele>
        <time>2025-11-21T08:21:33.000Z</time>
      </trkpt>
      <trkpt lat="44.46889" lon="6.22615">
        <ele>750</ele>
        <time>2025-11-21T08:21:34.000Z</time>
      </trkpt>
      <trkpt lat="44.46888" lon="6.22614">
        <ele>751</ele>
        <time>2025-11-21T08:21:35.000Z</time>
      </trkpt>
      <trkpt lat="44.46888" lon="6.22612">
        <ele>751</ele>
        <time>2025-11-21T08:21:36.000Z</time>
      </trkpt>
      <trkpt lat="44.46887" lon="6.22611">
        <ele>751</ele>
        <time>2025-11-21T08:21:37.000Z</time>
      </trkpt>
      <trkpt lat="44.46886" lon="6.22609">
        <ele>752</ele>
        <time>2025-11-21T08:21:38.000Z</time>
      </trkpt>
      <trkpt lat="44.46885" lon="6.22608">
        <ele>752</ele>
        <time>2025-11-21T08:21:39.000Z</time>
      </trkpt>
      <trkpt lat="44.46885" lon="6.22606">
        <ele>752</ele>
        <time>2025-11-21T08:21:40.000Z</time>
      </trkpt>
      <trkpt lat="44.46884" lon="6.22604">
        <ele>752</ele>
        <time>2025-11-21T08:21:41.000Z</time>
      </trkpt>
      <trkpt lat="44.46883" lon="6.22603">
        <ele>752</ele>
        <time>2025-11-21T08:21:42.000Z</time>
      </trkpt>
      <trkpt lat="44.46883" lon="6.22602">
        <ele>751</ele>
        <time>2025-11-21T08:21:43.000Z</time>
      </trkpt>
      <trkpt lat="44.46882" lon="6.226">
        <ele>752</ele>
        <time>2025-11-21T08:21:44.000Z</time>
      </trkpt>
      <trkpt lat="44.46881" lon="6.22599">
        <ele>752</ele>
        <time>2025-11-21T08:21:45.000Z</time>
      </trkpt>
      <trkpt lat="44.4688" lon="6.22598">
        <ele>752</ele>
        <time>2025-11-21T08:21:46.000Z</time>
      </trkpt>
      <trkpt lat="44.4688" lon="6.22597">
        <ele>753</ele>
        <time>2025-11-21T08:21:47.000Z</time>
      </trkpt>
      <trkpt lat="44.46879" lon="6.22596">
        <ele>753</ele>
        <time>2025-11-21T08:21:48.000Z</time>
      </trkpt>
      <trkpt lat="44.46879" lon="6.22596">
        <ele>753</ele>
        <time>2025-11-21T08:21:49.000Z</time>
      </trkpt>
      <trkpt lat="44.46879" lon="6.22596">
        <ele>753</ele>
        <time>2025-11-21T08:21:50.000Z</time>
      </trkpt>
      <trkpt lat="44.46878" lon="6.22593">
        <ele>752</ele>
        <time>2025-11-21T08:21:51.000Z</time>
      </trkpt>
      <trkpt lat="44.46877" lon="6.22593">
        <ele>752</ele>
        <time>2025-11-21T08:21:52.000Z</time>
      </trkpt>
      <trkpt lat="44.46876" lon="6.22592">
        <ele>752</ele>
        <time>2025-11-21T08:21:53.000Z</time>
      </trkpt>
      <trkpt lat="44.46876" lon="6.2259">
        <ele>751</ele>
        <time>2025-11-21T08:21:54.000Z</time>
      </trkpt>
      <trkpt lat="44.46875" lon="6.22589">
        <ele>751</ele>
        <time>2025-11-21T08:21:55.000Z</time>
      </trkpt>
      <trkpt lat="44.46874" lon="6.22588">
        <ele>751</ele>
        <time>2025-11-21T08:21:56.000Z</time>
      </trkpt>
      <trkpt lat="44.46874" lon="6.22586">
        <ele>751</ele>
        <time>2025-11-21T08:21:57.000Z</time>
      </trkpt>
      <trkpt lat="44.46873" lon="6.22586">
        <ele>751</ele>
        <time>2025-11-21T08:21:58.000Z</time>
      </trkpt>
      <trkpt lat="44.46871" lon="6.22585">
        <ele>751</ele>
        <time>2025-11-21T08:21:59.000Z</time>
      </trkpt>
      <trkpt lat="44.4687" lon="6.22584">
        <ele>751</ele>
        <time>2025-11-21T08:22:00.000Z</time>
      </trkpt>
      <trkpt lat="44.46869" lon="6.22583">
        <ele>750</ele>
        <time>2025-11-21T08:22:01.000Z</time>
      </trkpt>
      <trkpt lat="44.46868" lon="6.22582">
        <ele>750</ele>
        <time>2025-11-21T08:22:02.000Z</time>
      </trkpt>
      <trkpt lat="44.46868" lon="6.2258">
        <ele>749</ele>
        <time>2025-11-21T08:22:03.000Z</time>
      </trkpt>
      <trkpt lat="44.46867" lon="6.22579">
        <ele>749</ele>
        <time>2025-11-21T08:22:04.000Z</time>
      </trkpt>
      <trkpt lat="44.46866" lon="6.22578">
        <ele>748</ele>
        <time>2025-11-21T08:22:05.000Z</time>
      </trkpt>
      <trkpt lat="44.46865" lon="6.22577">
        <ele>749</ele>
        <time>2025-11-21T08:22:06.000Z</time>
      </trkpt>
      <trkpt lat="44.46864" lon="6.22575">
        <ele>749</ele>
        <time>2025-11-21T08:22:07.000Z</time>
      </trkpt>
      <trkpt lat="44.46863" lon="6.22575">
        <ele>749</ele>
        <time>2025-11-21T08:22:08.000Z</time>
      </trkpt>
      <trkpt lat="44.46863" lon="6.22574">
        <ele>749</ele>
        <time>2025-11-21T08:22:09.000Z</time>
      </trkpt>
      <trkpt lat="44.46862" lon="6.22572">
        <ele>748</ele>
        <time>2025-11-21T08:22:10.000Z</time>
      </trkpt>
      <trkpt lat="44.46862" lon="6.22571">
        <ele>747</ele>
        <time>2025-11-21T08:22:11.000Z</time>
      </trkpt>
      <trkpt lat="44.46861" lon="6.2257">
        <ele>747</ele>
        <time>2025-11-21T08:22:12.000Z</time>
      </trkpt>
      <trkpt lat="44.4686" lon="6.22569">
        <ele>747</ele>
        <time>2025-11-21T08:22:13.000Z</time>
      </trkpt>
      <trkpt lat="44.46859" lon="6.22568">
        <ele>747</ele>
        <time>2025-11-21T08:22:14.000Z</time>
      </trkpt>
      <trkpt lat="44.46858" lon="6.22567">
        <ele>747</ele>
        <time>2025-11-21T08:22:15.000Z</time>
      </trkpt>
      <trkpt lat="44.46857" lon="6.22565">
        <ele>747</ele>
        <time>2025-11-21T08:22:16.000Z</time>
      </trkpt>
      <trkpt lat="44.46857" lon="6.22564">
        <ele>746</ele>
        <time>2025-11-21T08:22:17.000Z</time>
      </trkpt>
      <trkpt lat="44.46856" lon="6.22563">
        <ele>747</ele>
        <time>2025-11-21T08:22:18.000Z</time>
      </trkpt>
      <trkpt lat="44.46855" lon="6.22561">
        <ele>747</ele>
        <time>2025-11-21T08:22:19.000Z</time>
      </trkpt>
      <trkpt lat="44.46854" lon="6.2256">
        <ele>747</ele>
        <time>2025-11-21T08:22:20.000Z</time>
      </trkpt>
      <trkpt lat="44.46853" lon="6.22559">
        <ele>748</ele>
        <time>2025-11-21T08:22:21.000Z</time>
      </trkpt>
      <trkpt lat="44.46851" lon="6.22559">
        <ele>748</ele>
        <time>2025-11-21T08:22:22.000Z</time>
      </trkpt>
      <trkpt lat="44.4685" lon="6.22558">
        <ele>747</ele>
        <time>2025-11-21T08:22:23.000Z</time>
      </trkpt>
      <trkpt lat="44.46849" lon="6.22557">
        <ele>748</ele>
        <time>2025-11-21T08:22:24.000Z</time>
      </trkpt>
      <trkpt lat="44.46848" lon="6.22556">
        <ele>748</ele>
        <time>2025-11-21T08:22:25.000Z</time>
      </trkpt>
      <trkpt lat="44.46847" lon="6.22555">
        <ele>748</ele>
        <time>2025-11-21T08:22:26.000Z</time>
      </trkpt>
      <trkpt lat="44.46846" lon="6.22553">
        <ele>748</ele>
        <time>2025-11-21T08:22:27.000Z</time>
      </trkpt>
      <trkpt lat="44.46846" lon="6.22552">
        <ele>748</ele>
        <time>2025-11-21T08:22:28.000Z</time>
      </trkpt>
      <trkpt lat="44.46845" lon="6.22551">
        <ele>749</ele>
        <time>2025-11-21T08:22:29.000Z</time>
      </trkpt>
      <trkpt lat="44.46845" lon="6.22549">
        <ele>749</ele>
        <time>2025-11-21T08:22:30.000Z</time>
      </trkpt>
      <trkpt lat="44.46845" lon="6.22547">
        <ele>749</ele>
        <time>2025-11-21T08:22:31.000Z</time>
      </trkpt>
      <trkpt lat="44.46845" lon="6.22545">
        <ele>749</ele>
        <time>2025-11-21T08:22:32.000Z</time>
      </trkpt>
      <trkpt lat="44.46845" lon="6.22544">
        <ele>749</ele>
        <time>2025-11-21T08:22:33.000Z</time>
      </trkpt>
      <trkpt lat="44.46845" lon="6.22543">
        <ele>749</ele>
        <time>2025-11-21T08:22:34.000Z</time>
      </trkpt>
      <trkpt lat="44.46845" lon="6.22542">
        <ele>749</ele>
        <time>2025-11-21T08:22:35.000Z</time>
      </trkpt>
      <trkpt lat="44.46845" lon="6.2254">
        <ele>749</ele>
        <time>2025-11-21T08:22:36.000Z</time>
      </trkpt>
      <trkpt lat="44.46845" lon="6.22538">
        <ele>749</ele>
        <time>2025-11-21T08:22:37.000Z</time>
      </trkpt>
      <trkpt lat="44.46845" lon="6.22537">
        <ele>749</ele>
        <time>2025-11-21T08:22:38.000Z</time>
      </trkpt>
      <trkpt lat="44.46845" lon="6.22536">
        <ele>749</ele>
        <time>2025-11-21T08:22:39.000Z</time>
      </trkpt>
      <trkpt lat="44.46845" lon="6.22535">
        <ele>749</ele>
        <time>2025-11-21T08:22:40.000Z</time>
      </trkpt>
      <trkpt lat="44.46845" lon="6.22533">
        <ele>749</ele>
        <time>2025-11-21T08:22:41.000Z</time>
      </trkpt>
      <trkpt lat="44.46845" lon="6.22533">
        <ele>749</ele>
        <time>2025-11-21T08:22:42.000Z</time>
      </trkpt>
      <trkpt lat="44.46845" lon="6.22533">
        <ele>749</ele>
        <time>2025-11-21T08:22:43.000Z</time>
      </trkpt>
      <trkpt lat="44.46845" lon="6.22532">
        <ele>750</ele>
        <time>2025-11-21T08:22:44.000Z</time>
      </trkpt>
      <trkpt lat="44.46846" lon="6.2253">
        <ele>749</ele>
        <time>2025-11-21T08:22:45.000Z</time>
      </trkpt>
      <trkpt lat="44.46846" lon="6.2253">
        <ele>749</ele>
        <time>2025-11-21T08:22:46.000Z</time>
      </trkpt>
      <trkpt lat="44.46847" lon="6.22528">
        <ele>749</ele>
        <time>2025-11-21T08:22:47.000Z</time>
      </trkpt>
      <trkpt lat="44.46847" lon="6.22526">
        <ele>749</ele>
        <time>2025-11-21T08:22:48.000Z</time>
      </trkpt>
      <trkpt lat="44.46847" lon="6.22525">
        <ele>749</ele>
        <time>2025-11-21T08:22:49.000Z</time>
      </trkpt>
      <trkpt lat="44.46846" lon="6.22523">
        <ele>749</ele>
        <time>2025-11-21T08:22:50.000Z</time>
      </trkpt>
      <trkpt lat="44.46846" lon="6.22522">
        <ele>749</ele>
        <time>2025-11-21T08:22:51.000Z</time>
      </trkpt>
      <trkpt lat="44.46846" lon="6.22522">
        <ele>749</ele>
        <time>2025-11-21T08:22:52.000Z</time>
      </trkpt>
      <trkpt lat="44.46846" lon="6.22522">
        <ele>749</ele>
        <time>2025-11-21T08:22:53.000Z</time>
      </trkpt>
      <trkpt lat="44.46846" lon="6.22522">
        <ele>749</ele>
        <time>2025-11-21T08:22:54.000Z</time>
      </trkpt>
      <trkpt lat="44.46846" lon="6.22522">
        <ele>749</ele>
        <time>2025-11-21T08:22:55.000Z</time>
      </trkpt>
      <trkpt lat="44.46845" lon="6.22518">
        <ele>750</ele>
        <time>2025-11-21T08:22:56.000Z</time>
      </trkpt>
      <trkpt lat="44.46845" lon="6.22516">
        <ele>750</ele>
        <time>2025-11-21T08:22:57.000Z</time>
      </trkpt>
      <trkpt lat="44.46845" lon="6.22516">
        <ele>749</ele>
        <time>2025-11-21T08:22:58.000Z</time>
      </trkpt>
      <trkpt lat="44.46846" lon="6.22515">
        <ele>750</ele>
        <time>2025-11-21T08:22:59.000Z</time>
      </trkpt>
      <trkpt lat="44.46847" lon="6.22513">
        <ele>750</ele>
        <time>2025-11-21T08:23:00.000Z</time>
      </trkpt>
      <trkpt lat="44.46847" lon="6.22512">
        <ele>750</ele>
        <time>2025-11-21T08:23:01.000Z</time>
      </trkpt>
      <trkpt lat="44.46848" lon="6.2251">
        <ele>750</ele>
        <time>2025-11-21T08:23:02.000Z</time>
      </trkpt>
      <trkpt lat="44.46848" lon="6.22509">
        <ele>750</ele>
        <time>2025-11-21T08:23:03.000Z</time>
      </trkpt>
      <trkpt lat="44.46848" lon="6.22507">
        <ele>749</ele>
        <time>2025-11-21T08:23:04.000Z</time>
      </trkpt>
      <trkpt lat="44.46848" lon="6.22506">
        <ele>749</ele>
        <time>2025-11-21T08:23:05.000Z</time>
      </trkpt>
      <trkpt lat="44.46848" lon="6.22505">
        <ele>750</ele>
        <time>2025-11-21T08:23:06.000Z</time>
      </trkpt>
      <trkpt lat="44.46848" lon="6.22503">
        <ele>750</ele>
        <time>2025-11-21T08:23:07.000Z</time>
      </trkpt>
      <trkpt lat="44.46849" lon="6.22501">
        <ele>750</ele>
        <time>2025-11-21T08:23:08.000Z</time>
      </trkpt>
      <trkpt lat="44.46849" lon="6.225">
        <ele>750</ele>
        <time>2025-11-21T08:23:09.000Z</time>
      </trkpt>
      <trkpt lat="44.46849" lon="6.22499">
        <ele>750</ele>
        <time>2025-11-21T08:23:10.000Z</time>
      </trkpt>
      <trkpt lat="44.46848" lon="6.22497">
        <ele>750</ele>
        <time>2025-11-21T08:23:11.000Z</time>
      </trkpt>
      <trkpt lat="44.46848" lon="6.22496">
        <ele>751</ele>
        <time>2025-11-21T08:23:12.000Z</time>
      </trkpt>
      <trkpt lat="44.46848" lon="6.22494">
        <ele>751</ele>
        <time>2025-11-21T08:23:13.000Z</time>
      </trkpt>
      <trkpt lat="44.46848" lon="6.22492">
        <ele>751</ele>
        <time>2025-11-21T08:23:14.000Z</time>
      </trkpt>
      <trkpt lat="44.46849" lon="6.2249">
        <ele>751</ele>
        <time>2025-11-21T08:23:15.000Z</time>
      </trkpt>
      <trkpt lat="44.46849" lon="6.22489">
        <ele>751</ele>
        <time>2025-11-21T08:23:16.000Z</time>
      </trkpt>
      <trkpt lat="44.46851" lon="6.22488">
        <ele>752</ele>
        <time>2025-11-21T08:23:17.000Z</time>
      </trkpt>
      <trkpt lat="44.46851" lon="6.22486">
        <ele>753</ele>
        <time>2025-11-21T08:23:18.000Z</time>
      </trkpt>
      <trkpt lat="44.46851" lon="6.22484">
        <ele>753</ele>
        <time>2025-11-21T08:23:19.000Z</time>
      </trkpt>
      <trkpt lat="44.46852" lon="6.22483">
        <ele>753</ele>
        <time>2025-11-21T08:23:20.000Z</time>
      </trkpt>
      <trkpt lat="44.46852" lon="6.22481">
        <ele>753</ele>
        <time>2025-11-21T08:23:21.000Z</time>
      </trkpt>
      <trkpt lat="44.46852" lon="6.2248">
        <ele>754</ele>
        <time>2025-11-21T08:23:22.000Z</time>
      </trkpt>
      <trkpt lat="44.46852" lon="6.22479">
        <ele>754</ele>
        <time>2025-11-21T08:23:23.000Z</time>
      </trkpt>
      <trkpt lat="44.46852" lon="6.22478">
        <ele>755</ele>
        <time>2025-11-21T08:23:24.000Z</time>
      </trkpt>
      <trkpt lat="44.46852" lon="6.22477">
        <ele>755</ele>
        <time>2025-11-21T08:23:25.000Z</time>
      </trkpt>
      <trkpt lat="44.46852" lon="6.22476">
        <ele>755</ele>
        <time>2025-11-21T08:23:26.000Z</time>
      </trkpt>
      <trkpt lat="44.46852" lon="6.22475">
        <ele>756</ele>
        <time>2025-11-21T08:23:27.000Z</time>
      </trkpt>
      <trkpt lat="44.46852" lon="6.22474">
        <ele>756</ele>
        <time>2025-11-21T08:23:28.000Z</time>
      </trkpt>
      <trkpt lat="44.46852" lon="6.22473">
        <ele>756</ele>
        <time>2025-11-21T08:23:29.000Z</time>
      </trkpt>
      <trkpt lat="44.46852" lon="6.22471">
        <ele>757</ele>
        <time>2025-11-21T08:23:30.000Z</time>
      </trkpt>
      <trkpt lat="44.46853" lon="6.22471">
        <ele>757</ele>
        <time>2025-11-21T08:23:31.000Z</time>
      </trkpt>
      <trkpt lat="44.46853" lon="6.22469">
        <ele>757</ele>
        <time>2025-11-21T08:23:32.000Z</time>
      </trkpt>
      <trkpt lat="44.46854" lon="6.22468">
        <ele>756</ele>
        <time>2025-11-21T08:23:33.000Z</time>
      </trkpt>
      <trkpt lat="44.46855" lon="6.22466">
        <ele>756</ele>
        <time>2025-11-21T08:23:34.000Z</time>
      </trkpt>
      <trkpt lat="44.46855" lon="6.22464">
        <ele>756</ele>
        <time>2025-11-21T08:23:35.000Z</time>
      </trkpt>
      <trkpt lat="44.46854" lon="6.22462">
        <ele>757</ele>
        <time>2025-11-21T08:23:36.000Z</time>
      </trkpt>
      <trkpt lat="44.46854" lon="6.2246">
        <ele>757</ele>
        <time>2025-11-21T08:23:37.000Z</time>
      </trkpt>
      <trkpt lat="44.46853" lon="6.22459">
        <ele>758</ele>
        <time>2025-11-21T08:23:38.000Z</time>
      </trkpt>
      <trkpt lat="44.46854" lon="6.22457">
        <ele>758</ele>
        <time>2025-11-21T08:23:39.000Z</time>
      </trkpt>
      <trkpt lat="44.46854" lon="6.22456">
        <ele>757</ele>
        <time>2025-11-21T08:23:40.000Z</time>
      </trkpt>
      <trkpt lat="44.46854" lon="6.22454">
        <ele>757</ele>
        <time>2025-11-21T08:23:41.000Z</time>
      </trkpt>
      <trkpt lat="44.46854" lon="6.22453">
        <ele>757</ele>
        <time>2025-11-21T08:23:42.000Z</time>
      </trkpt>
      <trkpt lat="44.46854" lon="6.22452">
        <ele>756</ele>
        <time>2025-11-21T08:23:43.000Z</time>
      </trkpt>
      <trkpt lat="44.46854" lon="6.2245">
        <ele>757</ele>
        <time>2025-11-21T08:23:44.000Z</time>
      </trkpt>
      <trkpt lat="44.46854" lon="6.22449">
        <ele>757</ele>
        <time>2025-11-21T08:23:45.000Z</time>
      </trkpt>
      <trkpt lat="44.46854" lon="6.22448">
        <ele>757</ele>
        <time>2025-11-21T08:23:46.000Z</time>
      </trkpt>
      <trkpt lat="44.46854" lon="6.22447">
        <ele>758</ele>
        <time>2025-11-21T08:23:47.000Z</time>
      </trkpt>
      <trkpt lat="44.46854" lon="6.22446">
        <ele>758</ele>
        <time>2025-11-21T08:23:48.000Z</time>
      </trkpt>
      <trkpt lat="44.46854" lon="6.22444">
        <ele>758</ele>
        <time>2025-11-21T08:23:49.000Z</time>
      </trkpt>
      <trkpt lat="44.46853" lon="6.22443">
        <ele>758</ele>
        <time>2025-11-21T08:23:50.000Z</time>
      </trkpt>
      <trkpt lat="44.46853" lon="6.22441">
        <ele>759</ele>
        <time>2025-11-21T08:23:51.000Z</time>
      </trkpt>
      <trkpt lat="44.46854" lon="6.2244">
        <ele>759</ele>
        <time>2025-11-21T08:23:52.000Z</time>
      </trkpt>
      <trkpt lat="44.46854" lon="6.22438">
        <ele>759</ele>
        <time>2025-11-21T08:23:53.000Z</time>
      </trkpt>
      <trkpt lat="44.46854" lon="6.22437">
        <ele>759</ele>
        <time>2025-11-21T08:23:54.000Z</time>
      </trkpt>
      <trkpt lat="44.46854" lon="6.22435">
        <ele>759</ele>
        <time>2025-11-21T08:23:55.000Z</time>
      </trkpt>
      <trkpt lat="44.46854" lon="6.22434">
        <ele>760</ele>
        <time>2025-11-21T08:23:56.000Z</time>
      </trkpt>
      <trkpt lat="44.46855" lon="6.22433">
        <ele>760</ele>
        <time>2025-11-21T08:23:57.000Z</time>
      </trkpt>
      <trkpt lat="44.46855" lon="6.22432">
        <ele>760</ele>
        <time>2025-11-21T08:23:58.000Z</time>
      </trkpt>
      <trkpt lat="44.46856" lon="6.22431">
        <ele>760</ele>
        <time>2025-11-21T08:23:59.000Z</time>
      </trkpt>
      <trkpt lat="44.46856" lon="6.2243">
        <ele>760</ele>
        <time>2025-11-21T08:24:00.000Z</time>
      </trkpt>
      <trkpt lat="44.46856" lon="6.22429">
        <ele>760</ele>
        <time>2025-11-21T08:24:01.000Z</time>
      </trkpt>
      <trkpt lat="44.46857" lon="6.22428">
        <ele>760</ele>
        <time>2025-11-21T08:24:02.000Z</time>
      </trkpt>
      <trkpt lat="44.46857" lon="6.22426">
        <ele>761</ele>
        <time>2025-11-21T08:24:03.000Z</time>
      </trkpt>
      <trkpt lat="44.46857" lon="6.22425">
        <ele>761</ele>
        <time>2025-11-21T08:24:04.000Z</time>
      </trkpt>
      <trkpt lat="44.46857" lon="6.22424">
        <ele>760</ele>
        <time>2025-11-21T08:24:05.000Z</time>
      </trkpt>
      <trkpt lat="44.46858" lon="6.22423">
        <ele>761</ele>
        <time>2025-11-21T08:24:06.000Z</time>
      </trkpt>
      <trkpt lat="44.46859" lon="6.22422">
        <ele>761</ele>
        <time>2025-11-21T08:24:07.000Z</time>
      </trkpt>
      <trkpt lat="44.46859" lon="6.22421">
        <ele>761</ele>
        <time>2025-11-21T08:24:08.000Z</time>
      </trkpt>
      <trkpt lat="44.46859" lon="6.22419">
        <ele>761</ele>
        <time>2025-11-21T08:24:09.000Z</time>
      </trkpt>
      <trkpt lat="44.4686" lon="6.22418">
        <ele>761</ele>
        <time>2025-11-21T08:24:10.000Z</time>
      </trkpt>
      <trkpt lat="44.4686" lon="6.22416">
        <ele>761</ele>
        <time>2025-11-21T08:24:11.000Z</time>
      </trkpt>
      <trkpt lat="44.46861" lon="6.22415">
        <ele>761</ele>
        <time>2025-11-21T08:24:12.000Z</time>
      </trkpt>
      <trkpt lat="44.46862" lon="6.22414">
        <ele>761</ele>
        <time>2025-11-21T08:24:13.000Z</time>
      </trkpt>
      <trkpt lat="44.46862" lon="6.22413">
        <ele>761</ele>
        <time>2025-11-21T08:24:14.000Z</time>
      </trkpt>
      <trkpt lat="44.46863" lon="6.22412">
        <ele>761</ele>
        <time>2025-11-21T08:24:15.000Z</time>
      </trkpt>
      <trkpt lat="44.46863" lon="6.2241">
        <ele>761</ele>
        <time>2025-11-21T08:24:16.000Z</time>
      </trkpt>
      <trkpt lat="44.46863" lon="6.22409">
        <ele>761</ele>
        <time>2025-11-21T08:24:17.000Z</time>
      </trkpt>
      <trkpt lat="44.46863" lon="6.22407">
        <ele>761</ele>
        <time>2025-11-21T08:24:18.000Z</time>
      </trkpt>
      <trkpt lat="44.46863" lon="6.22406">
        <ele>760</ele>
        <time>2025-11-21T08:24:19.000Z</time>
      </trkpt>
      <trkpt lat="44.46863" lon="6.22406">
        <ele>760</ele>
        <time>2025-11-21T08:24:20.000Z</time>
      </trkpt>
      <trkpt lat="44.46863" lon="6.22405">
        <ele>759</ele>
        <time>2025-11-21T08:24:21.000Z</time>
      </trkpt>
      <trkpt lat="44.46863" lon="6.22404">
        <ele>759</ele>
        <time>2025-11-21T08:24:22.000Z</time>
      </trkpt>
      <trkpt lat="44.46864" lon="6.22402">
        <ele>759</ele>
        <time>2025-11-21T08:24:23.000Z</time>
      </trkpt>
      <trkpt lat="44.46864" lon="6.22402">
        <ele>759</ele>
        <time>2025-11-21T08:24:24.000Z</time>
      </trkpt>
      <trkpt lat="44.46864" lon="6.22401">
        <ele>759</ele>
        <time>2025-11-21T08:24:25.000Z</time>
      </trkpt>
      <trkpt lat="44.46864" lon="6.224">
        <ele>759</ele>
        <time>2025-11-21T08:24:26.000Z</time>
      </trkpt>
      <trkpt lat="44.46863" lon="6.22399">
        <ele>759</ele>
        <time>2025-11-21T08:24:27.000Z</time>
      </trkpt>
      <trkpt lat="44.46863" lon="6.22397">
        <ele>758</ele>
        <time>2025-11-21T08:24:28.000Z</time>
      </trkpt>
      <trkpt lat="44.46863" lon="6.22396">
        <ele>758</ele>
        <time>2025-11-21T08:24:29.000Z</time>
      </trkpt>
      <trkpt lat="44.46863" lon="6.22394">
        <ele>758</ele>
        <time>2025-11-21T08:24:30.000Z</time>
      </trkpt>
      <trkpt lat="44.46863" lon="6.22393">
        <ele>759</ele>
        <time>2025-11-21T08:24:31.000Z</time>
      </trkpt>
      <trkpt lat="44.46863" lon="6.22391">
        <ele>758</ele>
        <time>2025-11-21T08:24:32.000Z</time>
      </trkpt>
      <trkpt lat="44.46863" lon="6.2239">
        <ele>758</ele>
        <time>2025-11-21T08:24:33.000Z</time>
      </trkpt>
      <trkpt lat="44.46863" lon="6.2239">
        <ele>758</ele>
        <time>2025-11-21T08:24:34.000Z</time>
      </trkpt>
      <trkpt lat="44.46863" lon="6.2239">
        <ele>758</ele>
        <time>2025-11-21T08:24:35.000Z</time>
      </trkpt>
      <trkpt lat="44.46863" lon="6.2239">
        <ele>758</ele>
        <time>2025-11-21T08:24:36.000Z</time>
      </trkpt>
      <trkpt lat="44.46863" lon="6.22388">
        <ele>757</ele>
        <time>2025-11-21T08:24:37.000Z</time>
      </trkpt>
      <trkpt lat="44.46862" lon="6.22386">
        <ele>757</ele>
        <time>2025-11-21T08:24:38.000Z</time>
      </trkpt>
      <trkpt lat="44.46862" lon="6.22386">
        <ele>756</ele>
        <time>2025-11-21T08:24:39.000Z</time>
      </trkpt>
      <trkpt lat="44.46862" lon="6.22385">
        <ele>757</ele>
        <time>2025-11-21T08:24:40.000Z</time>
      </trkpt>
      <trkpt lat="44.46863" lon="6.22384">
        <ele>757</ele>
        <time>2025-11-21T08:24:41.000Z</time>
      </trkpt>
      <trkpt lat="44.46864" lon="6.22384">
        <ele>757</ele>
        <time>2025-11-21T08:24:42.000Z</time>
      </trkpt>
      <trkpt lat="44.46864" lon="6.22383">
        <ele>756</ele>
        <time>2025-11-21T08:24:43.000Z</time>
      </trkpt>
      <trkpt lat="44.46865" lon="6.22382">
        <ele>755</ele>
        <time>2025-11-21T08:24:44.000Z</time>
      </trkpt>
      <trkpt lat="44.46865" lon="6.2238">
        <ele>756</ele>
        <time>2025-11-21T08:24:45.000Z</time>
      </trkpt>
      <trkpt lat="44.46866" lon="6.22379">
        <ele>756</ele>
        <time>2025-11-21T08:24:46.000Z</time>
      </trkpt>
      <trkpt lat="44.46866" lon="6.22378">
        <ele>755</ele>
        <time>2025-11-21T08:24:47.000Z</time>
      </trkpt>
      <trkpt lat="44.46867" lon="6.22377">
        <ele>755</ele>
        <time>2025-11-21T08:24:48.000Z</time>
      </trkpt>
      <trkpt lat="44.46868" lon="6.22375">
        <ele>755</ele>
        <time>2025-11-21T08:24:49.000Z</time>
      </trkpt>
      <trkpt lat="44.46868" lon="6.22374">
        <ele>756</ele>
        <time>2025-11-21T08:24:50.000Z</time>
      </trkpt>
      <trkpt lat="44.46868" lon="6.22373">
        <ele>755</ele>
        <time>2025-11-21T08:24:51.000Z</time>
      </trkpt>
      <trkpt lat="44.46869" lon="6.22372">
        <ele>756</ele>
        <time>2025-11-21T08:24:52.000Z</time>
      </trkpt>
      <trkpt lat="44.46869" lon="6.22372">
        <ele>756</ele>
        <time>2025-11-21T08:24:53.000Z</time>
      </trkpt>
      <trkpt lat="44.46869" lon="6.22372">
        <ele>756</ele>
        <time>2025-11-21T08:24:54.000Z</time>
      </trkpt>
      <trkpt lat="44.4687" lon="6.2237">
        <ele>755</ele>
        <time>2025-11-21T08:24:55.000Z</time>
      </trkpt>
      <trkpt lat="44.46871" lon="6.2237">
        <ele>754</ele>
        <time>2025-11-21T08:24:56.000Z</time>
      </trkpt>
      <trkpt lat="44.46872" lon="6.2237">
        <ele>754</ele>
        <time>2025-11-21T08:24:57.000Z</time>
      </trkpt>
      <trkpt lat="44.46872" lon="6.2237">
        <ele>754</ele>
        <time>2025-11-21T08:24:58.000Z</time>
      </trkpt>
      <trkpt lat="44.46873" lon="6.2237">
        <ele>755</ele>
        <time>2025-11-21T08:24:59.000Z</time>
      </trkpt>
      <trkpt lat="44.46874" lon="6.2237">
        <ele>754</ele>
        <time>2025-11-21T08:25:00.000Z</time>
      </trkpt>
      <trkpt lat="44.46874" lon="6.2237">
        <ele>754</ele>
        <time>2025-11-21T08:25:01.000Z</time>
      </trkpt>
      <trkpt lat="44.46875" lon="6.22371">
        <ele>753</ele>
        <time>2025-11-21T08:25:02.000Z</time>
      </trkpt>
      <trkpt lat="44.46875" lon="6.22371">
        <ele>753</ele>
        <time>2025-11-21T08:25:03.000Z</time>
      </trkpt>
      <trkpt lat="44.46875" lon="6.22372">
        <ele>753</ele>
        <time>2025-11-21T08:25:04.000Z</time>
      </trkpt>
      <trkpt lat="44.46875" lon="6.22373">
        <ele>753</ele>
        <time>2025-11-21T08:25:05.000Z</time>
      </trkpt>
      <trkpt lat="44.46876" lon="6.22372">
        <ele>753</ele>
        <time>2025-11-21T08:25:06.000Z</time>
      </trkpt>
      <trkpt lat="44.46877" lon="6.22371">
        <ele>753</ele>
        <time>2025-11-21T08:25:07.000Z</time>
      </trkpt>
      <trkpt lat="44.46878" lon="6.22372">
        <ele>754</ele>
        <time>2025-11-21T08:25:08.000Z</time>
      </trkpt>
      <trkpt lat="44.46879" lon="6.22373">
        <ele>753</ele>
        <time>2025-11-21T08:25:09.000Z</time>
      </trkpt>
      <trkpt lat="44.46879" lon="6.22373">
        <ele>752</ele>
        <time>2025-11-21T08:25:10.000Z</time>
      </trkpt>
      <trkpt lat="44.46878" lon="6.22374">
        <ele>753</ele>
        <time>2025-11-21T08:25:11.000Z</time>
      </trkpt>
      <trkpt lat="44.46879" lon="6.22375">
        <ele>753</ele>
        <time>2025-11-21T08:25:12.000Z</time>
      </trkpt>
      <trkpt lat="44.46879" lon="6.22375">
        <ele>754</ele>
        <time>2025-11-21T08:25:13.000Z</time>
      </trkpt>
      <trkpt lat="44.46878" lon="6.22376">
        <ele>754</ele>
        <time>2025-11-21T08:25:14.000Z</time>
      </trkpt>
      <trkpt lat="44.46878" lon="6.22377">
        <ele>754</ele>
        <time>2025-11-21T08:25:15.000Z</time>
      </trkpt>
      <trkpt lat="44.46878" lon="6.22377">
        <ele>755</ele>
        <time>2025-11-21T08:25:16.000Z</time>
      </trkpt>
      <trkpt lat="44.46877" lon="6.22376">
        <ele>755</ele>
        <time>2025-11-21T08:25:17.000Z</time>
      </trkpt>
      <trkpt lat="44.46877" lon="6.22375">
        <ele>756</ele>
        <time>2025-11-21T08:25:18.000Z</time>
      </trkpt>
      <trkpt lat="44.46877" lon="6.22375">
        <ele>756</ele>
        <time>2025-11-21T08:25:19.000Z</time>
      </trkpt>
      <trkpt lat="44.46877" lon="6.22374">
        <ele>755</ele>
        <time>2025-11-21T08:25:20.000Z</time>
      </trkpt>
      <trkpt lat="44.46878" lon="6.22374">
        <ele>755</ele>
        <time>2025-11-21T08:25:21.000Z</time>
      </trkpt>
      <trkpt lat="44.46877" lon="6.22374">
        <ele>754</ele>
        <time>2025-11-21T08:25:22.000Z</time>
      </trkpt>
      <trkpt lat="44.46877" lon="6.22373">
        <ele>755</ele>
        <time>2025-11-21T08:25:23.000Z</time>
      </trkpt>
      <trkpt lat="44.46876" lon="6.22373">
        <ele>756</ele>
        <time>2025-11-21T08:25:24.000Z</time>
      </trkpt>
      <trkpt lat="44.46877" lon="6.22373">
        <ele>756</ele>
        <time>2025-11-21T08:25:25.000Z</time>
      </trkpt>
      <trkpt lat="44.46877" lon="6.2237">
        <ele>757</ele>
        <time>2025-11-21T08:25:46.000Z</time>
      </trkpt>
      <trkpt lat="44.46877" lon="6.22369">
        <ele>757</ele>
        <time>2025-11-21T08:25:47.000Z</time>
      </trkpt>
      <trkpt lat="44.46878" lon="6.22368">
        <ele>757</ele>
        <time>2025-11-21T08:25:48.000Z</time>
      </trkpt>
      <trkpt lat="44.46878" lon="6.22368">
        <ele>756</ele>
        <time>2025-11-21T08:25:49.000Z</time>
      </trkpt>
      <trkpt lat="44.46878" lon="6.22367">
        <ele>757</ele>
        <time>2025-11-21T08:25:50.000Z</time>
      </trkpt>
      <trkpt lat="44.46878" lon="6.22366">
        <ele>759</ele>
        <time>2025-11-21T08:25:51.000Z</time>
      </trkpt>
      <trkpt lat="44.46877" lon="6.22365">
        <ele>759</ele>
        <time>2025-11-21T08:25:52.000Z</time>
      </trkpt>
      <trkpt lat="44.46877" lon="6.22364">
        <ele>759</ele>
        <time>2025-11-21T08:25:53.000Z</time>
      </trkpt>
      <trkpt lat="44.46877" lon="6.22364">
        <ele>759</ele>
        <time>2025-11-21T08:25:54.000Z</time>
      </trkpt>
      <trkpt lat="44.46877" lon="6.22363">
        <ele>759</ele>
        <time>2025-11-21T08:25:55.000Z</time>
      </trkpt>
      <trkpt lat="44.46876" lon="6.22362">
        <ele>759</ele>
        <time>2025-11-21T08:25:56.000Z</time>
      </trkpt>
      <trkpt lat="44.46876" lon="6.22361">
        <ele>759</ele>
        <time>2025-11-21T08:25:57.000Z</time>
      </trkpt>
      <trkpt lat="44.46875" lon="6.22361">
        <ele>759</ele>
        <time>2025-11-21T08:25:58.000Z</time>
      </trkpt>
      <trkpt lat="44.46874" lon="6.22361">
        <ele>759</ele>
        <time>2025-11-21T08:25:59.000Z</time>
      </trkpt>
      <trkpt lat="44.46874" lon="6.22361">
        <ele>760</ele>
        <time>2025-11-21T08:26:00.000Z</time>
      </trkpt>
      <trkpt lat="44.46874" lon="6.22361">
        <ele>760</ele>
        <time>2025-11-21T08:26:01.000Z</time>
      </trkpt>
      <trkpt lat="44.46874" lon="6.22361">
        <ele>760</ele>
        <time>2025-11-21T08:26:02.000Z</time>
      </trkpt>
      <trkpt lat="44.46874" lon="6.2236">
        <ele>760</ele>
        <time>2025-11-21T08:26:03.000Z</time>
      </trkpt>
      <trkpt lat="44.46874" lon="6.2236">
        <ele>760</ele>
        <time>2025-11-21T08:26:04.000Z</time>
      </trkpt>
      <trkpt lat="44.46873" lon="6.2236">
        <ele>761</ele>
        <time>2025-11-21T08:26:05.000Z</time>
      </trkpt>
      <trkpt lat="44.46873" lon="6.22361">
        <ele>762</ele>
        <time>2025-11-21T08:26:06.000Z</time>
      </trkpt>
      <trkpt lat="44.46872" lon="6.22361">
        <ele>762</ele>
        <time>2025-11-21T08:26:07.000Z</time>
      </trkpt>
      <trkpt lat="44.46871" lon="6.2236">
        <ele>762</ele>
        <time>2025-11-21T08:26:08.000Z</time>
      </trkpt>
      <trkpt lat="44.46871" lon="6.2236">
        <ele>763</ele>
        <time>2025-11-21T08:26:09.000Z</time>
      </trkpt>
      <trkpt lat="44.4687" lon="6.2236">
        <ele>763</ele>
        <time>2025-11-21T08:26:10.000Z</time>
      </trkpt>
      <trkpt lat="44.4687" lon="6.2236">
        <ele>763</ele>
        <time>2025-11-21T08:26:11.000Z</time>
      </trkpt>
      <trkpt lat="44.4687" lon="6.2236">
        <ele>763</ele>
        <time>2025-11-21T08:26:12.000Z</time>
      </trkpt>
      <trkpt lat="44.4687" lon="6.2236">
        <ele>762</ele>
        <time>2025-11-21T08:26:13.000Z</time>
      </trkpt>
      <trkpt lat="44.4687" lon="6.22359">
        <ele>762</ele>
        <time>2025-11-21T08:26:14.000Z</time>
      </trkpt>
      <trkpt lat="44.46869" lon="6.22359">
        <ele>762</ele>
        <time>2025-11-21T08:26:15.000Z</time>
      </trkpt>
      <trkpt lat="44.4687" lon="6.22359">
        <ele>761</ele>
        <time>2025-11-21T08:26:16.000Z</time>
      </trkpt>
      <trkpt lat="44.4687" lon="6.22357">
        <ele>761</ele>
        <time>2025-11-21T08:26:17.000Z</time>
      </trkpt>
      <trkpt lat="44.46871" lon="6.22357">
        <ele>761</ele>
        <time>2025-11-21T08:26:18.000Z</time>
      </trkpt>
      <trkpt lat="44.46871" lon="6.22356">
        <ele>761</ele>
        <time>2025-11-21T08:26:19.000Z</time>
      </trkpt>
      <trkpt lat="44.46871" lon="6.22356">
        <ele>761</ele>
        <time>2025-11-21T08:26:20.000Z</time>
      </trkpt>
      <trkpt lat="44.46872" lon="6.22354">
        <ele>761</ele>
        <time>2025-11-21T08:26:21.000Z</time>
      </trkpt>
      <trkpt lat="44.46871" lon="6.22355">
        <ele>762</ele>
        <time>2025-11-21T08:26:22.000Z</time>
      </trkpt>
      <trkpt lat="44.46871" lon="6.22355">
        <ele>762</ele>
        <time>2025-11-21T08:26:23.000Z</time>
      </trkpt>
      <trkpt lat="44.46871" lon="6.22355">
        <ele>761</ele>
        <time>2025-11-21T08:26:24.000Z</time>
      </trkpt>
      <trkpt lat="44.4687" lon="6.22355">
        <ele>762</ele>
        <time>2025-11-21T08:26:25.000Z</time>
      </trkpt>
      <trkpt lat="44.4687" lon="6.22355">
        <ele>762</ele>
        <time>2025-11-21T08:26:26.000Z</time>
      </trkpt>
      <trkpt lat="44.46871" lon="6.22354">
        <ele>763</ele>
        <time>2025-11-21T08:26:27.000Z</time>
      </trkpt>
      <trkpt lat="44.46872" lon="6.22353">
        <ele>763</ele>
        <time>2025-11-21T08:26:28.000Z</time>
      </trkpt>
      <trkpt lat="44.46873" lon="6.22353">
        <ele>763</ele>
        <time>2025-11-21T08:26:29.000Z</time>
      </trkpt>
      <trkpt lat="44.46874" lon="6.22353">
        <ele>763</ele>
        <time>2025-11-21T08:26:30.000Z</time>
      </trkpt>
      <trkpt lat="44.46874" lon="6.22353">
        <ele>763</ele>
        <time>2025-11-21T08:26:31.000Z</time>
      </trkpt>
      <trkpt lat="44.46874" lon="6.22353">
        <ele>763</ele>
        <time>2025-11-21T08:26:32.000Z</time>
      </trkpt>
      <trkpt lat="44.46874" lon="6.22352">
        <ele>763</ele>
        <time>2025-11-21T08:26:33.000Z</time>
      </trkpt>
      <trkpt lat="44.46874" lon="6.22352">
        <ele>763</ele>
        <time>2025-11-21T08:26:34.000Z</time>
      </trkpt>
      <trkpt lat="44.46874" lon="6.22351">
        <ele>763</ele>
        <time>2025-11-21T08:26:35.000Z</time>
      </trkpt>
      <trkpt lat="44.46874" lon="6.22351">
        <ele>763</ele>
        <time>2025-11-21T08:26:36.000Z</time>
      </trkpt>
      <trkpt lat="44.46874" lon="6.2235">
        <ele>764</ele>
        <time>2025-11-21T08:26:37.000Z</time>
      </trkpt>
      <trkpt lat="44.46874" lon="6.22349">
        <ele>764</ele>
        <time>2025-11-21T08:26:38.000Z</time>
      </trkpt>
      <trkpt lat="44.46874" lon="6.22348">
        <ele>764</ele>
        <time>2025-11-21T08:26:39.000Z</time>
      </trkpt>
      <trkpt lat="44.46875" lon="6.22348">
        <ele>764</ele>
        <time>2025-11-21T08:26:40.000Z</time>
      </trkpt>
      <trkpt lat="44.46875" lon="6.22348">
        <ele>764</ele>
        <time>2025-11-21T08:26:41.000Z</time>
      </trkpt>
      <trkpt lat="44.46875" lon="6.22347">
        <ele>764</ele>
        <time>2025-11-21T08:26:42.000Z</time>
      </trkpt>
      <trkpt lat="44.46874" lon="6.22347">
        <ele>764</ele>
        <time>2025-11-21T08:26:43.000Z</time>
      </trkpt>
      <trkpt lat="44.46874" lon="6.22347">
        <ele>763</ele>
        <time>2025-11-21T08:26:44.000Z</time>
      </trkpt>
      <trkpt lat="44.46874" lon="6.22348">
        <ele>763</ele>
        <time>2025-11-21T08:26:45.000Z</time>
      </trkpt>
      <trkpt lat="44.46873" lon="6.22347">
        <ele>764</ele>
        <time>2025-11-21T08:26:46.000Z</time>
      </trkpt>
      <trkpt lat="44.46873" lon="6.22347">
        <ele>764</ele>
        <time>2025-11-21T08:26:47.000Z</time>
      </trkpt>
      <trkpt lat="44.46873" lon="6.22346">
        <ele>765</ele>
        <time>2025-11-21T08:26:48.000Z</time>
      </trkpt>
      <trkpt lat="44.46873" lon="6.22346">
        <ele>766</ele>
        <time>2025-11-21T08:26:49.000Z</time>
      </trkpt>
      <trkpt lat="44.46873" lon="6.22345">
        <ele>766</ele>
        <time>2025-11-21T08:26:50.000Z</time>
      </trkpt>
      <trkpt lat="44.46873" lon="6.22344">
        <ele>767</ele>
        <time>2025-11-21T08:26:51.000Z</time>
      </trkpt>
      <trkpt lat="44.46875" lon="6.22343">
        <ele>767</ele>
        <time>2025-11-21T08:26:52.000Z</time>
      </trkpt>
      <trkpt lat="44.46874" lon="6.22341">
        <ele>769</ele>
        <time>2025-11-21T08:26:53.000Z</time>
      </trkpt>
      <trkpt lat="44.46874" lon="6.2234">
        <ele>769</ele>
        <time>2025-11-21T08:26:54.000Z</time>
      </trkpt>
      <trkpt lat="44.46876" lon="6.22337">
        <ele>770</ele>
        <time>2025-11-21T08:27:08.000Z</time>
      </trkpt>
      <trkpt lat="44.46877" lon="6.22336">
        <ele>772</ele>
        <time>2025-11-21T08:27:09.000Z</time>
      </trkpt>
      <trkpt lat="44.46877" lon="6.22336">
        <ele>772</ele>
        <time>2025-11-21T08:27:10.000Z</time>
      </trkpt>
      <trkpt lat="44.46878" lon="6.22336">
        <ele>773</ele>
        <time>2025-11-21T08:27:11.000Z</time>
      </trkpt>
      <trkpt lat="44.46878" lon="6.22336">
        <ele>773</ele>
        <time>2025-11-21T08:27:12.000Z</time>
      </trkpt>
      <trkpt lat="44.46878" lon="6.22337">
        <ele>773</ele>
        <time>2025-11-21T08:27:13.000Z</time>
      </trkpt>
      <trkpt lat="44.46878" lon="6.22337">
        <ele>774</ele>
        <time>2025-11-21T08:27:14.000Z</time>
      </trkpt>
      <trkpt lat="44.46878" lon="6.22337">
        <ele>774</ele>
        <time>2025-11-21T08:27:15.000Z</time>
      </trkpt>
      <trkpt lat="44.46878" lon="6.22338">
        <ele>774</ele>
        <time>2025-11-21T08:27:16.000Z</time>
      </trkpt>
      <trkpt lat="44.46878" lon="6.2234">
        <ele>773</ele>
        <time>2025-11-21T08:27:17.000Z</time>
      </trkpt>
      <trkpt lat="44.46878" lon="6.2234">
        <ele>774</ele>
        <time>2025-11-21T08:27:18.000Z</time>
      </trkpt>
      <trkpt lat="44.46879" lon="6.22341">
        <ele>773</ele>
        <time>2025-11-21T08:27:19.000Z</time>
      </trkpt>
      <trkpt lat="44.46879" lon="6.22343">
        <ele>772</ele>
        <time>2025-11-21T08:27:20.000Z</time>
      </trkpt>
      <trkpt lat="44.4688" lon="6.22343">
        <ele>772</ele>
        <time>2025-11-21T08:27:21.000Z</time>
      </trkpt>
      <trkpt lat="44.46881" lon="6.22343">
        <ele>773</ele>
        <time>2025-11-21T08:27:22.000Z</time>
      </trkpt>
      <trkpt lat="44.46882" lon="6.22344">
        <ele>773</ele>
        <time>2025-11-21T08:27:23.000Z</time>
      </trkpt>
      <trkpt lat="44.46882" lon="6.22343">
        <ele>773</ele>
        <time>2025-11-21T08:27:24.000Z</time>
      </trkpt>
      <trkpt lat="44.46882" lon="6.22342">
        <ele>773</ele>
        <time>2025-11-21T08:27:25.000Z</time>
      </trkpt>
      <trkpt lat="44.46882" lon="6.22341">
        <ele>773</ele>
        <time>2025-11-21T08:27:26.000Z</time>
      </trkpt>
      <trkpt lat="44.46882" lon="6.2234">
        <ele>773</ele>
        <time>2025-11-21T08:27:27.000Z</time>
      </trkpt>
      <trkpt lat="44.46882" lon="6.22339">
        <ele>773</ele>
        <time>2025-11-21T08:27:28.000Z</time>
      </trkpt>
      <trkpt lat="44.46882" lon="6.22338">
        <ele>773</ele>
        <time>2025-11-21T08:27:29.000Z</time>
      </trkpt>
      <trkpt lat="44.46882" lon="6.22338">
        <ele>773</ele>
        <time>2025-11-21T08:27:30.000Z</time>
      </trkpt>
      <trkpt lat="44.46882" lon="6.22337">
        <ele>773</ele>
        <time>2025-11-21T08:27:31.000Z</time>
      </trkpt>
      <trkpt lat="44.46881" lon="6.22336">
        <ele>773</ele>
        <time>2025-11-21T08:27:32.000Z</time>
      </trkpt>
      <trkpt lat="44.46881" lon="6.22335">
        <ele>774</ele>
        <time>2025-11-21T08:27:33.000Z</time>
      </trkpt>
      <trkpt lat="44.46881" lon="6.22334">
        <ele>774</ele>
        <time>2025-11-21T08:27:34.000Z</time>
      </trkpt>
      <trkpt lat="44.46881" lon="6.22334">
        <ele>775</ele>
        <time>2025-11-21T08:27:35.000Z</time>
      </trkpt>
      <trkpt lat="44.46881" lon="6.22332">
        <ele>775</ele>
        <time>2025-11-21T08:27:36.000Z</time>
      </trkpt>
      <trkpt lat="44.46882" lon="6.22331">
        <ele>776</ele>
        <time>2025-11-21T08:27:37.000Z</time>
      </trkpt>
      <trkpt lat="44.46882" lon="6.22331">
        <ele>776</ele>
        <time>2025-11-21T08:27:38.000Z</time>
      </trkpt>
      <trkpt lat="44.46882" lon="6.2233">
        <ele>776</ele>
        <time>2025-11-21T08:27:39.000Z</time>
      </trkpt>
      <trkpt lat="44.46882" lon="6.22329">
        <ele>776</ele>
        <time>2025-11-21T08:27:40.000Z</time>
      </trkpt>
      <trkpt lat="44.46882" lon="6.22328">
        <ele>777</ele>
        <time>2025-11-21T08:27:41.000Z</time>
      </trkpt>
      <trkpt lat="44.46883" lon="6.22328">
        <ele>775</ele>
        <time>2025-11-21T08:27:42.000Z</time>
      </trkpt>
      <trkpt lat="44.46882" lon="6.22328">
        <ele>775</ele>
        <time>2025-11-21T08:27:43.000Z</time>
      </trkpt>
      <trkpt lat="44.46883" lon="6.22329">
        <ele>775</ele>
        <time>2025-11-21T08:27:44.000Z</time>
      </trkpt>
      <trkpt lat="44.46883" lon="6.2233">
        <ele>775</ele>
        <time>2025-11-21T08:27:45.000Z</time>
      </trkpt>
      <trkpt lat="44.46883" lon="6.2233">
        <ele>776</ele>
        <time>2025-11-21T08:27:46.000Z</time>
      </trkpt>
      <trkpt lat="44.46883" lon="6.2233">
        <ele>776</ele>
        <time>2025-11-21T08:27:47.000Z</time>
      </trkpt>
      <trkpt lat="44.46884" lon="6.22331">
        <ele>776</ele>
        <time>2025-11-21T08:27:48.000Z</time>
      </trkpt>
      <trkpt lat="44.46884" lon="6.22332">
        <ele>776</ele>
        <time>2025-11-21T08:27:49.000Z</time>
      </trkpt>
      <trkpt lat="44.46885" lon="6.22332">
        <ele>776</ele>
        <time>2025-11-21T08:27:50.000Z</time>
      </trkpt>
      <trkpt lat="44.46885" lon="6.22332">
        <ele>776</ele>
        <time>2025-11-21T08:27:51.000Z</time>
      </trkpt>
      <trkpt lat="44.46886" lon="6.22332">
        <ele>776</ele>
        <time>2025-11-21T08:27:52.000Z</time>
      </trkpt>
      <trkpt lat="44.46887" lon="6.22332">
        <ele>777</ele>
        <time>2025-11-21T08:27:53.000Z</time>
      </trkpt>
      <trkpt lat="44.46887" lon="6.22332">
        <ele>776</ele>
        <time>2025-11-21T08:27:54.000Z</time>
      </trkpt>
      <trkpt lat="44.46887" lon="6.22332">
        <ele>777</ele>
        <time>2025-11-21T08:27:55.000Z</time>
      </trkpt>
      <trkpt lat="44.46887" lon="6.22333">
        <ele>777</ele>
        <time>2025-11-21T08:27:56.000Z</time>
      </trkpt>
      <trkpt lat="44.46888" lon="6.22334">
        <ele>776</ele>
        <time>2025-11-21T08:27:57.000Z</time>
      </trkpt>
      <trkpt lat="44.46888" lon="6.22335">
        <ele>777</ele>
        <time>2025-11-21T08:27:58.000Z</time>
      </trkpt>
      <trkpt lat="44.46888" lon="6.22337">
        <ele>776</ele>
        <time>2025-11-21T08:27:59.000Z</time>
      </trkpt>
      <trkpt lat="44.46888" lon="6.22337">
        <ele>777</ele>
        <time>2025-11-21T08:28:00.000Z</time>
      </trkpt>
      <trkpt lat="44.46889" lon="6.22338">
        <ele>776</ele>
        <time>2025-11-21T08:28:01.000Z</time>
      </trkpt>
      <trkpt lat="44.46888" lon="6.22338">
        <ele>776</ele>
        <time>2025-11-21T08:28:02.000Z</time>
      </trkpt>
      <trkpt lat="44.46889" lon="6.22338">
        <ele>776</ele>
        <time>2025-11-21T08:28:03.000Z</time>
      </trkpt>
      <trkpt lat="44.4689" lon="6.22339">
        <ele>777</ele>
        <time>2025-11-21T08:28:04.000Z</time>
      </trkpt>
      <trkpt lat="44.46891" lon="6.2234">
        <ele>778</ele>
        <time>2025-11-21T08:28:05.000Z</time>
      </trkpt>
      <trkpt lat="44.46891" lon="6.2234">
        <ele>778</ele>
        <time>2025-11-21T08:28:06.000Z</time>
      </trkpt>
      <trkpt lat="44.46891" lon="6.22341">
        <ele>779</ele>
        <time>2025-11-21T08:28:07.000Z</time>
      </trkpt>
      <trkpt lat="44.46892" lon="6.22341">
        <ele>779</ele>
        <time>2025-11-21T08:28:08.000Z</time>
      </trkpt>
      <trkpt lat="44.46892" lon="6.22343">
        <ele>779</ele>
        <time>2025-11-21T08:28:09.000Z</time>
      </trkpt>
      <trkpt lat="44.46892" lon="6.22343">
        <ele>779</ele>
        <time>2025-11-21T08:28:10.000Z</time>
      </trkpt>
      <trkpt lat="44.46892" lon="6.22343">
        <ele>779</ele>
        <time>2025-11-21T08:28:11.000Z</time>
      </trkpt>
      <trkpt lat="44.46893" lon="6.22343">
        <ele>779</ele>
        <time>2025-11-21T08:28:12.000Z</time>
      </trkpt>
      <trkpt lat="44.46894" lon="6.22343">
        <ele>780</ele>
        <time>2025-11-21T08:28:13.000Z</time>
      </trkpt>
      <trkpt lat="44.46894" lon="6.22343">
        <ele>781</ele>
        <time>2025-11-21T08:28:14.000Z</time>
      </trkpt>
      <trkpt lat="44.46893" lon="6.22342">
        <ele>782</ele>
        <time>2025-11-21T08:28:15.000Z</time>
      </trkpt>
      <trkpt lat="44.46894" lon="6.22342">
        <ele>782</ele>
        <time>2025-11-21T08:28:16.000Z</time>
      </trkpt>
      <trkpt lat="44.46894" lon="6.22341">
        <ele>782</ele>
        <time>2025-11-21T08:28:17.000Z</time>
      </trkpt>
      <trkpt lat="44.46894" lon="6.22341">
        <ele>782</ele>
        <time>2025-11-21T08:28:18.000Z</time>
      </trkpt>
      <trkpt lat="44.46894" lon="6.22341">
        <ele>782</ele>
        <time>2025-11-21T08:28:19.000Z</time>
      </trkpt>
      <trkpt lat="44.46894" lon="6.22341">
        <ele>782</ele>
        <time>2025-11-21T08:28:20.000Z</time>
      </trkpt>
      <trkpt lat="44.46894" lon="6.22339">
        <ele>783</ele>
        <time>2025-11-21T08:28:21.000Z</time>
      </trkpt>
      <trkpt lat="44.46894" lon="6.22338">
        <ele>783</ele>
        <time>2025-11-21T08:28:22.000Z</time>
      </trkpt>
      <trkpt lat="44.46894" lon="6.22337">
        <ele>784</ele>
        <time>2025-11-21T08:28:23.000Z</time>
      </trkpt>
      <trkpt lat="44.46894" lon="6.22335">
        <ele>784</ele>
        <time>2025-11-21T08:28:24.000Z</time>
      </trkpt>
      <trkpt lat="44.46893" lon="6.22334">
        <ele>784</ele>
        <time>2025-11-21T08:28:25.000Z</time>
      </trkpt>
      <trkpt lat="44.46893" lon="6.22333">
        <ele>784</ele>
        <time>2025-11-21T08:28:26.000Z</time>
      </trkpt>
      <trkpt lat="44.46894" lon="6.22332">
        <ele>784</ele>
        <time>2025-11-21T08:28:27.000Z</time>
      </trkpt>
      <trkpt lat="44.46894" lon="6.22331">
        <ele>785</ele>
        <time>2025-11-21T08:28:28.000Z</time>
      </trkpt>
      <trkpt lat="44.46894" lon="6.2233">
        <ele>784</ele>
        <time>2025-11-21T08:28:29.000Z</time>
      </trkpt>
      <trkpt lat="44.46894" lon="6.22329">
        <ele>785</ele>
        <time>2025-11-21T08:28:30.000Z</time>
      </trkpt>
      <trkpt lat="44.46894" lon="6.22327">
        <ele>785</ele>
        <time>2025-11-21T08:28:31.000Z</time>
      </trkpt>
      <trkpt lat="44.46893" lon="6.22327">
        <ele>785</ele>
        <time>2025-11-21T08:28:32.000Z</time>
      </trkpt>
      <trkpt lat="44.46893" lon="6.22325">
        <ele>785</ele>
        <time>2025-11-21T08:28:33.000Z</time>
      </trkpt>
      <trkpt lat="44.46893" lon="6.22323">
        <ele>785</ele>
        <time>2025-11-21T08:28:34.000Z</time>
      </trkpt>
      <trkpt lat="44.46892" lon="6.22322">
        <ele>786</ele>
        <time>2025-11-21T08:28:35.000Z</time>
      </trkpt>
      <trkpt lat="44.46892" lon="6.22321">
        <ele>786</ele>
        <time>2025-11-21T08:28:36.000Z</time>
      </trkpt>
      <trkpt lat="44.46892" lon="6.22321">
        <ele>786</ele>
        <time>2025-11-21T08:28:37.000Z</time>
      </trkpt>
      <trkpt lat="44.46892" lon="6.2232">
        <ele>787</ele>
        <time>2025-11-21T08:28:38.000Z</time>
      </trkpt>
      <trkpt lat="44.46893" lon="6.2232">
        <ele>787</ele>
        <time>2025-11-21T08:28:39.000Z</time>
      </trkpt>
      <trkpt lat="44.46893" lon="6.2232">
        <ele>787</ele>
        <time>2025-11-21T08:28:40.000Z</time>
      </trkpt>
      <trkpt lat="44.46893" lon="6.22319">
        <ele>787</ele>
        <time>2025-11-21T08:28:41.000Z</time>
      </trkpt>
      <trkpt lat="44.46893" lon="6.22319">
        <ele>787</ele>
        <time>2025-11-21T08:28:42.000Z</time>
      </trkpt>
      <trkpt lat="44.46895" lon="6.2232">
        <ele>788</ele>
        <time>2025-11-21T08:28:43.000Z</time>
      </trkpt>
      <trkpt lat="44.46895" lon="6.2232">
        <ele>787</ele>
        <time>2025-11-21T08:28:44.000Z</time>
      </trkpt>
      <trkpt lat="44.46895" lon="6.2232">
        <ele>787</ele>
        <time>2025-11-21T08:28:45.000Z</time>
      </trkpt>
      <trkpt lat="44.46896" lon="6.22321">
        <ele>786</ele>
        <time>2025-11-21T08:28:46.000Z</time>
      </trkpt>
      <trkpt lat="44.46896" lon="6.22322">
        <ele>786</ele>
        <time>2025-11-21T08:28:47.000Z</time>
      </trkpt>
      <trkpt lat="44.46896" lon="6.22322">
        <ele>785</ele>
        <time>2025-11-21T08:28:48.000Z</time>
      </trkpt>
      <trkpt lat="44.46896" lon="6.22322">
        <ele>785</ele>
        <time>2025-11-21T08:28:49.000Z</time>
      </trkpt>
      <trkpt lat="44.46896" lon="6.22322">
        <ele>785</ele>
        <time>2025-11-21T08:28:50.000Z</time>
      </trkpt>
      <trkpt lat="44.46896" lon="6.22322">
        <ele>785</ele>
        <time>2025-11-21T08:28:51.000Z</time>
      </trkpt>
      <trkpt lat="44.46896" lon="6.22322">
        <ele>785</ele>
        <time>2025-11-21T08:28:52.000Z</time>
      </trkpt>
      <trkpt lat="44.46894" lon="6.22322">
        <ele>785</ele>
        <time>2025-11-21T08:28:53.000Z</time>
      </trkpt>
      <trkpt lat="44.46894" lon="6.22324">
        <ele>784</ele>
        <time>2025-11-21T08:28:54.000Z</time>
      </trkpt>
      <trkpt lat="44.46898" lon="6.22327">
        <ele>785</ele>
        <time>2025-11-21T08:29:07.000Z</time>
      </trkpt>
      <trkpt lat="44.46899" lon="6.22327">
        <ele>785</ele>
        <time>2025-11-21T08:29:08.000Z</time>
      </trkpt>
      <trkpt lat="44.469" lon="6.22326">
        <ele>784</ele>
        <time>2025-11-21T08:29:09.000Z</time>
      </trkpt>
      <trkpt lat="44.469" lon="6.22326">
        <ele>785</ele>
        <time>2025-11-21T08:29:10.000Z</time>
      </trkpt>
      <trkpt lat="44.46901" lon="6.22327">
        <ele>784</ele>
        <time>2025-11-21T08:29:11.000Z</time>
      </trkpt>
      <trkpt lat="44.46901" lon="6.22327">
        <ele>784</ele>
        <time>2025-11-21T08:29:12.000Z</time>
      </trkpt>
      <trkpt lat="44.46902" lon="6.22328">
        <ele>784</ele>
        <time>2025-11-21T08:29:13.000Z</time>
      </trkpt>
      <trkpt lat="44.46902" lon="6.22329">
        <ele>784</ele>
        <time>2025-11-21T08:29:14.000Z</time>
      </trkpt>
      <trkpt lat="44.46903" lon="6.2233">
        <ele>784</ele>
        <time>2025-11-21T08:29:15.000Z</time>
      </trkpt>
      <trkpt lat="44.46903" lon="6.22331">
        <ele>785</ele>
        <time>2025-11-21T08:29:16.000Z</time>
      </trkpt>
      <trkpt lat="44.46904" lon="6.22331">
        <ele>786</ele>
        <time>2025-11-21T08:29:17.000Z</time>
      </trkpt>
      <trkpt lat="44.46905" lon="6.22331">
        <ele>786</ele>
        <time>2025-11-21T08:29:18.000Z</time>
      </trkpt>
      <trkpt lat="44.46904" lon="6.22332">
        <ele>786</ele>
        <time>2025-11-21T08:29:19.000Z</time>
      </trkpt>
      <trkpt lat="44.46904" lon="6.22332">
        <ele>786</ele>
        <time>2025-11-21T08:29:20.000Z</time>
      </trkpt>
      <trkpt lat="44.46904" lon="6.22333">
        <ele>785</ele>
        <time>2025-11-21T08:29:21.000Z</time>
      </trkpt>
      <trkpt lat="44.46905" lon="6.22334">
        <ele>785</ele>
        <time>2025-11-21T08:29:22.000Z</time>
      </trkpt>
      <trkpt lat="44.46905" lon="6.22334">
        <ele>785</ele>
        <time>2025-11-21T08:29:23.000Z</time>
      </trkpt>
      <trkpt lat="44.46905" lon="6.22333">
        <ele>786</ele>
        <time>2025-11-21T08:29:24.000Z</time>
      </trkpt>
      <trkpt lat="44.46905" lon="6.22333">
        <ele>787</ele>
        <time>2025-11-21T08:29:25.000Z</time>
      </trkpt>
      <trkpt lat="44.46905" lon="6.22332">
        <ele>788</ele>
        <time>2025-11-21T08:29:26.000Z</time>
      </trkpt>
      <trkpt lat="44.46904" lon="6.22332">
        <ele>788</ele>
        <time>2025-11-21T08:29:27.000Z</time>
      </trkpt>
      <trkpt lat="44.46904" lon="6.22332">
        <ele>790</ele>
        <time>2025-11-21T08:29:28.000Z</time>
      </trkpt>
      <trkpt lat="44.46904" lon="6.22331">
        <ele>790</ele>
        <time>2025-11-21T08:29:29.000Z</time>
      </trkpt>
      <trkpt lat="44.46904" lon="6.22331">
        <ele>790</ele>
        <time>2025-11-21T08:29:30.000Z</time>
      </trkpt>
      <trkpt lat="44.46904" lon="6.22331">
        <ele>790</ele>
        <time>2025-11-21T08:29:31.000Z</time>
      </trkpt>
      <trkpt lat="44.46904" lon="6.2233">
        <ele>790</ele>
        <time>2025-11-21T08:29:32.000Z</time>
      </trkpt>
      <trkpt lat="44.46904" lon="6.22329">
        <ele>791</ele>
        <time>2025-11-21T08:29:33.000Z</time>
      </trkpt>
      <trkpt lat="44.46903" lon="6.22329">
        <ele>792</ele>
        <time>2025-11-21T08:29:34.000Z</time>
      </trkpt>
      <trkpt lat="44.46902" lon="6.22329">
        <ele>793</ele>
        <time>2025-11-21T08:29:35.000Z</time>
      </trkpt>
      <trkpt lat="44.46902" lon="6.22329">
        <ele>793</ele>
        <time>2025-11-21T08:29:36.000Z</time>
      </trkpt>
      <trkpt lat="44.46902" lon="6.22328">
        <ele>794</ele>
        <time>2025-11-21T08:29:37.000Z</time>
      </trkpt>
      <trkpt lat="44.46901" lon="6.22327">
        <ele>795</ele>
        <time>2025-11-21T08:29:38.000Z</time>
      </trkpt>
      <trkpt lat="44.46901" lon="6.22326">
        <ele>797</ele>
        <time>2025-11-21T08:29:39.000Z</time>
      </trkpt>
      <trkpt lat="44.46901" lon="6.22324">
        <ele>797</ele>
        <time>2025-11-21T08:29:40.000Z</time>
      </trkpt>
      <trkpt lat="44.46901" lon="6.22324">
        <ele>797</ele>
        <time>2025-11-21T08:29:41.000Z</time>
      </trkpt>
      <trkpt lat="44.46901" lon="6.22322">
        <ele>797</ele>
        <time>2025-11-21T08:29:42.000Z</time>
      </trkpt>
      <trkpt lat="44.46902" lon="6.22321">
        <ele>797</ele>
        <time>2025-11-21T08:29:43.000Z</time>
      </trkpt>
      <trkpt lat="44.46901" lon="6.2232">
        <ele>798</ele>
        <time>2025-11-21T08:29:44.000Z</time>
      </trkpt>
      <trkpt lat="44.46902" lon="6.22318">
        <ele>798</ele>
        <time>2025-11-21T08:29:45.000Z</time>
      </trkpt>
      <trkpt lat="44.46902" lon="6.22318">
        <ele>797</ele>
        <time>2025-11-21T08:29:46.000Z</time>
      </trkpt>
      <trkpt lat="44.46902" lon="6.22317">
        <ele>797</ele>
        <time>2025-11-21T08:29:47.000Z</time>
      </trkpt>
      <trkpt lat="44.46902" lon="6.22315">
        <ele>797</ele>
        <time>2025-11-21T08:29:48.000Z</time>
      </trkpt>
      <trkpt lat="44.46902" lon="6.22314">
        <ele>797</ele>
        <time>2025-11-21T08:29:49.000Z</time>
      </trkpt>
      <trkpt lat="44.46901" lon="6.22314">
        <ele>796</ele>
        <time>2025-11-21T08:29:50.000Z</time>
      </trkpt>
      <trkpt lat="44.46902" lon="6.22313">
        <ele>796</ele>
        <time>2025-11-21T08:29:51.000Z</time>
      </trkpt>
      <trkpt lat="44.46902" lon="6.22312">
        <ele>797</ele>
        <time>2025-11-21T08:29:52.000Z</time>
      </trkpt>
      <trkpt lat="44.46902" lon="6.22311">
        <ele>797</ele>
        <time>2025-11-21T08:29:53.000Z</time>
      </trkpt>
      <trkpt lat="44.46902" lon="6.22309">
        <ele>797</ele>
        <time>2025-11-21T08:29:54.000Z</time>
      </trkpt>
      <trkpt lat="44.46903" lon="6.22308">
        <ele>798</ele>
        <time>2025-11-21T08:29:55.000Z</time>
      </trkpt>
      <trkpt lat="44.46904" lon="6.22308">
        <ele>798</ele>
        <time>2025-11-21T08:29:56.000Z</time>
      </trkpt>
      <trkpt lat="44.46904" lon="6.22307">
        <ele>797</ele>
        <time>2025-11-21T08:29:57.000Z</time>
      </trkpt>
      <trkpt lat="44.46904" lon="6.22306">
        <ele>798</ele>
        <time>2025-11-21T08:29:58.000Z</time>
      </trkpt>
      <trkpt lat="44.46904" lon="6.22304">
        <ele>798</ele>
        <time>2025-11-21T08:29:59.000Z</time>
      </trkpt>
      <trkpt lat="44.46905" lon="6.22303">
        <ele>798</ele>
        <time>2025-11-21T08:30:00.000Z</time>
      </trkpt>
      <trkpt lat="44.46905" lon="6.22303">
        <ele>797</ele>
        <time>2025-11-21T08:30:01.000Z</time>
      </trkpt>
      <trkpt lat="44.46905" lon="6.22302">
        <ele>798</ele>
        <time>2025-11-21T08:30:02.000Z</time>
      </trkpt>
      <trkpt lat="44.46906" lon="6.22302">
        <ele>797</ele>
        <time>2025-11-21T08:30:03.000Z</time>
      </trkpt>
      <trkpt lat="44.46906" lon="6.22302">
        <ele>797</ele>
        <time>2025-11-21T08:30:04.000Z</time>
      </trkpt>
      <trkpt lat="44.46906" lon="6.22302">
        <ele>797</ele>
        <time>2025-11-21T08:30:05.000Z</time>
      </trkpt>
      <trkpt lat="44.46906" lon="6.22302">
        <ele>797</ele>
        <time>2025-11-21T08:30:06.000Z</time>
      </trkpt>
      <trkpt lat="44.46908" lon="6.22301">
        <ele>797</ele>
        <time>2025-11-21T08:30:07.000Z</time>
      </trkpt>
      <trkpt lat="44.46909" lon="6.223">
        <ele>797</ele>
        <time>2025-11-21T08:30:08.000Z</time>
      </trkpt>
      <trkpt lat="44.4691" lon="6.22299">
        <ele>797</ele>
        <time>2025-11-21T08:30:09.000Z</time>
      </trkpt>
      <trkpt lat="44.4691" lon="6.22298">
        <ele>797</ele>
        <time>2025-11-21T08:30:10.000Z</time>
      </trkpt>
      <trkpt lat="44.4691" lon="6.22296">
        <ele>797</ele>
        <time>2025-11-21T08:30:11.000Z</time>
      </trkpt>
      <trkpt lat="44.4691" lon="6.22295">
        <ele>798</ele>
        <time>2025-11-21T08:30:12.000Z</time>
      </trkpt>
      <trkpt lat="44.4691" lon="6.22293">
        <ele>799</ele>
        <time>2025-11-21T08:30:13.000Z</time>
      </trkpt>
      <trkpt lat="44.4691" lon="6.22291">
        <ele>799</ele>
        <time>2025-11-21T08:30:14.000Z</time>
      </trkpt>
      <trkpt lat="44.4691" lon="6.2229">
        <ele>800</ele>
        <time>2025-11-21T08:30:15.000Z</time>
      </trkpt>
      <trkpt lat="44.46911" lon="6.22288">
        <ele>800</ele>
        <time>2025-11-21T08:30:16.000Z</time>
      </trkpt>
      <trkpt lat="44.46911" lon="6.22287">
        <ele>800</ele>
        <time>2025-11-21T08:30:17.000Z</time>
      </trkpt>
      <trkpt lat="44.46912" lon="6.22286">
        <ele>800</ele>
        <time>2025-11-21T08:30:18.000Z</time>
      </trkpt>
      <trkpt lat="44.46913" lon="6.22287">
        <ele>800</ele>
        <time>2025-11-21T08:30:19.000Z</time>
      </trkpt>
      <trkpt lat="44.46913" lon="6.22287">
        <ele>801</ele>
        <time>2025-11-21T08:30:20.000Z</time>
      </trkpt>
      <trkpt lat="44.46913" lon="6.22288">
        <ele>801</ele>
        <time>2025-11-21T08:30:21.000Z</time>
      </trkpt>
      <trkpt lat="44.46913" lon="6.22288">
        <ele>801</ele>
        <time>2025-11-21T08:30:22.000Z</time>
      </trkpt>
      <trkpt lat="44.46914" lon="6.22288">
        <ele>803</ele>
        <time>2025-11-21T08:30:23.000Z</time>
      </trkpt>
      <trkpt lat="44.46914" lon="6.22289">
        <ele>803</ele>
        <time>2025-11-21T08:30:24.000Z</time>
      </trkpt>
      <trkpt lat="44.46915" lon="6.22289">
        <ele>803</ele>
        <time>2025-11-21T08:30:25.000Z</time>
      </trkpt>
      <trkpt lat="44.46917" lon="6.2229">
        <ele>806</ele>
        <time>2025-11-21T08:30:40.000Z</time>
      </trkpt>
      <trkpt lat="44.46917" lon="6.2229">
        <ele>806</ele>
        <time>2025-11-21T08:30:41.000Z</time>
      </trkpt>
      <trkpt lat="44.46918" lon="6.22289">
        <ele>806</ele>
        <time>2025-11-21T08:30:42.000Z</time>
      </trkpt>
      <trkpt lat="44.46918" lon="6.22289">
        <ele>807</ele>
        <time>2025-11-21T08:30:43.000Z</time>
      </trkpt>
      <trkpt lat="44.46918" lon="6.22288">
        <ele>807</ele>
        <time>2025-11-21T08:30:44.000Z</time>
      </trkpt>
      <trkpt lat="44.46919" lon="6.22288">
        <ele>807</ele>
        <time>2025-11-21T08:30:45.000Z</time>
      </trkpt>
      <trkpt lat="44.46919" lon="6.22288">
        <ele>807</ele>
        <time>2025-11-21T08:30:46.000Z</time>
      </trkpt>
      <trkpt lat="44.46919" lon="6.22288">
        <ele>807</ele>
        <time>2025-11-21T08:30:47.000Z</time>
      </trkpt>
      <trkpt lat="44.4692" lon="6.22287">
        <ele>808</ele>
        <time>2025-11-21T08:30:48.000Z</time>
      </trkpt>
      <trkpt lat="44.4692" lon="6.22288">
        <ele>808</ele>
        <time>2025-11-21T08:30:49.000Z</time>
      </trkpt>
      <trkpt lat="44.4692" lon="6.22289">
        <ele>808</ele>
        <time>2025-11-21T08:30:50.000Z</time>
      </trkpt>
      <trkpt lat="44.46921" lon="6.2229">
        <ele>808</ele>
        <time>2025-11-21T08:30:51.000Z</time>
      </trkpt>
      <trkpt lat="44.46921" lon="6.2229">
        <ele>809</ele>
        <time>2025-11-21T08:30:52.000Z</time>
      </trkpt>
      <trkpt lat="44.4692" lon="6.2229">
        <ele>809</ele>
        <time>2025-11-21T08:30:53.000Z</time>
      </trkpt>
      <trkpt lat="44.4692" lon="6.22289">
        <ele>809</ele>
        <time>2025-11-21T08:30:54.000Z</time>
      </trkpt>
      <trkpt lat="44.4692" lon="6.22289">
        <ele>809</ele>
        <time>2025-11-21T08:30:55.000Z</time>
      </trkpt>
      <trkpt lat="44.4692" lon="6.22288">
        <ele>809</ele>
        <time>2025-11-21T08:30:56.000Z</time>
      </trkpt>
      <trkpt lat="44.46921" lon="6.22287">
        <ele>809</ele>
        <time>2025-11-21T08:30:57.000Z</time>
      </trkpt>
      <trkpt lat="44.46921" lon="6.22287">
        <ele>810</ele>
        <time>2025-11-21T08:30:58.000Z</time>
      </trkpt>
      <trkpt lat="44.46922" lon="6.22286">
        <ele>810</ele>
        <time>2025-11-21T08:30:59.000Z</time>
      </trkpt>
      <trkpt lat="44.46923" lon="6.22286">
        <ele>810</ele>
        <time>2025-11-21T08:31:00.000Z</time>
      </trkpt>
      <trkpt lat="44.46924" lon="6.22286">
        <ele>810</ele>
        <time>2025-11-21T08:31:01.000Z</time>
      </trkpt>
      <trkpt lat="44.46925" lon="6.22286">
        <ele>810</ele>
        <time>2025-11-21T08:31:02.000Z</time>
      </trkpt>
      <trkpt lat="44.46926" lon="6.22285">
        <ele>810</ele>
        <time>2025-11-21T08:31:03.000Z</time>
      </trkpt>
      <trkpt lat="44.46927" lon="6.22285">
        <ele>810</ele>
        <time>2025-11-21T08:31:04.000Z</time>
      </trkpt>
      <trkpt lat="44.46927" lon="6.22285">
        <ele>811</ele>
        <time>2025-11-21T08:31:05.000Z</time>
      </trkpt>
      <trkpt lat="44.46928" lon="6.22284">
        <ele>811</ele>
        <time>2025-11-21T08:31:06.000Z</time>
      </trkpt>
      <trkpt lat="44.46928" lon="6.22283">
        <ele>811</ele>
        <time>2025-11-21T08:31:07.000Z</time>
      </trkpt>
      <trkpt lat="44.46928" lon="6.22283">
        <ele>812</ele>
        <time>2025-11-21T08:31:08.000Z</time>
      </trkpt>
      <trkpt lat="44.46929" lon="6.22283">
        <ele>811</ele>
        <time>2025-11-21T08:31:09.000Z</time>
      </trkpt>
      <trkpt lat="44.4693" lon="6.22282">
        <ele>811</ele>
        <time>2025-11-21T08:31:10.000Z</time>
      </trkpt>
      <trkpt lat="44.4693" lon="6.22282">
        <ele>810</ele>
        <time>2025-11-21T08:31:11.000Z</time>
      </trkpt>
      <trkpt lat="44.46931" lon="6.22282">
        <ele>810</ele>
        <time>2025-11-21T08:31:12.000Z</time>
      </trkpt>
      <trkpt lat="44.46932" lon="6.22281">
        <ele>810</ele>
        <time>2025-11-21T08:31:13.000Z</time>
      </trkpt>
      <trkpt lat="44.46933" lon="6.22281">
        <ele>810</ele>
        <time>2025-11-21T08:31:14.000Z</time>
      </trkpt>
      <trkpt lat="44.46933" lon="6.2228">
        <ele>810</ele>
        <time>2025-11-21T08:31:15.000Z</time>
      </trkpt>
      <trkpt lat="44.46934" lon="6.2228">
        <ele>811</ele>
        <time>2025-11-21T08:31:16.000Z</time>
      </trkpt>
      <trkpt lat="44.46935" lon="6.2228">
        <ele>811</ele>
        <time>2025-11-21T08:31:17.000Z</time>
      </trkpt>
      <trkpt lat="44.46935" lon="6.2228">
        <ele>811</ele>
        <time>2025-11-21T08:31:18.000Z</time>
      </trkpt>
      <trkpt lat="44.46935" lon="6.2228">
        <ele>811</ele>
        <time>2025-11-21T08:31:19.000Z</time>
      </trkpt>
      <trkpt lat="44.46937" lon="6.22279">
        <ele>813</ele>
        <time>2025-11-21T08:31:20.000Z</time>
      </trkpt>
      <trkpt lat="44.46938" lon="6.22279">
        <ele>813</ele>
        <time>2025-11-21T08:31:21.000Z</time>
      </trkpt>
      <trkpt lat="44.46938" lon="6.22279">
        <ele>813</ele>
        <time>2025-11-21T08:31:22.000Z</time>
      </trkpt>
      <trkpt lat="44.4694" lon="6.22279">
        <ele>813</ele>
        <time>2025-11-21T08:31:23.000Z</time>
      </trkpt>
      <trkpt lat="44.4694" lon="6.22278">
        <ele>813</ele>
        <time>2025-11-21T08:31:24.000Z</time>
      </trkpt>
      <trkpt lat="44.46941" lon="6.22278">
        <ele>812</ele>
        <time>2025-11-21T08:31:25.000Z</time>
      </trkpt>
      <trkpt lat="44.46942" lon="6.22278">
        <ele>813</ele>
        <time>2025-11-21T08:31:26.000Z</time>
      </trkpt>
      <trkpt lat="44.46943" lon="6.22278">
        <ele>813</ele>
        <time>2025-11-21T08:31:27.000Z</time>
      </trkpt>
      <trkpt lat="44.46943" lon="6.22277">
        <ele>813</ele>
        <time>2025-11-21T08:31:28.000Z</time>
      </trkpt>
      <trkpt lat="44.46943" lon="6.22277">
        <ele>813</ele>
        <time>2025-11-21T08:31:29.000Z</time>
      </trkpt>
      <trkpt lat="44.46943" lon="6.22277">
        <ele>813</ele>
        <time>2025-11-21T08:31:30.000Z</time>
      </trkpt>
      <trkpt lat="44.46945" lon="6.22277">
        <ele>813</ele>
        <time>2025-11-21T08:31:31.000Z</time>
      </trkpt>
      <trkpt lat="44.46946" lon="6.22277">
        <ele>813</ele>
        <time>2025-11-21T08:31:32.000Z</time>
      </trkpt>
      <trkpt lat="44.46946" lon="6.22277">
        <ele>814</ele>
        <time>2025-11-21T08:31:33.000Z</time>
      </trkpt>
      <trkpt lat="44.46946" lon="6.22276">
        <ele>814</ele>
        <time>2025-11-21T08:31:34.000Z</time>
      </trkpt>
      <trkpt lat="44.46946" lon="6.22275">
        <ele>814</ele>
        <time>2025-11-21T08:31:35.000Z</time>
      </trkpt>
      <trkpt lat="44.46946" lon="6.22273">
        <ele>815</ele>
        <time>2025-11-21T08:31:36.000Z</time>
      </trkpt>
      <trkpt lat="44.46947" lon="6.22272">
        <ele>815</ele>
        <time>2025-11-21T08:31:37.000Z</time>
      </trkpt>
      <trkpt lat="44.46948" lon="6.2227">
        <ele>815</ele>
        <time>2025-11-21T08:31:38.000Z</time>
      </trkpt>
      <trkpt lat="44.46948" lon="6.22269">
        <ele>815</ele>
        <time>2025-11-21T08:31:39.000Z</time>
      </trkpt>
      <trkpt lat="44.46949" lon="6.22268">
        <ele>815</ele>
        <time>2025-11-21T08:31:40.000Z</time>
      </trkpt>
      <trkpt lat="44.4695" lon="6.22267">
        <ele>815</ele>
        <time>2025-11-21T08:31:41.000Z</time>
      </trkpt>
      <trkpt lat="44.4695" lon="6.22267">
        <ele>815</ele>
        <time>2025-11-21T08:31:42.000Z</time>
      </trkpt>
      <trkpt lat="44.46951" lon="6.22265">
        <ele>815</ele>
        <time>2025-11-21T08:31:43.000Z</time>
      </trkpt>
      <trkpt lat="44.46951" lon="6.22264">
        <ele>815</ele>
        <time>2025-11-21T08:31:44.000Z</time>
      </trkpt>
      <trkpt lat="44.46952" lon="6.22264">
        <ele>816</ele>
        <time>2025-11-21T08:31:45.000Z</time>
      </trkpt>
      <trkpt lat="44.46952" lon="6.22264">
        <ele>816</ele>
        <time>2025-11-21T08:31:46.000Z</time>
      </trkpt>
      <trkpt lat="44.46952" lon="6.22264">
        <ele>816</ele>
        <time>2025-11-21T08:31:47.000Z</time>
      </trkpt>
      <trkpt lat="44.46953" lon="6.22263">
        <ele>817</ele>
        <time>2025-11-21T08:31:48.000Z</time>
      </trkpt>
      <trkpt lat="44.46954" lon="6.22263">
        <ele>817</ele>
        <time>2025-11-21T08:31:49.000Z</time>
      </trkpt>
      <trkpt lat="44.46954" lon="6.22263">
        <ele>817</ele>
        <time>2025-11-21T08:31:50.000Z</time>
      </trkpt>
      <trkpt lat="44.46956" lon="6.22263">
        <ele>817</ele>
        <time>2025-11-21T08:31:51.000Z</time>
      </trkpt>
      <trkpt lat="44.46956" lon="6.22263">
        <ele>817</ele>
        <time>2025-11-21T08:31:52.000Z</time>
      </trkpt>
      <trkpt lat="44.46956" lon="6.22263">
        <ele>817</ele>
        <time>2025-11-21T08:31:53.000Z</time>
      </trkpt>
      <trkpt lat="44.46957" lon="6.22263">
        <ele>817</ele>
        <time>2025-11-21T08:31:54.000Z</time>
      </trkpt>
      <trkpt lat="44.46957" lon="6.22263">
        <ele>817</ele>
        <time>2025-11-21T08:31:55.000Z</time>
      </trkpt>
      <trkpt lat="44.46958" lon="6.22261">
        <ele>818</ele>
        <time>2025-11-21T08:31:56.000Z</time>
      </trkpt>
      <trkpt lat="44.46958" lon="6.2226">
        <ele>818</ele>
        <time>2025-11-21T08:31:57.000Z</time>
      </trkpt>
      <trkpt lat="44.46959" lon="6.22259">
        <ele>819</ele>
        <time>2025-11-21T08:31:58.000Z</time>
      </trkpt>
      <trkpt lat="44.4696" lon="6.22259">
        <ele>819</ele>
        <time>2025-11-21T08:31:59.000Z</time>
      </trkpt>
      <trkpt lat="44.46961" lon="6.2226">
        <ele>819</ele>
        <time>2025-11-21T08:32:00.000Z</time>
      </trkpt>
      <trkpt lat="44.46962" lon="6.22259">
        <ele>819</ele>
        <time>2025-11-21T08:32:01.000Z</time>
      </trkpt>
      <trkpt lat="44.46962" lon="6.22259">
        <ele>819</ele>
        <time>2025-11-21T08:32:02.000Z</time>
      </trkpt>
      <trkpt lat="44.46962" lon="6.22258">
        <ele>819</ele>
        <time>2025-11-21T08:32:03.000Z</time>
      </trkpt>
      <trkpt lat="44.46962" lon="6.22258">
        <ele>820</ele>
        <time>2025-11-21T08:32:04.000Z</time>
      </trkpt>
      <trkpt lat="44.46963" lon="6.22259">
        <ele>821</ele>
        <time>2025-11-21T08:32:05.000Z</time>
      </trkpt>
      <trkpt lat="44.46964" lon="6.22258">
        <ele>821</ele>
        <time>2025-11-21T08:32:06.000Z</time>
      </trkpt>
      <trkpt lat="44.46965" lon="6.22258">
        <ele>821</ele>
        <time>2025-11-21T08:32:07.000Z</time>
      </trkpt>
      <trkpt lat="44.46965" lon="6.22257">
        <ele>821</ele>
        <time>2025-11-21T08:32:08.000Z</time>
      </trkpt>
      <trkpt lat="44.46966" lon="6.22257">
        <ele>822</ele>
        <time>2025-11-21T08:32:09.000Z</time>
      </trkpt>
      <trkpt lat="44.46965" lon="6.22256">
        <ele>823</ele>
        <time>2025-11-21T08:32:10.000Z</time>
      </trkpt>
      <trkpt lat="44.46966" lon="6.22256">
        <ele>823</ele>
        <time>2025-11-21T08:32:11.000Z</time>
      </trkpt>
      <trkpt lat="44.46967" lon="6.22256">
        <ele>822</ele>
        <time>2025-11-21T08:32:12.000Z</time>
      </trkpt>
      <trkpt lat="44.46967" lon="6.22255">
        <ele>822</ele>
        <time>2025-11-21T08:32:13.000Z</time>
      </trkpt>
      <trkpt lat="44.46968" lon="6.22254">
        <ele>823</ele>
        <time>2025-11-21T08:32:14.000Z</time>
      </trkpt>
      <trkpt lat="44.46968" lon="6.22253">
        <ele>823</ele>
        <time>2025-11-21T08:32:15.000Z</time>
      </trkpt>
      <trkpt lat="44.46969" lon="6.22251">
        <ele>824</ele>
        <time>2025-11-21T08:32:16.000Z</time>
      </trkpt>
      <trkpt lat="44.46969" lon="6.2225">
        <ele>824</ele>
        <time>2025-11-21T08:32:17.000Z</time>
      </trkpt>
      <trkpt lat="44.46969" lon="6.22249">
        <ele>824</ele>
        <time>2025-11-21T08:32:18.000Z</time>
      </trkpt>
      <trkpt lat="44.46969" lon="6.22249">
        <ele>824</ele>
        <time>2025-11-21T08:32:19.000Z</time>
      </trkpt>
      <trkpt lat="44.46969" lon="6.22248">
        <ele>824</ele>
        <time>2025-11-21T08:32:20.000Z</time>
      </trkpt>
      <trkpt lat="44.46969" lon="6.22248">
        <ele>824</ele>
        <time>2025-11-21T08:32:21.000Z</time>
      </trkpt>
      <trkpt lat="44.4697" lon="6.22247">
        <ele>824</ele>
        <time>2025-11-21T08:32:22.000Z</time>
      </trkpt>
      <trkpt lat="44.4697" lon="6.22246">
        <ele>825</ele>
        <time>2025-11-21T08:32:23.000Z</time>
      </trkpt>
      <trkpt lat="44.46969" lon="6.22245">
        <ele>825</ele>
        <time>2025-11-21T08:32:24.000Z</time>
      </trkpt>
      <trkpt lat="44.46968" lon="6.22245">
        <ele>825</ele>
        <time>2025-11-21T08:32:25.000Z</time>
      </trkpt>
      <trkpt lat="44.46968" lon="6.22244">
        <ele>825</ele>
        <time>2025-11-21T08:32:26.000Z</time>
      </trkpt>
      <trkpt lat="44.46968" lon="6.22243">
        <ele>825</ele>
        <time>2025-11-21T08:32:27.000Z</time>
      </trkpt>
      <trkpt lat="44.46967" lon="6.22244">
        <ele>825</ele>
        <time>2025-11-21T08:32:28.000Z</time>
      </trkpt>
      <trkpt lat="44.46966" lon="6.22244">
        <ele>825</ele>
        <time>2025-11-21T08:32:29.000Z</time>
      </trkpt>
      <trkpt lat="44.46966" lon="6.22244">
        <ele>825</ele>
        <time>2025-11-21T08:32:30.000Z</time>
      </trkpt>
      <trkpt lat="44.46967" lon="6.22245">
        <ele>825</ele>
        <time>2025-11-21T08:32:31.000Z</time>
      </trkpt>
      <trkpt lat="44.46966" lon="6.22245">
        <ele>825</ele>
        <time>2025-11-21T08:32:32.000Z</time>
      </trkpt>
      <trkpt lat="44.46966" lon="6.22244">
        <ele>825</ele>
        <time>2025-11-21T08:32:33.000Z</time>
      </trkpt>
      <trkpt lat="44.46966" lon="6.22244">
        <ele>824</ele>
        <time>2025-11-21T08:32:34.000Z</time>
      </trkpt>
      <trkpt lat="44.46965" lon="6.22243">
        <ele>824</ele>
        <time>2025-11-21T08:32:35.000Z</time>
      </trkpt>
      <trkpt lat="44.46965" lon="6.22242">
        <ele>824</ele>
        <time>2025-11-21T08:32:36.000Z</time>
      </trkpt>
      <trkpt lat="44.46964" lon="6.22241">
        <ele>824</ele>
        <time>2025-11-21T08:32:37.000Z</time>
      </trkpt>
      <trkpt lat="44.46965" lon="6.22241">
        <ele>824</ele>
        <time>2025-11-21T08:32:38.000Z</time>
      </trkpt>
      <trkpt lat="44.46964" lon="6.2224">
        <ele>825</ele>
        <time>2025-11-21T08:32:39.000Z</time>
      </trkpt>
      <trkpt lat="44.46964" lon="6.22239">
        <ele>825</ele>
        <time>2025-11-21T08:32:40.000Z</time>
      </trkpt>
      <trkpt lat="44.46964" lon="6.22238">
        <ele>825</ele>
        <time>2025-11-21T08:32:41.000Z</time>
      </trkpt>
      <trkpt lat="44.46965" lon="6.22238">
        <ele>824</ele>
        <time>2025-11-21T08:32:42.000Z</time>
      </trkpt>
      <trkpt lat="44.46964" lon="6.22238">
        <ele>824</ele>
        <time>2025-11-21T08:32:43.000Z</time>
      </trkpt>
      <trkpt lat="44.46964" lon="6.22238">
        <ele>824</ele>
        <time>2025-11-21T08:32:44.000Z</time>
      </trkpt>
      <trkpt lat="44.46964" lon="6.22238">
        <ele>824</ele>
        <time>2025-11-21T08:32:45.000Z</time>
      </trkpt>
      <trkpt lat="44.46963" lon="6.22238">
        <ele>823</ele>
        <time>2025-11-21T08:32:46.000Z</time>
      </trkpt>
      <trkpt lat="44.46963" lon="6.22237">
        <ele>823</ele>
        <time>2025-11-21T08:32:47.000Z</time>
      </trkpt>
      <trkpt lat="44.46963" lon="6.22237">
        <ele>823</ele>
        <time>2025-11-21T08:32:48.000Z</time>
      </trkpt>
      <trkpt lat="44.46963" lon="6.22237">
        <ele>823</ele>
        <time>2025-11-21T08:32:49.000Z</time>
      </trkpt>
      <trkpt lat="44.46962" lon="6.22237">
        <ele>824</ele>
        <time>2025-11-21T08:32:50.000Z</time>
      </trkpt>
      <trkpt lat="44.46963" lon="6.22236">
        <ele>823</ele>
        <time>2025-11-21T08:32:51.000Z</time>
      </trkpt>
      <trkpt lat="44.46962" lon="6.22235">
        <ele>822</ele>
        <time>2025-11-21T08:32:52.000Z</time>
      </trkpt>
      <trkpt lat="44.46961" lon="6.22234">
        <ele>822</ele>
        <time>2025-11-21T08:32:53.000Z</time>
      </trkpt>
      <trkpt lat="44.46961" lon="6.22234">
        <ele>822</ele>
        <time>2025-11-21T08:32:54.000Z</time>
      </trkpt>
      <trkpt lat="44.46961" lon="6.22233">
        <ele>823</ele>
        <time>2025-11-21T08:32:55.000Z</time>
      </trkpt>
      <trkpt lat="44.46961" lon="6.22232">
        <ele>823</ele>
        <time>2025-11-21T08:32:56.000Z</time>
      </trkpt>
      <trkpt lat="44.4696" lon="6.22231">
        <ele>823</ele>
        <time>2025-11-21T08:32:57.000Z</time>
      </trkpt>
      <trkpt lat="44.46959" lon="6.22229">
        <ele>823</ele>
        <time>2025-11-21T08:32:58.000Z</time>
      </trkpt>
      <trkpt lat="44.46958" lon="6.22228">
        <ele>824</ele>
        <time>2025-11-21T08:32:59.000Z</time>
      </trkpt>
      <trkpt lat="44.46958" lon="6.22228">
        <ele>824</ele>
        <time>2025-11-21T08:33:00.000Z</time>
      </trkpt>
      <trkpt lat="44.46956" lon="6.22228">
        <ele>827</ele>
        <time>2025-11-21T08:33:23.000Z</time>
      </trkpt>
      <trkpt lat="44.46956" lon="6.22228">
        <ele>828</ele>
        <time>2025-11-21T08:33:24.000Z</time>
      </trkpt>
      <trkpt lat="44.46955" lon="6.22228">
        <ele>828</ele>
        <time>2025-11-21T08:33:25.000Z</time>
      </trkpt>
      <trkpt lat="44.46953" lon="6.22226">
        <ele>826</ele>
        <time>2025-11-21T08:35:02.000Z</time>
      </trkpt>
      <trkpt lat="44.46953" lon="6.22226">
        <ele>826</ele>
        <time>2025-11-21T08:35:03.000Z</time>
      </trkpt>
      <trkpt lat="44.46953" lon="6.22226">
        <ele>826</ele>
        <time>2025-11-21T08:35:04.000Z</time>
      </trkpt>
      <trkpt lat="44.46953" lon="6.22226">
        <ele>826</ele>
        <time>2025-11-21T08:35:05.000Z</time>
      </trkpt>
      <trkpt lat="44.46953" lon="6.22226">
        <ele>826</ele>
        <time>2025-11-21T08:35:06.000Z</time>
      </trkpt>
      <trkpt lat="44.46953" lon="6.22223">
        <ele>825</ele>
        <time>2025-11-21T08:35:07.000Z</time>
      </trkpt>
      <trkpt lat="44.46954" lon="6.22222">
        <ele>824</ele>
        <time>2025-11-21T08:35:08.000Z</time>
      </trkpt>
      <trkpt lat="44.46953" lon="6.2222">
        <ele>824</ele>
        <time>2025-11-21T08:35:09.000Z</time>
      </trkpt>
      <trkpt lat="44.46953" lon="6.22219">
        <ele>825</ele>
        <time>2025-11-21T08:35:10.000Z</time>
      </trkpt>
      <trkpt lat="44.46953" lon="6.22218">
        <ele>826</ele>
        <time>2025-11-21T08:35:11.000Z</time>
      </trkpt>
      <trkpt lat="44.46953" lon="6.22218">
        <ele>826</ele>
        <time>2025-11-21T08:35:12.000Z</time>
      </trkpt>
      <trkpt lat="44.46951" lon="6.22216">
        <ele>826</ele>
        <time>2025-11-21T08:36:15.000Z</time>
      </trkpt>
      <trkpt lat="44.46952" lon="6.22216">
        <ele>826</ele>
        <time>2025-11-21T08:36:16.000Z</time>
      </trkpt>
      <trkpt lat="44.46952" lon="6.22216">
        <ele>826</ele>
        <time>2025-11-21T08:36:17.000Z</time>
      </trkpt>
      <trkpt lat="44.46956" lon="6.22208">
        <ele>827</ele>
        <time>2025-11-21T08:36:35.000Z</time>
      </trkpt>
      <trkpt lat="44.46956" lon="6.22206">
        <ele>827</ele>
        <time>2025-11-21T08:36:36.000Z</time>
      </trkpt>
      <trkpt lat="44.46956" lon="6.22204">
        <ele>827</ele>
        <time>2025-11-21T08:36:37.000Z</time>
      </trkpt>
      <trkpt lat="44.46957" lon="6.22204">
        <ele>826</ele>
        <time>2025-11-21T08:36:38.000Z</time>
      </trkpt>
      <trkpt lat="44.46957" lon="6.22203">
        <ele>826</ele>
        <time>2025-11-21T08:36:39.000Z</time>
      </trkpt>
      <trkpt lat="44.46957" lon="6.22203">
        <ele>826</ele>
        <time>2025-11-21T08:36:40.000Z</time>
      </trkpt>
      <trkpt lat="44.46957" lon="6.22202">
        <ele>826</ele>
        <time>2025-11-21T08:36:41.000Z</time>
      </trkpt>
      <trkpt lat="44.46958" lon="6.22201">
        <ele>826</ele>
        <time>2025-11-21T08:36:42.000Z</time>
      </trkpt>
      <trkpt lat="44.46959" lon="6.222">
        <ele>826</ele>
        <time>2025-11-21T08:36:43.000Z</time>
      </trkpt>
      <trkpt lat="44.4696" lon="6.222">
        <ele>826</ele>
        <time>2025-11-21T08:36:44.000Z</time>
      </trkpt>
      <trkpt lat="44.4696" lon="6.22199">
        <ele>826</ele>
        <time>2025-11-21T08:36:45.000Z</time>
      </trkpt>
      <trkpt lat="44.46961" lon="6.22199">
        <ele>827</ele>
        <time>2025-11-21T08:36:46.000Z</time>
      </trkpt>
      <trkpt lat="44.46962" lon="6.22199">
        <ele>826</ele>
        <time>2025-11-21T08:36:47.000Z</time>
      </trkpt>
      <trkpt lat="44.46963" lon="6.22199">
        <ele>827</ele>
        <time>2025-11-21T08:36:48.000Z</time>
      </trkpt>
      <trkpt lat="44.46964" lon="6.22198">
        <ele>826</ele>
        <time>2025-11-21T08:36:49.000Z</time>
      </trkpt>
      <trkpt lat="44.46964" lon="6.22197">
        <ele>826</ele>
        <time>2025-11-21T08:36:50.000Z</time>
      </trkpt>
      <trkpt lat="44.46965" lon="6.22196">
        <ele>826</ele>
        <time>2025-11-21T08:36:51.000Z</time>
      </trkpt>
      <trkpt lat="44.46965" lon="6.22195">
        <ele>826</ele>
        <time>2025-11-21T08:36:52.000Z</time>
      </trkpt>
      <trkpt lat="44.46966" lon="6.22195">
        <ele>827</ele>
        <time>2025-11-21T08:36:53.000Z</time>
      </trkpt>
      <trkpt lat="44.46966" lon="6.22194">
        <ele>827</ele>
        <time>2025-11-21T08:36:54.000Z</time>
      </trkpt>
      <trkpt lat="44.46966" lon="6.22194">
        <ele>826</ele>
        <time>2025-11-21T08:36:55.000Z</time>
      </trkpt>
      <trkpt lat="44.46967" lon="6.22193">
        <ele>826</ele>
        <time>2025-11-21T08:36:56.000Z</time>
      </trkpt>
      <trkpt lat="44.46968" lon="6.22192">
        <ele>826</ele>
        <time>2025-11-21T08:36:57.000Z</time>
      </trkpt>
      <trkpt lat="44.46968" lon="6.22192">
        <ele>826</ele>
        <time>2025-11-21T08:36:58.000Z</time>
      </trkpt>
      <trkpt lat="44.46968" lon="6.22191">
        <ele>826</ele>
        <time>2025-11-21T08:36:59.000Z</time>
      </trkpt>
      <trkpt lat="44.46969" lon="6.22189">
        <ele>826</ele>
        <time>2025-11-21T08:37:00.000Z</time>
      </trkpt>
      <trkpt lat="44.46969" lon="6.22188">
        <ele>827</ele>
        <time>2025-11-21T08:37:01.000Z</time>
      </trkpt>
      <trkpt lat="44.46969" lon="6.22188">
        <ele>827</ele>
        <time>2025-11-21T08:37:02.000Z</time>
      </trkpt>
      <trkpt lat="44.46969" lon="6.22188">
        <ele>827</ele>
        <time>2025-11-21T08:37:03.000Z</time>
      </trkpt>
      <trkpt lat="44.4697" lon="6.22186">
        <ele>827</ele>
        <time>2025-11-21T08:37:04.000Z</time>
      </trkpt>
      <trkpt lat="44.4697" lon="6.22184">
        <ele>827</ele>
        <time>2025-11-21T08:37:05.000Z</time>
      </trkpt>
      <trkpt lat="44.4697" lon="6.22183">
        <ele>827</ele>
        <time>2025-11-21T08:37:06.000Z</time>
      </trkpt>
      <trkpt lat="44.4697" lon="6.22181">
        <ele>827</ele>
        <time>2025-11-21T08:37:07.000Z</time>
      </trkpt>
      <trkpt lat="44.46969" lon="6.22179">
        <ele>827</ele>
        <time>2025-11-21T08:37:08.000Z</time>
      </trkpt>
      <trkpt lat="44.46968" lon="6.22177">
        <ele>828</ele>
        <time>2025-11-21T08:37:09.000Z</time>
      </trkpt>
      <trkpt lat="44.46967" lon="6.22175">
        <ele>828</ele>
        <time>2025-11-21T08:37:10.000Z</time>
      </trkpt>
      <trkpt lat="44.46967" lon="6.22174">
        <ele>828</ele>
        <time>2025-11-21T08:37:11.000Z</time>
      </trkpt>
      <trkpt lat="44.46967" lon="6.22174">
        <ele>828</ele>
        <time>2025-11-21T08:37:12.000Z</time>
      </trkpt>
      <trkpt lat="44.46967" lon="6.22173">
        <ele>828</ele>
        <time>2025-11-21T08:37:13.000Z</time>
      </trkpt>
      <trkpt lat="44.46967" lon="6.22173">
        <ele>828</ele>
        <time>2025-11-21T08:37:14.000Z</time>
      </trkpt>
      <trkpt lat="44.46967" lon="6.2217">
        <ele>827</ele>
        <time>2025-11-21T08:37:15.000Z</time>
      </trkpt>
      <trkpt lat="44.46967" lon="6.22168">
        <ele>826</ele>
        <time>2025-11-21T08:37:16.000Z</time>
      </trkpt>
      <trkpt lat="44.46968" lon="6.22168">
        <ele>826</ele>
        <time>2025-11-21T08:37:17.000Z</time>
      </trkpt>
      <trkpt lat="44.46968" lon="6.22168">
        <ele>826</ele>
        <time>2025-11-21T08:37:18.000Z</time>
      </trkpt>
      <trkpt lat="44.46968" lon="6.22168">
        <ele>827</ele>
        <time>2025-11-21T08:37:19.000Z</time>
      </trkpt>
      <trkpt lat="44.46968" lon="6.22167">
        <ele>827</ele>
        <time>2025-11-21T08:37:20.000Z</time>
      </trkpt>
      <trkpt lat="44.46969" lon="6.22166">
        <ele>827</ele>
        <time>2025-11-21T08:37:21.000Z</time>
      </trkpt>
      <trkpt lat="44.46969" lon="6.22164">
        <ele>827</ele>
        <time>2025-11-21T08:37:22.000Z</time>
      </trkpt>
      <trkpt lat="44.46969" lon="6.22164">
        <ele>827</ele>
        <time>2025-11-21T08:37:23.000Z</time>
      </trkpt>
      <trkpt lat="44.46969" lon="6.22164">
        <ele>827</ele>
        <time>2025-11-21T08:37:24.000Z</time>
      </trkpt>
      <trkpt lat="44.46971" lon="6.22161">
        <ele>827</ele>
        <time>2025-11-21T08:37:25.000Z</time>
      </trkpt>
      <trkpt lat="44.46972" lon="6.22159">
        <ele>827</ele>
        <time>2025-11-21T08:37:26.000Z</time>
      </trkpt>
      <trkpt lat="44.46972" lon="6.22158">
        <ele>827</ele>
        <time>2025-11-21T08:37:27.000Z</time>
      </trkpt>
      <trkpt lat="44.46973" lon="6.22157">
        <ele>827</ele>
        <time>2025-11-21T08:37:28.000Z</time>
      </trkpt>
      <trkpt lat="44.46974" lon="6.22156">
        <ele>827</ele>
        <time>2025-11-21T08:37:29.000Z</time>
      </trkpt>
      <trkpt lat="44.46975" lon="6.22155">
        <ele>828</ele>
        <time>2025-11-21T08:37:30.000Z</time>
      </trkpt>
      <trkpt lat="44.46975" lon="6.22155">
        <ele>828</ele>
        <time>2025-11-21T08:37:31.000Z</time>
      </trkpt>
      <trkpt lat="44.46976" lon="6.22154">
        <ele>828</ele>
        <time>2025-11-21T08:37:32.000Z</time>
      </trkpt>
      <trkpt lat="44.46976" lon="6.22154">
        <ele>828</ele>
        <time>2025-11-21T08:37:33.000Z</time>
      </trkpt>
      <trkpt lat="44.46976" lon="6.22154">
        <ele>828</ele>
        <time>2025-11-21T08:37:34.000Z</time>
      </trkpt>
      <trkpt lat="44.46975" lon="6.22151">
        <ele>828</ele>
        <time>2025-11-21T08:37:35.000Z</time>
      </trkpt>
      <trkpt lat="44.46975" lon="6.2215">
        <ele>828</ele>
        <time>2025-11-21T08:37:36.000Z</time>
      </trkpt>
      <trkpt lat="44.46975" lon="6.22149">
        <ele>828</ele>
        <time>2025-11-21T08:37:37.000Z</time>
      </trkpt>
      <trkpt lat="44.46975" lon="6.22147">
        <ele>828</ele>
        <time>2025-11-21T08:37:38.000Z</time>
      </trkpt>
      <trkpt lat="44.46975" lon="6.22146">
        <ele>828</ele>
        <time>2025-11-21T08:37:39.000Z</time>
      </trkpt>
      <trkpt lat="44.46975" lon="6.22145">
        <ele>828</ele>
        <time>2025-11-21T08:37:40.000Z</time>
      </trkpt>
      <trkpt lat="44.46974" lon="6.22144">
        <ele>828</ele>
        <time>2025-11-21T08:37:41.000Z</time>
      </trkpt>
      <trkpt lat="44.46974" lon="6.22144">
        <ele>828</ele>
        <time>2025-11-21T08:37:42.000Z</time>
      </trkpt>
      <trkpt lat="44.46974" lon="6.22143">
        <ele>828</ele>
        <time>2025-11-21T08:37:43.000Z</time>
      </trkpt>
      <trkpt lat="44.46974" lon="6.22142">
        <ele>828</ele>
        <time>2025-11-21T08:37:44.000Z</time>
      </trkpt>
      <trkpt lat="44.46974" lon="6.22142">
        <ele>828</ele>
        <time>2025-11-21T08:37:45.000Z</time>
      </trkpt>
      <trkpt lat="44.46974" lon="6.22142">
        <ele>828</ele>
        <time>2025-11-21T08:37:46.000Z</time>
      </trkpt>
      <trkpt lat="44.46972" lon="6.2214">
        <ele>828</ele>
        <time>2025-11-21T08:37:47.000Z</time>
      </trkpt>
      <trkpt lat="44.46971" lon="6.22139">
        <ele>829</ele>
        <time>2025-11-21T08:37:48.000Z</time>
      </trkpt>
      <trkpt lat="44.4697" lon="6.22137">
        <ele>829</ele>
        <time>2025-11-21T08:37:49.000Z</time>
      </trkpt>
      <trkpt lat="44.46969" lon="6.22135">
        <ele>829</ele>
        <time>2025-11-21T08:37:50.000Z</time>
      </trkpt>
      <trkpt lat="44.46969" lon="6.22134">
        <ele>829</ele>
        <time>2025-11-21T08:37:51.000Z</time>
      </trkpt>
      <trkpt lat="44.46968" lon="6.22133">
        <ele>830</ele>
        <time>2025-11-21T08:37:52.000Z</time>
      </trkpt>
      <trkpt lat="44.46968" lon="6.22132">
        <ele>830</ele>
        <time>2025-11-21T08:37:53.000Z</time>
      </trkpt>
      <trkpt lat="44.46967" lon="6.22131">
        <ele>830</ele>
        <time>2025-11-21T08:37:54.000Z</time>
      </trkpt>
      <trkpt lat="44.46966" lon="6.2213">
        <ele>831</ele>
        <time>2025-11-21T08:37:55.000Z</time>
      </trkpt>
      <trkpt lat="44.46965" lon="6.2213">
        <ele>831</ele>
        <time>2025-11-21T08:37:56.000Z</time>
      </trkpt>
      <trkpt lat="44.46965" lon="6.22128">
        <ele>831</ele>
        <time>2025-11-21T08:37:57.000Z</time>
      </trkpt>
      <trkpt lat="44.46964" lon="6.22127">
        <ele>831</ele>
        <time>2025-11-21T08:37:58.000Z</time>
      </trkpt>
      <trkpt lat="44.46962" lon="6.22125">
        <ele>832</ele>
        <time>2025-11-21T08:37:59.000Z</time>
      </trkpt>
      <trkpt lat="44.46962" lon="6.22124">
        <ele>832</ele>
        <time>2025-11-21T08:38:00.000Z</time>
      </trkpt>
      <trkpt lat="44.46961" lon="6.22122">
        <ele>832</ele>
        <time>2025-11-21T08:38:01.000Z</time>
      </trkpt>
      <trkpt lat="44.46961" lon="6.22121">
        <ele>832</ele>
        <time>2025-11-21T08:38:02.000Z</time>
      </trkpt>
      <trkpt lat="44.4696" lon="6.2212">
        <ele>833</ele>
        <time>2025-11-21T08:38:03.000Z</time>
      </trkpt>
      <trkpt lat="44.4696" lon="6.22119">
        <ele>832</ele>
        <time>2025-11-21T08:38:04.000Z</time>
      </trkpt>
      <trkpt lat="44.4696" lon="6.22119">
        <ele>832</ele>
        <time>2025-11-21T08:38:05.000Z</time>
      </trkpt>
      <trkpt lat="44.46959" lon="6.22115">
        <ele>832</ele>
        <time>2025-11-21T08:38:06.000Z</time>
      </trkpt>
      <trkpt lat="44.46958" lon="6.22113">
        <ele>832</ele>
        <time>2025-11-21T08:38:07.000Z</time>
      </trkpt>
      <trkpt lat="44.46958" lon="6.22112">
        <ele>832</ele>
        <time>2025-11-21T08:38:08.000Z</time>
      </trkpt>
      <trkpt lat="44.46958" lon="6.2211">
        <ele>833</ele>
        <time>2025-11-21T08:38:09.000Z</time>
      </trkpt>
      <trkpt lat="44.46958" lon="6.22109">
        <ele>833</ele>
        <time>2025-11-21T08:38:10.000Z</time>
      </trkpt>
      <trkpt lat="44.46958" lon="6.22107">
        <ele>833</ele>
        <time>2025-11-21T08:38:11.000Z</time>
      </trkpt>
      <trkpt lat="44.46958" lon="6.22106">
        <ele>832</ele>
        <time>2025-11-21T08:38:12.000Z</time>
      </trkpt>
      <trkpt lat="44.46957" lon="6.22105">
        <ele>833</ele>
        <time>2025-11-21T08:38:13.000Z</time>
      </trkpt>
      <trkpt lat="44.46958" lon="6.22103">
        <ele>832</ele>
        <time>2025-11-21T08:38:14.000Z</time>
      </trkpt>
      <trkpt lat="44.46958" lon="6.22101">
        <ele>832</ele>
        <time>2025-11-21T08:38:15.000Z</time>
      </trkpt>
      <trkpt lat="44.46958" lon="6.22099">
        <ele>831</ele>
        <time>2025-11-21T08:38:16.000Z</time>
      </trkpt>
      <trkpt lat="44.46957" lon="6.22097">
        <ele>831</ele>
        <time>2025-11-21T08:38:17.000Z</time>
      </trkpt>
      <trkpt lat="44.46957" lon="6.22097">
        <ele>831</ele>
        <time>2025-11-21T08:38:18.000Z</time>
      </trkpt>
      <trkpt lat="44.46957" lon="6.22095">
        <ele>831</ele>
        <time>2025-11-21T08:38:19.000Z</time>
      </trkpt>
      <trkpt lat="44.46957" lon="6.22094">
        <ele>831</ele>
        <time>2025-11-21T08:38:20.000Z</time>
      </trkpt>
      <trkpt lat="44.46956" lon="6.22092">
        <ele>830</ele>
        <time>2025-11-21T08:38:21.000Z</time>
      </trkpt>
      <trkpt lat="44.46955" lon="6.22091">
        <ele>830</ele>
        <time>2025-11-21T08:38:22.000Z</time>
      </trkpt>
      <trkpt lat="44.46955" lon="6.22089">
        <ele>830</ele>
        <time>2025-11-21T08:38:23.000Z</time>
      </trkpt>
      <trkpt lat="44.46954" lon="6.22087">
        <ele>829</ele>
        <time>2025-11-21T08:38:24.000Z</time>
      </trkpt>
      <trkpt lat="44.46954" lon="6.22085">
        <ele>829</ele>
        <time>2025-11-21T08:38:25.000Z</time>
      </trkpt>
      <trkpt lat="44.46954" lon="6.22084">
        <ele>829</ele>
        <time>2025-11-21T08:38:26.000Z</time>
      </trkpt>
      <trkpt lat="44.46954" lon="6.22082">
        <ele>829</ele>
        <time>2025-11-21T08:38:27.000Z</time>
      </trkpt>
      <trkpt lat="44.46954" lon="6.22081">
        <ele>829</ele>
        <time>2025-11-21T08:38:28.000Z</time>
      </trkpt>
      <trkpt lat="44.46954" lon="6.2208">
        <ele>828</ele>
        <time>2025-11-21T08:38:29.000Z</time>
      </trkpt>
      <trkpt lat="44.46954" lon="6.22078">
        <ele>828</ele>
        <time>2025-11-21T08:38:30.000Z</time>
      </trkpt>
      <trkpt lat="44.46955" lon="6.22076">
        <ele>827</ele>
        <time>2025-11-21T08:38:31.000Z</time>
      </trkpt>
      <trkpt lat="44.46955" lon="6.22075">
        <ele>827</ele>
        <time>2025-11-21T08:38:32.000Z</time>
      </trkpt>
      <trkpt lat="44.46955" lon="6.22073">
        <ele>827</ele>
        <time>2025-11-21T08:38:33.000Z</time>
      </trkpt>
      <trkpt lat="44.46956" lon="6.22072">
        <ele>827</ele>
        <time>2025-11-21T08:38:34.000Z</time>
      </trkpt>
      <trkpt lat="44.46957" lon="6.22071">
        <ele>827</ele>
        <time>2025-11-21T08:38:35.000Z</time>
      </trkpt>
      <trkpt lat="44.46957" lon="6.2207">
        <ele>827</ele>
        <time>2025-11-21T08:38:36.000Z</time>
      </trkpt>
      <trkpt lat="44.46958" lon="6.22069">
        <ele>827</ele>
        <time>2025-11-21T08:38:37.000Z</time>
      </trkpt>
      <trkpt lat="44.46959" lon="6.22069">
        <ele>827</ele>
        <time>2025-11-21T08:38:38.000Z</time>
      </trkpt>
      <trkpt lat="44.4696" lon="6.22068">
        <ele>827</ele>
        <time>2025-11-21T08:38:39.000Z</time>
      </trkpt>
      <trkpt lat="44.4696" lon="6.22067">
        <ele>827</ele>
        <time>2025-11-21T08:38:40.000Z</time>
      </trkpt>
      <trkpt lat="44.4696" lon="6.22065">
        <ele>827</ele>
        <time>2025-11-21T08:38:41.000Z</time>
      </trkpt>
      <trkpt lat="44.4696" lon="6.22063">
        <ele>827</ele>
        <time>2025-11-21T08:38:42.000Z</time>
      </trkpt>
      <trkpt lat="44.46961" lon="6.22062">
        <ele>827</ele>
        <time>2025-11-21T08:38:43.000Z</time>
      </trkpt>
      <trkpt lat="44.46961" lon="6.22061">
        <ele>827</ele>
        <time>2025-11-21T08:38:44.000Z</time>
      </trkpt>
      <trkpt lat="44.46961" lon="6.22059">
        <ele>826</ele>
        <time>2025-11-21T08:38:45.000Z</time>
      </trkpt>
      <trkpt lat="44.46961" lon="6.22058">
        <ele>826</ele>
        <time>2025-11-21T08:38:46.000Z</time>
      </trkpt>
      <trkpt lat="44.46962" lon="6.22056">
        <ele>826</ele>
        <time>2025-11-21T08:38:47.000Z</time>
      </trkpt>
      <trkpt lat="44.46961" lon="6.22055">
        <ele>827</ele>
        <time>2025-11-21T08:38:48.000Z</time>
      </trkpt>
      <trkpt lat="44.46961" lon="6.22054">
        <ele>827</ele>
        <time>2025-11-21T08:38:49.000Z</time>
      </trkpt>
      <trkpt lat="44.46962" lon="6.22054">
        <ele>827</ele>
        <time>2025-11-21T08:38:50.000Z</time>
      </trkpt>
      <trkpt lat="44.46961" lon="6.22053">
        <ele>827</ele>
        <time>2025-11-21T08:38:51.000Z</time>
      </trkpt>
      <trkpt lat="44.46961" lon="6.22051">
        <ele>827</ele>
        <time>2025-11-21T08:38:52.000Z</time>
      </trkpt>
      <trkpt lat="44.46961" lon="6.22049">
        <ele>827</ele>
        <time>2025-11-21T08:38:53.000Z</time>
      </trkpt>
      <trkpt lat="44.46961" lon="6.22048">
        <ele>827</ele>
        <time>2025-11-21T08:38:54.000Z</time>
      </trkpt>
      <trkpt lat="44.46961" lon="6.22047">
        <ele>827</ele>
        <time>2025-11-21T08:38:55.000Z</time>
      </trkpt>
      <trkpt lat="44.46961" lon="6.22045">
        <ele>828</ele>
        <time>2025-11-21T08:38:56.000Z</time>
      </trkpt>
      <trkpt lat="44.46962" lon="6.22044">
        <ele>828</ele>
        <time>2025-11-21T08:38:57.000Z</time>
      </trkpt>
      <trkpt lat="44.46962" lon="6.22044">
        <ele>827</ele>
        <time>2025-11-21T08:38:58.000Z</time>
      </trkpt>
      <trkpt lat="44.46962" lon="6.22043">
        <ele>827</ele>
        <time>2025-11-21T08:38:59.000Z</time>
      </trkpt>
      <trkpt lat="44.46962" lon="6.22041">
        <ele>827</ele>
        <time>2025-11-21T08:39:00.000Z</time>
      </trkpt>
      <trkpt lat="44.46961" lon="6.22041">
        <ele>827</ele>
        <time>2025-11-21T08:39:01.000Z</time>
      </trkpt>
      <trkpt lat="44.4696" lon="6.22039">
        <ele>827</ele>
        <time>2025-11-21T08:39:02.000Z</time>
      </trkpt>
      <trkpt lat="44.4696" lon="6.22038">
        <ele>828</ele>
        <time>2025-11-21T08:39:03.000Z</time>
      </trkpt>
      <trkpt lat="44.46958" lon="6.22037">
        <ele>827</ele>
        <time>2025-11-21T08:39:04.000Z</time>
      </trkpt>
      <trkpt lat="44.46957" lon="6.22037">
        <ele>828</ele>
        <time>2025-11-21T08:39:05.000Z</time>
      </trkpt>
      <trkpt lat="44.46956" lon="6.22037">
        <ele>829</ele>
        <time>2025-11-21T08:39:06.000Z</time>
      </trkpt>
      <trkpt lat="44.46956" lon="6.22037">
        <ele>829</ele>
        <time>2025-11-21T08:39:07.000Z</time>
      </trkpt>
      <trkpt lat="44.46955" lon="6.22036">
        <ele>830</ele>
        <time>2025-11-21T08:39:08.000Z</time>
      </trkpt>
      <trkpt lat="44.46954" lon="6.22035">
        <ele>830</ele>
        <time>2025-11-21T08:39:09.000Z</time>
      </trkpt>
      <trkpt lat="44.46953" lon="6.22035">
        <ele>830</ele>
        <time>2025-11-21T08:39:10.000Z</time>
      </trkpt>
      <trkpt lat="44.46951" lon="6.22034">
        <ele>830</ele>
        <time>2025-11-21T08:39:11.000Z</time>
      </trkpt>
      <trkpt lat="44.4695" lon="6.22033">
        <ele>830</ele>
        <time>2025-11-21T08:39:12.000Z</time>
      </trkpt>
      <trkpt lat="44.46949" lon="6.22031">
        <ele>830</ele>
        <time>2025-11-21T08:39:13.000Z</time>
      </trkpt>
      <trkpt lat="44.46948" lon="6.22029">
        <ele>830</ele>
        <time>2025-11-21T08:39:14.000Z</time>
      </trkpt>
      <trkpt lat="44.46947" lon="6.22027">
        <ele>830</ele>
        <time>2025-11-21T08:39:15.000Z</time>
      </trkpt>
      <trkpt lat="44.46946" lon="6.22026">
        <ele>829</ele>
        <time>2025-11-21T08:39:16.000Z</time>
      </trkpt>
      <trkpt lat="44.46946" lon="6.22024">
        <ele>829</ele>
        <time>2025-11-21T08:39:17.000Z</time>
      </trkpt>
      <trkpt lat="44.46946" lon="6.22023">
        <ele>829</ele>
        <time>2025-11-21T08:39:18.000Z</time>
      </trkpt>
      <trkpt lat="44.46946" lon="6.22021">
        <ele>829</ele>
        <time>2025-11-21T08:39:19.000Z</time>
      </trkpt>
      <trkpt lat="44.46946" lon="6.22019">
        <ele>829</ele>
        <time>2025-11-21T08:39:20.000Z</time>
      </trkpt>
      <trkpt lat="44.46946" lon="6.22018">
        <ele>830</ele>
        <time>2025-11-21T08:39:21.000Z</time>
      </trkpt>
      <trkpt lat="44.46946" lon="6.22016">
        <ele>830</ele>
        <time>2025-11-21T08:39:22.000Z</time>
      </trkpt>
      <trkpt lat="44.46946" lon="6.22015">
        <ele>830</ele>
        <time>2025-11-21T08:39:23.000Z</time>
      </trkpt>
      <trkpt lat="44.46946" lon="6.22013">
        <ele>831</ele>
        <time>2025-11-21T08:39:24.000Z</time>
      </trkpt>
      <trkpt lat="44.46946" lon="6.22013">
        <ele>831</ele>
        <time>2025-11-21T08:39:25.000Z</time>
      </trkpt>
      <trkpt lat="44.46947" lon="6.22011">
        <ele>831</ele>
        <time>2025-11-21T08:39:26.000Z</time>
      </trkpt>
      <trkpt lat="44.46948" lon="6.22009">
        <ele>830</ele>
        <time>2025-11-21T08:39:27.000Z</time>
      </trkpt>
      <trkpt lat="44.46948" lon="6.22009">
        <ele>830</ele>
        <time>2025-11-21T08:39:28.000Z</time>
      </trkpt>
      <trkpt lat="44.46948" lon="6.22009">
        <ele>831</ele>
        <time>2025-11-21T08:39:29.000Z</time>
      </trkpt>
      <trkpt lat="44.46948" lon="6.22008">
        <ele>831</ele>
        <time>2025-11-21T08:39:30.000Z</time>
      </trkpt>
      <trkpt lat="44.46948" lon="6.22007">
        <ele>831</ele>
        <time>2025-11-21T08:39:31.000Z</time>
      </trkpt>
      <trkpt lat="44.46948" lon="6.22005">
        <ele>832</ele>
        <time>2025-11-21T08:39:32.000Z</time>
      </trkpt>
      <trkpt lat="44.46947" lon="6.22004">
        <ele>832</ele>
        <time>2025-11-21T08:39:33.000Z</time>
      </trkpt>
      <trkpt lat="44.46947" lon="6.22002">
        <ele>831</ele>
        <time>2025-11-21T08:39:34.000Z</time>
      </trkpt>
      <trkpt lat="44.46947" lon="6.22001">
        <ele>831</ele>
        <time>2025-11-21T08:39:35.000Z</time>
      </trkpt>
      <trkpt lat="44.46946" lon="6.22">
        <ele>831</ele>
        <time>2025-11-21T08:39:36.000Z</time>
      </trkpt>
      <trkpt lat="44.46946" lon="6.21999">
        <ele>831</ele>
        <time>2025-11-21T08:39:37.000Z</time>
      </trkpt>
      <trkpt lat="44.46946" lon="6.21997">
        <ele>831</ele>
        <time>2025-11-21T08:39:38.000Z</time>
      </trkpt>
      <trkpt lat="44.46945" lon="6.21996">
        <ele>833</ele>
        <time>2025-11-21T08:39:39.000Z</time>
      </trkpt>
      <trkpt lat="44.46944" lon="6.21995">
        <ele>834</ele>
        <time>2025-11-21T08:39:40.000Z</time>
      </trkpt>
      <trkpt lat="44.46944" lon="6.21994">
        <ele>834</ele>
        <time>2025-11-21T08:39:41.000Z</time>
      </trkpt>
      <trkpt lat="44.46943" lon="6.21992">
        <ele>835</ele>
        <time>2025-11-21T08:39:42.000Z</time>
      </trkpt>
      <trkpt lat="44.46944" lon="6.21991">
        <ele>835</ele>
        <time>2025-11-21T08:39:43.000Z</time>
      </trkpt>
      <trkpt lat="44.46944" lon="6.21989">
        <ele>835</ele>
        <time>2025-11-21T08:39:44.000Z</time>
      </trkpt>
      <trkpt lat="44.46944" lon="6.21989">
        <ele>835</ele>
        <time>2025-11-21T08:39:45.000Z</time>
      </trkpt>
      <trkpt lat="44.46944" lon="6.21988">
        <ele>835</ele>
        <time>2025-11-21T08:39:46.000Z</time>
      </trkpt>
      <trkpt lat="44.46944" lon="6.21986">
        <ele>835</ele>
        <time>2025-11-21T08:39:47.000Z</time>
      </trkpt>
      <trkpt lat="44.46944" lon="6.21985">
        <ele>835</ele>
        <time>2025-11-21T08:39:48.000Z</time>
      </trkpt>
      <trkpt lat="44.46944" lon="6.21984">
        <ele>835</ele>
        <time>2025-11-21T08:39:49.000Z</time>
      </trkpt>
      <trkpt lat="44.46943" lon="6.21983">
        <ele>835</ele>
        <time>2025-11-21T08:39:50.000Z</time>
      </trkpt>
      <trkpt lat="44.46944" lon="6.21981">
        <ele>836</ele>
        <time>2025-11-21T08:39:51.000Z</time>
      </trkpt>
      <trkpt lat="44.46944" lon="6.21979">
        <ele>835</ele>
        <time>2025-11-21T08:39:52.000Z</time>
      </trkpt>
      <trkpt lat="44.46944" lon="6.21978">
        <ele>836</ele>
        <time>2025-11-21T08:39:53.000Z</time>
      </trkpt>
      <trkpt lat="44.46943" lon="6.21976">
        <ele>835</ele>
        <time>2025-11-21T08:39:54.000Z</time>
      </trkpt>
      <trkpt lat="44.46943" lon="6.21975">
        <ele>835</ele>
        <time>2025-11-21T08:39:55.000Z</time>
      </trkpt>
      <trkpt lat="44.46943" lon="6.21974">
        <ele>835</ele>
        <time>2025-11-21T08:39:56.000Z</time>
      </trkpt>
      <trkpt lat="44.46943" lon="6.21972">
        <ele>835</ele>
        <time>2025-11-21T08:39:57.000Z</time>
      </trkpt>
      <trkpt lat="44.46944" lon="6.21971">
        <ele>835</ele>
        <time>2025-11-21T08:39:58.000Z</time>
      </trkpt>
      <trkpt lat="44.46944" lon="6.2197">
        <ele>834</ele>
        <time>2025-11-21T08:39:59.000Z</time>
      </trkpt>
      <trkpt lat="44.46944" lon="6.21968">
        <ele>834</ele>
        <time>2025-11-21T08:40:00.000Z</time>
      </trkpt>
      <trkpt lat="44.46944" lon="6.21967">
        <ele>834</ele>
        <time>2025-11-21T08:40:01.000Z</time>
      </trkpt>
      <trkpt lat="44.46945" lon="6.21966">
        <ele>834</ele>
        <time>2025-11-21T08:40:02.000Z</time>
      </trkpt>
      <trkpt lat="44.46945" lon="6.21965">
        <ele>834</ele>
        <time>2025-11-21T08:40:03.000Z</time>
      </trkpt>
      <trkpt lat="44.46945" lon="6.21964">
        <ele>834</ele>
        <time>2025-11-21T08:40:04.000Z</time>
      </trkpt>
      <trkpt lat="44.46946" lon="6.21962">
        <ele>834</ele>
        <time>2025-11-21T08:40:05.000Z</time>
      </trkpt>
      <trkpt lat="44.46947" lon="6.21961">
        <ele>833</ele>
        <time>2025-11-21T08:40:06.000Z</time>
      </trkpt>
      <trkpt lat="44.46947" lon="6.21959">
        <ele>833</ele>
        <time>2025-11-21T08:40:07.000Z</time>
      </trkpt>
      <trkpt lat="44.46948" lon="6.21958">
        <ele>832</ele>
        <time>2025-11-21T08:40:08.000Z</time>
      </trkpt>
      <trkpt lat="44.46948" lon="6.21957">
        <ele>832</ele>
        <time>2025-11-21T08:40:09.000Z</time>
      </trkpt>
      <trkpt lat="44.46948" lon="6.21956">
        <ele>832</ele>
        <time>2025-11-21T08:40:10.000Z</time>
      </trkpt>
      <trkpt lat="44.46948" lon="6.21955">
        <ele>831</ele>
        <time>2025-11-21T08:40:11.000Z</time>
      </trkpt>
      <trkpt lat="44.46948" lon="6.21954">
        <ele>831</ele>
        <time>2025-11-21T08:40:12.000Z</time>
      </trkpt>
      <trkpt lat="44.46949" lon="6.21953">
        <ele>831</ele>
        <time>2025-11-21T08:40:13.000Z</time>
      </trkpt>
      <trkpt lat="44.46949" lon="6.21952">
        <ele>831</ele>
        <time>2025-11-21T08:40:14.000Z</time>
      </trkpt>
      <trkpt lat="44.46949" lon="6.21951">
        <ele>831</ele>
        <time>2025-11-21T08:40:15.000Z</time>
      </trkpt>
      <trkpt lat="44.46949" lon="6.21949">
        <ele>831</ele>
        <time>2025-11-21T08:40:16.000Z</time>
      </trkpt>
      <trkpt lat="44.4695" lon="6.21948">
        <ele>831</ele>
        <time>2025-11-21T08:40:17.000Z</time>
      </trkpt>
      <trkpt lat="44.4695" lon="6.21947">
        <ele>831</ele>
        <time>2025-11-21T08:40:18.000Z</time>
      </trkpt>
      <trkpt lat="44.4695" lon="6.21946">
        <ele>831</ele>
        <time>2025-11-21T08:40:19.000Z</time>
      </trkpt>
      <trkpt lat="44.46951" lon="6.21945">
        <ele>831</ele>
        <time>2025-11-21T08:40:20.000Z</time>
      </trkpt>
      <trkpt lat="44.4695" lon="6.21943">
        <ele>831</ele>
        <time>2025-11-21T08:40:21.000Z</time>
      </trkpt>
      <trkpt lat="44.4695" lon="6.21942">
        <ele>831</ele>
        <time>2025-11-21T08:40:22.000Z</time>
      </trkpt>
      <trkpt lat="44.4695" lon="6.2194">
        <ele>831</ele>
        <time>2025-11-21T08:40:23.000Z</time>
      </trkpt>
      <trkpt lat="44.4695" lon="6.21938">
        <ele>831</ele>
        <time>2025-11-21T08:40:24.000Z</time>
      </trkpt>
      <trkpt lat="44.46951" lon="6.21937">
        <ele>831</ele>
        <time>2025-11-21T08:40:25.000Z</time>
      </trkpt>
      <trkpt lat="44.46951" lon="6.21935">
        <ele>831</ele>
        <time>2025-11-21T08:40:26.000Z</time>
      </trkpt>
      <trkpt lat="44.46951" lon="6.21933">
        <ele>831</ele>
        <time>2025-11-21T08:40:27.000Z</time>
      </trkpt>
      <trkpt lat="44.46951" lon="6.21932">
        <ele>831</ele>
        <time>2025-11-21T08:40:28.000Z</time>
      </trkpt>
      <trkpt lat="44.46951" lon="6.21931">
        <ele>831</ele>
        <time>2025-11-21T08:40:29.000Z</time>
      </trkpt>
      <trkpt lat="44.46951" lon="6.21929">
        <ele>831</ele>
        <time>2025-11-21T08:40:30.000Z</time>
      </trkpt>
      <trkpt lat="44.46951" lon="6.21927">
        <ele>831</ele>
        <time>2025-11-21T08:40:31.000Z</time>
      </trkpt>
      <trkpt lat="44.46951" lon="6.21926">
        <ele>832</ele>
        <time>2025-11-21T08:40:32.000Z</time>
      </trkpt>
      <trkpt lat="44.46951" lon="6.21924">
        <ele>832</ele>
        <time>2025-11-21T08:40:33.000Z</time>
      </trkpt>
      <trkpt lat="44.46951" lon="6.21923">
        <ele>832</ele>
        <time>2025-11-21T08:40:34.000Z</time>
      </trkpt>
      <trkpt lat="44.46951" lon="6.21922">
        <ele>832</ele>
        <time>2025-11-21T08:40:35.000Z</time>
      </trkpt>
      <trkpt lat="44.46951" lon="6.21921">
        <ele>832</ele>
        <time>2025-11-21T08:40:36.000Z</time>
      </trkpt>
      <trkpt lat="44.46951" lon="6.21919">
        <ele>832</ele>
        <time>2025-11-21T08:40:37.000Z</time>
      </trkpt>
      <trkpt lat="44.46951" lon="6.21917">
        <ele>832</ele>
        <time>2025-11-21T08:40:38.000Z</time>
      </trkpt>
      <trkpt lat="44.46952" lon="6.21916">
        <ele>831</ele>
        <time>2025-11-21T08:40:39.000Z</time>
      </trkpt>
      <trkpt lat="44.46952" lon="6.21914">
        <ele>832</ele>
        <time>2025-11-21T08:40:40.000Z</time>
      </trkpt>
      <trkpt lat="44.46952" lon="6.21912">
        <ele>832</ele>
        <time>2025-11-21T08:40:41.000Z</time>
      </trkpt>
      <trkpt lat="44.46953" lon="6.2191">
        <ele>833</ele>
        <time>2025-11-21T08:40:42.000Z</time>
      </trkpt>
      <trkpt lat="44.46953" lon="6.21909">
        <ele>833</ele>
        <time>2025-11-21T08:40:43.000Z</time>
      </trkpt>
      <trkpt lat="44.46953" lon="6.21907">
        <ele>834</ele>
        <time>2025-11-21T08:40:44.000Z</time>
      </trkpt>
      <trkpt lat="44.46953" lon="6.21906">
        <ele>834</ele>
        <time>2025-11-21T08:40:45.000Z</time>
      </trkpt>
      <trkpt lat="44.46954" lon="6.21904">
        <ele>834</ele>
        <time>2025-11-21T08:40:46.000Z</time>
      </trkpt>
      <trkpt lat="44.46954" lon="6.21904">
        <ele>834</ele>
        <time>2025-11-21T08:40:47.000Z</time>
      </trkpt>
      <trkpt lat="44.46955" lon="6.21902">
        <ele>834</ele>
        <time>2025-11-21T08:40:48.000Z</time>
      </trkpt>
      <trkpt lat="44.46955" lon="6.21901">
        <ele>835</ele>
        <time>2025-11-21T08:40:49.000Z</time>
      </trkpt>
      <trkpt lat="44.46956" lon="6.219">
        <ele>835</ele>
        <time>2025-11-21T08:40:50.000Z</time>
      </trkpt>
      <trkpt lat="44.46957" lon="6.219">
        <ele>836</ele>
        <time>2025-11-21T08:40:51.000Z</time>
      </trkpt>
      <trkpt lat="44.46958" lon="6.21899">
        <ele>836</ele>
        <time>2025-11-21T08:40:52.000Z</time>
      </trkpt>
      <trkpt lat="44.46958" lon="6.21898">
        <ele>836</ele>
        <time>2025-11-21T08:40:53.000Z</time>
      </trkpt>
      <trkpt lat="44.46959" lon="6.21897">
        <ele>836</ele>
        <time>2025-11-21T08:40:54.000Z</time>
      </trkpt>
      <trkpt lat="44.4696" lon="6.21896">
        <ele>836</ele>
        <time>2025-11-21T08:40:55.000Z</time>
      </trkpt>
      <trkpt lat="44.46961" lon="6.21895">
        <ele>836</ele>
        <time>2025-11-21T08:40:56.000Z</time>
      </trkpt>
      <trkpt lat="44.46963" lon="6.21893">
        <ele>836</ele>
        <time>2025-11-21T08:40:57.000Z</time>
      </trkpt>
      <trkpt lat="44.46963" lon="6.21891">
        <ele>837</ele>
        <time>2025-11-21T08:40:58.000Z</time>
      </trkpt>
      <trkpt lat="44.46964" lon="6.2189">
        <ele>837</ele>
        <time>2025-11-21T08:40:59.000Z</time>
      </trkpt>
      <trkpt lat="44.46964" lon="6.21889">
        <ele>837</ele>
        <time>2025-11-21T08:41:00.000Z</time>
      </trkpt>
      <trkpt lat="44.46964" lon="6.21888">
        <ele>836</ele>
        <time>2025-11-21T08:41:01.000Z</time>
      </trkpt>
      <trkpt lat="44.46964" lon="6.21886">
        <ele>836</ele>
        <time>2025-11-21T08:41:02.000Z</time>
      </trkpt>
      <trkpt lat="44.46964" lon="6.21884">
        <ele>836</ele>
        <time>2025-11-21T08:41:03.000Z</time>
      </trkpt>
      <trkpt lat="44.46965" lon="6.21883">
        <ele>837</ele>
        <time>2025-11-21T08:41:04.000Z</time>
      </trkpt>
      <trkpt lat="44.46965" lon="6.21882">
        <ele>837</ele>
        <time>2025-11-21T08:41:05.000Z</time>
      </trkpt>
      <trkpt lat="44.46965" lon="6.21881">
        <ele>837</ele>
        <time>2025-11-21T08:41:06.000Z</time>
      </trkpt>
      <trkpt lat="44.46965" lon="6.21879">
        <ele>837</ele>
        <time>2025-11-21T08:41:07.000Z</time>
      </trkpt>
      <trkpt lat="44.46965" lon="6.21879">
        <ele>838</ele>
        <time>2025-11-21T08:41:08.000Z</time>
      </trkpt>
      <trkpt lat="44.46965" lon="6.21877">
        <ele>839</ele>
        <time>2025-11-21T08:41:09.000Z</time>
      </trkpt>
      <trkpt lat="44.46965" lon="6.21876">
        <ele>839</ele>
        <time>2025-11-21T08:41:10.000Z</time>
      </trkpt>
      <trkpt lat="44.46964" lon="6.21875">
        <ele>840</ele>
        <time>2025-11-21T08:41:11.000Z</time>
      </trkpt>
      <trkpt lat="44.46964" lon="6.21873">
        <ele>840</ele>
        <time>2025-11-21T08:41:12.000Z</time>
      </trkpt>
      <trkpt lat="44.46965" lon="6.21871">
        <ele>840</ele>
        <time>2025-11-21T08:41:13.000Z</time>
      </trkpt>
      <trkpt lat="44.46965" lon="6.21869">
        <ele>840</ele>
        <time>2025-11-21T08:41:14.000Z</time>
      </trkpt>
      <trkpt lat="44.46967" lon="6.21866">
        <ele>840</ele>
        <time>2025-11-21T08:41:15.000Z</time>
      </trkpt>
      <trkpt lat="44.46967" lon="6.21863">
        <ele>840</ele>
        <time>2025-11-21T08:41:16.000Z</time>
      </trkpt>
      <trkpt lat="44.46968" lon="6.21863">
        <ele>841</ele>
        <time>2025-11-21T08:41:17.000Z</time>
      </trkpt>
      <trkpt lat="44.46968" lon="6.21863">
        <ele>842</ele>
        <time>2025-11-21T08:41:18.000Z</time>
      </trkpt>
      <trkpt lat="44.46969" lon="6.21861">
        <ele>843</ele>
        <time>2025-11-21T08:41:19.000Z</time>
      </trkpt>
      <trkpt lat="44.4697" lon="6.21859">
        <ele>843</ele>
        <time>2025-11-21T08:41:20.000Z</time>
      </trkpt>
      <trkpt lat="44.4697" lon="6.21857">
        <ele>843</ele>
        <time>2025-11-21T08:41:21.000Z</time>
      </trkpt>
      <trkpt lat="44.46971" lon="6.21856">
        <ele>844</ele>
        <time>2025-11-21T08:41:22.000Z</time>
      </trkpt>
      <trkpt lat="44.46971" lon="6.21855">
        <ele>845</ele>
        <time>2025-11-21T08:41:23.000Z</time>
      </trkpt>
      <trkpt lat="44.46973" lon="6.21854">
        <ele>847</ele>
        <time>2025-11-21T08:41:24.000Z</time>
      </trkpt>
      <trkpt lat="44.46973" lon="6.21855">
        <ele>846</ele>
        <time>2025-11-21T08:41:25.000Z</time>
      </trkpt>
      <trkpt lat="44.46975" lon="6.21855">
        <ele>846</ele>
        <time>2025-11-21T08:41:26.000Z</time>
      </trkpt>
      <trkpt lat="44.46975" lon="6.21854">
        <ele>846</ele>
        <time>2025-11-21T08:41:27.000Z</time>
      </trkpt>
      <trkpt lat="44.46975" lon="6.21854">
        <ele>846</ele>
        <time>2025-11-21T08:41:28.000Z</time>
      </trkpt>
      <trkpt lat="44.46976" lon="6.21853">
        <ele>846</ele>
        <time>2025-11-21T08:41:29.000Z</time>
      </trkpt>
      <trkpt lat="44.46977" lon="6.21852">
        <ele>846</ele>
        <time>2025-11-21T08:41:30.000Z</time>
      </trkpt>
      <trkpt lat="44.46977" lon="6.21851">
        <ele>847</ele>
        <time>2025-11-21T08:41:31.000Z</time>
      </trkpt>
      <trkpt lat="44.46977" lon="6.21851">
        <ele>847</ele>
        <time>2025-11-21T08:41:32.000Z</time>
      </trkpt>
      <trkpt lat="44.46978" lon="6.21851">
        <ele>849</ele>
        <time>2025-11-21T08:41:33.000Z</time>
      </trkpt>
      <trkpt lat="44.46979" lon="6.21851">
        <ele>850</ele>
        <time>2025-11-21T08:41:34.000Z</time>
      </trkpt>
      <trkpt lat="44.4698" lon="6.2185">
        <ele>850</ele>
        <time>2025-11-21T08:41:35.000Z</time>
      </trkpt>
      <trkpt lat="44.46981" lon="6.21849">
        <ele>850</ele>
        <time>2025-11-21T08:41:36.000Z</time>
      </trkpt>
      <trkpt lat="44.46981" lon="6.21849">
        <ele>850</ele>
        <time>2025-11-21T08:41:37.000Z</time>
      </trkpt>
      <trkpt lat="44.46981" lon="6.21849">
        <ele>850</ele>
        <time>2025-11-21T08:41:38.000Z</time>
      </trkpt>
      <trkpt lat="44.46981" lon="6.21849">
        <ele>850</ele>
        <time>2025-11-21T08:41:39.000Z</time>
      </trkpt>
      <trkpt lat="44.4698" lon="6.21847">
        <ele>852</ele>
        <time>2025-11-21T08:41:40.000Z</time>
      </trkpt>
      <trkpt lat="44.46981" lon="6.21846">
        <ele>853</ele>
        <time>2025-11-21T08:41:41.000Z</time>
      </trkpt>
      <trkpt lat="44.46981" lon="6.21845">
        <ele>852</ele>
        <time>2025-11-21T08:41:42.000Z</time>
      </trkpt>
      <trkpt lat="44.46982" lon="6.21843">
        <ele>851</ele>
        <time>2025-11-21T08:41:43.000Z</time>
      </trkpt>
      <trkpt lat="44.46982" lon="6.21842">
        <ele>851</ele>
        <time>2025-11-21T08:41:44.000Z</time>
      </trkpt>
      <trkpt lat="44.46982" lon="6.21841">
        <ele>851</ele>
        <time>2025-11-21T08:41:45.000Z</time>
      </trkpt>
      <trkpt lat="44.46982" lon="6.21841">
        <ele>851</ele>
        <time>2025-11-21T08:41:46.000Z</time>
      </trkpt>
      <trkpt lat="44.46982" lon="6.2184">
        <ele>852</ele>
        <time>2025-11-21T08:41:47.000Z</time>
      </trkpt>
      <trkpt lat="44.46981" lon="6.21839">
        <ele>851</ele>
        <time>2025-11-21T08:41:48.000Z</time>
      </trkpt>
      <trkpt lat="44.46981" lon="6.21838">
        <ele>851</ele>
        <time>2025-11-21T08:41:49.000Z</time>
      </trkpt>
      <trkpt lat="44.46981" lon="6.21838">
        <ele>851</ele>
        <time>2025-11-21T08:41:50.000Z</time>
      </trkpt>
      <trkpt lat="44.46981" lon="6.21837">
        <ele>851</ele>
        <time>2025-11-21T08:41:51.000Z</time>
      </trkpt>
      <trkpt lat="44.46981" lon="6.21837">
        <ele>852</ele>
        <time>2025-11-21T08:41:52.000Z</time>
      </trkpt>
      <trkpt lat="44.46981" lon="6.21836">
        <ele>851</ele>
        <time>2025-11-21T08:41:53.000Z</time>
      </trkpt>
      <trkpt lat="44.46981" lon="6.21836">
        <ele>851</ele>
        <time>2025-11-21T08:41:54.000Z</time>
      </trkpt>
      <trkpt lat="44.46981" lon="6.21836">
        <ele>851</ele>
        <time>2025-11-21T08:41:55.000Z</time>
      </trkpt>
      <trkpt lat="44.46981" lon="6.21833">
        <ele>851</ele>
        <time>2025-11-21T08:41:56.000Z</time>
      </trkpt>
      <trkpt lat="44.46981" lon="6.21832">
        <ele>851</ele>
        <time>2025-11-21T08:41:57.000Z</time>
      </trkpt>
      <trkpt lat="44.46982" lon="6.2183">
        <ele>850</ele>
        <time>2025-11-21T08:41:58.000Z</time>
      </trkpt>
      <trkpt lat="44.46982" lon="6.21828">
        <ele>850</ele>
        <time>2025-11-21T08:41:59.000Z</time>
      </trkpt>
      <trkpt lat="44.46981" lon="6.21826">
        <ele>850</ele>
        <time>2025-11-21T08:42:00.000Z</time>
      </trkpt>
      <trkpt lat="44.46982" lon="6.21825">
        <ele>850</ele>
        <time>2025-11-21T08:42:01.000Z</time>
      </trkpt>
      <trkpt lat="44.46982" lon="6.21823">
        <ele>850</ele>
        <time>2025-11-21T08:42:02.000Z</time>
      </trkpt>
      <trkpt lat="44.46981" lon="6.21821">
        <ele>851</ele>
        <time>2025-11-21T08:42:03.000Z</time>
      </trkpt>
      <trkpt lat="44.4698" lon="6.21819">
        <ele>851</ele>
        <time>2025-11-21T08:42:04.000Z</time>
      </trkpt>
      <trkpt lat="44.4698" lon="6.21818">
        <ele>851</ele>
        <time>2025-11-21T08:42:05.000Z</time>
      </trkpt>
      <trkpt lat="44.4698" lon="6.21817">
        <ele>852</ele>
        <time>2025-11-21T08:42:06.000Z</time>
      </trkpt>
      <trkpt lat="44.4698" lon="6.21815">
        <ele>853</ele>
        <time>2025-11-21T08:42:07.000Z</time>
      </trkpt>
      <trkpt lat="44.4698" lon="6.21814">
        <ele>853</ele>
        <time>2025-11-21T08:42:08.000Z</time>
      </trkpt>
      <trkpt lat="44.4698" lon="6.21812">
        <ele>853</ele>
        <time>2025-11-21T08:42:09.000Z</time>
      </trkpt>
      <trkpt lat="44.4698" lon="6.21811">
        <ele>852</ele>
        <time>2025-11-21T08:42:10.000Z</time>
      </trkpt>
      <trkpt lat="44.4698" lon="6.2181">
        <ele>853</ele>
        <time>2025-11-21T08:42:11.000Z</time>
      </trkpt>
      <trkpt lat="44.4698" lon="6.21808">
        <ele>854</ele>
        <time>2025-11-21T08:42:12.000Z</time>
      </trkpt>
      <trkpt lat="44.4698" lon="6.21806">
        <ele>854</ele>
        <time>2025-11-21T08:42:13.000Z</time>
      </trkpt>
      <trkpt lat="44.4698" lon="6.21805">
        <ele>854</ele>
        <time>2025-11-21T08:42:14.000Z</time>
      </trkpt>
      <trkpt lat="44.4698" lon="6.21803">
        <ele>854</ele>
        <time>2025-11-21T08:42:15.000Z</time>
      </trkpt>
      <trkpt lat="44.4698" lon="6.21802">
        <ele>854</ele>
        <time>2025-11-21T08:42:16.000Z</time>
      </trkpt>
      <trkpt lat="44.4698" lon="6.21801">
        <ele>854</ele>
        <time>2025-11-21T08:42:17.000Z</time>
      </trkpt>
      <trkpt lat="44.4698" lon="6.218">
        <ele>854</ele>
        <time>2025-11-21T08:42:18.000Z</time>
      </trkpt>
      <trkpt lat="44.4698" lon="6.21798">
        <ele>855</ele>
        <time>2025-11-21T08:42:19.000Z</time>
      </trkpt>
      <trkpt lat="44.4698" lon="6.21796">
        <ele>856</ele>
        <time>2025-11-21T08:42:20.000Z</time>
      </trkpt>
      <trkpt lat="44.46981" lon="6.21795">
        <ele>856</ele>
        <time>2025-11-21T08:42:21.000Z</time>
      </trkpt>
      <trkpt lat="44.46981" lon="6.21794">
        <ele>855</ele>
        <time>2025-11-21T08:42:22.000Z</time>
      </trkpt>
      <trkpt lat="44.46981" lon="6.21793">
        <ele>854</ele>
        <time>2025-11-21T08:42:23.000Z</time>
      </trkpt>
      <trkpt lat="44.46981" lon="6.21791">
        <ele>854</ele>
        <time>2025-11-21T08:42:24.000Z</time>
      </trkpt>
      <trkpt lat="44.46981" lon="6.21791">
        <ele>854</ele>
        <time>2025-11-21T08:42:25.000Z</time>
      </trkpt>
      <trkpt lat="44.4698" lon="6.21791">
        <ele>854</ele>
        <time>2025-11-21T08:42:26.000Z</time>
      </trkpt>
      <trkpt lat="44.4698" lon="6.21791">
        <ele>853</ele>
        <time>2025-11-21T08:42:27.000Z</time>
      </trkpt>
      <trkpt lat="44.4698" lon="6.21791">
        <ele>853</ele>
        <time>2025-11-21T08:42:28.000Z</time>
      </trkpt>
      <trkpt lat="44.4698" lon="6.21791">
        <ele>853</ele>
        <time>2025-11-21T08:42:29.000Z</time>
      </trkpt>
      <trkpt lat="44.4698" lon="6.21791">
        <ele>853</ele>
        <time>2025-11-21T08:42:30.000Z</time>
      </trkpt>
      <trkpt lat="44.4698" lon="6.21789">
        <ele>854</ele>
        <time>2025-11-21T08:42:31.000Z</time>
      </trkpt>
      <trkpt lat="44.4698" lon="6.21789">
        <ele>854</ele>
        <time>2025-11-21T08:42:32.000Z</time>
      </trkpt>
      <trkpt lat="44.4698" lon="6.21789">
        <ele>854</ele>
        <time>2025-11-21T08:42:33.000Z</time>
      </trkpt>
      <trkpt lat="44.4698" lon="6.21789">
        <ele>854</ele>
        <time>2025-11-21T08:42:34.000Z</time>
      </trkpt>
      <trkpt lat="44.4698" lon="6.21789">
        <ele>854</ele>
        <time>2025-11-21T08:42:35.000Z</time>
      </trkpt>
      <trkpt lat="44.46981" lon="6.21787">
        <ele>853</ele>
        <time>2025-11-21T08:42:36.000Z</time>
      </trkpt>
      <trkpt lat="44.46982" lon="6.21786">
        <ele>853</ele>
        <time>2025-11-21T08:42:37.000Z</time>
      </trkpt>
      <trkpt lat="44.46982" lon="6.21784">
        <ele>854</ele>
        <time>2025-11-21T08:42:38.000Z</time>
      </trkpt>
      <trkpt lat="44.46983" lon="6.21783">
        <ele>854</ele>
        <time>2025-11-21T08:42:39.000Z</time>
      </trkpt>
      <trkpt lat="44.46983" lon="6.21782">
        <ele>854</ele>
        <time>2025-11-21T08:42:40.000Z</time>
      </trkpt>
      <trkpt lat="44.46984" lon="6.21781">
        <ele>855</ele>
        <time>2025-11-21T08:42:41.000Z</time>
      </trkpt>
      <trkpt lat="44.46984" lon="6.2178">
        <ele>855</ele>
        <time>2025-11-21T08:42:42.000Z</time>
      </trkpt>
      <trkpt lat="44.46985" lon="6.2178">
        <ele>855</ele>
        <time>2025-11-21T08:42:43.000Z</time>
      </trkpt>
      <trkpt lat="44.46985" lon="6.21778">
        <ele>855</ele>
        <time>2025-11-21T08:42:44.000Z</time>
      </trkpt>
      <trkpt lat="44.46986" lon="6.21777">
        <ele>855</ele>
        <time>2025-11-21T08:42:45.000Z</time>
      </trkpt>
      <trkpt lat="44.46986" lon="6.21776">
        <ele>855</ele>
        <time>2025-11-21T08:42:46.000Z</time>
      </trkpt>
      <trkpt lat="44.46986" lon="6.21775">
        <ele>855</ele>
        <time>2025-11-21T08:42:47.000Z</time>
      </trkpt>
      <trkpt lat="44.46986" lon="6.21774">
        <ele>855</ele>
        <time>2025-11-21T08:42:48.000Z</time>
      </trkpt>
      <trkpt lat="44.46986" lon="6.21773">
        <ele>855</ele>
        <time>2025-11-21T08:42:49.000Z</time>
      </trkpt>
      <trkpt lat="44.46987" lon="6.21772">
        <ele>855</ele>
        <time>2025-11-21T08:42:50.000Z</time>
      </trkpt>
      <trkpt lat="44.46986" lon="6.21773">
        <ele>855</ele>
        <time>2025-11-21T08:42:51.000Z</time>
      </trkpt>
      <trkpt lat="44.46986" lon="6.21773">
        <ele>855</ele>
        <time>2025-11-21T08:42:52.000Z</time>
      </trkpt>
      <trkpt lat="44.46986" lon="6.21773">
        <ele>855</ele>
        <time>2025-11-21T08:42:53.000Z</time>
      </trkpt>
      <trkpt lat="44.46986" lon="6.21773">
        <ele>855</ele>
        <time>2025-11-21T08:42:54.000Z</time>
      </trkpt>
      <trkpt lat="44.46986" lon="6.21773">
        <ele>855</ele>
        <time>2025-11-21T08:42:55.000Z</time>
      </trkpt>
      <trkpt lat="44.46986" lon="6.21773">
        <ele>855</ele>
        <time>2025-11-21T08:42:56.000Z</time>
      </trkpt>
      <trkpt lat="44.46986" lon="6.21773">
        <ele>855</ele>
        <time>2025-11-21T08:42:57.000Z</time>
      </trkpt>
      <trkpt lat="44.46985" lon="6.21773">
        <ele>856</ele>
        <time>2025-11-21T08:42:58.000Z</time>
      </trkpt>
      <trkpt lat="44.46984" lon="6.21773">
        <ele>856</ele>
        <time>2025-11-21T08:42:59.000Z</time>
      </trkpt>
      <trkpt lat="44.46984" lon="6.21774">
        <ele>855</ele>
        <time>2025-11-21T08:43:00.000Z</time>
      </trkpt>
      <trkpt lat="44.46984" lon="6.21776">
        <ele>855</ele>
        <time>2025-11-21T08:43:01.000Z</time>
      </trkpt>
      <trkpt lat="44.46983" lon="6.21777">
        <ele>855</ele>
        <time>2025-11-21T08:43:02.000Z</time>
      </trkpt>
      <trkpt lat="44.46983" lon="6.21777">
        <ele>855</ele>
        <time>2025-11-21T08:43:03.000Z</time>
      </trkpt>
      <trkpt lat="44.46983" lon="6.21778">
        <ele>854</ele>
        <time>2025-11-21T08:43:04.000Z</time>
      </trkpt>
      <trkpt lat="44.46983" lon="6.21779">
        <ele>854</ele>
        <time>2025-11-21T08:43:05.000Z</time>
      </trkpt>
      <trkpt lat="44.46982" lon="6.2178">
        <ele>854</ele>
        <time>2025-11-21T08:43:06.000Z</time>
      </trkpt>
      <trkpt lat="44.46982" lon="6.2178">
        <ele>855</ele>
        <time>2025-11-21T08:43:07.000Z</time>
      </trkpt>
      <trkpt lat="44.46982" lon="6.21782">
        <ele>854</ele>
        <time>2025-11-21T08:43:08.000Z</time>
      </trkpt>
      <trkpt lat="44.46982" lon="6.21783">
        <ele>855</ele>
        <time>2025-11-21T08:43:09.000Z</time>
      </trkpt>
      <trkpt lat="44.46981" lon="6.21784">
        <ele>855</ele>
        <time>2025-11-21T08:43:10.000Z</time>
      </trkpt>
      <trkpt lat="44.46981" lon="6.21785">
        <ele>855</ele>
        <time>2025-11-21T08:43:11.000Z</time>
      </trkpt>
      <trkpt lat="44.4698" lon="6.21787">
        <ele>855</ele>
        <time>2025-11-21T08:43:12.000Z</time>
      </trkpt>
      <trkpt lat="44.4698" lon="6.21789">
        <ele>855</ele>
        <time>2025-11-21T08:43:13.000Z</time>
      </trkpt>
      <trkpt lat="44.46979" lon="6.21791">
        <ele>856</ele>
        <time>2025-11-21T08:43:14.000Z</time>
      </trkpt>
      <trkpt lat="44.46979" lon="6.21791">
        <ele>856</ele>
        <time>2025-11-21T08:43:15.000Z</time>
      </trkpt>
      <trkpt lat="44.46979" lon="6.21792">
        <ele>857</ele>
        <time>2025-11-21T08:43:16.000Z</time>
      </trkpt>
      <trkpt lat="44.46979" lon="6.21794">
        <ele>857</ele>
        <time>2025-11-21T08:43:17.000Z</time>
      </trkpt>
      <trkpt lat="44.46979" lon="6.21795">
        <ele>858</ele>
        <time>2025-11-21T08:43:18.000Z</time>
      </trkpt>
      <trkpt lat="44.46978" lon="6.21797">
        <ele>858</ele>
        <time>2025-11-21T08:43:19.000Z</time>
      </trkpt>
      <trkpt lat="44.46978" lon="6.21799">
        <ele>857</ele>
        <time>2025-11-21T08:43:20.000Z</time>
      </trkpt>
      <trkpt lat="44.46977" lon="6.218">
        <ele>858</ele>
        <time>2025-11-21T08:43:21.000Z</time>
      </trkpt>
      <trkpt lat="44.46977" lon="6.21801">
        <ele>858</ele>
        <time>2025-11-21T08:43:22.000Z</time>
      </trkpt>
      <trkpt lat="44.46977" lon="6.21802">
        <ele>858</ele>
        <time>2025-11-21T08:43:23.000Z</time>
      </trkpt>
      <trkpt lat="44.46977" lon="6.21803">
        <ele>858</ele>
        <time>2025-11-21T08:43:24.000Z</time>
      </trkpt>
      <trkpt lat="44.46978" lon="6.21805">
        <ele>858</ele>
        <time>2025-11-21T08:43:25.000Z</time>
      </trkpt>
      <trkpt lat="44.46977" lon="6.21807">
        <ele>858</ele>
        <time>2025-11-21T08:43:26.000Z</time>
      </trkpt>
      <trkpt lat="44.46977" lon="6.21809">
        <ele>858</ele>
        <time>2025-11-21T08:43:27.000Z</time>
      </trkpt>
      <trkpt lat="44.46976" lon="6.2181">
        <ele>858</ele>
        <time>2025-11-21T08:43:28.000Z</time>
      </trkpt>
      <trkpt lat="44.46975" lon="6.21811">
        <ele>858</ele>
        <time>2025-11-21T08:43:29.000Z</time>
      </trkpt>
      <trkpt lat="44.46974" lon="6.21811">
        <ele>858</ele>
        <time>2025-11-21T08:43:30.000Z</time>
      </trkpt>
      <trkpt lat="44.46974" lon="6.21812">
        <ele>857</ele>
        <time>2025-11-21T08:43:31.000Z</time>
      </trkpt>
      <trkpt lat="44.46974" lon="6.21812">
        <ele>857</ele>
        <time>2025-11-21T08:43:32.000Z</time>
      </trkpt>
      <trkpt lat="44.46973" lon="6.21813">
        <ele>857</ele>
        <time>2025-11-21T08:43:33.000Z</time>
      </trkpt>
      <trkpt lat="44.46973" lon="6.21812">
        <ele>857</ele>
        <time>2025-11-21T08:43:34.000Z</time>
      </trkpt>
      <trkpt lat="44.46972" lon="6.21812">
        <ele>857</ele>
        <time>2025-11-21T08:43:35.000Z</time>
      </trkpt>
      <trkpt lat="44.4697" lon="6.2181">
        <ele>856</ele>
        <time>2025-11-21T08:43:36.000Z</time>
      </trkpt>
      <trkpt lat="44.46969" lon="6.21809">
        <ele>856</ele>
        <time>2025-11-21T08:43:37.000Z</time>
      </trkpt>
      <trkpt lat="44.46969" lon="6.21808">
        <ele>856</ele>
        <time>2025-11-21T08:43:38.000Z</time>
      </trkpt>
      <trkpt lat="44.46969" lon="6.21807">
        <ele>856</ele>
        <time>2025-11-21T08:43:39.000Z</time>
      </trkpt>
      <trkpt lat="44.46969" lon="6.21807">
        <ele>856</ele>
        <time>2025-11-21T08:43:40.000Z</time>
      </trkpt>
      <trkpt lat="44.46968" lon="6.21806">
        <ele>855</ele>
        <time>2025-11-21T08:43:41.000Z</time>
      </trkpt>
      <trkpt lat="44.46968" lon="6.21804">
        <ele>854</ele>
        <time>2025-11-21T08:43:42.000Z</time>
      </trkpt>
      <trkpt lat="44.46968" lon="6.21803">
        <ele>854</ele>
        <time>2025-11-21T08:43:43.000Z</time>
      </trkpt>
      <trkpt lat="44.46967" lon="6.21801">
        <ele>854</ele>
        <time>2025-11-21T08:43:44.000Z</time>
      </trkpt>
      <trkpt lat="44.46968" lon="6.21799">
        <ele>853</ele>
        <time>2025-11-21T08:43:45.000Z</time>
      </trkpt>
      <trkpt lat="44.46967" lon="6.21798">
        <ele>853</ele>
        <time>2025-11-21T08:43:46.000Z</time>
      </trkpt>
      <trkpt lat="44.46967" lon="6.21797">
        <ele>853</ele>
        <time>2025-11-21T08:43:47.000Z</time>
      </trkpt>
      <trkpt lat="44.46966" lon="6.21796">
        <ele>853</ele>
        <time>2025-11-21T08:43:48.000Z</time>
      </trkpt>
      <trkpt lat="44.46966" lon="6.21794">
        <ele>852</ele>
        <time>2025-11-21T08:43:49.000Z</time>
      </trkpt>
      <trkpt lat="44.46966" lon="6.21793">
        <ele>852</ele>
        <time>2025-11-21T08:43:50.000Z</time>
      </trkpt>
      <trkpt lat="44.46965" lon="6.21791">
        <ele>851</ele>
        <time>2025-11-21T08:43:51.000Z</time>
      </trkpt>
      <trkpt lat="44.46965" lon="6.2179">
        <ele>851</ele>
        <time>2025-11-21T08:43:52.000Z</time>
      </trkpt>
      <trkpt lat="44.46965" lon="6.21788">
        <ele>850</ele>
        <time>2025-11-21T08:43:53.000Z</time>
      </trkpt>
      <trkpt lat="44.46965" lon="6.21787">
        <ele>850</ele>
        <time>2025-11-21T08:43:54.000Z</time>
      </trkpt>
      <trkpt lat="44.46965" lon="6.21786">
        <ele>849</ele>
        <time>2025-11-21T08:43:55.000Z</time>
      </trkpt>
      <trkpt lat="44.46965" lon="6.21785">
        <ele>849</ele>
        <time>2025-11-21T08:43:56.000Z</time>
      </trkpt>
      <trkpt lat="44.46965" lon="6.21785">
        <ele>849</ele>
        <time>2025-11-21T08:43:57.000Z</time>
      </trkpt>
      <trkpt lat="44.46965" lon="6.21784">
        <ele>849</ele>
        <time>2025-11-21T08:43:58.000Z</time>
      </trkpt>
      <trkpt lat="44.46964" lon="6.21783">
        <ele>849</ele>
        <time>2025-11-21T08:43:59.000Z</time>
      </trkpt>
      <trkpt lat="44.46964" lon="6.21782">
        <ele>849</ele>
        <time>2025-11-21T08:44:00.000Z</time>
      </trkpt>
      <trkpt lat="44.46964" lon="6.21781">
        <ele>849</ele>
        <time>2025-11-21T08:44:01.000Z</time>
      </trkpt>
      <trkpt lat="44.46964" lon="6.2178">
        <ele>849</ele>
        <time>2025-11-21T08:44:02.000Z</time>
      </trkpt>
      <trkpt lat="44.46963" lon="6.21779">
        <ele>849</ele>
        <time>2025-11-21T08:44:03.000Z</time>
      </trkpt>
      <trkpt lat="44.46963" lon="6.21778">
        <ele>848</ele>
        <time>2025-11-21T08:44:04.000Z</time>
      </trkpt>
      <trkpt lat="44.46962" lon="6.21778">
        <ele>848</ele>
        <time>2025-11-21T08:44:05.000Z</time>
      </trkpt>
      <trkpt lat="44.46962" lon="6.21777">
        <ele>847</ele>
        <time>2025-11-21T08:44:06.000Z</time>
      </trkpt>
      <trkpt lat="44.46962" lon="6.21777">
        <ele>847</ele>
        <time>2025-11-21T08:44:07.000Z</time>
      </trkpt>
      <trkpt lat="44.46962" lon="6.21777">
        <ele>847</ele>
        <time>2025-11-21T08:44:08.000Z</time>
      </trkpt>
      <trkpt lat="44.46962" lon="6.21777">
        <ele>847</ele>
        <time>2025-11-21T08:44:09.000Z</time>
      </trkpt>
      <trkpt lat="44.46962" lon="6.21775">
        <ele>846</ele>
        <time>2025-11-21T08:44:10.000Z</time>
      </trkpt>
      <trkpt lat="44.46962" lon="6.21774">
        <ele>846</ele>
        <time>2025-11-21T08:44:11.000Z</time>
      </trkpt>
      <trkpt lat="44.46961" lon="6.21773">
        <ele>845</ele>
        <time>2025-11-21T08:44:12.000Z</time>
      </trkpt>
      <trkpt lat="44.4696" lon="6.21772">
        <ele>844</ele>
        <time>2025-11-21T08:44:13.000Z</time>
      </trkpt>
      <trkpt lat="44.4696" lon="6.21771">
        <ele>844</ele>
        <time>2025-11-21T08:44:14.000Z</time>
      </trkpt>
      <trkpt lat="44.46959" lon="6.21771">
        <ele>844</ele>
        <time>2025-11-21T08:44:15.000Z</time>
      </trkpt>
      <trkpt lat="44.46959" lon="6.2177">
        <ele>843</ele>
        <time>2025-11-21T08:44:16.000Z</time>
      </trkpt>
      <trkpt lat="44.46958" lon="6.21769">
        <ele>843</ele>
        <time>2025-11-21T08:44:17.000Z</time>
      </trkpt>
      <trkpt lat="44.46958" lon="6.21769">
        <ele>843</ele>
        <time>2025-11-21T08:44:18.000Z</time>
      </trkpt>
      <trkpt lat="44.46957" lon="6.21768">
        <ele>843</ele>
        <time>2025-11-21T08:44:19.000Z</time>
      </trkpt>
      <trkpt lat="44.46957" lon="6.21768">
        <ele>843</ele>
        <time>2025-11-21T08:44:20.000Z</time>
      </trkpt>
      <trkpt lat="44.46956" lon="6.21767">
        <ele>843</ele>
        <time>2025-11-21T08:44:21.000Z</time>
      </trkpt>
      <trkpt lat="44.46956" lon="6.21767">
        <ele>843</ele>
        <time>2025-11-21T08:44:22.000Z</time>
      </trkpt>
      <trkpt lat="44.46956" lon="6.21767">
        <ele>843</ele>
        <time>2025-11-21T08:44:23.000Z</time>
      </trkpt>
      <trkpt lat="44.46956" lon="6.21765">
        <ele>843</ele>
        <time>2025-11-21T08:44:24.000Z</time>
      </trkpt>
      <trkpt lat="44.46956" lon="6.21764">
        <ele>843</ele>
        <time>2025-11-21T08:44:25.000Z</time>
      </trkpt>
      <trkpt lat="44.46956" lon="6.21764">
        <ele>842</ele>
        <time>2025-11-21T08:44:26.000Z</time>
      </trkpt>
      <trkpt lat="44.46955" lon="6.21763">
        <ele>842</ele>
        <time>2025-11-21T08:44:27.000Z</time>
      </trkpt>
      <trkpt lat="44.46955" lon="6.21762">
        <ele>842</ele>
        <time>2025-11-21T08:44:28.000Z</time>
      </trkpt>
      <trkpt lat="44.46954" lon="6.21762">
        <ele>840</ele>
        <time>2025-11-21T08:44:29.000Z</time>
      </trkpt>
      <trkpt lat="44.46954" lon="6.21762">
        <ele>840</ele>
        <time>2025-11-21T08:44:30.000Z</time>
      </trkpt>
      <trkpt lat="44.46954" lon="6.21762">
        <ele>840</ele>
        <time>2025-11-21T08:44:31.000Z</time>
      </trkpt>
      <trkpt lat="44.46953" lon="6.21761">
        <ele>840</ele>
        <time>2025-11-21T08:44:32.000Z</time>
      </trkpt>
      <trkpt lat="44.46952" lon="6.2176">
        <ele>839</ele>
        <time>2025-11-21T08:44:33.000Z</time>
      </trkpt>
      <trkpt lat="44.46951" lon="6.2176">
        <ele>839</ele>
        <time>2025-11-21T08:44:34.000Z</time>
      </trkpt>
      <trkpt lat="44.4695" lon="6.2176">
        <ele>839</ele>
        <time>2025-11-21T08:44:35.000Z</time>
      </trkpt>
      <trkpt lat="44.46949" lon="6.21759">
        <ele>839</ele>
        <time>2025-11-21T08:44:36.000Z</time>
      </trkpt>
      <trkpt lat="44.46948" lon="6.21759">
        <ele>839</ele>
        <time>2025-11-21T08:44:37.000Z</time>
      </trkpt>
      <trkpt lat="44.46948" lon="6.21759">
        <ele>838</ele>
        <time>2025-11-21T08:44:38.000Z</time>
      </trkpt>
      <trkpt lat="44.46948" lon="6.21758">
        <ele>838</ele>
        <time>2025-11-21T08:44:39.000Z</time>
      </trkpt>
      <trkpt lat="44.46947" lon="6.21757">
        <ele>838</ele>
        <time>2025-11-21T08:44:40.000Z</time>
      </trkpt>
      <trkpt lat="44.46946" lon="6.21757">
        <ele>838</ele>
        <time>2025-11-21T08:44:41.000Z</time>
      </trkpt>
      <trkpt lat="44.46946" lon="6.21756">
        <ele>837</ele>
        <time>2025-11-21T08:44:42.000Z</time>
      </trkpt>
      <trkpt lat="44.46945" lon="6.21756">
        <ele>837</ele>
        <time>2025-11-21T08:44:43.000Z</time>
      </trkpt>
      <trkpt lat="44.46945" lon="6.21755">
        <ele>838</ele>
        <time>2025-11-21T08:44:44.000Z</time>
      </trkpt>
      <trkpt lat="44.46945" lon="6.21755">
        <ele>838</ele>
        <time>2025-11-21T08:44:45.000Z</time>
      </trkpt>
      <trkpt lat="44.46944" lon="6.21754">
        <ele>839</ele>
        <time>2025-11-21T08:44:46.000Z</time>
      </trkpt>
      <trkpt lat="44.46944" lon="6.21753">
        <ele>839</ele>
        <time>2025-11-21T08:44:47.000Z</time>
      </trkpt>
      <trkpt lat="44.46943" lon="6.21752">
        <ele>839</ele>
        <time>2025-11-21T08:44:48.000Z</time>
      </trkpt>
      <trkpt lat="44.46942" lon="6.21752">
        <ele>840</ele>
        <time>2025-11-21T08:44:49.000Z</time>
      </trkpt>
      <trkpt lat="44.46942" lon="6.21752">
        <ele>840</ele>
        <time>2025-11-21T08:44:50.000Z</time>
      </trkpt>
      <trkpt lat="44.46941" lon="6.21751">
        <ele>839</ele>
        <time>2025-11-21T08:44:51.000Z</time>
      </trkpt>
      <trkpt lat="44.46941" lon="6.2175">
        <ele>839</ele>
        <time>2025-11-21T08:44:52.000Z</time>
      </trkpt>
      <trkpt lat="44.46941" lon="6.2175">
        <ele>839</ele>
        <time>2025-11-21T08:44:53.000Z</time>
      </trkpt>
      <trkpt lat="44.46941" lon="6.2175">
        <ele>839</ele>
        <time>2025-11-21T08:44:54.000Z</time>
      </trkpt>
      <trkpt lat="44.46939" lon="6.2175">
        <ele>837</ele>
        <time>2025-11-21T08:44:55.000Z</time>
      </trkpt>
      <trkpt lat="44.46938" lon="6.21749">
        <ele>837</ele>
        <time>2025-11-21T08:44:56.000Z</time>
      </trkpt>
      <trkpt lat="44.46938" lon="6.21749">
        <ele>836</ele>
        <time>2025-11-21T08:44:57.000Z</time>
      </trkpt>
      <trkpt lat="44.46937" lon="6.21748">
        <ele>836</ele>
        <time>2025-11-21T08:44:58.000Z</time>
      </trkpt>
      <trkpt lat="44.46936" lon="6.21747">
        <ele>836</ele>
        <time>2025-11-21T08:44:59.000Z</time>
      </trkpt>
      <trkpt lat="44.46935" lon="6.21746">
        <ele>836</ele>
        <time>2025-11-21T08:45:00.000Z</time>
      </trkpt>
      <trkpt lat="44.46935" lon="6.21745">
        <ele>836</ele>
        <time>2025-11-21T08:45:01.000Z</time>
      </trkpt>
      <trkpt lat="44.46934" lon="6.21744">
        <ele>836</ele>
        <time>2025-11-21T08:45:02.000Z</time>
      </trkpt>
      <trkpt lat="44.46933" lon="6.21743">
        <ele>836</ele>
        <time>2025-11-21T08:45:03.000Z</time>
      </trkpt>
      <trkpt lat="44.46933" lon="6.21742">
        <ele>836</ele>
        <time>2025-11-21T08:45:04.000Z</time>
      </trkpt>
      <trkpt lat="44.46932" lon="6.21741">
        <ele>836</ele>
        <time>2025-11-21T08:45:05.000Z</time>
      </trkpt>
      <trkpt lat="44.46932" lon="6.2174">
        <ele>837</ele>
        <time>2025-11-21T08:45:06.000Z</time>
      </trkpt>
      <trkpt lat="44.46931" lon="6.21739">
        <ele>836</ele>
        <time>2025-11-21T08:45:07.000Z</time>
      </trkpt>
      <trkpt lat="44.46931" lon="6.21738">
        <ele>836</ele>
        <time>2025-11-21T08:45:08.000Z</time>
      </trkpt>
      <trkpt lat="44.46931" lon="6.21736">
        <ele>836</ele>
        <time>2025-11-21T08:45:09.000Z</time>
      </trkpt>
      <trkpt lat="44.46931" lon="6.21735">
        <ele>835</ele>
        <time>2025-11-21T08:45:10.000Z</time>
      </trkpt>
      <trkpt lat="44.46931" lon="6.21735">
        <ele>835</ele>
        <time>2025-11-21T08:45:11.000Z</time>
      </trkpt>
      <trkpt lat="44.4693" lon="6.21734">
        <ele>835</ele>
        <time>2025-11-21T08:45:12.000Z</time>
      </trkpt>
      <trkpt lat="44.4693" lon="6.21733">
        <ele>835</ele>
        <time>2025-11-21T08:45:13.000Z</time>
      </trkpt>
      <trkpt lat="44.4693" lon="6.21732">
        <ele>835</ele>
        <time>2025-11-21T08:45:14.000Z</time>
      </trkpt>
      <trkpt lat="44.4693" lon="6.2173">
        <ele>835</ele>
        <time>2025-11-21T08:45:15.000Z</time>
      </trkpt>
      <trkpt lat="44.4693" lon="6.21729">
        <ele>835</ele>
        <time>2025-11-21T08:45:16.000Z</time>
      </trkpt>
      <trkpt lat="44.4693" lon="6.21727">
        <ele>834</ele>
        <time>2025-11-21T08:45:17.000Z</time>
      </trkpt>
      <trkpt lat="44.4693" lon="6.21726">
        <ele>834</ele>
        <time>2025-11-21T08:45:18.000Z</time>
      </trkpt>
      <trkpt lat="44.4693" lon="6.21726">
        <ele>834</ele>
        <time>2025-11-21T08:45:19.000Z</time>
      </trkpt>
      <trkpt lat="44.4693" lon="6.21726">
        <ele>834</ele>
        <time>2025-11-21T08:45:20.000Z</time>
      </trkpt>
      <trkpt lat="44.4693" lon="6.21726">
        <ele>834</ele>
        <time>2025-11-21T08:45:21.000Z</time>
      </trkpt>
      <trkpt lat="44.4693" lon="6.21724">
        <ele>834</ele>
        <time>2025-11-21T08:45:22.000Z</time>
      </trkpt>
      <trkpt lat="44.4693" lon="6.21723">
        <ele>833</ele>
        <time>2025-11-21T08:45:23.000Z</time>
      </trkpt>
      <trkpt lat="44.46931" lon="6.21721">
        <ele>833</ele>
        <time>2025-11-21T08:45:24.000Z</time>
      </trkpt>
      <trkpt lat="44.46931" lon="6.2172">
        <ele>833</ele>
        <time>2025-11-21T08:45:25.000Z</time>
      </trkpt>
      <trkpt lat="44.46931" lon="6.21719">
        <ele>833</ele>
        <time>2025-11-21T08:45:26.000Z</time>
      </trkpt>
      <trkpt lat="44.46931" lon="6.21717">
        <ele>833</ele>
        <time>2025-11-21T08:45:27.000Z</time>
      </trkpt>
      <trkpt lat="44.46931" lon="6.21716">
        <ele>833</ele>
        <time>2025-11-21T08:45:28.000Z</time>
      </trkpt>
      <trkpt lat="44.46931" lon="6.21714">
        <ele>832</ele>
        <time>2025-11-21T08:45:29.000Z</time>
      </trkpt>
      <trkpt lat="44.46931" lon="6.21713">
        <ele>832</ele>
        <time>2025-11-21T08:45:30.000Z</time>
      </trkpt>
      <trkpt lat="44.46932" lon="6.21712">
        <ele>832</ele>
        <time>2025-11-21T08:45:31.000Z</time>
      </trkpt>
      <trkpt lat="44.46932" lon="6.21711">
        <ele>831</ele>
        <time>2025-11-21T08:45:32.000Z</time>
      </trkpt>
      <trkpt lat="44.46932" lon="6.2171">
        <ele>831</ele>
        <time>2025-11-21T08:45:33.000Z</time>
      </trkpt>
      <trkpt lat="44.46932" lon="6.21709">
        <ele>831</ele>
        <time>2025-11-21T08:45:34.000Z</time>
      </trkpt>
      <trkpt lat="44.46933" lon="6.21708">
        <ele>831</ele>
        <time>2025-11-21T08:45:35.000Z</time>
      </trkpt>
      <trkpt lat="44.46933" lon="6.21706">
        <ele>831</ele>
        <time>2025-11-21T08:45:36.000Z</time>
      </trkpt>
      <trkpt lat="44.46933" lon="6.21705">
        <ele>831</ele>
        <time>2025-11-21T08:45:37.000Z</time>
      </trkpt>
      <trkpt lat="44.46933" lon="6.21704">
        <ele>831</ele>
        <time>2025-11-21T08:45:38.000Z</time>
      </trkpt>
      <trkpt lat="44.46933" lon="6.21703">
        <ele>831</ele>
        <time>2025-11-21T08:45:39.000Z</time>
      </trkpt>
      <trkpt lat="44.46933" lon="6.21701">
        <ele>831</ele>
        <time>2025-11-21T08:45:40.000Z</time>
      </trkpt>
      <trkpt lat="44.46933" lon="6.217">
        <ele>831</ele>
        <time>2025-11-21T08:45:41.000Z</time>
      </trkpt>
      <trkpt lat="44.46933" lon="6.21699">
        <ele>830</ele>
        <time>2025-11-21T08:45:42.000Z</time>
      </trkpt>
      <trkpt lat="44.46933" lon="6.21698">
        <ele>831</ele>
        <time>2025-11-21T08:45:43.000Z</time>
      </trkpt>
      <trkpt lat="44.46934" lon="6.21696">
        <ele>831</ele>
        <time>2025-11-21T08:45:44.000Z</time>
      </trkpt>
      <trkpt lat="44.46934" lon="6.21696">
        <ele>830</ele>
        <time>2025-11-21T08:45:45.000Z</time>
      </trkpt>
      <trkpt lat="44.46934" lon="6.21694">
        <ele>830</ele>
        <time>2025-11-21T08:45:46.000Z</time>
      </trkpt>
      <trkpt lat="44.46934" lon="6.21693">
        <ele>830</ele>
        <time>2025-11-21T08:45:47.000Z</time>
      </trkpt>
      <trkpt lat="44.46934" lon="6.21692">
        <ele>830</ele>
        <time>2025-11-21T08:45:48.000Z</time>
      </trkpt>
      <trkpt lat="44.46934" lon="6.2169">
        <ele>830</ele>
        <time>2025-11-21T08:45:49.000Z</time>
      </trkpt>
      <trkpt lat="44.46933" lon="6.21689">
        <ele>830</ele>
        <time>2025-11-21T08:45:50.000Z</time>
      </trkpt>
      <trkpt lat="44.46933" lon="6.21688">
        <ele>830</ele>
        <time>2025-11-21T08:45:51.000Z</time>
      </trkpt>
      <trkpt lat="44.46933" lon="6.21687">
        <ele>830</ele>
        <time>2025-11-21T08:45:52.000Z</time>
      </trkpt>
      <trkpt lat="44.46933" lon="6.21686">
        <ele>830</ele>
        <time>2025-11-21T08:45:53.000Z</time>
      </trkpt>
      <trkpt lat="44.46928" lon="6.21664">
        <ele>843</ele>
        <time>2025-11-21T08:46:01.000Z</time>
      </trkpt>
      <trkpt lat="44.46927" lon="6.21663">
        <ele>842</ele>
        <time>2025-11-21T08:46:02.000Z</time>
      </trkpt>
      <trkpt lat="44.46927" lon="6.21663">
        <ele>842</ele>
        <time>2025-11-21T08:46:03.000Z</time>
      </trkpt>
      <trkpt lat="44.46927" lon="6.21664">
        <ele>841</ele>
        <time>2025-11-21T08:46:04.000Z</time>
      </trkpt>
      <trkpt lat="44.46927" lon="6.21662">
        <ele>842</ele>
        <time>2025-11-21T08:46:05.000Z</time>
      </trkpt>
      <trkpt lat="44.46927" lon="6.21661">
        <ele>843</ele>
        <time>2025-11-21T08:46:06.000Z</time>
      </trkpt>
      <trkpt lat="44.46927" lon="6.2166">
        <ele>843</ele>
        <time>2025-11-21T08:46:07.000Z</time>
      </trkpt>
      <trkpt lat="44.46927" lon="6.2166">
        <ele>842</ele>
        <time>2025-11-21T08:46:08.000Z</time>
      </trkpt>
      <trkpt lat="44.46927" lon="6.21659">
        <ele>842</ele>
        <time>2025-11-21T08:46:09.000Z</time>
      </trkpt>
      <trkpt lat="44.46927" lon="6.21659">
        <ele>841</ele>
        <time>2025-11-21T08:46:10.000Z</time>
      </trkpt>
      <trkpt lat="44.46926" lon="6.21658">
        <ele>839</ele>
        <time>2025-11-21T08:46:11.000Z</time>
      </trkpt>
      <trkpt lat="44.46926" lon="6.21657">
        <ele>839</ele>
        <time>2025-11-21T08:46:12.000Z</time>
      </trkpt>
      <trkpt lat="44.46926" lon="6.21656">
        <ele>838</ele>
        <time>2025-11-21T08:46:13.000Z</time>
      </trkpt>
      <trkpt lat="44.46925" lon="6.21655">
        <ele>838</ele>
        <time>2025-11-21T08:46:14.000Z</time>
      </trkpt>
      <trkpt lat="44.46925" lon="6.21654">
        <ele>837</ele>
        <time>2025-11-21T08:46:15.000Z</time>
      </trkpt>
      <trkpt lat="44.46924" lon="6.21653">
        <ele>837</ele>
        <time>2025-11-21T08:46:16.000Z</time>
      </trkpt>
      <trkpt lat="44.46924" lon="6.21653">
        <ele>836</ele>
        <time>2025-11-21T08:46:17.000Z</time>
      </trkpt>
      <trkpt lat="44.46924" lon="6.21653">
        <ele>836</ele>
        <time>2025-11-21T08:46:18.000Z</time>
      </trkpt>
      <trkpt lat="44.46924" lon="6.21652">
        <ele>835</ele>
        <time>2025-11-21T08:46:19.000Z</time>
      </trkpt>
      <trkpt lat="44.46924" lon="6.21652">
        <ele>835</ele>
        <time>2025-11-21T08:46:20.000Z</time>
      </trkpt>
      <trkpt lat="44.46924" lon="6.21652">
        <ele>835</ele>
        <time>2025-11-21T08:46:21.000Z</time>
      </trkpt>
      <trkpt lat="44.46923" lon="6.2165">
        <ele>836</ele>
        <time>2025-11-21T08:46:22.000Z</time>
      </trkpt>
      <trkpt lat="44.46923" lon="6.21651">
        <ele>835</ele>
        <time>2025-11-21T08:46:23.000Z</time>
      </trkpt>
      <trkpt lat="44.46923" lon="6.21651">
        <ele>834</ele>
        <time>2025-11-21T08:46:24.000Z</time>
      </trkpt>
      <trkpt lat="44.46924" lon="6.21649">
        <ele>834</ele>
        <time>2025-11-21T08:46:25.000Z</time>
      </trkpt>
      <trkpt lat="44.46923" lon="6.21648">
        <ele>835</ele>
        <time>2025-11-21T08:46:26.000Z</time>
      </trkpt>
      <trkpt lat="44.46923" lon="6.21648">
        <ele>835</ele>
        <time>2025-11-21T08:46:27.000Z</time>
      </trkpt>
      <trkpt lat="44.46923" lon="6.21647">
        <ele>835</ele>
        <time>2025-11-21T08:46:28.000Z</time>
      </trkpt>
      <trkpt lat="44.46923" lon="6.21646">
        <ele>836</ele>
        <time>2025-11-21T08:46:29.000Z</time>
      </trkpt>
      <trkpt lat="44.46922" lon="6.21645">
        <ele>836</ele>
        <time>2025-11-21T08:46:30.000Z</time>
      </trkpt>
      <trkpt lat="44.46922" lon="6.21644">
        <ele>836</ele>
        <time>2025-11-21T08:46:31.000Z</time>
      </trkpt>
      <trkpt lat="44.46923" lon="6.21643">
        <ele>835</ele>
        <time>2025-11-21T08:46:32.000Z</time>
      </trkpt>
      <trkpt lat="44.46923" lon="6.21642">
        <ele>835</ele>
        <time>2025-11-21T08:46:33.000Z</time>
      </trkpt>
      <trkpt lat="44.46923" lon="6.21641">
        <ele>835</ele>
        <time>2025-11-21T08:46:34.000Z</time>
      </trkpt>
      <trkpt lat="44.46923" lon="6.2164">
        <ele>835</ele>
        <time>2025-11-21T08:46:35.000Z</time>
      </trkpt>
      <trkpt lat="44.46923" lon="6.21639">
        <ele>836</ele>
        <time>2025-11-21T08:46:36.000Z</time>
      </trkpt>
      <trkpt lat="44.46923" lon="6.21638">
        <ele>836</ele>
        <time>2025-11-21T08:46:37.000Z</time>
      </trkpt>
      <trkpt lat="44.46922" lon="6.21637">
        <ele>835</ele>
        <time>2025-11-21T08:46:38.000Z</time>
      </trkpt>
      <trkpt lat="44.46922" lon="6.21636">
        <ele>834</ele>
        <time>2025-11-21T08:46:39.000Z</time>
      </trkpt>
      <trkpt lat="44.46922" lon="6.21636">
        <ele>834</ele>
        <time>2025-11-21T08:46:40.000Z</time>
      </trkpt>
      <trkpt lat="44.46922" lon="6.21635">
        <ele>833</ele>
        <time>2025-11-21T08:46:41.000Z</time>
      </trkpt>
      <trkpt lat="44.46922" lon="6.21635">
        <ele>832</ele>
        <time>2025-11-21T08:46:42.000Z</time>
      </trkpt>
      <trkpt lat="44.46922" lon="6.21635">
        <ele>832</ele>
        <time>2025-11-21T08:46:43.000Z</time>
      </trkpt>
      <trkpt lat="44.46922" lon="6.21635">
        <ele>832</ele>
        <time>2025-11-21T08:46:44.000Z</time>
      </trkpt>
      <trkpt lat="44.46922" lon="6.21633">
        <ele>831</ele>
        <time>2025-11-21T08:46:45.000Z</time>
      </trkpt>
      <trkpt lat="44.46922" lon="6.21632">
        <ele>830</ele>
        <time>2025-11-21T08:46:46.000Z</time>
      </trkpt>
      <trkpt lat="44.46922" lon="6.2163">
        <ele>830</ele>
        <time>2025-11-21T08:46:47.000Z</time>
      </trkpt>
      <trkpt lat="44.46921" lon="6.21629">
        <ele>830</ele>
        <time>2025-11-21T08:46:48.000Z</time>
      </trkpt>
      <trkpt lat="44.46921" lon="6.21627">
        <ele>830</ele>
        <time>2025-11-21T08:46:49.000Z</time>
      </trkpt>
      <trkpt lat="44.46921" lon="6.21626">
        <ele>830</ele>
        <time>2025-11-21T08:46:50.000Z</time>
      </trkpt>
      <trkpt lat="44.4692" lon="6.21625">
        <ele>830</ele>
        <time>2025-11-21T08:46:51.000Z</time>
      </trkpt>
      <trkpt lat="44.46921" lon="6.21624">
        <ele>830</ele>
        <time>2025-11-21T08:46:52.000Z</time>
      </trkpt>
      <trkpt lat="44.46921" lon="6.21622">
        <ele>830</ele>
        <time>2025-11-21T08:46:53.000Z</time>
      </trkpt>
      <trkpt lat="44.46921" lon="6.2162">
        <ele>830</ele>
        <time>2025-11-21T08:46:54.000Z</time>
      </trkpt>
      <trkpt lat="44.4692" lon="6.2162">
        <ele>829</ele>
        <time>2025-11-21T08:46:55.000Z</time>
      </trkpt>
      <trkpt lat="44.4692" lon="6.2162">
        <ele>829</ele>
        <time>2025-11-21T08:46:56.000Z</time>
      </trkpt>
      <trkpt lat="44.46921" lon="6.21614">
        <ele>829</ele>
        <time>2025-11-21T08:47:15.000Z</time>
      </trkpt>
      <trkpt lat="44.46921" lon="6.21613">
        <ele>830</ele>
        <time>2025-11-21T08:47:16.000Z</time>
      </trkpt>
      <trkpt lat="44.46921" lon="6.21612">
        <ele>830</ele>
        <time>2025-11-21T08:47:17.000Z</time>
      </trkpt>
      <trkpt lat="44.46921" lon="6.2161">
        <ele>830</ele>
        <time>2025-11-21T08:47:18.000Z</time>
      </trkpt>
      <trkpt lat="44.4692" lon="6.21609">
        <ele>829</ele>
        <time>2025-11-21T08:47:19.000Z</time>
      </trkpt>
      <trkpt lat="44.46921" lon="6.21608">
        <ele>829</ele>
        <time>2025-11-21T08:47:20.000Z</time>
      </trkpt>
      <trkpt lat="44.4692" lon="6.21606">
        <ele>829</ele>
        <time>2025-11-21T08:47:21.000Z</time>
      </trkpt>
      <trkpt lat="44.46921" lon="6.21604">
        <ele>829</ele>
        <time>2025-11-21T08:47:22.000Z</time>
      </trkpt>
      <trkpt lat="44.46921" lon="6.21602">
        <ele>829</ele>
        <time>2025-11-21T08:47:23.000Z</time>
      </trkpt>
      <trkpt lat="44.46921" lon="6.21601">
        <ele>829</ele>
        <time>2025-11-21T08:47:24.000Z</time>
      </trkpt>
      <trkpt lat="44.46921" lon="6.21599">
        <ele>829</ele>
        <time>2025-11-21T08:47:25.000Z</time>
      </trkpt>
      <trkpt lat="44.46921" lon="6.21597">
        <ele>830</ele>
        <time>2025-11-21T08:47:26.000Z</time>
      </trkpt>
      <trkpt lat="44.46922" lon="6.21596">
        <ele>830</ele>
        <time>2025-11-21T08:47:27.000Z</time>
      </trkpt>
      <trkpt lat="44.46922" lon="6.21595">
        <ele>831</ele>
        <time>2025-11-21T08:47:28.000Z</time>
      </trkpt>
      <trkpt lat="44.46922" lon="6.21595">
        <ele>831</ele>
        <time>2025-11-21T08:47:29.000Z</time>
      </trkpt>
      <trkpt lat="44.46922" lon="6.21594">
        <ele>831</ele>
        <time>2025-11-21T08:47:30.000Z</time>
      </trkpt>
      <trkpt lat="44.46923" lon="6.21593">
        <ele>831</ele>
        <time>2025-11-21T08:47:31.000Z</time>
      </trkpt>
      <trkpt lat="44.46923" lon="6.21591">
        <ele>831</ele>
        <time>2025-11-21T08:47:32.000Z</time>
      </trkpt>
      <trkpt lat="44.46923" lon="6.21591">
        <ele>831</ele>
        <time>2025-11-21T08:47:33.000Z</time>
      </trkpt>
      <trkpt lat="44.46923" lon="6.21591">
        <ele>830</ele>
        <time>2025-11-21T08:47:34.000Z</time>
      </trkpt>
      <trkpt lat="44.46923" lon="6.2159">
        <ele>830</ele>
        <time>2025-11-21T08:47:35.000Z</time>
      </trkpt>
      <trkpt lat="44.46924" lon="6.21589">
        <ele>830</ele>
        <time>2025-11-21T08:47:36.000Z</time>
      </trkpt>
      <trkpt lat="44.46924" lon="6.21588">
        <ele>830</ele>
        <time>2025-11-21T08:47:37.000Z</time>
      </trkpt>
      <trkpt lat="44.46924" lon="6.21587">
        <ele>829</ele>
        <time>2025-11-21T08:47:38.000Z</time>
      </trkpt>
      <trkpt lat="44.46925" lon="6.21586">
        <ele>829</ele>
        <time>2025-11-21T08:47:39.000Z</time>
      </trkpt>
      <trkpt lat="44.46924" lon="6.21585">
        <ele>829</ele>
        <time>2025-11-21T08:47:40.000Z</time>
      </trkpt>
      <trkpt lat="44.46924" lon="6.21584">
        <ele>829</ele>
        <time>2025-11-21T08:47:41.000Z</time>
      </trkpt>
      <trkpt lat="44.46925" lon="6.21583">
        <ele>828</ele>
        <time>2025-11-21T08:47:42.000Z</time>
      </trkpt>
      <trkpt lat="44.46925" lon="6.21581">
        <ele>828</ele>
        <time>2025-11-21T08:47:43.000Z</time>
      </trkpt>
      <trkpt lat="44.46926" lon="6.2158">
        <ele>828</ele>
        <time>2025-11-21T08:47:44.000Z</time>
      </trkpt>
      <trkpt lat="44.46926" lon="6.21579">
        <ele>828</ele>
        <time>2025-11-21T08:47:45.000Z</time>
      </trkpt>
      <trkpt lat="44.46926" lon="6.21578">
        <ele>828</ele>
        <time>2025-11-21T08:47:46.000Z</time>
      </trkpt>
      <trkpt lat="44.46926" lon="6.21576">
        <ele>828</ele>
        <time>2025-11-21T08:47:47.000Z</time>
      </trkpt>
      <trkpt lat="44.46926" lon="6.21575">
        <ele>828</ele>
        <time>2025-11-21T08:47:48.000Z</time>
      </trkpt>
      <trkpt lat="44.46926" lon="6.21574">
        <ele>828</ele>
        <time>2025-11-21T08:47:49.000Z</time>
      </trkpt>
      <trkpt lat="44.46926" lon="6.21572">
        <ele>827</ele>
        <time>2025-11-21T08:47:50.000Z</time>
      </trkpt>
      <trkpt lat="44.46926" lon="6.2157">
        <ele>827</ele>
        <time>2025-11-21T08:47:51.000Z</time>
      </trkpt>
      <trkpt lat="44.46927" lon="6.21569">
        <ele>827</ele>
        <time>2025-11-21T08:47:52.000Z</time>
      </trkpt>
      <trkpt lat="44.46926" lon="6.21567">
        <ele>827</ele>
        <time>2025-11-21T08:47:53.000Z</time>
      </trkpt>
      <trkpt lat="44.46926" lon="6.21566">
        <ele>827</ele>
        <time>2025-11-21T08:47:54.000Z</time>
      </trkpt>
      <trkpt lat="44.46926" lon="6.21564">
        <ele>827</ele>
        <time>2025-11-21T08:47:55.000Z</time>
      </trkpt>
      <trkpt lat="44.46926" lon="6.21563">
        <ele>826</ele>
        <time>2025-11-21T08:47:56.000Z</time>
      </trkpt>
      <trkpt lat="44.46926" lon="6.21562">
        <ele>826</ele>
        <time>2025-11-21T08:47:57.000Z</time>
      </trkpt>
      <trkpt lat="44.46926" lon="6.21562">
        <ele>826</ele>
        <time>2025-11-21T08:47:58.000Z</time>
      </trkpt>
      <trkpt lat="44.46927" lon="6.21562">
        <ele>826</ele>
        <time>2025-11-21T08:47:59.000Z</time>
      </trkpt>
      <trkpt lat="44.46927" lon="6.21561">
        <ele>825</ele>
        <time>2025-11-21T08:48:00.000Z</time>
      </trkpt>
      <trkpt lat="44.46926" lon="6.21559">
        <ele>825</ele>
        <time>2025-11-21T08:48:01.000Z</time>
      </trkpt>
      <trkpt lat="44.46926" lon="6.21558">
        <ele>825</ele>
        <time>2025-11-21T08:48:02.000Z</time>
      </trkpt>
      <trkpt lat="44.46926" lon="6.21557">
        <ele>825</ele>
        <time>2025-11-21T08:48:03.000Z</time>
      </trkpt>
      <trkpt lat="44.46925" lon="6.21556">
        <ele>825</ele>
        <time>2025-11-21T08:48:04.000Z</time>
      </trkpt>
      <trkpt lat="44.46925" lon="6.21556">
        <ele>825</ele>
        <time>2025-11-21T08:48:05.000Z</time>
      </trkpt>
      <trkpt lat="44.46926" lon="6.21556">
        <ele>824</ele>
        <time>2025-11-21T08:48:06.000Z</time>
      </trkpt>
      <trkpt lat="44.46926" lon="6.21555">
        <ele>823</ele>
        <time>2025-11-21T08:48:07.000Z</time>
      </trkpt>
      <trkpt lat="44.46926" lon="6.21554">
        <ele>823</ele>
        <time>2025-11-21T08:48:08.000Z</time>
      </trkpt>
      <trkpt lat="44.46926" lon="6.21553">
        <ele>822</ele>
        <time>2025-11-21T08:48:09.000Z</time>
      </trkpt>
      <trkpt lat="44.46926" lon="6.21552">
        <ele>821</ele>
        <time>2025-11-21T08:48:10.000Z</time>
      </trkpt>
      <trkpt lat="44.46926" lon="6.2155">
        <ele>820</ele>
        <time>2025-11-21T08:48:11.000Z</time>
      </trkpt>
      <trkpt lat="44.46926" lon="6.21549">
        <ele>820</ele>
        <time>2025-11-21T08:48:12.000Z</time>
      </trkpt>
      <trkpt lat="44.46926" lon="6.21547">
        <ele>820</ele>
        <time>2025-11-21T08:48:13.000Z</time>
      </trkpt>
      <trkpt lat="44.46926" lon="6.21546">
        <ele>820</ele>
        <time>2025-11-21T08:48:14.000Z</time>
      </trkpt>
      <trkpt lat="44.46926" lon="6.21544">
        <ele>820</ele>
        <time>2025-11-21T08:48:15.000Z</time>
      </trkpt>
      <trkpt lat="44.46926" lon="6.21543">
        <ele>820</ele>
        <time>2025-11-21T08:48:16.000Z</time>
      </trkpt>
      <trkpt lat="44.46926" lon="6.21541">
        <ele>820</ele>
        <time>2025-11-21T08:48:17.000Z</time>
      </trkpt>
      <trkpt lat="44.46926" lon="6.2154">
        <ele>820</ele>
        <time>2025-11-21T08:48:18.000Z</time>
      </trkpt>
      <trkpt lat="44.46925" lon="6.21538">
        <ele>819</ele>
        <time>2025-11-21T08:48:19.000Z</time>
      </trkpt>
      <trkpt lat="44.46925" lon="6.21537">
        <ele>819</ele>
        <time>2025-11-21T08:48:20.000Z</time>
      </trkpt>
      <trkpt lat="44.46925" lon="6.21535">
        <ele>819</ele>
        <time>2025-11-21T08:48:21.000Z</time>
      </trkpt>
      <trkpt lat="44.46925" lon="6.21533">
        <ele>819</ele>
        <time>2025-11-21T08:48:22.000Z</time>
      </trkpt>
      <trkpt lat="44.46925" lon="6.21532">
        <ele>818</ele>
        <time>2025-11-21T08:48:23.000Z</time>
      </trkpt>
      <trkpt lat="44.46925" lon="6.21531">
        <ele>818</ele>
        <time>2025-11-21T08:48:24.000Z</time>
      </trkpt>
      <trkpt lat="44.46925" lon="6.21529">
        <ele>818</ele>
        <time>2025-11-21T08:48:25.000Z</time>
      </trkpt>
      <trkpt lat="44.46925" lon="6.21528">
        <ele>818</ele>
        <time>2025-11-21T08:48:26.000Z</time>
      </trkpt>
      <trkpt lat="44.46925" lon="6.21527">
        <ele>817</ele>
        <time>2025-11-21T08:48:27.000Z</time>
      </trkpt>
      <trkpt lat="44.46925" lon="6.21526">
        <ele>817</ele>
        <time>2025-11-21T08:48:28.000Z</time>
      </trkpt>
      <trkpt lat="44.46925" lon="6.21525">
        <ele>817</ele>
        <time>2025-11-21T08:48:29.000Z</time>
      </trkpt>
      <trkpt lat="44.46925" lon="6.21523">
        <ele>817</ele>
        <time>2025-11-21T08:48:30.000Z</time>
      </trkpt>
      <trkpt lat="44.46926" lon="6.21521">
        <ele>817</ele>
        <time>2025-11-21T08:48:31.000Z</time>
      </trkpt>
      <trkpt lat="44.46926" lon="6.21519">
        <ele>817</ele>
        <time>2025-11-21T08:48:32.000Z</time>
      </trkpt>
      <trkpt lat="44.46926" lon="6.21517">
        <ele>817</ele>
        <time>2025-11-21T08:48:33.000Z</time>
      </trkpt>
      <trkpt lat="44.46926" lon="6.21515">
        <ele>817</ele>
        <time>2025-11-21T08:48:34.000Z</time>
      </trkpt>
      <trkpt lat="44.46926" lon="6.21514">
        <ele>817</ele>
        <time>2025-11-21T08:48:35.000Z</time>
      </trkpt>
      <trkpt lat="44.46927" lon="6.21513">
        <ele>816</ele>
        <time>2025-11-21T08:48:36.000Z</time>
      </trkpt>
      <trkpt lat="44.46927" lon="6.21512">
        <ele>816</ele>
        <time>2025-11-21T08:48:37.000Z</time>
      </trkpt>
      <trkpt lat="44.46927" lon="6.21511">
        <ele>816</ele>
        <time>2025-11-21T08:48:38.000Z</time>
      </trkpt>
      <trkpt lat="44.46927" lon="6.2151">
        <ele>816</ele>
        <time>2025-11-21T08:48:39.000Z</time>
      </trkpt>
      <trkpt lat="44.46927" lon="6.21509">
        <ele>816</ele>
        <time>2025-11-21T08:48:40.000Z</time>
      </trkpt>
      <trkpt lat="44.46928" lon="6.21507">
        <ele>816</ele>
        <time>2025-11-21T08:48:41.000Z</time>
      </trkpt>
      <trkpt lat="44.46928" lon="6.21506">
        <ele>816</ele>
        <time>2025-11-21T08:48:42.000Z</time>
      </trkpt>
      <trkpt lat="44.46928" lon="6.21505">
        <ele>816</ele>
        <time>2025-11-21T08:48:43.000Z</time>
      </trkpt>
      <trkpt lat="44.46928" lon="6.21504">
        <ele>815</ele>
        <time>2025-11-21T08:48:44.000Z</time>
      </trkpt>
      <trkpt lat="44.46928" lon="6.21503">
        <ele>815</ele>
        <time>2025-11-21T08:48:45.000Z</time>
      </trkpt>
      <trkpt lat="44.46928" lon="6.21502">
        <ele>815</ele>
        <time>2025-11-21T08:48:46.000Z</time>
      </trkpt>
      <trkpt lat="44.46928" lon="6.21502">
        <ele>815</ele>
        <time>2025-11-21T08:48:47.000Z</time>
      </trkpt>
      <trkpt lat="44.46928" lon="6.21502">
        <ele>815</ele>
        <time>2025-11-21T08:48:48.000Z</time>
      </trkpt>
      <trkpt lat="44.46928" lon="6.21499">
        <ele>814</ele>
        <time>2025-11-21T08:48:49.000Z</time>
      </trkpt>
      <trkpt lat="44.46929" lon="6.21498">
        <ele>814</ele>
        <time>2025-11-21T08:48:50.000Z</time>
      </trkpt>
      <trkpt lat="44.4693" lon="6.21496">
        <ele>813</ele>
        <time>2025-11-21T08:48:51.000Z</time>
      </trkpt>
      <trkpt lat="44.4693" lon="6.21495">
        <ele>813</ele>
        <time>2025-11-21T08:48:52.000Z</time>
      </trkpt>
      <trkpt lat="44.46931" lon="6.21493">
        <ele>813</ele>
        <time>2025-11-21T08:48:53.000Z</time>
      </trkpt>
      <trkpt lat="44.46931" lon="6.21493">
        <ele>813</ele>
        <time>2025-11-21T08:48:54.000Z</time>
      </trkpt>
      <trkpt lat="44.46932" lon="6.21491">
        <ele>812</ele>
        <time>2025-11-21T08:48:55.000Z</time>
      </trkpt>
      <trkpt lat="44.46933" lon="6.2149">
        <ele>812</ele>
        <time>2025-11-21T08:48:56.000Z</time>
      </trkpt>
      <trkpt lat="44.46933" lon="6.21489">
        <ele>812</ele>
        <time>2025-11-21T08:48:57.000Z</time>
      </trkpt>
      <trkpt lat="44.46934" lon="6.21488">
        <ele>812</ele>
        <time>2025-11-21T08:48:58.000Z</time>
      </trkpt>
      <trkpt lat="44.46935" lon="6.21486">
        <ele>811</ele>
        <time>2025-11-21T08:48:59.000Z</time>
      </trkpt>
      <trkpt lat="44.46935" lon="6.21484">
        <ele>811</ele>
        <time>2025-11-21T08:49:00.000Z</time>
      </trkpt>
      <trkpt lat="44.46936" lon="6.21482">
        <ele>811</ele>
        <time>2025-11-21T08:49:01.000Z</time>
      </trkpt>
      <trkpt lat="44.46936" lon="6.21481">
        <ele>811</ele>
        <time>2025-11-21T08:49:02.000Z</time>
      </trkpt>
      <trkpt lat="44.46937" lon="6.21479">
        <ele>811</ele>
        <time>2025-11-21T08:49:03.000Z</time>
      </trkpt>
      <trkpt lat="44.46937" lon="6.21478">
        <ele>811</ele>
        <time>2025-11-21T08:49:04.000Z</time>
      </trkpt>
      <trkpt lat="44.46938" lon="6.21476">
        <ele>810</ele>
        <time>2025-11-21T08:49:05.000Z</time>
      </trkpt>
      <trkpt lat="44.46938" lon="6.21474">
        <ele>810</ele>
        <time>2025-11-21T08:49:06.000Z</time>
      </trkpt>
      <trkpt lat="44.46938" lon="6.21474">
        <ele>810</ele>
        <time>2025-11-21T08:49:07.000Z</time>
      </trkpt>
      <trkpt lat="44.46939" lon="6.21472">
        <ele>810</ele>
        <time>2025-11-21T08:49:08.000Z</time>
      </trkpt>
      <trkpt lat="44.46939" lon="6.21471">
        <ele>810</ele>
        <time>2025-11-21T08:49:09.000Z</time>
      </trkpt>
      <trkpt lat="44.46939" lon="6.21469">
        <ele>810</ele>
        <time>2025-11-21T08:49:10.000Z</time>
      </trkpt>
      <trkpt lat="44.4694" lon="6.21468">
        <ele>810</ele>
        <time>2025-11-21T08:49:11.000Z</time>
      </trkpt>
      <trkpt lat="44.4694" lon="6.21466">
        <ele>810</ele>
        <time>2025-11-21T08:49:12.000Z</time>
      </trkpt>
      <trkpt lat="44.4694" lon="6.21466">
        <ele>811</ele>
        <time>2025-11-21T08:49:13.000Z</time>
      </trkpt>
      <trkpt lat="44.46941" lon="6.21464">
        <ele>811</ele>
        <time>2025-11-21T08:49:14.000Z</time>
      </trkpt>
      <trkpt lat="44.46941" lon="6.21463">
        <ele>811</ele>
        <time>2025-11-21T08:49:15.000Z</time>
      </trkpt>
      <trkpt lat="44.46941" lon="6.21462">
        <ele>811</ele>
        <time>2025-11-21T08:49:16.000Z</time>
      </trkpt>
      <trkpt lat="44.46941" lon="6.21462">
        <ele>811</ele>
        <time>2025-11-21T08:49:17.000Z</time>
      </trkpt>
      <trkpt lat="44.46942" lon="6.2146">
        <ele>811</ele>
        <time>2025-11-21T08:49:18.000Z</time>
      </trkpt>
      <trkpt lat="44.46942" lon="6.21458">
        <ele>811</ele>
        <time>2025-11-21T08:49:19.000Z</time>
      </trkpt>
      <trkpt lat="44.46943" lon="6.21456">
        <ele>811</ele>
        <time>2025-11-21T08:49:20.000Z</time>
      </trkpt>
      <trkpt lat="44.46943" lon="6.21455">
        <ele>811</ele>
        <time>2025-11-21T08:49:21.000Z</time>
      </trkpt>
      <trkpt lat="44.46943" lon="6.21453">
        <ele>811</ele>
        <time>2025-11-21T08:49:22.000Z</time>
      </trkpt>
      <trkpt lat="44.46943" lon="6.21452">
        <ele>811</ele>
        <time>2025-11-21T08:49:23.000Z</time>
      </trkpt>
      <trkpt lat="44.46943" lon="6.21451">
        <ele>811</ele>
        <time>2025-11-21T08:49:24.000Z</time>
      </trkpt>
      <trkpt lat="44.46943" lon="6.21449">
        <ele>811</ele>
        <time>2025-11-21T08:49:25.000Z</time>
      </trkpt>
      <trkpt lat="44.46943" lon="6.21449">
        <ele>810</ele>
        <time>2025-11-21T08:49:26.000Z</time>
      </trkpt>
      <trkpt lat="44.46944" lon="6.21447">
        <ele>811</ele>
        <time>2025-11-21T08:49:27.000Z</time>
      </trkpt>
      <trkpt lat="44.46944" lon="6.21445">
        <ele>810</ele>
        <time>2025-11-21T08:49:28.000Z</time>
      </trkpt>
      <trkpt lat="44.46944" lon="6.21444">
        <ele>810</ele>
        <time>2025-11-21T08:49:29.000Z</time>
      </trkpt>
      <trkpt lat="44.46945" lon="6.21443">
        <ele>810</ele>
        <time>2025-11-21T08:49:30.000Z</time>
      </trkpt>
      <trkpt lat="44.46945" lon="6.21443">
        <ele>809</ele>
        <time>2025-11-21T08:49:31.000Z</time>
      </trkpt>
      <trkpt lat="44.46946" lon="6.21442">
        <ele>809</ele>
        <time>2025-11-21T08:49:32.000Z</time>
      </trkpt>
      <trkpt lat="44.46946" lon="6.21441">
        <ele>807</ele>
        <time>2025-11-21T08:49:33.000Z</time>
      </trkpt>
      <trkpt lat="44.46947" lon="6.2144">
        <ele>807</ele>
        <time>2025-11-21T08:49:34.000Z</time>
      </trkpt>
      <trkpt lat="44.46948" lon="6.21439">
        <ele>807</ele>
        <time>2025-11-21T08:49:35.000Z</time>
      </trkpt>
      <trkpt lat="44.46948" lon="6.21438">
        <ele>808</ele>
        <time>2025-11-21T08:49:36.000Z</time>
      </trkpt>
      <trkpt lat="44.46948" lon="6.21437">
        <ele>807</ele>
        <time>2025-11-21T08:49:37.000Z</time>
      </trkpt>
      <trkpt lat="44.46948" lon="6.21436">
        <ele>806</ele>
        <time>2025-11-21T08:49:38.000Z</time>
      </trkpt>
      <trkpt lat="44.46948" lon="6.21435">
        <ele>805</ele>
        <time>2025-11-21T08:49:39.000Z</time>
      </trkpt>
      <trkpt lat="44.46949" lon="6.21433">
        <ele>805</ele>
        <time>2025-11-21T08:49:40.000Z</time>
      </trkpt>
      <trkpt lat="44.46949" lon="6.21432">
        <ele>805</ele>
        <time>2025-11-21T08:49:41.000Z</time>
      </trkpt>
      <trkpt lat="44.46949" lon="6.2143">
        <ele>805</ele>
        <time>2025-11-21T08:49:42.000Z</time>
      </trkpt>
      <trkpt lat="44.4695" lon="6.21428">
        <ele>805</ele>
        <time>2025-11-21T08:49:43.000Z</time>
      </trkpt>
      <trkpt lat="44.4695" lon="6.21427">
        <ele>804</ele>
        <time>2025-11-21T08:49:44.000Z</time>
      </trkpt>
      <trkpt lat="44.46951" lon="6.21426">
        <ele>805</ele>
        <time>2025-11-21T08:49:45.000Z</time>
      </trkpt>
      <trkpt lat="44.46951" lon="6.21424">
        <ele>805</ele>
        <time>2025-11-21T08:49:46.000Z</time>
      </trkpt>
      <trkpt lat="44.46952" lon="6.21423">
        <ele>805</ele>
        <time>2025-11-21T08:49:47.000Z</time>
      </trkpt>
      <trkpt lat="44.46953" lon="6.21422">
        <ele>804</ele>
        <time>2025-11-21T08:49:48.000Z</time>
      </trkpt>
      <trkpt lat="44.46954" lon="6.21421">
        <ele>803</ele>
        <time>2025-11-21T08:49:49.000Z</time>
      </trkpt>
      <trkpt lat="44.46955" lon="6.2142">
        <ele>803</ele>
        <time>2025-11-21T08:49:50.000Z</time>
      </trkpt>
      <trkpt lat="44.46955" lon="6.21419">
        <ele>803</ele>
        <time>2025-11-21T08:49:51.000Z</time>
      </trkpt>
      <trkpt lat="44.46956" lon="6.21418">
        <ele>803</ele>
        <time>2025-11-21T08:49:52.000Z</time>
      </trkpt>
      <trkpt lat="44.46956" lon="6.21418">
        <ele>803</ele>
        <time>2025-11-21T08:49:53.000Z</time>
      </trkpt>
      <trkpt lat="44.46956" lon="6.21418">
        <ele>803</ele>
        <time>2025-11-21T08:49:54.000Z</time>
      </trkpt>
      <trkpt lat="44.46957" lon="6.21416">
        <ele>801</ele>
        <time>2025-11-21T08:49:55.000Z</time>
      </trkpt>
      <trkpt lat="44.46958" lon="6.21415">
        <ele>801</ele>
        <time>2025-11-21T08:49:56.000Z</time>
      </trkpt>
      <trkpt lat="44.46958" lon="6.21414">
        <ele>801</ele>
        <time>2025-11-21T08:49:57.000Z</time>
      </trkpt>
      <trkpt lat="44.46959" lon="6.21412">
        <ele>801</ele>
        <time>2025-11-21T08:49:58.000Z</time>
      </trkpt>
      <trkpt lat="44.4696" lon="6.21411">
        <ele>801</ele>
        <time>2025-11-21T08:49:59.000Z</time>
      </trkpt>
      <trkpt lat="44.4696" lon="6.21411">
        <ele>802</ele>
        <time>2025-11-21T08:50:00.000Z</time>
      </trkpt>
      <trkpt lat="44.46961" lon="6.21411">
        <ele>801</ele>
        <time>2025-11-21T08:50:01.000Z</time>
      </trkpt>
      <trkpt lat="44.46962" lon="6.2141">
        <ele>801</ele>
        <time>2025-11-21T08:50:02.000Z</time>
      </trkpt>
      <trkpt lat="44.46963" lon="6.21409">
        <ele>801</ele>
        <time>2025-11-21T08:50:03.000Z</time>
      </trkpt>
      <trkpt lat="44.46964" lon="6.21408">
        <ele>801</ele>
        <time>2025-11-21T08:50:04.000Z</time>
      </trkpt>
      <trkpt lat="44.46964" lon="6.21406">
        <ele>802</ele>
        <time>2025-11-21T08:50:05.000Z</time>
      </trkpt>
      <trkpt lat="44.46965" lon="6.21406">
        <ele>802</ele>
        <time>2025-11-21T08:50:06.000Z</time>
      </trkpt>
      <trkpt lat="44.46965" lon="6.21406">
        <ele>802</ele>
        <time>2025-11-21T08:50:07.000Z</time>
      </trkpt>
      <trkpt lat="44.46965" lon="6.21406">
        <ele>802</ele>
        <time>2025-11-21T08:50:08.000Z</time>
      </trkpt>
      <trkpt lat="44.46967" lon="6.21403">
        <ele>802</ele>
        <time>2025-11-21T08:50:09.000Z</time>
      </trkpt>
      <trkpt lat="44.46968" lon="6.21402">
        <ele>801</ele>
        <time>2025-11-21T08:50:10.000Z</time>
      </trkpt>
      <trkpt lat="44.46968" lon="6.21401">
        <ele>801</ele>
        <time>2025-11-21T08:50:11.000Z</time>
      </trkpt>
      <trkpt lat="44.46969" lon="6.21401">
        <ele>801</ele>
        <time>2025-11-21T08:50:12.000Z</time>
      </trkpt>
      <trkpt lat="44.4697" lon="6.214">
        <ele>801</ele>
        <time>2025-11-21T08:50:13.000Z</time>
      </trkpt>
      <trkpt lat="44.46971" lon="6.21398">
        <ele>801</ele>
        <time>2025-11-21T08:50:14.000Z</time>
      </trkpt>
      <trkpt lat="44.46971" lon="6.21397">
        <ele>801</ele>
        <time>2025-11-21T08:50:15.000Z</time>
      </trkpt>
      <trkpt lat="44.46972" lon="6.21396">
        <ele>801</ele>
        <time>2025-11-21T08:50:16.000Z</time>
      </trkpt>
      <trkpt lat="44.46973" lon="6.21395">
        <ele>801</ele>
        <time>2025-11-21T08:50:17.000Z</time>
      </trkpt>
      <trkpt lat="44.46974" lon="6.21394">
        <ele>800</ele>
        <time>2025-11-21T08:50:18.000Z</time>
      </trkpt>
      <trkpt lat="44.46974" lon="6.21393">
        <ele>801</ele>
        <time>2025-11-21T08:50:19.000Z</time>
      </trkpt>
      <trkpt lat="44.46975" lon="6.21392">
        <ele>800</ele>
        <time>2025-11-21T08:50:20.000Z</time>
      </trkpt>
      <trkpt lat="44.46976" lon="6.2139">
        <ele>800</ele>
        <time>2025-11-21T08:50:21.000Z</time>
      </trkpt>
      <trkpt lat="44.46977" lon="6.21389">
        <ele>800</ele>
        <time>2025-11-21T08:50:22.000Z</time>
      </trkpt>
      <trkpt lat="44.46977" lon="6.21389">
        <ele>799</ele>
        <time>2025-11-21T08:50:23.000Z</time>
      </trkpt>
      <trkpt lat="44.46977" lon="6.21389">
        <ele>799</ele>
        <time>2025-11-21T08:50:24.000Z</time>
      </trkpt>
      <trkpt lat="44.46977" lon="6.21389">
        <ele>799</ele>
        <time>2025-11-21T08:50:25.000Z</time>
      </trkpt>
      <trkpt lat="44.46977" lon="6.21387">
        <ele>801</ele>
        <time>2025-11-21T08:50:26.000Z</time>
      </trkpt>
      <trkpt lat="44.46978" lon="6.21386">
        <ele>803</ele>
        <time>2025-11-21T08:50:27.000Z</time>
      </trkpt>
      <trkpt lat="44.46982" lon="6.21382">
        <ele>804</ele>
        <time>2025-11-21T08:51:02.000Z</time>
      </trkpt>
      <trkpt lat="44.46983" lon="6.2138">
        <ele>803</ele>
        <time>2025-11-21T08:51:03.000Z</time>
      </trkpt>
      <trkpt lat="44.46983" lon="6.2138">
        <ele>803</ele>
        <time>2025-11-21T08:51:04.000Z</time>
      </trkpt>
      <trkpt lat="44.46984" lon="6.21379">
        <ele>803</ele>
        <time>2025-11-21T08:51:05.000Z</time>
      </trkpt>
      <trkpt lat="44.46985" lon="6.21378">
        <ele>803</ele>
        <time>2025-11-21T08:51:06.000Z</time>
      </trkpt>
      <trkpt lat="44.46985" lon="6.21377">
        <ele>803</ele>
        <time>2025-11-21T08:51:07.000Z</time>
      </trkpt>
      <trkpt lat="44.46986" lon="6.21376">
        <ele>802</ele>
        <time>2025-11-21T08:51:08.000Z</time>
      </trkpt>
      <trkpt lat="44.46987" lon="6.21376">
        <ele>802</ele>
        <time>2025-11-21T08:51:09.000Z</time>
      </trkpt>
      <trkpt lat="44.46987" lon="6.21375">
        <ele>802</ele>
        <time>2025-11-21T08:51:10.000Z</time>
      </trkpt>
      <trkpt lat="44.46987" lon="6.21374">
        <ele>802</ele>
        <time>2025-11-21T08:51:11.000Z</time>
      </trkpt>
      <trkpt lat="44.46988" lon="6.21374">
        <ele>802</ele>
        <time>2025-11-21T08:51:12.000Z</time>
      </trkpt>
      <trkpt lat="44.46989" lon="6.21373">
        <ele>802</ele>
        <time>2025-11-21T08:51:13.000Z</time>
      </trkpt>
      <trkpt lat="44.46989" lon="6.21372">
        <ele>802</ele>
        <time>2025-11-21T08:51:14.000Z</time>
      </trkpt>
      <trkpt lat="44.4699" lon="6.21371">
        <ele>802</ele>
        <time>2025-11-21T08:51:15.000Z</time>
      </trkpt>
      <trkpt lat="44.46991" lon="6.21369">
        <ele>801</ele>
        <time>2025-11-21T08:51:16.000Z</time>
      </trkpt>
      <trkpt lat="44.46992" lon="6.21368">
        <ele>801</ele>
        <time>2025-11-21T08:51:17.000Z</time>
      </trkpt>
      <trkpt lat="44.46992" lon="6.21368">
        <ele>801</ele>
        <time>2025-11-21T08:51:18.000Z</time>
      </trkpt>
      <trkpt lat="44.46993" lon="6.21367">
        <ele>801</ele>
        <time>2025-11-21T08:51:19.000Z</time>
      </trkpt>
      <trkpt lat="44.46993" lon="6.21366">
        <ele>801</ele>
        <time>2025-11-21T08:51:20.000Z</time>
      </trkpt>
      <trkpt lat="44.46994" lon="6.21366">
        <ele>800</ele>
        <time>2025-11-21T08:51:21.000Z</time>
      </trkpt>
      <trkpt lat="44.46994" lon="6.21364">
        <ele>800</ele>
        <time>2025-11-21T08:51:22.000Z</time>
      </trkpt>
      <trkpt lat="44.46994" lon="6.21363">
        <ele>800</ele>
        <time>2025-11-21T08:51:23.000Z</time>
      </trkpt>
      <trkpt lat="44.46994" lon="6.21361">
        <ele>800</ele>
        <time>2025-11-21T08:51:24.000Z</time>
      </trkpt>
      <trkpt lat="44.46995" lon="6.2136">
        <ele>799</ele>
        <time>2025-11-21T08:51:25.000Z</time>
      </trkpt>
      <trkpt lat="44.46996" lon="6.21359">
        <ele>799</ele>
        <time>2025-11-21T08:51:26.000Z</time>
      </trkpt>
      <trkpt lat="44.46997" lon="6.21359">
        <ele>799</ele>
        <time>2025-11-21T08:51:27.000Z</time>
      </trkpt>
      <trkpt lat="44.46998" lon="6.21358">
        <ele>799</ele>
        <time>2025-11-21T08:51:28.000Z</time>
      </trkpt>
      <trkpt lat="44.46998" lon="6.21358">
        <ele>799</ele>
        <time>2025-11-21T08:51:29.000Z</time>
      </trkpt>
      <trkpt lat="44.46999" lon="6.21356">
        <ele>798</ele>
        <time>2025-11-21T08:51:30.000Z</time>
      </trkpt>
      <trkpt lat="44.47" lon="6.21355">
        <ele>797</ele>
        <time>2025-11-21T08:51:31.000Z</time>
      </trkpt>
      <trkpt lat="44.47001" lon="6.21354">
        <ele>798</ele>
        <time>2025-11-21T08:51:32.000Z</time>
      </trkpt>
      <trkpt lat="44.47002" lon="6.21354">
        <ele>798</ele>
        <time>2025-11-21T08:51:33.000Z</time>
      </trkpt>
      <trkpt lat="44.47002" lon="6.21352">
        <ele>797</ele>
        <time>2025-11-21T08:51:34.000Z</time>
      </trkpt>
      <trkpt lat="44.47003" lon="6.21351">
        <ele>796</ele>
        <time>2025-11-21T08:51:35.000Z</time>
      </trkpt>
      <trkpt lat="44.47003" lon="6.2135">
        <ele>796</ele>
        <time>2025-11-21T08:51:36.000Z</time>
      </trkpt>
      <trkpt lat="44.47004" lon="6.2135">
        <ele>796</ele>
        <time>2025-11-21T08:51:37.000Z</time>
      </trkpt>
      <trkpt lat="44.47005" lon="6.21349">
        <ele>796</ele>
        <time>2025-11-21T08:51:38.000Z</time>
      </trkpt>
      <trkpt lat="44.47005" lon="6.21347">
        <ele>795</ele>
        <time>2025-11-21T08:51:39.000Z</time>
      </trkpt>
      <trkpt lat="44.47006" lon="6.21346">
        <ele>795</ele>
        <time>2025-11-21T08:51:40.000Z</time>
      </trkpt>
      <trkpt lat="44.47006" lon="6.21345">
        <ele>795</ele>
        <time>2025-11-21T08:51:41.000Z</time>
      </trkpt>
      <trkpt lat="44.47007" lon="6.21344">
        <ele>795</ele>
        <time>2025-11-21T08:51:42.000Z</time>
      </trkpt>
      <trkpt lat="44.47007" lon="6.21343">
        <ele>795</ele>
        <time>2025-11-21T08:51:43.000Z</time>
      </trkpt>
      <trkpt lat="44.47008" lon="6.21341">
        <ele>794</ele>
        <time>2025-11-21T08:51:44.000Z</time>
      </trkpt>
      <trkpt lat="44.47008" lon="6.2134">
        <ele>794</ele>
        <time>2025-11-21T08:51:45.000Z</time>
      </trkpt>
      <trkpt lat="44.47009" lon="6.21339">
        <ele>795</ele>
        <time>2025-11-21T08:51:46.000Z</time>
      </trkpt>
      <trkpt lat="44.4701" lon="6.21339">
        <ele>795</ele>
        <time>2025-11-21T08:51:47.000Z</time>
      </trkpt>
      <trkpt lat="44.47011" lon="6.21338">
        <ele>795</ele>
        <time>2025-11-21T08:51:48.000Z</time>
      </trkpt>
      <trkpt lat="44.47012" lon="6.21337">
        <ele>795</ele>
        <time>2025-11-21T08:51:49.000Z</time>
      </trkpt>
      <trkpt lat="44.47012" lon="6.21337">
        <ele>795</ele>
        <time>2025-11-21T08:51:50.000Z</time>
      </trkpt>
      <trkpt lat="44.47013" lon="6.21335">
        <ele>795</ele>
        <time>2025-11-21T08:51:51.000Z</time>
      </trkpt>
      <trkpt lat="44.47014" lon="6.21333">
        <ele>795</ele>
        <time>2025-11-21T08:51:52.000Z</time>
      </trkpt>
      <trkpt lat="44.47015" lon="6.21332">
        <ele>794</ele>
        <time>2025-11-21T08:51:53.000Z</time>
      </trkpt>
      <trkpt lat="44.47015" lon="6.2133">
        <ele>793</ele>
        <time>2025-11-21T08:51:54.000Z</time>
      </trkpt>
      <trkpt lat="44.47015" lon="6.2133">
        <ele>793</ele>
        <time>2025-11-21T08:51:55.000Z</time>
      </trkpt>
      <trkpt lat="44.47016" lon="6.21329">
        <ele>793</ele>
        <time>2025-11-21T08:51:56.000Z</time>
      </trkpt>
      <trkpt lat="44.47016" lon="6.21328">
        <ele>794</ele>
        <time>2025-11-21T08:51:57.000Z</time>
      </trkpt>
      <trkpt lat="44.47016" lon="6.21325">
        <ele>794</ele>
        <time>2025-11-21T08:51:58.000Z</time>
      </trkpt>
      <trkpt lat="44.47016" lon="6.21324">
        <ele>794</ele>
        <time>2025-11-21T08:51:59.000Z</time>
      </trkpt>
      <trkpt lat="44.47016" lon="6.21322">
        <ele>794</ele>
        <time>2025-11-21T08:52:00.000Z</time>
      </trkpt>
      <trkpt lat="44.47016" lon="6.21321">
        <ele>795</ele>
        <time>2025-11-21T08:52:01.000Z</time>
      </trkpt>
      <trkpt lat="44.47017" lon="6.2132">
        <ele>795</ele>
        <time>2025-11-21T08:52:02.000Z</time>
      </trkpt>
      <trkpt lat="44.47017" lon="6.21318">
        <ele>795</ele>
        <time>2025-11-21T08:52:03.000Z</time>
      </trkpt>
      <trkpt lat="44.47018" lon="6.21317">
        <ele>795</ele>
        <time>2025-11-21T08:52:04.000Z</time>
      </trkpt>
      <trkpt lat="44.47019" lon="6.21316">
        <ele>796</ele>
        <time>2025-11-21T08:52:05.000Z</time>
      </trkpt>
      <trkpt lat="44.47019" lon="6.21315">
        <ele>796</ele>
        <time>2025-11-21T08:52:06.000Z</time>
      </trkpt>
      <trkpt lat="44.4702" lon="6.21315">
        <ele>797</ele>
        <time>2025-11-21T08:52:07.000Z</time>
      </trkpt>
      <trkpt lat="44.4702" lon="6.21315">
        <ele>797</ele>
        <time>2025-11-21T08:52:08.000Z</time>
      </trkpt>
      <trkpt lat="44.47021" lon="6.21314">
        <ele>797</ele>
        <time>2025-11-21T08:52:09.000Z</time>
      </trkpt>
      <trkpt lat="44.47022" lon="6.21313">
        <ele>797</ele>
        <time>2025-11-21T08:52:10.000Z</time>
      </trkpt>
      <trkpt lat="44.47023" lon="6.21312">
        <ele>797</ele>
        <time>2025-11-21T08:52:11.000Z</time>
      </trkpt>
      <trkpt lat="44.47023" lon="6.21311">
        <ele>797</ele>
        <time>2025-11-21T08:52:12.000Z</time>
      </trkpt>
      <trkpt lat="44.47024" lon="6.21311">
        <ele>797</ele>
        <time>2025-11-21T08:52:13.000Z</time>
      </trkpt>
      <trkpt lat="44.47025" lon="6.21311">
        <ele>798</ele>
        <time>2025-11-21T08:52:14.000Z</time>
      </trkpt>
      <trkpt lat="44.47027" lon="6.21311">
        <ele>798</ele>
        <time>2025-11-21T08:52:15.000Z</time>
      </trkpt>
      <trkpt lat="44.47028" lon="6.21311">
        <ele>798</ele>
        <time>2025-11-21T08:52:16.000Z</time>
      </trkpt>
      <trkpt lat="44.47029" lon="6.2131">
        <ele>798</ele>
        <time>2025-11-21T08:52:17.000Z</time>
      </trkpt>
      <trkpt lat="44.47029" lon="6.21309">
        <ele>798</ele>
        <time>2025-11-21T08:52:18.000Z</time>
      </trkpt>
      <trkpt lat="44.47029" lon="6.21308">
        <ele>798</ele>
        <time>2025-11-21T08:52:19.000Z</time>
      </trkpt>
      <trkpt lat="44.4703" lon="6.21308">
        <ele>798</ele>
        <time>2025-11-21T08:52:20.000Z</time>
      </trkpt>
      <trkpt lat="44.47031" lon="6.21307">
        <ele>798</ele>
        <time>2025-11-21T08:52:21.000Z</time>
      </trkpt>
      <trkpt lat="44.47032" lon="6.21307">
        <ele>798</ele>
        <time>2025-11-21T08:52:22.000Z</time>
      </trkpt>
      <trkpt lat="44.47033" lon="6.21306">
        <ele>798</ele>
        <time>2025-11-21T08:52:23.000Z</time>
      </trkpt>
      <trkpt lat="44.47033" lon="6.21305">
        <ele>798</ele>
        <time>2025-11-21T08:52:24.000Z</time>
      </trkpt>
      <trkpt lat="44.47034" lon="6.21304">
        <ele>798</ele>
        <time>2025-11-21T08:52:25.000Z</time>
      </trkpt>
      <trkpt lat="44.47035" lon="6.21305">
        <ele>798</ele>
        <time>2025-11-21T08:52:26.000Z</time>
      </trkpt>
      <trkpt lat="44.47035" lon="6.21305">
        <ele>798</ele>
        <time>2025-11-21T08:52:27.000Z</time>
      </trkpt>
      <trkpt lat="44.47037" lon="6.21305">
        <ele>799</ele>
        <time>2025-11-21T08:52:28.000Z</time>
      </trkpt>
      <trkpt lat="44.47038" lon="6.21305">
        <ele>798</ele>
        <time>2025-11-21T08:52:29.000Z</time>
      </trkpt>
      <trkpt lat="44.4704" lon="6.21305">
        <ele>799</ele>
        <time>2025-11-21T08:52:30.000Z</time>
      </trkpt>
      <trkpt lat="44.47041" lon="6.21305">
        <ele>798</ele>
        <time>2025-11-21T08:52:31.000Z</time>
      </trkpt>
      <trkpt lat="44.47041" lon="6.21304">
        <ele>798</ele>
        <time>2025-11-21T08:52:32.000Z</time>
      </trkpt>
      <trkpt lat="44.47042" lon="6.21304">
        <ele>798</ele>
        <time>2025-11-21T08:52:33.000Z</time>
      </trkpt>
      <trkpt lat="44.47042" lon="6.21304">
        <ele>798</ele>
        <time>2025-11-21T08:52:34.000Z</time>
      </trkpt>
      <trkpt lat="44.47043" lon="6.21303">
        <ele>798</ele>
        <time>2025-11-21T08:52:35.000Z</time>
      </trkpt>
      <trkpt lat="44.47044" lon="6.21303">
        <ele>799</ele>
        <time>2025-11-21T08:52:36.000Z</time>
      </trkpt>
      <trkpt lat="44.47044" lon="6.21303">
        <ele>799</ele>
        <time>2025-11-21T08:52:37.000Z</time>
      </trkpt>
      <trkpt lat="44.47045" lon="6.21303">
        <ele>798</ele>
        <time>2025-11-21T08:52:38.000Z</time>
      </trkpt>
      <trkpt lat="44.47046" lon="6.21304">
        <ele>799</ele>
        <time>2025-11-21T08:52:39.000Z</time>
      </trkpt>
      <trkpt lat="44.47048" lon="6.21304">
        <ele>799</ele>
        <time>2025-11-21T08:52:40.000Z</time>
      </trkpt>
      <trkpt lat="44.47048" lon="6.21304">
        <ele>799</ele>
        <time>2025-11-21T08:52:41.000Z</time>
      </trkpt>
      <trkpt lat="44.47049" lon="6.21304">
        <ele>799</ele>
        <time>2025-11-21T08:52:42.000Z</time>
      </trkpt>
      <trkpt lat="44.47051" lon="6.21303">
        <ele>798</ele>
        <time>2025-11-21T08:52:43.000Z</time>
      </trkpt>
      <trkpt lat="44.47052" lon="6.21303">
        <ele>798</ele>
        <time>2025-11-21T08:52:44.000Z</time>
      </trkpt>
      <trkpt lat="44.47053" lon="6.21303">
        <ele>798</ele>
        <time>2025-11-21T08:52:45.000Z</time>
      </trkpt>
      <trkpt lat="44.47055" lon="6.21303">
        <ele>798</ele>
        <time>2025-11-21T08:52:46.000Z</time>
      </trkpt>
      <trkpt lat="44.47056" lon="6.21303">
        <ele>797</ele>
        <time>2025-11-21T08:52:47.000Z</time>
      </trkpt>
      <trkpt lat="44.47057" lon="6.21304">
        <ele>798</ele>
        <time>2025-11-21T08:52:48.000Z</time>
      </trkpt>
      <trkpt lat="44.47058" lon="6.21305">
        <ele>798</ele>
        <time>2025-11-21T08:52:49.000Z</time>
      </trkpt>
      <trkpt lat="44.47058" lon="6.21305">
        <ele>799</ele>
        <time>2025-11-21T08:52:50.000Z</time>
      </trkpt>
      <trkpt lat="44.47059" lon="6.21306">
        <ele>798</ele>
        <time>2025-11-21T08:52:51.000Z</time>
      </trkpt>
      <trkpt lat="44.4706" lon="6.21306">
        <ele>798</ele>
        <time>2025-11-21T08:52:52.000Z</time>
      </trkpt>
      <trkpt lat="44.47061" lon="6.21306">
        <ele>798</ele>
        <time>2025-11-21T08:52:53.000Z</time>
      </trkpt>
      <trkpt lat="44.47061" lon="6.21306">
        <ele>798</ele>
        <time>2025-11-21T08:52:54.000Z</time>
      </trkpt>
      <trkpt lat="44.47063" lon="6.21305">
        <ele>798</ele>
        <time>2025-11-21T08:52:55.000Z</time>
      </trkpt>
      <trkpt lat="44.47064" lon="6.21305">
        <ele>798</ele>
        <time>2025-11-21T08:52:56.000Z</time>
      </trkpt>
      <trkpt lat="44.47065" lon="6.21305">
        <ele>797</ele>
        <time>2025-11-21T08:52:57.000Z</time>
      </trkpt>
      <trkpt lat="44.47065" lon="6.21304">
        <ele>798</ele>
        <time>2025-11-21T08:52:58.000Z</time>
      </trkpt>
      <trkpt lat="44.47067" lon="6.21303">
        <ele>799</ele>
        <time>2025-11-21T08:52:59.000Z</time>
      </trkpt>
      <trkpt lat="44.47068" lon="6.21303">
        <ele>799</ele>
        <time>2025-11-21T08:53:00.000Z</time>
      </trkpt>
      <trkpt lat="44.47069" lon="6.21302">
        <ele>799</ele>
        <time>2025-11-21T08:53:01.000Z</time>
      </trkpt>
      <trkpt lat="44.47069" lon="6.21302">
        <ele>799</ele>
        <time>2025-11-21T08:53:02.000Z</time>
      </trkpt>
      <trkpt lat="44.4707" lon="6.21301">
        <ele>800</ele>
        <time>2025-11-21T08:53:03.000Z</time>
      </trkpt>
      <trkpt lat="44.47071" lon="6.21301">
        <ele>800</ele>
        <time>2025-11-21T08:53:04.000Z</time>
      </trkpt>
      <trkpt lat="44.47071" lon="6.21301">
        <ele>801</ele>
        <time>2025-11-21T08:53:05.000Z</time>
      </trkpt>
      <trkpt lat="44.47072" lon="6.21301">
        <ele>801</ele>
        <time>2025-11-21T08:53:06.000Z</time>
      </trkpt>
      <trkpt lat="44.47072" lon="6.21301">
        <ele>800</ele>
        <time>2025-11-21T08:53:07.000Z</time>
      </trkpt>
      <trkpt lat="44.47072" lon="6.213">
        <ele>801</ele>
        <time>2025-11-21T08:53:08.000Z</time>
      </trkpt>
      <trkpt lat="44.47073" lon="6.21301">
        <ele>802</ele>
        <time>2025-11-21T08:53:09.000Z</time>
      </trkpt>
      <trkpt lat="44.47074" lon="6.21302">
        <ele>801</ele>
        <time>2025-11-21T08:53:10.000Z</time>
      </trkpt>
      <trkpt lat="44.47075" lon="6.21303">
        <ele>800</ele>
        <time>2025-11-21T08:53:11.000Z</time>
      </trkpt>
      <trkpt lat="44.47075" lon="6.21303">
        <ele>800</ele>
        <time>2025-11-21T08:53:12.000Z</time>
      </trkpt>
      <trkpt lat="44.47076" lon="6.21304">
        <ele>800</ele>
        <time>2025-11-21T08:53:13.000Z</time>
      </trkpt>
      <trkpt lat="44.47076" lon="6.21305">
        <ele>799</ele>
        <time>2025-11-21T08:53:14.000Z</time>
      </trkpt>
      <trkpt lat="44.47077" lon="6.21305">
        <ele>799</ele>
        <time>2025-11-21T08:53:15.000Z</time>
      </trkpt>
      <trkpt lat="44.47078" lon="6.21304">
        <ele>799</ele>
        <time>2025-11-21T08:53:16.000Z</time>
      </trkpt>
      <trkpt lat="44.47078" lon="6.21303">
        <ele>799</ele>
        <time>2025-11-21T08:53:17.000Z</time>
      </trkpt>
      <trkpt lat="44.47079" lon="6.21303">
        <ele>798</ele>
        <time>2025-11-21T08:53:18.000Z</time>
      </trkpt>
      <trkpt lat="44.4708" lon="6.21302">
        <ele>798</ele>
        <time>2025-11-21T08:53:19.000Z</time>
      </trkpt>
      <trkpt lat="44.4708" lon="6.21302">
        <ele>798</ele>
        <time>2025-11-21T08:53:20.000Z</time>
      </trkpt>
      <trkpt lat="44.47081" lon="6.21301">
        <ele>799</ele>
        <time>2025-11-21T08:53:21.000Z</time>
      </trkpt>
      <trkpt lat="44.47083" lon="6.21301">
        <ele>799</ele>
        <time>2025-11-21T08:53:22.000Z</time>
      </trkpt>
      <trkpt lat="44.47084" lon="6.21301">
        <ele>799</ele>
        <time>2025-11-21T08:53:23.000Z</time>
      </trkpt>
      <trkpt lat="44.47085" lon="6.213">
        <ele>799</ele>
        <time>2025-11-21T08:53:24.000Z</time>
      </trkpt>
      <trkpt lat="44.47086" lon="6.21299">
        <ele>799</ele>
        <time>2025-11-21T08:53:25.000Z</time>
      </trkpt>
      <trkpt lat="44.47087" lon="6.21299">
        <ele>800</ele>
        <time>2025-11-21T08:53:26.000Z</time>
      </trkpt>
      <trkpt lat="44.47089" lon="6.21298">
        <ele>801</ele>
        <time>2025-11-21T08:53:27.000Z</time>
      </trkpt>
      <trkpt lat="44.47089" lon="6.21297">
        <ele>801</ele>
        <time>2025-11-21T08:53:28.000Z</time>
      </trkpt>
      <trkpt lat="44.47089" lon="6.21297">
        <ele>801</ele>
        <time>2025-11-21T08:53:29.000Z</time>
      </trkpt>
      <trkpt lat="44.4709" lon="6.21296">
        <ele>800</ele>
        <time>2025-11-21T08:53:30.000Z</time>
      </trkpt>
      <trkpt lat="44.47091" lon="6.21296">
        <ele>800</ele>
        <time>2025-11-21T08:53:31.000Z</time>
      </trkpt>
      <trkpt lat="44.47092" lon="6.21295">
        <ele>800</ele>
        <time>2025-11-21T08:53:32.000Z</time>
      </trkpt>
      <trkpt lat="44.47093" lon="6.21295">
        <ele>800</ele>
        <time>2025-11-21T08:53:33.000Z</time>
      </trkpt>
      <trkpt lat="44.47094" lon="6.21294">
        <ele>800</ele>
        <time>2025-11-21T08:53:34.000Z</time>
      </trkpt>
      <trkpt lat="44.47095" lon="6.21295">
        <ele>800</ele>
        <time>2025-11-21T08:53:35.000Z</time>
      </trkpt>
      <trkpt lat="44.47095" lon="6.21295">
        <ele>802</ele>
        <time>2025-11-21T08:53:36.000Z</time>
      </trkpt>
      <trkpt lat="44.47096" lon="6.21295">
        <ele>803</ele>
        <time>2025-11-21T08:53:37.000Z</time>
      </trkpt>
      <trkpt lat="44.47096" lon="6.21294">
        <ele>802</ele>
        <time>2025-11-21T08:53:38.000Z</time>
      </trkpt>
      <trkpt lat="44.47096" lon="6.21294">
        <ele>802</ele>
        <time>2025-11-21T08:53:39.000Z</time>
      </trkpt>
      <trkpt lat="44.47097" lon="6.21294">
        <ele>802</ele>
        <time>2025-11-21T08:53:40.000Z</time>
      </trkpt>
      <trkpt lat="44.47098" lon="6.21295">
        <ele>803</ele>
        <time>2025-11-21T08:53:41.000Z</time>
      </trkpt>
      <trkpt lat="44.47099" lon="6.21295">
        <ele>803</ele>
        <time>2025-11-21T08:53:42.000Z</time>
      </trkpt>
      <trkpt lat="44.47099" lon="6.21295">
        <ele>803</ele>
        <time>2025-11-21T08:53:43.000Z</time>
      </trkpt>
      <trkpt lat="44.47099" lon="6.21295">
        <ele>803</ele>
        <time>2025-11-21T08:53:44.000Z</time>
      </trkpt>
      <trkpt lat="44.47099" lon="6.21295">
        <ele>803</ele>
        <time>2025-11-21T08:53:45.000Z</time>
      </trkpt>
      <trkpt lat="44.47101" lon="6.21296">
        <ele>804</ele>
        <time>2025-11-21T08:53:46.000Z</time>
      </trkpt>
      <trkpt lat="44.47102" lon="6.21295">
        <ele>805</ele>
        <time>2025-11-21T08:53:47.000Z</time>
      </trkpt>
      <trkpt lat="44.47103" lon="6.21294">
        <ele>805</ele>
        <time>2025-11-21T08:53:48.000Z</time>
      </trkpt>
      <trkpt lat="44.47104" lon="6.21294">
        <ele>805</ele>
        <time>2025-11-21T08:53:49.000Z</time>
      </trkpt>
      <trkpt lat="44.47106" lon="6.21294">
        <ele>805</ele>
        <time>2025-11-21T08:53:50.000Z</time>
      </trkpt>
      <trkpt lat="44.47107" lon="6.21294">
        <ele>806</ele>
        <time>2025-11-21T08:53:51.000Z</time>
      </trkpt>
      <trkpt lat="44.47109" lon="6.21294">
        <ele>806</ele>
        <time>2025-11-21T08:53:52.000Z</time>
      </trkpt>
      <trkpt lat="44.47111" lon="6.21293">
        <ele>806</ele>
        <time>2025-11-21T08:53:53.000Z</time>
      </trkpt>
      <trkpt lat="44.47111" lon="6.21294">
        <ele>806</ele>
        <time>2025-11-21T08:53:54.000Z</time>
      </trkpt>
      <trkpt lat="44.47112" lon="6.21294">
        <ele>807</ele>
        <time>2025-11-21T08:53:55.000Z</time>
      </trkpt>
      <trkpt lat="44.47113" lon="6.21294">
        <ele>807</ele>
        <time>2025-11-21T08:53:56.000Z</time>
      </trkpt>
      <trkpt lat="44.47114" lon="6.21294">
        <ele>808</ele>
        <time>2025-11-21T08:53:57.000Z</time>
      </trkpt>
      <trkpt lat="44.47115" lon="6.21293">
        <ele>808</ele>
        <time>2025-11-21T08:53:58.000Z</time>
      </trkpt>
      <trkpt lat="44.47116" lon="6.21293">
        <ele>809</ele>
        <time>2025-11-21T08:53:59.000Z</time>
      </trkpt>
      <trkpt lat="44.47116" lon="6.21293">
        <ele>809</ele>
        <time>2025-11-21T08:54:00.000Z</time>
      </trkpt>
      <trkpt lat="44.47117" lon="6.21293">
        <ele>809</ele>
        <time>2025-11-21T08:54:01.000Z</time>
      </trkpt>
      <trkpt lat="44.47118" lon="6.21292">
        <ele>810</ele>
        <time>2025-11-21T08:54:02.000Z</time>
      </trkpt>
      <trkpt lat="44.47118" lon="6.21292">
        <ele>810</ele>
        <time>2025-11-21T08:54:03.000Z</time>
      </trkpt>
      <trkpt lat="44.47118" lon="6.21293">
        <ele>809</ele>
        <time>2025-11-21T08:54:04.000Z</time>
      </trkpt>
      <trkpt lat="44.47119" lon="6.21292">
        <ele>809</ele>
        <time>2025-11-21T08:54:05.000Z</time>
      </trkpt>
      <trkpt lat="44.47119" lon="6.21292">
        <ele>808</ele>
        <time>2025-11-21T08:54:06.000Z</time>
      </trkpt>
      <trkpt lat="44.47121" lon="6.21292">
        <ele>808</ele>
        <time>2025-11-21T08:54:07.000Z</time>
      </trkpt>
      <trkpt lat="44.47121" lon="6.21292">
        <ele>809</ele>
        <time>2025-11-21T08:54:08.000Z</time>
      </trkpt>
      <trkpt lat="44.47122" lon="6.21293">
        <ele>808</ele>
        <time>2025-11-21T08:54:09.000Z</time>
      </trkpt>
      <trkpt lat="44.47122" lon="6.21293">
        <ele>809</ele>
        <time>2025-11-21T08:54:10.000Z</time>
      </trkpt>
      <trkpt lat="44.47122" lon="6.21292">
        <ele>809</ele>
        <time>2025-11-21T08:54:11.000Z</time>
      </trkpt>
      <trkpt lat="44.47123" lon="6.21292">
        <ele>810</ele>
        <time>2025-11-21T08:54:12.000Z</time>
      </trkpt>
      <trkpt lat="44.47123" lon="6.21292">
        <ele>810</ele>
        <time>2025-11-21T08:54:13.000Z</time>
      </trkpt>
      <trkpt lat="44.47123" lon="6.21292">
        <ele>810</ele>
        <time>2025-11-21T08:54:14.000Z</time>
      </trkpt>
      <trkpt lat="44.47124" lon="6.21293">
        <ele>810</ele>
        <time>2025-11-21T08:54:15.000Z</time>
      </trkpt>
      <trkpt lat="44.47124" lon="6.21292">
        <ele>812</ele>
        <time>2025-11-21T08:54:16.000Z</time>
      </trkpt>
      <trkpt lat="44.47125" lon="6.21292">
        <ele>812</ele>
        <time>2025-11-21T08:54:17.000Z</time>
      </trkpt>
      <trkpt lat="44.47126" lon="6.21293">
        <ele>811</ele>
        <time>2025-11-21T08:54:18.000Z</time>
      </trkpt>
      <trkpt lat="44.47126" lon="6.21294">
        <ele>812</ele>
        <time>2025-11-21T08:54:19.000Z</time>
      </trkpt>
      <trkpt lat="44.47126" lon="6.21294">
        <ele>811</ele>
        <time>2025-11-21T08:54:20.000Z</time>
      </trkpt>
      <trkpt lat="44.47127" lon="6.21294">
        <ele>811</ele>
        <time>2025-11-21T08:54:21.000Z</time>
      </trkpt>
      <trkpt lat="44.47128" lon="6.21294">
        <ele>811</ele>
        <time>2025-11-21T08:54:22.000Z</time>
      </trkpt>
      <trkpt lat="44.47129" lon="6.21295">
        <ele>811</ele>
        <time>2025-11-21T08:54:23.000Z</time>
      </trkpt>
      <trkpt lat="44.4713" lon="6.21295">
        <ele>811</ele>
        <time>2025-11-21T08:54:24.000Z</time>
      </trkpt>
      <trkpt lat="44.47131" lon="6.21295">
        <ele>812</ele>
        <time>2025-11-21T08:54:25.000Z</time>
      </trkpt>
      <trkpt lat="44.47132" lon="6.21294">
        <ele>811</ele>
        <time>2025-11-21T08:54:26.000Z</time>
      </trkpt>
      <trkpt lat="44.47133" lon="6.21293">
        <ele>812</ele>
        <time>2025-11-21T08:54:27.000Z</time>
      </trkpt>
      <trkpt lat="44.47135" lon="6.21292">
        <ele>812</ele>
        <time>2025-11-21T08:54:28.000Z</time>
      </trkpt>
      <trkpt lat="44.47136" lon="6.21292">
        <ele>812</ele>
        <time>2025-11-21T08:54:29.000Z</time>
      </trkpt>
      <trkpt lat="44.47137" lon="6.21292">
        <ele>812</ele>
        <time>2025-11-21T08:54:30.000Z</time>
      </trkpt>
      <trkpt lat="44.47139" lon="6.21292">
        <ele>811</ele>
        <time>2025-11-21T08:54:31.000Z</time>
      </trkpt>
      <trkpt lat="44.4714" lon="6.21292">
        <ele>811</ele>
        <time>2025-11-21T08:54:32.000Z</time>
      </trkpt>
      <trkpt lat="44.47141" lon="6.21294">
        <ele>811</ele>
        <time>2025-11-21T08:54:33.000Z</time>
      </trkpt>
      <trkpt lat="44.47143" lon="6.21295">
        <ele>810</ele>
        <time>2025-11-21T08:54:34.000Z</time>
      </trkpt>
      <trkpt lat="44.47143" lon="6.21296">
        <ele>808</ele>
        <time>2025-11-21T08:54:35.000Z</time>
      </trkpt>
      <trkpt lat="44.47144" lon="6.21298">
        <ele>807</ele>
        <time>2025-11-21T08:54:36.000Z</time>
      </trkpt>
      <trkpt lat="44.47145" lon="6.21299">
        <ele>806</ele>
        <time>2025-11-21T08:54:37.000Z</time>
      </trkpt>
      <trkpt lat="44.47146" lon="6.213">
        <ele>806</ele>
        <time>2025-11-21T08:54:38.000Z</time>
      </trkpt>
      <trkpt lat="44.47146" lon="6.213">
        <ele>806</ele>
        <time>2025-11-21T08:54:39.000Z</time>
      </trkpt>
      <trkpt lat="44.47146" lon="6.213">
        <ele>806</ele>
        <time>2025-11-21T08:54:40.000Z</time>
      </trkpt>
      <trkpt lat="44.47146" lon="6.21301">
        <ele>807</ele>
        <time>2025-11-21T08:54:41.000Z</time>
      </trkpt>
      <trkpt lat="44.47147" lon="6.213">
        <ele>807</ele>
        <time>2025-11-21T08:54:42.000Z</time>
      </trkpt>
      <trkpt lat="44.47147" lon="6.213">
        <ele>806</ele>
        <time>2025-11-21T08:54:43.000Z</time>
      </trkpt>
      <trkpt lat="44.47147" lon="6.213">
        <ele>807</ele>
        <time>2025-11-21T08:54:44.000Z</time>
      </trkpt>
      <trkpt lat="44.47148" lon="6.213">
        <ele>806</ele>
        <time>2025-11-21T08:54:45.000Z</time>
      </trkpt>
      <trkpt lat="44.47148" lon="6.21299">
        <ele>807</ele>
        <time>2025-11-21T08:54:46.000Z</time>
      </trkpt>
      <trkpt lat="44.47149" lon="6.21298">
        <ele>807</ele>
        <time>2025-11-21T08:54:47.000Z</time>
      </trkpt>
      <trkpt lat="44.47149" lon="6.21297">
        <ele>806</ele>
        <time>2025-11-21T08:54:48.000Z</time>
      </trkpt>
      <trkpt lat="44.47149" lon="6.21298">
        <ele>805</ele>
        <time>2025-11-21T08:54:49.000Z</time>
      </trkpt>
      <trkpt lat="44.47149" lon="6.21298">
        <ele>805</ele>
        <time>2025-11-21T08:54:50.000Z</time>
      </trkpt>
      <trkpt lat="44.47149" lon="6.21299">
        <ele>805</ele>
        <time>2025-11-21T08:54:51.000Z</time>
      </trkpt>
      <trkpt lat="44.47149" lon="6.21299">
        <ele>805</ele>
        <time>2025-11-21T08:54:52.000Z</time>
      </trkpt>
      <trkpt lat="44.47149" lon="6.21299">
        <ele>805</ele>
        <time>2025-11-21T08:54:53.000Z</time>
      </trkpt>
      <trkpt lat="44.47149" lon="6.21299">
        <ele>805</ele>
        <time>2025-11-21T08:54:54.000Z</time>
      </trkpt>
      <trkpt lat="44.47149" lon="6.21299">
        <ele>805</ele>
        <time>2025-11-21T08:54:55.000Z</time>
      </trkpt>
      <trkpt lat="44.47149" lon="6.21299">
        <ele>805</ele>
        <time>2025-11-21T08:54:56.000Z</time>
      </trkpt>
      <trkpt lat="44.4715" lon="6.21295">
        <ele>805</ele>
        <time>2025-11-21T08:54:57.000Z</time>
      </trkpt>
      <trkpt lat="44.4715" lon="6.21294">
        <ele>805</ele>
        <time>2025-11-21T08:54:58.000Z</time>
      </trkpt>
      <trkpt lat="44.4715" lon="6.21293">
        <ele>806</ele>
        <time>2025-11-21T08:54:59.000Z</time>
      </trkpt>
      <trkpt lat="44.4715" lon="6.21292">
        <ele>805</ele>
        <time>2025-11-21T08:55:00.000Z</time>
      </trkpt>
      <trkpt lat="44.47148" lon="6.21292">
        <ele>806</ele>
        <time>2025-11-21T08:55:01.000Z</time>
      </trkpt>
      <trkpt lat="44.47147" lon="6.21291">
        <ele>806</ele>
        <time>2025-11-21T08:55:02.000Z</time>
      </trkpt>
      <trkpt lat="44.47146" lon="6.21291">
        <ele>807</ele>
        <time>2025-11-21T08:55:03.000Z</time>
      </trkpt>
      <trkpt lat="44.47146" lon="6.21289">
        <ele>807</ele>
        <time>2025-11-21T08:55:04.000Z</time>
      </trkpt>
      <trkpt lat="44.47145" lon="6.21288">
        <ele>807</ele>
        <time>2025-11-21T08:55:05.000Z</time>
      </trkpt>
      <trkpt lat="44.47145" lon="6.21287">
        <ele>807</ele>
        <time>2025-11-21T08:55:06.000Z</time>
      </trkpt>
      <trkpt lat="44.47145" lon="6.21286">
        <ele>808</ele>
        <time>2025-11-21T08:55:07.000Z</time>
      </trkpt>
      <trkpt lat="44.47145" lon="6.21286">
        <ele>808</ele>
        <time>2025-11-21T08:55:08.000Z</time>
      </trkpt>
      <trkpt lat="44.47145" lon="6.21286">
        <ele>808</ele>
        <time>2025-11-21T08:55:09.000Z</time>
      </trkpt>
      <trkpt lat="44.47145" lon="6.21286">
        <ele>808</ele>
        <time>2025-11-21T08:55:10.000Z</time>
      </trkpt>
      <trkpt lat="44.47145" lon="6.21286">
        <ele>808</ele>
        <time>2025-11-21T08:55:11.000Z</time>
      </trkpt>
      <trkpt lat="44.47145" lon="6.21286">
        <ele>808</ele>
        <time>2025-11-21T08:55:12.000Z</time>
      </trkpt>
      <trkpt lat="44.47145" lon="6.21286">
        <ele>808</ele>
        <time>2025-11-21T08:55:13.000Z</time>
      </trkpt>
      <trkpt lat="44.47145" lon="6.21284">
        <ele>809</ele>
        <time>2025-11-21T08:55:14.000Z</time>
      </trkpt>
      <trkpt lat="44.47144" lon="6.21283">
        <ele>809</ele>
        <time>2025-11-21T08:55:15.000Z</time>
      </trkpt>
      <trkpt lat="44.47144" lon="6.21282">
        <ele>810</ele>
        <time>2025-11-21T08:55:16.000Z</time>
      </trkpt>
      <trkpt lat="44.47144" lon="6.21282">
        <ele>810</ele>
        <time>2025-11-21T08:55:17.000Z</time>
      </trkpt>
      <trkpt lat="44.47144" lon="6.21281">
        <ele>810</ele>
        <time>2025-11-21T08:55:18.000Z</time>
      </trkpt>
      <trkpt lat="44.47145" lon="6.2128">
        <ele>810</ele>
        <time>2025-11-21T08:55:19.000Z</time>
      </trkpt>
      <trkpt lat="44.47146" lon="6.21278">
        <ele>810</ele>
        <time>2025-11-21T08:55:20.000Z</time>
      </trkpt>
      <trkpt lat="44.47146" lon="6.21276">
        <ele>810</ele>
        <time>2025-11-21T08:55:21.000Z</time>
      </trkpt>
      <trkpt lat="44.47146" lon="6.21275">
        <ele>810</ele>
        <time>2025-11-21T08:55:22.000Z</time>
      </trkpt>
      <trkpt lat="44.47146" lon="6.21274">
        <ele>810</ele>
        <time>2025-11-21T08:55:23.000Z</time>
      </trkpt>
      <trkpt lat="44.47146" lon="6.21274">
        <ele>810</ele>
        <time>2025-11-21T08:55:24.000Z</time>
      </trkpt>
      <trkpt lat="44.47146" lon="6.21273">
        <ele>810</ele>
        <time>2025-11-21T08:55:25.000Z</time>
      </trkpt>
      <trkpt lat="44.47147" lon="6.21272">
        <ele>810</ele>
        <time>2025-11-21T08:55:26.000Z</time>
      </trkpt>
      <trkpt lat="44.47147" lon="6.21272">
        <ele>810</ele>
        <time>2025-11-21T08:55:27.000Z</time>
      </trkpt>
      <trkpt lat="44.47147" lon="6.21271">
        <ele>811</ele>
        <time>2025-11-21T08:55:28.000Z</time>
      </trkpt>
      <trkpt lat="44.47146" lon="6.2127">
        <ele>811</ele>
        <time>2025-11-21T08:55:29.000Z</time>
      </trkpt>
      <trkpt lat="44.47146" lon="6.21269">
        <ele>810</ele>
        <time>2025-11-21T08:55:30.000Z</time>
      </trkpt>
      <trkpt lat="44.47145" lon="6.21267">
        <ele>810</ele>
        <time>2025-11-21T08:55:31.000Z</time>
      </trkpt>
      <trkpt lat="44.47145" lon="6.21265">
        <ele>810</ele>
        <time>2025-11-21T08:55:32.000Z</time>
      </trkpt>
      <trkpt lat="44.47145" lon="6.21264">
        <ele>810</ele>
        <time>2025-11-21T08:55:33.000Z</time>
      </trkpt>
      <trkpt lat="44.47145" lon="6.21263">
        <ele>810</ele>
        <time>2025-11-21T08:55:34.000Z</time>
      </trkpt>
      <trkpt lat="44.47144" lon="6.21262">
        <ele>810</ele>
        <time>2025-11-21T08:55:35.000Z</time>
      </trkpt>
      <trkpt lat="44.47143" lon="6.21262">
        <ele>809</ele>
        <time>2025-11-21T08:55:36.000Z</time>
      </trkpt>
      <trkpt lat="44.47143" lon="6.21261">
        <ele>810</ele>
        <time>2025-11-21T08:55:37.000Z</time>
      </trkpt>
      <trkpt lat="44.47143" lon="6.2126">
        <ele>810</ele>
        <time>2025-11-21T08:55:38.000Z</time>
      </trkpt>
      <trkpt lat="44.47143" lon="6.2126">
        <ele>810</ele>
        <time>2025-11-21T08:55:39.000Z</time>
      </trkpt>
      <trkpt lat="44.47143" lon="6.21258">
        <ele>811</ele>
        <time>2025-11-21T08:55:40.000Z</time>
      </trkpt>
      <trkpt lat="44.47143" lon="6.21258">
        <ele>811</ele>
        <time>2025-11-21T08:55:41.000Z</time>
      </trkpt>
      <trkpt lat="44.47143" lon="6.21257">
        <ele>811</ele>
        <time>2025-11-21T08:55:42.000Z</time>
      </trkpt>
      <trkpt lat="44.47143" lon="6.21257">
        <ele>811</ele>
        <time>2025-11-21T08:55:43.000Z</time>
      </trkpt>
      <trkpt lat="44.47143" lon="6.21257">
        <ele>811</ele>
        <time>2025-11-21T08:55:44.000Z</time>
      </trkpt>
      <trkpt lat="44.47143" lon="6.21254">
        <ele>811</ele>
        <time>2025-11-21T08:55:45.000Z</time>
      </trkpt>
      <trkpt lat="44.47143" lon="6.21252">
        <ele>811</ele>
        <time>2025-11-21T08:55:46.000Z</time>
      </trkpt>
      <trkpt lat="44.47142" lon="6.21251">
        <ele>811</ele>
        <time>2025-11-21T08:55:47.000Z</time>
      </trkpt>
      <trkpt lat="44.47142" lon="6.21251">
        <ele>813</ele>
        <time>2025-11-21T08:55:48.000Z</time>
      </trkpt>
      <trkpt lat="44.47142" lon="6.2125">
        <ele>813</ele>
        <time>2025-11-21T08:55:49.000Z</time>
      </trkpt>
      <trkpt lat="44.47141" lon="6.21249">
        <ele>814</ele>
        <time>2025-11-21T08:55:50.000Z</time>
      </trkpt>
      <trkpt lat="44.47141" lon="6.21247">
        <ele>815</ele>
        <time>2025-11-21T08:55:51.000Z</time>
      </trkpt>
      <trkpt lat="44.47141" lon="6.21246">
        <ele>815</ele>
        <time>2025-11-21T08:55:52.000Z</time>
      </trkpt>
      <trkpt lat="44.4714" lon="6.21245">
        <ele>815</ele>
        <time>2025-11-21T08:55:53.000Z</time>
      </trkpt>
      <trkpt lat="44.47139" lon="6.21244">
        <ele>816</ele>
        <time>2025-11-21T08:55:54.000Z</time>
      </trkpt>
      <trkpt lat="44.47138" lon="6.21243">
        <ele>816</ele>
        <time>2025-11-21T08:55:55.000Z</time>
      </trkpt>
      <trkpt lat="44.47138" lon="6.21242">
        <ele>816</ele>
        <time>2025-11-21T08:55:56.000Z</time>
      </trkpt>
      <trkpt lat="44.47137" lon="6.21242">
        <ele>817</ele>
        <time>2025-11-21T08:55:57.000Z</time>
      </trkpt>
      <trkpt lat="44.47137" lon="6.21242">
        <ele>817</ele>
        <time>2025-11-21T08:55:58.000Z</time>
      </trkpt>
      <trkpt lat="44.47137" lon="6.21242">
        <ele>817</ele>
        <time>2025-11-21T08:55:59.000Z</time>
      </trkpt>
      <trkpt lat="44.47135" lon="6.21238">
        <ele>817</ele>
        <time>2025-11-21T08:56:00.000Z</time>
      </trkpt>
      <trkpt lat="44.47135" lon="6.21237">
        <ele>818</ele>
        <time>2025-11-21T08:56:01.000Z</time>
      </trkpt>
      <trkpt lat="44.47134" lon="6.21236">
        <ele>817</ele>
        <time>2025-11-21T08:56:02.000Z</time>
      </trkpt>
      <trkpt lat="44.47134" lon="6.21235">
        <ele>818</ele>
        <time>2025-11-21T08:56:03.000Z</time>
      </trkpt>
      <trkpt lat="44.47134" lon="6.21235">
        <ele>819</ele>
        <time>2025-11-21T08:56:04.000Z</time>
      </trkpt>
      <trkpt lat="44.47134" lon="6.21234">
        <ele>819</ele>
        <time>2025-11-21T08:56:05.000Z</time>
      </trkpt>
      <trkpt lat="44.47133" lon="6.21233">
        <ele>819</ele>
        <time>2025-11-21T08:56:06.000Z</time>
      </trkpt>
      <trkpt lat="44.47132" lon="6.21233">
        <ele>819</ele>
        <time>2025-11-21T08:56:07.000Z</time>
      </trkpt>
      <trkpt lat="44.47132" lon="6.21232">
        <ele>819</ele>
        <time>2025-11-21T08:56:08.000Z</time>
      </trkpt>
      <trkpt lat="44.47131" lon="6.21232">
        <ele>819</ele>
        <time>2025-11-21T08:56:09.000Z</time>
      </trkpt>
      <trkpt lat="44.47131" lon="6.21232">
        <ele>819</ele>
        <time>2025-11-21T08:56:10.000Z</time>
      </trkpt>
      <trkpt lat="44.4713" lon="6.21231">
        <ele>820</ele>
        <time>2025-11-21T08:56:11.000Z</time>
      </trkpt>
      <trkpt lat="44.47129" lon="6.2123">
        <ele>820</ele>
        <time>2025-11-21T08:56:12.000Z</time>
      </trkpt>
      <trkpt lat="44.47128" lon="6.21229">
        <ele>821</ele>
        <time>2025-11-21T08:56:13.000Z</time>
      </trkpt>
      <trkpt lat="44.47126" lon="6.21228">
        <ele>821</ele>
        <time>2025-11-21T08:56:14.000Z</time>
      </trkpt>
      <trkpt lat="44.47126" lon="6.21227">
        <ele>820</ele>
        <time>2025-11-21T08:56:15.000Z</time>
      </trkpt>
      <trkpt lat="44.47126" lon="6.21227">
        <ele>820</ele>
        <time>2025-11-21T08:56:16.000Z</time>
      </trkpt>
      <trkpt lat="44.47126" lon="6.21227">
        <ele>820</ele>
        <time>2025-11-21T08:56:17.000Z</time>
      </trkpt>
      <trkpt lat="44.47124" lon="6.21224">
        <ele>821</ele>
        <time>2025-11-21T08:56:18.000Z</time>
      </trkpt>
      <trkpt lat="44.47124" lon="6.21224">
        <ele>820</ele>
        <time>2025-11-21T08:56:19.000Z</time>
      </trkpt>
      <trkpt lat="44.47123" lon="6.21222">
        <ele>820</ele>
        <time>2025-11-21T08:56:20.000Z</time>
      </trkpt>
      <trkpt lat="44.47123" lon="6.21221">
        <ele>821</ele>
        <time>2025-11-21T08:56:21.000Z</time>
      </trkpt>
      <trkpt lat="44.47123" lon="6.21221">
        <ele>821</ele>
        <time>2025-11-21T08:56:22.000Z</time>
      </trkpt>
      <trkpt lat="44.47123" lon="6.21221">
        <ele>821</ele>
        <time>2025-11-21T08:56:23.000Z</time>
      </trkpt>
      <trkpt lat="44.47121" lon="6.21219">
        <ele>821</ele>
        <time>2025-11-21T08:56:24.000Z</time>
      </trkpt>
      <trkpt lat="44.4712" lon="6.21219">
        <ele>822</ele>
        <time>2025-11-21T08:56:25.000Z</time>
      </trkpt>
      <trkpt lat="44.4712" lon="6.21218">
        <ele>822</ele>
        <time>2025-11-21T08:56:26.000Z</time>
      </trkpt>
      <trkpt lat="44.47119" lon="6.21218">
        <ele>822</ele>
        <time>2025-11-21T08:56:27.000Z</time>
      </trkpt>
      <trkpt lat="44.47118" lon="6.21217">
        <ele>823</ele>
        <time>2025-11-21T08:56:28.000Z</time>
      </trkpt>
      <trkpt lat="44.47116" lon="6.21217">
        <ele>824</ele>
        <time>2025-11-21T08:56:29.000Z</time>
      </trkpt>
      <trkpt lat="44.47116" lon="6.21216">
        <ele>825</ele>
        <time>2025-11-21T08:56:30.000Z</time>
      </trkpt>
      <trkpt lat="44.47115" lon="6.21216">
        <ele>825</ele>
        <time>2025-11-21T08:56:31.000Z</time>
      </trkpt>
      <trkpt lat="44.47114" lon="6.21215">
        <ele>825</ele>
        <time>2025-11-21T08:56:32.000Z</time>
      </trkpt>
      <trkpt lat="44.47114" lon="6.21215">
        <ele>825</ele>
        <time>2025-11-21T08:56:33.000Z</time>
      </trkpt>
      <trkpt lat="44.47114" lon="6.21214">
        <ele>826</ele>
        <time>2025-11-21T08:56:34.000Z</time>
      </trkpt>
      <trkpt lat="44.47114" lon="6.21213">
        <ele>826</ele>
        <time>2025-11-21T08:56:35.000Z</time>
      </trkpt>
      <trkpt lat="44.47113" lon="6.21212">
        <ele>827</ele>
        <time>2025-11-21T08:56:36.000Z</time>
      </trkpt>
      <trkpt lat="44.47114" lon="6.21211">
        <ele>828</ele>
        <time>2025-11-21T08:56:37.000Z</time>
      </trkpt>
      <trkpt lat="44.47114" lon="6.2121">
        <ele>828</ele>
        <time>2025-11-21T08:56:38.000Z</time>
      </trkpt>
      <trkpt lat="44.47114" lon="6.21209">
        <ele>829</ele>
        <time>2025-11-21T08:56:39.000Z</time>
      </trkpt>
      <trkpt lat="44.47113" lon="6.21209">
        <ele>830</ele>
        <time>2025-11-21T08:56:40.000Z</time>
      </trkpt>
      <trkpt lat="44.47112" lon="6.21209">
        <ele>830</ele>
        <time>2025-11-21T08:56:41.000Z</time>
      </trkpt>
      <trkpt lat="44.47112" lon="6.21209">
        <ele>831</ele>
        <time>2025-11-21T08:56:42.000Z</time>
      </trkpt>
      <trkpt lat="44.47113" lon="6.2121">
        <ele>832</ele>
        <time>2025-11-21T08:56:43.000Z</time>
      </trkpt>
      <trkpt lat="44.47113" lon="6.2121">
        <ele>832</ele>
        <time>2025-11-21T08:56:44.000Z</time>
      </trkpt>
      <trkpt lat="44.47113" lon="6.21211">
        <ele>832</ele>
        <time>2025-11-21T08:56:45.000Z</time>
      </trkpt>
      <trkpt lat="44.47114" lon="6.21211">
        <ele>833</ele>
        <time>2025-11-21T08:56:46.000Z</time>
      </trkpt>
      <trkpt lat="44.47115" lon="6.21211">
        <ele>833</ele>
        <time>2025-11-21T08:56:47.000Z</time>
      </trkpt>
      <trkpt lat="44.47115" lon="6.21211">
        <ele>832</ele>
        <time>2025-11-21T08:56:48.000Z</time>
      </trkpt>
      <trkpt lat="44.47115" lon="6.21211">
        <ele>832</ele>
        <time>2025-11-21T08:56:49.000Z</time>
      </trkpt>
      <trkpt lat="44.47116" lon="6.21211">
        <ele>832</ele>
        <time>2025-11-21T08:56:50.000Z</time>
      </trkpt>
      <trkpt lat="44.47116" lon="6.21211">
        <ele>832</ele>
        <time>2025-11-21T08:56:51.000Z</time>
      </trkpt>
      <trkpt lat="44.47116" lon="6.21211">
        <ele>832</ele>
        <time>2025-11-21T08:56:52.000Z</time>
      </trkpt>
      <trkpt lat="44.47117" lon="6.21212">
        <ele>833</ele>
        <time>2025-11-21T08:56:53.000Z</time>
      </trkpt>
      <trkpt lat="44.47118" lon="6.21212">
        <ele>834</ele>
        <time>2025-11-21T08:56:54.000Z</time>
      </trkpt>
      <trkpt lat="44.47119" lon="6.21212">
        <ele>834</ele>
        <time>2025-11-21T08:56:55.000Z</time>
      </trkpt>
      <trkpt lat="44.4712" lon="6.21213">
        <ele>834</ele>
        <time>2025-11-21T08:56:56.000Z</time>
      </trkpt>
      <trkpt lat="44.47121" lon="6.21212">
        <ele>834</ele>
        <time>2025-11-21T08:56:57.000Z</time>
      </trkpt>
      <trkpt lat="44.47121" lon="6.21211">
        <ele>834</ele>
        <time>2025-11-21T08:56:58.000Z</time>
      </trkpt>
      <trkpt lat="44.47122" lon="6.21211">
        <ele>834</ele>
        <time>2025-11-21T08:56:59.000Z</time>
      </trkpt>
      <trkpt lat="44.47123" lon="6.21211">
        <ele>834</ele>
        <time>2025-11-21T08:57:00.000Z</time>
      </trkpt>
      <trkpt lat="44.47123" lon="6.21211">
        <ele>834</ele>
        <time>2025-11-21T08:57:01.000Z</time>
      </trkpt>
      <trkpt lat="44.47123" lon="6.21211">
        <ele>834</ele>
        <time>2025-11-21T08:57:02.000Z</time>
      </trkpt>
      <trkpt lat="44.47125" lon="6.21212">
        <ele>833</ele>
        <time>2025-11-21T08:57:03.000Z</time>
      </trkpt>
      <trkpt lat="44.47127" lon="6.21212">
        <ele>833</ele>
        <time>2025-11-21T08:57:04.000Z</time>
      </trkpt>
      <trkpt lat="44.47128" lon="6.21213">
        <ele>833</ele>
        <time>2025-11-21T08:57:05.000Z</time>
      </trkpt>
      <trkpt lat="44.47128" lon="6.21213">
        <ele>833</ele>
        <time>2025-11-21T08:57:06.000Z</time>
      </trkpt>
      <trkpt lat="44.47129" lon="6.21213">
        <ele>833</ele>
        <time>2025-11-21T08:57:07.000Z</time>
      </trkpt>
      <trkpt lat="44.4713" lon="6.21213">
        <ele>834</ele>
        <time>2025-11-21T08:57:08.000Z</time>
      </trkpt>
      <trkpt lat="44.47131" lon="6.21213">
        <ele>835</ele>
        <time>2025-11-21T08:57:09.000Z</time>
      </trkpt>
      <trkpt lat="44.47132" lon="6.21214">
        <ele>835</ele>
        <time>2025-11-21T08:57:10.000Z</time>
      </trkpt>
      <trkpt lat="44.47132" lon="6.21214">
        <ele>835</ele>
        <time>2025-11-21T08:57:11.000Z</time>
      </trkpt>
      <trkpt lat="44.47133" lon="6.21215">
        <ele>836</ele>
        <time>2025-11-21T08:57:12.000Z</time>
      </trkpt>
      <trkpt lat="44.47133" lon="6.21215">
        <ele>836</ele>
        <time>2025-11-21T08:57:13.000Z</time>
      </trkpt>
      <trkpt lat="44.47134" lon="6.21216">
        <ele>835</ele>
        <time>2025-11-21T08:57:14.000Z</time>
      </trkpt>
      <trkpt lat="44.47135" lon="6.21217">
        <ele>836</ele>
        <time>2025-11-21T08:57:15.000Z</time>
      </trkpt>
      <trkpt lat="44.47136" lon="6.21218">
        <ele>836</ele>
        <time>2025-11-21T08:57:16.000Z</time>
      </trkpt>
      <trkpt lat="44.47136" lon="6.21219">
        <ele>835</ele>
        <time>2025-11-21T08:57:17.000Z</time>
      </trkpt>
      <trkpt lat="44.47136" lon="6.2122">
        <ele>835</ele>
        <time>2025-11-21T08:57:18.000Z</time>
      </trkpt>
      <trkpt lat="44.47137" lon="6.21221">
        <ele>835</ele>
        <time>2025-11-21T08:57:19.000Z</time>
      </trkpt>
      <trkpt lat="44.47137" lon="6.21221">
        <ele>835</ele>
        <time>2025-11-21T08:57:20.000Z</time>
      </trkpt>
      <trkpt lat="44.47139" lon="6.21221">
        <ele>834</ele>
        <time>2025-11-21T08:57:21.000Z</time>
      </trkpt>
      <trkpt lat="44.47139" lon="6.21221">
        <ele>834</ele>
        <time>2025-11-21T08:57:22.000Z</time>
      </trkpt>
      <trkpt lat="44.47139" lon="6.2122">
        <ele>834</ele>
        <time>2025-11-21T08:57:23.000Z</time>
      </trkpt>
      <trkpt lat="44.4714" lon="6.2122">
        <ele>835</ele>
        <time>2025-11-21T08:57:24.000Z</time>
      </trkpt>
      <trkpt lat="44.4714" lon="6.21219">
        <ele>835</ele>
        <time>2025-11-21T08:57:25.000Z</time>
      </trkpt>
      <trkpt lat="44.47142" lon="6.21219">
        <ele>835</ele>
        <time>2025-11-21T08:57:26.000Z</time>
      </trkpt>
      <trkpt lat="44.47143" lon="6.21219">
        <ele>835</ele>
        <time>2025-11-21T08:57:27.000Z</time>
      </trkpt>
      <trkpt lat="44.47144" lon="6.21218">
        <ele>835</ele>
        <time>2025-11-21T08:57:28.000Z</time>
      </trkpt>
      <trkpt lat="44.47145" lon="6.21218">
        <ele>836</ele>
        <time>2025-11-21T08:57:29.000Z</time>
      </trkpt>
      <trkpt lat="44.47145" lon="6.21218">
        <ele>836</ele>
        <time>2025-11-21T08:57:30.000Z</time>
      </trkpt>
      <trkpt lat="44.47146" lon="6.21218">
        <ele>836</ele>
        <time>2025-11-21T08:57:31.000Z</time>
      </trkpt>
      <trkpt lat="44.47147" lon="6.21218">
        <ele>836</ele>
        <time>2025-11-21T08:57:32.000Z</time>
      </trkpt>
      <trkpt lat="44.47148" lon="6.21217">
        <ele>836</ele>
        <time>2025-11-21T08:57:33.000Z</time>
      </trkpt>
      <trkpt lat="44.47149" lon="6.21217">
        <ele>836</ele>
        <time>2025-11-21T08:57:34.000Z</time>
      </trkpt>
      <trkpt lat="44.4715" lon="6.21216">
        <ele>835</ele>
        <time>2025-11-21T08:57:35.000Z</time>
      </trkpt>
      <trkpt lat="44.47151" lon="6.21217">
        <ele>835</ele>
        <time>2025-11-21T08:57:36.000Z</time>
      </trkpt>
      <trkpt lat="44.47152" lon="6.21217">
        <ele>835</ele>
        <time>2025-11-21T08:57:37.000Z</time>
      </trkpt>
      <trkpt lat="44.47153" lon="6.21217">
        <ele>836</ele>
        <time>2025-11-21T08:57:38.000Z</time>
      </trkpt>
      <trkpt lat="44.47154" lon="6.21217">
        <ele>835</ele>
        <time>2025-11-21T08:57:39.000Z</time>
      </trkpt>
      <trkpt lat="44.47155" lon="6.21217">
        <ele>835</ele>
        <time>2025-11-21T08:57:40.000Z</time>
      </trkpt>
      <trkpt lat="44.47156" lon="6.21216">
        <ele>834</ele>
        <time>2025-11-21T08:57:41.000Z</time>
      </trkpt>
      <trkpt lat="44.47156" lon="6.21216">
        <ele>834</ele>
        <time>2025-11-21T08:57:42.000Z</time>
      </trkpt>
      <trkpt lat="44.47157" lon="6.21216">
        <ele>834</ele>
        <time>2025-11-21T08:57:43.000Z</time>
      </trkpt>
      <trkpt lat="44.47157" lon="6.21215">
        <ele>835</ele>
        <time>2025-11-21T08:57:44.000Z</time>
      </trkpt>
      <trkpt lat="44.47158" lon="6.21214">
        <ele>835</ele>
        <time>2025-11-21T08:57:45.000Z</time>
      </trkpt>
      <trkpt lat="44.47158" lon="6.21216">
        <ele>835</ele>
        <time>2025-11-21T08:57:46.000Z</time>
      </trkpt>
      <trkpt lat="44.47158" lon="6.21218">
        <ele>835</ele>
        <time>2025-11-21T08:57:47.000Z</time>
      </trkpt>
      <trkpt lat="44.47159" lon="6.21218">
        <ele>836</ele>
        <time>2025-11-21T08:57:48.000Z</time>
      </trkpt>
      <trkpt lat="44.47159" lon="6.21218">
        <ele>836</ele>
        <time>2025-11-21T08:57:49.000Z</time>
      </trkpt>
      <trkpt lat="44.4716" lon="6.21218">
        <ele>836</ele>
        <time>2025-11-21T08:57:50.000Z</time>
      </trkpt>
      <trkpt lat="44.47161" lon="6.21217">
        <ele>835</ele>
        <time>2025-11-21T08:57:51.000Z</time>
      </trkpt>
      <trkpt lat="44.47162" lon="6.21217">
        <ele>835</ele>
        <time>2025-11-21T08:57:52.000Z</time>
      </trkpt>
      <trkpt lat="44.47163" lon="6.21216">
        <ele>835</ele>
        <time>2025-11-21T08:57:53.000Z</time>
      </trkpt>
      <trkpt lat="44.47164" lon="6.21217">
        <ele>835</ele>
        <time>2025-11-21T08:57:54.000Z</time>
      </trkpt>
      <trkpt lat="44.47164" lon="6.21217">
        <ele>835</ele>
        <time>2025-11-21T08:57:55.000Z</time>
      </trkpt>
      <trkpt lat="44.47164" lon="6.21217">
        <ele>835</ele>
        <time>2025-11-21T08:57:56.000Z</time>
      </trkpt>
      <trkpt lat="44.47165" lon="6.21215">
        <ele>835</ele>
        <time>2025-11-21T08:57:57.000Z</time>
      </trkpt>
      <trkpt lat="44.47165" lon="6.21214">
        <ele>836</ele>
        <time>2025-11-21T08:57:58.000Z</time>
      </trkpt>
      <trkpt lat="44.47166" lon="6.21214">
        <ele>837</ele>
        <time>2025-11-21T08:57:59.000Z</time>
      </trkpt>
      <trkpt lat="44.47167" lon="6.21213">
        <ele>837</ele>
        <time>2025-11-21T08:58:00.000Z</time>
      </trkpt>
      <trkpt lat="44.47168" lon="6.21212">
        <ele>838</ele>
        <time>2025-11-21T08:58:01.000Z</time>
      </trkpt>
      <trkpt lat="44.47167" lon="6.21211">
        <ele>838</ele>
        <time>2025-11-21T08:58:02.000Z</time>
      </trkpt>
      <trkpt lat="44.47167" lon="6.21211">
        <ele>839</ele>
        <time>2025-11-21T08:58:03.000Z</time>
      </trkpt>
      <trkpt lat="44.47166" lon="6.21211">
        <ele>840</ele>
        <time>2025-11-21T08:58:04.000Z</time>
      </trkpt>
      <trkpt lat="44.47165" lon="6.2121">
        <ele>839</ele>
        <time>2025-11-21T08:58:05.000Z</time>
      </trkpt>
      <trkpt lat="44.47165" lon="6.2121">
        <ele>840</ele>
        <time>2025-11-21T08:58:06.000Z</time>
      </trkpt>
      <trkpt lat="44.47165" lon="6.21209">
        <ele>840</ele>
        <time>2025-11-21T08:58:07.000Z</time>
      </trkpt>
      <trkpt lat="44.47165" lon="6.21209">
        <ele>840</ele>
        <time>2025-11-21T08:58:08.000Z</time>
      </trkpt>
      <trkpt lat="44.47165" lon="6.21209">
        <ele>840</ele>
        <time>2025-11-21T08:58:09.000Z</time>
      </trkpt>
      <trkpt lat="44.47164" lon="6.21207">
        <ele>841</ele>
        <time>2025-11-21T08:58:10.000Z</time>
      </trkpt>
      <trkpt lat="44.47164" lon="6.21206">
        <ele>841</ele>
        <time>2025-11-21T08:58:11.000Z</time>
      </trkpt>
      <trkpt lat="44.47163" lon="6.21205">
        <ele>842</ele>
        <time>2025-11-21T08:58:12.000Z</time>
      </trkpt>
      <trkpt lat="44.47163" lon="6.21204">
        <ele>842</ele>
        <time>2025-11-21T08:58:13.000Z</time>
      </trkpt>
      <trkpt lat="44.47163" lon="6.21203">
        <ele>843</ele>
        <time>2025-11-21T08:58:14.000Z</time>
      </trkpt>
      <trkpt lat="44.47163" lon="6.21203">
        <ele>843</ele>
        <time>2025-11-21T08:58:15.000Z</time>
      </trkpt>
      <trkpt lat="44.47162" lon="6.21202">
        <ele>843</ele>
        <time>2025-11-21T08:58:16.000Z</time>
      </trkpt>
      <trkpt lat="44.47161" lon="6.21202">
        <ele>843</ele>
        <time>2025-11-21T08:58:17.000Z</time>
      </trkpt>
      <trkpt lat="44.47162" lon="6.21201">
        <ele>843</ele>
        <time>2025-11-21T08:58:18.000Z</time>
      </trkpt>
      <trkpt lat="44.4716" lon="6.212">
        <ele>843</ele>
        <time>2025-11-21T08:58:19.000Z</time>
      </trkpt>
      <trkpt lat="44.47159" lon="6.21201">
        <ele>843</ele>
        <time>2025-11-21T08:58:20.000Z</time>
      </trkpt>
      <trkpt lat="44.47159" lon="6.212">
        <ele>843</ele>
        <time>2025-11-21T08:58:21.000Z</time>
      </trkpt>
      <trkpt lat="44.47158" lon="6.21199">
        <ele>845</ele>
        <time>2025-11-21T08:58:22.000Z</time>
      </trkpt>
      <trkpt lat="44.47157" lon="6.21198">
        <ele>845</ele>
        <time>2025-11-21T08:58:23.000Z</time>
      </trkpt>
      <trkpt lat="44.47156" lon="6.21197">
        <ele>845</ele>
        <time>2025-11-21T08:58:24.000Z</time>
      </trkpt>
      <trkpt lat="44.47155" lon="6.21195">
        <ele>846</ele>
        <time>2025-11-21T08:58:25.000Z</time>
      </trkpt>
      <trkpt lat="44.47154" lon="6.21194">
        <ele>847</ele>
        <time>2025-11-21T08:58:26.000Z</time>
      </trkpt>
      <trkpt lat="44.47153" lon="6.21194">
        <ele>847</ele>
        <time>2025-11-21T08:58:27.000Z</time>
      </trkpt>
      <trkpt lat="44.47152" lon="6.21193">
        <ele>846</ele>
        <time>2025-11-21T08:58:28.000Z</time>
      </trkpt>
      <trkpt lat="44.47151" lon="6.21193">
        <ele>847</ele>
        <time>2025-11-21T08:58:29.000Z</time>
      </trkpt>
      <trkpt lat="44.4715" lon="6.21192">
        <ele>847</ele>
        <time>2025-11-21T08:58:30.000Z</time>
      </trkpt>
      <trkpt lat="44.47149" lon="6.2119">
        <ele>848</ele>
        <time>2025-11-21T08:58:31.000Z</time>
      </trkpt>
      <trkpt lat="44.47148" lon="6.21189">
        <ele>848</ele>
        <time>2025-11-21T08:58:32.000Z</time>
      </trkpt>
      <trkpt lat="44.47149" lon="6.21188">
        <ele>848</ele>
        <time>2025-11-21T08:58:33.000Z</time>
      </trkpt>
      <trkpt lat="44.47148" lon="6.21187">
        <ele>848</ele>
        <time>2025-11-21T08:58:34.000Z</time>
      </trkpt>
      <trkpt lat="44.47147" lon="6.21186">
        <ele>848</ele>
        <time>2025-11-21T08:58:35.000Z</time>
      </trkpt>
      <trkpt lat="44.47146" lon="6.21185">
        <ele>849</ele>
        <time>2025-11-21T08:58:36.000Z</time>
      </trkpt>
      <trkpt lat="44.47145" lon="6.21185">
        <ele>849</ele>
        <time>2025-11-21T08:58:37.000Z</time>
      </trkpt>
      <trkpt lat="44.47144" lon="6.21185">
        <ele>848</ele>
        <time>2025-11-21T08:58:38.000Z</time>
      </trkpt>
      <trkpt lat="44.47144" lon="6.21185">
        <ele>849</ele>
        <time>2025-11-21T08:58:39.000Z</time>
      </trkpt>
      <trkpt lat="44.47144" lon="6.21184">
        <ele>849</ele>
        <time>2025-11-21T08:58:40.000Z</time>
      </trkpt>
      <trkpt lat="44.47144" lon="6.21183">
        <ele>849</ele>
        <time>2025-11-21T08:58:41.000Z</time>
      </trkpt>
      <trkpt lat="44.47144" lon="6.21182">
        <ele>850</ele>
        <time>2025-11-21T08:58:42.000Z</time>
      </trkpt>
      <trkpt lat="44.47144" lon="6.21182">
        <ele>850</ele>
        <time>2025-11-21T08:58:43.000Z</time>
      </trkpt>
      <trkpt lat="44.47144" lon="6.21182">
        <ele>850</ele>
        <time>2025-11-21T08:58:44.000Z</time>
      </trkpt>
      <trkpt lat="44.47144" lon="6.21182">
        <ele>850</ele>
        <time>2025-11-21T08:58:45.000Z</time>
      </trkpt>
      <trkpt lat="44.47145" lon="6.21179">
        <ele>850</ele>
        <time>2025-11-21T08:58:46.000Z</time>
      </trkpt>
      <trkpt lat="44.47145" lon="6.21178">
        <ele>849</ele>
        <time>2025-11-21T08:58:47.000Z</time>
      </trkpt>
      <trkpt lat="44.47145" lon="6.21177">
        <ele>848</ele>
        <time>2025-11-21T08:58:48.000Z</time>
      </trkpt>
      <trkpt lat="44.47145" lon="6.21176">
        <ele>848</ele>
        <time>2025-11-21T08:58:49.000Z</time>
      </trkpt>
      <trkpt lat="44.47145" lon="6.21176">
        <ele>848</ele>
        <time>2025-11-21T08:58:50.000Z</time>
      </trkpt>
      <trkpt lat="44.47146" lon="6.21174">
        <ele>847</ele>
        <time>2025-11-21T08:58:51.000Z</time>
      </trkpt>
      <trkpt lat="44.47146" lon="6.21173">
        <ele>847</ele>
        <time>2025-11-21T08:58:52.000Z</time>
      </trkpt>
      <trkpt lat="44.47146" lon="6.21171">
        <ele>848</ele>
        <time>2025-11-21T08:58:53.000Z</time>
      </trkpt>
      <trkpt lat="44.47147" lon="6.2117">
        <ele>848</ele>
        <time>2025-11-21T08:58:54.000Z</time>
      </trkpt>
      <trkpt lat="44.47147" lon="6.21168">
        <ele>847</ele>
        <time>2025-11-21T08:58:55.000Z</time>
      </trkpt>
      <trkpt lat="44.47147" lon="6.21167">
        <ele>848</ele>
        <time>2025-11-21T08:58:56.000Z</time>
      </trkpt>
      <trkpt lat="44.47148" lon="6.21166">
        <ele>848</ele>
        <time>2025-11-21T08:58:57.000Z</time>
      </trkpt>
      <trkpt lat="44.47148" lon="6.21165">
        <ele>848</ele>
        <time>2025-11-21T08:58:58.000Z</time>
      </trkpt>
      <trkpt lat="44.47149" lon="6.21164">
        <ele>849</ele>
        <time>2025-11-21T08:58:59.000Z</time>
      </trkpt>
      <trkpt lat="44.4715" lon="6.21163">
        <ele>849</ele>
        <time>2025-11-21T08:59:00.000Z</time>
      </trkpt>
      <trkpt lat="44.47151" lon="6.21163">
        <ele>849</ele>
        <time>2025-11-21T08:59:01.000Z</time>
      </trkpt>
      <trkpt lat="44.47152" lon="6.21161">
        <ele>849</ele>
        <time>2025-11-21T08:59:02.000Z</time>
      </trkpt>
      <trkpt lat="44.47152" lon="6.21161">
        <ele>849</ele>
        <time>2025-11-21T08:59:03.000Z</time>
      </trkpt>
      <trkpt lat="44.47152" lon="6.2116">
        <ele>849</ele>
        <time>2025-11-21T08:59:04.000Z</time>
      </trkpt>
      <trkpt lat="44.47153" lon="6.21159">
        <ele>850</ele>
        <time>2025-11-21T08:59:05.000Z</time>
      </trkpt>
      <trkpt lat="44.47153" lon="6.21159">
        <ele>850</ele>
        <time>2025-11-21T08:59:06.000Z</time>
      </trkpt>
      <trkpt lat="44.47153" lon="6.21158">
        <ele>850</ele>
        <time>2025-11-21T08:59:07.000Z</time>
      </trkpt>
      <trkpt lat="44.47153" lon="6.21157">
        <ele>850</ele>
        <time>2025-11-21T08:59:08.000Z</time>
      </trkpt>
      <trkpt lat="44.47153" lon="6.21155">
        <ele>850</ele>
        <time>2025-11-21T08:59:09.000Z</time>
      </trkpt>
      <trkpt lat="44.47154" lon="6.21154">
        <ele>850</ele>
        <time>2025-11-21T08:59:10.000Z</time>
      </trkpt>
      <trkpt lat="44.47154" lon="6.21154">
        <ele>850</ele>
        <time>2025-11-21T08:59:11.000Z</time>
      </trkpt>
      <trkpt lat="44.47154" lon="6.21154">
        <ele>850</ele>
        <time>2025-11-21T08:59:12.000Z</time>
      </trkpt>
      <trkpt lat="44.47156" lon="6.21152">
        <ele>851</ele>
        <time>2025-11-21T08:59:13.000Z</time>
      </trkpt>
      <trkpt lat="44.47156" lon="6.21151">
        <ele>852</ele>
        <time>2025-11-21T08:59:14.000Z</time>
      </trkpt>
      <trkpt lat="44.47157" lon="6.2115">
        <ele>852</ele>
        <time>2025-11-21T08:59:15.000Z</time>
      </trkpt>
      <trkpt lat="44.47157" lon="6.21149">
        <ele>853</ele>
        <time>2025-11-21T08:59:16.000Z</time>
      </trkpt>
      <trkpt lat="44.47157" lon="6.21147">
        <ele>853</ele>
        <time>2025-11-21T08:59:17.000Z</time>
      </trkpt>
      <trkpt lat="44.47158" lon="6.21147">
        <ele>853</ele>
        <time>2025-11-21T08:59:18.000Z</time>
      </trkpt>
      <trkpt lat="44.47158" lon="6.21146">
        <ele>854</ele>
        <time>2025-11-21T08:59:19.000Z</time>
      </trkpt>
      <trkpt lat="44.47159" lon="6.21146">
        <ele>854</ele>
        <time>2025-11-21T08:59:20.000Z</time>
      </trkpt>
      <trkpt lat="44.47159" lon="6.21147">
        <ele>854</ele>
        <time>2025-11-21T08:59:21.000Z</time>
      </trkpt>
      <trkpt lat="44.4716" lon="6.21148">
        <ele>854</ele>
        <time>2025-11-21T08:59:22.000Z</time>
      </trkpt>
      <trkpt lat="44.4716" lon="6.21149">
        <ele>855</ele>
        <time>2025-11-21T08:59:23.000Z</time>
      </trkpt>
      <trkpt lat="44.4716" lon="6.21149">
        <ele>855</ele>
        <time>2025-11-21T08:59:24.000Z</time>
      </trkpt>
      <trkpt lat="44.4716" lon="6.21149">
        <ele>855</ele>
        <time>2025-11-21T08:59:25.000Z</time>
      </trkpt>
      <trkpt lat="44.47161" lon="6.21152">
        <ele>855</ele>
        <time>2025-11-21T08:59:26.000Z</time>
      </trkpt>
      <trkpt lat="44.47161" lon="6.21152">
        <ele>854</ele>
        <time>2025-11-21T08:59:27.000Z</time>
      </trkpt>
      <trkpt lat="44.47161" lon="6.21154">
        <ele>855</ele>
        <time>2025-11-21T08:59:28.000Z</time>
      </trkpt>
      <trkpt lat="44.47161" lon="6.21156">
        <ele>855</ele>
        <time>2025-11-21T08:59:29.000Z</time>
      </trkpt>
      <trkpt lat="44.4716" lon="6.21157">
        <ele>855</ele>
        <time>2025-11-21T08:59:30.000Z</time>
      </trkpt>
      <trkpt lat="44.4716" lon="6.21158">
        <ele>856</ele>
        <time>2025-11-21T08:59:31.000Z</time>
      </trkpt>
      <trkpt lat="44.47161" lon="6.21159">
        <ele>856</ele>
        <time>2025-11-21T08:59:32.000Z</time>
      </trkpt>
      <trkpt lat="44.47161" lon="6.2116">
        <ele>856</ele>
        <time>2025-11-21T08:59:33.000Z</time>
      </trkpt>
      <trkpt lat="44.4716" lon="6.21159">
        <ele>857</ele>
        <time>2025-11-21T08:59:34.000Z</time>
      </trkpt>
      <trkpt lat="44.47161" lon="6.21159">
        <ele>858</ele>
        <time>2025-11-21T08:59:35.000Z</time>
      </trkpt>
      <trkpt lat="44.4716" lon="6.21159">
        <ele>859</ele>
        <time>2025-11-21T08:59:36.000Z</time>
      </trkpt>
      <trkpt lat="44.4716" lon="6.21161">
        <ele>859</ele>
        <time>2025-11-21T08:59:37.000Z</time>
      </trkpt>
      <trkpt lat="44.47161" lon="6.21162">
        <ele>860</ele>
        <time>2025-11-21T08:59:38.000Z</time>
      </trkpt>
      <trkpt lat="44.47161" lon="6.21164">
        <ele>860</ele>
        <time>2025-11-21T08:59:39.000Z</time>
      </trkpt>
      <trkpt lat="44.47161" lon="6.21165">
        <ele>860</ele>
        <time>2025-11-21T08:59:40.000Z</time>
      </trkpt>
      <trkpt lat="44.47162" lon="6.21167">
        <ele>861</ele>
        <time>2025-11-21T08:59:41.000Z</time>
      </trkpt>
      <trkpt lat="44.47162" lon="6.21169">
        <ele>862</ele>
        <time>2025-11-21T08:59:42.000Z</time>
      </trkpt>
      <trkpt lat="44.47163" lon="6.21169">
        <ele>863</ele>
        <time>2025-11-21T08:59:43.000Z</time>
      </trkpt>
      <trkpt lat="44.47162" lon="6.2117">
        <ele>864</ele>
        <time>2025-11-21T08:59:44.000Z</time>
      </trkpt>
      <trkpt lat="44.47163" lon="6.21171">
        <ele>864</ele>
        <time>2025-11-21T08:59:45.000Z</time>
      </trkpt>
      <trkpt lat="44.47163" lon="6.21171">
        <ele>864</ele>
        <time>2025-11-21T08:59:46.000Z</time>
      </trkpt>
      <trkpt lat="44.47164" lon="6.21171">
        <ele>864</ele>
        <time>2025-11-21T08:59:47.000Z</time>
      </trkpt>
      <trkpt lat="44.47164" lon="6.21171">
        <ele>864</ele>
        <time>2025-11-21T08:59:48.000Z</time>
      </trkpt>
      <trkpt lat="44.47164" lon="6.21171">
        <ele>864</ele>
        <time>2025-11-21T08:59:49.000Z</time>
      </trkpt>
      <trkpt lat="44.47164" lon="6.21171">
        <ele>864</ele>
        <time>2025-11-21T08:59:50.000Z</time>
      </trkpt>
      <trkpt lat="44.47166" lon="6.21172">
        <ele>865</ele>
        <time>2025-11-21T08:59:51.000Z</time>
      </trkpt>
      <trkpt lat="44.47166" lon="6.21172">
        <ele>865</ele>
        <time>2025-11-21T08:59:52.000Z</time>
      </trkpt>
      <trkpt lat="44.47167" lon="6.21172">
        <ele>866</ele>
        <time>2025-11-21T08:59:53.000Z</time>
      </trkpt>
      <trkpt lat="44.47169" lon="6.21173">
        <ele>865</ele>
        <time>2025-11-21T08:59:54.000Z</time>
      </trkpt>
      <trkpt lat="44.4717" lon="6.21173">
        <ele>866</ele>
        <time>2025-11-21T08:59:55.000Z</time>
      </trkpt>
      <trkpt lat="44.47171" lon="6.21172">
        <ele>866</ele>
        <time>2025-11-21T08:59:56.000Z</time>
      </trkpt>
      <trkpt lat="44.47171" lon="6.21172">
        <ele>866</ele>
        <time>2025-11-21T08:59:57.000Z</time>
      </trkpt>
      <trkpt lat="44.47171" lon="6.21172">
        <ele>866</ele>
        <time>2025-11-21T08:59:58.000Z</time>
      </trkpt>
      <trkpt lat="44.47173" lon="6.21172">
        <ele>866</ele>
        <time>2025-11-21T08:59:59.000Z</time>
      </trkpt>
      <trkpt lat="44.47173" lon="6.21171">
        <ele>866</ele>
        <time>2025-11-21T09:00:00.000Z</time>
      </trkpt>
      <trkpt lat="44.47174" lon="6.2117">
        <ele>865</ele>
        <time>2025-11-21T09:00:01.000Z</time>
      </trkpt>
      <trkpt lat="44.47175" lon="6.2117">
        <ele>864</ele>
        <time>2025-11-21T09:00:02.000Z</time>
      </trkpt>
      <trkpt lat="44.47176" lon="6.2117">
        <ele>864</ele>
        <time>2025-11-21T09:00:03.000Z</time>
      </trkpt>
      <trkpt lat="44.47177" lon="6.2117">
        <ele>865</ele>
        <time>2025-11-21T09:00:04.000Z</time>
      </trkpt>
      <trkpt lat="44.47178" lon="6.2117">
        <ele>865</ele>
        <time>2025-11-21T09:00:05.000Z</time>
      </trkpt>
      <trkpt lat="44.47178" lon="6.2117">
        <ele>865</ele>
        <time>2025-11-21T09:00:06.000Z</time>
      </trkpt>
      <trkpt lat="44.47179" lon="6.21171">
        <ele>866</ele>
        <time>2025-11-21T09:00:07.000Z</time>
      </trkpt>
      <trkpt lat="44.4718" lon="6.2117">
        <ele>866</ele>
        <time>2025-11-21T09:00:08.000Z</time>
      </trkpt>
      <trkpt lat="44.47182" lon="6.2117">
        <ele>865</ele>
        <time>2025-11-21T09:00:09.000Z</time>
      </trkpt>
      <trkpt lat="44.47182" lon="6.2117">
        <ele>865</ele>
        <time>2025-11-21T09:00:10.000Z</time>
      </trkpt>
      <trkpt lat="44.47184" lon="6.2117">
        <ele>866</ele>
        <time>2025-11-21T09:00:11.000Z</time>
      </trkpt>
      <trkpt lat="44.47185" lon="6.2117">
        <ele>866</ele>
        <time>2025-11-21T09:00:12.000Z</time>
      </trkpt>
      <trkpt lat="44.47187" lon="6.2117">
        <ele>866</ele>
        <time>2025-11-21T09:00:13.000Z</time>
      </trkpt>
      <trkpt lat="44.47187" lon="6.2117">
        <ele>866</ele>
        <time>2025-11-21T09:00:14.000Z</time>
      </trkpt>
      <trkpt lat="44.47188" lon="6.21171">
        <ele>866</ele>
        <time>2025-11-21T09:00:15.000Z</time>
      </trkpt>
      <trkpt lat="44.47189" lon="6.21172">
        <ele>865</ele>
        <time>2025-11-21T09:00:16.000Z</time>
      </trkpt>
      <trkpt lat="44.47189" lon="6.21173">
        <ele>866</ele>
        <time>2025-11-21T09:00:17.000Z</time>
      </trkpt>
      <trkpt lat="44.47189" lon="6.21173">
        <ele>866</ele>
        <time>2025-11-21T09:00:18.000Z</time>
      </trkpt>
      <trkpt lat="44.4719" lon="6.21174">
        <ele>866</ele>
        <time>2025-11-21T09:00:19.000Z</time>
      </trkpt>
      <trkpt lat="44.4719" lon="6.21175">
        <ele>866</ele>
        <time>2025-11-21T09:00:20.000Z</time>
      </trkpt>
      <trkpt lat="44.47191" lon="6.21175">
        <ele>865</ele>
        <time>2025-11-21T09:00:21.000Z</time>
      </trkpt>
      <trkpt lat="44.47192" lon="6.21175">
        <ele>865</ele>
        <time>2025-11-21T09:00:22.000Z</time>
      </trkpt>
      <trkpt lat="44.47193" lon="6.21175">
        <ele>866</ele>
        <time>2025-11-21T09:00:23.000Z</time>
      </trkpt>
      <trkpt lat="44.47194" lon="6.21175">
        <ele>865</ele>
        <time>2025-11-21T09:00:24.000Z</time>
      </trkpt>
      <trkpt lat="44.47195" lon="6.21175">
        <ele>866</ele>
        <time>2025-11-21T09:00:25.000Z</time>
      </trkpt>
      <trkpt lat="44.47196" lon="6.21175">
        <ele>866</ele>
        <time>2025-11-21T09:00:26.000Z</time>
      </trkpt>
      <trkpt lat="44.47196" lon="6.21175">
        <ele>866</ele>
        <time>2025-11-21T09:00:27.000Z</time>
      </trkpt>
      <trkpt lat="44.47197" lon="6.21176">
        <ele>867</ele>
        <time>2025-11-21T09:00:28.000Z</time>
      </trkpt>
      <trkpt lat="44.47198" lon="6.21176">
        <ele>867</ele>
        <time>2025-11-21T09:00:29.000Z</time>
      </trkpt>
      <trkpt lat="44.47199" lon="6.21178">
        <ele>868</ele>
        <time>2025-11-21T09:00:30.000Z</time>
      </trkpt>
      <trkpt lat="44.47201" lon="6.21178">
        <ele>867</ele>
        <time>2025-11-21T09:00:31.000Z</time>
      </trkpt>
      <trkpt lat="44.47202" lon="6.21178">
        <ele>867</ele>
        <time>2025-11-21T09:00:32.000Z</time>
      </trkpt>
      <trkpt lat="44.47203" lon="6.21179">
        <ele>868</ele>
        <time>2025-11-21T09:00:33.000Z</time>
      </trkpt>
      <trkpt lat="44.47204" lon="6.21181">
        <ele>867</ele>
        <time>2025-11-21T09:00:34.000Z</time>
      </trkpt>
      <trkpt lat="44.47204" lon="6.21182">
        <ele>867</ele>
        <time>2025-11-21T09:00:35.000Z</time>
      </trkpt>
      <trkpt lat="44.47205" lon="6.21183">
        <ele>867</ele>
        <time>2025-11-21T09:00:36.000Z</time>
      </trkpt>
      <trkpt lat="44.47206" lon="6.21184">
        <ele>867</ele>
        <time>2025-11-21T09:00:37.000Z</time>
      </trkpt>
      <trkpt lat="44.47207" lon="6.21185">
        <ele>866</ele>
        <time>2025-11-21T09:00:38.000Z</time>
      </trkpt>
      <trkpt lat="44.47208" lon="6.21187">
        <ele>867</ele>
        <time>2025-11-21T09:00:39.000Z</time>
      </trkpt>
      <trkpt lat="44.47208" lon="6.21187">
        <ele>866</ele>
        <time>2025-11-21T09:00:40.000Z</time>
      </trkpt>
      <trkpt lat="44.47209" lon="6.21189">
        <ele>866</ele>
        <time>2025-11-21T09:00:41.000Z</time>
      </trkpt>
      <trkpt lat="44.4721" lon="6.21191">
        <ele>866</ele>
        <time>2025-11-21T09:00:42.000Z</time>
      </trkpt>
      <trkpt lat="44.4721" lon="6.21192">
        <ele>866</ele>
        <time>2025-11-21T09:00:43.000Z</time>
      </trkpt>
      <trkpt lat="44.4721" lon="6.21193">
        <ele>868</ele>
        <time>2025-11-21T09:00:44.000Z</time>
      </trkpt>
      <trkpt lat="44.47211" lon="6.21193">
        <ele>868</ele>
        <time>2025-11-21T09:00:45.000Z</time>
      </trkpt>
      <trkpt lat="44.47212" lon="6.21194">
        <ele>869</ele>
        <time>2025-11-21T09:00:46.000Z</time>
      </trkpt>
      <trkpt lat="44.47213" lon="6.21194">
        <ele>869</ele>
        <time>2025-11-21T09:00:47.000Z</time>
      </trkpt>
      <trkpt lat="44.47214" lon="6.21194">
        <ele>869</ele>
        <time>2025-11-21T09:00:48.000Z</time>
      </trkpt>
      <trkpt lat="44.47215" lon="6.21195">
        <ele>869</ele>
        <time>2025-11-21T09:00:49.000Z</time>
      </trkpt>
      <trkpt lat="44.47215" lon="6.21196">
        <ele>869</ele>
        <time>2025-11-21T09:00:50.000Z</time>
      </trkpt>
      <trkpt lat="44.47216" lon="6.21197">
        <ele>869</ele>
        <time>2025-11-21T09:00:51.000Z</time>
      </trkpt>
      <trkpt lat="44.47216" lon="6.21197">
        <ele>871</ele>
        <time>2025-11-21T09:00:52.000Z</time>
      </trkpt>
      <trkpt lat="44.47216" lon="6.21197">
        <ele>871</ele>
        <time>2025-11-21T09:00:53.000Z</time>
      </trkpt>
      <trkpt lat="44.47216" lon="6.21198">
        <ele>872</ele>
        <time>2025-11-21T09:00:54.000Z</time>
      </trkpt>
      <trkpt lat="44.47217" lon="6.21198">
        <ele>872</ele>
        <time>2025-11-21T09:00:55.000Z</time>
      </trkpt>
      <trkpt lat="44.47217" lon="6.21198">
        <ele>872</ele>
        <time>2025-11-21T09:00:56.000Z</time>
      </trkpt>
      <trkpt lat="44.47218" lon="6.21196">
        <ele>872</ele>
        <time>2025-11-21T09:00:57.000Z</time>
      </trkpt>
      <trkpt lat="44.47218" lon="6.21195">
        <ele>872</ele>
        <time>2025-11-21T09:00:58.000Z</time>
      </trkpt>
      <trkpt lat="44.47218" lon="6.21194">
        <ele>872</ele>
        <time>2025-11-21T09:00:59.000Z</time>
      </trkpt>
      <trkpt lat="44.47218" lon="6.21193">
        <ele>872</ele>
        <time>2025-11-21T09:01:00.000Z</time>
      </trkpt>
      <trkpt lat="44.47218" lon="6.21192">
        <ele>872</ele>
        <time>2025-11-21T09:01:01.000Z</time>
      </trkpt>
      <trkpt lat="44.47217" lon="6.21191">
        <ele>873</ele>
        <time>2025-11-21T09:01:02.000Z</time>
      </trkpt>
      <trkpt lat="44.47217" lon="6.2119">
        <ele>873</ele>
        <time>2025-11-21T09:01:03.000Z</time>
      </trkpt>
      <trkpt lat="44.47217" lon="6.21189">
        <ele>873</ele>
        <time>2025-11-21T09:01:04.000Z</time>
      </trkpt>
      <trkpt lat="44.47216" lon="6.21188">
        <ele>873</ele>
        <time>2025-11-21T09:01:05.000Z</time>
      </trkpt>
      <trkpt lat="44.47216" lon="6.21187">
        <ele>874</ele>
        <time>2025-11-21T09:01:06.000Z</time>
      </trkpt>
      <trkpt lat="44.47215" lon="6.21186">
        <ele>874</ele>
        <time>2025-11-21T09:01:07.000Z</time>
      </trkpt>
      <trkpt lat="44.47215" lon="6.21185">
        <ele>874</ele>
        <time>2025-11-21T09:01:08.000Z</time>
      </trkpt>
      <trkpt lat="44.47215" lon="6.21184">
        <ele>874</ele>
        <time>2025-11-21T09:01:09.000Z</time>
      </trkpt>
      <trkpt lat="44.47214" lon="6.21184">
        <ele>875</ele>
        <time>2025-11-21T09:01:10.000Z</time>
      </trkpt>
      <trkpt lat="44.47214" lon="6.21184">
        <ele>875</ele>
        <time>2025-11-21T09:01:11.000Z</time>
      </trkpt>
      <trkpt lat="44.47214" lon="6.21184">
        <ele>875</ele>
        <time>2025-11-21T09:01:12.000Z</time>
      </trkpt>
      <trkpt lat="44.47214" lon="6.21184">
        <ele>875</ele>
        <time>2025-11-21T09:01:13.000Z</time>
      </trkpt>
      <trkpt lat="44.47215" lon="6.21182">
        <ele>875</ele>
        <time>2025-11-21T09:01:14.000Z</time>
      </trkpt>
      <trkpt lat="44.47215" lon="6.21181">
        <ele>875</ele>
        <time>2025-11-21T09:01:15.000Z</time>
      </trkpt>
      <trkpt lat="44.47214" lon="6.2118">
        <ele>874</ele>
        <time>2025-11-21T09:01:16.000Z</time>
      </trkpt>
      <trkpt lat="44.47214" lon="6.21178">
        <ele>875</ele>
        <time>2025-11-21T09:01:17.000Z</time>
      </trkpt>
      <trkpt lat="44.47212" lon="6.21177">
        <ele>875</ele>
        <time>2025-11-21T09:01:18.000Z</time>
      </trkpt>
      <trkpt lat="44.47212" lon="6.21175">
        <ele>875</ele>
        <time>2025-11-21T09:01:19.000Z</time>
      </trkpt>
      <trkpt lat="44.47212" lon="6.21174">
        <ele>875</ele>
        <time>2025-11-21T09:01:20.000Z</time>
      </trkpt>
      <trkpt lat="44.47212" lon="6.21173">
        <ele>875</ele>
        <time>2025-11-21T09:01:21.000Z</time>
      </trkpt>
      <trkpt lat="44.47211" lon="6.21172">
        <ele>875</ele>
        <time>2025-11-21T09:01:22.000Z</time>
      </trkpt>
      <trkpt lat="44.47211" lon="6.21171">
        <ele>875</ele>
        <time>2025-11-21T09:01:23.000Z</time>
      </trkpt>
      <trkpt lat="44.4721" lon="6.2117">
        <ele>874</ele>
        <time>2025-11-21T09:01:24.000Z</time>
      </trkpt>
      <trkpt lat="44.47209" lon="6.21169">
        <ele>875</ele>
        <time>2025-11-21T09:01:25.000Z</time>
      </trkpt>
      <trkpt lat="44.47208" lon="6.21168">
        <ele>874</ele>
        <time>2025-11-21T09:01:26.000Z</time>
      </trkpt>
      <trkpt lat="44.47207" lon="6.21167">
        <ele>875</ele>
        <time>2025-11-21T09:01:27.000Z</time>
      </trkpt>
      <trkpt lat="44.47206" lon="6.21167">
        <ele>876</ele>
        <time>2025-11-21T09:01:28.000Z</time>
      </trkpt>
      <trkpt lat="44.47206" lon="6.21166">
        <ele>876</ele>
        <time>2025-11-21T09:01:29.000Z</time>
      </trkpt>
      <trkpt lat="44.47205" lon="6.21164">
        <ele>876</ele>
        <time>2025-11-21T09:01:30.000Z</time>
      </trkpt>
      <trkpt lat="44.47204" lon="6.21163">
        <ele>875</ele>
        <time>2025-11-21T09:01:31.000Z</time>
      </trkpt>
      <trkpt lat="44.47203" lon="6.21162">
        <ele>875</ele>
        <time>2025-11-21T09:01:32.000Z</time>
      </trkpt>
      <trkpt lat="44.47204" lon="6.2116">
        <ele>875</ele>
        <time>2025-11-21T09:01:33.000Z</time>
      </trkpt>
      <trkpt lat="44.47203" lon="6.21159">
        <ele>875</ele>
        <time>2025-11-21T09:01:34.000Z</time>
      </trkpt>
      <trkpt lat="44.47202" lon="6.21157">
        <ele>876</ele>
        <time>2025-11-21T09:01:35.000Z</time>
      </trkpt>
      <trkpt lat="44.47202" lon="6.21157">
        <ele>876</ele>
        <time>2025-11-21T09:01:36.000Z</time>
      </trkpt>
      <trkpt lat="44.47202" lon="6.21157">
        <ele>876</ele>
        <time>2025-11-21T09:01:37.000Z</time>
      </trkpt>
      <trkpt lat="44.47201" lon="6.21155">
        <ele>877</ele>
        <time>2025-11-21T09:01:38.000Z</time>
      </trkpt>
      <trkpt lat="44.47201" lon="6.21154">
        <ele>877</ele>
        <time>2025-11-21T09:01:39.000Z</time>
      </trkpt>
      <trkpt lat="44.472" lon="6.21152">
        <ele>878</ele>
        <time>2025-11-21T09:01:40.000Z</time>
      </trkpt>
      <trkpt lat="44.472" lon="6.21151">
        <ele>878</ele>
        <time>2025-11-21T09:01:41.000Z</time>
      </trkpt>
      <trkpt lat="44.472" lon="6.21149">
        <ele>876</ele>
        <time>2025-11-21T09:01:42.000Z</time>
      </trkpt>
      <trkpt lat="44.472" lon="6.21148">
        <ele>877</ele>
        <time>2025-11-21T09:01:43.000Z</time>
      </trkpt>
      <trkpt lat="44.472" lon="6.21146">
        <ele>877</ele>
        <time>2025-11-21T09:01:44.000Z</time>
      </trkpt>
      <trkpt lat="44.472" lon="6.21144">
        <ele>877</ele>
        <time>2025-11-21T09:01:45.000Z</time>
      </trkpt>
      <trkpt lat="44.47199" lon="6.21142">
        <ele>878</ele>
        <time>2025-11-21T09:01:46.000Z</time>
      </trkpt>
      <trkpt lat="44.47199" lon="6.21141">
        <ele>879</ele>
        <time>2025-11-21T09:01:47.000Z</time>
      </trkpt>
      <trkpt lat="44.47198" lon="6.21139">
        <ele>879</ele>
        <time>2025-11-21T09:01:48.000Z</time>
      </trkpt>
      <trkpt lat="44.47198" lon="6.21137">
        <ele>879</ele>
        <time>2025-11-21T09:01:49.000Z</time>
      </trkpt>
      <trkpt lat="44.47198" lon="6.21135">
        <ele>879</ele>
        <time>2025-11-21T09:01:50.000Z</time>
      </trkpt>
      <trkpt lat="44.47198" lon="6.21134">
        <ele>880</ele>
        <time>2025-11-21T09:01:51.000Z</time>
      </trkpt>
      <trkpt lat="44.47198" lon="6.21133">
        <ele>880</ele>
        <time>2025-11-21T09:01:52.000Z</time>
      </trkpt>
      <trkpt lat="44.47198" lon="6.21132">
        <ele>882</ele>
        <time>2025-11-21T09:01:53.000Z</time>
      </trkpt>
      <trkpt lat="44.47198" lon="6.21131">
        <ele>882</ele>
        <time>2025-11-21T09:01:54.000Z</time>
      </trkpt>
      <trkpt lat="44.47198" lon="6.21131">
        <ele>881</ele>
        <time>2025-11-21T09:01:55.000Z</time>
      </trkpt>
      <trkpt lat="44.47198" lon="6.21131">
        <ele>880</ele>
        <time>2025-11-21T09:01:56.000Z</time>
      </trkpt>
      <trkpt lat="44.47198" lon="6.21132">
        <ele>880</ele>
        <time>2025-11-21T09:01:57.000Z</time>
      </trkpt>
      <trkpt lat="44.47197" lon="6.2113">
        <ele>886</ele>
        <time>2025-11-21T09:05:03.000Z</time>
      </trkpt>
      <trkpt lat="44.47197" lon="6.2113">
        <ele>886</ele>
        <time>2025-11-21T09:05:04.000Z</time>
      </trkpt>
      <trkpt lat="44.47197" lon="6.21132">
        <ele>886</ele>
        <time>2025-11-21T09:05:05.000Z</time>
      </trkpt>
      <trkpt lat="44.47197" lon="6.21134">
        <ele>886</ele>
        <time>2025-11-21T09:05:06.000Z</time>
      </trkpt>
      <trkpt lat="44.47198" lon="6.21135">
        <ele>886</ele>
        <time>2025-11-21T09:05:07.000Z</time>
      </trkpt>
      <trkpt lat="44.47198" lon="6.21135">
        <ele>884</ele>
        <time>2025-11-21T09:05:08.000Z</time>
      </trkpt>
      <trkpt lat="44.47199" lon="6.21136">
        <ele>884</ele>
        <time>2025-11-21T09:05:09.000Z</time>
      </trkpt>
      <trkpt lat="44.472" lon="6.21137">
        <ele>883</ele>
        <time>2025-11-21T09:05:10.000Z</time>
      </trkpt>
      <trkpt lat="44.47201" lon="6.21138">
        <ele>882</ele>
        <time>2025-11-21T09:05:11.000Z</time>
      </trkpt>
      <trkpt lat="44.47201" lon="6.21139">
        <ele>881</ele>
        <time>2025-11-21T09:05:12.000Z</time>
      </trkpt>
      <trkpt lat="44.47202" lon="6.2114">
        <ele>882</ele>
        <time>2025-11-21T09:05:13.000Z</time>
      </trkpt>
      <trkpt lat="44.47202" lon="6.2114">
        <ele>883</ele>
        <time>2025-11-21T09:05:14.000Z</time>
      </trkpt>
      <trkpt lat="44.47203" lon="6.21141">
        <ele>883</ele>
        <time>2025-11-21T09:05:15.000Z</time>
      </trkpt>
      <trkpt lat="44.47203" lon="6.21141">
        <ele>884</ele>
        <time>2025-11-21T09:05:16.000Z</time>
      </trkpt>
      <trkpt lat="44.47203" lon="6.21141">
        <ele>884</ele>
        <time>2025-11-21T09:05:17.000Z</time>
      </trkpt>
      <trkpt lat="44.47204" lon="6.21142">
        <ele>884</ele>
        <time>2025-11-21T09:05:18.000Z</time>
      </trkpt>
      <trkpt lat="44.47204" lon="6.21142">
        <ele>884</ele>
        <time>2025-11-21T09:05:19.000Z</time>
      </trkpt>
      <trkpt lat="44.47204" lon="6.21143">
        <ele>885</ele>
        <time>2025-11-21T09:05:20.000Z</time>
      </trkpt>
      <trkpt lat="44.47204" lon="6.21143">
        <ele>886</ele>
        <time>2025-11-21T09:05:21.000Z</time>
      </trkpt>
      <trkpt lat="44.47204" lon="6.21143">
        <ele>886</ele>
        <time>2025-11-21T09:05:22.000Z</time>
      </trkpt>
      <trkpt lat="44.47205" lon="6.21144">
        <ele>885</ele>
        <time>2025-11-21T09:05:23.000Z</time>
      </trkpt>
      <trkpt lat="44.47206" lon="6.21145">
        <ele>886</ele>
        <time>2025-11-21T09:05:24.000Z</time>
      </trkpt>
      <trkpt lat="44.47207" lon="6.21146">
        <ele>887</ele>
        <time>2025-11-21T09:05:25.000Z</time>
      </trkpt>
      <trkpt lat="44.47208" lon="6.21146">
        <ele>887</ele>
        <time>2025-11-21T09:05:26.000Z</time>
      </trkpt>
      <trkpt lat="44.47209" lon="6.21146">
        <ele>888</ele>
        <time>2025-11-21T09:05:27.000Z</time>
      </trkpt>
      <trkpt lat="44.4721" lon="6.21146">
        <ele>887</ele>
        <time>2025-11-21T09:05:28.000Z</time>
      </trkpt>
      <trkpt lat="44.47211" lon="6.21147">
        <ele>887</ele>
        <time>2025-11-21T09:05:29.000Z</time>
      </trkpt>
      <trkpt lat="44.47211" lon="6.21148">
        <ele>886</ele>
        <time>2025-11-21T09:05:30.000Z</time>
      </trkpt>
      <trkpt lat="44.47212" lon="6.21149">
        <ele>886</ele>
        <time>2025-11-21T09:05:31.000Z</time>
      </trkpt>
      <trkpt lat="44.47213" lon="6.2115">
        <ele>884</ele>
        <time>2025-11-21T09:05:32.000Z</time>
      </trkpt>
      <trkpt lat="44.47213" lon="6.21151">
        <ele>884</ele>
        <time>2025-11-21T09:05:33.000Z</time>
      </trkpt>
      <trkpt lat="44.47213" lon="6.21151">
        <ele>883</ele>
        <time>2025-11-21T09:05:34.000Z</time>
      </trkpt>
      <trkpt lat="44.47213" lon="6.21151">
        <ele>883</ele>
        <time>2025-11-21T09:05:35.000Z</time>
      </trkpt>
      <trkpt lat="44.47213" lon="6.21151">
        <ele>883</ele>
        <time>2025-11-21T09:05:36.000Z</time>
      </trkpt>
      <trkpt lat="44.47216" lon="6.21152">
        <ele>884</ele>
        <time>2025-11-21T09:05:37.000Z</time>
      </trkpt>
      <trkpt lat="44.47216" lon="6.21153">
        <ele>883</ele>
        <time>2025-11-21T09:05:38.000Z</time>
      </trkpt>
      <trkpt lat="44.47217" lon="6.21153">
        <ele>884</ele>
        <time>2025-11-21T09:05:39.000Z</time>
      </trkpt>
      <trkpt lat="44.47218" lon="6.21153">
        <ele>884</ele>
        <time>2025-11-21T09:05:40.000Z</time>
      </trkpt>
      <trkpt lat="44.47219" lon="6.21153">
        <ele>884</ele>
        <time>2025-11-21T09:05:41.000Z</time>
      </trkpt>
      <trkpt lat="44.4722" lon="6.21154">
        <ele>885</ele>
        <time>2025-11-21T09:05:42.000Z</time>
      </trkpt>
      <trkpt lat="44.47221" lon="6.21154">
        <ele>884</ele>
        <time>2025-11-21T09:05:43.000Z</time>
      </trkpt>
      <trkpt lat="44.47221" lon="6.21155">
        <ele>885</ele>
        <time>2025-11-21T09:05:44.000Z</time>
      </trkpt>
      <trkpt lat="44.47222" lon="6.21155">
        <ele>885</ele>
        <time>2025-11-21T09:05:45.000Z</time>
      </trkpt>
      <trkpt lat="44.47223" lon="6.21156">
        <ele>885</ele>
        <time>2025-11-21T09:05:46.000Z</time>
      </trkpt>
      <trkpt lat="44.47224" lon="6.21156">
        <ele>886</ele>
        <time>2025-11-21T09:05:47.000Z</time>
      </trkpt>
      <trkpt lat="44.47225" lon="6.21156">
        <ele>887</ele>
        <time>2025-11-21T09:05:48.000Z</time>
      </trkpt>
      <trkpt lat="44.47226" lon="6.21157">
        <ele>887</ele>
        <time>2025-11-21T09:05:49.000Z</time>
      </trkpt>
      <trkpt lat="44.47226" lon="6.21158">
        <ele>887</ele>
        <time>2025-11-21T09:05:50.000Z</time>
      </trkpt>
      <trkpt lat="44.47227" lon="6.21158">
        <ele>886</ele>
        <time>2025-11-21T09:05:51.000Z</time>
      </trkpt>
      <trkpt lat="44.47227" lon="6.21158">
        <ele>886</ele>
        <time>2025-11-21T09:05:52.000Z</time>
      </trkpt>
      <trkpt lat="44.47227" lon="6.21158">
        <ele>886</ele>
        <time>2025-11-21T09:05:53.000Z</time>
      </trkpt>
      <trkpt lat="44.47227" lon="6.2116">
        <ele>887</ele>
        <time>2025-11-21T09:05:54.000Z</time>
      </trkpt>
      <trkpt lat="44.47228" lon="6.2116">
        <ele>887</ele>
        <time>2025-11-21T09:05:55.000Z</time>
      </trkpt>
      <trkpt lat="44.47229" lon="6.2116">
        <ele>887</ele>
        <time>2025-11-21T09:05:56.000Z</time>
      </trkpt>
      <trkpt lat="44.4723" lon="6.2116">
        <ele>887</ele>
        <time>2025-11-21T09:05:57.000Z</time>
      </trkpt>
      <trkpt lat="44.4723" lon="6.2116">
        <ele>887</ele>
        <time>2025-11-21T09:05:58.000Z</time>
      </trkpt>
      <trkpt lat="44.4723" lon="6.2116">
        <ele>887</ele>
        <time>2025-11-21T09:05:59.000Z</time>
      </trkpt>
      <trkpt lat="44.47231" lon="6.21161">
        <ele>886</ele>
        <time>2025-11-21T09:06:00.000Z</time>
      </trkpt>
      <trkpt lat="44.47232" lon="6.21162">
        <ele>887</ele>
        <time>2025-11-21T09:06:01.000Z</time>
      </trkpt>
      <trkpt lat="44.47233" lon="6.21162">
        <ele>886</ele>
        <time>2025-11-21T09:06:02.000Z</time>
      </trkpt>
      <trkpt lat="44.47233" lon="6.21162">
        <ele>886</ele>
        <time>2025-11-21T09:06:03.000Z</time>
      </trkpt>
      <trkpt lat="44.47233" lon="6.21162">
        <ele>886</ele>
        <time>2025-11-21T09:06:04.000Z</time>
      </trkpt>
      <trkpt lat="44.47233" lon="6.21162">
        <ele>886</ele>
        <time>2025-11-21T09:06:05.000Z</time>
      </trkpt>
      <trkpt lat="44.47233" lon="6.21162">
        <ele>886</ele>
        <time>2025-11-21T09:06:06.000Z</time>
      </trkpt>
      <trkpt lat="44.47234" lon="6.21162">
        <ele>887</ele>
        <time>2025-11-21T09:06:07.000Z</time>
      </trkpt>
      <trkpt lat="44.47235" lon="6.21162">
        <ele>887</ele>
        <time>2025-11-21T09:06:08.000Z</time>
      </trkpt>
      <trkpt lat="44.47236" lon="6.21163">
        <ele>886</ele>
        <time>2025-11-21T09:06:09.000Z</time>
      </trkpt>
      <trkpt lat="44.47237" lon="6.21163">
        <ele>887</ele>
        <time>2025-11-21T09:06:10.000Z</time>
      </trkpt>
      <trkpt lat="44.47237" lon="6.21164">
        <ele>887</ele>
        <time>2025-11-21T09:06:11.000Z</time>
      </trkpt>
      <trkpt lat="44.47238" lon="6.21164">
        <ele>887</ele>
        <time>2025-11-21T09:06:12.000Z</time>
      </trkpt>
      <trkpt lat="44.47239" lon="6.21164">
        <ele>886</ele>
        <time>2025-11-21T09:06:13.000Z</time>
      </trkpt>
      <trkpt lat="44.47239" lon="6.21165">
        <ele>886</ele>
        <time>2025-11-21T09:06:14.000Z</time>
      </trkpt>
      <trkpt lat="44.47239" lon="6.21165">
        <ele>886</ele>
        <time>2025-11-21T09:06:15.000Z</time>
      </trkpt>
      <trkpt lat="44.47239" lon="6.21166">
        <ele>887</ele>
        <time>2025-11-21T09:06:16.000Z</time>
      </trkpt>
      <trkpt lat="44.4724" lon="6.21166">
        <ele>886</ele>
        <time>2025-11-21T09:06:17.000Z</time>
      </trkpt>
      <trkpt lat="44.4724" lon="6.21166">
        <ele>886</ele>
        <time>2025-11-21T09:06:18.000Z</time>
      </trkpt>
      <trkpt lat="44.4724" lon="6.21166">
        <ele>886</ele>
        <time>2025-11-21T09:06:19.000Z</time>
      </trkpt>
      <trkpt lat="44.47242" lon="6.21168">
        <ele>888</ele>
        <time>2025-11-21T09:06:20.000Z</time>
      </trkpt>
      <trkpt lat="44.47242" lon="6.21168">
        <ele>889</ele>
        <time>2025-11-21T09:06:21.000Z</time>
      </trkpt>
      <trkpt lat="44.47242" lon="6.21168">
        <ele>889</ele>
        <time>2025-11-21T09:06:22.000Z</time>
      </trkpt>
      <trkpt lat="44.47242" lon="6.21168">
        <ele>889</ele>
        <time>2025-11-21T09:06:23.000Z</time>
      </trkpt>
      <trkpt lat="44.47242" lon="6.21168">
        <ele>889</ele>
        <time>2025-11-21T09:06:24.000Z</time>
      </trkpt>
      <trkpt lat="44.47242" lon="6.21168">
        <ele>889</ele>
        <time>2025-11-21T09:06:25.000Z</time>
      </trkpt>
      <trkpt lat="44.47243" lon="6.21169">
        <ele>892</ele>
        <time>2025-11-21T09:06:26.000Z</time>
      </trkpt>
      <trkpt lat="44.47244" lon="6.2117">
        <ele>893</ele>
        <time>2025-11-21T09:06:27.000Z</time>
      </trkpt>
      <trkpt lat="44.47245" lon="6.21171">
        <ele>892</ele>
        <time>2025-11-21T09:06:28.000Z</time>
      </trkpt>
      <trkpt lat="44.47246" lon="6.2117">
        <ele>892</ele>
        <time>2025-11-21T09:06:29.000Z</time>
      </trkpt>
      <trkpt lat="44.47246" lon="6.2117">
        <ele>892</ele>
        <time>2025-11-21T09:06:30.000Z</time>
      </trkpt>
      <trkpt lat="44.47247" lon="6.21169">
        <ele>893</ele>
        <time>2025-11-21T09:06:31.000Z</time>
      </trkpt>
      <trkpt lat="44.47248" lon="6.21168">
        <ele>893</ele>
        <time>2025-11-21T09:06:32.000Z</time>
      </trkpt>
      <trkpt lat="44.47249" lon="6.21168">
        <ele>893</ele>
        <time>2025-11-21T09:06:33.000Z</time>
      </trkpt>
      <trkpt lat="44.4725" lon="6.21167">
        <ele>894</ele>
        <time>2025-11-21T09:06:34.000Z</time>
      </trkpt>
      <trkpt lat="44.47251" lon="6.21167">
        <ele>894</ele>
        <time>2025-11-21T09:06:35.000Z</time>
      </trkpt>
      <trkpt lat="44.47252" lon="6.21167">
        <ele>894</ele>
        <time>2025-11-21T09:06:36.000Z</time>
      </trkpt>
      <trkpt lat="44.47253" lon="6.21167">
        <ele>895</ele>
        <time>2025-11-21T09:06:37.000Z</time>
      </trkpt>
      <trkpt lat="44.47253" lon="6.21168">
        <ele>894</ele>
        <time>2025-11-21T09:06:38.000Z</time>
      </trkpt>
      <trkpt lat="44.47254" lon="6.21168">
        <ele>894</ele>
        <time>2025-11-21T09:06:39.000Z</time>
      </trkpt>
      <trkpt lat="44.47255" lon="6.21168">
        <ele>895</ele>
        <time>2025-11-21T09:06:40.000Z</time>
      </trkpt>
      <trkpt lat="44.47257" lon="6.21169">
        <ele>894</ele>
        <time>2025-11-21T09:06:41.000Z</time>
      </trkpt>
      <trkpt lat="44.47258" lon="6.2117">
        <ele>894</ele>
        <time>2025-11-21T09:06:42.000Z</time>
      </trkpt>
      <trkpt lat="44.47258" lon="6.21171">
        <ele>895</ele>
        <time>2025-11-21T09:06:43.000Z</time>
      </trkpt>
      <trkpt lat="44.47259" lon="6.21171">
        <ele>894</ele>
        <time>2025-11-21T09:06:44.000Z</time>
      </trkpt>
      <trkpt lat="44.4726" lon="6.21172">
        <ele>894</ele>
        <time>2025-11-21T09:06:45.000Z</time>
      </trkpt>
      <trkpt lat="44.4726" lon="6.21172">
        <ele>894</ele>
        <time>2025-11-21T09:06:46.000Z</time>
      </trkpt>
      <trkpt lat="44.47261" lon="6.21172">
        <ele>895</ele>
        <time>2025-11-21T09:06:47.000Z</time>
      </trkpt>
      <trkpt lat="44.47262" lon="6.21174">
        <ele>895</ele>
        <time>2025-11-21T09:06:48.000Z</time>
      </trkpt>
      <trkpt lat="44.47261" lon="6.21174">
        <ele>895</ele>
        <time>2025-11-21T09:06:49.000Z</time>
      </trkpt>
      <trkpt lat="44.47261" lon="6.21174">
        <ele>895</ele>
        <time>2025-11-21T09:06:50.000Z</time>
      </trkpt>
      <trkpt lat="44.47262" lon="6.21175">
        <ele>895</ele>
        <time>2025-11-21T09:06:51.000Z</time>
      </trkpt>
      <trkpt lat="44.47263" lon="6.21176">
        <ele>896</ele>
        <time>2025-11-21T09:06:52.000Z</time>
      </trkpt>
      <trkpt lat="44.47263" lon="6.21177">
        <ele>896</ele>
        <time>2025-11-21T09:06:53.000Z</time>
      </trkpt>
      <trkpt lat="44.47263" lon="6.21179">
        <ele>897</ele>
        <time>2025-11-21T09:06:54.000Z</time>
      </trkpt>
      <trkpt lat="44.47263" lon="6.21178">
        <ele>897</ele>
        <time>2025-11-21T09:06:55.000Z</time>
      </trkpt>
      <trkpt lat="44.47263" lon="6.21179">
        <ele>897</ele>
        <time>2025-11-21T09:06:56.000Z</time>
      </trkpt>
      <trkpt lat="44.47264" lon="6.2118">
        <ele>898</ele>
        <time>2025-11-21T09:06:57.000Z</time>
      </trkpt>
      <trkpt lat="44.47264" lon="6.2118">
        <ele>898</ele>
        <time>2025-11-21T09:06:58.000Z</time>
      </trkpt>
      <trkpt lat="44.47264" lon="6.2118">
        <ele>898</ele>
        <time>2025-11-21T09:06:59.000Z</time>
      </trkpt>
      <trkpt lat="44.47265" lon="6.21181">
        <ele>898</ele>
        <time>2025-11-21T09:07:00.000Z</time>
      </trkpt>
      <trkpt lat="44.47265" lon="6.21183">
        <ele>899</ele>
        <time>2025-11-21T09:07:01.000Z</time>
      </trkpt>
      <trkpt lat="44.47265" lon="6.21184">
        <ele>898</ele>
        <time>2025-11-21T09:07:02.000Z</time>
      </trkpt>
      <trkpt lat="44.47266" lon="6.21186">
        <ele>899</ele>
        <time>2025-11-21T09:07:03.000Z</time>
      </trkpt>
      <trkpt lat="44.47265" lon="6.21187">
        <ele>899</ele>
        <time>2025-11-21T09:07:04.000Z</time>
      </trkpt>
      <trkpt lat="44.47266" lon="6.21187">
        <ele>898</ele>
        <time>2025-11-21T09:07:05.000Z</time>
      </trkpt>
      <trkpt lat="44.47266" lon="6.21188">
        <ele>899</ele>
        <time>2025-11-21T09:07:06.000Z</time>
      </trkpt>
      <trkpt lat="44.47267" lon="6.21188">
        <ele>899</ele>
        <time>2025-11-21T09:07:07.000Z</time>
      </trkpt>
      <trkpt lat="44.47267" lon="6.2119">
        <ele>899</ele>
        <time>2025-11-21T09:07:08.000Z</time>
      </trkpt>
      <trkpt lat="44.47267" lon="6.21191">
        <ele>899</ele>
        <time>2025-11-21T09:07:09.000Z</time>
      </trkpt>
      <trkpt lat="44.47267" lon="6.21192">
        <ele>899</ele>
        <time>2025-11-21T09:07:10.000Z</time>
      </trkpt>
      <trkpt lat="44.47267" lon="6.21193">
        <ele>899</ele>
        <time>2025-11-21T09:07:11.000Z</time>
      </trkpt>
      <trkpt lat="44.47267" lon="6.21195">
        <ele>900</ele>
        <time>2025-11-21T09:07:12.000Z</time>
      </trkpt>
      <trkpt lat="44.47266" lon="6.21196">
        <ele>900</ele>
        <time>2025-11-21T09:07:13.000Z</time>
      </trkpt>
      <trkpt lat="44.47267" lon="6.21196">
        <ele>900</ele>
        <time>2025-11-21T09:07:14.000Z</time>
      </trkpt>
      <trkpt lat="44.47267" lon="6.21198">
        <ele>901</ele>
        <time>2025-11-21T09:07:15.000Z</time>
      </trkpt>
      <trkpt lat="44.47268" lon="6.21198">
        <ele>901</ele>
        <time>2025-11-21T09:07:16.000Z</time>
      </trkpt>
      <trkpt lat="44.47269" lon="6.21197">
        <ele>901</ele>
        <time>2025-11-21T09:07:17.000Z</time>
      </trkpt>
      <trkpt lat="44.47269" lon="6.21196">
        <ele>902</ele>
        <time>2025-11-21T09:07:18.000Z</time>
      </trkpt>
      <trkpt lat="44.47269" lon="6.21195">
        <ele>901</ele>
        <time>2025-11-21T09:07:19.000Z</time>
      </trkpt>
      <trkpt lat="44.47269" lon="6.21194">
        <ele>901</ele>
        <time>2025-11-21T09:07:20.000Z</time>
      </trkpt>
      <trkpt lat="44.4727" lon="6.21193">
        <ele>901</ele>
        <time>2025-11-21T09:07:21.000Z</time>
      </trkpt>
      <trkpt lat="44.4727" lon="6.21192">
        <ele>901</ele>
        <time>2025-11-21T09:07:22.000Z</time>
      </trkpt>
      <trkpt lat="44.4727" lon="6.21191">
        <ele>902</ele>
        <time>2025-11-21T09:07:23.000Z</time>
      </trkpt>
      <trkpt lat="44.4727" lon="6.2119">
        <ele>902</ele>
        <time>2025-11-21T09:07:24.000Z</time>
      </trkpt>
      <trkpt lat="44.47269" lon="6.2119">
        <ele>902</ele>
        <time>2025-11-21T09:07:25.000Z</time>
      </trkpt>
      <trkpt lat="44.47268" lon="6.21189">
        <ele>903</ele>
        <time>2025-11-21T09:07:26.000Z</time>
      </trkpt>
      <trkpt lat="44.47268" lon="6.21188">
        <ele>904</ele>
        <time>2025-11-21T09:07:27.000Z</time>
      </trkpt>
      <trkpt lat="44.47268" lon="6.21188">
        <ele>904</ele>
        <time>2025-11-21T09:07:28.000Z</time>
      </trkpt>
      <trkpt lat="44.47268" lon="6.21186">
        <ele>905</ele>
        <time>2025-11-21T09:07:29.000Z</time>
      </trkpt>
      <trkpt lat="44.47268" lon="6.21186">
        <ele>906</ele>
        <time>2025-11-21T09:07:30.000Z</time>
      </trkpt>
      <trkpt lat="44.47268" lon="6.21185">
        <ele>905</ele>
        <time>2025-11-21T09:07:31.000Z</time>
      </trkpt>
      <trkpt lat="44.47268" lon="6.21183">
        <ele>905</ele>
        <time>2025-11-21T09:07:32.000Z</time>
      </trkpt>
      <trkpt lat="44.47268" lon="6.21182">
        <ele>905</ele>
        <time>2025-11-21T09:07:33.000Z</time>
      </trkpt>
      <trkpt lat="44.47269" lon="6.21181">
        <ele>904</ele>
        <time>2025-11-21T09:07:34.000Z</time>
      </trkpt>
      <trkpt lat="44.47269" lon="6.2118">
        <ele>904</ele>
        <time>2025-11-21T09:07:35.000Z</time>
      </trkpt>
      <trkpt lat="44.4727" lon="6.2118">
        <ele>905</ele>
        <time>2025-11-21T09:07:36.000Z</time>
      </trkpt>
      <trkpt lat="44.4727" lon="6.21179">
        <ele>904</ele>
        <time>2025-11-21T09:07:37.000Z</time>
      </trkpt>
      <trkpt lat="44.4727" lon="6.21178">
        <ele>904</ele>
        <time>2025-11-21T09:07:38.000Z</time>
      </trkpt>
      <trkpt lat="44.4727" lon="6.21177">
        <ele>905</ele>
        <time>2025-11-21T09:07:39.000Z</time>
      </trkpt>
      <trkpt lat="44.4727" lon="6.21176">
        <ele>906</ele>
        <time>2025-11-21T09:07:40.000Z</time>
      </trkpt>
      <trkpt lat="44.47271" lon="6.21174">
        <ele>906</ele>
        <time>2025-11-21T09:07:41.000Z</time>
      </trkpt>
      <trkpt lat="44.47272" lon="6.21173">
        <ele>907</ele>
        <time>2025-11-21T09:07:42.000Z</time>
      </trkpt>
      <trkpt lat="44.47272" lon="6.21172">
        <ele>907</ele>
        <time>2025-11-21T09:07:43.000Z</time>
      </trkpt>
      <trkpt lat="44.47272" lon="6.21171">
        <ele>908</ele>
        <time>2025-11-21T09:07:44.000Z</time>
      </trkpt>
      <trkpt lat="44.47271" lon="6.2117">
        <ele>908</ele>
        <time>2025-11-21T09:07:45.000Z</time>
      </trkpt>
      <trkpt lat="44.47271" lon="6.21169">
        <ele>908</ele>
        <time>2025-11-21T09:07:46.000Z</time>
      </trkpt>
      <trkpt lat="44.47271" lon="6.21169">
        <ele>909</ele>
        <time>2025-11-21T09:07:47.000Z</time>
      </trkpt>
      <trkpt lat="44.47271" lon="6.21169">
        <ele>909</ele>
        <time>2025-11-21T09:07:48.000Z</time>
      </trkpt>
      <trkpt lat="44.4727" lon="6.21168">
        <ele>909</ele>
        <time>2025-11-21T09:07:49.000Z</time>
      </trkpt>
      <trkpt lat="44.4727" lon="6.21167">
        <ele>909</ele>
        <time>2025-11-21T09:07:50.000Z</time>
      </trkpt>
      <trkpt lat="44.4727" lon="6.21166">
        <ele>909</ele>
        <time>2025-11-21T09:07:51.000Z</time>
      </trkpt>
      <trkpt lat="44.47269" lon="6.21165">
        <ele>910</ele>
        <time>2025-11-21T09:07:52.000Z</time>
      </trkpt>
      <trkpt lat="44.47269" lon="6.21165">
        <ele>910</ele>
        <time>2025-11-21T09:07:53.000Z</time>
      </trkpt>
      <trkpt lat="44.47268" lon="6.21164">
        <ele>910</ele>
        <time>2025-11-21T09:07:54.000Z</time>
      </trkpt>
      <trkpt lat="44.47267" lon="6.21163">
        <ele>910</ele>
        <time>2025-11-21T09:07:55.000Z</time>
      </trkpt>
      <trkpt lat="44.47266" lon="6.21162">
        <ele>909</ele>
        <time>2025-11-21T09:07:56.000Z</time>
      </trkpt>
      <trkpt lat="44.47265" lon="6.21162">
        <ele>910</ele>
        <time>2025-11-21T09:07:57.000Z</time>
      </trkpt>
      <trkpt lat="44.47265" lon="6.21162">
        <ele>911</ele>
        <time>2025-11-21T09:07:58.000Z</time>
      </trkpt>
      <trkpt lat="44.47265" lon="6.21161">
        <ele>911</ele>
        <time>2025-11-21T09:07:59.000Z</time>
      </trkpt>
      <trkpt lat="44.47263" lon="6.21161">
        <ele>911</ele>
        <time>2025-11-21T09:08:00.000Z</time>
      </trkpt>
      <trkpt lat="44.47263" lon="6.2116">
        <ele>912</ele>
        <time>2025-11-21T09:08:01.000Z</time>
      </trkpt>
      <trkpt lat="44.47263" lon="6.21159">
        <ele>912</ele>
        <time>2025-11-21T09:08:02.000Z</time>
      </trkpt>
      <trkpt lat="44.47263" lon="6.21158">
        <ele>912</ele>
        <time>2025-11-21T09:08:03.000Z</time>
      </trkpt>
      <trkpt lat="44.47263" lon="6.21157">
        <ele>912</ele>
        <time>2025-11-21T09:08:04.000Z</time>
      </trkpt>
      <trkpt lat="44.47263" lon="6.21154">
        <ele>912</ele>
        <time>2025-11-21T09:08:05.000Z</time>
      </trkpt>
      <trkpt lat="44.47263" lon="6.21153">
        <ele>913</ele>
        <time>2025-11-21T09:08:06.000Z</time>
      </trkpt>
      <trkpt lat="44.47263" lon="6.21152">
        <ele>912</ele>
        <time>2025-11-21T09:08:07.000Z</time>
      </trkpt>
      <trkpt lat="44.47262" lon="6.21151">
        <ele>912</ele>
        <time>2025-11-21T09:08:08.000Z</time>
      </trkpt>
      <trkpt lat="44.47261" lon="6.2115">
        <ele>911</ele>
        <time>2025-11-21T09:08:09.000Z</time>
      </trkpt>
      <trkpt lat="44.4726" lon="6.2115">
        <ele>911</ele>
        <time>2025-11-21T09:08:10.000Z</time>
      </trkpt>
      <trkpt lat="44.47259" lon="6.21149">
        <ele>911</ele>
        <time>2025-11-21T09:08:11.000Z</time>
      </trkpt>
      <trkpt lat="44.47258" lon="6.21148">
        <ele>911</ele>
        <time>2025-11-21T09:08:12.000Z</time>
      </trkpt>
      <trkpt lat="44.47256" lon="6.21148">
        <ele>911</ele>
        <time>2025-11-21T09:08:13.000Z</time>
      </trkpt>
      <trkpt lat="44.47256" lon="6.21147">
        <ele>911</ele>
        <time>2025-11-21T09:08:14.000Z</time>
      </trkpt>
      <trkpt lat="44.47256" lon="6.21146">
        <ele>910</ele>
        <time>2025-11-21T09:08:15.000Z</time>
      </trkpt>
      <trkpt lat="44.47256" lon="6.21145">
        <ele>910</ele>
        <time>2025-11-21T09:08:16.000Z</time>
      </trkpt>
      <trkpt lat="44.47255" lon="6.21145">
        <ele>910</ele>
        <time>2025-11-21T09:08:17.000Z</time>
      </trkpt>
      <trkpt lat="44.47255" lon="6.21144">
        <ele>911</ele>
        <time>2025-11-21T09:08:18.000Z</time>
      </trkpt>
      <trkpt lat="44.47255" lon="6.21144">
        <ele>911</ele>
        <time>2025-11-21T09:08:19.000Z</time>
      </trkpt>
      <trkpt lat="44.47255" lon="6.21143">
        <ele>910</ele>
        <time>2025-11-21T09:08:20.000Z</time>
      </trkpt>
      <trkpt lat="44.47255" lon="6.21143">
        <ele>910</ele>
        <time>2025-11-21T09:08:21.000Z</time>
      </trkpt>
      <trkpt lat="44.47254" lon="6.21143">
        <ele>910</ele>
        <time>2025-11-21T09:08:22.000Z</time>
      </trkpt>
      <trkpt lat="44.47254" lon="6.21141">
        <ele>910</ele>
        <time>2025-11-21T09:08:23.000Z</time>
      </trkpt>
      <trkpt lat="44.47252" lon="6.21141">
        <ele>910</ele>
        <time>2025-11-21T09:08:24.000Z</time>
      </trkpt>
      <trkpt lat="44.47252" lon="6.21141">
        <ele>910</ele>
        <time>2025-11-21T09:08:25.000Z</time>
      </trkpt>
      <trkpt lat="44.47252" lon="6.2114">
        <ele>910</ele>
        <time>2025-11-21T09:08:26.000Z</time>
      </trkpt>
      <trkpt lat="44.47252" lon="6.21139">
        <ele>910</ele>
        <time>2025-11-21T09:08:27.000Z</time>
      </trkpt>
      <trkpt lat="44.47251" lon="6.21139">
        <ele>910</ele>
        <time>2025-11-21T09:08:28.000Z</time>
      </trkpt>
      <trkpt lat="44.47251" lon="6.21138">
        <ele>910</ele>
        <time>2025-11-21T09:08:29.000Z</time>
      </trkpt>
      <trkpt lat="44.4725" lon="6.21137">
        <ele>910</ele>
        <time>2025-11-21T09:08:30.000Z</time>
      </trkpt>
      <trkpt lat="44.4725" lon="6.21137">
        <ele>910</ele>
        <time>2025-11-21T09:08:31.000Z</time>
      </trkpt>
      <trkpt lat="44.47249" lon="6.21136">
        <ele>911</ele>
        <time>2025-11-21T09:08:32.000Z</time>
      </trkpt>
      <trkpt lat="44.47248" lon="6.21135">
        <ele>911</ele>
        <time>2025-11-21T09:08:33.000Z</time>
      </trkpt>
      <trkpt lat="44.47248" lon="6.21134">
        <ele>912</ele>
        <time>2025-11-21T09:08:34.000Z</time>
      </trkpt>
      <trkpt lat="44.47248" lon="6.21133">
        <ele>912</ele>
        <time>2025-11-21T09:08:35.000Z</time>
      </trkpt>
      <trkpt lat="44.47248" lon="6.21132">
        <ele>911</ele>
        <time>2025-11-21T09:08:36.000Z</time>
      </trkpt>
      <trkpt lat="44.47248" lon="6.21131">
        <ele>912</ele>
        <time>2025-11-21T09:08:37.000Z</time>
      </trkpt>
      <trkpt lat="44.47248" lon="6.2113">
        <ele>912</ele>
        <time>2025-11-21T09:08:38.000Z</time>
      </trkpt>
      <trkpt lat="44.47248" lon="6.21128">
        <ele>912</ele>
        <time>2025-11-21T09:08:39.000Z</time>
      </trkpt>
      <trkpt lat="44.47248" lon="6.21127">
        <ele>912</ele>
        <time>2025-11-21T09:08:40.000Z</time>
      </trkpt>
      <trkpt lat="44.47248" lon="6.21126">
        <ele>912</ele>
        <time>2025-11-21T09:08:41.000Z</time>
      </trkpt>
      <trkpt lat="44.47248" lon="6.21126">
        <ele>912</ele>
        <time>2025-11-21T09:08:42.000Z</time>
      </trkpt>
      <trkpt lat="44.47248" lon="6.21126">
        <ele>912</ele>
        <time>2025-11-21T09:08:43.000Z</time>
      </trkpt>
      <trkpt lat="44.47247" lon="6.21123">
        <ele>911</ele>
        <time>2025-11-21T09:08:44.000Z</time>
      </trkpt>
      <trkpt lat="44.47247" lon="6.21122">
        <ele>910</ele>
        <time>2025-11-21T09:08:45.000Z</time>
      </trkpt>
      <trkpt lat="44.47246" lon="6.21121">
        <ele>910</ele>
        <time>2025-11-21T09:08:46.000Z</time>
      </trkpt>
      <trkpt lat="44.47246" lon="6.2112">
        <ele>911</ele>
        <time>2025-11-21T09:08:47.000Z</time>
      </trkpt>
      <trkpt lat="44.47245" lon="6.2112">
        <ele>912</ele>
        <time>2025-11-21T09:08:48.000Z</time>
      </trkpt>
      <trkpt lat="44.47245" lon="6.2112">
        <ele>912</ele>
        <time>2025-11-21T09:08:49.000Z</time>
      </trkpt>
      <trkpt lat="44.47245" lon="6.21119">
        <ele>911</ele>
        <time>2025-11-21T09:08:50.000Z</time>
      </trkpt>
      <trkpt lat="44.47246" lon="6.21117">
        <ele>911</ele>
        <time>2025-11-21T09:08:51.000Z</time>
      </trkpt>
      <trkpt lat="44.47247" lon="6.21116">
        <ele>911</ele>
        <time>2025-11-21T09:08:52.000Z</time>
      </trkpt>
      <trkpt lat="44.47247" lon="6.21115">
        <ele>911</ele>
        <time>2025-11-21T09:08:53.000Z</time>
      </trkpt>
      <trkpt lat="44.47247" lon="6.21114">
        <ele>911</ele>
        <time>2025-11-21T09:08:54.000Z</time>
      </trkpt>
      <trkpt lat="44.47248" lon="6.21113">
        <ele>911</ele>
        <time>2025-11-21T09:08:55.000Z</time>
      </trkpt>
      <trkpt lat="44.47249" lon="6.21112">
        <ele>911</ele>
        <time>2025-11-21T09:08:56.000Z</time>
      </trkpt>
      <trkpt lat="44.47249" lon="6.21112">
        <ele>912</ele>
        <time>2025-11-21T09:08:57.000Z</time>
      </trkpt>
      <trkpt lat="44.47249" lon="6.21111">
        <ele>912</ele>
        <time>2025-11-21T09:08:58.000Z</time>
      </trkpt>
      <trkpt lat="44.47248" lon="6.2111">
        <ele>913</ele>
        <time>2025-11-21T09:08:59.000Z</time>
      </trkpt>
      <trkpt lat="44.47248" lon="6.21111">
        <ele>914</ele>
        <time>2025-11-21T09:09:00.000Z</time>
      </trkpt>
      <trkpt lat="44.47248" lon="6.21112">
        <ele>915</ele>
        <time>2025-11-21T09:09:01.000Z</time>
      </trkpt>
      <trkpt lat="44.47248" lon="6.21113">
        <ele>914</ele>
        <time>2025-11-21T09:09:02.000Z</time>
      </trkpt>
      <trkpt lat="44.47247" lon="6.21114">
        <ele>913</ele>
        <time>2025-11-21T09:09:03.000Z</time>
      </trkpt>
      <trkpt lat="44.47247" lon="6.21115">
        <ele>914</ele>
        <time>2025-11-21T09:09:04.000Z</time>
      </trkpt>
      <trkpt lat="44.47247" lon="6.21115">
        <ele>915</ele>
        <time>2025-11-21T09:09:05.000Z</time>
      </trkpt>
      <trkpt lat="44.47247" lon="6.21115">
        <ele>915</ele>
        <time>2025-11-21T09:09:06.000Z</time>
      </trkpt>
      <trkpt lat="44.47247" lon="6.21115">
        <ele>915</ele>
        <time>2025-11-21T09:09:07.000Z</time>
      </trkpt>
      <trkpt lat="44.47247" lon="6.21115">
        <ele>915</ele>
        <time>2025-11-21T09:09:08.000Z</time>
      </trkpt>
      <trkpt lat="44.47248" lon="6.21116">
        <ele>916</ele>
        <time>2025-11-21T09:09:09.000Z</time>
      </trkpt>
      <trkpt lat="44.47249" lon="6.21118">
        <ele>916</ele>
        <time>2025-11-21T09:09:10.000Z</time>
      </trkpt>
      <trkpt lat="44.4725" lon="6.21118">
        <ele>917</ele>
        <time>2025-11-21T09:09:11.000Z</time>
      </trkpt>
      <trkpt lat="44.4725" lon="6.21119">
        <ele>917</ele>
        <time>2025-11-21T09:09:12.000Z</time>
      </trkpt>
      <trkpt lat="44.4725" lon="6.21119">
        <ele>917</ele>
        <time>2025-11-21T09:09:13.000Z</time>
      </trkpt>
      <trkpt lat="44.4725" lon="6.21119">
        <ele>917</ele>
        <time>2025-11-21T09:09:14.000Z</time>
      </trkpt>
      <trkpt lat="44.47252" lon="6.2112">
        <ele>917</ele>
        <time>2025-11-21T09:09:15.000Z</time>
      </trkpt>
      <trkpt lat="44.47252" lon="6.21121">
        <ele>917</ele>
        <time>2025-11-21T09:09:16.000Z</time>
      </trkpt>
      <trkpt lat="44.47253" lon="6.21122">
        <ele>916</ele>
        <time>2025-11-21T09:09:17.000Z</time>
      </trkpt>
      <trkpt lat="44.47253" lon="6.21122">
        <ele>916</ele>
        <time>2025-11-21T09:09:18.000Z</time>
      </trkpt>
      <trkpt lat="44.47253" lon="6.21123">
        <ele>916</ele>
        <time>2025-11-21T09:09:19.000Z</time>
      </trkpt>
      <trkpt lat="44.47253" lon="6.21123">
        <ele>916</ele>
        <time>2025-11-21T09:09:20.000Z</time>
      </trkpt>
      <trkpt lat="44.47253" lon="6.21123">
        <ele>916</ele>
        <time>2025-11-21T09:09:21.000Z</time>
      </trkpt>
      <trkpt lat="44.47256" lon="6.21125">
        <ele>917</ele>
        <time>2025-11-21T09:09:22.000Z</time>
      </trkpt>
      <trkpt lat="44.47257" lon="6.21125">
        <ele>917</ele>
        <time>2025-11-21T09:09:23.000Z</time>
      </trkpt>
      <trkpt lat="44.47258" lon="6.21126">
        <ele>918</ele>
        <time>2025-11-21T09:09:24.000Z</time>
      </trkpt>
      <trkpt lat="44.47258" lon="6.21125">
        <ele>918</ele>
        <time>2025-11-21T09:09:25.000Z</time>
      </trkpt>
      <trkpt lat="44.47259" lon="6.21125">
        <ele>918</ele>
        <time>2025-11-21T09:09:26.000Z</time>
      </trkpt>
      <trkpt lat="44.4726" lon="6.21126">
        <ele>918</ele>
        <time>2025-11-21T09:09:27.000Z</time>
      </trkpt>
      <trkpt lat="44.47261" lon="6.21126">
        <ele>918</ele>
        <time>2025-11-21T09:09:28.000Z</time>
      </trkpt>
      <trkpt lat="44.47262" lon="6.21127">
        <ele>918</ele>
        <time>2025-11-21T09:09:29.000Z</time>
      </trkpt>
      <trkpt lat="44.47262" lon="6.21127">
        <ele>919</ele>
        <time>2025-11-21T09:09:30.000Z</time>
      </trkpt>
      <trkpt lat="44.47262" lon="6.21127">
        <ele>919</ele>
        <time>2025-11-21T09:09:31.000Z</time>
      </trkpt>
      <trkpt lat="44.47262" lon="6.21127">
        <ele>919</ele>
        <time>2025-11-21T09:09:32.000Z</time>
      </trkpt>
      <trkpt lat="44.47263" lon="6.21129">
        <ele>919</ele>
        <time>2025-11-21T09:09:33.000Z</time>
      </trkpt>
      <trkpt lat="44.47264" lon="6.21129">
        <ele>919</ele>
        <time>2025-11-21T09:09:34.000Z</time>
      </trkpt>
      <trkpt lat="44.47265" lon="6.21129">
        <ele>920</ele>
        <time>2025-11-21T09:09:35.000Z</time>
      </trkpt>
      <trkpt lat="44.47265" lon="6.21129">
        <ele>920</ele>
        <time>2025-11-21T09:09:36.000Z</time>
      </trkpt>
      <trkpt lat="44.47265" lon="6.21131">
        <ele>921</ele>
        <time>2025-11-21T09:09:37.000Z</time>
      </trkpt>
      <trkpt lat="44.47266" lon="6.21132">
        <ele>921</ele>
        <time>2025-11-21T09:09:38.000Z</time>
      </trkpt>
      <trkpt lat="44.47266" lon="6.21132">
        <ele>921</ele>
        <time>2025-11-21T09:09:39.000Z</time>
      </trkpt>
      <trkpt lat="44.47268" lon="6.21133">
        <ele>921</ele>
        <time>2025-11-21T09:09:40.000Z</time>
      </trkpt>
      <trkpt lat="44.47269" lon="6.21133">
        <ele>920</ele>
        <time>2025-11-21T09:09:41.000Z</time>
      </trkpt>
      <trkpt lat="44.4727" lon="6.21133">
        <ele>920</ele>
        <time>2025-11-21T09:09:42.000Z</time>
      </trkpt>
      <trkpt lat="44.4727" lon="6.21133">
        <ele>920</ele>
        <time>2025-11-21T09:09:43.000Z</time>
      </trkpt>
      <trkpt lat="44.47272" lon="6.21133">
        <ele>921</ele>
        <time>2025-11-21T09:09:44.000Z</time>
      </trkpt>
      <trkpt lat="44.47272" lon="6.21134">
        <ele>921</ele>
        <time>2025-11-21T09:09:45.000Z</time>
      </trkpt>
      <trkpt lat="44.47273" lon="6.21134">
        <ele>922</ele>
        <time>2025-11-21T09:09:46.000Z</time>
      </trkpt>
      <trkpt lat="44.47274" lon="6.21133">
        <ele>922</ele>
        <time>2025-11-21T09:09:47.000Z</time>
      </trkpt>
      <trkpt lat="44.47274" lon="6.21133">
        <ele>923</ele>
        <time>2025-11-21T09:09:48.000Z</time>
      </trkpt>
      <trkpt lat="44.47275" lon="6.21134">
        <ele>923</ele>
        <time>2025-11-21T09:09:49.000Z</time>
      </trkpt>
      <trkpt lat="44.47276" lon="6.21134">
        <ele>923</ele>
        <time>2025-11-21T09:09:50.000Z</time>
      </trkpt>
      <trkpt lat="44.47277" lon="6.21134">
        <ele>922</ele>
        <time>2025-11-21T09:09:51.000Z</time>
      </trkpt>
      <trkpt lat="44.47277" lon="6.21135">
        <ele>923</ele>
        <time>2025-11-21T09:09:52.000Z</time>
      </trkpt>
      <trkpt lat="44.47277" lon="6.21135">
        <ele>923</ele>
        <time>2025-11-21T09:09:53.000Z</time>
      </trkpt>
      <trkpt lat="44.47279" lon="6.21136">
        <ele>923</ele>
        <time>2025-11-21T09:09:54.000Z</time>
      </trkpt>
      <trkpt lat="44.47279" lon="6.21137">
        <ele>923</ele>
        <time>2025-11-21T09:09:55.000Z</time>
      </trkpt>
      <trkpt lat="44.47279" lon="6.21137">
        <ele>923</ele>
        <time>2025-11-21T09:09:56.000Z</time>
      </trkpt>
      <trkpt lat="44.4728" lon="6.21138">
        <ele>923</ele>
        <time>2025-11-21T09:09:57.000Z</time>
      </trkpt>
      <trkpt lat="44.47281" lon="6.21138">
        <ele>923</ele>
        <time>2025-11-21T09:09:58.000Z</time>
      </trkpt>
      <trkpt lat="44.47281" lon="6.21138">
        <ele>923</ele>
        <time>2025-11-21T09:09:59.000Z</time>
      </trkpt>
      <trkpt lat="44.47281" lon="6.21138">
        <ele>923</ele>
        <time>2025-11-21T09:10:00.000Z</time>
      </trkpt>
      <trkpt lat="44.47283" lon="6.21139">
        <ele>924</ele>
        <time>2025-11-21T09:10:01.000Z</time>
      </trkpt>
      <trkpt lat="44.47284" lon="6.21138">
        <ele>924</ele>
        <time>2025-11-21T09:10:02.000Z</time>
      </trkpt>
      <trkpt lat="44.47285" lon="6.21136">
        <ele>924</ele>
        <time>2025-11-21T09:10:03.000Z</time>
      </trkpt>
      <trkpt lat="44.47286" lon="6.21135">
        <ele>924</ele>
        <time>2025-11-21T09:10:04.000Z</time>
      </trkpt>
      <trkpt lat="44.47287" lon="6.21136">
        <ele>924</ele>
        <time>2025-11-21T09:10:05.000Z</time>
      </trkpt>
      <trkpt lat="44.47288" lon="6.21136">
        <ele>925</ele>
        <time>2025-11-21T09:10:06.000Z</time>
      </trkpt>
      <trkpt lat="44.47289" lon="6.21137">
        <ele>925</ele>
        <time>2025-11-21T09:10:07.000Z</time>
      </trkpt>
      <trkpt lat="44.47289" lon="6.21138">
        <ele>926</ele>
        <time>2025-11-21T09:10:08.000Z</time>
      </trkpt>
      <trkpt lat="44.4729" lon="6.2114">
        <ele>926</ele>
        <time>2025-11-21T09:10:09.000Z</time>
      </trkpt>
      <trkpt lat="44.4729" lon="6.21141">
        <ele>925</ele>
        <time>2025-11-21T09:10:10.000Z</time>
      </trkpt>
      <trkpt lat="44.4729" lon="6.21142">
        <ele>926</ele>
        <time>2025-11-21T09:10:11.000Z</time>
      </trkpt>
      <trkpt lat="44.4729" lon="6.21143">
        <ele>925</ele>
        <time>2025-11-21T09:10:12.000Z</time>
      </trkpt>
      <trkpt lat="44.4729" lon="6.21145">
        <ele>926</ele>
        <time>2025-11-21T09:10:13.000Z</time>
      </trkpt>
      <trkpt lat="44.4729" lon="6.21146">
        <ele>926</ele>
        <time>2025-11-21T09:10:14.000Z</time>
      </trkpt>
      <trkpt lat="44.4729" lon="6.21148">
        <ele>927</ele>
        <time>2025-11-21T09:10:15.000Z</time>
      </trkpt>
      <trkpt lat="44.47291" lon="6.21149">
        <ele>928</ele>
        <time>2025-11-21T09:10:16.000Z</time>
      </trkpt>
      <trkpt lat="44.47291" lon="6.21151">
        <ele>928</ele>
        <time>2025-11-21T09:10:17.000Z</time>
      </trkpt>
      <trkpt lat="44.47291" lon="6.21152">
        <ele>927</ele>
        <time>2025-11-21T09:10:18.000Z</time>
      </trkpt>
      <trkpt lat="44.47291" lon="6.21153">
        <ele>927</ele>
        <time>2025-11-21T09:10:19.000Z</time>
      </trkpt>
      <trkpt lat="44.47291" lon="6.21155">
        <ele>928</ele>
        <time>2025-11-21T09:10:20.000Z</time>
      </trkpt>
      <trkpt lat="44.47291" lon="6.21156">
        <ele>929</ele>
        <time>2025-11-21T09:10:21.000Z</time>
      </trkpt>
      <trkpt lat="44.47291" lon="6.21157">
        <ele>929</ele>
        <time>2025-11-21T09:10:22.000Z</time>
      </trkpt>
      <trkpt lat="44.47291" lon="6.21159">
        <ele>928</ele>
        <time>2025-11-21T09:10:23.000Z</time>
      </trkpt>
      <trkpt lat="44.47291" lon="6.21159">
        <ele>929</ele>
        <time>2025-11-21T09:10:24.000Z</time>
      </trkpt>
      <trkpt lat="44.47291" lon="6.2116">
        <ele>930</ele>
        <time>2025-11-21T09:10:25.000Z</time>
      </trkpt>
      <trkpt lat="44.47292" lon="6.21161">
        <ele>929</ele>
        <time>2025-11-21T09:10:26.000Z</time>
      </trkpt>
      <trkpt lat="44.47292" lon="6.21161">
        <ele>929</ele>
        <time>2025-11-21T09:10:27.000Z</time>
      </trkpt>
      <trkpt lat="44.47293" lon="6.21162">
        <ele>928</ele>
        <time>2025-11-21T09:10:28.000Z</time>
      </trkpt>
      <trkpt lat="44.47293" lon="6.21163">
        <ele>928</ele>
        <time>2025-11-21T09:10:29.000Z</time>
      </trkpt>
      <trkpt lat="44.47294" lon="6.21164">
        <ele>927</ele>
        <time>2025-11-21T09:10:30.000Z</time>
      </trkpt>
      <trkpt lat="44.47294" lon="6.21165">
        <ele>928</ele>
        <time>2025-11-21T09:10:31.000Z</time>
      </trkpt>
      <trkpt lat="44.47295" lon="6.21165">
        <ele>927</ele>
        <time>2025-11-21T09:10:32.000Z</time>
      </trkpt>
      <trkpt lat="44.47296" lon="6.21165">
        <ele>927</ele>
        <time>2025-11-21T09:10:33.000Z</time>
      </trkpt>
      <trkpt lat="44.47297" lon="6.21164">
        <ele>926</ele>
        <time>2025-11-21T09:10:34.000Z</time>
      </trkpt>
      <trkpt lat="44.47297" lon="6.21163">
        <ele>926</ele>
        <time>2025-11-21T09:10:35.000Z</time>
      </trkpt>
      <trkpt lat="44.47297" lon="6.21162">
        <ele>927</ele>
        <time>2025-11-21T09:10:36.000Z</time>
      </trkpt>
      <trkpt lat="44.47297" lon="6.21161">
        <ele>927</ele>
        <time>2025-11-21T09:10:37.000Z</time>
      </trkpt>
      <trkpt lat="44.47297" lon="6.21161">
        <ele>927</ele>
        <time>2025-11-21T09:10:38.000Z</time>
      </trkpt>
      <trkpt lat="44.47297" lon="6.21161">
        <ele>927</ele>
        <time>2025-11-21T09:10:39.000Z</time>
      </trkpt>
      <trkpt lat="44.47297" lon="6.21159">
        <ele>928</ele>
        <time>2025-11-21T09:10:40.000Z</time>
      </trkpt>
      <trkpt lat="44.47297" lon="6.21158">
        <ele>928</ele>
        <time>2025-11-21T09:10:41.000Z</time>
      </trkpt>
      <trkpt lat="44.47296" lon="6.21157">
        <ele>928</ele>
        <time>2025-11-21T09:10:42.000Z</time>
      </trkpt>
      <trkpt lat="44.47296" lon="6.21156">
        <ele>927</ele>
        <time>2025-11-21T09:10:43.000Z</time>
      </trkpt>
      <trkpt lat="44.47296" lon="6.21155">
        <ele>928</ele>
        <time>2025-11-21T09:10:44.000Z</time>
      </trkpt>
      <trkpt lat="44.47296" lon="6.21154">
        <ele>929</ele>
        <time>2025-11-21T09:10:45.000Z</time>
      </trkpt>
      <trkpt lat="44.47296" lon="6.21154">
        <ele>929</ele>
        <time>2025-11-21T09:10:46.000Z</time>
      </trkpt>
      <trkpt lat="44.47297" lon="6.21151">
        <ele>929</ele>
        <time>2025-11-21T09:10:47.000Z</time>
      </trkpt>
      <trkpt lat="44.47298" lon="6.2115">
        <ele>930</ele>
        <time>2025-11-21T09:10:48.000Z</time>
      </trkpt>
      <trkpt lat="44.47298" lon="6.21149">
        <ele>930</ele>
        <time>2025-11-21T09:10:49.000Z</time>
      </trkpt>
      <trkpt lat="44.47298" lon="6.21148">
        <ele>930</ele>
        <time>2025-11-21T09:10:50.000Z</time>
      </trkpt>
      <trkpt lat="44.47298" lon="6.21147">
        <ele>930</ele>
        <time>2025-11-21T09:10:51.000Z</time>
      </trkpt>
      <trkpt lat="44.47298" lon="6.21146">
        <ele>930</ele>
        <time>2025-11-21T09:10:52.000Z</time>
      </trkpt>
      <trkpt lat="44.47298" lon="6.21146">
        <ele>931</ele>
        <time>2025-11-21T09:10:53.000Z</time>
      </trkpt>
      <trkpt lat="44.47298" lon="6.21146">
        <ele>931</ele>
        <time>2025-11-21T09:10:54.000Z</time>
      </trkpt>
      <trkpt lat="44.47298" lon="6.21146">
        <ele>932</ele>
        <time>2025-11-21T09:10:55.000Z</time>
      </trkpt>
      <trkpt lat="44.47298" lon="6.21145">
        <ele>933</ele>
        <time>2025-11-21T09:10:56.000Z</time>
      </trkpt>
      <trkpt lat="44.47298" lon="6.21145">
        <ele>933</ele>
        <time>2025-11-21T09:10:57.000Z</time>
      </trkpt>
      <trkpt lat="44.47298" lon="6.21144">
        <ele>933</ele>
        <time>2025-11-21T09:10:58.000Z</time>
      </trkpt>
      <trkpt lat="44.47297" lon="6.21143">
        <ele>934</ele>
        <time>2025-11-21T09:10:59.000Z</time>
      </trkpt>
      <trkpt lat="44.47297" lon="6.21141">
        <ele>933</ele>
        <time>2025-11-21T09:11:00.000Z</time>
      </trkpt>
      <trkpt lat="44.47297" lon="6.2114">
        <ele>933</ele>
        <time>2025-11-21T09:11:01.000Z</time>
      </trkpt>
      <trkpt lat="44.47296" lon="6.21138">
        <ele>934</ele>
        <time>2025-11-21T09:11:02.000Z</time>
      </trkpt>
      <trkpt lat="44.47296" lon="6.21136">
        <ele>934</ele>
        <time>2025-11-21T09:11:03.000Z</time>
      </trkpt>
      <trkpt lat="44.47297" lon="6.21135">
        <ele>934</ele>
        <time>2025-11-21T09:11:04.000Z</time>
      </trkpt>
      <trkpt lat="44.47297" lon="6.21134">
        <ele>933</ele>
        <time>2025-11-21T09:11:05.000Z</time>
      </trkpt>
      <trkpt lat="44.47297" lon="6.21133">
        <ele>933</ele>
        <time>2025-11-21T09:11:06.000Z</time>
      </trkpt>
      <trkpt lat="44.47298" lon="6.21132">
        <ele>934</ele>
        <time>2025-11-21T09:11:07.000Z</time>
      </trkpt>
      <trkpt lat="44.47298" lon="6.21132">
        <ele>934</ele>
        <time>2025-11-21T09:11:08.000Z</time>
      </trkpt>
      <trkpt lat="44.47297" lon="6.21131">
        <ele>934</ele>
        <time>2025-11-21T09:11:09.000Z</time>
      </trkpt>
      <trkpt lat="44.47296" lon="6.2113">
        <ele>934</ele>
        <time>2025-11-21T09:11:10.000Z</time>
      </trkpt>
      <trkpt lat="44.47297" lon="6.21129">
        <ele>934</ele>
        <time>2025-11-21T09:11:11.000Z</time>
      </trkpt>
      <trkpt lat="44.47297" lon="6.21127">
        <ele>934</ele>
        <time>2025-11-21T09:11:12.000Z</time>
      </trkpt>
      <trkpt lat="44.47297" lon="6.21126">
        <ele>934</ele>
        <time>2025-11-21T09:11:13.000Z</time>
      </trkpt>
      <trkpt lat="44.47296" lon="6.21125">
        <ele>935</ele>
        <time>2025-11-21T09:11:14.000Z</time>
      </trkpt>
      <trkpt lat="44.47295" lon="6.21124">
        <ele>936</ele>
        <time>2025-11-21T09:11:15.000Z</time>
      </trkpt>
      <trkpt lat="44.47295" lon="6.21124">
        <ele>936</ele>
        <time>2025-11-21T09:11:16.000Z</time>
      </trkpt>
      <trkpt lat="44.47294" lon="6.21124">
        <ele>936</ele>
        <time>2025-11-21T09:11:17.000Z</time>
      </trkpt>
      <trkpt lat="44.47293" lon="6.21123">
        <ele>937</ele>
        <time>2025-11-21T09:11:18.000Z</time>
      </trkpt>
      <trkpt lat="44.47293" lon="6.21122">
        <ele>937</ele>
        <time>2025-11-21T09:11:19.000Z</time>
      </trkpt>
      <trkpt lat="44.47291" lon="6.21122">
        <ele>936</ele>
        <time>2025-11-21T09:11:20.000Z</time>
      </trkpt>
      <trkpt lat="44.47291" lon="6.21122">
        <ele>936</ele>
        <time>2025-11-21T09:11:21.000Z</time>
      </trkpt>
      <trkpt lat="44.4729" lon="6.21121">
        <ele>936</ele>
        <time>2025-11-21T09:11:22.000Z</time>
      </trkpt>
      <trkpt lat="44.4729" lon="6.21121">
        <ele>936</ele>
        <time>2025-11-21T09:11:23.000Z</time>
      </trkpt>
      <trkpt lat="44.4729" lon="6.21121">
        <ele>936</ele>
        <time>2025-11-21T09:11:24.000Z</time>
      </trkpt>
      <trkpt lat="44.4729" lon="6.2112">
        <ele>937</ele>
        <time>2025-11-21T09:11:25.000Z</time>
      </trkpt>
      <trkpt lat="44.47289" lon="6.21119">
        <ele>936</ele>
        <time>2025-11-21T09:11:26.000Z</time>
      </trkpt>
      <trkpt lat="44.47289" lon="6.21119">
        <ele>936</ele>
        <time>2025-11-21T09:11:27.000Z</time>
      </trkpt>
      <trkpt lat="44.47289" lon="6.21117">
        <ele>936</ele>
        <time>2025-11-21T09:11:28.000Z</time>
      </trkpt>
      <trkpt lat="44.47288" lon="6.21116">
        <ele>936</ele>
        <time>2025-11-21T09:11:29.000Z</time>
      </trkpt>
      <trkpt lat="44.47288" lon="6.21115">
        <ele>937</ele>
        <time>2025-11-21T09:11:30.000Z</time>
      </trkpt>
      <trkpt lat="44.47288" lon="6.21114">
        <ele>937</ele>
        <time>2025-11-21T09:11:31.000Z</time>
      </trkpt>
      <trkpt lat="44.47287" lon="6.21114">
        <ele>937</ele>
        <time>2025-11-21T09:11:32.000Z</time>
      </trkpt>
      <trkpt lat="44.47287" lon="6.21113">
        <ele>938</ele>
        <time>2025-11-21T09:11:33.000Z</time>
      </trkpt>
      <trkpt lat="44.47287" lon="6.21111">
        <ele>937</ele>
        <time>2025-11-21T09:11:34.000Z</time>
      </trkpt>
      <trkpt lat="44.47286" lon="6.2111">
        <ele>937</ele>
        <time>2025-11-21T09:11:35.000Z</time>
      </trkpt>
      <trkpt lat="44.47286" lon="6.21109">
        <ele>937</ele>
        <time>2025-11-21T09:11:36.000Z</time>
      </trkpt>
      <trkpt lat="44.47286" lon="6.21108">
        <ele>937</ele>
        <time>2025-11-21T09:11:37.000Z</time>
      </trkpt>
      <trkpt lat="44.47285" lon="6.21107">
        <ele>937</ele>
        <time>2025-11-21T09:11:38.000Z</time>
      </trkpt>
      <trkpt lat="44.47285" lon="6.21106">
        <ele>937</ele>
        <time>2025-11-21T09:11:39.000Z</time>
      </trkpt>
      <trkpt lat="44.47285" lon="6.21104">
        <ele>937</ele>
        <time>2025-11-21T09:11:40.000Z</time>
      </trkpt>
      <trkpt lat="44.47284" lon="6.21103">
        <ele>937</ele>
        <time>2025-11-21T09:11:41.000Z</time>
      </trkpt>
      <trkpt lat="44.47283" lon="6.21101">
        <ele>938</ele>
        <time>2025-11-21T09:11:42.000Z</time>
      </trkpt>
      <trkpt lat="44.47283" lon="6.211">
        <ele>938</ele>
        <time>2025-11-21T09:11:43.000Z</time>
      </trkpt>
      <trkpt lat="44.47283" lon="6.211">
        <ele>939</ele>
        <time>2025-11-21T09:11:44.000Z</time>
      </trkpt>
      <trkpt lat="44.47282" lon="6.21099">
        <ele>939</ele>
        <time>2025-11-21T09:11:45.000Z</time>
      </trkpt>
      <trkpt lat="44.47281" lon="6.21098">
        <ele>939</ele>
        <time>2025-11-21T09:11:46.000Z</time>
      </trkpt>
      <trkpt lat="44.47281" lon="6.21097">
        <ele>940</ele>
        <time>2025-11-21T09:11:47.000Z</time>
      </trkpt>
      <trkpt lat="44.4728" lon="6.21096">
        <ele>940</ele>
        <time>2025-11-21T09:11:48.000Z</time>
      </trkpt>
      <trkpt lat="44.47281" lon="6.21095">
        <ele>940</ele>
        <time>2025-11-21T09:11:49.000Z</time>
      </trkpt>
      <trkpt lat="44.47281" lon="6.21093">
        <ele>940</ele>
        <time>2025-11-21T09:11:50.000Z</time>
      </trkpt>
      <trkpt lat="44.47282" lon="6.21092">
        <ele>939</ele>
        <time>2025-11-21T09:11:51.000Z</time>
      </trkpt>
      <trkpt lat="44.47282" lon="6.21091">
        <ele>938</ele>
        <time>2025-11-21T09:11:52.000Z</time>
      </trkpt>
      <trkpt lat="44.47282" lon="6.21092">
        <ele>939</ele>
        <time>2025-11-21T09:11:53.000Z</time>
      </trkpt>
      <trkpt lat="44.47283" lon="6.21091">
        <ele>939</ele>
        <time>2025-11-21T09:11:54.000Z</time>
      </trkpt>
      <trkpt lat="44.47283" lon="6.21091">
        <ele>939</ele>
        <time>2025-11-21T09:11:55.000Z</time>
      </trkpt>
      <trkpt lat="44.47283" lon="6.21089">
        <ele>939</ele>
        <time>2025-11-21T09:11:56.000Z</time>
      </trkpt>
      <trkpt lat="44.47284" lon="6.21087">
        <ele>940</ele>
        <time>2025-11-21T09:11:57.000Z</time>
      </trkpt>
      <trkpt lat="44.47284" lon="6.21086">
        <ele>940</ele>
        <time>2025-11-21T09:11:58.000Z</time>
      </trkpt>
      <trkpt lat="44.47285" lon="6.21085">
        <ele>940</ele>
        <time>2025-11-21T09:11:59.000Z</time>
      </trkpt>
      <trkpt lat="44.47285" lon="6.21085">
        <ele>940</ele>
        <time>2025-11-21T09:12:00.000Z</time>
      </trkpt>
      <trkpt lat="44.47285" lon="6.21083">
        <ele>939</ele>
        <time>2025-11-21T09:12:01.000Z</time>
      </trkpt>
      <trkpt lat="44.47286" lon="6.21081">
        <ele>940</ele>
        <time>2025-11-21T09:12:02.000Z</time>
      </trkpt>
      <trkpt lat="44.47288" lon="6.2108">
        <ele>940</ele>
        <time>2025-11-21T09:12:03.000Z</time>
      </trkpt>
      <trkpt lat="44.47288" lon="6.21079">
        <ele>940</ele>
        <time>2025-11-21T09:12:04.000Z</time>
      </trkpt>
      <trkpt lat="44.47289" lon="6.21079">
        <ele>941</ele>
        <time>2025-11-21T09:12:05.000Z</time>
      </trkpt>
      <trkpt lat="44.4729" lon="6.21078">
        <ele>941</ele>
        <time>2025-11-21T09:12:06.000Z</time>
      </trkpt>
      <trkpt lat="44.47291" lon="6.21077">
        <ele>941</ele>
        <time>2025-11-21T09:12:07.000Z</time>
      </trkpt>
      <trkpt lat="44.47292" lon="6.21076">
        <ele>941</ele>
        <time>2025-11-21T09:12:08.000Z</time>
      </trkpt>
      <trkpt lat="44.47293" lon="6.21075">
        <ele>941</ele>
        <time>2025-11-21T09:12:09.000Z</time>
      </trkpt>
      <trkpt lat="44.47293" lon="6.21074">
        <ele>941</ele>
        <time>2025-11-21T09:12:10.000Z</time>
      </trkpt>
      <trkpt lat="44.47294" lon="6.21073">
        <ele>941</ele>
        <time>2025-11-21T09:12:11.000Z</time>
      </trkpt>
      <trkpt lat="44.47294" lon="6.21072">
        <ele>941</ele>
        <time>2025-11-21T09:12:12.000Z</time>
      </trkpt>
      <trkpt lat="44.47294" lon="6.21071">
        <ele>941</ele>
        <time>2025-11-21T09:12:13.000Z</time>
      </trkpt>
      <trkpt lat="44.47294" lon="6.2107">
        <ele>942</ele>
        <time>2025-11-21T09:12:14.000Z</time>
      </trkpt>
      <trkpt lat="44.47294" lon="6.21069">
        <ele>942</ele>
        <time>2025-11-21T09:12:15.000Z</time>
      </trkpt>
      <trkpt lat="44.47293" lon="6.21069">
        <ele>942</ele>
        <time>2025-11-21T09:12:16.000Z</time>
      </trkpt>
      <trkpt lat="44.47293" lon="6.21067">
        <ele>942</ele>
        <time>2025-11-21T09:12:17.000Z</time>
      </trkpt>
      <trkpt lat="44.47293" lon="6.21067">
        <ele>942</ele>
        <time>2025-11-21T09:12:18.000Z</time>
      </trkpt>
      <trkpt lat="44.47293" lon="6.21066">
        <ele>942</ele>
        <time>2025-11-21T09:12:19.000Z</time>
      </trkpt>
      <trkpt lat="44.47293" lon="6.21066">
        <ele>942</ele>
        <time>2025-11-21T09:12:20.000Z</time>
      </trkpt>
      <trkpt lat="44.47292" lon="6.21065">
        <ele>942</ele>
        <time>2025-11-21T09:12:21.000Z</time>
      </trkpt>
      <trkpt lat="44.47292" lon="6.21064">
        <ele>943</ele>
        <time>2025-11-21T09:12:22.000Z</time>
      </trkpt>
      <trkpt lat="44.47292" lon="6.21062">
        <ele>943</ele>
        <time>2025-11-21T09:12:23.000Z</time>
      </trkpt>
      <trkpt lat="44.47293" lon="6.21061">
        <ele>943</ele>
        <time>2025-11-21T09:12:24.000Z</time>
      </trkpt>
      <trkpt lat="44.47293" lon="6.2106">
        <ele>942</ele>
        <time>2025-11-21T09:12:25.000Z</time>
      </trkpt>
      <trkpt lat="44.47293" lon="6.21059">
        <ele>943</ele>
        <time>2025-11-21T09:12:26.000Z</time>
      </trkpt>
      <trkpt lat="44.47293" lon="6.21058">
        <ele>944</ele>
        <time>2025-11-21T09:12:27.000Z</time>
      </trkpt>
      <trkpt lat="44.47293" lon="6.21058">
        <ele>943</ele>
        <time>2025-11-21T09:12:28.000Z</time>
      </trkpt>
      <trkpt lat="44.47293" lon="6.21058">
        <ele>943</ele>
        <time>2025-11-21T09:12:29.000Z</time>
      </trkpt>
      <trkpt lat="44.47293" lon="6.21058">
        <ele>943</ele>
        <time>2025-11-21T09:12:30.000Z</time>
      </trkpt>
      <trkpt lat="44.47293" lon="6.21058">
        <ele>943</ele>
        <time>2025-11-21T09:12:31.000Z</time>
      </trkpt>
      <trkpt lat="44.47293" lon="6.21058">
        <ele>943</ele>
        <time>2025-11-21T09:12:32.000Z</time>
      </trkpt>
      <trkpt lat="44.47294" lon="6.21054">
        <ele>943</ele>
        <time>2025-11-21T09:12:33.000Z</time>
      </trkpt>
      <trkpt lat="44.47293" lon="6.21053">
        <ele>943</ele>
        <time>2025-11-21T09:12:34.000Z</time>
      </trkpt>
      <trkpt lat="44.47293" lon="6.21051">
        <ele>942</ele>
        <time>2025-11-21T09:12:35.000Z</time>
      </trkpt>
      <trkpt lat="44.47292" lon="6.2105">
        <ele>942</ele>
        <time>2025-11-21T09:12:36.000Z</time>
      </trkpt>
      <trkpt lat="44.47292" lon="6.2105">
        <ele>942</ele>
        <time>2025-11-21T09:12:37.000Z</time>
      </trkpt>
      <trkpt lat="44.47292" lon="6.2105">
        <ele>942</ele>
        <time>2025-11-21T09:12:38.000Z</time>
      </trkpt>
      <trkpt lat="44.47292" lon="6.21048">
        <ele>943</ele>
        <time>2025-11-21T09:12:39.000Z</time>
      </trkpt>
      <trkpt lat="44.47292" lon="6.21047">
        <ele>944</ele>
        <time>2025-11-21T09:12:40.000Z</time>
      </trkpt>
      <trkpt lat="44.47295" lon="6.21052">
        <ele>946</ele>
        <time>2025-11-21T09:12:54.000Z</time>
      </trkpt>
      <trkpt lat="44.47295" lon="6.21054">
        <ele>947</ele>
        <time>2025-11-21T09:12:55.000Z</time>
      </trkpt>
      <trkpt lat="44.47296" lon="6.21055">
        <ele>947</ele>
        <time>2025-11-21T09:12:56.000Z</time>
      </trkpt>
      <trkpt lat="44.47297" lon="6.21053">
        <ele>948</ele>
        <time>2025-11-21T09:12:57.000Z</time>
      </trkpt>
      <trkpt lat="44.47297" lon="6.21054">
        <ele>949</ele>
        <time>2025-11-21T09:12:58.000Z</time>
      </trkpt>
      <trkpt lat="44.47297" lon="6.21056">
        <ele>949</ele>
        <time>2025-11-21T09:12:59.000Z</time>
      </trkpt>
      <trkpt lat="44.47296" lon="6.21059">
        <ele>949</ele>
        <time>2025-11-21T09:13:00.000Z</time>
      </trkpt>
      <trkpt lat="44.47296" lon="6.21059">
        <ele>950</ele>
        <time>2025-11-21T09:13:01.000Z</time>
      </trkpt>
      <trkpt lat="44.47296" lon="6.21059">
        <ele>951</ele>
        <time>2025-11-21T09:13:02.000Z</time>
      </trkpt>
      <trkpt lat="44.47296" lon="6.21061">
        <ele>951</ele>
        <time>2025-11-21T09:13:03.000Z</time>
      </trkpt>
      <trkpt lat="44.47296" lon="6.21062">
        <ele>952</ele>
        <time>2025-11-21T09:13:04.000Z</time>
      </trkpt>
      <trkpt lat="44.47296" lon="6.21062">
        <ele>951</ele>
        <time>2025-11-21T09:13:05.000Z</time>
      </trkpt>
      <trkpt lat="44.47297" lon="6.21063">
        <ele>953</ele>
        <time>2025-11-21T09:13:06.000Z</time>
      </trkpt>
      <trkpt lat="44.47298" lon="6.21064">
        <ele>953</ele>
        <time>2025-11-21T09:13:07.000Z</time>
      </trkpt>
      <trkpt lat="44.47299" lon="6.21065">
        <ele>952</ele>
        <time>2025-11-21T09:13:08.000Z</time>
      </trkpt>
      <trkpt lat="44.47299" lon="6.21066">
        <ele>951</ele>
        <time>2025-11-21T09:13:09.000Z</time>
      </trkpt>
      <trkpt lat="44.47299" lon="6.21066">
        <ele>951</ele>
        <time>2025-11-21T09:13:10.000Z</time>
      </trkpt>
      <trkpt lat="44.47299" lon="6.21066">
        <ele>951</ele>
        <time>2025-11-21T09:13:11.000Z</time>
      </trkpt>
      <trkpt lat="44.473" lon="6.21069">
        <ele>950</ele>
        <time>2025-11-21T09:13:12.000Z</time>
      </trkpt>
      <trkpt lat="44.473" lon="6.2107">
        <ele>950</ele>
        <time>2025-11-21T09:13:13.000Z</time>
      </trkpt>
      <trkpt lat="44.473" lon="6.21071">
        <ele>951</ele>
        <time>2025-11-21T09:13:14.000Z</time>
      </trkpt>
      <trkpt lat="44.473" lon="6.21072">
        <ele>951</ele>
        <time>2025-11-21T09:13:15.000Z</time>
      </trkpt>
      <trkpt lat="44.47301" lon="6.21072">
        <ele>950</ele>
        <time>2025-11-21T09:13:16.000Z</time>
      </trkpt>
      <trkpt lat="44.47301" lon="6.21073">
        <ele>950</ele>
        <time>2025-11-21T09:13:17.000Z</time>
      </trkpt>
      <trkpt lat="44.47301" lon="6.21073">
        <ele>951</ele>
        <time>2025-11-21T09:13:18.000Z</time>
      </trkpt>
      <trkpt lat="44.47302" lon="6.21074">
        <ele>952</ele>
        <time>2025-11-21T09:13:19.000Z</time>
      </trkpt>
      <trkpt lat="44.47302" lon="6.21075">
        <ele>953</ele>
        <time>2025-11-21T09:13:20.000Z</time>
      </trkpt>
      <trkpt lat="44.47302" lon="6.21076">
        <ele>952</ele>
        <time>2025-11-21T09:13:21.000Z</time>
      </trkpt>
      <trkpt lat="44.47302" lon="6.21077">
        <ele>952</ele>
        <time>2025-11-21T09:13:22.000Z</time>
      </trkpt>
      <trkpt lat="44.47303" lon="6.21079">
        <ele>953</ele>
        <time>2025-11-21T09:13:23.000Z</time>
      </trkpt>
      <trkpt lat="44.47304" lon="6.21081">
        <ele>952</ele>
        <time>2025-11-21T09:13:24.000Z</time>
      </trkpt>
      <trkpt lat="44.47305" lon="6.21082">
        <ele>953</ele>
        <time>2025-11-21T09:13:25.000Z</time>
      </trkpt>
      <trkpt lat="44.47305" lon="6.21083">
        <ele>953</ele>
        <time>2025-11-21T09:13:26.000Z</time>
      </trkpt>
      <trkpt lat="44.47305" lon="6.21084">
        <ele>953</ele>
        <time>2025-11-21T09:13:27.000Z</time>
      </trkpt>
      <trkpt lat="44.47306" lon="6.21086">
        <ele>953</ele>
        <time>2025-11-21T09:13:28.000Z</time>
      </trkpt>
      <trkpt lat="44.47306" lon="6.21086">
        <ele>953</ele>
        <time>2025-11-21T09:13:29.000Z</time>
      </trkpt>
      <trkpt lat="44.47306" lon="6.21088">
        <ele>952</ele>
        <time>2025-11-21T09:13:30.000Z</time>
      </trkpt>
      <trkpt lat="44.47306" lon="6.21089">
        <ele>952</ele>
        <time>2025-11-21T09:13:31.000Z</time>
      </trkpt>
      <trkpt lat="44.47307" lon="6.21089">
        <ele>952</ele>
        <time>2025-11-21T09:13:32.000Z</time>
      </trkpt>
      <trkpt lat="44.47307" lon="6.21089">
        <ele>951</ele>
        <time>2025-11-21T09:13:33.000Z</time>
      </trkpt>
      <trkpt lat="44.47308" lon="6.21089">
        <ele>952</ele>
        <time>2025-11-21T09:13:34.000Z</time>
      </trkpt>
      <trkpt lat="44.47309" lon="6.21089">
        <ele>951</ele>
        <time>2025-11-21T09:13:35.000Z</time>
      </trkpt>
      <trkpt lat="44.47309" lon="6.21089">
        <ele>951</ele>
        <time>2025-11-21T09:13:36.000Z</time>
      </trkpt>
      <trkpt lat="44.47309" lon="6.21089">
        <ele>951</ele>
        <time>2025-11-21T09:13:37.000Z</time>
      </trkpt>
      <trkpt lat="44.47311" lon="6.21089">
        <ele>953</ele>
        <time>2025-11-21T09:13:38.000Z</time>
      </trkpt>
      <trkpt lat="44.47311" lon="6.21089">
        <ele>954</ele>
        <time>2025-11-21T09:13:39.000Z</time>
      </trkpt>
      <trkpt lat="44.47312" lon="6.2109">
        <ele>955</ele>
        <time>2025-11-21T09:13:40.000Z</time>
      </trkpt>
      <trkpt lat="44.47312" lon="6.21091">
        <ele>954</ele>
        <time>2025-11-21T09:13:41.000Z</time>
      </trkpt>
      <trkpt lat="44.47312" lon="6.21093">
        <ele>955</ele>
        <time>2025-11-21T09:13:42.000Z</time>
      </trkpt>
      <trkpt lat="44.47312" lon="6.21094">
        <ele>955</ele>
        <time>2025-11-21T09:13:43.000Z</time>
      </trkpt>
      <trkpt lat="44.47313" lon="6.21095">
        <ele>954</ele>
        <time>2025-11-21T09:13:44.000Z</time>
      </trkpt>
      <trkpt lat="44.47314" lon="6.21096">
        <ele>955</ele>
        <time>2025-11-21T09:13:45.000Z</time>
      </trkpt>
      <trkpt lat="44.47315" lon="6.21097">
        <ele>955</ele>
        <time>2025-11-21T09:13:46.000Z</time>
      </trkpt>
      <trkpt lat="44.47316" lon="6.21097">
        <ele>955</ele>
        <time>2025-11-21T09:13:47.000Z</time>
      </trkpt>
      <trkpt lat="44.47316" lon="6.21097">
        <ele>955</ele>
        <time>2025-11-21T09:13:48.000Z</time>
      </trkpt>
      <trkpt lat="44.47318" lon="6.21098">
        <ele>955</ele>
        <time>2025-11-21T09:13:49.000Z</time>
      </trkpt>
      <trkpt lat="44.47318" lon="6.21098">
        <ele>955</ele>
        <time>2025-11-21T09:13:50.000Z</time>
      </trkpt>
      <trkpt lat="44.47319" lon="6.21098">
        <ele>955</ele>
        <time>2025-11-21T09:13:51.000Z</time>
      </trkpt>
      <trkpt lat="44.4732" lon="6.21098">
        <ele>955</ele>
        <time>2025-11-21T09:13:52.000Z</time>
      </trkpt>
      <trkpt lat="44.47321" lon="6.21098">
        <ele>955</ele>
        <time>2025-11-21T09:13:53.000Z</time>
      </trkpt>
      <trkpt lat="44.47321" lon="6.21099">
        <ele>954</ele>
        <time>2025-11-21T09:13:54.000Z</time>
      </trkpt>
      <trkpt lat="44.47321" lon="6.21099">
        <ele>953</ele>
        <time>2025-11-21T09:13:55.000Z</time>
      </trkpt>
      <trkpt lat="44.47322" lon="6.21101">
        <ele>954</ele>
        <time>2025-11-21T09:13:56.000Z</time>
      </trkpt>
      <trkpt lat="44.47323" lon="6.211">
        <ele>952</ele>
        <time>2025-11-21T09:13:57.000Z</time>
      </trkpt>
      <trkpt lat="44.47324" lon="6.21102">
        <ele>952</ele>
        <time>2025-11-21T09:13:58.000Z</time>
      </trkpt>
      <trkpt lat="44.47324" lon="6.21102">
        <ele>952</ele>
        <time>2025-11-21T09:13:59.000Z</time>
      </trkpt>
      <trkpt lat="44.47324" lon="6.21102">
        <ele>952</ele>
        <time>2025-11-21T09:14:00.000Z</time>
      </trkpt>
      <trkpt lat="44.47325" lon="6.21103">
        <ele>951</ele>
        <time>2025-11-21T09:14:01.000Z</time>
      </trkpt>
      <trkpt lat="44.47326" lon="6.21104">
        <ele>952</ele>
        <time>2025-11-21T09:14:02.000Z</time>
      </trkpt>
      <trkpt lat="44.47327" lon="6.21105">
        <ele>952</ele>
        <time>2025-11-21T09:14:03.000Z</time>
      </trkpt>
      <trkpt lat="44.47327" lon="6.21106">
        <ele>952</ele>
        <time>2025-11-21T09:14:04.000Z</time>
      </trkpt>
      <trkpt lat="44.47327" lon="6.21106">
        <ele>952</ele>
        <time>2025-11-21T09:14:05.000Z</time>
      </trkpt>
      <trkpt lat="44.47327" lon="6.21106">
        <ele>952</ele>
        <time>2025-11-21T09:14:06.000Z</time>
      </trkpt>
      <trkpt lat="44.47329" lon="6.21108">
        <ele>952</ele>
        <time>2025-11-21T09:14:07.000Z</time>
      </trkpt>
      <trkpt lat="44.47329" lon="6.21109">
        <ele>953</ele>
        <time>2025-11-21T09:14:08.000Z</time>
      </trkpt>
      <trkpt lat="44.4733" lon="6.2111">
        <ele>953</ele>
        <time>2025-11-21T09:14:09.000Z</time>
      </trkpt>
      <trkpt lat="44.4733" lon="6.21111">
        <ele>954</ele>
        <time>2025-11-21T09:14:10.000Z</time>
      </trkpt>
      <trkpt lat="44.4733" lon="6.2111">
        <ele>955</ele>
        <time>2025-11-21T09:14:11.000Z</time>
      </trkpt>
      <trkpt lat="44.47331" lon="6.21111">
        <ele>955</ele>
        <time>2025-11-21T09:14:12.000Z</time>
      </trkpt>
      <trkpt lat="44.47331" lon="6.21112">
        <ele>955</ele>
        <time>2025-11-21T09:14:13.000Z</time>
      </trkpt>
      <trkpt lat="44.47332" lon="6.21113">
        <ele>955</ele>
        <time>2025-11-21T09:14:14.000Z</time>
      </trkpt>
      <trkpt lat="44.47333" lon="6.21113">
        <ele>956</ele>
        <time>2025-11-21T09:14:15.000Z</time>
      </trkpt>
      <trkpt lat="44.47334" lon="6.21113">
        <ele>956</ele>
        <time>2025-11-21T09:14:16.000Z</time>
      </trkpt>
      <trkpt lat="44.47334" lon="6.21114">
        <ele>955</ele>
        <time>2025-11-21T09:14:17.000Z</time>
      </trkpt>
      <trkpt lat="44.47334" lon="6.21114">
        <ele>955</ele>
        <time>2025-11-21T09:14:18.000Z</time>
      </trkpt>
      <trkpt lat="44.47334" lon="6.21114">
        <ele>955</ele>
        <time>2025-11-21T09:14:19.000Z</time>
      </trkpt>
      <trkpt lat="44.47337" lon="6.21113">
        <ele>954</ele>
        <time>2025-11-21T09:14:20.000Z</time>
      </trkpt>
      <trkpt lat="44.47337" lon="6.21112">
        <ele>953</ele>
        <time>2025-11-21T09:14:21.000Z</time>
      </trkpt>
      <trkpt lat="44.47338" lon="6.21112">
        <ele>954</ele>
        <time>2025-11-21T09:14:22.000Z</time>
      </trkpt>
      <trkpt lat="44.47338" lon="6.21112">
        <ele>955</ele>
        <time>2025-11-21T09:14:23.000Z</time>
      </trkpt>
      <trkpt lat="44.47339" lon="6.21112">
        <ele>956</ele>
        <time>2025-11-21T09:14:24.000Z</time>
      </trkpt>
      <trkpt lat="44.47339" lon="6.21112">
        <ele>957</ele>
        <time>2025-11-21T09:14:25.000Z</time>
      </trkpt>
      <trkpt lat="44.47339" lon="6.21111">
        <ele>957</ele>
        <time>2025-11-21T09:14:26.000Z</time>
      </trkpt>
      <trkpt lat="44.47338" lon="6.21111">
        <ele>957</ele>
        <time>2025-11-21T09:14:27.000Z</time>
      </trkpt>
      <trkpt lat="44.47338" lon="6.21111">
        <ele>957</ele>
        <time>2025-11-21T09:14:28.000Z</time>
      </trkpt>
      <trkpt lat="44.47337" lon="6.21111">
        <ele>957</ele>
        <time>2025-11-21T09:14:29.000Z</time>
      </trkpt>
      <trkpt lat="44.47337" lon="6.21109">
        <ele>957</ele>
        <time>2025-11-21T09:14:30.000Z</time>
      </trkpt>
      <trkpt lat="44.47337" lon="6.21107">
        <ele>957</ele>
        <time>2025-11-21T09:14:31.000Z</time>
      </trkpt>
      <trkpt lat="44.47336" lon="6.21106">
        <ele>957</ele>
        <time>2025-11-21T09:14:32.000Z</time>
      </trkpt>
      <trkpt lat="44.47336" lon="6.21105">
        <ele>957</ele>
        <time>2025-11-21T09:14:33.000Z</time>
      </trkpt>
      <trkpt lat="44.47336" lon="6.21104">
        <ele>958</ele>
        <time>2025-11-21T09:14:34.000Z</time>
      </trkpt>
      <trkpt lat="44.47336" lon="6.21104">
        <ele>958</ele>
        <time>2025-11-21T09:14:35.000Z</time>
      </trkpt>
      <trkpt lat="44.47336" lon="6.21104">
        <ele>958</ele>
        <time>2025-11-21T09:14:36.000Z</time>
      </trkpt>
      <trkpt lat="44.47335" lon="6.21102">
        <ele>959</ele>
        <time>2025-11-21T09:14:37.000Z</time>
      </trkpt>
      <trkpt lat="44.47335" lon="6.21101">
        <ele>959</ele>
        <time>2025-11-21T09:14:38.000Z</time>
      </trkpt>
      <trkpt lat="44.47334" lon="6.211">
        <ele>959</ele>
        <time>2025-11-21T09:14:39.000Z</time>
      </trkpt>
      <trkpt lat="44.47334" lon="6.211">
        <ele>960</ele>
        <time>2025-11-21T09:14:40.000Z</time>
      </trkpt>
      <trkpt lat="44.47334" lon="6.211">
        <ele>960</ele>
        <time>2025-11-21T09:14:41.000Z</time>
      </trkpt>
      <trkpt lat="44.47334" lon="6.211">
        <ele>960</ele>
        <time>2025-11-21T09:14:42.000Z</time>
      </trkpt>
      <trkpt lat="44.47334" lon="6.21097">
        <ele>960</ele>
        <time>2025-11-21T09:14:43.000Z</time>
      </trkpt>
      <trkpt lat="44.47333" lon="6.21096">
        <ele>960</ele>
        <time>2025-11-21T09:14:44.000Z</time>
      </trkpt>
      <trkpt lat="44.47333" lon="6.21094">
        <ele>961</ele>
        <time>2025-11-21T09:14:45.000Z</time>
      </trkpt>
      <trkpt lat="44.47333" lon="6.21093">
        <ele>960</ele>
        <time>2025-11-21T09:14:46.000Z</time>
      </trkpt>
      <trkpt lat="44.47333" lon="6.21093">
        <ele>960</ele>
        <time>2025-11-21T09:14:47.000Z</time>
      </trkpt>
      <trkpt lat="44.47333" lon="6.21093">
        <ele>960</ele>
        <time>2025-11-21T09:14:48.000Z</time>
      </trkpt>
      <trkpt lat="44.47334" lon="6.2109">
        <ele>961</ele>
        <time>2025-11-21T09:14:49.000Z</time>
      </trkpt>
      <trkpt lat="44.47334" lon="6.21089">
        <ele>962</ele>
        <time>2025-11-21T09:14:50.000Z</time>
      </trkpt>
      <trkpt lat="44.47334" lon="6.21088">
        <ele>962</ele>
        <time>2025-11-21T09:14:51.000Z</time>
      </trkpt>
      <trkpt lat="44.47334" lon="6.21087">
        <ele>962</ele>
        <time>2025-11-21T09:14:52.000Z</time>
      </trkpt>
      <trkpt lat="44.47333" lon="6.21085">
        <ele>962</ele>
        <time>2025-11-21T09:14:53.000Z</time>
      </trkpt>
      <trkpt lat="44.47333" lon="6.21083">
        <ele>962</ele>
        <time>2025-11-21T09:14:54.000Z</time>
      </trkpt>
      <trkpt lat="44.47333" lon="6.21083">
        <ele>963</ele>
        <time>2025-11-21T09:14:55.000Z</time>
      </trkpt>
      <trkpt lat="44.47332" lon="6.21083">
        <ele>963</ele>
        <time>2025-11-21T09:14:56.000Z</time>
      </trkpt>
      <trkpt lat="44.47332" lon="6.21083">
        <ele>963</ele>
        <time>2025-11-21T09:14:57.000Z</time>
      </trkpt>
      <trkpt lat="44.47332" lon="6.21082">
        <ele>963</ele>
        <time>2025-11-21T09:14:58.000Z</time>
      </trkpt>
      <trkpt lat="44.47332" lon="6.21081">
        <ele>963</ele>
        <time>2025-11-21T09:14:59.000Z</time>
      </trkpt>
      <trkpt lat="44.47332" lon="6.21079">
        <ele>963</ele>
        <time>2025-11-21T09:15:00.000Z</time>
      </trkpt>
      <trkpt lat="44.47331" lon="6.21079">
        <ele>962</ele>
        <time>2025-11-21T09:15:01.000Z</time>
      </trkpt>
      <trkpt lat="44.47331" lon="6.21078">
        <ele>962</ele>
        <time>2025-11-21T09:15:02.000Z</time>
      </trkpt>
      <trkpt lat="44.4733" lon="6.21077">
        <ele>962</ele>
        <time>2025-11-21T09:15:03.000Z</time>
      </trkpt>
      <trkpt lat="44.47331" lon="6.21074">
        <ele>962</ele>
        <time>2025-11-21T09:15:04.000Z</time>
      </trkpt>
      <trkpt lat="44.47331" lon="6.21073">
        <ele>962</ele>
        <time>2025-11-21T09:15:05.000Z</time>
      </trkpt>
      <trkpt lat="44.4733" lon="6.21072">
        <ele>962</ele>
        <time>2025-11-21T09:15:06.000Z</time>
      </trkpt>
      <trkpt lat="44.4733" lon="6.21072">
        <ele>962</ele>
        <time>2025-11-21T09:15:07.000Z</time>
      </trkpt>
      <trkpt lat="44.4733" lon="6.2107">
        <ele>962</ele>
        <time>2025-11-21T09:15:08.000Z</time>
      </trkpt>
      <trkpt lat="44.4733" lon="6.2107">
        <ele>962</ele>
        <time>2025-11-21T09:15:09.000Z</time>
      </trkpt>
      <trkpt lat="44.4733" lon="6.2107">
        <ele>962</ele>
        <time>2025-11-21T09:15:10.000Z</time>
      </trkpt>
      <trkpt lat="44.4733" lon="6.2107">
        <ele>962</ele>
        <time>2025-11-21T09:15:11.000Z</time>
      </trkpt>
      <trkpt lat="44.4733" lon="6.21067">
        <ele>962</ele>
        <time>2025-11-21T09:15:12.000Z</time>
      </trkpt>
      <trkpt lat="44.4733" lon="6.21067">
        <ele>962</ele>
        <time>2025-11-21T09:15:13.000Z</time>
      </trkpt>
      <trkpt lat="44.4733" lon="6.21067">
        <ele>962</ele>
        <time>2025-11-21T09:15:14.000Z</time>
      </trkpt>
      <trkpt lat="44.47329" lon="6.21066">
        <ele>962</ele>
        <time>2025-11-21T09:15:15.000Z</time>
      </trkpt>
      <trkpt lat="44.47329" lon="6.21066">
        <ele>962</ele>
        <time>2025-11-21T09:15:16.000Z</time>
      </trkpt>
      <trkpt lat="44.47329" lon="6.21066">
        <ele>962</ele>
        <time>2025-11-21T09:15:17.000Z</time>
      </trkpt>
      <trkpt lat="44.47328" lon="6.21063">
        <ele>963</ele>
        <time>2025-11-21T09:15:18.000Z</time>
      </trkpt>
      <trkpt lat="44.47327" lon="6.21063">
        <ele>963</ele>
        <time>2025-11-21T09:15:19.000Z</time>
      </trkpt>
      <trkpt lat="44.47327" lon="6.21063">
        <ele>963</ele>
        <time>2025-11-21T09:15:20.000Z</time>
      </trkpt>
      <trkpt lat="44.47327" lon="6.21063">
        <ele>963</ele>
        <time>2025-11-21T09:15:21.000Z</time>
      </trkpt>
      <trkpt lat="44.47327" lon="6.21063">
        <ele>963</ele>
        <time>2025-11-21T09:15:22.000Z</time>
      </trkpt>
      <trkpt lat="44.47327" lon="6.21063">
        <ele>962</ele>
        <time>2025-11-21T09:15:23.000Z</time>
      </trkpt>
      <trkpt lat="44.47327" lon="6.21063">
        <ele>962</ele>
        <time>2025-11-21T09:15:24.000Z</time>
      </trkpt>
      <trkpt lat="44.47327" lon="6.21063">
        <ele>962</ele>
        <time>2025-11-21T09:15:25.000Z</time>
      </trkpt>
      <trkpt lat="44.47326" lon="6.2106">
        <ele>962</ele>
        <time>2025-11-21T09:15:26.000Z</time>
      </trkpt>
      <trkpt lat="44.47326" lon="6.21059">
        <ele>962</ele>
        <time>2025-11-21T09:15:27.000Z</time>
      </trkpt>
      <trkpt lat="44.47326" lon="6.21057">
        <ele>962</ele>
        <time>2025-11-21T09:15:28.000Z</time>
      </trkpt>
      <trkpt lat="44.47326" lon="6.21056">
        <ele>962</ele>
        <time>2025-11-21T09:15:29.000Z</time>
      </trkpt>
      <trkpt lat="44.47326" lon="6.21055">
        <ele>961</ele>
        <time>2025-11-21T09:15:30.000Z</time>
      </trkpt>
      <trkpt lat="44.47327" lon="6.21053">
        <ele>961</ele>
        <time>2025-11-21T09:15:31.000Z</time>
      </trkpt>
      <trkpt lat="44.47327" lon="6.21051">
        <ele>961</ele>
        <time>2025-11-21T09:15:32.000Z</time>
      </trkpt>
      <trkpt lat="44.47327" lon="6.2105">
        <ele>961</ele>
        <time>2025-11-21T09:15:33.000Z</time>
      </trkpt>
      <trkpt lat="44.47327" lon="6.21048">
        <ele>961</ele>
        <time>2025-11-21T09:15:34.000Z</time>
      </trkpt>
      <trkpt lat="44.47327" lon="6.21048">
        <ele>961</ele>
        <time>2025-11-21T09:15:35.000Z</time>
      </trkpt>
      <trkpt lat="44.47327" lon="6.21047">
        <ele>963</ele>
        <time>2025-11-21T09:15:36.000Z</time>
      </trkpt>
      <trkpt lat="44.47327" lon="6.21046">
        <ele>964</ele>
        <time>2025-11-21T09:15:37.000Z</time>
      </trkpt>
      <trkpt lat="44.47327" lon="6.21046">
        <ele>964</ele>
        <time>2025-11-21T09:15:38.000Z</time>
      </trkpt>
      <trkpt lat="44.47327" lon="6.21046">
        <ele>965</ele>
        <time>2025-11-21T09:15:39.000Z</time>
      </trkpt>
      <trkpt lat="44.47326" lon="6.21045">
        <ele>965</ele>
        <time>2025-11-21T09:15:40.000Z</time>
      </trkpt>
      <trkpt lat="44.47326" lon="6.21045">
        <ele>966</ele>
        <time>2025-11-21T09:15:41.000Z</time>
      </trkpt>
      <trkpt lat="44.47327" lon="6.21046">
        <ele>967</ele>
        <time>2025-11-21T09:15:42.000Z</time>
      </trkpt>
      <trkpt lat="44.47327" lon="6.21046">
        <ele>968</ele>
        <time>2025-11-21T09:15:43.000Z</time>
      </trkpt>
      <trkpt lat="44.47327" lon="6.21046">
        <ele>968</ele>
        <time>2025-11-21T09:15:44.000Z</time>
      </trkpt>
      <trkpt lat="44.47328" lon="6.21046">
        <ele>968</ele>
        <time>2025-11-21T09:15:45.000Z</time>
      </trkpt>
      <trkpt lat="44.47328" lon="6.21046">
        <ele>968</ele>
        <time>2025-11-21T09:15:46.000Z</time>
      </trkpt>
      <trkpt lat="44.47328" lon="6.21046">
        <ele>968</ele>
        <time>2025-11-21T09:15:47.000Z</time>
      </trkpt>
      <trkpt lat="44.47328" lon="6.21046">
        <ele>968</ele>
        <time>2025-11-21T09:15:48.000Z</time>
      </trkpt>
      <trkpt lat="44.47328" lon="6.21046">
        <ele>968</ele>
        <time>2025-11-21T09:15:49.000Z</time>
      </trkpt>
      <trkpt lat="44.4733" lon="6.21048">
        <ele>967</ele>
        <time>2025-11-21T09:15:50.000Z</time>
      </trkpt>
      <trkpt lat="44.47331" lon="6.21049">
        <ele>967</ele>
        <time>2025-11-21T09:15:51.000Z</time>
      </trkpt>
      <trkpt lat="44.47332" lon="6.2105">
        <ele>966</ele>
        <time>2025-11-21T09:15:52.000Z</time>
      </trkpt>
      <trkpt lat="44.47333" lon="6.2105">
        <ele>966</ele>
        <time>2025-11-21T09:15:53.000Z</time>
      </trkpt>
      <trkpt lat="44.47333" lon="6.21051">
        <ele>966</ele>
        <time>2025-11-21T09:15:54.000Z</time>
      </trkpt>
      <trkpt lat="44.47334" lon="6.21052">
        <ele>967</ele>
        <time>2025-11-21T09:15:55.000Z</time>
      </trkpt>
      <trkpt lat="44.47334" lon="6.21052">
        <ele>968</ele>
        <time>2025-11-21T09:15:56.000Z</time>
      </trkpt>
      <trkpt lat="44.47335" lon="6.21053">
        <ele>969</ele>
        <time>2025-11-21T09:15:57.000Z</time>
      </trkpt>
      <trkpt lat="44.47336" lon="6.21054">
        <ele>969</ele>
        <time>2025-11-21T09:15:58.000Z</time>
      </trkpt>
      <trkpt lat="44.47336" lon="6.21056">
        <ele>969</ele>
        <time>2025-11-21T09:15:59.000Z</time>
      </trkpt>
      <trkpt lat="44.47337" lon="6.21056">
        <ele>969</ele>
        <time>2025-11-21T09:16:00.000Z</time>
      </trkpt>
      <trkpt lat="44.47338" lon="6.21057">
        <ele>969</ele>
        <time>2025-11-21T09:16:01.000Z</time>
      </trkpt>
      <trkpt lat="44.47338" lon="6.21058">
        <ele>970</ele>
        <time>2025-11-21T09:16:02.000Z</time>
      </trkpt>
      <trkpt lat="44.47338" lon="6.21059">
        <ele>969</ele>
        <time>2025-11-21T09:16:03.000Z</time>
      </trkpt>
      <trkpt lat="44.47339" lon="6.21059">
        <ele>969</ele>
        <time>2025-11-21T09:16:04.000Z</time>
      </trkpt>
      <trkpt lat="44.47339" lon="6.2106">
        <ele>969</ele>
        <time>2025-11-21T09:16:05.000Z</time>
      </trkpt>
      <trkpt lat="44.47339" lon="6.21061">
        <ele>970</ele>
        <time>2025-11-21T09:16:06.000Z</time>
      </trkpt>
      <trkpt lat="44.4734" lon="6.21061">
        <ele>971</ele>
        <time>2025-11-21T09:16:07.000Z</time>
      </trkpt>
      <trkpt lat="44.4734" lon="6.21062">
        <ele>971</ele>
        <time>2025-11-21T09:16:08.000Z</time>
      </trkpt>
      <trkpt lat="44.4734" lon="6.21064">
        <ele>971</ele>
        <time>2025-11-21T09:16:09.000Z</time>
      </trkpt>
      <trkpt lat="44.4734" lon="6.21065">
        <ele>971</ele>
        <time>2025-11-21T09:16:10.000Z</time>
      </trkpt>
      <trkpt lat="44.47341" lon="6.21066">
        <ele>971</ele>
        <time>2025-11-21T09:16:11.000Z</time>
      </trkpt>
      <trkpt lat="44.47342" lon="6.21067">
        <ele>971</ele>
        <time>2025-11-21T09:16:12.000Z</time>
      </trkpt>
      <trkpt lat="44.47342" lon="6.21068">
        <ele>973</ele>
        <time>2025-11-21T09:16:13.000Z</time>
      </trkpt>
      <trkpt lat="44.47342" lon="6.21068">
        <ele>973</ele>
        <time>2025-11-21T09:16:14.000Z</time>
      </trkpt>
      <trkpt lat="44.47343" lon="6.21068">
        <ele>974</ele>
        <time>2025-11-21T09:16:15.000Z</time>
      </trkpt>
      <trkpt lat="44.47343" lon="6.21069">
        <ele>974</ele>
        <time>2025-11-21T09:16:16.000Z</time>
      </trkpt>
      <trkpt lat="44.47344" lon="6.2107">
        <ele>974</ele>
        <time>2025-11-21T09:16:17.000Z</time>
      </trkpt>
      <trkpt lat="44.47344" lon="6.21071">
        <ele>974</ele>
        <time>2025-11-21T09:16:18.000Z</time>
      </trkpt>
      <trkpt lat="44.47344" lon="6.21071">
        <ele>975</ele>
        <time>2025-11-21T09:16:19.000Z</time>
      </trkpt>
      <trkpt lat="44.47344" lon="6.21072">
        <ele>975</ele>
        <time>2025-11-21T09:16:20.000Z</time>
      </trkpt>
      <trkpt lat="44.47345" lon="6.21072">
        <ele>975</ele>
        <time>2025-11-21T09:16:21.000Z</time>
      </trkpt>
      <trkpt lat="44.47345" lon="6.21072">
        <ele>975</ele>
        <time>2025-11-21T09:16:22.000Z</time>
      </trkpt>
      <trkpt lat="44.47346" lon="6.21071">
        <ele>975</ele>
        <time>2025-11-21T09:16:23.000Z</time>
      </trkpt>
      <trkpt lat="44.47347" lon="6.21071">
        <ele>974</ele>
        <time>2025-11-21T09:16:24.000Z</time>
      </trkpt>
      <trkpt lat="44.47348" lon="6.21071">
        <ele>974</ele>
        <time>2025-11-21T09:16:25.000Z</time>
      </trkpt>
      <trkpt lat="44.47348" lon="6.21071">
        <ele>973</ele>
        <time>2025-11-21T09:16:26.000Z</time>
      </trkpt>
      <trkpt lat="44.47349" lon="6.21071">
        <ele>974</ele>
        <time>2025-11-21T09:16:27.000Z</time>
      </trkpt>
      <trkpt lat="44.47349" lon="6.2107">
        <ele>974</ele>
        <time>2025-11-21T09:16:28.000Z</time>
      </trkpt>
      <trkpt lat="44.47351" lon="6.21069">
        <ele>974</ele>
        <time>2025-11-21T09:16:29.000Z</time>
      </trkpt>
      <trkpt lat="44.47352" lon="6.21069">
        <ele>974</ele>
        <time>2025-11-21T09:16:30.000Z</time>
      </trkpt>
      <trkpt lat="44.47353" lon="6.21069">
        <ele>975</ele>
        <time>2025-11-21T09:16:31.000Z</time>
      </trkpt>
      <trkpt lat="44.47353" lon="6.21067">
        <ele>975</ele>
        <time>2025-11-21T09:16:32.000Z</time>
      </trkpt>
      <trkpt lat="44.47353" lon="6.21067">
        <ele>975</ele>
        <time>2025-11-21T09:16:33.000Z</time>
      </trkpt>
      <trkpt lat="44.47353" lon="6.21067">
        <ele>975</ele>
        <time>2025-11-21T09:16:34.000Z</time>
      </trkpt>
      <trkpt lat="44.47353" lon="6.21067">
        <ele>975</ele>
        <time>2025-11-21T09:16:35.000Z</time>
      </trkpt>
      <trkpt lat="44.47353" lon="6.21065">
        <ele>976</ele>
        <time>2025-11-21T09:16:36.000Z</time>
      </trkpt>
      <trkpt lat="44.47353" lon="6.21065">
        <ele>977</ele>
        <time>2025-11-21T09:16:37.000Z</time>
      </trkpt>
      <trkpt lat="44.47352" lon="6.21065">
        <ele>977</ele>
        <time>2025-11-21T09:16:38.000Z</time>
      </trkpt>
      <trkpt lat="44.47351" lon="6.21066">
        <ele>976</ele>
        <time>2025-11-21T09:16:39.000Z</time>
      </trkpt>
      <trkpt lat="44.47351" lon="6.21066">
        <ele>976</ele>
        <time>2025-11-21T09:16:40.000Z</time>
      </trkpt>
      <trkpt lat="44.4735" lon="6.21066">
        <ele>976</ele>
        <time>2025-11-21T09:16:41.000Z</time>
      </trkpt>
      <trkpt lat="44.4735" lon="6.21065">
        <ele>976</ele>
        <time>2025-11-21T09:16:42.000Z</time>
      </trkpt>
      <trkpt lat="44.47349" lon="6.21065">
        <ele>976</ele>
        <time>2025-11-21T09:16:43.000Z</time>
      </trkpt>
      <trkpt lat="44.47349" lon="6.21065">
        <ele>976</ele>
        <time>2025-11-21T09:16:44.000Z</time>
      </trkpt>
      <trkpt lat="44.47349" lon="6.21065">
        <ele>976</ele>
        <time>2025-11-21T09:16:45.000Z</time>
      </trkpt>
      <trkpt lat="44.47348" lon="6.21062">
        <ele>977</ele>
        <time>2025-11-21T09:16:46.000Z</time>
      </trkpt>
      <trkpt lat="44.47349" lon="6.21061">
        <ele>978</ele>
        <time>2025-11-21T09:16:47.000Z</time>
      </trkpt>
      <trkpt lat="44.47349" lon="6.21061">
        <ele>978</ele>
        <time>2025-11-21T09:16:48.000Z</time>
      </trkpt>
      <trkpt lat="44.47348" lon="6.2106">
        <ele>978</ele>
        <time>2025-11-21T09:16:49.000Z</time>
      </trkpt>
      <trkpt lat="44.47348" lon="6.2106">
        <ele>978</ele>
        <time>2025-11-21T09:16:50.000Z</time>
      </trkpt>
      <trkpt lat="44.47349" lon="6.21057">
        <ele>976</ele>
        <time>2025-11-21T09:16:51.000Z</time>
      </trkpt>
      <trkpt lat="44.47348" lon="6.21056">
        <ele>977</ele>
        <time>2025-11-21T09:16:52.000Z</time>
      </trkpt>
      <trkpt lat="44.47347" lon="6.21055">
        <ele>977</ele>
        <time>2025-11-21T09:16:53.000Z</time>
      </trkpt>
      <trkpt lat="44.47347" lon="6.21054">
        <ele>977</ele>
        <time>2025-11-21T09:16:54.000Z</time>
      </trkpt>
      <trkpt lat="44.47346" lon="6.21053">
        <ele>977</ele>
        <time>2025-11-21T09:16:55.000Z</time>
      </trkpt>
      <trkpt lat="44.47346" lon="6.21053">
        <ele>977</ele>
        <time>2025-11-21T09:16:56.000Z</time>
      </trkpt>
      <trkpt lat="44.47346" lon="6.21052">
        <ele>976</ele>
        <time>2025-11-21T09:16:57.000Z</time>
      </trkpt>
      <trkpt lat="44.47347" lon="6.21052">
        <ele>977</ele>
        <time>2025-11-21T09:16:58.000Z</time>
      </trkpt>
      <trkpt lat="44.47347" lon="6.21052">
        <ele>976</ele>
        <time>2025-11-21T09:16:59.000Z</time>
      </trkpt>
      <trkpt lat="44.47346" lon="6.21051">
        <ele>976</ele>
        <time>2025-11-21T09:17:00.000Z</time>
      </trkpt>
      <trkpt lat="44.47346" lon="6.21051">
        <ele>976</ele>
        <time>2025-11-21T09:17:01.000Z</time>
      </trkpt>
      <trkpt lat="44.47345" lon="6.2105">
        <ele>976</ele>
        <time>2025-11-21T09:17:02.000Z</time>
      </trkpt>
      <trkpt lat="44.47345" lon="6.21049">
        <ele>976</ele>
        <time>2025-11-21T09:17:03.000Z</time>
      </trkpt>
      <trkpt lat="44.47345" lon="6.21049">
        <ele>976</ele>
        <time>2025-11-21T09:17:04.000Z</time>
      </trkpt>
      <trkpt lat="44.47344" lon="6.21048">
        <ele>976</ele>
        <time>2025-11-21T09:17:05.000Z</time>
      </trkpt>
      <trkpt lat="44.47344" lon="6.21047">
        <ele>976</ele>
        <time>2025-11-21T09:17:06.000Z</time>
      </trkpt>
      <trkpt lat="44.47343" lon="6.21047">
        <ele>977</ele>
        <time>2025-11-21T09:17:07.000Z</time>
      </trkpt>
      <trkpt lat="44.47343" lon="6.21046">
        <ele>976</ele>
        <time>2025-11-21T09:17:08.000Z</time>
      </trkpt>
      <trkpt lat="44.47344" lon="6.21045">
        <ele>976</ele>
        <time>2025-11-21T09:17:09.000Z</time>
      </trkpt>
      <trkpt lat="44.47345" lon="6.21043">
        <ele>976</ele>
        <time>2025-11-21T09:17:10.000Z</time>
      </trkpt>
      <trkpt lat="44.47345" lon="6.21042">
        <ele>976</ele>
        <time>2025-11-21T09:17:11.000Z</time>
      </trkpt>
      <trkpt lat="44.47346" lon="6.21042">
        <ele>977</ele>
        <time>2025-11-21T09:17:12.000Z</time>
      </trkpt>
      <trkpt lat="44.47345" lon="6.21041">
        <ele>977</ele>
        <time>2025-11-21T09:17:13.000Z</time>
      </trkpt>
      <trkpt lat="44.47345" lon="6.21039">
        <ele>977</ele>
        <time>2025-11-21T09:17:14.000Z</time>
      </trkpt>
      <trkpt lat="44.47345" lon="6.21039">
        <ele>977</ele>
        <time>2025-11-21T09:17:15.000Z</time>
      </trkpt>
      <trkpt lat="44.47345" lon="6.2104">
        <ele>978</ele>
        <time>2025-11-21T09:17:16.000Z</time>
      </trkpt>
      <trkpt lat="44.47345" lon="6.21039">
        <ele>978</ele>
        <time>2025-11-21T09:17:17.000Z</time>
      </trkpt>
      <trkpt lat="44.47344" lon="6.21039">
        <ele>978</ele>
        <time>2025-11-21T09:17:18.000Z</time>
      </trkpt>
      <trkpt lat="44.47344" lon="6.21038">
        <ele>978</ele>
        <time>2025-11-21T09:17:19.000Z</time>
      </trkpt>
      <trkpt lat="44.47344" lon="6.21037">
        <ele>978</ele>
        <time>2025-11-21T09:17:20.000Z</time>
      </trkpt>
      <trkpt lat="44.47344" lon="6.21036">
        <ele>978</ele>
        <time>2025-11-21T09:17:21.000Z</time>
      </trkpt>
      <trkpt lat="44.47344" lon="6.21034">
        <ele>977</ele>
        <time>2025-11-21T09:17:22.000Z</time>
      </trkpt>
      <trkpt lat="44.47345" lon="6.21033">
        <ele>978</ele>
        <time>2025-11-21T09:17:23.000Z</time>
      </trkpt>
      <trkpt lat="44.47345" lon="6.21031">
        <ele>978</ele>
        <time>2025-11-21T09:17:24.000Z</time>
      </trkpt>
      <trkpt lat="44.47345" lon="6.2103">
        <ele>979</ele>
        <time>2025-11-21T09:17:25.000Z</time>
      </trkpt>
      <trkpt lat="44.47345" lon="6.2103">
        <ele>979</ele>
        <time>2025-11-21T09:17:26.000Z</time>
      </trkpt>
      <trkpt lat="44.47345" lon="6.2103">
        <ele>979</ele>
        <time>2025-11-21T09:17:27.000Z</time>
      </trkpt>
      <trkpt lat="44.47346" lon="6.21026">
        <ele>979</ele>
        <time>2025-11-21T09:17:28.000Z</time>
      </trkpt>
      <trkpt lat="44.47345" lon="6.21025">
        <ele>979</ele>
        <time>2025-11-21T09:17:29.000Z</time>
      </trkpt>
      <trkpt lat="44.47345" lon="6.21023">
        <ele>979</ele>
        <time>2025-11-21T09:17:30.000Z</time>
      </trkpt>
      <trkpt lat="44.47345" lon="6.21021">
        <ele>980</ele>
        <time>2025-11-21T09:17:31.000Z</time>
      </trkpt>
      <trkpt lat="44.47345" lon="6.2102">
        <ele>979</ele>
        <time>2025-11-21T09:17:32.000Z</time>
      </trkpt>
      <trkpt lat="44.47345" lon="6.21019">
        <ele>979</ele>
        <time>2025-11-21T09:17:33.000Z</time>
      </trkpt>
      <trkpt lat="44.47345" lon="6.21018">
        <ele>980</ele>
        <time>2025-11-21T09:17:34.000Z</time>
      </trkpt>
      <trkpt lat="44.47345" lon="6.21017">
        <ele>980</ele>
        <time>2025-11-21T09:17:35.000Z</time>
      </trkpt>
      <trkpt lat="44.47345" lon="6.21015">
        <ele>980</ele>
        <time>2025-11-21T09:17:36.000Z</time>
      </trkpt>
      <trkpt lat="44.47345" lon="6.21014">
        <ele>980</ele>
        <time>2025-11-21T09:17:37.000Z</time>
      </trkpt>
      <trkpt lat="44.47345" lon="6.21014">
        <ele>981</ele>
        <time>2025-11-21T09:17:38.000Z</time>
      </trkpt>
      <trkpt lat="44.47345" lon="6.21014">
        <ele>980</ele>
        <time>2025-11-21T09:17:39.000Z</time>
      </trkpt>
      <trkpt lat="44.47344" lon="6.21013">
        <ele>980</ele>
        <time>2025-11-21T09:17:40.000Z</time>
      </trkpt>
      <trkpt lat="44.47344" lon="6.21011">
        <ele>980</ele>
        <time>2025-11-21T09:17:41.000Z</time>
      </trkpt>
      <trkpt lat="44.47343" lon="6.2101">
        <ele>980</ele>
        <time>2025-11-21T09:17:42.000Z</time>
      </trkpt>
      <trkpt lat="44.47343" lon="6.21009">
        <ele>981</ele>
        <time>2025-11-21T09:17:43.000Z</time>
      </trkpt>
      <trkpt lat="44.47344" lon="6.21008">
        <ele>980</ele>
        <time>2025-11-21T09:17:44.000Z</time>
      </trkpt>
      <trkpt lat="44.47344" lon="6.21007">
        <ele>979</ele>
        <time>2025-11-21T09:17:45.000Z</time>
      </trkpt>
      <trkpt lat="44.47344" lon="6.21005">
        <ele>979</ele>
        <time>2025-11-21T09:17:46.000Z</time>
      </trkpt>
      <trkpt lat="44.47344" lon="6.21004">
        <ele>979</ele>
        <time>2025-11-21T09:17:47.000Z</time>
      </trkpt>
      <trkpt lat="44.47345" lon="6.21004">
        <ele>979</ele>
        <time>2025-11-21T09:17:48.000Z</time>
      </trkpt>
      <trkpt lat="44.47346" lon="6.21003">
        <ele>979</ele>
        <time>2025-11-21T09:17:49.000Z</time>
      </trkpt>
      <trkpt lat="44.47346" lon="6.21002">
        <ele>981</ele>
        <time>2025-11-21T09:17:50.000Z</time>
      </trkpt>
      <trkpt lat="44.47346" lon="6.21002">
        <ele>982</ele>
        <time>2025-11-21T09:17:51.000Z</time>
      </trkpt>
      <trkpt lat="44.47346" lon="6.21001">
        <ele>984</ele>
        <time>2025-11-21T09:17:52.000Z</time>
      </trkpt>
      <trkpt lat="44.47346" lon="6.21">
        <ele>985</ele>
        <time>2025-11-21T09:17:53.000Z</time>
      </trkpt>
      <trkpt lat="44.47345" lon="6.21">
        <ele>987</ele>
        <time>2025-11-21T09:17:54.000Z</time>
      </trkpt>
      <trkpt lat="44.47345" lon="6.21">
        <ele>987</ele>
        <time>2025-11-21T09:17:55.000Z</time>
      </trkpt>
      <trkpt lat="44.47345" lon="6.21">
        <ele>987</ele>
        <time>2025-11-21T09:17:56.000Z</time>
      </trkpt>
      <trkpt lat="44.47345" lon="6.21">
        <ele>987</ele>
        <time>2025-11-21T09:17:57.000Z</time>
      </trkpt>
      <trkpt lat="44.47345" lon="6.21">
        <ele>987</ele>
        <time>2025-11-21T09:17:58.000Z</time>
      </trkpt>
      <trkpt lat="44.47346" lon="6.21001">
        <ele>986</ele>
        <time>2025-11-21T09:17:59.000Z</time>
      </trkpt>
      <trkpt lat="44.47347" lon="6.21002">
        <ele>987</ele>
        <time>2025-11-21T09:18:00.000Z</time>
      </trkpt>
      <trkpt lat="44.47347" lon="6.21002">
        <ele>987</ele>
        <time>2025-11-21T09:18:01.000Z</time>
      </trkpt>
      <trkpt lat="44.47347" lon="6.21002">
        <ele>986</ele>
        <time>2025-11-21T09:18:02.000Z</time>
      </trkpt>
      <trkpt lat="44.47348" lon="6.21003">
        <ele>986</ele>
        <time>2025-11-21T09:18:03.000Z</time>
      </trkpt>
      <trkpt lat="44.47348" lon="6.21004">
        <ele>987</ele>
        <time>2025-11-21T09:18:04.000Z</time>
      </trkpt>
      <trkpt lat="44.47348" lon="6.21005">
        <ele>987</ele>
        <time>2025-11-21T09:18:05.000Z</time>
      </trkpt>
      <trkpt lat="44.47349" lon="6.21006">
        <ele>988</ele>
        <time>2025-11-21T09:18:06.000Z</time>
      </trkpt>
      <trkpt lat="44.47349" lon="6.21006">
        <ele>988</ele>
        <time>2025-11-21T09:18:07.000Z</time>
      </trkpt>
      <trkpt lat="44.47349" lon="6.21007">
        <ele>988</ele>
        <time>2025-11-21T09:18:08.000Z</time>
      </trkpt>
      <trkpt lat="44.4735" lon="6.21008">
        <ele>988</ele>
        <time>2025-11-21T09:18:09.000Z</time>
      </trkpt>
      <trkpt lat="44.4735" lon="6.21008">
        <ele>988</ele>
        <time>2025-11-21T09:18:10.000Z</time>
      </trkpt>
      <trkpt lat="44.4735" lon="6.21008">
        <ele>988</ele>
        <time>2025-11-21T09:18:11.000Z</time>
      </trkpt>
      <trkpt lat="44.47351" lon="6.21009">
        <ele>989</ele>
        <time>2025-11-21T09:18:12.000Z</time>
      </trkpt>
      <trkpt lat="44.47352" lon="6.2101">
        <ele>989</ele>
        <time>2025-11-21T09:18:13.000Z</time>
      </trkpt>
      <trkpt lat="44.47353" lon="6.21011">
        <ele>988</ele>
        <time>2025-11-21T09:18:14.000Z</time>
      </trkpt>
      <trkpt lat="44.47353" lon="6.21012">
        <ele>988</ele>
        <time>2025-11-21T09:18:15.000Z</time>
      </trkpt>
      <trkpt lat="44.47353" lon="6.21013">
        <ele>988</ele>
        <time>2025-11-21T09:18:16.000Z</time>
      </trkpt>
      <trkpt lat="44.47354" lon="6.21014">
        <ele>988</ele>
        <time>2025-11-21T09:18:17.000Z</time>
      </trkpt>
      <trkpt lat="44.47355" lon="6.21015">
        <ele>988</ele>
        <time>2025-11-21T09:18:18.000Z</time>
      </trkpt>
      <trkpt lat="44.47355" lon="6.21014">
        <ele>989</ele>
        <time>2025-11-21T09:18:19.000Z</time>
      </trkpt>
      <trkpt lat="44.47356" lon="6.21015">
        <ele>989</ele>
        <time>2025-11-21T09:18:20.000Z</time>
      </trkpt>
      <trkpt lat="44.47357" lon="6.21015">
        <ele>989</ele>
        <time>2025-11-21T09:18:21.000Z</time>
      </trkpt>
      <trkpt lat="44.47357" lon="6.21016">
        <ele>989</ele>
        <time>2025-11-21T09:18:22.000Z</time>
      </trkpt>
      <trkpt lat="44.47358" lon="6.21017">
        <ele>988</ele>
        <time>2025-11-21T09:18:23.000Z</time>
      </trkpt>
      <trkpt lat="44.47359" lon="6.21017">
        <ele>989</ele>
        <time>2025-11-21T09:18:24.000Z</time>
      </trkpt>
      <trkpt lat="44.47359" lon="6.21018">
        <ele>990</ele>
        <time>2025-11-21T09:18:25.000Z</time>
      </trkpt>
      <trkpt lat="44.47359" lon="6.21018">
        <ele>990</ele>
        <time>2025-11-21T09:18:26.000Z</time>
      </trkpt>
      <trkpt lat="44.47359" lon="6.21019">
        <ele>991</ele>
        <time>2025-11-21T09:18:27.000Z</time>
      </trkpt>
      <trkpt lat="44.4736" lon="6.2102">
        <ele>991</ele>
        <time>2025-11-21T09:18:28.000Z</time>
      </trkpt>
      <trkpt lat="44.4736" lon="6.21019">
        <ele>991</ele>
        <time>2025-11-21T09:18:29.000Z</time>
      </trkpt>
      <trkpt lat="44.4736" lon="6.21019">
        <ele>992</ele>
        <time>2025-11-21T09:18:30.000Z</time>
      </trkpt>
      <trkpt lat="44.4736" lon="6.21019">
        <ele>992</ele>
        <time>2025-11-21T09:18:31.000Z</time>
      </trkpt>
      <trkpt lat="44.4736" lon="6.21019">
        <ele>992</ele>
        <time>2025-11-21T09:18:32.000Z</time>
      </trkpt>
      <trkpt lat="44.4736" lon="6.21017">
        <ele>992</ele>
        <time>2025-11-21T09:18:33.000Z</time>
      </trkpt>
      <trkpt lat="44.4736" lon="6.21016">
        <ele>992</ele>
        <time>2025-11-21T09:18:34.000Z</time>
      </trkpt>
      <trkpt lat="44.4736" lon="6.21016">
        <ele>992</ele>
        <time>2025-11-21T09:18:35.000Z</time>
      </trkpt>
      <trkpt lat="44.4736" lon="6.21015">
        <ele>993</ele>
        <time>2025-11-21T09:18:36.000Z</time>
      </trkpt>
      <trkpt lat="44.47361" lon="6.21015">
        <ele>992</ele>
        <time>2025-11-21T09:18:37.000Z</time>
      </trkpt>
      <trkpt lat="44.47361" lon="6.21013">
        <ele>992</ele>
        <time>2025-11-21T09:18:38.000Z</time>
      </trkpt>
      <trkpt lat="44.47361" lon="6.21013">
        <ele>992</ele>
        <time>2025-11-21T09:18:39.000Z</time>
      </trkpt>
      <trkpt lat="44.4736" lon="6.21012">
        <ele>992</ele>
        <time>2025-11-21T09:18:40.000Z</time>
      </trkpt>
      <trkpt lat="44.4736" lon="6.21011">
        <ele>992</ele>
        <time>2025-11-21T09:18:41.000Z</time>
      </trkpt>
      <trkpt lat="44.4736" lon="6.2101">
        <ele>992</ele>
        <time>2025-11-21T09:18:42.000Z</time>
      </trkpt>
      <trkpt lat="44.47361" lon="6.21008">
        <ele>993</ele>
        <time>2025-11-21T09:18:43.000Z</time>
      </trkpt>
      <trkpt lat="44.47361" lon="6.21008">
        <ele>992</ele>
        <time>2025-11-21T09:18:44.000Z</time>
      </trkpt>
      <trkpt lat="44.47362" lon="6.21007">
        <ele>993</ele>
        <time>2025-11-21T09:18:45.000Z</time>
      </trkpt>
      <trkpt lat="44.47362" lon="6.21006">
        <ele>993</ele>
        <time>2025-11-21T09:18:46.000Z</time>
      </trkpt>
      <trkpt lat="44.47363" lon="6.21005">
        <ele>993</ele>
        <time>2025-11-21T09:18:47.000Z</time>
      </trkpt>
      <trkpt lat="44.47363" lon="6.21004">
        <ele>993</ele>
        <time>2025-11-21T09:18:48.000Z</time>
      </trkpt>
      <trkpt lat="44.47363" lon="6.21003">
        <ele>993</ele>
        <time>2025-11-21T09:18:49.000Z</time>
      </trkpt>
      <trkpt lat="44.47362" lon="6.21002">
        <ele>994</ele>
        <time>2025-11-21T09:18:50.000Z</time>
      </trkpt>
      <trkpt lat="44.47362" lon="6.21002">
        <ele>994</ele>
        <time>2025-11-21T09:18:51.000Z</time>
      </trkpt>
      <trkpt lat="44.47362" lon="6.21001">
        <ele>994</ele>
        <time>2025-11-21T09:18:52.000Z</time>
      </trkpt>
      <trkpt lat="44.47362" lon="6.21">
        <ele>993</ele>
        <time>2025-11-21T09:18:53.000Z</time>
      </trkpt>
      <trkpt lat="44.47362" lon="6.21">
        <ele>993</ele>
        <time>2025-11-21T09:18:54.000Z</time>
      </trkpt>
      <trkpt lat="44.47362" lon="6.20998">
        <ele>993</ele>
        <time>2025-11-21T09:18:55.000Z</time>
      </trkpt>
      <trkpt lat="44.47362" lon="6.20996">
        <ele>993</ele>
        <time>2025-11-21T09:18:56.000Z</time>
      </trkpt>
      <trkpt lat="44.47362" lon="6.20995">
        <ele>994</ele>
        <time>2025-11-21T09:18:57.000Z</time>
      </trkpt>
      <trkpt lat="44.47362" lon="6.20994">
        <ele>994</ele>
        <time>2025-11-21T09:18:58.000Z</time>
      </trkpt>
      <trkpt lat="44.47362" lon="6.20993">
        <ele>994</ele>
        <time>2025-11-21T09:18:59.000Z</time>
      </trkpt>
      <trkpt lat="44.47362" lon="6.20994">
        <ele>995</ele>
        <time>2025-11-21T09:19:00.000Z</time>
      </trkpt>
      <trkpt lat="44.47363" lon="6.20994">
        <ele>995</ele>
        <time>2025-11-21T09:19:01.000Z</time>
      </trkpt>
      <trkpt lat="44.47362" lon="6.20994">
        <ele>995</ele>
        <time>2025-11-21T09:19:02.000Z</time>
      </trkpt>
      <trkpt lat="44.47362" lon="6.20992">
        <ele>995</ele>
        <time>2025-11-21T09:19:03.000Z</time>
      </trkpt>
      <trkpt lat="44.47362" lon="6.2099">
        <ele>995</ele>
        <time>2025-11-21T09:19:04.000Z</time>
      </trkpt>
      <trkpt lat="44.47362" lon="6.2099">
        <ele>995</ele>
        <time>2025-11-21T09:19:05.000Z</time>
      </trkpt>
      <trkpt lat="44.47363" lon="6.2099">
        <ele>996</ele>
        <time>2025-11-21T09:19:06.000Z</time>
      </trkpt>
      <trkpt lat="44.47363" lon="6.20989">
        <ele>996</ele>
        <time>2025-11-21T09:19:07.000Z</time>
      </trkpt>
      <trkpt lat="44.47363" lon="6.20987">
        <ele>996</ele>
        <time>2025-11-21T09:19:08.000Z</time>
      </trkpt>
      <trkpt lat="44.47364" lon="6.20986">
        <ele>996</ele>
        <time>2025-11-21T09:19:09.000Z</time>
      </trkpt>
      <trkpt lat="44.47364" lon="6.20986">
        <ele>996</ele>
        <time>2025-11-21T09:19:10.000Z</time>
      </trkpt>
      <trkpt lat="44.47364" lon="6.20986">
        <ele>996</ele>
        <time>2025-11-21T09:19:11.000Z</time>
      </trkpt>
      <trkpt lat="44.47364" lon="6.20986">
        <ele>996</ele>
        <time>2025-11-21T09:19:12.000Z</time>
      </trkpt>
      <trkpt lat="44.47365" lon="6.20982">
        <ele>997</ele>
        <time>2025-11-21T09:19:13.000Z</time>
      </trkpt>
      <trkpt lat="44.47365" lon="6.20981">
        <ele>997</ele>
        <time>2025-11-21T09:19:14.000Z</time>
      </trkpt>
      <trkpt lat="44.47366" lon="6.2098">
        <ele>997</ele>
        <time>2025-11-21T09:19:15.000Z</time>
      </trkpt>
      <trkpt lat="44.47366" lon="6.20979">
        <ele>997</ele>
        <time>2025-11-21T09:19:16.000Z</time>
      </trkpt>
      <trkpt lat="44.47366" lon="6.20978">
        <ele>997</ele>
        <time>2025-11-21T09:19:17.000Z</time>
      </trkpt>
      <trkpt lat="44.47366" lon="6.20977">
        <ele>997</ele>
        <time>2025-11-21T09:19:18.000Z</time>
      </trkpt>
      <trkpt lat="44.47367" lon="6.20976">
        <ele>997</ele>
        <time>2025-11-21T09:19:19.000Z</time>
      </trkpt>
      <trkpt lat="44.47368" lon="6.20975">
        <ele>997</ele>
        <time>2025-11-21T09:19:20.000Z</time>
      </trkpt>
      <trkpt lat="44.47368" lon="6.20974">
        <ele>997</ele>
        <time>2025-11-21T09:19:21.000Z</time>
      </trkpt>
      <trkpt lat="44.47367" lon="6.20974">
        <ele>999</ele>
        <time>2025-11-21T09:19:22.000Z</time>
      </trkpt>
      <trkpt lat="44.47368" lon="6.20972">
        <ele>998</ele>
        <time>2025-11-21T09:19:23.000Z</time>
      </trkpt>
      <trkpt lat="44.47368" lon="6.20972">
        <ele>998</ele>
        <time>2025-11-21T09:19:24.000Z</time>
      </trkpt>
      <trkpt lat="44.47368" lon="6.20972">
        <ele>998</ele>
        <time>2025-11-21T09:19:25.000Z</time>
      </trkpt>
      <trkpt lat="44.47368" lon="6.2097">
        <ele>998</ele>
        <time>2025-11-21T09:19:26.000Z</time>
      </trkpt>
      <trkpt lat="44.47368" lon="6.2097">
        <ele>998</ele>
        <time>2025-11-21T09:19:27.000Z</time>
      </trkpt>
      <trkpt lat="44.47368" lon="6.20971">
        <ele>999</ele>
        <time>2025-11-21T09:19:28.000Z</time>
      </trkpt>
      <trkpt lat="44.47368" lon="6.20969">
        <ele>999</ele>
        <time>2025-11-21T09:19:29.000Z</time>
      </trkpt>
      <trkpt lat="44.47368" lon="6.20967">
        <ele>1000</ele>
        <time>2025-11-21T09:19:30.000Z</time>
      </trkpt>
      <trkpt lat="44.47368" lon="6.20966">
        <ele>1000</ele>
        <time>2025-11-21T09:19:31.000Z</time>
      </trkpt>
      <trkpt lat="44.47368" lon="6.20966">
        <ele>1000</ele>
        <time>2025-11-21T09:19:32.000Z</time>
      </trkpt>
      <trkpt lat="44.47368" lon="6.20966">
        <ele>1000</ele>
        <time>2025-11-21T09:19:33.000Z</time>
      </trkpt>
      <trkpt lat="44.47368" lon="6.20966">
        <ele>1000</ele>
        <time>2025-11-21T09:19:34.000Z</time>
      </trkpt>
      <trkpt lat="44.47366" lon="6.20963">
        <ele>999</ele>
        <time>2025-11-21T09:19:35.000Z</time>
      </trkpt>
      <trkpt lat="44.47365" lon="6.20962">
        <ele>999</ele>
        <time>2025-11-21T09:19:36.000Z</time>
      </trkpt>
      <trkpt lat="44.47364" lon="6.20961">
        <ele>999</ele>
        <time>2025-11-21T09:19:37.000Z</time>
      </trkpt>
      <trkpt lat="44.47363" lon="6.20961">
        <ele>999</ele>
        <time>2025-11-21T09:19:38.000Z</time>
      </trkpt>
      <trkpt lat="44.47362" lon="6.20961">
        <ele>999</ele>
        <time>2025-11-21T09:19:39.000Z</time>
      </trkpt>
      <trkpt lat="44.47362" lon="6.2096">
        <ele>999</ele>
        <time>2025-11-21T09:19:40.000Z</time>
      </trkpt>
      <trkpt lat="44.47361" lon="6.20959">
        <ele>999</ele>
        <time>2025-11-21T09:19:41.000Z</time>
      </trkpt>
      <trkpt lat="44.4736" lon="6.20959">
        <ele>999</ele>
        <time>2025-11-21T09:19:42.000Z</time>
      </trkpt>
      <trkpt lat="44.4736" lon="6.20959">
        <ele>999</ele>
        <time>2025-11-21T09:19:43.000Z</time>
      </trkpt>
      <trkpt lat="44.47359" lon="6.20959">
        <ele>1000</ele>
        <time>2025-11-21T09:19:44.000Z</time>
      </trkpt>
      <trkpt lat="44.47358" lon="6.20958">
        <ele>1000</ele>
        <time>2025-11-21T09:19:45.000Z</time>
      </trkpt>
      <trkpt lat="44.47358" lon="6.20956">
        <ele>1001</ele>
        <time>2025-11-21T09:19:46.000Z</time>
      </trkpt>
      <trkpt lat="44.47358" lon="6.20956">
        <ele>1001</ele>
        <time>2025-11-21T09:19:47.000Z</time>
      </trkpt>
      <trkpt lat="44.47358" lon="6.20954">
        <ele>1001</ele>
        <time>2025-11-21T09:19:48.000Z</time>
      </trkpt>
      <trkpt lat="44.47357" lon="6.20953">
        <ele>1001</ele>
        <time>2025-11-21T09:19:49.000Z</time>
      </trkpt>
      <trkpt lat="44.47357" lon="6.20952">
        <ele>1001</ele>
        <time>2025-11-21T09:19:50.000Z</time>
      </trkpt>
      <trkpt lat="44.47358" lon="6.20951">
        <ele>1001</ele>
        <time>2025-11-21T09:19:51.000Z</time>
      </trkpt>
      <trkpt lat="44.47358" lon="6.20951">
        <ele>1000</ele>
        <time>2025-11-21T09:19:52.000Z</time>
      </trkpt>
      <trkpt lat="44.47358" lon="6.20951">
        <ele>1001</ele>
        <time>2025-11-21T09:19:53.000Z</time>
      </trkpt>
      <trkpt lat="44.47359" lon="6.20951">
        <ele>1001</ele>
        <time>2025-11-21T09:19:54.000Z</time>
      </trkpt>
      <trkpt lat="44.4736" lon="6.20951">
        <ele>1001</ele>
        <time>2025-11-21T09:19:55.000Z</time>
      </trkpt>
      <trkpt lat="44.47361" lon="6.20952">
        <ele>1002</ele>
        <time>2025-11-21T09:19:56.000Z</time>
      </trkpt>
      <trkpt lat="44.47361" lon="6.20952">
        <ele>1002</ele>
        <time>2025-11-21T09:19:57.000Z</time>
      </trkpt>
      <trkpt lat="44.47362" lon="6.20952">
        <ele>1003</ele>
        <time>2025-11-21T09:19:58.000Z</time>
      </trkpt>
      <trkpt lat="44.47363" lon="6.20952">
        <ele>1004</ele>
        <time>2025-11-21T09:19:59.000Z</time>
      </trkpt>
      <trkpt lat="44.47364" lon="6.20952">
        <ele>1005</ele>
        <time>2025-11-21T09:20:00.000Z</time>
      </trkpt>
      <trkpt lat="44.47364" lon="6.20952">
        <ele>1005</ele>
        <time>2025-11-21T09:20:01.000Z</time>
      </trkpt>
      <trkpt lat="44.47366" lon="6.20952">
        <ele>1005</ele>
        <time>2025-11-21T09:20:02.000Z</time>
      </trkpt>
      <trkpt lat="44.47366" lon="6.20951">
        <ele>1005</ele>
        <time>2025-11-21T09:20:03.000Z</time>
      </trkpt>
      <trkpt lat="44.47366" lon="6.20952">
        <ele>1005</ele>
        <time>2025-11-21T09:20:04.000Z</time>
      </trkpt>
      <trkpt lat="44.47367" lon="6.20952">
        <ele>1005</ele>
        <time>2025-11-21T09:20:05.000Z</time>
      </trkpt>
      <trkpt lat="44.47367" lon="6.20952">
        <ele>1006</ele>
        <time>2025-11-21T09:20:06.000Z</time>
      </trkpt>
      <trkpt lat="44.47368" lon="6.20952">
        <ele>1006</ele>
        <time>2025-11-21T09:20:07.000Z</time>
      </trkpt>
      <trkpt lat="44.47368" lon="6.20953">
        <ele>1007</ele>
        <time>2025-11-21T09:20:08.000Z</time>
      </trkpt>
      <trkpt lat="44.47369" lon="6.20953">
        <ele>1007</ele>
        <time>2025-11-21T09:20:09.000Z</time>
      </trkpt>
      <trkpt lat="44.4737" lon="6.20953">
        <ele>1006</ele>
        <time>2025-11-21T09:20:10.000Z</time>
      </trkpt>
      <trkpt lat="44.47371" lon="6.20954">
        <ele>1007</ele>
        <time>2025-11-21T09:20:11.000Z</time>
      </trkpt>
      <trkpt lat="44.47371" lon="6.20954">
        <ele>1006</ele>
        <time>2025-11-21T09:20:12.000Z</time>
      </trkpt>
      <trkpt lat="44.47371" lon="6.20955">
        <ele>1007</ele>
        <time>2025-11-21T09:20:13.000Z</time>
      </trkpt>
      <trkpt lat="44.47372" lon="6.20955">
        <ele>1007</ele>
        <time>2025-11-21T09:20:14.000Z</time>
      </trkpt>
      <trkpt lat="44.47372" lon="6.20956">
        <ele>1007</ele>
        <time>2025-11-21T09:20:15.000Z</time>
      </trkpt>
      <trkpt lat="44.47373" lon="6.20958">
        <ele>1008</ele>
        <time>2025-11-21T09:20:16.000Z</time>
      </trkpt>
      <trkpt lat="44.47373" lon="6.20959">
        <ele>1007</ele>
        <time>2025-11-21T09:20:17.000Z</time>
      </trkpt>
      <trkpt lat="44.47373" lon="6.20959">
        <ele>1008</ele>
        <time>2025-11-21T09:20:18.000Z</time>
      </trkpt>
      <trkpt lat="44.47374" lon="6.2096">
        <ele>1008</ele>
        <time>2025-11-21T09:20:19.000Z</time>
      </trkpt>
      <trkpt lat="44.47374" lon="6.20961">
        <ele>1008</ele>
        <time>2025-11-21T09:20:20.000Z</time>
      </trkpt>
      <trkpt lat="44.47374" lon="6.20962">
        <ele>1008</ele>
        <time>2025-11-21T09:20:21.000Z</time>
      </trkpt>
      <trkpt lat="44.47374" lon="6.20962">
        <ele>1009</ele>
        <time>2025-11-21T09:20:22.000Z</time>
      </trkpt>
      <trkpt lat="44.47374" lon="6.20963">
        <ele>1009</ele>
        <time>2025-11-21T09:20:23.000Z</time>
      </trkpt>
      <trkpt lat="44.47375" lon="6.20965">
        <ele>1009</ele>
        <time>2025-11-21T09:20:24.000Z</time>
      </trkpt>
      <trkpt lat="44.47375" lon="6.20965">
        <ele>1009</ele>
        <time>2025-11-21T09:20:25.000Z</time>
      </trkpt>
      <trkpt lat="44.47375" lon="6.20966">
        <ele>1009</ele>
        <time>2025-11-21T09:20:26.000Z</time>
      </trkpt>
      <trkpt lat="44.47375" lon="6.20966">
        <ele>1008</ele>
        <time>2025-11-21T09:20:27.000Z</time>
      </trkpt>
      <trkpt lat="44.47376" lon="6.20966">
        <ele>1008</ele>
        <time>2025-11-21T09:20:28.000Z</time>
      </trkpt>
      <trkpt lat="44.47377" lon="6.20967">
        <ele>1007</ele>
        <time>2025-11-21T09:20:29.000Z</time>
      </trkpt>
      <trkpt lat="44.47377" lon="6.20968">
        <ele>1007</ele>
        <time>2025-11-21T09:20:30.000Z</time>
      </trkpt>
      <trkpt lat="44.47378" lon="6.20969">
        <ele>1007</ele>
        <time>2025-11-21T09:20:31.000Z</time>
      </trkpt>
      <trkpt lat="44.47378" lon="6.2097">
        <ele>1007</ele>
        <time>2025-11-21T09:20:32.000Z</time>
      </trkpt>
      <trkpt lat="44.47378" lon="6.2097">
        <ele>1007</ele>
        <time>2025-11-21T09:20:33.000Z</time>
      </trkpt>
      <trkpt lat="44.47379" lon="6.20971">
        <ele>1006</ele>
        <time>2025-11-21T09:20:34.000Z</time>
      </trkpt>
      <trkpt lat="44.47379" lon="6.2097">
        <ele>1006</ele>
        <time>2025-11-21T09:20:35.000Z</time>
      </trkpt>
      <trkpt lat="44.47379" lon="6.2097">
        <ele>1006</ele>
        <time>2025-11-21T09:20:36.000Z</time>
      </trkpt>
      <trkpt lat="44.47379" lon="6.2097">
        <ele>1006</ele>
        <time>2025-11-21T09:20:37.000Z</time>
      </trkpt>
      <trkpt lat="44.47379" lon="6.20969">
        <ele>1006</ele>
        <time>2025-11-21T09:20:38.000Z</time>
      </trkpt>
      <trkpt lat="44.47378" lon="6.20968">
        <ele>1006</ele>
        <time>2025-11-21T09:20:39.000Z</time>
      </trkpt>
      <trkpt lat="44.47378" lon="6.20969">
        <ele>1007</ele>
        <time>2025-11-21T09:20:40.000Z</time>
      </trkpt>
      <trkpt lat="44.47378" lon="6.2097">
        <ele>1008</ele>
        <time>2025-11-21T09:20:41.000Z</time>
      </trkpt>
      <trkpt lat="44.47379" lon="6.2097">
        <ele>1008</ele>
        <time>2025-11-21T09:20:42.000Z</time>
      </trkpt>
      <trkpt lat="44.47379" lon="6.20971">
        <ele>1007</ele>
        <time>2025-11-21T09:20:43.000Z</time>
      </trkpt>
      <trkpt lat="44.47379" lon="6.20971">
        <ele>1008</ele>
        <time>2025-11-21T09:20:44.000Z</time>
      </trkpt>
      <trkpt lat="44.47379" lon="6.20972">
        <ele>1009</ele>
        <time>2025-11-21T09:20:45.000Z</time>
      </trkpt>
      <trkpt lat="44.47379" lon="6.20972">
        <ele>1009</ele>
        <time>2025-11-21T09:20:46.000Z</time>
      </trkpt>
      <trkpt lat="44.47379" lon="6.20972">
        <ele>1009</ele>
        <time>2025-11-21T09:20:47.000Z</time>
      </trkpt>
      <trkpt lat="44.47378" lon="6.20974">
        <ele>1007</ele>
        <time>2025-11-21T09:20:48.000Z</time>
      </trkpt>
      <trkpt lat="44.47378" lon="6.20975">
        <ele>1007</ele>
        <time>2025-11-21T09:20:49.000Z</time>
      </trkpt>
      <trkpt lat="44.47379" lon="6.20975">
        <ele>1005</ele>
        <time>2025-11-21T09:22:00.000Z</time>
      </trkpt>
      <trkpt lat="44.47379" lon="6.20974">
        <ele>1005</ele>
        <time>2025-11-21T09:22:01.000Z</time>
      </trkpt>
      <trkpt lat="44.47379" lon="6.20975">
        <ele>1005</ele>
        <time>2025-11-21T09:22:02.000Z</time>
      </trkpt>
      <trkpt lat="44.47379" lon="6.2097">
        <ele>1009</ele>
        <time>2025-11-21T09:23:47.000Z</time>
      </trkpt>
      <trkpt lat="44.47379" lon="6.2097">
        <ele>1010</ele>
        <time>2025-11-21T09:23:48.000Z</time>
      </trkpt>
      <trkpt lat="44.47379" lon="6.20969">
        <ele>1010</ele>
        <time>2025-11-21T09:23:49.000Z</time>
      </trkpt>
      <trkpt lat="44.47379" lon="6.20968">
        <ele>1009</ele>
        <time>2025-11-21T09:23:50.000Z</time>
      </trkpt>
      <trkpt lat="44.4738" lon="6.20967">
        <ele>1010</ele>
        <time>2025-11-21T09:23:51.000Z</time>
      </trkpt>
      <trkpt lat="44.4738" lon="6.20966">
        <ele>1010</ele>
        <time>2025-11-21T09:23:52.000Z</time>
      </trkpt>
      <trkpt lat="44.4738" lon="6.20965">
        <ele>1010</ele>
        <time>2025-11-21T09:23:53.000Z</time>
      </trkpt>
      <trkpt lat="44.47379" lon="6.20964">
        <ele>1010</ele>
        <time>2025-11-21T09:23:54.000Z</time>
      </trkpt>
      <trkpt lat="44.47379" lon="6.20963">
        <ele>1010</ele>
        <time>2025-11-21T09:23:55.000Z</time>
      </trkpt>
      <trkpt lat="44.47379" lon="6.20962">
        <ele>1010</ele>
        <time>2025-11-21T09:23:56.000Z</time>
      </trkpt>
      <trkpt lat="44.47379" lon="6.20961">
        <ele>1010</ele>
        <time>2025-11-21T09:23:57.000Z</time>
      </trkpt>
      <trkpt lat="44.47378" lon="6.20959">
        <ele>1011</ele>
        <time>2025-11-21T09:23:58.000Z</time>
      </trkpt>
      <trkpt lat="44.47378" lon="6.20959">
        <ele>1010</ele>
        <time>2025-11-21T09:23:59.000Z</time>
      </trkpt>
      <trkpt lat="44.47378" lon="6.20958">
        <ele>1010</ele>
        <time>2025-11-21T09:24:00.000Z</time>
      </trkpt>
      <trkpt lat="44.47378" lon="6.20957">
        <ele>1010</ele>
        <time>2025-11-21T09:24:01.000Z</time>
      </trkpt>
      <trkpt lat="44.47378" lon="6.20955">
        <ele>1010</ele>
        <time>2025-11-21T09:24:02.000Z</time>
      </trkpt>
      <trkpt lat="44.47377" lon="6.20954">
        <ele>1010</ele>
        <time>2025-11-21T09:24:03.000Z</time>
      </trkpt>
      <trkpt lat="44.47377" lon="6.20952">
        <ele>1011</ele>
        <time>2025-11-21T09:24:04.000Z</time>
      </trkpt>
      <trkpt lat="44.47378" lon="6.20951">
        <ele>1011</ele>
        <time>2025-11-21T09:24:05.000Z</time>
      </trkpt>
      <trkpt lat="44.47379" lon="6.2095">
        <ele>1011</ele>
        <time>2025-11-21T09:24:06.000Z</time>
      </trkpt>
      <trkpt lat="44.47379" lon="6.2095">
        <ele>1011</ele>
        <time>2025-11-21T09:24:07.000Z</time>
      </trkpt>
      <trkpt lat="44.47379" lon="6.2095">
        <ele>1011</ele>
        <time>2025-11-21T09:24:08.000Z</time>
      </trkpt>
      <trkpt lat="44.47379" lon="6.2095">
        <ele>1011</ele>
        <time>2025-11-21T09:24:09.000Z</time>
      </trkpt>
      <trkpt lat="44.47379" lon="6.20946">
        <ele>1013</ele>
        <time>2025-11-21T09:24:10.000Z</time>
      </trkpt>
      <trkpt lat="44.47378" lon="6.20944">
        <ele>1013</ele>
        <time>2025-11-21T09:24:11.000Z</time>
      </trkpt>
      <trkpt lat="44.47378" lon="6.20942">
        <ele>1013</ele>
        <time>2025-11-21T09:24:12.000Z</time>
      </trkpt>
      <trkpt lat="44.47377" lon="6.20941">
        <ele>1013</ele>
        <time>2025-11-21T09:24:13.000Z</time>
      </trkpt>
      <trkpt lat="44.47376" lon="6.20939">
        <ele>1013</ele>
        <time>2025-11-21T09:24:14.000Z</time>
      </trkpt>
      <trkpt lat="44.47375" lon="6.20938">
        <ele>1013</ele>
        <time>2025-11-21T09:24:15.000Z</time>
      </trkpt>
      <trkpt lat="44.47374" lon="6.20937">
        <ele>1013</ele>
        <time>2025-11-21T09:24:16.000Z</time>
      </trkpt>
      <trkpt lat="44.47374" lon="6.20936">
        <ele>1014</ele>
        <time>2025-11-21T09:24:17.000Z</time>
      </trkpt>
      <trkpt lat="44.47373" lon="6.20935">
        <ele>1013</ele>
        <time>2025-11-21T09:24:18.000Z</time>
      </trkpt>
      <trkpt lat="44.47374" lon="6.20933">
        <ele>1014</ele>
        <time>2025-11-21T09:24:19.000Z</time>
      </trkpt>
      <trkpt lat="44.47374" lon="6.20932">
        <ele>1015</ele>
        <time>2025-11-21T09:24:20.000Z</time>
      </trkpt>
      <trkpt lat="44.47375" lon="6.20931">
        <ele>1016</ele>
        <time>2025-11-21T09:24:21.000Z</time>
      </trkpt>
      <trkpt lat="44.47375" lon="6.2093">
        <ele>1017</ele>
        <time>2025-11-21T09:24:22.000Z</time>
      </trkpt>
      <trkpt lat="44.47376" lon="6.2093">
        <ele>1017</ele>
        <time>2025-11-21T09:24:23.000Z</time>
      </trkpt>
      <trkpt lat="44.47376" lon="6.20929">
        <ele>1017</ele>
        <time>2025-11-21T09:24:24.000Z</time>
      </trkpt>
      <trkpt lat="44.47376" lon="6.20928">
        <ele>1018</ele>
        <time>2025-11-21T09:24:25.000Z</time>
      </trkpt>
      <trkpt lat="44.47377" lon="6.20927">
        <ele>1018</ele>
        <time>2025-11-21T09:24:26.000Z</time>
      </trkpt>
      <trkpt lat="44.47377" lon="6.20926">
        <ele>1018</ele>
        <time>2025-11-21T09:24:27.000Z</time>
      </trkpt>
      <trkpt lat="44.47377" lon="6.20925">
        <ele>1018</ele>
        <time>2025-11-21T09:24:28.000Z</time>
      </trkpt>
      <trkpt lat="44.47376" lon="6.20925">
        <ele>1019</ele>
        <time>2025-11-21T09:24:29.000Z</time>
      </trkpt>
      <trkpt lat="44.47375" lon="6.20924">
        <ele>1020</ele>
        <time>2025-11-21T09:24:30.000Z</time>
      </trkpt>
      <trkpt lat="44.47374" lon="6.20923">
        <ele>1020</ele>
        <time>2025-11-21T09:24:31.000Z</time>
      </trkpt>
      <trkpt lat="44.47373" lon="6.20922">
        <ele>1020</ele>
        <time>2025-11-21T09:24:32.000Z</time>
      </trkpt>
      <trkpt lat="44.47372" lon="6.20921">
        <ele>1021</ele>
        <time>2025-11-21T09:24:33.000Z</time>
      </trkpt>
      <trkpt lat="44.47372" lon="6.20919">
        <ele>1021</ele>
        <time>2025-11-21T09:24:34.000Z</time>
      </trkpt>
      <trkpt lat="44.47371" lon="6.20917">
        <ele>1020</ele>
        <time>2025-11-21T09:24:35.000Z</time>
      </trkpt>
      <trkpt lat="44.47371" lon="6.20915">
        <ele>1021</ele>
        <time>2025-11-21T09:24:36.000Z</time>
      </trkpt>
      <trkpt lat="44.47371" lon="6.20913">
        <ele>1022</ele>
        <time>2025-11-21T09:24:37.000Z</time>
      </trkpt>
      <trkpt lat="44.4737" lon="6.20912">
        <ele>1022</ele>
        <time>2025-11-21T09:24:38.000Z</time>
      </trkpt>
      <trkpt lat="44.4737" lon="6.20911">
        <ele>1022</ele>
        <time>2025-11-21T09:24:39.000Z</time>
      </trkpt>
      <trkpt lat="44.4737" lon="6.2091">
        <ele>1023</ele>
        <time>2025-11-21T09:24:40.000Z</time>
      </trkpt>
      <trkpt lat="44.47369" lon="6.2091">
        <ele>1022</ele>
        <time>2025-11-21T09:24:41.000Z</time>
      </trkpt>
      <trkpt lat="44.47368" lon="6.20909">
        <ele>1022</ele>
        <time>2025-11-21T09:24:42.000Z</time>
      </trkpt>
      <trkpt lat="44.47368" lon="6.20908">
        <ele>1023</ele>
        <time>2025-11-21T09:24:43.000Z</time>
      </trkpt>
      <trkpt lat="44.47367" lon="6.20906">
        <ele>1022</ele>
        <time>2025-11-21T09:24:44.000Z</time>
      </trkpt>
      <trkpt lat="44.47366" lon="6.20903">
        <ele>1022</ele>
        <time>2025-11-21T09:24:45.000Z</time>
      </trkpt>
      <trkpt lat="44.47366" lon="6.20901">
        <ele>1021</ele>
        <time>2025-11-21T09:24:46.000Z</time>
      </trkpt>
      <trkpt lat="44.47366" lon="6.209">
        <ele>1022</ele>
        <time>2025-11-21T09:24:47.000Z</time>
      </trkpt>
      <trkpt lat="44.47366" lon="6.20899">
        <ele>1021</ele>
        <time>2025-11-21T09:24:48.000Z</time>
      </trkpt>
      <trkpt lat="44.47365" lon="6.20898">
        <ele>1021</ele>
        <time>2025-11-21T09:24:49.000Z</time>
      </trkpt>
      <trkpt lat="44.47364" lon="6.20898">
        <ele>1022</ele>
        <time>2025-11-21T09:24:50.000Z</time>
      </trkpt>
      <trkpt lat="44.47364" lon="6.20896">
        <ele>1021</ele>
        <time>2025-11-21T09:24:51.000Z</time>
      </trkpt>
      <trkpt lat="44.47364" lon="6.20895">
        <ele>1020</ele>
        <time>2025-11-21T09:24:52.000Z</time>
      </trkpt>
      <trkpt lat="44.47364" lon="6.20894">
        <ele>1020</ele>
        <time>2025-11-21T09:24:53.000Z</time>
      </trkpt>
      <trkpt lat="44.47363" lon="6.20892">
        <ele>1021</ele>
        <time>2025-11-21T09:24:54.000Z</time>
      </trkpt>
      <trkpt lat="44.47362" lon="6.20891">
        <ele>1021</ele>
        <time>2025-11-21T09:24:55.000Z</time>
      </trkpt>
      <trkpt lat="44.4736" lon="6.20889">
        <ele>1021</ele>
        <time>2025-11-21T09:24:56.000Z</time>
      </trkpt>
      <trkpt lat="44.47358" lon="6.20889">
        <ele>1021</ele>
        <time>2025-11-21T09:24:57.000Z</time>
      </trkpt>
      <trkpt lat="44.47357" lon="6.20888">
        <ele>1021</ele>
        <time>2025-11-21T09:24:58.000Z</time>
      </trkpt>
      <trkpt lat="44.47356" lon="6.20888">
        <ele>1021</ele>
        <time>2025-11-21T09:24:59.000Z</time>
      </trkpt>
      <trkpt lat="44.47356" lon="6.20886">
        <ele>1020</ele>
        <time>2025-11-21T09:25:00.000Z</time>
      </trkpt>
      <trkpt lat="44.47355" lon="6.20885">
        <ele>1021</ele>
        <time>2025-11-21T09:25:01.000Z</time>
      </trkpt>
      <trkpt lat="44.47354" lon="6.20884">
        <ele>1021</ele>
        <time>2025-11-21T09:25:02.000Z</time>
      </trkpt>
      <trkpt lat="44.47354" lon="6.20882">
        <ele>1021</ele>
        <time>2025-11-21T09:25:03.000Z</time>
      </trkpt>
      <trkpt lat="44.47353" lon="6.2088">
        <ele>1020</ele>
        <time>2025-11-21T09:25:04.000Z</time>
      </trkpt>
      <trkpt lat="44.47352" lon="6.20879">
        <ele>1021</ele>
        <time>2025-11-21T09:25:05.000Z</time>
      </trkpt>
      <trkpt lat="44.47351" lon="6.20878">
        <ele>1021</ele>
        <time>2025-11-21T09:25:06.000Z</time>
      </trkpt>
      <trkpt lat="44.47349" lon="6.20877">
        <ele>1021</ele>
        <time>2025-11-21T09:25:07.000Z</time>
      </trkpt>
      <trkpt lat="44.47348" lon="6.20877">
        <ele>1022</ele>
        <time>2025-11-21T09:25:08.000Z</time>
      </trkpt>
      <trkpt lat="44.47348" lon="6.20876">
        <ele>1023</ele>
        <time>2025-11-21T09:25:09.000Z</time>
      </trkpt>
      <trkpt lat="44.47348" lon="6.20874">
        <ele>1023</ele>
        <time>2025-11-21T09:25:10.000Z</time>
      </trkpt>
      <trkpt lat="44.47347" lon="6.20874">
        <ele>1024</ele>
        <time>2025-11-21T09:25:11.000Z</time>
      </trkpt>
      <trkpt lat="44.47346" lon="6.20873">
        <ele>1024</ele>
        <time>2025-11-21T09:25:12.000Z</time>
      </trkpt>
      <trkpt lat="44.47345" lon="6.20872">
        <ele>1024</ele>
        <time>2025-11-21T09:25:13.000Z</time>
      </trkpt>
      <trkpt lat="44.47345" lon="6.2087">
        <ele>1024</ele>
        <time>2025-11-21T09:25:14.000Z</time>
      </trkpt>
      <trkpt lat="44.47344" lon="6.20868">
        <ele>1024</ele>
        <time>2025-11-21T09:25:15.000Z</time>
      </trkpt>
      <trkpt lat="44.47344" lon="6.20867">
        <ele>1025</ele>
        <time>2025-11-21T09:25:16.000Z</time>
      </trkpt>
      <trkpt lat="44.47344" lon="6.20865">
        <ele>1025</ele>
        <time>2025-11-21T09:25:17.000Z</time>
      </trkpt>
      <trkpt lat="44.47344" lon="6.20864">
        <ele>1026</ele>
        <time>2025-11-21T09:25:18.000Z</time>
      </trkpt>
      <trkpt lat="44.47344" lon="6.20862">
        <ele>1025</ele>
        <time>2025-11-21T09:25:19.000Z</time>
      </trkpt>
      <trkpt lat="44.47344" lon="6.20862">
        <ele>1026</ele>
        <time>2025-11-21T09:25:20.000Z</time>
      </trkpt>
      <trkpt lat="44.47345" lon="6.20862">
        <ele>1025</ele>
        <time>2025-11-21T09:25:21.000Z</time>
      </trkpt>
      <trkpt lat="44.47346" lon="6.20861">
        <ele>1025</ele>
        <time>2025-11-21T09:25:22.000Z</time>
      </trkpt>
      <trkpt lat="44.47346" lon="6.20859">
        <ele>1025</ele>
        <time>2025-11-21T09:25:23.000Z</time>
      </trkpt>
      <trkpt lat="44.47347" lon="6.20858">
        <ele>1026</ele>
        <time>2025-11-21T09:25:24.000Z</time>
      </trkpt>
      <trkpt lat="44.47347" lon="6.20858">
        <ele>1026</ele>
        <time>2025-11-21T09:25:25.000Z</time>
      </trkpt>
      <trkpt lat="44.47348" lon="6.20857">
        <ele>1026</ele>
        <time>2025-11-21T09:25:26.000Z</time>
      </trkpt>
      <trkpt lat="44.47349" lon="6.20856">
        <ele>1027</ele>
        <time>2025-11-21T09:25:27.000Z</time>
      </trkpt>
      <trkpt lat="44.47349" lon="6.20855">
        <ele>1027</ele>
        <time>2025-11-21T09:25:28.000Z</time>
      </trkpt>
      <trkpt lat="44.4735" lon="6.20855">
        <ele>1026</ele>
        <time>2025-11-21T09:25:29.000Z</time>
      </trkpt>
      <trkpt lat="44.4735" lon="6.20855">
        <ele>1026</ele>
        <time>2025-11-21T09:25:30.000Z</time>
      </trkpt>
      <trkpt lat="44.4735" lon="6.20854">
        <ele>1027</ele>
        <time>2025-11-21T09:25:31.000Z</time>
      </trkpt>
      <trkpt lat="44.47351" lon="6.20854">
        <ele>1026</ele>
        <time>2025-11-21T09:25:32.000Z</time>
      </trkpt>
      <trkpt lat="44.47351" lon="6.20854">
        <ele>1026</ele>
        <time>2025-11-21T09:25:33.000Z</time>
      </trkpt>
      <trkpt lat="44.47351" lon="6.20854">
        <ele>1027</ele>
        <time>2025-11-21T09:25:34.000Z</time>
      </trkpt>
      <trkpt lat="44.47352" lon="6.20853">
        <ele>1027</ele>
        <time>2025-11-21T09:25:35.000Z</time>
      </trkpt>
      <trkpt lat="44.47352" lon="6.2085">
        <ele>1027</ele>
        <time>2025-11-21T09:25:36.000Z</time>
      </trkpt>
      <trkpt lat="44.47353" lon="6.20848">
        <ele>1026</ele>
        <time>2025-11-21T09:25:37.000Z</time>
      </trkpt>
      <trkpt lat="44.47352" lon="6.20847">
        <ele>1027</ele>
        <time>2025-11-21T09:25:38.000Z</time>
      </trkpt>
      <trkpt lat="44.47353" lon="6.20847">
        <ele>1027</ele>
        <time>2025-11-21T09:25:39.000Z</time>
      </trkpt>
      <trkpt lat="44.47354" lon="6.20847">
        <ele>1027</ele>
        <time>2025-11-21T09:25:40.000Z</time>
      </trkpt>
      <trkpt lat="44.47355" lon="6.20846">
        <ele>1027</ele>
        <time>2025-11-21T09:25:41.000Z</time>
      </trkpt>
      <trkpt lat="44.47356" lon="6.20844">
        <ele>1027</ele>
        <time>2025-11-21T09:25:42.000Z</time>
      </trkpt>
      <trkpt lat="44.47356" lon="6.20843">
        <ele>1027</ele>
        <time>2025-11-21T09:25:43.000Z</time>
      </trkpt>
      <trkpt lat="44.47356" lon="6.20843">
        <ele>1028</ele>
        <time>2025-11-21T09:25:44.000Z</time>
      </trkpt>
      <trkpt lat="44.47357" lon="6.20842">
        <ele>1028</ele>
        <time>2025-11-21T09:25:45.000Z</time>
      </trkpt>
      <trkpt lat="44.47357" lon="6.20841">
        <ele>1029</ele>
        <time>2025-11-21T09:25:46.000Z</time>
      </trkpt>
      <trkpt lat="44.47357" lon="6.2084">
        <ele>1030</ele>
        <time>2025-11-21T09:25:47.000Z</time>
      </trkpt>
      <trkpt lat="44.47358" lon="6.20838">
        <ele>1031</ele>
        <time>2025-11-21T09:25:48.000Z</time>
      </trkpt>
      <trkpt lat="44.47358" lon="6.20837">
        <ele>1031</ele>
        <time>2025-11-21T09:25:49.000Z</time>
      </trkpt>
      <trkpt lat="44.47359" lon="6.20835">
        <ele>1031</ele>
        <time>2025-11-21T09:25:50.000Z</time>
      </trkpt>
      <trkpt lat="44.47359" lon="6.20835">
        <ele>1032</ele>
        <time>2025-11-21T09:25:51.000Z</time>
      </trkpt>
      <trkpt lat="44.47359" lon="6.20833">
        <ele>1032</ele>
        <time>2025-11-21T09:25:52.000Z</time>
      </trkpt>
      <trkpt lat="44.47359" lon="6.20833">
        <ele>1033</ele>
        <time>2025-11-21T09:25:53.000Z</time>
      </trkpt>
      <trkpt lat="44.47358" lon="6.20832">
        <ele>1033</ele>
        <time>2025-11-21T09:25:54.000Z</time>
      </trkpt>
      <trkpt lat="44.47357" lon="6.20831">
        <ele>1033</ele>
        <time>2025-11-21T09:25:55.000Z</time>
      </trkpt>
      <trkpt lat="44.47356" lon="6.2083">
        <ele>1032</ele>
        <time>2025-11-21T09:25:56.000Z</time>
      </trkpt>
      <trkpt lat="44.47356" lon="6.20829">
        <ele>1034</ele>
        <time>2025-11-21T09:25:57.000Z</time>
      </trkpt>
      <trkpt lat="44.47355" lon="6.20828">
        <ele>1033</ele>
        <time>2025-11-21T09:25:58.000Z</time>
      </trkpt>
      <trkpt lat="44.47354" lon="6.20827">
        <ele>1034</ele>
        <time>2025-11-21T09:25:59.000Z</time>
      </trkpt>
      <trkpt lat="44.47353" lon="6.20827">
        <ele>1034</ele>
        <time>2025-11-21T09:26:00.000Z</time>
      </trkpt>
      <trkpt lat="44.47352" lon="6.20826">
        <ele>1034</ele>
        <time>2025-11-21T09:26:01.000Z</time>
      </trkpt>
      <trkpt lat="44.47351" lon="6.20826">
        <ele>1036</ele>
        <time>2025-11-21T09:26:02.000Z</time>
      </trkpt>
      <trkpt lat="44.4735" lon="6.20825">
        <ele>1037</ele>
        <time>2025-11-21T09:26:03.000Z</time>
      </trkpt>
      <trkpt lat="44.47348" lon="6.20825">
        <ele>1036</ele>
        <time>2025-11-21T09:26:04.000Z</time>
      </trkpt>
      <trkpt lat="44.47347" lon="6.20824">
        <ele>1037</ele>
        <time>2025-11-21T09:26:05.000Z</time>
      </trkpt>
      <trkpt lat="44.47346" lon="6.20824">
        <ele>1038</ele>
        <time>2025-11-21T09:26:06.000Z</time>
      </trkpt>
      <trkpt lat="44.47345" lon="6.20824">
        <ele>1039</ele>
        <time>2025-11-21T09:26:07.000Z</time>
      </trkpt>
      <trkpt lat="44.47344" lon="6.20823">
        <ele>1039</ele>
        <time>2025-11-21T09:26:08.000Z</time>
      </trkpt>
      <trkpt lat="44.47343" lon="6.20822">
        <ele>1039</ele>
        <time>2025-11-21T09:26:09.000Z</time>
      </trkpt>
      <trkpt lat="44.47341" lon="6.20823">
        <ele>1039</ele>
        <time>2025-11-21T09:26:10.000Z</time>
      </trkpt>
      <trkpt lat="44.4734" lon="6.20823">
        <ele>1038</ele>
        <time>2025-11-21T09:26:11.000Z</time>
      </trkpt>
      <trkpt lat="44.47339" lon="6.20823">
        <ele>1037</ele>
        <time>2025-11-21T09:26:12.000Z</time>
      </trkpt>
      <trkpt lat="44.47339" lon="6.20822">
        <ele>1037</ele>
        <time>2025-11-21T09:26:13.000Z</time>
      </trkpt>
      <trkpt lat="44.47337" lon="6.20822">
        <ele>1038</ele>
        <time>2025-11-21T09:26:14.000Z</time>
      </trkpt>
      <trkpt lat="44.47335" lon="6.20821">
        <ele>1039</ele>
        <time>2025-11-21T09:26:15.000Z</time>
      </trkpt>
      <trkpt lat="44.47334" lon="6.2082">
        <ele>1039</ele>
        <time>2025-11-21T09:26:16.000Z</time>
      </trkpt>
      <trkpt lat="44.47334" lon="6.20819">
        <ele>1039</ele>
        <time>2025-11-21T09:26:17.000Z</time>
      </trkpt>
      <trkpt lat="44.47334" lon="6.20818">
        <ele>1039</ele>
        <time>2025-11-21T09:26:18.000Z</time>
      </trkpt>
      <trkpt lat="44.47334" lon="6.20816">
        <ele>1039</ele>
        <time>2025-11-21T09:26:19.000Z</time>
      </trkpt>
      <trkpt lat="44.47333" lon="6.20815">
        <ele>1039</ele>
        <time>2025-11-21T09:26:20.000Z</time>
      </trkpt>
      <trkpt lat="44.47332" lon="6.20813">
        <ele>1039</ele>
        <time>2025-11-21T09:26:21.000Z</time>
      </trkpt>
      <trkpt lat="44.47331" lon="6.20812">
        <ele>1039</ele>
        <time>2025-11-21T09:26:22.000Z</time>
      </trkpt>
      <trkpt lat="44.47331" lon="6.20811">
        <ele>1039</ele>
        <time>2025-11-21T09:26:23.000Z</time>
      </trkpt>
      <trkpt lat="44.4733" lon="6.2081">
        <ele>1039</ele>
        <time>2025-11-21T09:26:24.000Z</time>
      </trkpt>
      <trkpt lat="44.4733" lon="6.20809">
        <ele>1040</ele>
        <time>2025-11-21T09:26:25.000Z</time>
      </trkpt>
      <trkpt lat="44.4733" lon="6.20808">
        <ele>1039</ele>
        <time>2025-11-21T09:26:26.000Z</time>
      </trkpt>
      <trkpt lat="44.47329" lon="6.20807">
        <ele>1040</ele>
        <time>2025-11-21T09:26:27.000Z</time>
      </trkpt>
      <trkpt lat="44.47327" lon="6.20805">
        <ele>1039</ele>
        <time>2025-11-21T09:26:28.000Z</time>
      </trkpt>
      <trkpt lat="44.47327" lon="6.20804">
        <ele>1038</ele>
        <time>2025-11-21T09:26:29.000Z</time>
      </trkpt>
      <trkpt lat="44.47326" lon="6.20802">
        <ele>1039</ele>
        <time>2025-11-21T09:26:30.000Z</time>
      </trkpt>
      <trkpt lat="44.47326" lon="6.20802">
        <ele>1038</ele>
        <time>2025-11-21T09:26:31.000Z</time>
      </trkpt>
      <trkpt lat="44.47325" lon="6.20801">
        <ele>1038</ele>
        <time>2025-11-21T09:26:32.000Z</time>
      </trkpt>
      <trkpt lat="44.47325" lon="6.208">
        <ele>1039</ele>
        <time>2025-11-21T09:26:33.000Z</time>
      </trkpt>
      <trkpt lat="44.47326" lon="6.20798">
        <ele>1039</ele>
        <time>2025-11-21T09:26:34.000Z</time>
      </trkpt>
      <trkpt lat="44.47326" lon="6.20797">
        <ele>1039</ele>
        <time>2025-11-21T09:26:35.000Z</time>
      </trkpt>
      <trkpt lat="44.47325" lon="6.20797">
        <ele>1039</ele>
        <time>2025-11-21T09:26:36.000Z</time>
      </trkpt>
      <trkpt lat="44.47325" lon="6.20799">
        <ele>1039</ele>
        <time>2025-11-21T09:26:37.000Z</time>
      </trkpt>
      <trkpt lat="44.47325" lon="6.208">
        <ele>1037</ele>
        <time>2025-11-21T09:26:38.000Z</time>
      </trkpt>
      <trkpt lat="44.47326" lon="6.20802">
        <ele>1036</ele>
        <time>2025-11-21T09:26:39.000Z</time>
      </trkpt>
      <trkpt lat="44.47326" lon="6.20801">
        <ele>1037</ele>
        <time>2025-11-21T09:26:40.000Z</time>
      </trkpt>
      <trkpt lat="44.47327" lon="6.20801">
        <ele>1037</ele>
        <time>2025-11-21T09:26:41.000Z</time>
      </trkpt>
      <trkpt lat="44.47328" lon="6.20801">
        <ele>1036</ele>
        <time>2025-11-21T09:26:42.000Z</time>
      </trkpt>
      <trkpt lat="44.47329" lon="6.208">
        <ele>1036</ele>
        <time>2025-11-21T09:26:43.000Z</time>
      </trkpt>
      <trkpt lat="44.4733" lon="6.20799">
        <ele>1036</ele>
        <time>2025-11-21T09:26:44.000Z</time>
      </trkpt>
      <trkpt lat="44.47331" lon="6.208">
        <ele>1037</ele>
        <time>2025-11-21T09:26:45.000Z</time>
      </trkpt>
      <trkpt lat="44.47332" lon="6.20799">
        <ele>1036</ele>
        <time>2025-11-21T09:26:46.000Z</time>
      </trkpt>
      <trkpt lat="44.47332" lon="6.20799">
        <ele>1035</ele>
        <time>2025-11-21T09:26:47.000Z</time>
      </trkpt>
      <trkpt lat="44.47332" lon="6.20799">
        <ele>1035</ele>
        <time>2025-11-21T09:26:48.000Z</time>
      </trkpt>
      <trkpt lat="44.47332" lon="6.20799">
        <ele>1035</ele>
        <time>2025-11-21T09:26:49.000Z</time>
      </trkpt>
      <trkpt lat="44.47333" lon="6.208">
        <ele>1036</ele>
        <time>2025-11-21T09:26:50.000Z</time>
      </trkpt>
      <trkpt lat="44.47334" lon="6.208">
        <ele>1037</ele>
        <time>2025-11-21T09:26:51.000Z</time>
      </trkpt>
      <trkpt lat="44.47335" lon="6.208">
        <ele>1038</ele>
        <time>2025-11-21T09:26:52.000Z</time>
      </trkpt>
      <trkpt lat="44.47335" lon="6.20802">
        <ele>1039</ele>
        <time>2025-11-21T09:26:53.000Z</time>
      </trkpt>
      <trkpt lat="44.47336" lon="6.20803">
        <ele>1038</ele>
        <time>2025-11-21T09:26:54.000Z</time>
      </trkpt>
      <trkpt lat="44.47337" lon="6.20804">
        <ele>1039</ele>
        <time>2025-11-21T09:26:55.000Z</time>
      </trkpt>
      <trkpt lat="44.47338" lon="6.20805">
        <ele>1039</ele>
        <time>2025-11-21T09:26:56.000Z</time>
      </trkpt>
      <trkpt lat="44.47338" lon="6.20805">
        <ele>1039</ele>
        <time>2025-11-21T09:26:57.000Z</time>
      </trkpt>
      <trkpt lat="44.47339" lon="6.20805">
        <ele>1039</ele>
        <time>2025-11-21T09:26:58.000Z</time>
      </trkpt>
      <trkpt lat="44.4734" lon="6.20805">
        <ele>1039</ele>
        <time>2025-11-21T09:26:59.000Z</time>
      </trkpt>
      <trkpt lat="44.47341" lon="6.20805">
        <ele>1039</ele>
        <time>2025-11-21T09:27:00.000Z</time>
      </trkpt>
      <trkpt lat="44.47342" lon="6.20805">
        <ele>1037</ele>
        <time>2025-11-21T09:27:01.000Z</time>
      </trkpt>
      <trkpt lat="44.47343" lon="6.20805">
        <ele>1037</ele>
        <time>2025-11-21T09:27:02.000Z</time>
      </trkpt>
      <trkpt lat="44.47343" lon="6.20806">
        <ele>1038</ele>
        <time>2025-11-21T09:27:03.000Z</time>
      </trkpt>
      <trkpt lat="44.47345" lon="6.20806">
        <ele>1039</ele>
        <time>2025-11-21T09:27:04.000Z</time>
      </trkpt>
      <trkpt lat="44.47345" lon="6.20804">
        <ele>1038</ele>
        <time>2025-11-21T09:27:05.000Z</time>
      </trkpt>
      <trkpt lat="44.47347" lon="6.20805">
        <ele>1037</ele>
        <time>2025-11-21T09:27:06.000Z</time>
      </trkpt>
      <trkpt lat="44.47347" lon="6.20805">
        <ele>1037</ele>
        <time>2025-11-21T09:27:07.000Z</time>
      </trkpt>
      <trkpt lat="44.47348" lon="6.20805">
        <ele>1037</ele>
        <time>2025-11-21T09:27:08.000Z</time>
      </trkpt>
      <trkpt lat="44.47349" lon="6.20805">
        <ele>1039</ele>
        <time>2025-11-21T09:27:09.000Z</time>
      </trkpt>
      <trkpt lat="44.47349" lon="6.20805">
        <ele>1039</ele>
        <time>2025-11-21T09:27:10.000Z</time>
      </trkpt>
      <trkpt lat="44.47349" lon="6.20805">
        <ele>1039</ele>
        <time>2025-11-21T09:27:11.000Z</time>
      </trkpt>
      <trkpt lat="44.47349" lon="6.20805">
        <ele>1039</ele>
        <time>2025-11-21T09:27:12.000Z</time>
      </trkpt>
      <trkpt lat="44.47349" lon="6.20806">
        <ele>1039</ele>
        <time>2025-11-21T09:27:13.000Z</time>
      </trkpt>
      <trkpt lat="44.4735" lon="6.20807">
        <ele>1039</ele>
        <time>2025-11-21T09:27:14.000Z</time>
      </trkpt>
      <trkpt lat="44.47351" lon="6.20806">
        <ele>1040</ele>
        <time>2025-11-21T09:27:15.000Z</time>
      </trkpt>
      <trkpt lat="44.47351" lon="6.20805">
        <ele>1039</ele>
        <time>2025-11-21T09:27:16.000Z</time>
      </trkpt>
      <trkpt lat="44.47352" lon="6.20805">
        <ele>1040</ele>
        <time>2025-11-21T09:27:17.000Z</time>
      </trkpt>
      <trkpt lat="44.47352" lon="6.20805">
        <ele>1040</ele>
        <time>2025-11-21T09:27:18.000Z</time>
      </trkpt>
      <trkpt lat="44.47352" lon="6.20807">
        <ele>1038</ele>
        <time>2025-11-21T09:27:19.000Z</time>
      </trkpt>
      <trkpt lat="44.47353" lon="6.20808">
        <ele>1038</ele>
        <time>2025-11-21T09:27:20.000Z</time>
      </trkpt>
      <trkpt lat="44.47354" lon="6.20807">
        <ele>1038</ele>
        <time>2025-11-21T09:27:21.000Z</time>
      </trkpt>
      <trkpt lat="44.47355" lon="6.20807">
        <ele>1039</ele>
        <time>2025-11-21T09:27:22.000Z</time>
      </trkpt>
      <trkpt lat="44.47355" lon="6.20807">
        <ele>1039</ele>
        <time>2025-11-21T09:27:23.000Z</time>
      </trkpt>
      <trkpt lat="44.47356" lon="6.20807">
        <ele>1040</ele>
        <time>2025-11-21T09:27:24.000Z</time>
      </trkpt>
      <trkpt lat="44.47356" lon="6.20807">
        <ele>1040</ele>
        <time>2025-11-21T09:27:25.000Z</time>
      </trkpt>
      <trkpt lat="44.47356" lon="6.20807">
        <ele>1040</ele>
        <time>2025-11-21T09:27:26.000Z</time>
      </trkpt>
      <trkpt lat="44.47358" lon="6.20808">
        <ele>1039</ele>
        <time>2025-11-21T09:27:27.000Z</time>
      </trkpt>
      <trkpt lat="44.47359" lon="6.20809">
        <ele>1039</ele>
        <time>2025-11-21T09:27:28.000Z</time>
      </trkpt>
      <trkpt lat="44.4736" lon="6.20809">
        <ele>1039</ele>
        <time>2025-11-21T09:27:29.000Z</time>
      </trkpt>
      <trkpt lat="44.4736" lon="6.2081">
        <ele>1038</ele>
        <time>2025-11-21T09:27:30.000Z</time>
      </trkpt>
      <trkpt lat="44.47361" lon="6.20809">
        <ele>1038</ele>
        <time>2025-11-21T09:27:31.000Z</time>
      </trkpt>
      <trkpt lat="44.47362" lon="6.20809">
        <ele>1039</ele>
        <time>2025-11-21T09:27:32.000Z</time>
      </trkpt>
      <trkpt lat="44.47362" lon="6.20809">
        <ele>1039</ele>
        <time>2025-11-21T09:27:33.000Z</time>
      </trkpt>
      <trkpt lat="44.47362" lon="6.20809">
        <ele>1039</ele>
        <time>2025-11-21T09:27:34.000Z</time>
      </trkpt>
      <trkpt lat="44.47362" lon="6.20809">
        <ele>1039</ele>
        <time>2025-11-21T09:27:35.000Z</time>
      </trkpt>
      <trkpt lat="44.47362" lon="6.20809">
        <ele>1039</ele>
        <time>2025-11-21T09:27:36.000Z</time>
      </trkpt>
      <trkpt lat="44.47363" lon="6.20811">
        <ele>1040</ele>
        <time>2025-11-21T09:27:37.000Z</time>
      </trkpt>
      <trkpt lat="44.47363" lon="6.20812">
        <ele>1040</ele>
        <time>2025-11-21T09:27:38.000Z</time>
      </trkpt>
      <trkpt lat="44.47364" lon="6.20813">
        <ele>1040</ele>
        <time>2025-11-21T09:27:39.000Z</time>
      </trkpt>
      <trkpt lat="44.47365" lon="6.20815">
        <ele>1040</ele>
        <time>2025-11-21T09:27:40.000Z</time>
      </trkpt>
      <trkpt lat="44.47365" lon="6.20816">
        <ele>1040</ele>
        <time>2025-11-21T09:27:41.000Z</time>
      </trkpt>
      <trkpt lat="44.47365" lon="6.20817">
        <ele>1040</ele>
        <time>2025-11-21T09:27:42.000Z</time>
      </trkpt>
      <trkpt lat="44.47365" lon="6.20817">
        <ele>1040</ele>
        <time>2025-11-21T09:27:43.000Z</time>
      </trkpt>
      <trkpt lat="44.47366" lon="6.20817">
        <ele>1040</ele>
        <time>2025-11-21T09:27:44.000Z</time>
      </trkpt>
      <trkpt lat="44.47366" lon="6.20818">
        <ele>1041</ele>
        <time>2025-11-21T09:27:45.000Z</time>
      </trkpt>
      <trkpt lat="44.47366" lon="6.2082">
        <ele>1041</ele>
        <time>2025-11-21T09:27:46.000Z</time>
      </trkpt>
      <trkpt lat="44.47366" lon="6.20821">
        <ele>1042</ele>
        <time>2025-11-21T09:27:47.000Z</time>
      </trkpt>
      <trkpt lat="44.47367" lon="6.20821">
        <ele>1043</ele>
        <time>2025-11-21T09:27:48.000Z</time>
      </trkpt>
      <trkpt lat="44.47368" lon="6.20822">
        <ele>1043</ele>
        <time>2025-11-21T09:27:49.000Z</time>
      </trkpt>
      <trkpt lat="44.47368" lon="6.20822">
        <ele>1043</ele>
        <time>2025-11-21T09:27:50.000Z</time>
      </trkpt>
      <trkpt lat="44.47369" lon="6.20822">
        <ele>1044</ele>
        <time>2025-11-21T09:27:51.000Z</time>
      </trkpt>
      <trkpt lat="44.47369" lon="6.20822">
        <ele>1044</ele>
        <time>2025-11-21T09:27:52.000Z</time>
      </trkpt>
      <trkpt lat="44.4737" lon="6.20821">
        <ele>1046</ele>
        <time>2025-11-21T09:27:53.000Z</time>
      </trkpt>
      <trkpt lat="44.4737" lon="6.20821">
        <ele>1046</ele>
        <time>2025-11-21T09:27:54.000Z</time>
      </trkpt>
      <trkpt lat="44.47372" lon="6.20821">
        <ele>1046</ele>
        <time>2025-11-21T09:27:55.000Z</time>
      </trkpt>
      <trkpt lat="44.47373" lon="6.20821">
        <ele>1047</ele>
        <time>2025-11-21T09:27:56.000Z</time>
      </trkpt>
      <trkpt lat="44.47374" lon="6.20822">
        <ele>1047</ele>
        <time>2025-11-21T09:27:57.000Z</time>
      </trkpt>
      <trkpt lat="44.47374" lon="6.20823">
        <ele>1048</ele>
        <time>2025-11-21T09:27:58.000Z</time>
      </trkpt>
      <trkpt lat="44.47375" lon="6.20824">
        <ele>1048</ele>
        <time>2025-11-21T09:27:59.000Z</time>
      </trkpt>
      <trkpt lat="44.47376" lon="6.20825">
        <ele>1049</ele>
        <time>2025-11-21T09:28:00.000Z</time>
      </trkpt>
      <trkpt lat="44.47375" lon="6.20826">
        <ele>1049</ele>
        <time>2025-11-21T09:28:01.000Z</time>
      </trkpt>
      <trkpt lat="44.47375" lon="6.20826">
        <ele>1049</ele>
        <time>2025-11-21T09:28:02.000Z</time>
      </trkpt>
      <trkpt lat="44.47374" lon="6.20827">
        <ele>1049</ele>
        <time>2025-11-21T09:28:03.000Z</time>
      </trkpt>
      <trkpt lat="44.47374" lon="6.20828">
        <ele>1049</ele>
        <time>2025-11-21T09:28:04.000Z</time>
      </trkpt>
      <trkpt lat="44.47374" lon="6.20829">
        <ele>1050</ele>
        <time>2025-11-21T09:28:05.000Z</time>
      </trkpt>
      <trkpt lat="44.47375" lon="6.2083">
        <ele>1050</ele>
        <time>2025-11-21T09:28:06.000Z</time>
      </trkpt>
      <trkpt lat="44.47375" lon="6.20832">
        <ele>1050</ele>
        <time>2025-11-21T09:28:07.000Z</time>
      </trkpt>
      <trkpt lat="44.47374" lon="6.20833">
        <ele>1050</ele>
        <time>2025-11-21T09:28:08.000Z</time>
      </trkpt>
      <trkpt lat="44.47373" lon="6.20834">
        <ele>1049</ele>
        <time>2025-11-21T09:28:09.000Z</time>
      </trkpt>
      <trkpt lat="44.47373" lon="6.20836">
        <ele>1047</ele>
        <time>2025-11-21T09:28:10.000Z</time>
      </trkpt>
      <trkpt lat="44.47373" lon="6.20837">
        <ele>1048</ele>
        <time>2025-11-21T09:28:11.000Z</time>
      </trkpt>
      <trkpt lat="44.47373" lon="6.20838">
        <ele>1048</ele>
        <time>2025-11-21T09:28:12.000Z</time>
      </trkpt>
      <trkpt lat="44.47372" lon="6.20839">
        <ele>1047</ele>
        <time>2025-11-21T09:28:13.000Z</time>
      </trkpt>
      <trkpt lat="44.47372" lon="6.20841">
        <ele>1047</ele>
        <time>2025-11-21T09:28:14.000Z</time>
      </trkpt>
      <trkpt lat="44.47372" lon="6.20842">
        <ele>1047</ele>
        <time>2025-11-21T09:28:15.000Z</time>
      </trkpt>
      <trkpt lat="44.47372" lon="6.20843">
        <ele>1046</ele>
        <time>2025-11-21T09:28:16.000Z</time>
      </trkpt>
      <trkpt lat="44.47372" lon="6.20845">
        <ele>1046</ele>
        <time>2025-11-21T09:28:17.000Z</time>
      </trkpt>
      <trkpt lat="44.47371" lon="6.20846">
        <ele>1046</ele>
        <time>2025-11-21T09:28:18.000Z</time>
      </trkpt>
      <trkpt lat="44.47372" lon="6.20847">
        <ele>1047</ele>
        <time>2025-11-21T09:28:19.000Z</time>
      </trkpt>
      <trkpt lat="44.47373" lon="6.20848">
        <ele>1047</ele>
        <time>2025-11-21T09:28:20.000Z</time>
      </trkpt>
      <trkpt lat="44.47373" lon="6.20849">
        <ele>1046</ele>
        <time>2025-11-21T09:28:21.000Z</time>
      </trkpt>
      <trkpt lat="44.47373" lon="6.20851">
        <ele>1045</ele>
        <time>2025-11-21T09:28:22.000Z</time>
      </trkpt>
      <trkpt lat="44.47374" lon="6.20852">
        <ele>1046</ele>
        <time>2025-11-21T09:28:23.000Z</time>
      </trkpt>
      <trkpt lat="44.47373" lon="6.20852">
        <ele>1047</ele>
        <time>2025-11-21T09:28:24.000Z</time>
      </trkpt>
      <trkpt lat="44.47374" lon="6.20851">
        <ele>1046</ele>
        <time>2025-11-21T09:28:25.000Z</time>
      </trkpt>
      <trkpt lat="44.47374" lon="6.20851">
        <ele>1046</ele>
        <time>2025-11-21T09:28:26.000Z</time>
      </trkpt>
      <trkpt lat="44.47374" lon="6.20853">
        <ele>1047</ele>
        <time>2025-11-21T09:28:27.000Z</time>
      </trkpt>
      <trkpt lat="44.47374" lon="6.20854">
        <ele>1047</ele>
        <time>2025-11-21T09:28:28.000Z</time>
      </trkpt>
      <trkpt lat="44.47375" lon="6.20853">
        <ele>1046</ele>
        <time>2025-11-21T09:28:29.000Z</time>
      </trkpt>
      <trkpt lat="44.47376" lon="6.20853">
        <ele>1046</ele>
        <time>2025-11-21T09:28:30.000Z</time>
      </trkpt>
      <trkpt lat="44.47377" lon="6.20853">
        <ele>1045</ele>
        <time>2025-11-21T09:28:31.000Z</time>
      </trkpt>
      <trkpt lat="44.47377" lon="6.20853">
        <ele>1045</ele>
        <time>2025-11-21T09:28:32.000Z</time>
      </trkpt>
      <trkpt lat="44.47378" lon="6.20854">
        <ele>1046</ele>
        <time>2025-11-21T09:28:33.000Z</time>
      </trkpt>
      <trkpt lat="44.47379" lon="6.20854">
        <ele>1045</ele>
        <time>2025-11-21T09:28:34.000Z</time>
      </trkpt>
      <trkpt lat="44.47379" lon="6.20854">
        <ele>1045</ele>
        <time>2025-11-21T09:28:35.000Z</time>
      </trkpt>
      <trkpt lat="44.47379" lon="6.20854">
        <ele>1045</ele>
        <time>2025-11-21T09:28:36.000Z</time>
      </trkpt>
      <trkpt lat="44.4738" lon="6.20855">
        <ele>1046</ele>
        <time>2025-11-21T09:28:37.000Z</time>
      </trkpt>
      <trkpt lat="44.47381" lon="6.20855">
        <ele>1047</ele>
        <time>2025-11-21T09:28:38.000Z</time>
      </trkpt>
      <trkpt lat="44.47381" lon="6.20855">
        <ele>1047</ele>
        <time>2025-11-21T09:28:39.000Z</time>
      </trkpt>
      <trkpt lat="44.47382" lon="6.20856">
        <ele>1046</ele>
        <time>2025-11-21T09:28:40.000Z</time>
      </trkpt>
      <trkpt lat="44.47383" lon="6.20857">
        <ele>1046</ele>
        <time>2025-11-21T09:28:41.000Z</time>
      </trkpt>
      <trkpt lat="44.47384" lon="6.20857">
        <ele>1047</ele>
        <time>2025-11-21T09:28:42.000Z</time>
      </trkpt>
      <trkpt lat="44.47385" lon="6.20857">
        <ele>1047</ele>
        <time>2025-11-21T09:28:43.000Z</time>
      </trkpt>
      <trkpt lat="44.47386" lon="6.20857">
        <ele>1048</ele>
        <time>2025-11-21T09:28:44.000Z</time>
      </trkpt>
      <trkpt lat="44.47386" lon="6.20856">
        <ele>1048</ele>
        <time>2025-11-21T09:28:45.000Z</time>
      </trkpt>
      <trkpt lat="44.47387" lon="6.20857">
        <ele>1047</ele>
        <time>2025-11-21T09:28:46.000Z</time>
      </trkpt>
      <trkpt lat="44.47387" lon="6.20857">
        <ele>1048</ele>
        <time>2025-11-21T09:28:47.000Z</time>
      </trkpt>
      <trkpt lat="44.47387" lon="6.20857">
        <ele>1048</ele>
        <time>2025-11-21T09:28:48.000Z</time>
      </trkpt>
      <trkpt lat="44.47388" lon="6.20858">
        <ele>1047</ele>
        <time>2025-11-21T09:28:49.000Z</time>
      </trkpt>
      <trkpt lat="44.47389" lon="6.20858">
        <ele>1047</ele>
        <time>2025-11-21T09:28:50.000Z</time>
      </trkpt>
      <trkpt lat="44.4739" lon="6.20858">
        <ele>1047</ele>
        <time>2025-11-21T09:28:51.000Z</time>
      </trkpt>
      <trkpt lat="44.47391" lon="6.20858">
        <ele>1046</ele>
        <time>2025-11-21T09:28:52.000Z</time>
      </trkpt>
      <trkpt lat="44.47391" lon="6.20859">
        <ele>1046</ele>
        <time>2025-11-21T09:28:53.000Z</time>
      </trkpt>
      <trkpt lat="44.47392" lon="6.20859">
        <ele>1045</ele>
        <time>2025-11-21T09:28:54.000Z</time>
      </trkpt>
      <trkpt lat="44.47393" lon="6.20859">
        <ele>1045</ele>
        <time>2025-11-21T09:28:55.000Z</time>
      </trkpt>
      <trkpt lat="44.47394" lon="6.20859">
        <ele>1046</ele>
        <time>2025-11-21T09:28:56.000Z</time>
      </trkpt>
      <trkpt lat="44.47395" lon="6.2086">
        <ele>1046</ele>
        <time>2025-11-21T09:28:57.000Z</time>
      </trkpt>
      <trkpt lat="44.47396" lon="6.20859">
        <ele>1046</ele>
        <time>2025-11-21T09:28:58.000Z</time>
      </trkpt>
      <trkpt lat="44.47397" lon="6.20859">
        <ele>1046</ele>
        <time>2025-11-21T09:28:59.000Z</time>
      </trkpt>
      <trkpt lat="44.47398" lon="6.20859">
        <ele>1045</ele>
        <time>2025-11-21T09:29:00.000Z</time>
      </trkpt>
      <trkpt lat="44.47398" lon="6.20859">
        <ele>1045</ele>
        <time>2025-11-21T09:29:01.000Z</time>
      </trkpt>
      <trkpt lat="44.47398" lon="6.20859">
        <ele>1045</ele>
        <time>2025-11-21T09:29:02.000Z</time>
      </trkpt>
      <trkpt lat="44.47399" lon="6.20861">
        <ele>1045</ele>
        <time>2025-11-21T09:29:03.000Z</time>
      </trkpt>
      <trkpt lat="44.474" lon="6.20862">
        <ele>1044</ele>
        <time>2025-11-21T09:29:04.000Z</time>
      </trkpt>
      <trkpt lat="44.47401" lon="6.20862">
        <ele>1046</ele>
        <time>2025-11-21T09:29:05.000Z</time>
      </trkpt>
      <trkpt lat="44.47401" lon="6.20861">
        <ele>1046</ele>
        <time>2025-11-21T09:29:06.000Z</time>
      </trkpt>
      <trkpt lat="44.47402" lon="6.20862">
        <ele>1046</ele>
        <time>2025-11-21T09:29:07.000Z</time>
      </trkpt>
      <trkpt lat="44.47403" lon="6.20861">
        <ele>1047</ele>
        <time>2025-11-21T09:29:08.000Z</time>
      </trkpt>
      <trkpt lat="44.47403" lon="6.20862">
        <ele>1048</ele>
        <time>2025-11-21T09:29:09.000Z</time>
      </trkpt>
      <trkpt lat="44.47405" lon="6.20862">
        <ele>1048</ele>
        <time>2025-11-21T09:29:10.000Z</time>
      </trkpt>
      <trkpt lat="44.47405" lon="6.20863">
        <ele>1048</ele>
        <time>2025-11-21T09:29:11.000Z</time>
      </trkpt>
      <trkpt lat="44.47406" lon="6.20864">
        <ele>1049</ele>
        <time>2025-11-21T09:29:12.000Z</time>
      </trkpt>
      <trkpt lat="44.47407" lon="6.20864">
        <ele>1049</ele>
        <time>2025-11-21T09:29:13.000Z</time>
      </trkpt>
      <trkpt lat="44.47407" lon="6.20863">
        <ele>1049</ele>
        <time>2025-11-21T09:29:14.000Z</time>
      </trkpt>
      <trkpt lat="44.47408" lon="6.20863">
        <ele>1049</ele>
        <time>2025-11-21T09:29:15.000Z</time>
      </trkpt>
      <trkpt lat="44.47409" lon="6.20863">
        <ele>1051</ele>
        <time>2025-11-21T09:29:16.000Z</time>
      </trkpt>
      <trkpt lat="44.47409" lon="6.20862">
        <ele>1050</ele>
        <time>2025-11-21T09:29:17.000Z</time>
      </trkpt>
      <trkpt lat="44.4741" lon="6.20863">
        <ele>1050</ele>
        <time>2025-11-21T09:29:18.000Z</time>
      </trkpt>
      <trkpt lat="44.47411" lon="6.20863">
        <ele>1050</ele>
        <time>2025-11-21T09:29:19.000Z</time>
      </trkpt>
      <trkpt lat="44.47411" lon="6.20864">
        <ele>1051</ele>
        <time>2025-11-21T09:29:20.000Z</time>
      </trkpt>
      <trkpt lat="44.47412" lon="6.20863">
        <ele>1050</ele>
        <time>2025-11-21T09:29:21.000Z</time>
      </trkpt>
      <trkpt lat="44.47413" lon="6.20863">
        <ele>1051</ele>
        <time>2025-11-21T09:29:22.000Z</time>
      </trkpt>
      <trkpt lat="44.47413" lon="6.20863">
        <ele>1052</ele>
        <time>2025-11-21T09:29:23.000Z</time>
      </trkpt>
      <trkpt lat="44.47414" lon="6.20863">
        <ele>1052</ele>
        <time>2025-11-21T09:29:24.000Z</time>
      </trkpt>
      <trkpt lat="44.47414" lon="6.20864">
        <ele>1053</ele>
        <time>2025-11-21T09:29:25.000Z</time>
      </trkpt>
      <trkpt lat="44.47415" lon="6.20865">
        <ele>1052</ele>
        <time>2025-11-21T09:29:26.000Z</time>
      </trkpt>
      <trkpt lat="44.47416" lon="6.20865">
        <ele>1052</ele>
        <time>2025-11-21T09:29:27.000Z</time>
      </trkpt>
      <trkpt lat="44.47417" lon="6.20865">
        <ele>1053</ele>
        <time>2025-11-21T09:29:28.000Z</time>
      </trkpt>
      <trkpt lat="44.47417" lon="6.20865">
        <ele>1053</ele>
        <time>2025-11-21T09:29:29.000Z</time>
      </trkpt>
      <trkpt lat="44.47417" lon="6.20865">
        <ele>1053</ele>
        <time>2025-11-21T09:29:30.000Z</time>
      </trkpt>
      <trkpt lat="44.47418" lon="6.20865">
        <ele>1054</ele>
        <time>2025-11-21T09:29:31.000Z</time>
      </trkpt>
      <trkpt lat="44.47418" lon="6.20865">
        <ele>1054</ele>
        <time>2025-11-21T09:29:32.000Z</time>
      </trkpt>
      <trkpt lat="44.47418" lon="6.20866">
        <ele>1054</ele>
        <time>2025-11-21T09:29:33.000Z</time>
      </trkpt>
      <trkpt lat="44.47418" lon="6.20865">
        <ele>1054</ele>
        <time>2025-11-21T09:29:34.000Z</time>
      </trkpt>
      <trkpt lat="44.47418" lon="6.20865">
        <ele>1054</ele>
        <time>2025-11-21T09:29:35.000Z</time>
      </trkpt>
      <trkpt lat="44.47418" lon="6.20865">
        <ele>1054</ele>
        <time>2025-11-21T09:29:36.000Z</time>
      </trkpt>
      <trkpt lat="44.47419" lon="6.20865">
        <ele>1054</ele>
        <time>2025-11-21T09:29:37.000Z</time>
      </trkpt>
      <trkpt lat="44.4742" lon="6.20866">
        <ele>1054</ele>
        <time>2025-11-21T09:29:38.000Z</time>
      </trkpt>
      <trkpt lat="44.47421" lon="6.20867">
        <ele>1054</ele>
        <time>2025-11-21T09:29:39.000Z</time>
      </trkpt>
      <trkpt lat="44.47421" lon="6.20866">
        <ele>1053</ele>
        <time>2025-11-21T09:29:40.000Z</time>
      </trkpt>
      <trkpt lat="44.47422" lon="6.20867">
        <ele>1053</ele>
        <time>2025-11-21T09:29:41.000Z</time>
      </trkpt>
      <trkpt lat="44.47422" lon="6.20866">
        <ele>1052</ele>
        <time>2025-11-21T09:29:42.000Z</time>
      </trkpt>
      <trkpt lat="44.47423" lon="6.20865">
        <ele>1052</ele>
        <time>2025-11-21T09:29:43.000Z</time>
      </trkpt>
      <trkpt lat="44.47424" lon="6.20866">
        <ele>1052</ele>
        <time>2025-11-21T09:29:44.000Z</time>
      </trkpt>
      <trkpt lat="44.47425" lon="6.20866">
        <ele>1052</ele>
        <time>2025-11-21T09:29:45.000Z</time>
      </trkpt>
      <trkpt lat="44.47425" lon="6.20865">
        <ele>1052</ele>
        <time>2025-11-21T09:29:46.000Z</time>
      </trkpt>
      <trkpt lat="44.47425" lon="6.20864">
        <ele>1052</ele>
        <time>2025-11-21T09:29:47.000Z</time>
      </trkpt>
      <trkpt lat="44.47426" lon="6.20864">
        <ele>1052</ele>
        <time>2025-11-21T09:29:48.000Z</time>
      </trkpt>
      <trkpt lat="44.47427" lon="6.20867">
        <ele>1057</ele>
        <time>2025-11-21T09:30:48.000Z</time>
      </trkpt>
      <trkpt lat="44.47428" lon="6.20867">
        <ele>1057</ele>
        <time>2025-11-21T09:30:49.000Z</time>
      </trkpt>
      <trkpt lat="44.47428" lon="6.20866">
        <ele>1056</ele>
        <time>2025-11-21T09:30:50.000Z</time>
      </trkpt>
      <trkpt lat="44.47429" lon="6.20866">
        <ele>1060</ele>
        <time>2025-11-21T09:31:51.000Z</time>
      </trkpt>
      <trkpt lat="44.47428" lon="6.20866">
        <ele>1060</ele>
        <time>2025-11-21T09:31:52.000Z</time>
      </trkpt>
      <trkpt lat="44.47427" lon="6.20865">
        <ele>1060</ele>
        <time>2025-11-21T09:31:53.000Z</time>
      </trkpt>
      <trkpt lat="44.47426" lon="6.20864">
        <ele>1060</ele>
        <time>2025-11-21T09:31:54.000Z</time>
      </trkpt>
      <trkpt lat="44.47425" lon="6.20863">
        <ele>1061</ele>
        <time>2025-11-21T09:31:55.000Z</time>
      </trkpt>
      <trkpt lat="44.47424" lon="6.20861">
        <ele>1061</ele>
        <time>2025-11-21T09:31:56.000Z</time>
      </trkpt>
      <trkpt lat="44.47423" lon="6.2086">
        <ele>1061</ele>
        <time>2025-11-21T09:31:57.000Z</time>
      </trkpt>
      <trkpt lat="44.47422" lon="6.2086">
        <ele>1061</ele>
        <time>2025-11-21T09:31:58.000Z</time>
      </trkpt>
      <trkpt lat="44.47421" lon="6.2086">
        <ele>1061</ele>
        <time>2025-11-21T09:31:59.000Z</time>
      </trkpt>
      <trkpt lat="44.4742" lon="6.2086">
        <ele>1062</ele>
        <time>2025-11-21T09:32:00.000Z</time>
      </trkpt>
      <trkpt lat="44.47419" lon="6.20859">
        <ele>1062</ele>
        <time>2025-11-21T09:32:01.000Z</time>
      </trkpt>
      <trkpt lat="44.47418" lon="6.20858">
        <ele>1062</ele>
        <time>2025-11-21T09:32:02.000Z</time>
      </trkpt>
      <trkpt lat="44.47417" lon="6.20856">
        <ele>1062</ele>
        <time>2025-11-21T09:32:03.000Z</time>
      </trkpt>
      <trkpt lat="44.47417" lon="6.20855">
        <ele>1061</ele>
        <time>2025-11-21T09:32:04.000Z</time>
      </trkpt>
      <trkpt lat="44.47417" lon="6.20855">
        <ele>1062</ele>
        <time>2025-11-21T09:32:05.000Z</time>
      </trkpt>
      <trkpt lat="44.47417" lon="6.20855">
        <ele>1061</ele>
        <time>2025-11-21T09:32:06.000Z</time>
      </trkpt>
      <trkpt lat="44.47417" lon="6.20855">
        <ele>1061</ele>
        <time>2025-11-21T09:32:07.000Z</time>
      </trkpt>
      <trkpt lat="44.47417" lon="6.20855">
        <ele>1061</ele>
        <time>2025-11-21T09:32:08.000Z</time>
      </trkpt>
      <trkpt lat="44.47417" lon="6.20855">
        <ele>1061</ele>
        <time>2025-11-21T09:32:09.000Z</time>
      </trkpt>
      <trkpt lat="44.47417" lon="6.20855">
        <ele>1061</ele>
        <time>2025-11-21T09:32:10.000Z</time>
      </trkpt>
      <trkpt lat="44.47417" lon="6.20855">
        <ele>1061</ele>
        <time>2025-11-21T09:32:11.000Z</time>
      </trkpt>
      <trkpt lat="44.47419" lon="6.20855">
        <ele>1060</ele>
        <time>2025-11-21T09:32:12.000Z</time>
      </trkpt>
      <trkpt lat="44.47419" lon="6.20853">
        <ele>1060</ele>
        <time>2025-11-21T09:32:13.000Z</time>
      </trkpt>
      <trkpt lat="44.4742" lon="6.20853">
        <ele>1060</ele>
        <time>2025-11-21T09:32:14.000Z</time>
      </trkpt>
      <trkpt lat="44.4742" lon="6.20853">
        <ele>1059</ele>
        <time>2025-11-21T09:32:28.000Z</time>
      </trkpt>
      <trkpt lat="44.47419" lon="6.20853">
        <ele>1059</ele>
        <time>2025-11-21T09:32:29.000Z</time>
      </trkpt>
      <trkpt lat="44.47419" lon="6.20852">
        <ele>1059</ele>
        <time>2025-11-21T09:32:30.000Z</time>
      </trkpt>
      <trkpt lat="44.47419" lon="6.20851">
        <ele>1058</ele>
        <time>2025-11-21T09:32:31.000Z</time>
      </trkpt>
      <trkpt lat="44.47419" lon="6.20851">
        <ele>1059</ele>
        <time>2025-11-21T09:32:32.000Z</time>
      </trkpt>
      <trkpt lat="44.47418" lon="6.20851">
        <ele>1059</ele>
        <time>2025-11-21T09:32:33.000Z</time>
      </trkpt>
      <trkpt lat="44.47418" lon="6.2085">
        <ele>1058</ele>
        <time>2025-11-21T09:32:34.000Z</time>
      </trkpt>
      <trkpt lat="44.47418" lon="6.2085">
        <ele>1058</ele>
        <time>2025-11-21T09:32:35.000Z</time>
      </trkpt>
      <trkpt lat="44.47418" lon="6.2085">
        <ele>1058</ele>
        <time>2025-11-21T09:32:36.000Z</time>
      </trkpt>
      <trkpt lat="44.47415" lon="6.20849">
        <ele>1058</ele>
        <time>2025-11-21T09:32:37.000Z</time>
      </trkpt>
      <trkpt lat="44.47414" lon="6.20848">
        <ele>1058</ele>
        <time>2025-11-21T09:32:38.000Z</time>
      </trkpt>
      <trkpt lat="44.47414" lon="6.20846">
        <ele>1058</ele>
        <time>2025-11-21T09:32:39.000Z</time>
      </trkpt>
      <trkpt lat="44.47413" lon="6.20845">
        <ele>1057</ele>
        <time>2025-11-21T09:32:40.000Z</time>
      </trkpt>
      <trkpt lat="44.47413" lon="6.20844">
        <ele>1057</ele>
        <time>2025-11-21T09:32:41.000Z</time>
      </trkpt>
      <trkpt lat="44.47413" lon="6.20843">
        <ele>1057</ele>
        <time>2025-11-21T09:32:42.000Z</time>
      </trkpt>
      <trkpt lat="44.47412" lon="6.20843">
        <ele>1056</ele>
        <time>2025-11-21T09:32:43.000Z</time>
      </trkpt>
      <trkpt lat="44.47412" lon="6.20843">
        <ele>1056</ele>
        <time>2025-11-21T09:32:44.000Z</time>
      </trkpt>
      <trkpt lat="44.47411" lon="6.20843">
        <ele>1056</ele>
        <time>2025-11-21T09:32:45.000Z</time>
      </trkpt>
      <trkpt lat="44.4741" lon="6.20843">
        <ele>1056</ele>
        <time>2025-11-21T09:32:46.000Z</time>
      </trkpt>
      <trkpt lat="44.47409" lon="6.20842">
        <ele>1056</ele>
        <time>2025-11-21T09:32:47.000Z</time>
      </trkpt>
      <trkpt lat="44.47409" lon="6.20841">
        <ele>1056</ele>
        <time>2025-11-21T09:32:48.000Z</time>
      </trkpt>
      <trkpt lat="44.47408" lon="6.20841">
        <ele>1056</ele>
        <time>2025-11-21T09:32:49.000Z</time>
      </trkpt>
      <trkpt lat="44.47408" lon="6.20841">
        <ele>1057</ele>
        <time>2025-11-21T09:32:50.000Z</time>
      </trkpt>
      <trkpt lat="44.47408" lon="6.20839">
        <ele>1057</ele>
        <time>2025-11-21T09:32:51.000Z</time>
      </trkpt>
      <trkpt lat="44.47407" lon="6.20839">
        <ele>1057</ele>
        <time>2025-11-21T09:32:52.000Z</time>
      </trkpt>
      <trkpt lat="44.47406" lon="6.20838">
        <ele>1057</ele>
        <time>2025-11-21T09:32:53.000Z</time>
      </trkpt>
      <trkpt lat="44.47405" lon="6.20838">
        <ele>1057</ele>
        <time>2025-11-21T09:32:54.000Z</time>
      </trkpt>
      <trkpt lat="44.47405" lon="6.20839">
        <ele>1057</ele>
        <time>2025-11-21T09:32:55.000Z</time>
      </trkpt>
      <trkpt lat="44.47404" lon="6.20838">
        <ele>1057</ele>
        <time>2025-11-21T09:32:56.000Z</time>
      </trkpt>
      <trkpt lat="44.47404" lon="6.20838">
        <ele>1057</ele>
        <time>2025-11-21T09:32:57.000Z</time>
      </trkpt>
      <trkpt lat="44.47404" lon="6.20837">
        <ele>1057</ele>
        <time>2025-11-21T09:32:58.000Z</time>
      </trkpt>
      <trkpt lat="44.47404" lon="6.20836">
        <ele>1057</ele>
        <time>2025-11-21T09:32:59.000Z</time>
      </trkpt>
      <trkpt lat="44.47404" lon="6.20835">
        <ele>1058</ele>
        <time>2025-11-21T09:33:00.000Z</time>
      </trkpt>
      <trkpt lat="44.47404" lon="6.20834">
        <ele>1058</ele>
        <time>2025-11-21T09:33:01.000Z</time>
      </trkpt>
      <trkpt lat="44.47403" lon="6.20833">
        <ele>1058</ele>
        <time>2025-11-21T09:33:02.000Z</time>
      </trkpt>
      <trkpt lat="44.47403" lon="6.20832">
        <ele>1058</ele>
        <time>2025-11-21T09:33:03.000Z</time>
      </trkpt>
      <trkpt lat="44.47403" lon="6.20832">
        <ele>1058</ele>
        <time>2025-11-21T09:33:04.000Z</time>
      </trkpt>
      <trkpt lat="44.47403" lon="6.20832">
        <ele>1058</ele>
        <time>2025-11-21T09:33:05.000Z</time>
      </trkpt>
      <trkpt lat="44.47404" lon="6.20829">
        <ele>1059</ele>
        <time>2025-11-21T09:33:06.000Z</time>
      </trkpt>
      <trkpt lat="44.47404" lon="6.20828">
        <ele>1059</ele>
        <time>2025-11-21T09:33:07.000Z</time>
      </trkpt>
      <trkpt lat="44.47405" lon="6.20827">
        <ele>1059</ele>
        <time>2025-11-21T09:33:08.000Z</time>
      </trkpt>
      <trkpt lat="44.47405" lon="6.20826">
        <ele>1059</ele>
        <time>2025-11-21T09:33:09.000Z</time>
      </trkpt>
      <trkpt lat="44.47405" lon="6.20826">
        <ele>1059</ele>
        <time>2025-11-21T09:33:10.000Z</time>
      </trkpt>
      <trkpt lat="44.47406" lon="6.20826">
        <ele>1059</ele>
        <time>2025-11-21T09:33:11.000Z</time>
      </trkpt>
      <trkpt lat="44.47406" lon="6.20826">
        <ele>1059</ele>
        <time>2025-11-21T09:33:12.000Z</time>
      </trkpt>
      <trkpt lat="44.47406" lon="6.20826">
        <ele>1059</ele>
        <time>2025-11-21T09:33:13.000Z</time>
      </trkpt>
      <trkpt lat="44.47406" lon="6.20823">
        <ele>1058</ele>
        <time>2025-11-21T09:33:14.000Z</time>
      </trkpt>
      <trkpt lat="44.47406" lon="6.20822">
        <ele>1058</ele>
        <time>2025-11-21T09:33:15.000Z</time>
      </trkpt>
      <trkpt lat="44.47406" lon="6.20821">
        <ele>1058</ele>
        <time>2025-11-21T09:33:16.000Z</time>
      </trkpt>
      <trkpt lat="44.47406" lon="6.2082">
        <ele>1058</ele>
        <time>2025-11-21T09:33:17.000Z</time>
      </trkpt>
      <trkpt lat="44.47406" lon="6.20818">
        <ele>1058</ele>
        <time>2025-11-21T09:33:18.000Z</time>
      </trkpt>
      <trkpt lat="44.47407" lon="6.20818">
        <ele>1059</ele>
        <time>2025-11-21T09:33:19.000Z</time>
      </trkpt>
      <trkpt lat="44.47407" lon="6.20818">
        <ele>1059</ele>
        <time>2025-11-21T09:33:20.000Z</time>
      </trkpt>
      <trkpt lat="44.47407" lon="6.20817">
        <ele>1060</ele>
        <time>2025-11-21T09:33:21.000Z</time>
      </trkpt>
      <trkpt lat="44.47408" lon="6.20816">
        <ele>1060</ele>
        <time>2025-11-21T09:33:22.000Z</time>
      </trkpt>
      <trkpt lat="44.47408" lon="6.20814">
        <ele>1060</ele>
        <time>2025-11-21T09:33:23.000Z</time>
      </trkpt>
      <trkpt lat="44.47409" lon="6.20813">
        <ele>1060</ele>
        <time>2025-11-21T09:33:24.000Z</time>
      </trkpt>
      <trkpt lat="44.47409" lon="6.20812">
        <ele>1061</ele>
        <time>2025-11-21T09:33:25.000Z</time>
      </trkpt>
      <trkpt lat="44.47409" lon="6.20811">
        <ele>1060</ele>
        <time>2025-11-21T09:33:26.000Z</time>
      </trkpt>
      <trkpt lat="44.4741" lon="6.20811">
        <ele>1061</ele>
        <time>2025-11-21T09:33:27.000Z</time>
      </trkpt>
      <trkpt lat="44.4741" lon="6.2081">
        <ele>1060</ele>
        <time>2025-11-21T09:33:28.000Z</time>
      </trkpt>
      <trkpt lat="44.4741" lon="6.2081">
        <ele>1060</ele>
        <time>2025-11-21T09:33:29.000Z</time>
      </trkpt>
      <trkpt lat="44.4741" lon="6.2081">
        <ele>1060</ele>
        <time>2025-11-21T09:33:30.000Z</time>
      </trkpt>
      <trkpt lat="44.47408" lon="6.20808">
        <ele>1061</ele>
        <time>2025-11-21T09:33:31.000Z</time>
      </trkpt>
      <trkpt lat="44.47408" lon="6.20807">
        <ele>1061</ele>
        <time>2025-11-21T09:33:32.000Z</time>
      </trkpt>
      <trkpt lat="44.47408" lon="6.20807">
        <ele>1062</ele>
        <time>2025-11-21T09:33:33.000Z</time>
      </trkpt>
      <trkpt lat="44.47407" lon="6.20806">
        <ele>1062</ele>
        <time>2025-11-21T09:33:34.000Z</time>
      </trkpt>
      <trkpt lat="44.47407" lon="6.20806">
        <ele>1063</ele>
        <time>2025-11-21T09:33:35.000Z</time>
      </trkpt>
      <trkpt lat="44.47407" lon="6.20805">
        <ele>1063</ele>
        <time>2025-11-21T09:33:36.000Z</time>
      </trkpt>
      <trkpt lat="44.47406" lon="6.20805">
        <ele>1063</ele>
        <time>2025-11-21T09:33:37.000Z</time>
      </trkpt>
      <trkpt lat="44.47406" lon="6.20804">
        <ele>1063</ele>
        <time>2025-11-21T09:33:38.000Z</time>
      </trkpt>
      <trkpt lat="44.47406" lon="6.20803">
        <ele>1063</ele>
        <time>2025-11-21T09:33:39.000Z</time>
      </trkpt>
      <trkpt lat="44.47405" lon="6.20803">
        <ele>1065</ele>
        <time>2025-11-21T09:33:40.000Z</time>
      </trkpt>
      <trkpt lat="44.47405" lon="6.20801">
        <ele>1065</ele>
        <time>2025-11-21T09:33:41.000Z</time>
      </trkpt>
      <trkpt lat="44.47405" lon="6.20801">
        <ele>1065</ele>
        <time>2025-11-21T09:33:42.000Z</time>
      </trkpt>
      <trkpt lat="44.47405" lon="6.20801">
        <ele>1065</ele>
        <time>2025-11-21T09:33:43.000Z</time>
      </trkpt>
      <trkpt lat="44.47405" lon="6.20801">
        <ele>1065</ele>
        <time>2025-11-21T09:33:44.000Z</time>
      </trkpt>
      <trkpt lat="44.47404" lon="6.20799">
        <ele>1066</ele>
        <time>2025-11-21T09:33:45.000Z</time>
      </trkpt>
      <trkpt lat="44.47404" lon="6.20799">
        <ele>1066</ele>
        <time>2025-11-21T09:33:46.000Z</time>
      </trkpt>
      <trkpt lat="44.47403" lon="6.20798">
        <ele>1067</ele>
        <time>2025-11-21T09:33:47.000Z</time>
      </trkpt>
      <trkpt lat="44.47403" lon="6.20797">
        <ele>1067</ele>
        <time>2025-11-21T09:33:48.000Z</time>
      </trkpt>
      <trkpt lat="44.47403" lon="6.20796">
        <ele>1068</ele>
        <time>2025-11-21T09:33:49.000Z</time>
      </trkpt>
      <trkpt lat="44.47402" lon="6.20795">
        <ele>1068</ele>
        <time>2025-11-21T09:33:50.000Z</time>
      </trkpt>
      <trkpt lat="44.47402" lon="6.20794">
        <ele>1069</ele>
        <time>2025-11-21T09:33:51.000Z</time>
      </trkpt>
      <trkpt lat="44.47401" lon="6.20793">
        <ele>1069</ele>
        <time>2025-11-21T09:33:52.000Z</time>
      </trkpt>
      <trkpt lat="44.474" lon="6.20792">
        <ele>1069</ele>
        <time>2025-11-21T09:33:53.000Z</time>
      </trkpt>
      <trkpt lat="44.47398" lon="6.20793">
        <ele>1070</ele>
        <time>2025-11-21T09:33:54.000Z</time>
      </trkpt>
      <trkpt lat="44.47398" lon="6.20792">
        <ele>1070</ele>
        <time>2025-11-21T09:33:55.000Z</time>
      </trkpt>
      <trkpt lat="44.47397" lon="6.20791">
        <ele>1070</ele>
        <time>2025-11-21T09:33:56.000Z</time>
      </trkpt>
      <trkpt lat="44.47397" lon="6.20792">
        <ele>1069</ele>
        <time>2025-11-21T09:33:57.000Z</time>
      </trkpt>
      <trkpt lat="44.47396" lon="6.20792">
        <ele>1071</ele>
        <time>2025-11-21T09:33:58.000Z</time>
      </trkpt>
      <trkpt lat="44.47395" lon="6.20791">
        <ele>1070</ele>
        <time>2025-11-21T09:33:59.000Z</time>
      </trkpt>
      <trkpt lat="44.47393" lon="6.20791">
        <ele>1070</ele>
        <time>2025-11-21T09:34:00.000Z</time>
      </trkpt>
      <trkpt lat="44.47393" lon="6.2079">
        <ele>1070</ele>
        <time>2025-11-21T09:34:01.000Z</time>
      </trkpt>
      <trkpt lat="44.47393" lon="6.2079">
        <ele>1070</ele>
        <time>2025-11-21T09:34:02.000Z</time>
      </trkpt>
      <trkpt lat="44.47393" lon="6.2079">
        <ele>1070</ele>
        <time>2025-11-21T09:34:03.000Z</time>
      </trkpt>
      <trkpt lat="44.47391" lon="6.20788">
        <ele>1070</ele>
        <time>2025-11-21T09:34:04.000Z</time>
      </trkpt>
      <trkpt lat="44.47391" lon="6.20786">
        <ele>1071</ele>
        <time>2025-11-21T09:34:05.000Z</time>
      </trkpt>
      <trkpt lat="44.4739" lon="6.20786">
        <ele>1070</ele>
        <time>2025-11-21T09:34:06.000Z</time>
      </trkpt>
      <trkpt lat="44.4739" lon="6.20786">
        <ele>1070</ele>
        <time>2025-11-21T09:34:07.000Z</time>
      </trkpt>
      <trkpt lat="44.47389" lon="6.20784">
        <ele>1070</ele>
        <time>2025-11-21T09:34:08.000Z</time>
      </trkpt>
      <trkpt lat="44.47388" lon="6.20783">
        <ele>1070</ele>
        <time>2025-11-21T09:34:09.000Z</time>
      </trkpt>
      <trkpt lat="44.47388" lon="6.20783">
        <ele>1070</ele>
        <time>2025-11-21T09:34:10.000Z</time>
      </trkpt>
      <trkpt lat="44.47388" lon="6.20783">
        <ele>1070</ele>
        <time>2025-11-21T09:34:11.000Z</time>
      </trkpt>
      <trkpt lat="44.47387" lon="6.20783">
        <ele>1070</ele>
        <time>2025-11-21T09:34:12.000Z</time>
      </trkpt>
      <trkpt lat="44.47386" lon="6.20782">
        <ele>1071</ele>
        <time>2025-11-21T09:34:13.000Z</time>
      </trkpt>
      <trkpt lat="44.47385" lon="6.20782">
        <ele>1071</ele>
        <time>2025-11-21T09:34:14.000Z</time>
      </trkpt>
      <trkpt lat="44.47384" lon="6.20781">
        <ele>1071</ele>
        <time>2025-11-21T09:34:15.000Z</time>
      </trkpt>
      <trkpt lat="44.47383" lon="6.2078">
        <ele>1071</ele>
        <time>2025-11-21T09:34:16.000Z</time>
      </trkpt>
      <trkpt lat="44.47383" lon="6.2078">
        <ele>1071</ele>
        <time>2025-11-21T09:34:17.000Z</time>
      </trkpt>
      <trkpt lat="44.47383" lon="6.20779">
        <ele>1071</ele>
        <time>2025-11-21T09:34:18.000Z</time>
      </trkpt>
      <trkpt lat="44.47383" lon="6.20779">
        <ele>1071</ele>
        <time>2025-11-21T09:34:19.000Z</time>
      </trkpt>
      <trkpt lat="44.47383" lon="6.20779">
        <ele>1071</ele>
        <time>2025-11-21T09:34:20.000Z</time>
      </trkpt>
      <trkpt lat="44.47381" lon="6.20777">
        <ele>1071</ele>
        <time>2025-11-21T09:34:21.000Z</time>
      </trkpt>
      <trkpt lat="44.47381" lon="6.20777">
        <ele>1071</ele>
        <time>2025-11-21T09:34:22.000Z</time>
      </trkpt>
      <trkpt lat="44.4738" lon="6.20776">
        <ele>1071</ele>
        <time>2025-11-21T09:34:23.000Z</time>
      </trkpt>
      <trkpt lat="44.47379" lon="6.20776">
        <ele>1072</ele>
        <time>2025-11-21T09:34:24.000Z</time>
      </trkpt>
      <trkpt lat="44.47378" lon="6.20777">
        <ele>1072</ele>
        <time>2025-11-21T09:34:25.000Z</time>
      </trkpt>
      <trkpt lat="44.47377" lon="6.20776">
        <ele>1072</ele>
        <time>2025-11-21T09:34:26.000Z</time>
      </trkpt>
      <trkpt lat="44.47376" lon="6.20775">
        <ele>1073</ele>
        <time>2025-11-21T09:34:27.000Z</time>
      </trkpt>
      <trkpt lat="44.47375" lon="6.20774">
        <ele>1072</ele>
        <time>2025-11-21T09:34:28.000Z</time>
      </trkpt>
      <trkpt lat="44.47375" lon="6.20774">
        <ele>1073</ele>
        <time>2025-11-21T09:34:29.000Z</time>
      </trkpt>
      <trkpt lat="44.47375" lon="6.20774">
        <ele>1073</ele>
        <time>2025-11-21T09:34:30.000Z</time>
      </trkpt>
      <trkpt lat="44.47374" lon="6.20774">
        <ele>1074</ele>
        <time>2025-11-21T09:34:31.000Z</time>
      </trkpt>
      <trkpt lat="44.47374" lon="6.20773">
        <ele>1074</ele>
        <time>2025-11-21T09:34:32.000Z</time>
      </trkpt>
      <trkpt lat="44.47373" lon="6.20771">
        <ele>1074</ele>
        <time>2025-11-21T09:34:33.000Z</time>
      </trkpt>
      <trkpt lat="44.47373" lon="6.20772">
        <ele>1074</ele>
        <time>2025-11-21T09:34:34.000Z</time>
      </trkpt>
      <trkpt lat="44.47372" lon="6.20771">
        <ele>1074</ele>
        <time>2025-11-21T09:34:35.000Z</time>
      </trkpt>
      <trkpt lat="44.47371" lon="6.2077">
        <ele>1074</ele>
        <time>2025-11-21T09:34:36.000Z</time>
      </trkpt>
      <trkpt lat="44.4737" lon="6.20769">
        <ele>1075</ele>
        <time>2025-11-21T09:34:37.000Z</time>
      </trkpt>
      <trkpt lat="44.4737" lon="6.20769">
        <ele>1075</ele>
        <time>2025-11-21T09:34:38.000Z</time>
      </trkpt>
      <trkpt lat="44.4737" lon="6.20769">
        <ele>1075</ele>
        <time>2025-11-21T09:34:39.000Z</time>
      </trkpt>
      <trkpt lat="44.47369" lon="6.20768">
        <ele>1075</ele>
        <time>2025-11-21T09:34:40.000Z</time>
      </trkpt>
      <trkpt lat="44.47368" lon="6.20767">
        <ele>1075</ele>
        <time>2025-11-21T09:34:41.000Z</time>
      </trkpt>
      <trkpt lat="44.47367" lon="6.20767">
        <ele>1076</ele>
        <time>2025-11-21T09:34:42.000Z</time>
      </trkpt>
      <trkpt lat="44.47366" lon="6.20766">
        <ele>1076</ele>
        <time>2025-11-21T09:34:43.000Z</time>
      </trkpt>
      <trkpt lat="44.47366" lon="6.20765">
        <ele>1076</ele>
        <time>2025-11-21T09:34:44.000Z</time>
      </trkpt>
      <trkpt lat="44.47365" lon="6.20764">
        <ele>1077</ele>
        <time>2025-11-21T09:34:45.000Z</time>
      </trkpt>
      <trkpt lat="44.47363" lon="6.20763">
        <ele>1077</ele>
        <time>2025-11-21T09:34:46.000Z</time>
      </trkpt>
      <trkpt lat="44.47363" lon="6.20762">
        <ele>1078</ele>
        <time>2025-11-21T09:34:47.000Z</time>
      </trkpt>
      <trkpt lat="44.47362" lon="6.20761">
        <ele>1079</ele>
        <time>2025-11-21T09:34:48.000Z</time>
      </trkpt>
      <trkpt lat="44.47362" lon="6.2076">
        <ele>1079</ele>
        <time>2025-11-21T09:34:49.000Z</time>
      </trkpt>
      <trkpt lat="44.47362" lon="6.20759">
        <ele>1078</ele>
        <time>2025-11-21T09:34:50.000Z</time>
      </trkpt>
      <trkpt lat="44.47362" lon="6.20759">
        <ele>1078</ele>
        <time>2025-11-21T09:34:51.000Z</time>
      </trkpt>
      <trkpt lat="44.47362" lon="6.20759">
        <ele>1078</ele>
        <time>2025-11-21T09:34:52.000Z</time>
      </trkpt>
      <trkpt lat="44.47361" lon="6.20758">
        <ele>1079</ele>
        <time>2025-11-21T09:34:53.000Z</time>
      </trkpt>
      <trkpt lat="44.4736" lon="6.20758">
        <ele>1080</ele>
        <time>2025-11-21T09:34:54.000Z</time>
      </trkpt>
      <trkpt lat="44.4736" lon="6.20757">
        <ele>1079</ele>
        <time>2025-11-21T09:34:55.000Z</time>
      </trkpt>
      <trkpt lat="44.47359" lon="6.20757">
        <ele>1078</ele>
        <time>2025-11-21T09:34:56.000Z</time>
      </trkpt>
      <trkpt lat="44.47359" lon="6.20757">
        <ele>1078</ele>
        <time>2025-11-21T09:34:57.000Z</time>
      </trkpt>
      <trkpt lat="44.47359" lon="6.20756">
        <ele>1078</ele>
        <time>2025-11-21T09:34:58.000Z</time>
      </trkpt>
      <trkpt lat="44.47358" lon="6.20756">
        <ele>1078</ele>
        <time>2025-11-21T09:34:59.000Z</time>
      </trkpt>
      <trkpt lat="44.47358" lon="6.20754">
        <ele>1078</ele>
        <time>2025-11-21T09:35:00.000Z</time>
      </trkpt>
      <trkpt lat="44.47358" lon="6.20753">
        <ele>1078</ele>
        <time>2025-11-21T09:35:01.000Z</time>
      </trkpt>
      <trkpt lat="44.47358" lon="6.20753">
        <ele>1078</ele>
        <time>2025-11-21T09:35:02.000Z</time>
      </trkpt>
      <trkpt lat="44.47358" lon="6.20751">
        <ele>1078</ele>
        <time>2025-11-21T09:35:03.000Z</time>
      </trkpt>
      <trkpt lat="44.47358" lon="6.20751">
        <ele>1078</ele>
        <time>2025-11-21T09:35:04.000Z</time>
      </trkpt>
      <trkpt lat="44.47358" lon="6.20751">
        <ele>1078</ele>
        <time>2025-11-21T09:35:05.000Z</time>
      </trkpt>
      <trkpt lat="44.47357" lon="6.20748">
        <ele>1077</ele>
        <time>2025-11-21T09:35:06.000Z</time>
      </trkpt>
      <trkpt lat="44.47356" lon="6.20748">
        <ele>1077</ele>
        <time>2025-11-21T09:35:07.000Z</time>
      </trkpt>
      <trkpt lat="44.47357" lon="6.20747">
        <ele>1078</ele>
        <time>2025-11-21T09:35:08.000Z</time>
      </trkpt>
      <trkpt lat="44.47357" lon="6.20746">
        <ele>1078</ele>
        <time>2025-11-21T09:35:09.000Z</time>
      </trkpt>
      <trkpt lat="44.47357" lon="6.20746">
        <ele>1078</ele>
        <time>2025-11-21T09:35:10.000Z</time>
      </trkpt>
      <trkpt lat="44.47357" lon="6.20743">
        <ele>1078</ele>
        <time>2025-11-21T09:35:11.000Z</time>
      </trkpt>
      <trkpt lat="44.47357" lon="6.20742">
        <ele>1078</ele>
        <time>2025-11-21T09:35:12.000Z</time>
      </trkpt>
      <trkpt lat="44.47357" lon="6.20741">
        <ele>1078</ele>
        <time>2025-11-21T09:35:13.000Z</time>
      </trkpt>
      <trkpt lat="44.47357" lon="6.2074">
        <ele>1078</ele>
        <time>2025-11-21T09:35:14.000Z</time>
      </trkpt>
      <trkpt lat="44.47357" lon="6.20738">
        <ele>1078</ele>
        <time>2025-11-21T09:35:15.000Z</time>
      </trkpt>
      <trkpt lat="44.47357" lon="6.20736">
        <ele>1078</ele>
        <time>2025-11-21T09:35:16.000Z</time>
      </trkpt>
      <trkpt lat="44.47357" lon="6.20734">
        <ele>1078</ele>
        <time>2025-11-21T09:35:17.000Z</time>
      </trkpt>
      <trkpt lat="44.47357" lon="6.20734">
        <ele>1078</ele>
        <time>2025-11-21T09:35:18.000Z</time>
      </trkpt>
      <trkpt lat="44.47356" lon="6.20733">
        <ele>1078</ele>
        <time>2025-11-21T09:35:19.000Z</time>
      </trkpt>
      <trkpt lat="44.47356" lon="6.20732">
        <ele>1078</ele>
        <time>2025-11-21T09:35:20.000Z</time>
      </trkpt>
      <trkpt lat="44.47356" lon="6.20731">
        <ele>1078</ele>
        <time>2025-11-21T09:35:21.000Z</time>
      </trkpt>
      <trkpt lat="44.47356" lon="6.2073">
        <ele>1078</ele>
        <time>2025-11-21T09:35:22.000Z</time>
      </trkpt>
      <trkpt lat="44.47356" lon="6.20729">
        <ele>1078</ele>
        <time>2025-11-21T09:35:23.000Z</time>
      </trkpt>
      <trkpt lat="44.47356" lon="6.20728">
        <ele>1078</ele>
        <time>2025-11-21T09:35:24.000Z</time>
      </trkpt>
      <trkpt lat="44.47355" lon="6.20728">
        <ele>1078</ele>
        <time>2025-11-21T09:35:25.000Z</time>
      </trkpt>
      <trkpt lat="44.47356" lon="6.20727">
        <ele>1078</ele>
        <time>2025-11-21T09:35:26.000Z</time>
      </trkpt>
      <trkpt lat="44.47356" lon="6.20726">
        <ele>1078</ele>
        <time>2025-11-21T09:35:27.000Z</time>
      </trkpt>
      <trkpt lat="44.47357" lon="6.20725">
        <ele>1078</ele>
        <time>2025-11-21T09:35:28.000Z</time>
      </trkpt>
      <trkpt lat="44.47357" lon="6.20723">
        <ele>1077</ele>
        <time>2025-11-21T09:35:29.000Z</time>
      </trkpt>
      <trkpt lat="44.47356" lon="6.20723">
        <ele>1077</ele>
        <time>2025-11-21T09:35:30.000Z</time>
      </trkpt>
      <trkpt lat="44.47356" lon="6.20722">
        <ele>1077</ele>
        <time>2025-11-21T09:35:31.000Z</time>
      </trkpt>
      <trkpt lat="44.47355" lon="6.20721">
        <ele>1077</ele>
        <time>2025-11-21T09:35:32.000Z</time>
      </trkpt>
      <trkpt lat="44.47354" lon="6.2072">
        <ele>1077</ele>
        <time>2025-11-21T09:35:33.000Z</time>
      </trkpt>
      <trkpt lat="44.47354" lon="6.2072">
        <ele>1077</ele>
        <time>2025-11-21T09:35:34.000Z</time>
      </trkpt>
      <trkpt lat="44.47354" lon="6.20718">
        <ele>1077</ele>
        <time>2025-11-21T09:35:35.000Z</time>
      </trkpt>
      <trkpt lat="44.47353" lon="6.20718">
        <ele>1077</ele>
        <time>2025-11-21T09:35:36.000Z</time>
      </trkpt>
      <trkpt lat="44.47353" lon="6.20717">
        <ele>1077</ele>
        <time>2025-11-21T09:35:37.000Z</time>
      </trkpt>
      <trkpt lat="44.47353" lon="6.20717">
        <ele>1077</ele>
        <time>2025-11-21T09:35:38.000Z</time>
      </trkpt>
      <trkpt lat="44.47354" lon="6.20715">
        <ele>1076</ele>
        <time>2025-11-21T09:35:39.000Z</time>
      </trkpt>
      <trkpt lat="44.47355" lon="6.20714">
        <ele>1076</ele>
        <time>2025-11-21T09:35:40.000Z</time>
      </trkpt>
      <trkpt lat="44.47355" lon="6.20713">
        <ele>1077</ele>
        <time>2025-11-21T09:35:41.000Z</time>
      </trkpt>
      <trkpt lat="44.47355" lon="6.20712">
        <ele>1077</ele>
        <time>2025-11-21T09:35:42.000Z</time>
      </trkpt>
      <trkpt lat="44.47355" lon="6.20711">
        <ele>1077</ele>
        <time>2025-11-21T09:35:43.000Z</time>
      </trkpt>
      <trkpt lat="44.47355" lon="6.2071">
        <ele>1077</ele>
        <time>2025-11-21T09:35:44.000Z</time>
      </trkpt>
      <trkpt lat="44.47354" lon="6.20708">
        <ele>1076</ele>
        <time>2025-11-21T09:35:45.000Z</time>
      </trkpt>
      <trkpt lat="44.47354" lon="6.20708">
        <ele>1077</ele>
        <time>2025-11-21T09:35:46.000Z</time>
      </trkpt>
      <trkpt lat="44.47354" lon="6.20708">
        <ele>1077</ele>
        <time>2025-11-21T09:35:47.000Z</time>
      </trkpt>
      <trkpt lat="44.47354" lon="6.20708">
        <ele>1077</ele>
        <time>2025-11-21T09:35:48.000Z</time>
      </trkpt>
      <trkpt lat="44.47354" lon="6.20708">
        <ele>1077</ele>
        <time>2025-11-21T09:35:49.000Z</time>
      </trkpt>
      <trkpt lat="44.47354" lon="6.20708">
        <ele>1077</ele>
        <time>2025-11-21T09:35:50.000Z</time>
      </trkpt>
      <trkpt lat="44.47354" lon="6.20708">
        <ele>1077</ele>
        <time>2025-11-21T09:35:51.000Z</time>
      </trkpt>
      <trkpt lat="44.47354" lon="6.20705">
        <ele>1077</ele>
        <time>2025-11-21T09:35:52.000Z</time>
      </trkpt>
      <trkpt lat="44.47353" lon="6.20704">
        <ele>1076</ele>
        <time>2025-11-21T09:35:53.000Z</time>
      </trkpt>
      <trkpt lat="44.47354" lon="6.20702">
        <ele>1076</ele>
        <time>2025-11-21T09:35:54.000Z</time>
      </trkpt>
      <trkpt lat="44.47354" lon="6.20701">
        <ele>1077</ele>
        <time>2025-11-21T09:35:55.000Z</time>
      </trkpt>
      <trkpt lat="44.47353" lon="6.20701">
        <ele>1077</ele>
        <time>2025-11-21T09:35:56.000Z</time>
      </trkpt>
      <trkpt lat="44.47353" lon="6.20699">
        <ele>1077</ele>
        <time>2025-11-21T09:35:57.000Z</time>
      </trkpt>
      <trkpt lat="44.47353" lon="6.20699">
        <ele>1076</ele>
        <time>2025-11-21T09:35:58.000Z</time>
      </trkpt>
      <trkpt lat="44.47353" lon="6.20698">
        <ele>1077</ele>
        <time>2025-11-21T09:35:59.000Z</time>
      </trkpt>
      <trkpt lat="44.47352" lon="6.20698">
        <ele>1077</ele>
        <time>2025-11-21T09:36:00.000Z</time>
      </trkpt>
      <trkpt lat="44.47352" lon="6.20698">
        <ele>1077</ele>
        <time>2025-11-21T09:36:01.000Z</time>
      </trkpt>
      <trkpt lat="44.47352" lon="6.20698">
        <ele>1078</ele>
        <time>2025-11-21T09:36:02.000Z</time>
      </trkpt>
      <trkpt lat="44.47352" lon="6.20699">
        <ele>1078</ele>
        <time>2025-11-21T09:36:03.000Z</time>
      </trkpt>
      <trkpt lat="44.47352" lon="6.20699">
        <ele>1078</ele>
        <time>2025-11-21T09:36:04.000Z</time>
      </trkpt>
      <trkpt lat="44.47352" lon="6.20699">
        <ele>1078</ele>
        <time>2025-11-21T09:36:05.000Z</time>
      </trkpt>
      <trkpt lat="44.47352" lon="6.20701">
        <ele>1079</ele>
        <time>2025-11-21T09:36:06.000Z</time>
      </trkpt>
      <trkpt lat="44.47352" lon="6.20702">
        <ele>1079</ele>
        <time>2025-11-21T09:36:07.000Z</time>
      </trkpt>
      <trkpt lat="44.47353" lon="6.20702">
        <ele>1080</ele>
        <time>2025-11-21T09:36:08.000Z</time>
      </trkpt>
      <trkpt lat="44.47353" lon="6.20703">
        <ele>1080</ele>
        <time>2025-11-21T09:36:09.000Z</time>
      </trkpt>
      <trkpt lat="44.47353" lon="6.20703">
        <ele>1080</ele>
        <time>2025-11-21T09:36:10.000Z</time>
      </trkpt>
      <trkpt lat="44.47355" lon="6.20704">
        <ele>1081</ele>
        <time>2025-11-21T09:36:11.000Z</time>
      </trkpt>
      <trkpt lat="44.47355" lon="6.20705">
        <ele>1082</ele>
        <time>2025-11-21T09:36:12.000Z</time>
      </trkpt>
      <trkpt lat="44.47356" lon="6.20705">
        <ele>1081</ele>
        <time>2025-11-21T09:36:13.000Z</time>
      </trkpt>
      <trkpt lat="44.47356" lon="6.20706">
        <ele>1081</ele>
        <time>2025-11-21T09:36:14.000Z</time>
      </trkpt>
      <trkpt lat="44.47356" lon="6.20707">
        <ele>1081</ele>
        <time>2025-11-21T09:36:15.000Z</time>
      </trkpt>
      <trkpt lat="44.47357" lon="6.20708">
        <ele>1081</ele>
        <time>2025-11-21T09:36:16.000Z</time>
      </trkpt>
      <trkpt lat="44.47357" lon="6.20708">
        <ele>1081</ele>
        <time>2025-11-21T09:36:17.000Z</time>
      </trkpt>
      <trkpt lat="44.47357" lon="6.20708">
        <ele>1081</ele>
        <time>2025-11-21T09:36:18.000Z</time>
      </trkpt>
      <trkpt lat="44.47358" lon="6.20709">
        <ele>1081</ele>
        <time>2025-11-21T09:36:19.000Z</time>
      </trkpt>
      <trkpt lat="44.47358" lon="6.2071">
        <ele>1081</ele>
        <time>2025-11-21T09:36:20.000Z</time>
      </trkpt>
      <trkpt lat="44.47359" lon="6.20711">
        <ele>1081</ele>
        <time>2025-11-21T09:36:21.000Z</time>
      </trkpt>
      <trkpt lat="44.47359" lon="6.20712">
        <ele>1082</ele>
        <time>2025-11-21T09:36:22.000Z</time>
      </trkpt>
      <trkpt lat="44.47359" lon="6.20714">
        <ele>1082</ele>
        <time>2025-11-21T09:36:23.000Z</time>
      </trkpt>
      <trkpt lat="44.47359" lon="6.20715">
        <ele>1082</ele>
        <time>2025-11-21T09:36:24.000Z</time>
      </trkpt>
      <trkpt lat="44.4736" lon="6.20716">
        <ele>1082</ele>
        <time>2025-11-21T09:36:25.000Z</time>
      </trkpt>
      <trkpt lat="44.47361" lon="6.20717">
        <ele>1083</ele>
        <time>2025-11-21T09:36:26.000Z</time>
      </trkpt>
      <trkpt lat="44.47361" lon="6.20718">
        <ele>1084</ele>
        <time>2025-11-21T09:36:27.000Z</time>
      </trkpt>
      <trkpt lat="44.47362" lon="6.20718">
        <ele>1083</ele>
        <time>2025-11-21T09:36:28.000Z</time>
      </trkpt>
      <trkpt lat="44.47362" lon="6.2072">
        <ele>1084</ele>
        <time>2025-11-21T09:36:29.000Z</time>
      </trkpt>
      <trkpt lat="44.47362" lon="6.2072">
        <ele>1084</ele>
        <time>2025-11-21T09:36:30.000Z</time>
      </trkpt>
      <trkpt lat="44.47362" lon="6.2072">
        <ele>1084</ele>
        <time>2025-11-21T09:36:31.000Z</time>
      </trkpt>
      <trkpt lat="44.47364" lon="6.20722">
        <ele>1083</ele>
        <time>2025-11-21T09:36:32.000Z</time>
      </trkpt>
      <trkpt lat="44.47364" lon="6.20723">
        <ele>1084</ele>
        <time>2025-11-21T09:36:33.000Z</time>
      </trkpt>
      <trkpt lat="44.47365" lon="6.20723">
        <ele>1084</ele>
        <time>2025-11-21T09:36:34.000Z</time>
      </trkpt>
      <trkpt lat="44.47366" lon="6.20724">
        <ele>1085</ele>
        <time>2025-11-21T09:36:35.000Z</time>
      </trkpt>
      <trkpt lat="44.47366" lon="6.20726">
        <ele>1085</ele>
        <time>2025-11-21T09:36:36.000Z</time>
      </trkpt>
      <trkpt lat="44.47367" lon="6.20726">
        <ele>1084</ele>
        <time>2025-11-21T09:36:37.000Z</time>
      </trkpt>
      <trkpt lat="44.47367" lon="6.20726">
        <ele>1084</ele>
        <time>2025-11-21T09:36:38.000Z</time>
      </trkpt>
      <trkpt lat="44.47367" lon="6.20727">
        <ele>1084</ele>
        <time>2025-11-21T09:36:39.000Z</time>
      </trkpt>
      <trkpt lat="44.47368" lon="6.20727">
        <ele>1084</ele>
        <time>2025-11-21T09:36:40.000Z</time>
      </trkpt>
      <trkpt lat="44.47368" lon="6.20727">
        <ele>1084</ele>
        <time>2025-11-21T09:36:41.000Z</time>
      </trkpt>
      <trkpt lat="44.47368" lon="6.20727">
        <ele>1084</ele>
        <time>2025-11-21T09:36:42.000Z</time>
      </trkpt>
      <trkpt lat="44.47369" lon="6.20728">
        <ele>1084</ele>
        <time>2025-11-21T09:36:43.000Z</time>
      </trkpt>
      <trkpt lat="44.4737" lon="6.20729">
        <ele>1084</ele>
        <time>2025-11-21T09:36:44.000Z</time>
      </trkpt>
      <trkpt lat="44.4737" lon="6.20729">
        <ele>1083</ele>
        <time>2025-11-21T09:36:45.000Z</time>
      </trkpt>
      <trkpt lat="44.47371" lon="6.20731">
        <ele>1084</ele>
        <time>2025-11-21T09:36:46.000Z</time>
      </trkpt>
      <trkpt lat="44.47372" lon="6.20731">
        <ele>1084</ele>
        <time>2025-11-21T09:36:47.000Z</time>
      </trkpt>
      <trkpt lat="44.47373" lon="6.20732">
        <ele>1085</ele>
        <time>2025-11-21T09:36:48.000Z</time>
      </trkpt>
      <trkpt lat="44.47373" lon="6.20732">
        <ele>1086</ele>
        <time>2025-11-21T09:36:49.000Z</time>
      </trkpt>
      <trkpt lat="44.47374" lon="6.20732">
        <ele>1086</ele>
        <time>2025-11-21T09:36:50.000Z</time>
      </trkpt>
      <trkpt lat="44.47375" lon="6.20734">
        <ele>1086</ele>
        <time>2025-11-21T09:36:51.000Z</time>
      </trkpt>
      <trkpt lat="44.47375" lon="6.20735">
        <ele>1085</ele>
        <time>2025-11-21T09:36:52.000Z</time>
      </trkpt>
      <trkpt lat="44.47375" lon="6.20735">
        <ele>1085</ele>
        <time>2025-11-21T09:36:53.000Z</time>
      </trkpt>
      <trkpt lat="44.47377" lon="6.20736">
        <ele>1085</ele>
        <time>2025-11-21T09:36:54.000Z</time>
      </trkpt>
      <trkpt lat="44.47377" lon="6.20736">
        <ele>1084</ele>
        <time>2025-11-21T09:36:55.000Z</time>
      </trkpt>
      <trkpt lat="44.47378" lon="6.20737">
        <ele>1085</ele>
        <time>2025-11-21T09:36:56.000Z</time>
      </trkpt>
      <trkpt lat="44.47379" lon="6.20737">
        <ele>1085</ele>
        <time>2025-11-21T09:36:57.000Z</time>
      </trkpt>
      <trkpt lat="44.47379" lon="6.20738">
        <ele>1086</ele>
        <time>2025-11-21T09:36:58.000Z</time>
      </trkpt>
      <trkpt lat="44.4738" lon="6.20738">
        <ele>1086</ele>
        <time>2025-11-21T09:36:59.000Z</time>
      </trkpt>
      <trkpt lat="44.47381" lon="6.20738">
        <ele>1086</ele>
        <time>2025-11-21T09:37:00.000Z</time>
      </trkpt>
      <trkpt lat="44.47382" lon="6.20738">
        <ele>1086</ele>
        <time>2025-11-21T09:37:01.000Z</time>
      </trkpt>
      <trkpt lat="44.47382" lon="6.20738">
        <ele>1086</ele>
        <time>2025-11-21T09:37:02.000Z</time>
      </trkpt>
      <trkpt lat="44.47383" lon="6.20739">
        <ele>1086</ele>
        <time>2025-11-21T09:37:03.000Z</time>
      </trkpt>
      <trkpt lat="44.47384" lon="6.20739">
        <ele>1086</ele>
        <time>2025-11-21T09:37:04.000Z</time>
      </trkpt>
      <trkpt lat="44.47384" lon="6.20739">
        <ele>1086</ele>
        <time>2025-11-21T09:37:05.000Z</time>
      </trkpt>
      <trkpt lat="44.47385" lon="6.20739">
        <ele>1086</ele>
        <time>2025-11-21T09:37:06.000Z</time>
      </trkpt>
      <trkpt lat="44.47386" lon="6.2074">
        <ele>1087</ele>
        <time>2025-11-21T09:37:07.000Z</time>
      </trkpt>
      <trkpt lat="44.47386" lon="6.20741">
        <ele>1086</ele>
        <time>2025-11-21T09:37:08.000Z</time>
      </trkpt>
      <trkpt lat="44.47387" lon="6.20742">
        <ele>1087</ele>
        <time>2025-11-21T09:37:09.000Z</time>
      </trkpt>
      <trkpt lat="44.47388" lon="6.20743">
        <ele>1087</ele>
        <time>2025-11-21T09:37:10.000Z</time>
      </trkpt>
      <trkpt lat="44.47389" lon="6.20744">
        <ele>1088</ele>
        <time>2025-11-21T09:37:11.000Z</time>
      </trkpt>
      <trkpt lat="44.4739" lon="6.20745">
        <ele>1088</ele>
        <time>2025-11-21T09:37:12.000Z</time>
      </trkpt>
      <trkpt lat="44.47391" lon="6.20745">
        <ele>1087</ele>
        <time>2025-11-21T09:37:13.000Z</time>
      </trkpt>
      <trkpt lat="44.47392" lon="6.20746">
        <ele>1088</ele>
        <time>2025-11-21T09:37:14.000Z</time>
      </trkpt>
      <trkpt lat="44.47393" lon="6.20746">
        <ele>1088</ele>
        <time>2025-11-21T09:37:15.000Z</time>
      </trkpt>
      <trkpt lat="44.47394" lon="6.20747">
        <ele>1088</ele>
        <time>2025-11-21T09:37:16.000Z</time>
      </trkpt>
      <trkpt lat="44.47395" lon="6.20747">
        <ele>1087</ele>
        <time>2025-11-21T09:37:17.000Z</time>
      </trkpt>
      <trkpt lat="44.47395" lon="6.20747">
        <ele>1087</ele>
        <time>2025-11-21T09:37:18.000Z</time>
      </trkpt>
      <trkpt lat="44.47395" lon="6.20747">
        <ele>1087</ele>
        <time>2025-11-21T09:37:19.000Z</time>
      </trkpt>
      <trkpt lat="44.47396" lon="6.20747">
        <ele>1088</ele>
        <time>2025-11-21T09:37:20.000Z</time>
      </trkpt>
      <trkpt lat="44.47397" lon="6.20747">
        <ele>1089</ele>
        <time>2025-11-21T09:37:21.000Z</time>
      </trkpt>
      <trkpt lat="44.47397" lon="6.20747">
        <ele>1090</ele>
        <time>2025-11-21T09:37:22.000Z</time>
      </trkpt>
      <trkpt lat="44.47398" lon="6.20749">
        <ele>1089</ele>
        <time>2025-11-21T09:37:23.000Z</time>
      </trkpt>
      <trkpt lat="44.47399" lon="6.2075">
        <ele>1089</ele>
        <time>2025-11-21T09:37:24.000Z</time>
      </trkpt>
      <trkpt lat="44.474" lon="6.20751">
        <ele>1089</ele>
        <time>2025-11-21T09:37:25.000Z</time>
      </trkpt>
      <trkpt lat="44.474" lon="6.20752">
        <ele>1089</ele>
        <time>2025-11-21T09:37:26.000Z</time>
      </trkpt>
      <trkpt lat="44.47401" lon="6.20752">
        <ele>1090</ele>
        <time>2025-11-21T09:37:27.000Z</time>
      </trkpt>
      <trkpt lat="44.47402" lon="6.20752">
        <ele>1089</ele>
        <time>2025-11-21T09:37:28.000Z</time>
      </trkpt>
      <trkpt lat="44.47403" lon="6.20752">
        <ele>1090</ele>
        <time>2025-11-21T09:37:29.000Z</time>
      </trkpt>
      <trkpt lat="44.47404" lon="6.20751">
        <ele>1091</ele>
        <time>2025-11-21T09:37:30.000Z</time>
      </trkpt>
      <trkpt lat="44.47405" lon="6.2075">
        <ele>1091</ele>
        <time>2025-11-21T09:37:31.000Z</time>
      </trkpt>
      <trkpt lat="44.47406" lon="6.2075">
        <ele>1091</ele>
        <time>2025-11-21T09:37:32.000Z</time>
      </trkpt>
      <trkpt lat="44.47407" lon="6.2075">
        <ele>1091</ele>
        <time>2025-11-21T09:37:33.000Z</time>
      </trkpt>
      <trkpt lat="44.47408" lon="6.2075">
        <ele>1090</ele>
        <time>2025-11-21T09:37:34.000Z</time>
      </trkpt>
      <trkpt lat="44.47409" lon="6.2075">
        <ele>1091</ele>
        <time>2025-11-21T09:37:35.000Z</time>
      </trkpt>
      <trkpt lat="44.4741" lon="6.2075">
        <ele>1091</ele>
        <time>2025-11-21T09:37:36.000Z</time>
      </trkpt>
      <trkpt lat="44.47411" lon="6.20751">
        <ele>1091</ele>
        <time>2025-11-21T09:37:37.000Z</time>
      </trkpt>
      <trkpt lat="44.47411" lon="6.20751">
        <ele>1092</ele>
        <time>2025-11-21T09:37:38.000Z</time>
      </trkpt>
      <trkpt lat="44.47412" lon="6.20751">
        <ele>1092</ele>
        <time>2025-11-21T09:37:39.000Z</time>
      </trkpt>
      <trkpt lat="44.47412" lon="6.20751">
        <ele>1093</ele>
        <time>2025-11-21T09:37:40.000Z</time>
      </trkpt>
      <trkpt lat="44.47413" lon="6.20752">
        <ele>1092</ele>
        <time>2025-11-21T09:37:41.000Z</time>
      </trkpt>
      <trkpt lat="44.47414" lon="6.20751">
        <ele>1092</ele>
        <time>2025-11-21T09:37:42.000Z</time>
      </trkpt>
      <trkpt lat="44.47414" lon="6.20752">
        <ele>1093</ele>
        <time>2025-11-21T09:37:43.000Z</time>
      </trkpt>
      <trkpt lat="44.47415" lon="6.20752">
        <ele>1093</ele>
        <time>2025-11-21T09:37:44.000Z</time>
      </trkpt>
      <trkpt lat="44.47416" lon="6.20752">
        <ele>1093</ele>
        <time>2025-11-21T09:37:45.000Z</time>
      </trkpt>
      <trkpt lat="44.47416" lon="6.20752">
        <ele>1093</ele>
        <time>2025-11-21T09:37:46.000Z</time>
      </trkpt>
      <trkpt lat="44.47417" lon="6.20752">
        <ele>1092</ele>
        <time>2025-11-21T09:37:47.000Z</time>
      </trkpt>
      <trkpt lat="44.47418" lon="6.20752">
        <ele>1092</ele>
        <time>2025-11-21T09:37:48.000Z</time>
      </trkpt>
      <trkpt lat="44.47419" lon="6.20751">
        <ele>1092</ele>
        <time>2025-11-21T09:37:49.000Z</time>
      </trkpt>
      <trkpt lat="44.4742" lon="6.20752">
        <ele>1093</ele>
        <time>2025-11-21T09:37:50.000Z</time>
      </trkpt>
      <trkpt lat="44.47421" lon="6.20752">
        <ele>1093</ele>
        <time>2025-11-21T09:37:51.000Z</time>
      </trkpt>
      <trkpt lat="44.47422" lon="6.20753">
        <ele>1094</ele>
        <time>2025-11-21T09:37:52.000Z</time>
      </trkpt>
      <trkpt lat="44.47422" lon="6.20754">
        <ele>1094</ele>
        <time>2025-11-21T09:37:53.000Z</time>
      </trkpt>
      <trkpt lat="44.47423" lon="6.20755">
        <ele>1093</ele>
        <time>2025-11-21T09:37:54.000Z</time>
      </trkpt>
      <trkpt lat="44.47424" lon="6.20754">
        <ele>1093</ele>
        <time>2025-11-21T09:37:55.000Z</time>
      </trkpt>
      <trkpt lat="44.47424" lon="6.20754">
        <ele>1093</ele>
        <time>2025-11-21T09:37:56.000Z</time>
      </trkpt>
      <trkpt lat="44.47425" lon="6.20755">
        <ele>1094</ele>
        <time>2025-11-21T09:37:57.000Z</time>
      </trkpt>
      <trkpt lat="44.47425" lon="6.20755">
        <ele>1094</ele>
        <time>2025-11-21T09:37:58.000Z</time>
      </trkpt>
      <trkpt lat="44.47426" lon="6.20757">
        <ele>1094</ele>
        <time>2025-11-21T09:37:59.000Z</time>
      </trkpt>
      <trkpt lat="44.47426" lon="6.20758">
        <ele>1094</ele>
        <time>2025-11-21T09:38:00.000Z</time>
      </trkpt>
      <trkpt lat="44.47427" lon="6.20758">
        <ele>1095</ele>
        <time>2025-11-21T09:38:01.000Z</time>
      </trkpt>
      <trkpt lat="44.47428" lon="6.20759">
        <ele>1096</ele>
        <time>2025-11-21T09:38:02.000Z</time>
      </trkpt>
      <trkpt lat="44.47428" lon="6.20759">
        <ele>1096</ele>
        <time>2025-11-21T09:38:03.000Z</time>
      </trkpt>
      <trkpt lat="44.47429" lon="6.20759">
        <ele>1097</ele>
        <time>2025-11-21T09:38:04.000Z</time>
      </trkpt>
      <trkpt lat="44.4743" lon="6.20759">
        <ele>1097</ele>
        <time>2025-11-21T09:38:05.000Z</time>
      </trkpt>
      <trkpt lat="44.47431" lon="6.20759">
        <ele>1097</ele>
        <time>2025-11-21T09:38:06.000Z</time>
      </trkpt>
      <trkpt lat="44.47432" lon="6.20759">
        <ele>1097</ele>
        <time>2025-11-21T09:38:07.000Z</time>
      </trkpt>
      <trkpt lat="44.47432" lon="6.20759">
        <ele>1097</ele>
        <time>2025-11-21T09:38:08.000Z</time>
      </trkpt>
      <trkpt lat="44.47432" lon="6.20759">
        <ele>1098</ele>
        <time>2025-11-21T09:38:09.000Z</time>
      </trkpt>
      <trkpt lat="44.47433" lon="6.20759">
        <ele>1098</ele>
        <time>2025-11-21T09:38:10.000Z</time>
      </trkpt>
      <trkpt lat="44.47433" lon="6.20759">
        <ele>1098</ele>
        <time>2025-11-21T09:38:11.000Z</time>
      </trkpt>
      <trkpt lat="44.47433" lon="6.20759">
        <ele>1098</ele>
        <time>2025-11-21T09:38:12.000Z</time>
      </trkpt>
      <trkpt lat="44.47433" lon="6.20759">
        <ele>1098</ele>
        <time>2025-11-21T09:38:13.000Z</time>
      </trkpt>
      <trkpt lat="44.47435" lon="6.20757">
        <ele>1099</ele>
        <time>2025-11-21T09:38:14.000Z</time>
      </trkpt>
      <trkpt lat="44.47436" lon="6.20757">
        <ele>1099</ele>
        <time>2025-11-21T09:38:15.000Z</time>
      </trkpt>
      <trkpt lat="44.47437" lon="6.20756">
        <ele>1099</ele>
        <time>2025-11-21T09:38:16.000Z</time>
      </trkpt>
      <trkpt lat="44.47438" lon="6.20756">
        <ele>1099</ele>
        <time>2025-11-21T09:38:17.000Z</time>
      </trkpt>
      <trkpt lat="44.47439" lon="6.20755">
        <ele>1099</ele>
        <time>2025-11-21T09:38:18.000Z</time>
      </trkpt>
      <trkpt lat="44.4744" lon="6.20755">
        <ele>1098</ele>
        <time>2025-11-21T09:38:19.000Z</time>
      </trkpt>
      <trkpt lat="44.47441" lon="6.20756">
        <ele>1099</ele>
        <time>2025-11-21T09:38:20.000Z</time>
      </trkpt>
      <trkpt lat="44.47443" lon="6.20756">
        <ele>1099</ele>
        <time>2025-11-21T09:38:21.000Z</time>
      </trkpt>
      <trkpt lat="44.47444" lon="6.20755">
        <ele>1099</ele>
        <time>2025-11-21T09:38:22.000Z</time>
      </trkpt>
      <trkpt lat="44.47445" lon="6.20755">
        <ele>1099</ele>
        <time>2025-11-21T09:38:23.000Z</time>
      </trkpt>
      <trkpt lat="44.47446" lon="6.20755">
        <ele>1099</ele>
        <time>2025-11-21T09:38:24.000Z</time>
      </trkpt>
      <trkpt lat="44.47447" lon="6.20755">
        <ele>1099</ele>
        <time>2025-11-21T09:38:25.000Z</time>
      </trkpt>
      <trkpt lat="44.47447" lon="6.20755">
        <ele>1100</ele>
        <time>2025-11-21T09:38:26.000Z</time>
      </trkpt>
      <trkpt lat="44.47447" lon="6.20754">
        <ele>1101</ele>
        <time>2025-11-21T09:38:27.000Z</time>
      </trkpt>
      <trkpt lat="44.47448" lon="6.20754">
        <ele>1101</ele>
        <time>2025-11-21T09:38:28.000Z</time>
      </trkpt>
      <trkpt lat="44.47448" lon="6.20754">
        <ele>1101</ele>
        <time>2025-11-21T09:38:29.000Z</time>
      </trkpt>
      <trkpt lat="44.47448" lon="6.20754">
        <ele>1102</ele>
        <time>2025-11-21T09:38:30.000Z</time>
      </trkpt>
      <trkpt lat="44.47449" lon="6.20755">
        <ele>1102</ele>
        <time>2025-11-21T09:38:31.000Z</time>
      </trkpt>
      <trkpt lat="44.47449" lon="6.20756">
        <ele>1103</ele>
        <time>2025-11-21T09:38:32.000Z</time>
      </trkpt>
      <trkpt lat="44.4745" lon="6.20757">
        <ele>1104</ele>
        <time>2025-11-21T09:38:33.000Z</time>
      </trkpt>
      <trkpt lat="44.4745" lon="6.20758">
        <ele>1104</ele>
        <time>2025-11-21T09:38:34.000Z</time>
      </trkpt>
      <trkpt lat="44.47451" lon="6.20759">
        <ele>1104</ele>
        <time>2025-11-21T09:38:35.000Z</time>
      </trkpt>
      <trkpt lat="44.47451" lon="6.2076">
        <ele>1105</ele>
        <time>2025-11-21T09:38:36.000Z</time>
      </trkpt>
      <trkpt lat="44.47451" lon="6.20761">
        <ele>1105</ele>
        <time>2025-11-21T09:38:37.000Z</time>
      </trkpt>
      <trkpt lat="44.47451" lon="6.20762">
        <ele>1106</ele>
        <time>2025-11-21T09:38:38.000Z</time>
      </trkpt>
      <trkpt lat="44.47451" lon="6.20762">
        <ele>1106</ele>
        <time>2025-11-21T09:38:39.000Z</time>
      </trkpt>
      <trkpt lat="44.47451" lon="6.20763">
        <ele>1105</ele>
        <time>2025-11-21T09:38:40.000Z</time>
      </trkpt>
      <trkpt lat="44.47451" lon="6.20763">
        <ele>1104</ele>
        <time>2025-11-21T09:38:41.000Z</time>
      </trkpt>
      <trkpt lat="44.47452" lon="6.20765">
        <ele>1103</ele>
        <time>2025-11-21T09:38:42.000Z</time>
      </trkpt>
      <trkpt lat="44.47452" lon="6.20766">
        <ele>1103</ele>
        <time>2025-11-21T09:38:43.000Z</time>
      </trkpt>
      <trkpt lat="44.47453" lon="6.20767">
        <ele>1103</ele>
        <time>2025-11-21T09:38:44.000Z</time>
      </trkpt>
      <trkpt lat="44.47453" lon="6.20768">
        <ele>1103</ele>
        <time>2025-11-21T09:38:45.000Z</time>
      </trkpt>
      <trkpt lat="44.47453" lon="6.20768">
        <ele>1103</ele>
        <time>2025-11-21T09:38:46.000Z</time>
      </trkpt>
      <trkpt lat="44.47453" lon="6.20768">
        <ele>1103</ele>
        <time>2025-11-21T09:38:47.000Z</time>
      </trkpt>
      <trkpt lat="44.47455" lon="6.20769">
        <ele>1104</ele>
        <time>2025-11-21T09:38:48.000Z</time>
      </trkpt>
      <trkpt lat="44.47455" lon="6.2077">
        <ele>1103</ele>
        <time>2025-11-21T09:38:49.000Z</time>
      </trkpt>
      <trkpt lat="44.47456" lon="6.2077">
        <ele>1103</ele>
        <time>2025-11-21T09:38:50.000Z</time>
      </trkpt>
      <trkpt lat="44.47456" lon="6.20771">
        <ele>1103</ele>
        <time>2025-11-21T09:38:51.000Z</time>
      </trkpt>
      <trkpt lat="44.47456" lon="6.20771">
        <ele>1102</ele>
        <time>2025-11-21T09:38:52.000Z</time>
      </trkpt>
      <trkpt lat="44.47457" lon="6.20771">
        <ele>1102</ele>
        <time>2025-11-21T09:38:53.000Z</time>
      </trkpt>
      <trkpt lat="44.47458" lon="6.20772">
        <ele>1102</ele>
        <time>2025-11-21T09:38:54.000Z</time>
      </trkpt>
      <trkpt lat="44.47459" lon="6.20772">
        <ele>1103</ele>
        <time>2025-11-21T09:38:55.000Z</time>
      </trkpt>
      <trkpt lat="44.47459" lon="6.20773">
        <ele>1103</ele>
        <time>2025-11-21T09:38:56.000Z</time>
      </trkpt>
      <trkpt lat="44.4746" lon="6.20773">
        <ele>1103</ele>
        <time>2025-11-21T09:38:57.000Z</time>
      </trkpt>
      <trkpt lat="44.4746" lon="6.20773">
        <ele>1104</ele>
        <time>2025-11-21T09:38:58.000Z</time>
      </trkpt>
      <trkpt lat="44.47461" lon="6.20773">
        <ele>1103</ele>
        <time>2025-11-21T09:38:59.000Z</time>
      </trkpt>
      <trkpt lat="44.47461" lon="6.20772">
        <ele>1103</ele>
        <time>2025-11-21T09:39:00.000Z</time>
      </trkpt>
      <trkpt lat="44.47462" lon="6.20772">
        <ele>1103</ele>
        <time>2025-11-21T09:39:01.000Z</time>
      </trkpt>
      <trkpt lat="44.47464" lon="6.20773">
        <ele>1103</ele>
        <time>2025-11-21T09:39:02.000Z</time>
      </trkpt>
      <trkpt lat="44.47465" lon="6.20773">
        <ele>1103</ele>
        <time>2025-11-21T09:39:03.000Z</time>
      </trkpt>
      <trkpt lat="44.47465" lon="6.20773">
        <ele>1103</ele>
        <time>2025-11-21T09:39:04.000Z</time>
      </trkpt>
      <trkpt lat="44.47465" lon="6.20773">
        <ele>1103</ele>
        <time>2025-11-21T09:39:05.000Z</time>
      </trkpt>
      <trkpt lat="44.47465" lon="6.20773">
        <ele>1103</ele>
        <time>2025-11-21T09:39:06.000Z</time>
      </trkpt>
      <trkpt lat="44.47467" lon="6.20771">
        <ele>1101</ele>
        <time>2025-11-21T09:39:07.000Z</time>
      </trkpt>
      <trkpt lat="44.47467" lon="6.20771">
        <ele>1102</ele>
        <time>2025-11-21T09:39:08.000Z</time>
      </trkpt>
      <trkpt lat="44.47469" lon="6.20771">
        <ele>1102</ele>
        <time>2025-11-21T09:39:09.000Z</time>
      </trkpt>
      <trkpt lat="44.47469" lon="6.20772">
        <ele>1103</ele>
        <time>2025-11-21T09:39:10.000Z</time>
      </trkpt>
      <trkpt lat="44.47469" lon="6.20771">
        <ele>1103</ele>
        <time>2025-11-21T09:39:11.000Z</time>
      </trkpt>
      <trkpt lat="44.47474" lon="6.20769">
        <ele>1103</ele>
        <time>2025-11-21T09:39:31.000Z</time>
      </trkpt>
      <trkpt lat="44.47474" lon="6.20768">
        <ele>1103</ele>
        <time>2025-11-21T09:39:32.000Z</time>
      </trkpt>
      <trkpt lat="44.47475" lon="6.20767">
        <ele>1103</ele>
        <time>2025-11-21T09:39:33.000Z</time>
      </trkpt>
      <trkpt lat="44.47475" lon="6.20767">
        <ele>1103</ele>
        <time>2025-11-21T09:39:34.000Z</time>
      </trkpt>
      <trkpt lat="44.47476" lon="6.20766">
        <ele>1103</ele>
        <time>2025-11-21T09:39:35.000Z</time>
      </trkpt>
      <trkpt lat="44.47477" lon="6.20766">
        <ele>1103</ele>
        <time>2025-11-21T09:39:36.000Z</time>
      </trkpt>
      <trkpt lat="44.47478" lon="6.20766">
        <ele>1103</ele>
        <time>2025-11-21T09:39:37.000Z</time>
      </trkpt>
      <trkpt lat="44.47478" lon="6.20765">
        <ele>1103</ele>
        <time>2025-11-21T09:39:38.000Z</time>
      </trkpt>
      <trkpt lat="44.4748" lon="6.20765">
        <ele>1104</ele>
        <time>2025-11-21T09:39:39.000Z</time>
      </trkpt>
      <trkpt lat="44.4748" lon="6.20764">
        <ele>1104</ele>
        <time>2025-11-21T09:39:40.000Z</time>
      </trkpt>
      <trkpt lat="44.47482" lon="6.20762">
        <ele>1105</ele>
        <time>2025-11-21T09:39:41.000Z</time>
      </trkpt>
      <trkpt lat="44.47477" lon="6.20759">
        <ele>1107</ele>
        <time>2025-11-21T09:39:59.000Z</time>
      </trkpt>
      <trkpt lat="44.47477" lon="6.20759">
        <ele>1108</ele>
        <time>2025-11-21T09:40:00.000Z</time>
      </trkpt>
      <trkpt lat="44.47475" lon="6.20759">
        <ele>1108</ele>
        <time>2025-11-21T09:40:01.000Z</time>
      </trkpt>
      <trkpt lat="44.47475" lon="6.20759">
        <ele>1108</ele>
        <time>2025-11-21T09:40:02.000Z</time>
      </trkpt>
      <trkpt lat="44.47475" lon="6.20759">
        <ele>1108</ele>
        <time>2025-11-21T09:40:03.000Z</time>
      </trkpt>
      <trkpt lat="44.47474" lon="6.20759">
        <ele>1109</ele>
        <time>2025-11-21T09:40:04.000Z</time>
      </trkpt>
      <trkpt lat="44.47473" lon="6.20758">
        <ele>1109</ele>
        <time>2025-11-21T09:40:05.000Z</time>
      </trkpt>
      <trkpt lat="44.47472" lon="6.20758">
        <ele>1110</ele>
        <time>2025-11-21T09:40:06.000Z</time>
      </trkpt>
      <trkpt lat="44.47472" lon="6.20757">
        <ele>1110</ele>
        <time>2025-11-21T09:40:07.000Z</time>
      </trkpt>
      <trkpt lat="44.47471" lon="6.20757">
        <ele>1110</ele>
        <time>2025-11-21T09:40:08.000Z</time>
      </trkpt>
      <trkpt lat="44.47471" lon="6.20756">
        <ele>1111</ele>
        <time>2025-11-21T09:40:09.000Z</time>
      </trkpt>
      <trkpt lat="44.4747" lon="6.20756">
        <ele>1111</ele>
        <time>2025-11-21T09:40:10.000Z</time>
      </trkpt>
      <trkpt lat="44.4747" lon="6.20756">
        <ele>1111</ele>
        <time>2025-11-21T09:40:11.000Z</time>
      </trkpt>
      <trkpt lat="44.47469" lon="6.20755">
        <ele>1110</ele>
        <time>2025-11-21T09:40:12.000Z</time>
      </trkpt>
      <trkpt lat="44.47468" lon="6.20755">
        <ele>1110</ele>
        <time>2025-11-21T09:40:13.000Z</time>
      </trkpt>
      <trkpt lat="44.47468" lon="6.20754">
        <ele>1109</ele>
        <time>2025-11-21T09:40:14.000Z</time>
      </trkpt>
      <trkpt lat="44.47467" lon="6.20754">
        <ele>1110</ele>
        <time>2025-11-21T09:40:15.000Z</time>
      </trkpt>
      <trkpt lat="44.47467" lon="6.20754">
        <ele>1110</ele>
        <time>2025-11-21T09:40:16.000Z</time>
      </trkpt>
      <trkpt lat="44.47467" lon="6.20754">
        <ele>1110</ele>
        <time>2025-11-21T09:40:17.000Z</time>
      </trkpt>
      <trkpt lat="44.47468" lon="6.20752">
        <ele>1110</ele>
        <time>2025-11-21T09:40:18.000Z</time>
      </trkpt>
      <trkpt lat="44.47468" lon="6.20752">
        <ele>1110</ele>
        <time>2025-11-21T09:40:19.000Z</time>
      </trkpt>
      <trkpt lat="44.47468" lon="6.20752">
        <ele>1110</ele>
        <time>2025-11-21T09:40:20.000Z</time>
      </trkpt>
      <trkpt lat="44.47468" lon="6.20751">
        <ele>1110</ele>
        <time>2025-11-21T09:40:21.000Z</time>
      </trkpt>
      <trkpt lat="44.47468" lon="6.20751">
        <ele>1110</ele>
        <time>2025-11-21T09:40:22.000Z</time>
      </trkpt>
      <trkpt lat="44.47468" lon="6.20751">
        <ele>1110</ele>
        <time>2025-11-21T09:40:23.000Z</time>
      </trkpt>
      <trkpt lat="44.47469" lon="6.2075">
        <ele>1110</ele>
        <time>2025-11-21T09:40:24.000Z</time>
      </trkpt>
      <trkpt lat="44.47469" lon="6.20749">
        <ele>1111</ele>
        <time>2025-11-21T09:40:25.000Z</time>
      </trkpt>
      <trkpt lat="44.47469" lon="6.20748">
        <ele>1111</ele>
        <time>2025-11-21T09:40:26.000Z</time>
      </trkpt>
      <trkpt lat="44.47469" lon="6.20747">
        <ele>1112</ele>
        <time>2025-11-21T09:40:27.000Z</time>
      </trkpt>
      <trkpt lat="44.4747" lon="6.20746">
        <ele>1111</ele>
        <time>2025-11-21T09:40:28.000Z</time>
      </trkpt>
      <trkpt lat="44.4747" lon="6.20746">
        <ele>1111</ele>
        <time>2025-11-21T09:40:29.000Z</time>
      </trkpt>
      <trkpt lat="44.4747" lon="6.20746">
        <ele>1111</ele>
        <time>2025-11-21T09:40:30.000Z</time>
      </trkpt>
      <trkpt lat="44.4747" lon="6.20744">
        <ele>1113</ele>
        <time>2025-11-21T09:40:31.000Z</time>
      </trkpt>
      <trkpt lat="44.4747" lon="6.20743">
        <ele>1113</ele>
        <time>2025-11-21T09:40:32.000Z</time>
      </trkpt>
      <trkpt lat="44.4747" lon="6.20743">
        <ele>1112</ele>
        <time>2025-11-21T09:40:33.000Z</time>
      </trkpt>
      <trkpt lat="44.47469" lon="6.20743">
        <ele>1112</ele>
        <time>2025-11-21T09:40:34.000Z</time>
      </trkpt>
      <trkpt lat="44.47468" lon="6.20742">
        <ele>1112</ele>
        <time>2025-11-21T09:40:35.000Z</time>
      </trkpt>
      <trkpt lat="44.47467" lon="6.20742">
        <ele>1112</ele>
        <time>2025-11-21T09:40:36.000Z</time>
      </trkpt>
      <trkpt lat="44.47466" lon="6.20741">
        <ele>1112</ele>
        <time>2025-11-21T09:40:37.000Z</time>
      </trkpt>
      <trkpt lat="44.47466" lon="6.2074">
        <ele>1113</ele>
        <time>2025-11-21T09:40:38.000Z</time>
      </trkpt>
      <trkpt lat="44.47465" lon="6.20739">
        <ele>1113</ele>
        <time>2025-11-21T09:40:39.000Z</time>
      </trkpt>
      <trkpt lat="44.47464" lon="6.20738">
        <ele>1112</ele>
        <time>2025-11-21T09:40:40.000Z</time>
      </trkpt>
      <trkpt lat="44.47464" lon="6.20738">
        <ele>1112</ele>
        <time>2025-11-21T09:40:41.000Z</time>
      </trkpt>
      <trkpt lat="44.47463" lon="6.20737">
        <ele>1112</ele>
        <time>2025-11-21T09:40:42.000Z</time>
      </trkpt>
      <trkpt lat="44.47462" lon="6.20736">
        <ele>1112</ele>
        <time>2025-11-21T09:40:43.000Z</time>
      </trkpt>
      <trkpt lat="44.47461" lon="6.20736">
        <ele>1112</ele>
        <time>2025-11-21T09:40:44.000Z</time>
      </trkpt>
      <trkpt lat="44.47461" lon="6.20736">
        <ele>1113</ele>
        <time>2025-11-21T09:40:45.000Z</time>
      </trkpt>
      <trkpt lat="44.47461" lon="6.20736">
        <ele>1113</ele>
        <time>2025-11-21T09:40:46.000Z</time>
      </trkpt>
      <trkpt lat="44.4746" lon="6.20735">
        <ele>1113</ele>
        <time>2025-11-21T09:40:47.000Z</time>
      </trkpt>
      <trkpt lat="44.4746" lon="6.20735">
        <ele>1114</ele>
        <time>2025-11-21T09:40:48.000Z</time>
      </trkpt>
      <trkpt lat="44.4746" lon="6.20735">
        <ele>1114</ele>
        <time>2025-11-21T09:40:49.000Z</time>
      </trkpt>
      <trkpt lat="44.4746" lon="6.20735">
        <ele>1114</ele>
        <time>2025-11-21T09:40:50.000Z</time>
      </trkpt>
      <trkpt lat="44.47459" lon="6.20734">
        <ele>1114</ele>
        <time>2025-11-21T09:40:51.000Z</time>
      </trkpt>
      <trkpt lat="44.47458" lon="6.20734">
        <ele>1114</ele>
        <time>2025-11-21T09:40:52.000Z</time>
      </trkpt>
      <trkpt lat="44.47456" lon="6.20734">
        <ele>1113</ele>
        <time>2025-11-21T09:40:53.000Z</time>
      </trkpt>
      <trkpt lat="44.47456" lon="6.20734">
        <ele>1113</ele>
        <time>2025-11-21T09:40:54.000Z</time>
      </trkpt>
      <trkpt lat="44.47455" lon="6.20734">
        <ele>1113</ele>
        <time>2025-11-21T09:40:55.000Z</time>
      </trkpt>
      <trkpt lat="44.47454" lon="6.20733">
        <ele>1113</ele>
        <time>2025-11-21T09:40:56.000Z</time>
      </trkpt>
      <trkpt lat="44.47453" lon="6.20733">
        <ele>1113</ele>
        <time>2025-11-21T09:40:57.000Z</time>
      </trkpt>
      <trkpt lat="44.47452" lon="6.20732">
        <ele>1114</ele>
        <time>2025-11-21T09:40:58.000Z</time>
      </trkpt>
      <trkpt lat="44.47452" lon="6.20731">
        <ele>1114</ele>
        <time>2025-11-21T09:40:59.000Z</time>
      </trkpt>
      <trkpt lat="44.47451" lon="6.20731">
        <ele>1114</ele>
        <time>2025-11-21T09:41:00.000Z</time>
      </trkpt>
      <trkpt lat="44.4745" lon="6.20731">
        <ele>1113</ele>
        <time>2025-11-21T09:41:01.000Z</time>
      </trkpt>
      <trkpt lat="44.47449" lon="6.2073">
        <ele>1113</ele>
        <time>2025-11-21T09:41:02.000Z</time>
      </trkpt>
      <trkpt lat="44.47448" lon="6.2073">
        <ele>1113</ele>
        <time>2025-11-21T09:41:03.000Z</time>
      </trkpt>
      <trkpt lat="44.47447" lon="6.2073">
        <ele>1114</ele>
        <time>2025-11-21T09:41:04.000Z</time>
      </trkpt>
      <trkpt lat="44.47447" lon="6.2073">
        <ele>1115</ele>
        <time>2025-11-21T09:41:05.000Z</time>
      </trkpt>
      <trkpt lat="44.47446" lon="6.2073">
        <ele>1115</ele>
        <time>2025-11-21T09:41:06.000Z</time>
      </trkpt>
      <trkpt lat="44.47446" lon="6.2073">
        <ele>1115</ele>
        <time>2025-11-21T09:41:07.000Z</time>
      </trkpt>
      <trkpt lat="44.47445" lon="6.20729">
        <ele>1115</ele>
        <time>2025-11-21T09:41:08.000Z</time>
      </trkpt>
      <trkpt lat="44.47445" lon="6.20729">
        <ele>1116</ele>
        <time>2025-11-21T09:41:09.000Z</time>
      </trkpt>
      <trkpt lat="44.47444" lon="6.20728">
        <ele>1116</ele>
        <time>2025-11-21T09:41:10.000Z</time>
      </trkpt>
      <trkpt lat="44.47443" lon="6.20727">
        <ele>1115</ele>
        <time>2025-11-21T09:41:11.000Z</time>
      </trkpt>
      <trkpt lat="44.47443" lon="6.20726">
        <ele>1115</ele>
        <time>2025-11-21T09:41:12.000Z</time>
      </trkpt>
      <trkpt lat="44.47442" lon="6.20726">
        <ele>1115</ele>
        <time>2025-11-21T09:41:13.000Z</time>
      </trkpt>
      <trkpt lat="44.47441" lon="6.20725">
        <ele>1115</ele>
        <time>2025-11-21T09:41:14.000Z</time>
      </trkpt>
      <trkpt lat="44.47441" lon="6.20724">
        <ele>1114</ele>
        <time>2025-11-21T09:41:15.000Z</time>
      </trkpt>
      <trkpt lat="44.4744" lon="6.20723">
        <ele>1115</ele>
        <time>2025-11-21T09:41:16.000Z</time>
      </trkpt>
      <trkpt lat="44.4744" lon="6.20721">
        <ele>1115</ele>
        <time>2025-11-21T09:41:17.000Z</time>
      </trkpt>
      <trkpt lat="44.47439" lon="6.2072">
        <ele>1114</ele>
        <time>2025-11-21T09:41:18.000Z</time>
      </trkpt>
      <trkpt lat="44.47438" lon="6.2072">
        <ele>1114</ele>
        <time>2025-11-21T09:41:19.000Z</time>
      </trkpt>
      <trkpt lat="44.47437" lon="6.2072">
        <ele>1114</ele>
        <time>2025-11-21T09:41:20.000Z</time>
      </trkpt>
      <trkpt lat="44.47437" lon="6.2072">
        <ele>1115</ele>
        <time>2025-11-21T09:41:21.000Z</time>
      </trkpt>
      <trkpt lat="44.47436" lon="6.2072">
        <ele>1115</ele>
        <time>2025-11-21T09:41:22.000Z</time>
      </trkpt>
      <trkpt lat="44.47436" lon="6.2072">
        <ele>1115</ele>
        <time>2025-11-21T09:41:23.000Z</time>
      </trkpt>
      <trkpt lat="44.47436" lon="6.2072">
        <ele>1115</ele>
        <time>2025-11-21T09:41:24.000Z</time>
      </trkpt>
      <trkpt lat="44.47434" lon="6.20719">
        <ele>1116</ele>
        <time>2025-11-21T09:41:25.000Z</time>
      </trkpt>
      <trkpt lat="44.47433" lon="6.20718">
        <ele>1116</ele>
        <time>2025-11-21T09:41:26.000Z</time>
      </trkpt>
      <trkpt lat="44.47433" lon="6.20716">
        <ele>1116</ele>
        <time>2025-11-21T09:41:27.000Z</time>
      </trkpt>
      <trkpt lat="44.47432" lon="6.20716">
        <ele>1116</ele>
        <time>2025-11-21T09:41:28.000Z</time>
      </trkpt>
      <trkpt lat="44.47431" lon="6.20715">
        <ele>1117</ele>
        <time>2025-11-21T09:41:29.000Z</time>
      </trkpt>
      <trkpt lat="44.4743" lon="6.20714">
        <ele>1117</ele>
        <time>2025-11-21T09:41:30.000Z</time>
      </trkpt>
      <trkpt lat="44.47429" lon="6.20713">
        <ele>1118</ele>
        <time>2025-11-21T09:41:31.000Z</time>
      </trkpt>
      <trkpt lat="44.47429" lon="6.20711">
        <ele>1118</ele>
        <time>2025-11-21T09:41:32.000Z</time>
      </trkpt>
      <trkpt lat="44.47428" lon="6.20709">
        <ele>1117</ele>
        <time>2025-11-21T09:41:33.000Z</time>
      </trkpt>
      <trkpt lat="44.47428" lon="6.20708">
        <ele>1117</ele>
        <time>2025-11-21T09:41:34.000Z</time>
      </trkpt>
      <trkpt lat="44.47427" lon="6.20707">
        <ele>1117</ele>
        <time>2025-11-21T09:41:35.000Z</time>
      </trkpt>
      <trkpt lat="44.47427" lon="6.20707">
        <ele>1117</ele>
        <time>2025-11-21T09:41:36.000Z</time>
      </trkpt>
      <trkpt lat="44.47427" lon="6.20707">
        <ele>1117</ele>
        <time>2025-11-21T09:41:37.000Z</time>
      </trkpt>
      <trkpt lat="44.47427" lon="6.20707">
        <ele>1117</ele>
        <time>2025-11-21T09:41:38.000Z</time>
      </trkpt>
      <trkpt lat="44.47426" lon="6.20705">
        <ele>1117</ele>
        <time>2025-11-21T09:41:39.000Z</time>
      </trkpt>
      <trkpt lat="44.47426" lon="6.20704">
        <ele>1116</ele>
        <time>2025-11-21T09:41:40.000Z</time>
      </trkpt>
      <trkpt lat="44.47424" lon="6.20703">
        <ele>1117</ele>
        <time>2025-11-21T09:41:41.000Z</time>
      </trkpt>
      <trkpt lat="44.47423" lon="6.20701">
        <ele>1117</ele>
        <time>2025-11-21T09:41:42.000Z</time>
      </trkpt>
      <trkpt lat="44.47423" lon="6.207">
        <ele>1117</ele>
        <time>2025-11-21T09:41:43.000Z</time>
      </trkpt>
      <trkpt lat="44.47423" lon="6.20699">
        <ele>1117</ele>
        <time>2025-11-21T09:41:44.000Z</time>
      </trkpt>
      <trkpt lat="44.47422" lon="6.20699">
        <ele>1117</ele>
        <time>2025-11-21T09:41:45.000Z</time>
      </trkpt>
      <trkpt lat="44.47422" lon="6.20698">
        <ele>1118</ele>
        <time>2025-11-21T09:41:46.000Z</time>
      </trkpt>
      <trkpt lat="44.47421" lon="6.20697">
        <ele>1117</ele>
        <time>2025-11-21T09:41:47.000Z</time>
      </trkpt>
      <trkpt lat="44.47421" lon="6.20697">
        <ele>1117</ele>
        <time>2025-11-21T09:41:48.000Z</time>
      </trkpt>
      <trkpt lat="44.47421" lon="6.20695">
        <ele>1117</ele>
        <time>2025-11-21T09:41:49.000Z</time>
      </trkpt>
      <trkpt lat="44.47421" lon="6.20694">
        <ele>1117</ele>
        <time>2025-11-21T09:41:50.000Z</time>
      </trkpt>
      <trkpt lat="44.47422" lon="6.20693">
        <ele>1116</ele>
        <time>2025-11-21T09:41:51.000Z</time>
      </trkpt>
      <trkpt lat="44.47421" lon="6.20692">
        <ele>1116</ele>
        <time>2025-11-21T09:41:52.000Z</time>
      </trkpt>
      <trkpt lat="44.47421" lon="6.20692">
        <ele>1116</ele>
        <time>2025-11-21T09:41:53.000Z</time>
      </trkpt>
      <trkpt lat="44.47421" lon="6.20692">
        <ele>1116</ele>
        <time>2025-11-21T09:41:54.000Z</time>
      </trkpt>
      <trkpt lat="44.47422" lon="6.2069">
        <ele>1116</ele>
        <time>2025-11-21T09:41:55.000Z</time>
      </trkpt>
      <trkpt lat="44.47423" lon="6.20688">
        <ele>1116</ele>
        <time>2025-11-21T09:41:56.000Z</time>
      </trkpt>
      <trkpt lat="44.47423" lon="6.20687">
        <ele>1116</ele>
        <time>2025-11-21T09:41:57.000Z</time>
      </trkpt>
      <trkpt lat="44.47422" lon="6.20686">
        <ele>1116</ele>
        <time>2025-11-21T09:41:58.000Z</time>
      </trkpt>
      <trkpt lat="44.47422" lon="6.20685">
        <ele>1116</ele>
        <time>2025-11-21T09:41:59.000Z</time>
      </trkpt>
      <trkpt lat="44.47421" lon="6.20684">
        <ele>1116</ele>
        <time>2025-11-21T09:42:00.000Z</time>
      </trkpt>
      <trkpt lat="44.47421" lon="6.20683">
        <ele>1116</ele>
        <time>2025-11-21T09:42:01.000Z</time>
      </trkpt>
      <trkpt lat="44.47421" lon="6.20683">
        <ele>1116</ele>
        <time>2025-11-21T09:42:02.000Z</time>
      </trkpt>
      <trkpt lat="44.47421" lon="6.20683">
        <ele>1116</ele>
        <time>2025-11-21T09:42:03.000Z</time>
      </trkpt>
      <trkpt lat="44.47421" lon="6.20681">
        <ele>1116</ele>
        <time>2025-11-21T09:42:04.000Z</time>
      </trkpt>
      <trkpt lat="44.4742" lon="6.20681">
        <ele>1116</ele>
        <time>2025-11-21T09:42:05.000Z</time>
      </trkpt>
      <trkpt lat="44.4742" lon="6.20679">
        <ele>1115</ele>
        <time>2025-11-21T09:42:06.000Z</time>
      </trkpt>
      <trkpt lat="44.47419" lon="6.20678">
        <ele>1115</ele>
        <time>2025-11-21T09:42:07.000Z</time>
      </trkpt>
      <trkpt lat="44.47418" lon="6.20677">
        <ele>1115</ele>
        <time>2025-11-21T09:42:08.000Z</time>
      </trkpt>
      <trkpt lat="44.47418" lon="6.20676">
        <ele>1115</ele>
        <time>2025-11-21T09:42:09.000Z</time>
      </trkpt>
      <trkpt lat="44.47418" lon="6.20675">
        <ele>1115</ele>
        <time>2025-11-21T09:42:10.000Z</time>
      </trkpt>
      <trkpt lat="44.47418" lon="6.20675">
        <ele>1115</ele>
        <time>2025-11-21T09:42:11.000Z</time>
      </trkpt>
      <trkpt lat="44.47418" lon="6.20675">
        <ele>1115</ele>
        <time>2025-11-21T09:42:12.000Z</time>
      </trkpt>
      <trkpt lat="44.47417" lon="6.20672">
        <ele>1116</ele>
        <time>2025-11-21T09:42:13.000Z</time>
      </trkpt>
      <trkpt lat="44.47417" lon="6.2067">
        <ele>1116</ele>
        <time>2025-11-21T09:42:14.000Z</time>
      </trkpt>
      <trkpt lat="44.47417" lon="6.20669">
        <ele>1116</ele>
        <time>2025-11-21T09:42:15.000Z</time>
      </trkpt>
      <trkpt lat="44.47417" lon="6.20668">
        <ele>1116</ele>
        <time>2025-11-21T09:42:16.000Z</time>
      </trkpt>
      <trkpt lat="44.47417" lon="6.20667">
        <ele>1116</ele>
        <time>2025-11-21T09:42:17.000Z</time>
      </trkpt>
      <trkpt lat="44.47417" lon="6.20667">
        <ele>1116</ele>
        <time>2025-11-21T09:42:18.000Z</time>
      </trkpt>
      <trkpt lat="44.47417" lon="6.20667">
        <ele>1116</ele>
        <time>2025-11-21T09:42:19.000Z</time>
      </trkpt>
      <trkpt lat="44.47417" lon="6.20664">
        <ele>1116</ele>
        <time>2025-11-21T09:42:20.000Z</time>
      </trkpt>
      <trkpt lat="44.47417" lon="6.20662">
        <ele>1117</ele>
        <time>2025-11-21T09:42:21.000Z</time>
      </trkpt>
      <trkpt lat="44.47416" lon="6.20661">
        <ele>1117</ele>
        <time>2025-11-21T09:42:22.000Z</time>
      </trkpt>
      <trkpt lat="44.47416" lon="6.2066">
        <ele>1117</ele>
        <time>2025-11-21T09:42:23.000Z</time>
      </trkpt>
      <trkpt lat="44.47416" lon="6.20659">
        <ele>1117</ele>
        <time>2025-11-21T09:42:24.000Z</time>
      </trkpt>
      <trkpt lat="44.47416" lon="6.20659">
        <ele>1117</ele>
        <time>2025-11-21T09:42:25.000Z</time>
      </trkpt>
      <trkpt lat="44.47416" lon="6.20659">
        <ele>1117</ele>
        <time>2025-11-21T09:42:26.000Z</time>
      </trkpt>
      <trkpt lat="44.47416" lon="6.20655">
        <ele>1116</ele>
        <time>2025-11-21T09:42:27.000Z</time>
      </trkpt>
      <trkpt lat="44.47417" lon="6.20653">
        <ele>1116</ele>
        <time>2025-11-21T09:42:28.000Z</time>
      </trkpt>
      <trkpt lat="44.47417" lon="6.20653">
        <ele>1116</ele>
        <time>2025-11-21T09:42:29.000Z</time>
      </trkpt>
      <trkpt lat="44.47417" lon="6.20652">
        <ele>1116</ele>
        <time>2025-11-21T09:42:30.000Z</time>
      </trkpt>
      <trkpt lat="44.47417" lon="6.20652">
        <ele>1116</ele>
        <time>2025-11-21T09:42:31.000Z</time>
      </trkpt>
      <trkpt lat="44.47417" lon="6.20652">
        <ele>1116</ele>
        <time>2025-11-21T09:42:32.000Z</time>
      </trkpt>
      <trkpt lat="44.47417" lon="6.20647">
        <ele>1117</ele>
        <time>2025-11-21T09:42:33.000Z</time>
      </trkpt>
      <trkpt lat="44.47417" lon="6.20646">
        <ele>1117</ele>
        <time>2025-11-21T09:42:34.000Z</time>
      </trkpt>
      <trkpt lat="44.47417" lon="6.20644">
        <ele>1118</ele>
        <time>2025-11-21T09:42:35.000Z</time>
      </trkpt>
      <trkpt lat="44.47417" lon="6.20644">
        <ele>1118</ele>
        <time>2025-11-21T09:42:36.000Z</time>
      </trkpt>
      <trkpt lat="44.47417" lon="6.20643">
        <ele>1118</ele>
        <time>2025-11-21T09:42:37.000Z</time>
      </trkpt>
      <trkpt lat="44.47418" lon="6.20642">
        <ele>1118</ele>
        <time>2025-11-21T09:42:38.000Z</time>
      </trkpt>
      <trkpt lat="44.47418" lon="6.20641">
        <ele>1119</ele>
        <time>2025-11-21T09:42:39.000Z</time>
      </trkpt>
      <trkpt lat="44.47418" lon="6.2064">
        <ele>1119</ele>
        <time>2025-11-21T09:42:40.000Z</time>
      </trkpt>
      <trkpt lat="44.47419" lon="6.20639">
        <ele>1118</ele>
        <time>2025-11-21T09:42:41.000Z</time>
      </trkpt>
      <trkpt lat="44.47419" lon="6.20639">
        <ele>1118</ele>
        <time>2025-11-21T09:42:42.000Z</time>
      </trkpt>
      <trkpt lat="44.47419" lon="6.20639">
        <ele>1118</ele>
        <time>2025-11-21T09:42:43.000Z</time>
      </trkpt>
      <trkpt lat="44.4742" lon="6.20638">
        <ele>1118</ele>
        <time>2025-11-21T09:42:44.000Z</time>
      </trkpt>
      <trkpt lat="44.4742" lon="6.20637">
        <ele>1118</ele>
        <time>2025-11-21T09:42:45.000Z</time>
      </trkpt>
      <trkpt lat="44.4742" lon="6.20636">
        <ele>1119</ele>
        <time>2025-11-21T09:42:46.000Z</time>
      </trkpt>
      <trkpt lat="44.4742" lon="6.20636">
        <ele>1119</ele>
        <time>2025-11-21T09:42:47.000Z</time>
      </trkpt>
      <trkpt lat="44.4742" lon="6.20635">
        <ele>1119</ele>
        <time>2025-11-21T09:42:48.000Z</time>
      </trkpt>
      <trkpt lat="44.47421" lon="6.20633">
        <ele>1119</ele>
        <time>2025-11-21T09:42:49.000Z</time>
      </trkpt>
      <trkpt lat="44.47421" lon="6.20633">
        <ele>1119</ele>
        <time>2025-11-21T09:42:50.000Z</time>
      </trkpt>
      <trkpt lat="44.47422" lon="6.20632">
        <ele>1119</ele>
        <time>2025-11-21T09:42:51.000Z</time>
      </trkpt>
      <trkpt lat="44.47422" lon="6.20631">
        <ele>1119</ele>
        <time>2025-11-21T09:42:52.000Z</time>
      </trkpt>
      <trkpt lat="44.47422" lon="6.2063">
        <ele>1119</ele>
        <time>2025-11-21T09:42:53.000Z</time>
      </trkpt>
      <trkpt lat="44.47422" lon="6.2063">
        <ele>1119</ele>
        <time>2025-11-21T09:42:54.000Z</time>
      </trkpt>
      <trkpt lat="44.47423" lon="6.20628">
        <ele>1119</ele>
        <time>2025-11-21T09:42:55.000Z</time>
      </trkpt>
      <trkpt lat="44.47423" lon="6.20627">
        <ele>1119</ele>
        <time>2025-11-21T09:42:56.000Z</time>
      </trkpt>
      <trkpt lat="44.47423" lon="6.20626">
        <ele>1119</ele>
        <time>2025-11-21T09:42:57.000Z</time>
      </trkpt>
      <trkpt lat="44.47423" lon="6.20625">
        <ele>1120</ele>
        <time>2025-11-21T09:42:58.000Z</time>
      </trkpt>
      <trkpt lat="44.47423" lon="6.20624">
        <ele>1120</ele>
        <time>2025-11-21T09:42:59.000Z</time>
      </trkpt>
      <trkpt lat="44.47423" lon="6.20622">
        <ele>1120</ele>
        <time>2025-11-21T09:43:00.000Z</time>
      </trkpt>
      <trkpt lat="44.47423" lon="6.2062">
        <ele>1120</ele>
        <time>2025-11-21T09:43:01.000Z</time>
      </trkpt>
      <trkpt lat="44.47423" lon="6.20619">
        <ele>1121</ele>
        <time>2025-11-21T09:43:02.000Z</time>
      </trkpt>
      <trkpt lat="44.47423" lon="6.20618">
        <ele>1121</ele>
        <time>2025-11-21T09:43:03.000Z</time>
      </trkpt>
      <trkpt lat="44.47423" lon="6.20617">
        <ele>1121</ele>
        <time>2025-11-21T09:43:04.000Z</time>
      </trkpt>
      <trkpt lat="44.47424" lon="6.20615">
        <ele>1121</ele>
        <time>2025-11-21T09:43:05.000Z</time>
      </trkpt>
      <trkpt lat="44.47425" lon="6.20613">
        <ele>1121</ele>
        <time>2025-11-21T09:43:06.000Z</time>
      </trkpt>
      <trkpt lat="44.47425" lon="6.20613">
        <ele>1122</ele>
        <time>2025-11-21T09:43:07.000Z</time>
      </trkpt>
      <trkpt lat="44.47426" lon="6.20612">
        <ele>1122</ele>
        <time>2025-11-21T09:43:08.000Z</time>
      </trkpt>
      <trkpt lat="44.47426" lon="6.20611">
        <ele>1122</ele>
        <time>2025-11-21T09:43:09.000Z</time>
      </trkpt>
      <trkpt lat="44.47427" lon="6.2061">
        <ele>1122</ele>
        <time>2025-11-21T09:43:10.000Z</time>
      </trkpt>
      <trkpt lat="44.47427" lon="6.20609">
        <ele>1122</ele>
        <time>2025-11-21T09:43:11.000Z</time>
      </trkpt>
      <trkpt lat="44.47428" lon="6.20608">
        <ele>1122</ele>
        <time>2025-11-21T09:43:12.000Z</time>
      </trkpt>
      <trkpt lat="44.47429" lon="6.20608">
        <ele>1123</ele>
        <time>2025-11-21T09:43:13.000Z</time>
      </trkpt>
      <trkpt lat="44.4743" lon="6.20608">
        <ele>1123</ele>
        <time>2025-11-21T09:43:14.000Z</time>
      </trkpt>
      <trkpt lat="44.47431" lon="6.20607">
        <ele>1123</ele>
        <time>2025-11-21T09:43:15.000Z</time>
      </trkpt>
      <trkpt lat="44.47431" lon="6.20607">
        <ele>1123</ele>
        <time>2025-11-21T09:43:16.000Z</time>
      </trkpt>
      <trkpt lat="44.47431" lon="6.20607">
        <ele>1123</ele>
        <time>2025-11-21T09:43:17.000Z</time>
      </trkpt>
      <trkpt lat="44.47433" lon="6.20606">
        <ele>1122</ele>
        <time>2025-11-21T09:43:18.000Z</time>
      </trkpt>
      <trkpt lat="44.47433" lon="6.20605">
        <ele>1123</ele>
        <time>2025-11-21T09:43:19.000Z</time>
      </trkpt>
      <trkpt lat="44.47433" lon="6.20604">
        <ele>1123</ele>
        <time>2025-11-21T09:43:20.000Z</time>
      </trkpt>
      <trkpt lat="44.47434" lon="6.20604">
        <ele>1123</ele>
        <time>2025-11-21T09:43:21.000Z</time>
      </trkpt>
      <trkpt lat="44.47435" lon="6.20604">
        <ele>1124</ele>
        <time>2025-11-21T09:43:22.000Z</time>
      </trkpt>
      <trkpt lat="44.47435" lon="6.20602">
        <ele>1124</ele>
        <time>2025-11-21T09:43:23.000Z</time>
      </trkpt>
      <trkpt lat="44.47436" lon="6.20601">
        <ele>1125</ele>
        <time>2025-11-21T09:43:24.000Z</time>
      </trkpt>
      <trkpt lat="44.47437" lon="6.206">
        <ele>1125</ele>
        <time>2025-11-21T09:43:25.000Z</time>
      </trkpt>
      <trkpt lat="44.47438" lon="6.20598">
        <ele>1125</ele>
        <time>2025-11-21T09:43:26.000Z</time>
      </trkpt>
      <trkpt lat="44.47438" lon="6.20596">
        <ele>1125</ele>
        <time>2025-11-21T09:43:27.000Z</time>
      </trkpt>
      <trkpt lat="44.47438" lon="6.20595">
        <ele>1125</ele>
        <time>2025-11-21T09:43:28.000Z</time>
      </trkpt>
      <trkpt lat="44.47438" lon="6.20594">
        <ele>1125</ele>
        <time>2025-11-21T09:43:29.000Z</time>
      </trkpt>
      <trkpt lat="44.47438" lon="6.20593">
        <ele>1126</ele>
        <time>2025-11-21T09:43:30.000Z</time>
      </trkpt>
      <trkpt lat="44.47438" lon="6.20593">
        <ele>1126</ele>
        <time>2025-11-21T09:43:31.000Z</time>
      </trkpt>
      <trkpt lat="44.47438" lon="6.20593">
        <ele>1126</ele>
        <time>2025-11-21T09:43:32.000Z</time>
      </trkpt>
      <trkpt lat="44.47439" lon="6.2059">
        <ele>1127</ele>
        <time>2025-11-21T09:43:33.000Z</time>
      </trkpt>
      <trkpt lat="44.47439" lon="6.20588">
        <ele>1128</ele>
        <time>2025-11-21T09:43:34.000Z</time>
      </trkpt>
      <trkpt lat="44.4744" lon="6.20587">
        <ele>1128</ele>
        <time>2025-11-21T09:43:35.000Z</time>
      </trkpt>
      <trkpt lat="44.4744" lon="6.20586">
        <ele>1128</ele>
        <time>2025-11-21T09:43:36.000Z</time>
      </trkpt>
      <trkpt lat="44.47441" lon="6.20586">
        <ele>1128</ele>
        <time>2025-11-21T09:43:37.000Z</time>
      </trkpt>
      <trkpt lat="44.47442" lon="6.20585">
        <ele>1128</ele>
        <time>2025-11-21T09:43:38.000Z</time>
      </trkpt>
      <trkpt lat="44.47443" lon="6.20585">
        <ele>1128</ele>
        <time>2025-11-21T09:43:39.000Z</time>
      </trkpt>
      <trkpt lat="44.47443" lon="6.20586">
        <ele>1128</ele>
        <time>2025-11-21T09:43:40.000Z</time>
      </trkpt>
      <trkpt lat="44.47443" lon="6.20585">
        <ele>1128</ele>
        <time>2025-11-21T09:43:41.000Z</time>
      </trkpt>
      <trkpt lat="44.47444" lon="6.20584">
        <ele>1128</ele>
        <time>2025-11-21T09:43:42.000Z</time>
      </trkpt>
      <trkpt lat="44.47445" lon="6.20583">
        <ele>1129</ele>
        <time>2025-11-21T09:43:43.000Z</time>
      </trkpt>
      <trkpt lat="44.47445" lon="6.20581">
        <ele>1129</ele>
        <time>2025-11-21T09:43:44.000Z</time>
      </trkpt>
      <trkpt lat="44.47445" lon="6.2058">
        <ele>1129</ele>
        <time>2025-11-21T09:43:45.000Z</time>
      </trkpt>
      <trkpt lat="44.47444" lon="6.20578">
        <ele>1129</ele>
        <time>2025-11-21T09:43:46.000Z</time>
      </trkpt>
      <trkpt lat="44.47444" lon="6.20577">
        <ele>1130</ele>
        <time>2025-11-21T09:43:47.000Z</time>
      </trkpt>
      <trkpt lat="44.47444" lon="6.20576">
        <ele>1130</ele>
        <time>2025-11-21T09:43:48.000Z</time>
      </trkpt>
      <trkpt lat="44.47443" lon="6.20576">
        <ele>1130</ele>
        <time>2025-11-21T09:43:49.000Z</time>
      </trkpt>
      <trkpt lat="44.47442" lon="6.20575">
        <ele>1129</ele>
        <time>2025-11-21T09:43:50.000Z</time>
      </trkpt>
      <trkpt lat="44.47441" lon="6.20574">
        <ele>1129</ele>
        <time>2025-11-21T09:43:51.000Z</time>
      </trkpt>
      <trkpt lat="44.4744" lon="6.20573">
        <ele>1129</ele>
        <time>2025-11-21T09:43:52.000Z</time>
      </trkpt>
      <trkpt lat="44.4744" lon="6.20572">
        <ele>1130</ele>
        <time>2025-11-21T09:43:53.000Z</time>
      </trkpt>
      <trkpt lat="44.4744" lon="6.20571">
        <ele>1130</ele>
        <time>2025-11-21T09:43:54.000Z</time>
      </trkpt>
      <trkpt lat="44.47439" lon="6.2057">
        <ele>1131</ele>
        <time>2025-11-21T09:43:55.000Z</time>
      </trkpt>
      <trkpt lat="44.47439" lon="6.2057">
        <ele>1131</ele>
        <time>2025-11-21T09:43:56.000Z</time>
      </trkpt>
      <trkpt lat="44.47438" lon="6.20569">
        <ele>1131</ele>
        <time>2025-11-21T09:43:57.000Z</time>
      </trkpt>
      <trkpt lat="44.47438" lon="6.20568">
        <ele>1131</ele>
        <time>2025-11-21T09:43:58.000Z</time>
      </trkpt>
      <trkpt lat="44.47437" lon="6.20568">
        <ele>1131</ele>
        <time>2025-11-21T09:43:59.000Z</time>
      </trkpt>
      <trkpt lat="44.47436" lon="6.20568">
        <ele>1130</ele>
        <time>2025-11-21T09:44:00.000Z</time>
      </trkpt>
      <trkpt lat="44.47436" lon="6.20568">
        <ele>1131</ele>
        <time>2025-11-21T09:44:01.000Z</time>
      </trkpt>
      <trkpt lat="44.47435" lon="6.20568">
        <ele>1131</ele>
        <time>2025-11-21T09:44:02.000Z</time>
      </trkpt>
      <trkpt lat="44.47435" lon="6.20567">
        <ele>1131</ele>
        <time>2025-11-21T09:44:03.000Z</time>
      </trkpt>
      <trkpt lat="44.47434" lon="6.20567">
        <ele>1131</ele>
        <time>2025-11-21T09:44:04.000Z</time>
      </trkpt>
      <trkpt lat="44.47433" lon="6.20568">
        <ele>1131</ele>
        <time>2025-11-21T09:44:05.000Z</time>
      </trkpt>
      <trkpt lat="44.47432" lon="6.20568">
        <ele>1132</ele>
        <time>2025-11-21T09:44:06.000Z</time>
      </trkpt>
      <trkpt lat="44.47431" lon="6.20568">
        <ele>1133</ele>
        <time>2025-11-21T09:44:07.000Z</time>
      </trkpt>
      <trkpt lat="44.47431" lon="6.20568">
        <ele>1133</ele>
        <time>2025-11-21T09:44:08.000Z</time>
      </trkpt>
      <trkpt lat="44.4743" lon="6.20568">
        <ele>1134</ele>
        <time>2025-11-21T09:44:09.000Z</time>
      </trkpt>
      <trkpt lat="44.4743" lon="6.20568">
        <ele>1134</ele>
        <time>2025-11-21T09:44:10.000Z</time>
      </trkpt>
      <trkpt lat="44.47429" lon="6.20567">
        <ele>1135</ele>
        <time>2025-11-21T09:44:11.000Z</time>
      </trkpt>
      <trkpt lat="44.47428" lon="6.20566">
        <ele>1135</ele>
        <time>2025-11-21T09:44:12.000Z</time>
      </trkpt>
      <trkpt lat="44.47427" lon="6.20566">
        <ele>1135</ele>
        <time>2025-11-21T09:44:13.000Z</time>
      </trkpt>
      <trkpt lat="44.47426" lon="6.20566">
        <ele>1134</ele>
        <time>2025-11-21T09:44:14.000Z</time>
      </trkpt>
      <trkpt lat="44.47426" lon="6.20566">
        <ele>1135</ele>
        <time>2025-11-21T09:44:15.000Z</time>
      </trkpt>
      <trkpt lat="44.47426" lon="6.20565">
        <ele>1135</ele>
        <time>2025-11-21T09:44:16.000Z</time>
      </trkpt>
      <trkpt lat="44.47424" lon="6.20564">
        <ele>1135</ele>
        <time>2025-11-21T09:44:17.000Z</time>
      </trkpt>
      <trkpt lat="44.47424" lon="6.20563">
        <ele>1135</ele>
        <time>2025-11-21T09:44:18.000Z</time>
      </trkpt>
      <trkpt lat="44.47423" lon="6.20562">
        <ele>1135</ele>
        <time>2025-11-21T09:44:19.000Z</time>
      </trkpt>
      <trkpt lat="44.47422" lon="6.20561">
        <ele>1136</ele>
        <time>2025-11-21T09:44:20.000Z</time>
      </trkpt>
      <trkpt lat="44.47421" lon="6.20561">
        <ele>1136</ele>
        <time>2025-11-21T09:44:21.000Z</time>
      </trkpt>
      <trkpt lat="44.4742" lon="6.20561">
        <ele>1136</ele>
        <time>2025-11-21T09:44:22.000Z</time>
      </trkpt>
      <trkpt lat="44.47419" lon="6.20561">
        <ele>1136</ele>
        <time>2025-11-21T09:44:23.000Z</time>
      </trkpt>
      <trkpt lat="44.47418" lon="6.2056">
        <ele>1136</ele>
        <time>2025-11-21T09:44:24.000Z</time>
      </trkpt>
      <trkpt lat="44.47417" lon="6.20559">
        <ele>1136</ele>
        <time>2025-11-21T09:44:25.000Z</time>
      </trkpt>
      <trkpt lat="44.47416" lon="6.20558">
        <ele>1136</ele>
        <time>2025-11-21T09:44:26.000Z</time>
      </trkpt>
      <trkpt lat="44.47415" lon="6.20557">
        <ele>1136</ele>
        <time>2025-11-21T09:44:27.000Z</time>
      </trkpt>
      <trkpt lat="44.47414" lon="6.20557">
        <ele>1137</ele>
        <time>2025-11-21T09:44:28.000Z</time>
      </trkpt>
      <trkpt lat="44.47413" lon="6.20556">
        <ele>1138</ele>
        <time>2025-11-21T09:44:29.000Z</time>
      </trkpt>
      <trkpt lat="44.47412" lon="6.20556">
        <ele>1138</ele>
        <time>2025-11-21T09:44:30.000Z</time>
      </trkpt>
      <trkpt lat="44.47412" lon="6.20556">
        <ele>1138</ele>
        <time>2025-11-21T09:44:31.000Z</time>
      </trkpt>
      <trkpt lat="44.47411" lon="6.20555">
        <ele>1138</ele>
        <time>2025-11-21T09:44:32.000Z</time>
      </trkpt>
      <trkpt lat="44.47411" lon="6.20555">
        <ele>1138</ele>
        <time>2025-11-21T09:44:33.000Z</time>
      </trkpt>
      <trkpt lat="44.47411" lon="6.20554">
        <ele>1138</ele>
        <time>2025-11-21T09:44:34.000Z</time>
      </trkpt>
      <trkpt lat="44.47411" lon="6.20553">
        <ele>1138</ele>
        <time>2025-11-21T09:44:35.000Z</time>
      </trkpt>
      <trkpt lat="44.47411" lon="6.20553">
        <ele>1138</ele>
        <time>2025-11-21T09:44:36.000Z</time>
      </trkpt>
      <trkpt lat="44.47411" lon="6.20552">
        <ele>1139</ele>
        <time>2025-11-21T09:44:37.000Z</time>
      </trkpt>
      <trkpt lat="44.4741" lon="6.20552">
        <ele>1138</ele>
        <time>2025-11-21T09:44:38.000Z</time>
      </trkpt>
      <trkpt lat="44.47409" lon="6.20552">
        <ele>1138</ele>
        <time>2025-11-21T09:44:39.000Z</time>
      </trkpt>
      <trkpt lat="44.47408" lon="6.20551">
        <ele>1139</ele>
        <time>2025-11-21T09:44:40.000Z</time>
      </trkpt>
      <trkpt lat="44.47407" lon="6.2055">
        <ele>1139</ele>
        <time>2025-11-21T09:44:41.000Z</time>
      </trkpt>
      <trkpt lat="44.47406" lon="6.20549">
        <ele>1139</ele>
        <time>2025-11-21T09:44:42.000Z</time>
      </trkpt>
      <trkpt lat="44.47404" lon="6.20549">
        <ele>1140</ele>
        <time>2025-11-21T09:44:43.000Z</time>
      </trkpt>
      <trkpt lat="44.47404" lon="6.2055">
        <ele>1140</ele>
        <time>2025-11-21T09:44:44.000Z</time>
      </trkpt>
      <trkpt lat="44.47403" lon="6.20549">
        <ele>1140</ele>
        <time>2025-11-21T09:44:45.000Z</time>
      </trkpt>
      <trkpt lat="44.47403" lon="6.20548">
        <ele>1140</ele>
        <time>2025-11-21T09:44:46.000Z</time>
      </trkpt>
      <trkpt lat="44.47402" lon="6.20548">
        <ele>1140</ele>
        <time>2025-11-21T09:44:47.000Z</time>
      </trkpt>
      <trkpt lat="44.47401" lon="6.20548">
        <ele>1139</ele>
        <time>2025-11-21T09:44:48.000Z</time>
      </trkpt>
      <trkpt lat="44.474" lon="6.20548">
        <ele>1140</ele>
        <time>2025-11-21T09:44:49.000Z</time>
      </trkpt>
      <trkpt lat="44.47399" lon="6.20547">
        <ele>1140</ele>
        <time>2025-11-21T09:44:50.000Z</time>
      </trkpt>
      <trkpt lat="44.47398" lon="6.20547">
        <ele>1140</ele>
        <time>2025-11-21T09:44:51.000Z</time>
      </trkpt>
      <trkpt lat="44.47397" lon="6.20547">
        <ele>1140</ele>
        <time>2025-11-21T09:44:52.000Z</time>
      </trkpt>
      <trkpt lat="44.47396" lon="6.20546">
        <ele>1140</ele>
        <time>2025-11-21T09:44:53.000Z</time>
      </trkpt>
      <trkpt lat="44.47396" lon="6.20545">
        <ele>1141</ele>
        <time>2025-11-21T09:44:54.000Z</time>
      </trkpt>
      <trkpt lat="44.47395" lon="6.20544">
        <ele>1141</ele>
        <time>2025-11-21T09:44:55.000Z</time>
      </trkpt>
      <trkpt lat="44.47394" lon="6.20544">
        <ele>1141</ele>
        <time>2025-11-21T09:44:56.000Z</time>
      </trkpt>
      <trkpt lat="44.47393" lon="6.20544">
        <ele>1141</ele>
        <time>2025-11-21T09:44:57.000Z</time>
      </trkpt>
      <trkpt lat="44.47392" lon="6.20544">
        <ele>1141</ele>
        <time>2025-11-21T09:44:58.000Z</time>
      </trkpt>
      <trkpt lat="44.47391" lon="6.20544">
        <ele>1140</ele>
        <time>2025-11-21T09:44:59.000Z</time>
      </trkpt>
      <trkpt lat="44.4739" lon="6.20544">
        <ele>1141</ele>
        <time>2025-11-21T09:45:00.000Z</time>
      </trkpt>
      <trkpt lat="44.47389" lon="6.20544">
        <ele>1141</ele>
        <time>2025-11-21T09:45:01.000Z</time>
      </trkpt>
      <trkpt lat="44.47388" lon="6.20544">
        <ele>1141</ele>
        <time>2025-11-21T09:45:02.000Z</time>
      </trkpt>
      <trkpt lat="44.47387" lon="6.20543">
        <ele>1141</ele>
        <time>2025-11-21T09:45:03.000Z</time>
      </trkpt>
      <trkpt lat="44.47386" lon="6.20543">
        <ele>1141</ele>
        <time>2025-11-21T09:45:04.000Z</time>
      </trkpt>
      <trkpt lat="44.47385" lon="6.20543">
        <ele>1139</ele>
        <time>2025-11-21T09:45:05.000Z</time>
      </trkpt>
      <trkpt lat="44.47385" lon="6.20543">
        <ele>1140</ele>
        <time>2025-11-21T09:45:06.000Z</time>
      </trkpt>
      <trkpt lat="44.47384" lon="6.20544">
        <ele>1140</ele>
        <time>2025-11-21T09:45:07.000Z</time>
      </trkpt>
      <trkpt lat="44.47383" lon="6.20543">
        <ele>1140</ele>
        <time>2025-11-21T09:45:08.000Z</time>
      </trkpt>
      <trkpt lat="44.47382" lon="6.20543">
        <ele>1139</ele>
        <time>2025-11-21T09:45:09.000Z</time>
      </trkpt>
      <trkpt lat="44.47382" lon="6.20544">
        <ele>1140</ele>
        <time>2025-11-21T09:45:10.000Z</time>
      </trkpt>
      <trkpt lat="44.47381" lon="6.20543">
        <ele>1140</ele>
        <time>2025-11-21T09:45:11.000Z</time>
      </trkpt>
      <trkpt lat="44.47379" lon="6.20542">
        <ele>1140</ele>
        <time>2025-11-21T09:45:12.000Z</time>
      </trkpt>
      <trkpt lat="44.47378" lon="6.20541">
        <ele>1140</ele>
        <time>2025-11-21T09:45:13.000Z</time>
      </trkpt>
      <trkpt lat="44.47378" lon="6.2054">
        <ele>1141</ele>
        <time>2025-11-21T09:45:14.000Z</time>
      </trkpt>
      <trkpt lat="44.47377" lon="6.20539">
        <ele>1141</ele>
        <time>2025-11-21T09:45:15.000Z</time>
      </trkpt>
      <trkpt lat="44.47376" lon="6.20538">
        <ele>1141</ele>
        <time>2025-11-21T09:45:16.000Z</time>
      </trkpt>
      <trkpt lat="44.47375" lon="6.20538">
        <ele>1141</ele>
        <time>2025-11-21T09:45:17.000Z</time>
      </trkpt>
      <trkpt lat="44.47375" lon="6.20538">
        <ele>1141</ele>
        <time>2025-11-21T09:45:18.000Z</time>
      </trkpt>
      <trkpt lat="44.47374" lon="6.20539">
        <ele>1142</ele>
        <time>2025-11-21T09:45:19.000Z</time>
      </trkpt>
      <trkpt lat="44.47374" lon="6.20538">
        <ele>1143</ele>
        <time>2025-11-21T09:45:20.000Z</time>
      </trkpt>
      <trkpt lat="44.47373" lon="6.20538">
        <ele>1143</ele>
        <time>2025-11-21T09:45:21.000Z</time>
      </trkpt>
      <trkpt lat="44.47371" lon="6.20537">
        <ele>1143</ele>
        <time>2025-11-21T09:45:22.000Z</time>
      </trkpt>
      <trkpt lat="44.4737" lon="6.20536">
        <ele>1142</ele>
        <time>2025-11-21T09:45:23.000Z</time>
      </trkpt>
      <trkpt lat="44.47369" lon="6.20536">
        <ele>1142</ele>
        <time>2025-11-21T09:45:24.000Z</time>
      </trkpt>
      <trkpt lat="44.47368" lon="6.20536">
        <ele>1142</ele>
        <time>2025-11-21T09:45:25.000Z</time>
      </trkpt>
      <trkpt lat="44.47367" lon="6.20536">
        <ele>1143</ele>
        <time>2025-11-21T09:45:26.000Z</time>
      </trkpt>
      <trkpt lat="44.47366" lon="6.20536">
        <ele>1143</ele>
        <time>2025-11-21T09:45:27.000Z</time>
      </trkpt>
      <trkpt lat="44.47365" lon="6.20536">
        <ele>1143</ele>
        <time>2025-11-21T09:45:28.000Z</time>
      </trkpt>
      <trkpt lat="44.47365" lon="6.20536">
        <ele>1143</ele>
        <time>2025-11-21T09:45:29.000Z</time>
      </trkpt>
      <trkpt lat="44.47365" lon="6.20536">
        <ele>1142</ele>
        <time>2025-11-21T09:45:30.000Z</time>
      </trkpt>
      <trkpt lat="44.47364" lon="6.20536">
        <ele>1142</ele>
        <time>2025-11-21T09:45:31.000Z</time>
      </trkpt>
      <trkpt lat="44.47364" lon="6.20536">
        <ele>1142</ele>
        <time>2025-11-21T09:45:32.000Z</time>
      </trkpt>
      <trkpt lat="44.47363" lon="6.20536">
        <ele>1141</ele>
        <time>2025-11-21T09:45:33.000Z</time>
      </trkpt>
      <trkpt lat="44.47362" lon="6.20536">
        <ele>1141</ele>
        <time>2025-11-21T09:45:34.000Z</time>
      </trkpt>
      <trkpt lat="44.47362" lon="6.20536">
        <ele>1140</ele>
        <time>2025-11-21T09:45:35.000Z</time>
      </trkpt>
      <trkpt lat="44.47361" lon="6.20535">
        <ele>1140</ele>
        <time>2025-11-21T09:45:36.000Z</time>
      </trkpt>
      <trkpt lat="44.4736" lon="6.20535">
        <ele>1140</ele>
        <time>2025-11-21T09:45:37.000Z</time>
      </trkpt>
      <trkpt lat="44.47359" lon="6.20535">
        <ele>1141</ele>
        <time>2025-11-21T09:45:38.000Z</time>
      </trkpt>
      <trkpt lat="44.47359" lon="6.20535">
        <ele>1141</ele>
        <time>2025-11-21T09:45:39.000Z</time>
      </trkpt>
      <trkpt lat="44.47358" lon="6.20534">
        <ele>1140</ele>
        <time>2025-11-21T09:45:40.000Z</time>
      </trkpt>
      <trkpt lat="44.47356" lon="6.20533">
        <ele>1141</ele>
        <time>2025-11-21T09:45:41.000Z</time>
      </trkpt>
      <trkpt lat="44.47356" lon="6.20533">
        <ele>1141</ele>
        <time>2025-11-21T09:45:42.000Z</time>
      </trkpt>
      <trkpt lat="44.47355" lon="6.20532">
        <ele>1141</ele>
        <time>2025-11-21T09:45:43.000Z</time>
      </trkpt>
      <trkpt lat="44.47354" lon="6.20532">
        <ele>1142</ele>
        <time>2025-11-21T09:45:44.000Z</time>
      </trkpt>
      <trkpt lat="44.47352" lon="6.20532">
        <ele>1142</ele>
        <time>2025-11-21T09:45:45.000Z</time>
      </trkpt>
      <trkpt lat="44.47351" lon="6.20532">
        <ele>1142</ele>
        <time>2025-11-21T09:45:46.000Z</time>
      </trkpt>
      <trkpt lat="44.4735" lon="6.20531">
        <ele>1142</ele>
        <time>2025-11-21T09:45:47.000Z</time>
      </trkpt>
      <trkpt lat="44.47349" lon="6.20531">
        <ele>1142</ele>
        <time>2025-11-21T09:45:48.000Z</time>
      </trkpt>
      <trkpt lat="44.47348" lon="6.20531">
        <ele>1142</ele>
        <time>2025-11-21T09:45:49.000Z</time>
      </trkpt>
      <trkpt lat="44.47347" lon="6.20531">
        <ele>1142</ele>
        <time>2025-11-21T09:45:50.000Z</time>
      </trkpt>
      <trkpt lat="44.47347" lon="6.20531">
        <ele>1143</ele>
        <time>2025-11-21T09:45:51.000Z</time>
      </trkpt>
      <trkpt lat="44.47346" lon="6.20531">
        <ele>1143</ele>
        <time>2025-11-21T09:45:52.000Z</time>
      </trkpt>
      <trkpt lat="44.47345" lon="6.20531">
        <ele>1144</ele>
        <time>2025-11-21T09:45:53.000Z</time>
      </trkpt>
      <trkpt lat="44.47344" lon="6.2053">
        <ele>1143</ele>
        <time>2025-11-21T09:45:54.000Z</time>
      </trkpt>
      <trkpt lat="44.47343" lon="6.2053">
        <ele>1144</ele>
        <time>2025-11-21T09:45:55.000Z</time>
      </trkpt>
      <trkpt lat="44.47342" lon="6.2053">
        <ele>1143</ele>
        <time>2025-11-21T09:45:56.000Z</time>
      </trkpt>
      <trkpt lat="44.47342" lon="6.2053">
        <ele>1143</ele>
        <time>2025-11-21T09:45:57.000Z</time>
      </trkpt>
      <trkpt lat="44.4734" lon="6.2053">
        <ele>1143</ele>
        <time>2025-11-21T09:45:58.000Z</time>
      </trkpt>
      <trkpt lat="44.4734" lon="6.2053">
        <ele>1143</ele>
        <time>2025-11-21T09:45:59.000Z</time>
      </trkpt>
      <trkpt lat="44.47339" lon="6.2053">
        <ele>1143</ele>
        <time>2025-11-21T09:46:00.000Z</time>
      </trkpt>
      <trkpt lat="44.47339" lon="6.2053">
        <ele>1143</ele>
        <time>2025-11-21T09:46:01.000Z</time>
      </trkpt>
      <trkpt lat="44.47338" lon="6.20528">
        <ele>1144</ele>
        <time>2025-11-21T09:46:02.000Z</time>
      </trkpt>
      <trkpt lat="44.47337" lon="6.20528">
        <ele>1143</ele>
        <time>2025-11-21T09:46:03.000Z</time>
      </trkpt>
      <trkpt lat="44.47337" lon="6.20528">
        <ele>1143</ele>
        <time>2025-11-21T09:46:04.000Z</time>
      </trkpt>
      <trkpt lat="44.47335" lon="6.20528">
        <ele>1143</ele>
        <time>2025-11-21T09:46:05.000Z</time>
      </trkpt>
      <trkpt lat="44.47334" lon="6.20527">
        <ele>1144</ele>
        <time>2025-11-21T09:46:06.000Z</time>
      </trkpt>
      <trkpt lat="44.47333" lon="6.20527">
        <ele>1144</ele>
        <time>2025-11-21T09:46:07.000Z</time>
      </trkpt>
      <trkpt lat="44.47333" lon="6.20526">
        <ele>1144</ele>
        <time>2025-11-21T09:46:08.000Z</time>
      </trkpt>
      <trkpt lat="44.47332" lon="6.20526">
        <ele>1144</ele>
        <time>2025-11-21T09:46:09.000Z</time>
      </trkpt>
      <trkpt lat="44.47332" lon="6.20526">
        <ele>1144</ele>
        <time>2025-11-21T09:46:10.000Z</time>
      </trkpt>
      <trkpt lat="44.47332" lon="6.20526">
        <ele>1144</ele>
        <time>2025-11-21T09:46:11.000Z</time>
      </trkpt>
      <trkpt lat="44.47329" lon="6.20526">
        <ele>1146</ele>
        <time>2025-11-21T09:46:12.000Z</time>
      </trkpt>
      <trkpt lat="44.47328" lon="6.20527">
        <ele>1146</ele>
        <time>2025-11-21T09:46:13.000Z</time>
      </trkpt>
      <trkpt lat="44.47328" lon="6.20527">
        <ele>1146</ele>
        <time>2025-11-21T09:46:14.000Z</time>
      </trkpt>
      <trkpt lat="44.47327" lon="6.20527">
        <ele>1147</ele>
        <time>2025-11-21T09:46:15.000Z</time>
      </trkpt>
      <trkpt lat="44.47326" lon="6.20527">
        <ele>1148</ele>
        <time>2025-11-21T09:46:16.000Z</time>
      </trkpt>
      <trkpt lat="44.47326" lon="6.20527">
        <ele>1148</ele>
        <time>2025-11-21T09:46:17.000Z</time>
      </trkpt>
      <trkpt lat="44.47324" lon="6.20527">
        <ele>1148</ele>
        <time>2025-11-21T09:46:18.000Z</time>
      </trkpt>
      <trkpt lat="44.47323" lon="6.20527">
        <ele>1148</ele>
        <time>2025-11-21T09:46:19.000Z</time>
      </trkpt>
      <trkpt lat="44.47323" lon="6.20526">
        <ele>1148</ele>
        <time>2025-11-21T09:46:20.000Z</time>
      </trkpt>
      <trkpt lat="44.47322" lon="6.20525">
        <ele>1147</ele>
        <time>2025-11-21T09:46:21.000Z</time>
      </trkpt>
      <trkpt lat="44.47322" lon="6.20524">
        <ele>1147</ele>
        <time>2025-11-21T09:46:22.000Z</time>
      </trkpt>
      <trkpt lat="44.47321" lon="6.20523">
        <ele>1146</ele>
        <time>2025-11-21T09:46:23.000Z</time>
      </trkpt>
      <trkpt lat="44.4732" lon="6.20522">
        <ele>1147</ele>
        <time>2025-11-21T09:46:24.000Z</time>
      </trkpt>
      <trkpt lat="44.47319" lon="6.20521">
        <ele>1148</ele>
        <time>2025-11-21T09:46:25.000Z</time>
      </trkpt>
      <trkpt lat="44.47318" lon="6.20521">
        <ele>1148</ele>
        <time>2025-11-21T09:46:26.000Z</time>
      </trkpt>
      <trkpt lat="44.47318" lon="6.2052">
        <ele>1148</ele>
        <time>2025-11-21T09:46:27.000Z</time>
      </trkpt>
      <trkpt lat="44.47317" lon="6.20519">
        <ele>1149</ele>
        <time>2025-11-21T09:46:28.000Z</time>
      </trkpt>
      <trkpt lat="44.47316" lon="6.20518">
        <ele>1149</ele>
        <time>2025-11-21T09:46:29.000Z</time>
      </trkpt>
      <trkpt lat="44.47315" lon="6.20518">
        <ele>1149</ele>
        <time>2025-11-21T09:46:30.000Z</time>
      </trkpt>
      <trkpt lat="44.47313" lon="6.20516">
        <ele>1148</ele>
        <time>2025-11-21T09:46:31.000Z</time>
      </trkpt>
      <trkpt lat="44.47312" lon="6.20516">
        <ele>1148</ele>
        <time>2025-11-21T09:46:32.000Z</time>
      </trkpt>
      <trkpt lat="44.47311" lon="6.20515">
        <ele>1148</ele>
        <time>2025-11-21T09:46:33.000Z</time>
      </trkpt>
      <trkpt lat="44.4731" lon="6.20515">
        <ele>1148</ele>
        <time>2025-11-21T09:46:34.000Z</time>
      </trkpt>
      <trkpt lat="44.47309" lon="6.20515">
        <ele>1148</ele>
        <time>2025-11-21T09:46:35.000Z</time>
      </trkpt>
      <trkpt lat="44.47309" lon="6.20514">
        <ele>1148</ele>
        <time>2025-11-21T09:46:36.000Z</time>
      </trkpt>
      <trkpt lat="44.47308" lon="6.20514">
        <ele>1148</ele>
        <time>2025-11-21T09:46:37.000Z</time>
      </trkpt>
      <trkpt lat="44.47307" lon="6.20514">
        <ele>1148</ele>
        <time>2025-11-21T09:46:38.000Z</time>
      </trkpt>
      <trkpt lat="44.47306" lon="6.20514">
        <ele>1149</ele>
        <time>2025-11-21T09:46:39.000Z</time>
      </trkpt>
      <trkpt lat="44.47306" lon="6.20514">
        <ele>1149</ele>
        <time>2025-11-21T09:46:40.000Z</time>
      </trkpt>
      <trkpt lat="44.47305" lon="6.20514">
        <ele>1150</ele>
        <time>2025-11-21T09:46:41.000Z</time>
      </trkpt>
      <trkpt lat="44.47303" lon="6.20513">
        <ele>1149</ele>
        <time>2025-11-21T09:46:42.000Z</time>
      </trkpt>
      <trkpt lat="44.47302" lon="6.20513">
        <ele>1149</ele>
        <time>2025-11-21T09:46:43.000Z</time>
      </trkpt>
      <trkpt lat="44.47301" lon="6.20512">
        <ele>1148</ele>
        <time>2025-11-21T09:46:44.000Z</time>
      </trkpt>
      <trkpt lat="44.473" lon="6.20512">
        <ele>1148</ele>
        <time>2025-11-21T09:46:45.000Z</time>
      </trkpt>
      <trkpt lat="44.473" lon="6.20512">
        <ele>1149</ele>
        <time>2025-11-21T09:46:46.000Z</time>
      </trkpt>
      <trkpt lat="44.473" lon="6.20512">
        <ele>1149</ele>
        <time>2025-11-21T09:46:47.000Z</time>
      </trkpt>
      <trkpt lat="44.473" lon="6.20512">
        <ele>1149</ele>
        <time>2025-11-21T09:46:48.000Z</time>
      </trkpt>
      <trkpt lat="44.47298" lon="6.2051">
        <ele>1149</ele>
        <time>2025-11-21T09:46:49.000Z</time>
      </trkpt>
      <trkpt lat="44.47297" lon="6.20509">
        <ele>1150</ele>
        <time>2025-11-21T09:46:50.000Z</time>
      </trkpt>
      <trkpt lat="44.47296" lon="6.20508">
        <ele>1150</ele>
        <time>2025-11-21T09:46:51.000Z</time>
      </trkpt>
      <trkpt lat="44.47295" lon="6.20508">
        <ele>1150</ele>
        <time>2025-11-21T09:46:52.000Z</time>
      </trkpt>
      <trkpt lat="44.47294" lon="6.20507">
        <ele>1150</ele>
        <time>2025-11-21T09:46:53.000Z</time>
      </trkpt>
      <trkpt lat="44.47293" lon="6.20506">
        <ele>1150</ele>
        <time>2025-11-21T09:46:54.000Z</time>
      </trkpt>
      <trkpt lat="44.47292" lon="6.20506">
        <ele>1150</ele>
        <time>2025-11-21T09:46:55.000Z</time>
      </trkpt>
      <trkpt lat="44.47291" lon="6.20505">
        <ele>1150</ele>
        <time>2025-11-21T09:46:56.000Z</time>
      </trkpt>
      <trkpt lat="44.47291" lon="6.20505">
        <ele>1150</ele>
        <time>2025-11-21T09:46:57.000Z</time>
      </trkpt>
      <trkpt lat="44.47291" lon="6.20505">
        <ele>1149</ele>
        <time>2025-11-21T09:46:58.000Z</time>
      </trkpt>
      <trkpt lat="44.4729" lon="6.20505">
        <ele>1149</ele>
        <time>2025-11-21T09:46:59.000Z</time>
      </trkpt>
      <trkpt lat="44.47289" lon="6.20503">
        <ele>1150</ele>
        <time>2025-11-21T09:47:00.000Z</time>
      </trkpt>
      <trkpt lat="44.47288" lon="6.20502">
        <ele>1150</ele>
        <time>2025-11-21T09:47:01.000Z</time>
      </trkpt>
      <trkpt lat="44.47288" lon="6.20501">
        <ele>1151</ele>
        <time>2025-11-21T09:47:02.000Z</time>
      </trkpt>
      <trkpt lat="44.47287" lon="6.205">
        <ele>1151</ele>
        <time>2025-11-21T09:47:03.000Z</time>
      </trkpt>
      <trkpt lat="44.47285" lon="6.20501">
        <ele>1151</ele>
        <time>2025-11-21T09:47:04.000Z</time>
      </trkpt>
      <trkpt lat="44.47285" lon="6.20501">
        <ele>1150</ele>
        <time>2025-11-21T09:47:05.000Z</time>
      </trkpt>
      <trkpt lat="44.47284" lon="6.20501">
        <ele>1150</ele>
        <time>2025-11-21T09:47:06.000Z</time>
      </trkpt>
      <trkpt lat="44.47284" lon="6.20501">
        <ele>1150</ele>
        <time>2025-11-21T09:47:07.000Z</time>
      </trkpt>
      <trkpt lat="44.47284" lon="6.20501">
        <ele>1150</ele>
        <time>2025-11-21T09:47:08.000Z</time>
      </trkpt>
      <trkpt lat="44.47283" lon="6.20499">
        <ele>1151</ele>
        <time>2025-11-21T09:47:09.000Z</time>
      </trkpt>
      <trkpt lat="44.47282" lon="6.20498">
        <ele>1151</ele>
        <time>2025-11-21T09:47:10.000Z</time>
      </trkpt>
      <trkpt lat="44.47282" lon="6.20496">
        <ele>1151</ele>
        <time>2025-11-21T09:47:11.000Z</time>
      </trkpt>
      <trkpt lat="44.47281" lon="6.20495">
        <ele>1151</ele>
        <time>2025-11-21T09:47:12.000Z</time>
      </trkpt>
      <trkpt lat="44.47281" lon="6.20494">
        <ele>1150</ele>
        <time>2025-11-21T09:47:13.000Z</time>
      </trkpt>
      <trkpt lat="44.4728" lon="6.20493">
        <ele>1151</ele>
        <time>2025-11-21T09:47:14.000Z</time>
      </trkpt>
      <trkpt lat="44.4728" lon="6.20492">
        <ele>1151</ele>
        <time>2025-11-21T09:47:15.000Z</time>
      </trkpt>
      <trkpt lat="44.4728" lon="6.2049">
        <ele>1150</ele>
        <time>2025-11-21T09:47:16.000Z</time>
      </trkpt>
      <trkpt lat="44.47277" lon="6.20484">
        <ele>1155</ele>
        <time>2025-11-21T09:49:38.000Z</time>
      </trkpt>
      <trkpt lat="44.47276" lon="6.20483">
        <ele>1156</ele>
        <time>2025-11-21T09:49:39.000Z</time>
      </trkpt>
      <trkpt lat="44.47276" lon="6.20482">
        <ele>1156</ele>
        <time>2025-11-21T09:49:40.000Z</time>
      </trkpt>
      <trkpt lat="44.47276" lon="6.20482">
        <ele>1156</ele>
        <time>2025-11-21T09:49:41.000Z</time>
      </trkpt>
      <trkpt lat="44.47275" lon="6.20481">
        <ele>1156</ele>
        <time>2025-11-21T09:49:42.000Z</time>
      </trkpt>
      <trkpt lat="44.47275" lon="6.20481">
        <ele>1156</ele>
        <time>2025-11-21T09:49:43.000Z</time>
      </trkpt>
      <trkpt lat="44.47275" lon="6.20481">
        <ele>1156</ele>
        <time>2025-11-21T09:49:44.000Z</time>
      </trkpt>
      <trkpt lat="44.47274" lon="6.20479">
        <ele>1155</ele>
        <time>2025-11-21T09:49:45.000Z</time>
      </trkpt>
      <trkpt lat="44.47275" lon="6.20478">
        <ele>1155</ele>
        <time>2025-11-21T09:49:46.000Z</time>
      </trkpt>
      <trkpt lat="44.47274" lon="6.20477">
        <ele>1155</ele>
        <time>2025-11-21T09:49:47.000Z</time>
      </trkpt>
      <trkpt lat="44.47274" lon="6.20476">
        <ele>1155</ele>
        <time>2025-11-21T09:49:48.000Z</time>
      </trkpt>
      <trkpt lat="44.47274" lon="6.20476">
        <ele>1155</ele>
        <time>2025-11-21T09:49:49.000Z</time>
      </trkpt>
      <trkpt lat="44.47273" lon="6.20474">
        <ele>1154</ele>
        <time>2025-11-21T09:49:50.000Z</time>
      </trkpt>
      <trkpt lat="44.47273" lon="6.20473">
        <ele>1154</ele>
        <time>2025-11-21T09:49:51.000Z</time>
      </trkpt>
      <trkpt lat="44.47272" lon="6.20471">
        <ele>1153</ele>
        <time>2025-11-21T09:49:52.000Z</time>
      </trkpt>
      <trkpt lat="44.47272" lon="6.2047">
        <ele>1153</ele>
        <time>2025-11-21T09:49:53.000Z</time>
      </trkpt>
      <trkpt lat="44.47272" lon="6.20469">
        <ele>1153</ele>
        <time>2025-11-21T09:49:54.000Z</time>
      </trkpt>
      <trkpt lat="44.47272" lon="6.20469">
        <ele>1153</ele>
        <time>2025-11-21T09:49:55.000Z</time>
      </trkpt>
      <trkpt lat="44.47271" lon="6.20467">
        <ele>1153</ele>
        <time>2025-11-21T09:49:56.000Z</time>
      </trkpt>
      <trkpt lat="44.47271" lon="6.20467">
        <ele>1153</ele>
        <time>2025-11-21T09:49:57.000Z</time>
      </trkpt>
      <trkpt lat="44.47271" lon="6.20466">
        <ele>1153</ele>
        <time>2025-11-21T09:49:58.000Z</time>
      </trkpt>
      <trkpt lat="44.47271" lon="6.20466">
        <ele>1152</ele>
        <time>2025-11-21T09:49:59.000Z</time>
      </trkpt>
      <trkpt lat="44.4727" lon="6.20465">
        <ele>1152</ele>
        <time>2025-11-21T09:50:00.000Z</time>
      </trkpt>
      <trkpt lat="44.4727" lon="6.20463">
        <ele>1152</ele>
        <time>2025-11-21T09:50:01.000Z</time>
      </trkpt>
      <trkpt lat="44.4727" lon="6.20463">
        <ele>1152</ele>
        <time>2025-11-21T09:50:02.000Z</time>
      </trkpt>
      <trkpt lat="44.4727" lon="6.2046">
        <ele>1150</ele>
        <time>2025-11-21T09:50:03.000Z</time>
      </trkpt>
      <trkpt lat="44.4727" lon="6.20458">
        <ele>1149</ele>
        <time>2025-11-21T09:50:04.000Z</time>
      </trkpt>
      <trkpt lat="44.47271" lon="6.20457">
        <ele>1150</ele>
        <time>2025-11-21T09:50:05.000Z</time>
      </trkpt>
      <trkpt lat="44.4727" lon="6.20456">
        <ele>1149</ele>
        <time>2025-11-21T09:50:06.000Z</time>
      </trkpt>
      <trkpt lat="44.4727" lon="6.20454">
        <ele>1149</ele>
        <time>2025-11-21T09:50:07.000Z</time>
      </trkpt>
      <trkpt lat="44.47269" lon="6.20453">
        <ele>1149</ele>
        <time>2025-11-21T09:50:08.000Z</time>
      </trkpt>
      <trkpt lat="44.47269" lon="6.20451">
        <ele>1149</ele>
        <time>2025-11-21T09:50:09.000Z</time>
      </trkpt>
      <trkpt lat="44.47269" lon="6.2045">
        <ele>1148</ele>
        <time>2025-11-21T09:50:10.000Z</time>
      </trkpt>
      <trkpt lat="44.47269" lon="6.20448">
        <ele>1148</ele>
        <time>2025-11-21T09:50:11.000Z</time>
      </trkpt>
      <trkpt lat="44.47268" lon="6.20448">
        <ele>1148</ele>
        <time>2025-11-21T09:50:12.000Z</time>
      </trkpt>
      <trkpt lat="44.47268" lon="6.20446">
        <ele>1148</ele>
        <time>2025-11-21T09:50:13.000Z</time>
      </trkpt>
      <trkpt lat="44.47268" lon="6.20444">
        <ele>1148</ele>
        <time>2025-11-21T09:50:14.000Z</time>
      </trkpt>
      <trkpt lat="44.47267" lon="6.20443">
        <ele>1147</ele>
        <time>2025-11-21T09:50:15.000Z</time>
      </trkpt>
      <trkpt lat="44.47266" lon="6.20441">
        <ele>1147</ele>
        <time>2025-11-21T09:50:16.000Z</time>
      </trkpt>
      <trkpt lat="44.47266" lon="6.20439">
        <ele>1147</ele>
        <time>2025-11-21T09:50:17.000Z</time>
      </trkpt>
      <trkpt lat="44.47265" lon="6.20438">
        <ele>1148</ele>
        <time>2025-11-21T09:50:18.000Z</time>
      </trkpt>
      <trkpt lat="44.47265" lon="6.20438">
        <ele>1148</ele>
        <time>2025-11-21T09:50:19.000Z</time>
      </trkpt>
      <trkpt lat="44.47264" lon="6.20437">
        <ele>1148</ele>
        <time>2025-11-21T09:50:20.000Z</time>
      </trkpt>
      <trkpt lat="44.47264" lon="6.20436">
        <ele>1148</ele>
        <time>2025-11-21T09:50:21.000Z</time>
      </trkpt>
      <trkpt lat="44.47264" lon="6.20434">
        <ele>1149</ele>
        <time>2025-11-21T09:50:22.000Z</time>
      </trkpt>
      <trkpt lat="44.47264" lon="6.20433">
        <ele>1149</ele>
        <time>2025-11-21T09:50:23.000Z</time>
      </trkpt>
      <trkpt lat="44.47263" lon="6.20431">
        <ele>1149</ele>
        <time>2025-11-21T09:50:24.000Z</time>
      </trkpt>
      <trkpt lat="44.47263" lon="6.2043">
        <ele>1149</ele>
        <time>2025-11-21T09:50:25.000Z</time>
      </trkpt>
      <trkpt lat="44.47263" lon="6.20429">
        <ele>1149</ele>
        <time>2025-11-21T09:50:26.000Z</time>
      </trkpt>
      <trkpt lat="44.47263" lon="6.20428">
        <ele>1148</ele>
        <time>2025-11-21T09:50:27.000Z</time>
      </trkpt>
      <trkpt lat="44.47263" lon="6.20426">
        <ele>1148</ele>
        <time>2025-11-21T09:50:28.000Z</time>
      </trkpt>
      <trkpt lat="44.47264" lon="6.20424">
        <ele>1148</ele>
        <time>2025-11-21T09:50:29.000Z</time>
      </trkpt>
      <trkpt lat="44.47264" lon="6.20423">
        <ele>1146</ele>
        <time>2025-11-21T09:50:30.000Z</time>
      </trkpt>
      <trkpt lat="44.47264" lon="6.20421">
        <ele>1146</ele>
        <time>2025-11-21T09:50:31.000Z</time>
      </trkpt>
      <trkpt lat="44.47264" lon="6.2042">
        <ele>1146</ele>
        <time>2025-11-21T09:50:32.000Z</time>
      </trkpt>
      <trkpt lat="44.47264" lon="6.20419">
        <ele>1147</ele>
        <time>2025-11-21T09:50:33.000Z</time>
      </trkpt>
      <trkpt lat="44.47265" lon="6.20417">
        <ele>1146</ele>
        <time>2025-11-21T09:50:34.000Z</time>
      </trkpt>
      <trkpt lat="44.47265" lon="6.20416">
        <ele>1146</ele>
        <time>2025-11-21T09:50:35.000Z</time>
      </trkpt>
      <trkpt lat="44.47265" lon="6.20416">
        <ele>1147</ele>
        <time>2025-11-21T09:50:36.000Z</time>
      </trkpt>
      <trkpt lat="44.47264" lon="6.20415">
        <ele>1147</ele>
        <time>2025-11-21T09:50:37.000Z</time>
      </trkpt>
      <trkpt lat="44.47265" lon="6.20414">
        <ele>1147</ele>
        <time>2025-11-21T09:50:38.000Z</time>
      </trkpt>
      <trkpt lat="44.47264" lon="6.20414">
        <ele>1147</ele>
        <time>2025-11-21T09:50:39.000Z</time>
      </trkpt>
      <trkpt lat="44.47265" lon="6.20411">
        <ele>1147</ele>
        <time>2025-11-21T09:50:53.000Z</time>
      </trkpt>
      <trkpt lat="44.47265" lon="6.2041">
        <ele>1147</ele>
        <time>2025-11-21T09:50:54.000Z</time>
      </trkpt>
      <trkpt lat="44.47265" lon="6.20408">
        <ele>1147</ele>
        <time>2025-11-21T09:50:55.000Z</time>
      </trkpt>
      <trkpt lat="44.47265" lon="6.20407">
        <ele>1147</ele>
        <time>2025-11-21T09:50:56.000Z</time>
      </trkpt>
      <trkpt lat="44.47265" lon="6.20407">
        <ele>1147</ele>
        <time>2025-11-21T09:50:57.000Z</time>
      </trkpt>
      <trkpt lat="44.47265" lon="6.20407">
        <ele>1147</ele>
        <time>2025-11-21T09:50:58.000Z</time>
      </trkpt>
      <trkpt lat="44.47266" lon="6.20406">
        <ele>1147</ele>
        <time>2025-11-21T09:50:59.000Z</time>
      </trkpt>
      <trkpt lat="44.47267" lon="6.20405">
        <ele>1146</ele>
        <time>2025-11-21T09:51:00.000Z</time>
      </trkpt>
      <trkpt lat="44.47267" lon="6.20404">
        <ele>1146</ele>
        <time>2025-11-21T09:51:01.000Z</time>
      </trkpt>
      <trkpt lat="44.47268" lon="6.20403">
        <ele>1147</ele>
        <time>2025-11-21T09:51:02.000Z</time>
      </trkpt>
      <trkpt lat="44.47268" lon="6.20402">
        <ele>1147</ele>
        <time>2025-11-21T09:51:03.000Z</time>
      </trkpt>
      <trkpt lat="44.47268" lon="6.20401">
        <ele>1147</ele>
        <time>2025-11-21T09:51:04.000Z</time>
      </trkpt>
      <trkpt lat="44.47269" lon="6.204">
        <ele>1147</ele>
        <time>2025-11-21T09:51:05.000Z</time>
      </trkpt>
      <trkpt lat="44.47269" lon="6.20399">
        <ele>1147</ele>
        <time>2025-11-21T09:51:06.000Z</time>
      </trkpt>
      <trkpt lat="44.4727" lon="6.20398">
        <ele>1147</ele>
        <time>2025-11-21T09:51:07.000Z</time>
      </trkpt>
      <trkpt lat="44.4727" lon="6.20397">
        <ele>1147</ele>
        <time>2025-11-21T09:51:08.000Z</time>
      </trkpt>
      <trkpt lat="44.47271" lon="6.20396">
        <ele>1148</ele>
        <time>2025-11-21T09:51:09.000Z</time>
      </trkpt>
      <trkpt lat="44.47272" lon="6.20396">
        <ele>1147</ele>
        <time>2025-11-21T09:51:10.000Z</time>
      </trkpt>
      <trkpt lat="44.47272" lon="6.20395">
        <ele>1147</ele>
        <time>2025-11-21T09:51:11.000Z</time>
      </trkpt>
      <trkpt lat="44.47272" lon="6.20394">
        <ele>1146</ele>
        <time>2025-11-21T09:51:12.000Z</time>
      </trkpt>
      <trkpt lat="44.47272" lon="6.20393">
        <ele>1146</ele>
        <time>2025-11-21T09:51:13.000Z</time>
      </trkpt>
      <trkpt lat="44.47273" lon="6.20393">
        <ele>1145</ele>
        <time>2025-11-21T09:51:14.000Z</time>
      </trkpt>
      <trkpt lat="44.47273" lon="6.20393">
        <ele>1145</ele>
        <time>2025-11-21T09:51:15.000Z</time>
      </trkpt>
      <trkpt lat="44.47273" lon="6.20393">
        <ele>1145</ele>
        <time>2025-11-21T09:51:16.000Z</time>
      </trkpt>
      <trkpt lat="44.47273" lon="6.20391">
        <ele>1145</ele>
        <time>2025-11-21T09:51:17.000Z</time>
      </trkpt>
      <trkpt lat="44.47274" lon="6.2039">
        <ele>1144</ele>
        <time>2025-11-21T09:51:18.000Z</time>
      </trkpt>
      <trkpt lat="44.47274" lon="6.2039">
        <ele>1144</ele>
        <time>2025-11-21T09:51:19.000Z</time>
      </trkpt>
      <trkpt lat="44.47275" lon="6.20389">
        <ele>1144</ele>
        <time>2025-11-21T09:51:20.000Z</time>
      </trkpt>
      <trkpt lat="44.47276" lon="6.20388">
        <ele>1144</ele>
        <time>2025-11-21T09:51:21.000Z</time>
      </trkpt>
      <trkpt lat="44.47276" lon="6.20387">
        <ele>1144</ele>
        <time>2025-11-21T09:51:22.000Z</time>
      </trkpt>
      <trkpt lat="44.47277" lon="6.20386">
        <ele>1143</ele>
        <time>2025-11-21T09:51:23.000Z</time>
      </trkpt>
      <trkpt lat="44.47277" lon="6.20385">
        <ele>1143</ele>
        <time>2025-11-21T09:51:24.000Z</time>
      </trkpt>
      <trkpt lat="44.47278" lon="6.20384">
        <ele>1143</ele>
        <time>2025-11-21T09:51:25.000Z</time>
      </trkpt>
      <trkpt lat="44.47279" lon="6.20382">
        <ele>1143</ele>
        <time>2025-11-21T09:51:26.000Z</time>
      </trkpt>
      <trkpt lat="44.47279" lon="6.20382">
        <ele>1144</ele>
        <time>2025-11-21T09:51:27.000Z</time>
      </trkpt>
      <trkpt lat="44.4728" lon="6.20381">
        <ele>1143</ele>
        <time>2025-11-21T09:51:28.000Z</time>
      </trkpt>
      <trkpt lat="44.4728" lon="6.20381">
        <ele>1143</ele>
        <time>2025-11-21T09:51:29.000Z</time>
      </trkpt>
      <trkpt lat="44.4728" lon="6.20381">
        <ele>1143</ele>
        <time>2025-11-21T09:51:30.000Z</time>
      </trkpt>
      <trkpt lat="44.47281" lon="6.2038">
        <ele>1143</ele>
        <time>2025-11-21T09:51:31.000Z</time>
      </trkpt>
      <trkpt lat="44.47282" lon="6.20378">
        <ele>1143</ele>
        <time>2025-11-21T09:51:32.000Z</time>
      </trkpt>
      <trkpt lat="44.47283" lon="6.20378">
        <ele>1143</ele>
        <time>2025-11-21T09:51:33.000Z</time>
      </trkpt>
      <trkpt lat="44.47283" lon="6.20377">
        <ele>1143</ele>
        <time>2025-11-21T09:51:34.000Z</time>
      </trkpt>
      <trkpt lat="44.47284" lon="6.20376">
        <ele>1143</ele>
        <time>2025-11-21T09:51:35.000Z</time>
      </trkpt>
      <trkpt lat="44.47284" lon="6.20376">
        <ele>1143</ele>
        <time>2025-11-21T09:51:36.000Z</time>
      </trkpt>
      <trkpt lat="44.47284" lon="6.20376">
        <ele>1143</ele>
        <time>2025-11-21T09:51:37.000Z</time>
      </trkpt>
      <trkpt lat="44.47285" lon="6.20373">
        <ele>1142</ele>
        <time>2025-11-21T09:51:38.000Z</time>
      </trkpt>
      <trkpt lat="44.47286" lon="6.20372">
        <ele>1142</ele>
        <time>2025-11-21T09:51:39.000Z</time>
      </trkpt>
      <trkpt lat="44.47286" lon="6.20371">
        <ele>1142</ele>
        <time>2025-11-21T09:51:40.000Z</time>
      </trkpt>
      <trkpt lat="44.47287" lon="6.2037">
        <ele>1142</ele>
        <time>2025-11-21T09:51:41.000Z</time>
      </trkpt>
      <trkpt lat="44.47289" lon="6.20369">
        <ele>1143</ele>
        <time>2025-11-21T09:51:42.000Z</time>
      </trkpt>
      <trkpt lat="44.4729" lon="6.20369">
        <ele>1142</ele>
        <time>2025-11-21T09:51:43.000Z</time>
      </trkpt>
      <trkpt lat="44.4729" lon="6.20368">
        <ele>1143</ele>
        <time>2025-11-21T09:51:44.000Z</time>
      </trkpt>
      <trkpt lat="44.47291" lon="6.20368">
        <ele>1143</ele>
        <time>2025-11-21T09:51:45.000Z</time>
      </trkpt>
      <trkpt lat="44.47291" lon="6.20368">
        <ele>1143</ele>
        <time>2025-11-21T09:51:46.000Z</time>
      </trkpt>
      <trkpt lat="44.47291" lon="6.20368">
        <ele>1143</ele>
        <time>2025-11-21T09:51:47.000Z</time>
      </trkpt>
      <trkpt lat="44.47292" lon="6.20367">
        <ele>1143</ele>
        <time>2025-11-21T09:51:48.000Z</time>
      </trkpt>
      <trkpt lat="44.47293" lon="6.20367">
        <ele>1143</ele>
        <time>2025-11-21T09:51:49.000Z</time>
      </trkpt>
      <trkpt lat="44.47294" lon="6.20365">
        <ele>1143</ele>
        <time>2025-11-21T09:51:50.000Z</time>
      </trkpt>
      <trkpt lat="44.47294" lon="6.20364">
        <ele>1142</ele>
        <time>2025-11-21T09:51:51.000Z</time>
      </trkpt>
      <trkpt lat="44.47294" lon="6.20364">
        <ele>1142</ele>
        <time>2025-11-21T09:51:52.000Z</time>
      </trkpt>
      <trkpt lat="44.47294" lon="6.20364">
        <ele>1142</ele>
        <time>2025-11-21T09:51:53.000Z</time>
      </trkpt>
      <trkpt lat="44.47294" lon="6.20363">
        <ele>1141</ele>
        <time>2025-11-21T09:51:54.000Z</time>
      </trkpt>
      <trkpt lat="44.47294" lon="6.20363">
        <ele>1141</ele>
        <time>2025-11-21T09:51:55.000Z</time>
      </trkpt>
      <trkpt lat="44.47294" lon="6.20362">
        <ele>1140</ele>
        <time>2025-11-21T09:51:56.000Z</time>
      </trkpt>
      <trkpt lat="44.47294" lon="6.20361">
        <ele>1140</ele>
        <time>2025-11-21T09:51:57.000Z</time>
      </trkpt>
      <trkpt lat="44.47294" lon="6.20361">
        <ele>1140</ele>
        <time>2025-11-21T09:51:58.000Z</time>
      </trkpt>
      <trkpt lat="44.47294" lon="6.20361">
        <ele>1140</ele>
        <time>2025-11-21T09:51:59.000Z</time>
      </trkpt>
      <trkpt lat="44.47295" lon="6.20359">
        <ele>1139</ele>
        <time>2025-11-21T09:52:00.000Z</time>
      </trkpt>
      <trkpt lat="44.47295" lon="6.20358">
        <ele>1138</ele>
        <time>2025-11-21T09:52:01.000Z</time>
      </trkpt>
      <trkpt lat="44.47296" lon="6.20357">
        <ele>1138</ele>
        <time>2025-11-21T09:52:02.000Z</time>
      </trkpt>
      <trkpt lat="44.47296" lon="6.20356">
        <ele>1138</ele>
        <time>2025-11-21T09:52:03.000Z</time>
      </trkpt>
      <trkpt lat="44.47296" lon="6.20356">
        <ele>1138</ele>
        <time>2025-11-21T09:52:04.000Z</time>
      </trkpt>
      <trkpt lat="44.47296" lon="6.20356">
        <ele>1138</ele>
        <time>2025-11-21T09:52:05.000Z</time>
      </trkpt>
      <trkpt lat="44.47298" lon="6.20353">
        <ele>1137</ele>
        <time>2025-11-21T09:52:06.000Z</time>
      </trkpt>
      <trkpt lat="44.47298" lon="6.20352">
        <ele>1137</ele>
        <time>2025-11-21T09:52:07.000Z</time>
      </trkpt>
      <trkpt lat="44.47298" lon="6.20351">
        <ele>1137</ele>
        <time>2025-11-21T09:52:08.000Z</time>
      </trkpt>
      <trkpt lat="44.47298" lon="6.2035">
        <ele>1137</ele>
        <time>2025-11-21T09:52:09.000Z</time>
      </trkpt>
      <trkpt lat="44.47298" lon="6.20349">
        <ele>1136</ele>
        <time>2025-11-21T09:52:10.000Z</time>
      </trkpt>
      <trkpt lat="44.47298" lon="6.20347">
        <ele>1136</ele>
        <time>2025-11-21T09:52:11.000Z</time>
      </trkpt>
      <trkpt lat="44.47298" lon="6.20344">
        <ele>1135</ele>
        <time>2025-11-21T09:52:12.000Z</time>
      </trkpt>
      <trkpt lat="44.47298" lon="6.20342">
        <ele>1135</ele>
        <time>2025-11-21T09:52:13.000Z</time>
      </trkpt>
      <trkpt lat="44.47298" lon="6.20341">
        <ele>1135</ele>
        <time>2025-11-21T09:52:14.000Z</time>
      </trkpt>
      <trkpt lat="44.47298" lon="6.20339">
        <ele>1135</ele>
        <time>2025-11-21T09:52:15.000Z</time>
      </trkpt>
      <trkpt lat="44.47298" lon="6.20337">
        <ele>1134</ele>
        <time>2025-11-21T09:52:16.000Z</time>
      </trkpt>
      <trkpt lat="44.47298" lon="6.20335">
        <ele>1134</ele>
        <time>2025-11-21T09:52:17.000Z</time>
      </trkpt>
      <trkpt lat="44.47297" lon="6.20334">
        <ele>1134</ele>
        <time>2025-11-21T09:52:18.000Z</time>
      </trkpt>
      <trkpt lat="44.47297" lon="6.20332">
        <ele>1135</ele>
        <time>2025-11-21T09:52:19.000Z</time>
      </trkpt>
      <trkpt lat="44.47296" lon="6.20331">
        <ele>1134</ele>
        <time>2025-11-21T09:52:20.000Z</time>
      </trkpt>
      <trkpt lat="44.47295" lon="6.20328">
        <ele>1134</ele>
        <time>2025-11-21T09:52:21.000Z</time>
      </trkpt>
      <trkpt lat="44.47295" lon="6.20326">
        <ele>1134</ele>
        <time>2025-11-21T09:52:22.000Z</time>
      </trkpt>
      <trkpt lat="44.47296" lon="6.20325">
        <ele>1134</ele>
        <time>2025-11-21T09:52:23.000Z</time>
      </trkpt>
      <trkpt lat="44.47296" lon="6.20324">
        <ele>1134</ele>
        <time>2025-11-21T09:52:24.000Z</time>
      </trkpt>
      <trkpt lat="44.47296" lon="6.20322">
        <ele>1133</ele>
        <time>2025-11-21T09:52:25.000Z</time>
      </trkpt>
      <trkpt lat="44.47296" lon="6.20321">
        <ele>1133</ele>
        <time>2025-11-21T09:52:26.000Z</time>
      </trkpt>
      <trkpt lat="44.47295" lon="6.20319">
        <ele>1133</ele>
        <time>2025-11-21T09:52:27.000Z</time>
      </trkpt>
      <trkpt lat="44.47295" lon="6.20318">
        <ele>1134</ele>
        <time>2025-11-21T09:52:28.000Z</time>
      </trkpt>
      <trkpt lat="44.47295" lon="6.20317">
        <ele>1134</ele>
        <time>2025-11-21T09:52:29.000Z</time>
      </trkpt>
      <trkpt lat="44.47294" lon="6.20315">
        <ele>1134</ele>
        <time>2025-11-21T09:52:30.000Z</time>
      </trkpt>
      <trkpt lat="44.47294" lon="6.20313">
        <ele>1135</ele>
        <time>2025-11-21T09:52:31.000Z</time>
      </trkpt>
      <trkpt lat="44.47293" lon="6.20312">
        <ele>1135</ele>
        <time>2025-11-21T09:52:32.000Z</time>
      </trkpt>
      <trkpt lat="44.47293" lon="6.2031">
        <ele>1135</ele>
        <time>2025-11-21T09:52:33.000Z</time>
      </trkpt>
      <trkpt lat="44.47292" lon="6.20309">
        <ele>1135</ele>
        <time>2025-11-21T09:52:34.000Z</time>
      </trkpt>
      <trkpt lat="44.47292" lon="6.20307">
        <ele>1135</ele>
        <time>2025-11-21T09:52:35.000Z</time>
      </trkpt>
      <trkpt lat="44.47291" lon="6.20306">
        <ele>1136</ele>
        <time>2025-11-21T09:52:36.000Z</time>
      </trkpt>
      <trkpt lat="44.47291" lon="6.20305">
        <ele>1136</ele>
        <time>2025-11-21T09:52:37.000Z</time>
      </trkpt>
      <trkpt lat="44.47291" lon="6.20305">
        <ele>1136</ele>
        <time>2025-11-21T09:52:38.000Z</time>
      </trkpt>
      <trkpt lat="44.47291" lon="6.20304">
        <ele>1136</ele>
        <time>2025-11-21T09:52:39.000Z</time>
      </trkpt>
      <trkpt lat="44.4729" lon="6.20303">
        <ele>1136</ele>
        <time>2025-11-21T09:52:40.000Z</time>
      </trkpt>
      <trkpt lat="44.47289" lon="6.20302">
        <ele>1136</ele>
        <time>2025-11-21T09:52:41.000Z</time>
      </trkpt>
      <trkpt lat="44.47289" lon="6.20301">
        <ele>1136</ele>
        <time>2025-11-21T09:52:42.000Z</time>
      </trkpt>
      <trkpt lat="44.4729" lon="6.20299">
        <ele>1135</ele>
        <time>2025-11-21T09:52:43.000Z</time>
      </trkpt>
      <trkpt lat="44.47289" lon="6.20298">
        <ele>1135</ele>
        <time>2025-11-21T09:52:44.000Z</time>
      </trkpt>
      <trkpt lat="44.47289" lon="6.20296">
        <ele>1135</ele>
        <time>2025-11-21T09:52:45.000Z</time>
      </trkpt>
      <trkpt lat="44.47289" lon="6.20295">
        <ele>1135</ele>
        <time>2025-11-21T09:52:46.000Z</time>
      </trkpt>
      <trkpt lat="44.47289" lon="6.20293">
        <ele>1134</ele>
        <time>2025-11-21T09:52:47.000Z</time>
      </trkpt>
      <trkpt lat="44.47289" lon="6.20292">
        <ele>1134</ele>
        <time>2025-11-21T09:52:48.000Z</time>
      </trkpt>
      <trkpt lat="44.47289" lon="6.2029">
        <ele>1134</ele>
        <time>2025-11-21T09:52:49.000Z</time>
      </trkpt>
      <trkpt lat="44.47289" lon="6.20289">
        <ele>1134</ele>
        <time>2025-11-21T09:52:50.000Z</time>
      </trkpt>
      <trkpt lat="44.47288" lon="6.20288">
        <ele>1135</ele>
        <time>2025-11-21T09:52:51.000Z</time>
      </trkpt>
      <trkpt lat="44.47288" lon="6.20286">
        <ele>1134</ele>
        <time>2025-11-21T09:52:52.000Z</time>
      </trkpt>
      <trkpt lat="44.47288" lon="6.20286">
        <ele>1134</ele>
        <time>2025-11-21T09:52:53.000Z</time>
      </trkpt>
      <trkpt lat="44.47288" lon="6.20285">
        <ele>1134</ele>
        <time>2025-11-21T09:52:54.000Z</time>
      </trkpt>
      <trkpt lat="44.47288" lon="6.20285">
        <ele>1134</ele>
        <time>2025-11-21T09:52:55.000Z</time>
      </trkpt>
      <trkpt lat="44.47288" lon="6.20283">
        <ele>1134</ele>
        <time>2025-11-21T09:52:56.000Z</time>
      </trkpt>
      <trkpt lat="44.47288" lon="6.20281">
        <ele>1133</ele>
        <time>2025-11-21T09:52:57.000Z</time>
      </trkpt>
      <trkpt lat="44.47288" lon="6.2028">
        <ele>1133</ele>
        <time>2025-11-21T09:52:58.000Z</time>
      </trkpt>
      <trkpt lat="44.47288" lon="6.2028">
        <ele>1133</ele>
        <time>2025-11-21T09:52:59.000Z</time>
      </trkpt>
      <trkpt lat="44.47288" lon="6.2028">
        <ele>1133</ele>
        <time>2025-11-21T09:53:00.000Z</time>
      </trkpt>
      <trkpt lat="44.47287" lon="6.20278">
        <ele>1133</ele>
        <time>2025-11-21T09:53:01.000Z</time>
      </trkpt>
      <trkpt lat="44.47287" lon="6.20278">
        <ele>1133</ele>
        <time>2025-11-21T09:53:02.000Z</time>
      </trkpt>
      <trkpt lat="44.47287" lon="6.20276">
        <ele>1132</ele>
        <time>2025-11-21T09:53:03.000Z</time>
      </trkpt>
      <trkpt lat="44.47287" lon="6.20275">
        <ele>1132</ele>
        <time>2025-11-21T09:53:04.000Z</time>
      </trkpt>
      <trkpt lat="44.47287" lon="6.20274">
        <ele>1132</ele>
        <time>2025-11-21T09:53:05.000Z</time>
      </trkpt>
      <trkpt lat="44.47287" lon="6.20272">
        <ele>1132</ele>
        <time>2025-11-21T09:53:06.000Z</time>
      </trkpt>
      <trkpt lat="44.47287" lon="6.20271">
        <ele>1131</ele>
        <time>2025-11-21T09:53:07.000Z</time>
      </trkpt>
      <trkpt lat="44.47287" lon="6.20269">
        <ele>1131</ele>
        <time>2025-11-21T09:53:08.000Z</time>
      </trkpt>
      <trkpt lat="44.47287" lon="6.20267">
        <ele>1131</ele>
        <time>2025-11-21T09:53:09.000Z</time>
      </trkpt>
      <trkpt lat="44.47287" lon="6.20266">
        <ele>1130</ele>
        <time>2025-11-21T09:53:10.000Z</time>
      </trkpt>
      <trkpt lat="44.47287" lon="6.20266">
        <ele>1130</ele>
        <time>2025-11-21T09:53:11.000Z</time>
      </trkpt>
      <trkpt lat="44.47287" lon="6.20266">
        <ele>1130</ele>
        <time>2025-11-21T09:53:12.000Z</time>
      </trkpt>
      <trkpt lat="44.47287" lon="6.20263">
        <ele>1130</ele>
        <time>2025-11-21T09:53:13.000Z</time>
      </trkpt>
      <trkpt lat="44.47287" lon="6.20262">
        <ele>1129</ele>
        <time>2025-11-21T09:53:14.000Z</time>
      </trkpt>
      <trkpt lat="44.47286" lon="6.2026">
        <ele>1129</ele>
        <time>2025-11-21T09:53:15.000Z</time>
      </trkpt>
      <trkpt lat="44.47286" lon="6.2026">
        <ele>1129</ele>
        <time>2025-11-21T09:53:16.000Z</time>
      </trkpt>
      <trkpt lat="44.47286" lon="6.20258">
        <ele>1128</ele>
        <time>2025-11-21T09:53:17.000Z</time>
      </trkpt>
      <trkpt lat="44.47286" lon="6.20256">
        <ele>1129</ele>
        <time>2025-11-21T09:53:18.000Z</time>
      </trkpt>
      <trkpt lat="44.47286" lon="6.20255">
        <ele>1130</ele>
        <time>2025-11-21T09:53:19.000Z</time>
      </trkpt>
      <trkpt lat="44.47285" lon="6.20253">
        <ele>1130</ele>
        <time>2025-11-21T09:53:20.000Z</time>
      </trkpt>
      <trkpt lat="44.47285" lon="6.20251">
        <ele>1130</ele>
        <time>2025-11-21T09:53:21.000Z</time>
      </trkpt>
      <trkpt lat="44.47285" lon="6.2025">
        <ele>1130</ele>
        <time>2025-11-21T09:53:22.000Z</time>
      </trkpt>
      <trkpt lat="44.47285" lon="6.20248">
        <ele>1130</ele>
        <time>2025-11-21T09:53:23.000Z</time>
      </trkpt>
      <trkpt lat="44.47285" lon="6.20247">
        <ele>1130</ele>
        <time>2025-11-21T09:53:24.000Z</time>
      </trkpt>
      <trkpt lat="44.47284" lon="6.20245">
        <ele>1129</ele>
        <time>2025-11-21T09:53:25.000Z</time>
      </trkpt>
      <trkpt lat="44.47284" lon="6.20243">
        <ele>1129</ele>
        <time>2025-11-21T09:53:26.000Z</time>
      </trkpt>
      <trkpt lat="44.47284" lon="6.20241">
        <ele>1129</ele>
        <time>2025-11-21T09:53:27.000Z</time>
      </trkpt>
      <trkpt lat="44.47284" lon="6.20239">
        <ele>1129</ele>
        <time>2025-11-21T09:53:28.000Z</time>
      </trkpt>
      <trkpt lat="44.47284" lon="6.20237">
        <ele>1129</ele>
        <time>2025-11-21T09:53:29.000Z</time>
      </trkpt>
      <trkpt lat="44.47283" lon="6.20235">
        <ele>1129</ele>
        <time>2025-11-21T09:53:30.000Z</time>
      </trkpt>
      <trkpt lat="44.47283" lon="6.20233">
        <ele>1129</ele>
        <time>2025-11-21T09:53:31.000Z</time>
      </trkpt>
      <trkpt lat="44.47283" lon="6.20231">
        <ele>1130</ele>
        <time>2025-11-21T09:53:32.000Z</time>
      </trkpt>
      <trkpt lat="44.47283" lon="6.2023">
        <ele>1129</ele>
        <time>2025-11-21T09:53:33.000Z</time>
      </trkpt>
      <trkpt lat="44.47283" lon="6.20227">
        <ele>1129</ele>
        <time>2025-11-21T09:53:34.000Z</time>
      </trkpt>
      <trkpt lat="44.47283" lon="6.20226">
        <ele>1129</ele>
        <time>2025-11-21T09:53:35.000Z</time>
      </trkpt>
      <trkpt lat="44.47282" lon="6.20225">
        <ele>1129</ele>
        <time>2025-11-21T09:53:36.000Z</time>
      </trkpt>
      <trkpt lat="44.47282" lon="6.20223">
        <ele>1130</ele>
        <time>2025-11-21T09:53:37.000Z</time>
      </trkpt>
      <trkpt lat="44.47282" lon="6.20222">
        <ele>1130</ele>
        <time>2025-11-21T09:53:38.000Z</time>
      </trkpt>
      <trkpt lat="44.47282" lon="6.20222">
        <ele>1130</ele>
        <time>2025-11-21T09:53:39.000Z</time>
      </trkpt>
      <trkpt lat="44.47283" lon="6.2022">
        <ele>1130</ele>
        <time>2025-11-21T09:53:40.000Z</time>
      </trkpt>
      <trkpt lat="44.47283" lon="6.20218">
        <ele>1130</ele>
        <time>2025-11-21T09:53:41.000Z</time>
      </trkpt>
      <trkpt lat="44.47283" lon="6.20217">
        <ele>1129</ele>
        <time>2025-11-21T09:53:42.000Z</time>
      </trkpt>
      <trkpt lat="44.47283" lon="6.20215">
        <ele>1129</ele>
        <time>2025-11-21T09:53:43.000Z</time>
      </trkpt>
      <trkpt lat="44.47282" lon="6.20214">
        <ele>1129</ele>
        <time>2025-11-21T09:53:44.000Z</time>
      </trkpt>
      <trkpt lat="44.47282" lon="6.20212">
        <ele>1129</ele>
        <time>2025-11-21T09:53:45.000Z</time>
      </trkpt>
      <trkpt lat="44.47282" lon="6.20211">
        <ele>1129</ele>
        <time>2025-11-21T09:53:46.000Z</time>
      </trkpt>
      <trkpt lat="44.47282" lon="6.20209">
        <ele>1129</ele>
        <time>2025-11-21T09:53:47.000Z</time>
      </trkpt>
      <trkpt lat="44.47282" lon="6.20208">
        <ele>1129</ele>
        <time>2025-11-21T09:53:48.000Z</time>
      </trkpt>
      <trkpt lat="44.47281" lon="6.20208">
        <ele>1129</ele>
        <time>2025-11-21T09:53:49.000Z</time>
      </trkpt>
      <trkpt lat="44.47281" lon="6.20206">
        <ele>1130</ele>
        <time>2025-11-21T09:53:50.000Z</time>
      </trkpt>
      <trkpt lat="44.47281" lon="6.20205">
        <ele>1130</ele>
        <time>2025-11-21T09:53:51.000Z</time>
      </trkpt>
      <trkpt lat="44.47281" lon="6.20205">
        <ele>1130</ele>
        <time>2025-11-21T09:53:52.000Z</time>
      </trkpt>
      <trkpt lat="44.4728" lon="6.20203">
        <ele>1129</ele>
        <time>2025-11-21T09:53:53.000Z</time>
      </trkpt>
      <trkpt lat="44.4728" lon="6.20201">
        <ele>1129</ele>
        <time>2025-11-21T09:53:54.000Z</time>
      </trkpt>
      <trkpt lat="44.4728" lon="6.202">
        <ele>1128</ele>
        <time>2025-11-21T09:53:55.000Z</time>
      </trkpt>
      <trkpt lat="44.47279" lon="6.20198">
        <ele>1128</ele>
        <time>2025-11-21T09:53:56.000Z</time>
      </trkpt>
      <trkpt lat="44.47279" lon="6.20196">
        <ele>1128</ele>
        <time>2025-11-21T09:53:57.000Z</time>
      </trkpt>
      <trkpt lat="44.4728" lon="6.20195">
        <ele>1127</ele>
        <time>2025-11-21T09:53:58.000Z</time>
      </trkpt>
      <trkpt lat="44.47279" lon="6.20193">
        <ele>1127</ele>
        <time>2025-11-21T09:53:59.000Z</time>
      </trkpt>
      <trkpt lat="44.47279" lon="6.20192">
        <ele>1127</ele>
        <time>2025-11-21T09:54:00.000Z</time>
      </trkpt>
      <trkpt lat="44.47279" lon="6.2019">
        <ele>1127</ele>
        <time>2025-11-21T09:54:01.000Z</time>
      </trkpt>
      <trkpt lat="44.47279" lon="6.20189">
        <ele>1127</ele>
        <time>2025-11-21T09:54:02.000Z</time>
      </trkpt>
      <trkpt lat="44.47279" lon="6.20187">
        <ele>1127</ele>
        <time>2025-11-21T09:54:03.000Z</time>
      </trkpt>
      <trkpt lat="44.47279" lon="6.20185">
        <ele>1127</ele>
        <time>2025-11-21T09:54:04.000Z</time>
      </trkpt>
      <trkpt lat="44.47278" lon="6.20184">
        <ele>1127</ele>
        <time>2025-11-21T09:54:05.000Z</time>
      </trkpt>
      <trkpt lat="44.47278" lon="6.20183">
        <ele>1128</ele>
        <time>2025-11-21T09:54:06.000Z</time>
      </trkpt>
      <trkpt lat="44.47278" lon="6.20182">
        <ele>1128</ele>
        <time>2025-11-21T09:54:07.000Z</time>
      </trkpt>
      <trkpt lat="44.47278" lon="6.20181">
        <ele>1128</ele>
        <time>2025-11-21T09:54:08.000Z</time>
      </trkpt>
      <trkpt lat="44.47277" lon="6.20179">
        <ele>1128</ele>
        <time>2025-11-21T09:54:09.000Z</time>
      </trkpt>
      <trkpt lat="44.47277" lon="6.20179">
        <ele>1127</ele>
        <time>2025-11-21T09:54:10.000Z</time>
      </trkpt>
      <trkpt lat="44.47277" lon="6.20178">
        <ele>1127</ele>
        <time>2025-11-21T09:54:11.000Z</time>
      </trkpt>
      <trkpt lat="44.47276" lon="6.20177">
        <ele>1127</ele>
        <time>2025-11-21T09:54:12.000Z</time>
      </trkpt>
      <trkpt lat="44.47276" lon="6.20176">
        <ele>1127</ele>
        <time>2025-11-21T09:54:13.000Z</time>
      </trkpt>
      <trkpt lat="44.47275" lon="6.20174">
        <ele>1127</ele>
        <time>2025-11-21T09:54:14.000Z</time>
      </trkpt>
      <trkpt lat="44.47274" lon="6.20173">
        <ele>1128</ele>
        <time>2025-11-21T09:54:15.000Z</time>
      </trkpt>
      <trkpt lat="44.47274" lon="6.20172">
        <ele>1127</ele>
        <time>2025-11-21T09:54:16.000Z</time>
      </trkpt>
      <trkpt lat="44.47273" lon="6.20171">
        <ele>1127</ele>
        <time>2025-11-21T09:54:17.000Z</time>
      </trkpt>
      <trkpt lat="44.47273" lon="6.20169">
        <ele>1127</ele>
        <time>2025-11-21T09:54:18.000Z</time>
      </trkpt>
      <trkpt lat="44.47272" lon="6.20168">
        <ele>1127</ele>
        <time>2025-11-21T09:54:19.000Z</time>
      </trkpt>
      <trkpt lat="44.47272" lon="6.20166">
        <ele>1126</ele>
        <time>2025-11-21T09:54:20.000Z</time>
      </trkpt>
      <trkpt lat="44.47271" lon="6.20165">
        <ele>1126</ele>
        <time>2025-11-21T09:54:21.000Z</time>
      </trkpt>
      <trkpt lat="44.47271" lon="6.20164">
        <ele>1127</ele>
        <time>2025-11-21T09:54:22.000Z</time>
      </trkpt>
      <trkpt lat="44.4727" lon="6.20162">
        <ele>1126</ele>
        <time>2025-11-21T09:54:23.000Z</time>
      </trkpt>
      <trkpt lat="44.4727" lon="6.2016">
        <ele>1126</ele>
        <time>2025-11-21T09:54:24.000Z</time>
      </trkpt>
      <trkpt lat="44.47269" lon="6.20159">
        <ele>1126</ele>
        <time>2025-11-21T09:54:25.000Z</time>
      </trkpt>
      <trkpt lat="44.47268" lon="6.20157">
        <ele>1126</ele>
        <time>2025-11-21T09:54:26.000Z</time>
      </trkpt>
      <trkpt lat="44.47268" lon="6.20156">
        <ele>1126</ele>
        <time>2025-11-21T09:54:27.000Z</time>
      </trkpt>
      <trkpt lat="44.47267" lon="6.20155">
        <ele>1126</ele>
        <time>2025-11-21T09:54:28.000Z</time>
      </trkpt>
      <trkpt lat="44.47267" lon="6.20153">
        <ele>1126</ele>
        <time>2025-11-21T09:54:29.000Z</time>
      </trkpt>
      <trkpt lat="44.47267" lon="6.20151">
        <ele>1126</ele>
        <time>2025-11-21T09:54:30.000Z</time>
      </trkpt>
      <trkpt lat="44.47267" lon="6.2015">
        <ele>1126</ele>
        <time>2025-11-21T09:54:31.000Z</time>
      </trkpt>
      <trkpt lat="44.47266" lon="6.20148">
        <ele>1126</ele>
        <time>2025-11-21T09:54:32.000Z</time>
      </trkpt>
      <trkpt lat="44.47266" lon="6.20147">
        <ele>1127</ele>
        <time>2025-11-21T09:54:33.000Z</time>
      </trkpt>
      <trkpt lat="44.47266" lon="6.20147">
        <ele>1127</ele>
        <time>2025-11-21T09:54:34.000Z</time>
      </trkpt>
      <trkpt lat="44.47266" lon="6.20146">
        <ele>1127</ele>
        <time>2025-11-21T09:54:35.000Z</time>
      </trkpt>
      <trkpt lat="44.47266" lon="6.20144">
        <ele>1126</ele>
        <time>2025-11-21T09:54:36.000Z</time>
      </trkpt>
      <trkpt lat="44.47266" lon="6.20142">
        <ele>1126</ele>
        <time>2025-11-21T09:54:37.000Z</time>
      </trkpt>
      <trkpt lat="44.47265" lon="6.2014">
        <ele>1125</ele>
        <time>2025-11-21T09:54:38.000Z</time>
      </trkpt>
      <trkpt lat="44.47265" lon="6.20139">
        <ele>1125</ele>
        <time>2025-11-21T09:54:39.000Z</time>
      </trkpt>
      <trkpt lat="44.47265" lon="6.20137">
        <ele>1125</ele>
        <time>2025-11-21T09:54:40.000Z</time>
      </trkpt>
      <trkpt lat="44.47265" lon="6.20136">
        <ele>1126</ele>
        <time>2025-11-21T09:54:41.000Z</time>
      </trkpt>
      <trkpt lat="44.47264" lon="6.20135">
        <ele>1125</ele>
        <time>2025-11-21T09:54:42.000Z</time>
      </trkpt>
      <trkpt lat="44.47264" lon="6.20134">
        <ele>1125</ele>
        <time>2025-11-21T09:54:43.000Z</time>
      </trkpt>
      <trkpt lat="44.47264" lon="6.20133">
        <ele>1124</ele>
        <time>2025-11-21T09:54:44.000Z</time>
      </trkpt>
      <trkpt lat="44.47264" lon="6.20131">
        <ele>1125</ele>
        <time>2025-11-21T09:54:45.000Z</time>
      </trkpt>
      <trkpt lat="44.47264" lon="6.2013">
        <ele>1124</ele>
        <time>2025-11-21T09:54:46.000Z</time>
      </trkpt>
      <trkpt lat="44.47263" lon="6.20128">
        <ele>1124</ele>
        <time>2025-11-21T09:54:47.000Z</time>
      </trkpt>
      <trkpt lat="44.47263" lon="6.20128">
        <ele>1124</ele>
        <time>2025-11-21T09:54:48.000Z</time>
      </trkpt>
      <trkpt lat="44.47263" lon="6.20128">
        <ele>1124</ele>
        <time>2025-11-21T09:54:49.000Z</time>
      </trkpt>
      <trkpt lat="44.47263" lon="6.20125">
        <ele>1125</ele>
        <time>2025-11-21T09:54:50.000Z</time>
      </trkpt>
      <trkpt lat="44.47262" lon="6.20123">
        <ele>1125</ele>
        <time>2025-11-21T09:54:51.000Z</time>
      </trkpt>
      <trkpt lat="44.47261" lon="6.20122">
        <ele>1125</ele>
        <time>2025-11-21T09:54:52.000Z</time>
      </trkpt>
      <trkpt lat="44.4726" lon="6.20122">
        <ele>1125</ele>
        <time>2025-11-21T09:54:53.000Z</time>
      </trkpt>
      <trkpt lat="44.4726" lon="6.20121">
        <ele>1125</ele>
        <time>2025-11-21T09:54:54.000Z</time>
      </trkpt>
      <trkpt lat="44.47259" lon="6.20121">
        <ele>1126</ele>
        <time>2025-11-21T09:54:55.000Z</time>
      </trkpt>
      <trkpt lat="44.47258" lon="6.20119">
        <ele>1125</ele>
        <time>2025-11-21T09:54:56.000Z</time>
      </trkpt>
      <trkpt lat="44.47257" lon="6.20119">
        <ele>1125</ele>
        <time>2025-11-21T09:54:57.000Z</time>
      </trkpt>
      <trkpt lat="44.47256" lon="6.20118">
        <ele>1125</ele>
        <time>2025-11-21T09:54:58.000Z</time>
      </trkpt>
      <trkpt lat="44.47256" lon="6.20117">
        <ele>1125</ele>
        <time>2025-11-21T09:54:59.000Z</time>
      </trkpt>
      <trkpt lat="44.47255" lon="6.20116">
        <ele>1124</ele>
        <time>2025-11-21T09:55:00.000Z</time>
      </trkpt>
      <trkpt lat="44.47254" lon="6.20114">
        <ele>1125</ele>
        <time>2025-11-21T09:55:01.000Z</time>
      </trkpt>
      <trkpt lat="44.47254" lon="6.20113">
        <ele>1125</ele>
        <time>2025-11-21T09:55:02.000Z</time>
      </trkpt>
      <trkpt lat="44.47253" lon="6.20111">
        <ele>1125</ele>
        <time>2025-11-21T09:55:03.000Z</time>
      </trkpt>
      <trkpt lat="44.47252" lon="6.20109">
        <ele>1125</ele>
        <time>2025-11-21T09:55:04.000Z</time>
      </trkpt>
      <trkpt lat="44.47252" lon="6.20108">
        <ele>1126</ele>
        <time>2025-11-21T09:55:05.000Z</time>
      </trkpt>
      <trkpt lat="44.47251" lon="6.20106">
        <ele>1125</ele>
        <time>2025-11-21T09:55:06.000Z</time>
      </trkpt>
      <trkpt lat="44.47251" lon="6.20105">
        <ele>1125</ele>
        <time>2025-11-21T09:55:07.000Z</time>
      </trkpt>
      <trkpt lat="44.4725" lon="6.20104">
        <ele>1125</ele>
        <time>2025-11-21T09:55:08.000Z</time>
      </trkpt>
      <trkpt lat="44.47249" lon="6.20103">
        <ele>1125</ele>
        <time>2025-11-21T09:55:09.000Z</time>
      </trkpt>
      <trkpt lat="44.4725" lon="6.20102">
        <ele>1123</ele>
        <time>2025-11-21T09:55:10.000Z</time>
      </trkpt>
      <trkpt lat="44.4725" lon="6.20101">
        <ele>1123</ele>
        <time>2025-11-21T09:55:11.000Z</time>
      </trkpt>
      <trkpt lat="44.47249" lon="6.20099">
        <ele>1123</ele>
        <time>2025-11-21T09:55:12.000Z</time>
      </trkpt>
      <trkpt lat="44.47249" lon="6.20098">
        <ele>1123</ele>
        <time>2025-11-21T09:55:13.000Z</time>
      </trkpt>
      <trkpt lat="44.47248" lon="6.20096">
        <ele>1124</ele>
        <time>2025-11-21T09:55:14.000Z</time>
      </trkpt>
      <trkpt lat="44.47248" lon="6.20095">
        <ele>1123</ele>
        <time>2025-11-21T09:55:15.000Z</time>
      </trkpt>
      <trkpt lat="44.47247" lon="6.20093">
        <ele>1124</ele>
        <time>2025-11-21T09:55:16.000Z</time>
      </trkpt>
      <trkpt lat="44.47246" lon="6.20091">
        <ele>1123</ele>
        <time>2025-11-21T09:55:17.000Z</time>
      </trkpt>
      <trkpt lat="44.47246" lon="6.20089">
        <ele>1123</ele>
        <time>2025-11-21T09:55:18.000Z</time>
      </trkpt>
      <trkpt lat="44.47245" lon="6.20088">
        <ele>1124</ele>
        <time>2025-11-21T09:55:19.000Z</time>
      </trkpt>
      <trkpt lat="44.47244" lon="6.20087">
        <ele>1124</ele>
        <time>2025-11-21T09:55:20.000Z</time>
      </trkpt>
      <trkpt lat="44.47244" lon="6.20086">
        <ele>1124</ele>
        <time>2025-11-21T09:55:21.000Z</time>
      </trkpt>
      <trkpt lat="44.47244" lon="6.20085">
        <ele>1124</ele>
        <time>2025-11-21T09:55:22.000Z</time>
      </trkpt>
      <trkpt lat="44.47243" lon="6.20084">
        <ele>1124</ele>
        <time>2025-11-21T09:55:23.000Z</time>
      </trkpt>
      <trkpt lat="44.47243" lon="6.20083">
        <ele>1124</ele>
        <time>2025-11-21T09:55:24.000Z</time>
      </trkpt>
      <trkpt lat="44.47242" lon="6.20082">
        <ele>1124</ele>
        <time>2025-11-21T09:55:25.000Z</time>
      </trkpt>
      <trkpt lat="44.47242" lon="6.20081">
        <ele>1123</ele>
        <time>2025-11-21T09:55:26.000Z</time>
      </trkpt>
      <trkpt lat="44.47242" lon="6.20079">
        <ele>1123</ele>
        <time>2025-11-21T09:55:27.000Z</time>
      </trkpt>
      <trkpt lat="44.47241" lon="6.20077">
        <ele>1123</ele>
        <time>2025-11-21T09:55:28.000Z</time>
      </trkpt>
      <trkpt lat="44.47241" lon="6.20076">
        <ele>1123</ele>
        <time>2025-11-21T09:55:29.000Z</time>
      </trkpt>
      <trkpt lat="44.4724" lon="6.20074">
        <ele>1123</ele>
        <time>2025-11-21T09:55:30.000Z</time>
      </trkpt>
      <trkpt lat="44.4724" lon="6.20073">
        <ele>1122</ele>
        <time>2025-11-21T09:55:31.000Z</time>
      </trkpt>
      <trkpt lat="44.47239" lon="6.20071">
        <ele>1122</ele>
        <time>2025-11-21T09:55:32.000Z</time>
      </trkpt>
      <trkpt lat="44.47238" lon="6.2007">
        <ele>1122</ele>
        <time>2025-11-21T09:55:33.000Z</time>
      </trkpt>
      <trkpt lat="44.47238" lon="6.20068">
        <ele>1121</ele>
        <time>2025-11-21T09:55:34.000Z</time>
      </trkpt>
      <trkpt lat="44.47238" lon="6.20066">
        <ele>1122</ele>
        <time>2025-11-21T09:55:35.000Z</time>
      </trkpt>
      <trkpt lat="44.47237" lon="6.20065">
        <ele>1121</ele>
        <time>2025-11-21T09:55:36.000Z</time>
      </trkpt>
      <trkpt lat="44.47237" lon="6.20064">
        <ele>1121</ele>
        <time>2025-11-21T09:55:37.000Z</time>
      </trkpt>
      <trkpt lat="44.47236" lon="6.20062">
        <ele>1121</ele>
        <time>2025-11-21T09:55:38.000Z</time>
      </trkpt>
      <trkpt lat="44.47236" lon="6.20061">
        <ele>1121</ele>
        <time>2025-11-21T09:55:39.000Z</time>
      </trkpt>
      <trkpt lat="44.47235" lon="6.2006">
        <ele>1121</ele>
        <time>2025-11-21T09:55:40.000Z</time>
      </trkpt>
      <trkpt lat="44.47235" lon="6.20058">
        <ele>1120</ele>
        <time>2025-11-21T09:55:41.000Z</time>
      </trkpt>
      <trkpt lat="44.47235" lon="6.20056">
        <ele>1119</ele>
        <time>2025-11-21T09:55:42.000Z</time>
      </trkpt>
      <trkpt lat="44.47235" lon="6.20054">
        <ele>1119</ele>
        <time>2025-11-21T09:55:43.000Z</time>
      </trkpt>
      <trkpt lat="44.47234" lon="6.20053">
        <ele>1118</ele>
        <time>2025-11-21T09:55:44.000Z</time>
      </trkpt>
      <trkpt lat="44.47234" lon="6.20051">
        <ele>1118</ele>
        <time>2025-11-21T09:55:45.000Z</time>
      </trkpt>
      <trkpt lat="44.47234" lon="6.20049">
        <ele>1118</ele>
        <time>2025-11-21T09:55:46.000Z</time>
      </trkpt>
      <trkpt lat="44.47234" lon="6.20048">
        <ele>1117</ele>
        <time>2025-11-21T09:55:47.000Z</time>
      </trkpt>
      <trkpt lat="44.47233" lon="6.20048">
        <ele>1118</ele>
        <time>2025-11-21T09:55:48.000Z</time>
      </trkpt>
      <trkpt lat="44.47233" lon="6.20046">
        <ele>1117</ele>
        <time>2025-11-21T09:55:49.000Z</time>
      </trkpt>
      <trkpt lat="44.47233" lon="6.20045">
        <ele>1117</ele>
        <time>2025-11-21T09:55:50.000Z</time>
      </trkpt>
      <trkpt lat="44.47233" lon="6.20043">
        <ele>1117</ele>
        <time>2025-11-21T09:55:51.000Z</time>
      </trkpt>
      <trkpt lat="44.47233" lon="6.20042">
        <ele>1117</ele>
        <time>2025-11-21T09:55:52.000Z</time>
      </trkpt>
      <trkpt lat="44.47232" lon="6.20041">
        <ele>1117</ele>
        <time>2025-11-21T09:55:53.000Z</time>
      </trkpt>
      <trkpt lat="44.47233" lon="6.20039">
        <ele>1117</ele>
        <time>2025-11-21T09:55:54.000Z</time>
      </trkpt>
      <trkpt lat="44.47233" lon="6.20038">
        <ele>1117</ele>
        <time>2025-11-21T09:55:55.000Z</time>
      </trkpt>
      <trkpt lat="44.47232" lon="6.20037">
        <ele>1117</ele>
        <time>2025-11-21T09:55:56.000Z</time>
      </trkpt>
      <trkpt lat="44.47233" lon="6.20035">
        <ele>1117</ele>
        <time>2025-11-21T09:55:57.000Z</time>
      </trkpt>
      <trkpt lat="44.47233" lon="6.20034">
        <ele>1117</ele>
        <time>2025-11-21T09:55:58.000Z</time>
      </trkpt>
      <trkpt lat="44.47233" lon="6.20033">
        <ele>1117</ele>
        <time>2025-11-21T09:55:59.000Z</time>
      </trkpt>
      <trkpt lat="44.47232" lon="6.20032">
        <ele>1117</ele>
        <time>2025-11-21T09:56:00.000Z</time>
      </trkpt>
      <trkpt lat="44.47232" lon="6.2003">
        <ele>1117</ele>
        <time>2025-11-21T09:56:01.000Z</time>
      </trkpt>
      <trkpt lat="44.47232" lon="6.20028">
        <ele>1117</ele>
        <time>2025-11-21T09:56:02.000Z</time>
      </trkpt>
      <trkpt lat="44.47232" lon="6.20027">
        <ele>1118</ele>
        <time>2025-11-21T09:56:03.000Z</time>
      </trkpt>
      <trkpt lat="44.47232" lon="6.20025">
        <ele>1118</ele>
        <time>2025-11-21T09:56:04.000Z</time>
      </trkpt>
      <trkpt lat="44.47231" lon="6.20024">
        <ele>1118</ele>
        <time>2025-11-21T09:56:05.000Z</time>
      </trkpt>
      <trkpt lat="44.47231" lon="6.20023">
        <ele>1117</ele>
        <time>2025-11-21T09:56:06.000Z</time>
      </trkpt>
      <trkpt lat="44.47231" lon="6.20021">
        <ele>1117</ele>
        <time>2025-11-21T09:56:07.000Z</time>
      </trkpt>
      <trkpt lat="44.47232" lon="6.20021">
        <ele>1117</ele>
        <time>2025-11-21T09:56:08.000Z</time>
      </trkpt>
      <trkpt lat="44.47232" lon="6.20019">
        <ele>1117</ele>
        <time>2025-11-21T09:56:09.000Z</time>
      </trkpt>
      <trkpt lat="44.47232" lon="6.20017">
        <ele>1117</ele>
        <time>2025-11-21T09:56:10.000Z</time>
      </trkpt>
      <trkpt lat="44.47232" lon="6.20016">
        <ele>1116</ele>
        <time>2025-11-21T09:56:11.000Z</time>
      </trkpt>
      <trkpt lat="44.47232" lon="6.20015">
        <ele>1116</ele>
        <time>2025-11-21T09:56:12.000Z</time>
      </trkpt>
      <trkpt lat="44.47233" lon="6.20014">
        <ele>1116</ele>
        <time>2025-11-21T09:56:13.000Z</time>
      </trkpt>
      <trkpt lat="44.47233" lon="6.20013">
        <ele>1116</ele>
        <time>2025-11-21T09:56:14.000Z</time>
      </trkpt>
      <trkpt lat="44.47233" lon="6.20011">
        <ele>1115</ele>
        <time>2025-11-21T09:56:15.000Z</time>
      </trkpt>
      <trkpt lat="44.47232" lon="6.2001">
        <ele>1116</ele>
        <time>2025-11-21T09:56:16.000Z</time>
      </trkpt>
      <trkpt lat="44.47233" lon="6.20008">
        <ele>1115</ele>
        <time>2025-11-21T09:56:17.000Z</time>
      </trkpt>
      <trkpt lat="44.47233" lon="6.20006">
        <ele>1115</ele>
        <time>2025-11-21T09:56:18.000Z</time>
      </trkpt>
      <trkpt lat="44.47233" lon="6.20005">
        <ele>1115</ele>
        <time>2025-11-21T09:56:19.000Z</time>
      </trkpt>
      <trkpt lat="44.47234" lon="6.20004">
        <ele>1115</ele>
        <time>2025-11-21T09:56:20.000Z</time>
      </trkpt>
      <trkpt lat="44.47234" lon="6.20003">
        <ele>1114</ele>
        <time>2025-11-21T09:56:21.000Z</time>
      </trkpt>
      <trkpt lat="44.47234" lon="6.20001">
        <ele>1115</ele>
        <time>2025-11-21T09:56:22.000Z</time>
      </trkpt>
      <trkpt lat="44.47234" lon="6.19999">
        <ele>1114</ele>
        <time>2025-11-21T09:56:23.000Z</time>
      </trkpt>
      <trkpt lat="44.47234" lon="6.19998">
        <ele>1114</ele>
        <time>2025-11-21T09:56:24.000Z</time>
      </trkpt>
      <trkpt lat="44.47234" lon="6.19997">
        <ele>1114</ele>
        <time>2025-11-21T09:56:25.000Z</time>
      </trkpt>
      <trkpt lat="44.47234" lon="6.19995">
        <ele>1113</ele>
        <time>2025-11-21T09:56:26.000Z</time>
      </trkpt>
      <trkpt lat="44.47235" lon="6.19995">
        <ele>1113</ele>
        <time>2025-11-21T09:56:27.000Z</time>
      </trkpt>
      <trkpt lat="44.47234" lon="6.19995">
        <ele>1113</ele>
        <time>2025-11-21T09:56:28.000Z</time>
      </trkpt>
      <trkpt lat="44.47235" lon="6.19994">
        <ele>1113</ele>
        <time>2025-11-21T09:56:29.000Z</time>
      </trkpt>
      <trkpt lat="44.47234" lon="6.19992">
        <ele>1113</ele>
        <time>2025-11-21T09:56:30.000Z</time>
      </trkpt>
      <trkpt lat="44.47234" lon="6.19991">
        <ele>1112</ele>
        <time>2025-11-21T09:56:31.000Z</time>
      </trkpt>
      <trkpt lat="44.47234" lon="6.1999">
        <ele>1113</ele>
        <time>2025-11-21T09:56:32.000Z</time>
      </trkpt>
      <trkpt lat="44.47234" lon="6.19988">
        <ele>1112</ele>
        <time>2025-11-21T09:56:33.000Z</time>
      </trkpt>
      <trkpt lat="44.47234" lon="6.19987">
        <ele>1112</ele>
        <time>2025-11-21T09:56:34.000Z</time>
      </trkpt>
      <trkpt lat="44.47234" lon="6.19985">
        <ele>1112</ele>
        <time>2025-11-21T09:56:35.000Z</time>
      </trkpt>
      <trkpt lat="44.47235" lon="6.19984">
        <ele>1112</ele>
        <time>2025-11-21T09:56:36.000Z</time>
      </trkpt>
      <trkpt lat="44.47235" lon="6.19984">
        <ele>1112</ele>
        <time>2025-11-21T09:56:37.000Z</time>
      </trkpt>
      <trkpt lat="44.47235" lon="6.19983">
        <ele>1112</ele>
        <time>2025-11-21T09:56:38.000Z</time>
      </trkpt>
      <trkpt lat="44.47235" lon="6.19981">
        <ele>1112</ele>
        <time>2025-11-21T09:56:39.000Z</time>
      </trkpt>
      <trkpt lat="44.47235" lon="6.19979">
        <ele>1112</ele>
        <time>2025-11-21T09:56:40.000Z</time>
      </trkpt>
      <trkpt lat="44.47234" lon="6.19978">
        <ele>1112</ele>
        <time>2025-11-21T09:56:41.000Z</time>
      </trkpt>
      <trkpt lat="44.47234" lon="6.19979">
        <ele>1112</ele>
        <time>2025-11-21T09:56:42.000Z</time>
      </trkpt>
      <trkpt lat="44.47235" lon="6.19978">
        <ele>1111</ele>
        <time>2025-11-21T09:56:43.000Z</time>
      </trkpt>
      <trkpt lat="44.47234" lon="6.19975">
        <ele>1111</ele>
        <time>2025-11-21T09:56:44.000Z</time>
      </trkpt>
      <trkpt lat="44.47234" lon="6.19974">
        <ele>1111</ele>
        <time>2025-11-21T09:56:45.000Z</time>
      </trkpt>
      <trkpt lat="44.47234" lon="6.19972">
        <ele>1111</ele>
        <time>2025-11-21T09:56:46.000Z</time>
      </trkpt>
      <trkpt lat="44.47234" lon="6.1997">
        <ele>1112</ele>
        <time>2025-11-21T09:56:47.000Z</time>
      </trkpt>
      <trkpt lat="44.47234" lon="6.19969">
        <ele>1112</ele>
        <time>2025-11-21T09:56:48.000Z</time>
      </trkpt>
      <trkpt lat="44.47234" lon="6.19967">
        <ele>1111</ele>
        <time>2025-11-21T09:56:49.000Z</time>
      </trkpt>
      <trkpt lat="44.47234" lon="6.19966">
        <ele>1111</ele>
        <time>2025-11-21T09:56:50.000Z</time>
      </trkpt>
      <trkpt lat="44.47234" lon="6.19965">
        <ele>1111</ele>
        <time>2025-11-21T09:56:51.000Z</time>
      </trkpt>
      <trkpt lat="44.47234" lon="6.19963">
        <ele>1111</ele>
        <time>2025-11-21T09:56:52.000Z</time>
      </trkpt>
      <trkpt lat="44.47234" lon="6.19961">
        <ele>1111</ele>
        <time>2025-11-21T09:56:53.000Z</time>
      </trkpt>
      <trkpt lat="44.47234" lon="6.1996">
        <ele>1111</ele>
        <time>2025-11-21T09:56:54.000Z</time>
      </trkpt>
      <trkpt lat="44.47233" lon="6.19959">
        <ele>1111</ele>
        <time>2025-11-21T09:56:55.000Z</time>
      </trkpt>
      <trkpt lat="44.47233" lon="6.19957">
        <ele>1111</ele>
        <time>2025-11-21T09:56:56.000Z</time>
      </trkpt>
      <trkpt lat="44.47233" lon="6.19956">
        <ele>1110</ele>
        <time>2025-11-21T09:56:57.000Z</time>
      </trkpt>
      <trkpt lat="44.47232" lon="6.19954">
        <ele>1110</ele>
        <time>2025-11-21T09:56:58.000Z</time>
      </trkpt>
      <trkpt lat="44.47232" lon="6.19952">
        <ele>1111</ele>
        <time>2025-11-21T09:56:59.000Z</time>
      </trkpt>
      <trkpt lat="44.47232" lon="6.19951">
        <ele>1111</ele>
        <time>2025-11-21T09:57:00.000Z</time>
      </trkpt>
      <trkpt lat="44.47232" lon="6.19949">
        <ele>1111</ele>
        <time>2025-11-21T09:57:01.000Z</time>
      </trkpt>
      <trkpt lat="44.47232" lon="6.19947">
        <ele>1111</ele>
        <time>2025-11-21T09:57:02.000Z</time>
      </trkpt>
      <trkpt lat="44.47232" lon="6.19945">
        <ele>1110</ele>
        <time>2025-11-21T09:57:03.000Z</time>
      </trkpt>
      <trkpt lat="44.47232" lon="6.19944">
        <ele>1111</ele>
        <time>2025-11-21T09:57:04.000Z</time>
      </trkpt>
      <trkpt lat="44.47233" lon="6.19943">
        <ele>1111</ele>
        <time>2025-11-21T09:57:05.000Z</time>
      </trkpt>
      <trkpt lat="44.47233" lon="6.19942">
        <ele>1111</ele>
        <time>2025-11-21T09:57:06.000Z</time>
      </trkpt>
      <trkpt lat="44.47234" lon="6.19941">
        <ele>1111</ele>
        <time>2025-11-21T09:57:07.000Z</time>
      </trkpt>
      <trkpt lat="44.47234" lon="6.19939">
        <ele>1111</ele>
        <time>2025-11-21T09:57:08.000Z</time>
      </trkpt>
      <trkpt lat="44.47234" lon="6.19938">
        <ele>1112</ele>
        <time>2025-11-21T09:57:09.000Z</time>
      </trkpt>
      <trkpt lat="44.47235" lon="6.19936">
        <ele>1112</ele>
        <time>2025-11-21T09:57:10.000Z</time>
      </trkpt>
      <trkpt lat="44.47236" lon="6.19935">
        <ele>1111</ele>
        <time>2025-11-21T09:57:11.000Z</time>
      </trkpt>
      <trkpt lat="44.47236" lon="6.19933">
        <ele>1111</ele>
        <time>2025-11-21T09:57:12.000Z</time>
      </trkpt>
      <trkpt lat="44.47237" lon="6.19932">
        <ele>1111</ele>
        <time>2025-11-21T09:57:13.000Z</time>
      </trkpt>
      <trkpt lat="44.47238" lon="6.19931">
        <ele>1111</ele>
        <time>2025-11-21T09:57:14.000Z</time>
      </trkpt>
      <trkpt lat="44.47238" lon="6.19929">
        <ele>1111</ele>
        <time>2025-11-21T09:57:15.000Z</time>
      </trkpt>
      <trkpt lat="44.47239" lon="6.19928">
        <ele>1111</ele>
        <time>2025-11-21T09:57:16.000Z</time>
      </trkpt>
      <trkpt lat="44.47239" lon="6.19927">
        <ele>1111</ele>
        <time>2025-11-21T09:57:17.000Z</time>
      </trkpt>
      <trkpt lat="44.4724" lon="6.19925">
        <ele>1112</ele>
        <time>2025-11-21T09:57:18.000Z</time>
      </trkpt>
      <trkpt lat="44.4724" lon="6.19925">
        <ele>1113</ele>
        <time>2025-11-21T09:57:19.000Z</time>
      </trkpt>
      <trkpt lat="44.47239" lon="6.19926">
        <ele>1112</ele>
        <time>2025-11-21T09:57:20.000Z</time>
      </trkpt>
      <trkpt lat="44.47239" lon="6.19926">
        <ele>1112</ele>
        <time>2025-11-21T09:57:21.000Z</time>
      </trkpt>
      <trkpt lat="44.4724" lon="6.19926">
        <ele>1112</ele>
        <time>2025-11-21T09:57:22.000Z</time>
      </trkpt>
      <trkpt lat="44.47243" lon="6.1992">
        <ele>1113</ele>
        <time>2025-11-21T09:57:40.000Z</time>
      </trkpt>
      <trkpt lat="44.47243" lon="6.19918">
        <ele>1114</ele>
        <time>2025-11-21T09:57:41.000Z</time>
      </trkpt>
      <trkpt lat="44.47243" lon="6.19917">
        <ele>1113</ele>
        <time>2025-11-21T09:57:42.000Z</time>
      </trkpt>
      <trkpt lat="44.47243" lon="6.19918">
        <ele>1113</ele>
        <time>2025-11-21T09:57:43.000Z</time>
      </trkpt>
      <trkpt lat="44.47243" lon="6.19919">
        <ele>1113</ele>
        <time>2025-11-21T09:57:44.000Z</time>
      </trkpt>
      <trkpt lat="44.47244" lon="6.19919">
        <ele>1113</ele>
        <time>2025-11-21T09:57:45.000Z</time>
      </trkpt>
      <trkpt lat="44.47245" lon="6.19917">
        <ele>1112</ele>
        <time>2025-11-21T09:57:46.000Z</time>
      </trkpt>
      <trkpt lat="44.47245" lon="6.19916">
        <ele>1112</ele>
        <time>2025-11-21T09:57:47.000Z</time>
      </trkpt>
      <trkpt lat="44.47245" lon="6.19915">
        <ele>1111</ele>
        <time>2025-11-21T09:57:48.000Z</time>
      </trkpt>
      <trkpt lat="44.47246" lon="6.19914">
        <ele>1111</ele>
        <time>2025-11-21T09:57:49.000Z</time>
      </trkpt>
      <trkpt lat="44.47246" lon="6.19913">
        <ele>1112</ele>
        <time>2025-11-21T09:57:50.000Z</time>
      </trkpt>
      <trkpt lat="44.47247" lon="6.19912">
        <ele>1112</ele>
        <time>2025-11-21T09:57:51.000Z</time>
      </trkpt>
      <trkpt lat="44.47247" lon="6.19911">
        <ele>1112</ele>
        <time>2025-11-21T09:57:52.000Z</time>
      </trkpt>
      <trkpt lat="44.47247" lon="6.1991">
        <ele>1112</ele>
        <time>2025-11-21T09:57:53.000Z</time>
      </trkpt>
      <trkpt lat="44.47248" lon="6.19909">
        <ele>1113</ele>
        <time>2025-11-21T09:57:54.000Z</time>
      </trkpt>
      <trkpt lat="44.47248" lon="6.19908">
        <ele>1112</ele>
        <time>2025-11-21T09:57:55.000Z</time>
      </trkpt>
      <trkpt lat="44.47249" lon="6.19908">
        <ele>1112</ele>
        <time>2025-11-21T09:57:56.000Z</time>
      </trkpt>
      <trkpt lat="44.4725" lon="6.19906">
        <ele>1112</ele>
        <time>2025-11-21T09:57:57.000Z</time>
      </trkpt>
      <trkpt lat="44.4725" lon="6.19906">
        <ele>1111</ele>
        <time>2025-11-21T09:57:58.000Z</time>
      </trkpt>
      <trkpt lat="44.47251" lon="6.19905">
        <ele>1111</ele>
        <time>2025-11-21T09:57:59.000Z</time>
      </trkpt>
      <trkpt lat="44.47251" lon="6.19904">
        <ele>1111</ele>
        <time>2025-11-21T09:58:00.000Z</time>
      </trkpt>
      <trkpt lat="44.47251" lon="6.19902">
        <ele>1111</ele>
        <time>2025-11-21T09:58:01.000Z</time>
      </trkpt>
      <trkpt lat="44.47252" lon="6.19901">
        <ele>1111</ele>
        <time>2025-11-21T09:58:02.000Z</time>
      </trkpt>
      <trkpt lat="44.47252" lon="6.199">
        <ele>1111</ele>
        <time>2025-11-21T09:58:03.000Z</time>
      </trkpt>
      <trkpt lat="44.47252" lon="6.19899">
        <ele>1111</ele>
        <time>2025-11-21T09:58:04.000Z</time>
      </trkpt>
      <trkpt lat="44.47253" lon="6.19898">
        <ele>1111</ele>
        <time>2025-11-21T09:58:05.000Z</time>
      </trkpt>
      <trkpt lat="44.47253" lon="6.19897">
        <ele>1111</ele>
        <time>2025-11-21T09:58:06.000Z</time>
      </trkpt>
      <trkpt lat="44.47253" lon="6.19896">
        <ele>1111</ele>
        <time>2025-11-21T09:58:07.000Z</time>
      </trkpt>
      <trkpt lat="44.47254" lon="6.19895">
        <ele>1111</ele>
        <time>2025-11-21T09:58:08.000Z</time>
      </trkpt>
      <trkpt lat="44.47254" lon="6.19894">
        <ele>1111</ele>
        <time>2025-11-21T09:58:09.000Z</time>
      </trkpt>
      <trkpt lat="44.47255" lon="6.19893">
        <ele>1111</ele>
        <time>2025-11-21T09:58:10.000Z</time>
      </trkpt>
      <trkpt lat="44.47255" lon="6.19891">
        <ele>1111</ele>
        <time>2025-11-21T09:58:11.000Z</time>
      </trkpt>
      <trkpt lat="44.47256" lon="6.19889">
        <ele>1111</ele>
        <time>2025-11-21T09:58:12.000Z</time>
      </trkpt>
      <trkpt lat="44.47256" lon="6.19888">
        <ele>1110</ele>
        <time>2025-11-21T09:58:13.000Z</time>
      </trkpt>
      <trkpt lat="44.47257" lon="6.19887">
        <ele>1110</ele>
        <time>2025-11-21T09:58:14.000Z</time>
      </trkpt>
      <trkpt lat="44.47258" lon="6.19886">
        <ele>1110</ele>
        <time>2025-11-21T09:58:15.000Z</time>
      </trkpt>
      <trkpt lat="44.47259" lon="6.19885">
        <ele>1110</ele>
        <time>2025-11-21T09:58:16.000Z</time>
      </trkpt>
      <trkpt lat="44.47259" lon="6.19883">
        <ele>1109</ele>
        <time>2025-11-21T09:58:17.000Z</time>
      </trkpt>
      <trkpt lat="44.4726" lon="6.19882">
        <ele>1108</ele>
        <time>2025-11-21T09:58:18.000Z</time>
      </trkpt>
      <trkpt lat="44.4726" lon="6.19881">
        <ele>1108</ele>
        <time>2025-11-21T09:58:19.000Z</time>
      </trkpt>
      <trkpt lat="44.4726" lon="6.1988">
        <ele>1107</ele>
        <time>2025-11-21T09:58:20.000Z</time>
      </trkpt>
      <trkpt lat="44.4726" lon="6.19879">
        <ele>1107</ele>
        <time>2025-11-21T09:58:21.000Z</time>
      </trkpt>
      <trkpt lat="44.4726" lon="6.19878">
        <ele>1107</ele>
        <time>2025-11-21T09:58:22.000Z</time>
      </trkpt>
      <trkpt lat="44.47261" lon="6.19876">
        <ele>1107</ele>
        <time>2025-11-21T09:58:23.000Z</time>
      </trkpt>
      <trkpt lat="44.47262" lon="6.19874">
        <ele>1107</ele>
        <time>2025-11-21T09:58:24.000Z</time>
      </trkpt>
      <trkpt lat="44.47262" lon="6.19873">
        <ele>1107</ele>
        <time>2025-11-21T09:58:25.000Z</time>
      </trkpt>
      <trkpt lat="44.47263" lon="6.19871">
        <ele>1106</ele>
        <time>2025-11-21T09:58:26.000Z</time>
      </trkpt>
      <trkpt lat="44.47263" lon="6.1987">
        <ele>1106</ele>
        <time>2025-11-21T09:58:27.000Z</time>
      </trkpt>
      <trkpt lat="44.47264" lon="6.19869">
        <ele>1106</ele>
        <time>2025-11-21T09:58:28.000Z</time>
      </trkpt>
      <trkpt lat="44.47264" lon="6.19867">
        <ele>1105</ele>
        <time>2025-11-21T09:58:29.000Z</time>
      </trkpt>
      <trkpt lat="44.47264" lon="6.19866">
        <ele>1105</ele>
        <time>2025-11-21T09:58:30.000Z</time>
      </trkpt>
      <trkpt lat="44.47265" lon="6.19865">
        <ele>1105</ele>
        <time>2025-11-21T09:58:31.000Z</time>
      </trkpt>
      <trkpt lat="44.47265" lon="6.19864">
        <ele>1104</ele>
        <time>2025-11-21T09:58:32.000Z</time>
      </trkpt>
      <trkpt lat="44.47265" lon="6.19862">
        <ele>1104</ele>
        <time>2025-11-21T09:58:33.000Z</time>
      </trkpt>
      <trkpt lat="44.47265" lon="6.1986">
        <ele>1104</ele>
        <time>2025-11-21T09:58:34.000Z</time>
      </trkpt>
      <trkpt lat="44.47266" lon="6.19859">
        <ele>1104</ele>
        <time>2025-11-21T09:58:35.000Z</time>
      </trkpt>
      <trkpt lat="44.47266" lon="6.19858">
        <ele>1104</ele>
        <time>2025-11-21T09:58:36.000Z</time>
      </trkpt>
      <trkpt lat="44.47266" lon="6.19858">
        <ele>1104</ele>
        <time>2025-11-21T09:58:37.000Z</time>
      </trkpt>
      <trkpt lat="44.47267" lon="6.19857">
        <ele>1103</ele>
        <time>2025-11-21T09:58:38.000Z</time>
      </trkpt>
      <trkpt lat="44.47267" lon="6.19855">
        <ele>1103</ele>
        <time>2025-11-21T09:58:39.000Z</time>
      </trkpt>
      <trkpt lat="44.47267" lon="6.19854">
        <ele>1103</ele>
        <time>2025-11-21T09:58:40.000Z</time>
      </trkpt>
      <trkpt lat="44.47267" lon="6.19852">
        <ele>1102</ele>
        <time>2025-11-21T09:58:41.000Z</time>
      </trkpt>
      <trkpt lat="44.47268" lon="6.19851">
        <ele>1102</ele>
        <time>2025-11-21T09:58:42.000Z</time>
      </trkpt>
      <trkpt lat="44.47268" lon="6.19849">
        <ele>1102</ele>
        <time>2025-11-21T09:58:43.000Z</time>
      </trkpt>
      <trkpt lat="44.47268" lon="6.19849">
        <ele>1102</ele>
        <time>2025-11-21T09:58:44.000Z</time>
      </trkpt>
      <trkpt lat="44.47269" lon="6.19848">
        <ele>1102</ele>
        <time>2025-11-21T09:58:45.000Z</time>
      </trkpt>
      <trkpt lat="44.47269" lon="6.19847">
        <ele>1102</ele>
        <time>2025-11-21T09:58:46.000Z</time>
      </trkpt>
      <trkpt lat="44.47269" lon="6.19845">
        <ele>1101</ele>
        <time>2025-11-21T09:58:47.000Z</time>
      </trkpt>
      <trkpt lat="44.47269" lon="6.19843">
        <ele>1101</ele>
        <time>2025-11-21T09:58:48.000Z</time>
      </trkpt>
      <trkpt lat="44.4727" lon="6.19842">
        <ele>1101</ele>
        <time>2025-11-21T09:58:49.000Z</time>
      </trkpt>
      <trkpt lat="44.4727" lon="6.19841">
        <ele>1100</ele>
        <time>2025-11-21T09:58:50.000Z</time>
      </trkpt>
      <trkpt lat="44.47271" lon="6.1984">
        <ele>1100</ele>
        <time>2025-11-21T09:58:51.000Z</time>
      </trkpt>
      <trkpt lat="44.47272" lon="6.19839">
        <ele>1100</ele>
        <time>2025-11-21T09:58:52.000Z</time>
      </trkpt>
      <trkpt lat="44.47273" lon="6.19839">
        <ele>1099</ele>
        <time>2025-11-21T09:58:53.000Z</time>
      </trkpt>
      <trkpt lat="44.47274" lon="6.19838">
        <ele>1099</ele>
        <time>2025-11-21T09:58:54.000Z</time>
      </trkpt>
      <trkpt lat="44.47275" lon="6.19837">
        <ele>1100</ele>
        <time>2025-11-21T09:58:55.000Z</time>
      </trkpt>
      <trkpt lat="44.47276" lon="6.19836">
        <ele>1100</ele>
        <time>2025-11-21T09:58:56.000Z</time>
      </trkpt>
      <trkpt lat="44.47277" lon="6.19835">
        <ele>1100</ele>
        <time>2025-11-21T09:58:57.000Z</time>
      </trkpt>
      <trkpt lat="44.47278" lon="6.19834">
        <ele>1100</ele>
        <time>2025-11-21T09:58:58.000Z</time>
      </trkpt>
      <trkpt lat="44.47279" lon="6.19833">
        <ele>1100</ele>
        <time>2025-11-21T09:58:59.000Z</time>
      </trkpt>
      <trkpt lat="44.4728" lon="6.19833">
        <ele>1100</ele>
        <time>2025-11-21T09:59:00.000Z</time>
      </trkpt>
      <trkpt lat="44.4728" lon="6.19833">
        <ele>1099</ele>
        <time>2025-11-21T09:59:01.000Z</time>
      </trkpt>
      <trkpt lat="44.47281" lon="6.19832">
        <ele>1099</ele>
        <time>2025-11-21T09:59:02.000Z</time>
      </trkpt>
      <trkpt lat="44.47282" lon="6.19832">
        <ele>1100</ele>
        <time>2025-11-21T09:59:03.000Z</time>
      </trkpt>
      <trkpt lat="44.47282" lon="6.19832">
        <ele>1100</ele>
        <time>2025-11-21T09:59:04.000Z</time>
      </trkpt>
      <trkpt lat="44.47282" lon="6.19832">
        <ele>1100</ele>
        <time>2025-11-21T09:59:05.000Z</time>
      </trkpt>
      <trkpt lat="44.47285" lon="6.1983">
        <ele>1101</ele>
        <time>2025-11-21T09:59:06.000Z</time>
      </trkpt>
      <trkpt lat="44.47286" lon="6.19829">
        <ele>1101</ele>
        <time>2025-11-21T09:59:07.000Z</time>
      </trkpt>
      <trkpt lat="44.47286" lon="6.19829">
        <ele>1100</ele>
        <time>2025-11-21T09:59:08.000Z</time>
      </trkpt>
      <trkpt lat="44.47287" lon="6.19828">
        <ele>1100</ele>
        <time>2025-11-21T09:59:09.000Z</time>
      </trkpt>
      <trkpt lat="44.47289" lon="6.19827">
        <ele>1101</ele>
        <time>2025-11-21T09:59:10.000Z</time>
      </trkpt>
      <trkpt lat="44.4729" lon="6.19827">
        <ele>1101</ele>
        <time>2025-11-21T09:59:11.000Z</time>
      </trkpt>
      <trkpt lat="44.4729" lon="6.19826">
        <ele>1101</ele>
        <time>2025-11-21T09:59:12.000Z</time>
      </trkpt>
      <trkpt lat="44.4729" lon="6.19826">
        <ele>1101</ele>
        <time>2025-11-21T09:59:13.000Z</time>
      </trkpt>
      <trkpt lat="44.47291" lon="6.19825">
        <ele>1101</ele>
        <time>2025-11-21T09:59:14.000Z</time>
      </trkpt>
      <trkpt lat="44.47292" lon="6.19824">
        <ele>1101</ele>
        <time>2025-11-21T09:59:15.000Z</time>
      </trkpt>
      <trkpt lat="44.47294" lon="6.19823">
        <ele>1101</ele>
        <time>2025-11-21T09:59:16.000Z</time>
      </trkpt>
      <trkpt lat="44.47294" lon="6.19824">
        <ele>1100</ele>
        <time>2025-11-21T09:59:17.000Z</time>
      </trkpt>
      <trkpt lat="44.47295" lon="6.19823">
        <ele>1100</ele>
        <time>2025-11-21T09:59:18.000Z</time>
      </trkpt>
      <trkpt lat="44.47296" lon="6.19822">
        <ele>1099</ele>
        <time>2025-11-21T09:59:19.000Z</time>
      </trkpt>
      <trkpt lat="44.47297" lon="6.19822">
        <ele>1099</ele>
        <time>2025-11-21T09:59:20.000Z</time>
      </trkpt>
      <trkpt lat="44.47297" lon="6.1982">
        <ele>1099</ele>
        <time>2025-11-21T09:59:21.000Z</time>
      </trkpt>
      <trkpt lat="44.47298" lon="6.19819">
        <ele>1099</ele>
        <time>2025-11-21T09:59:22.000Z</time>
      </trkpt>
      <trkpt lat="44.47298" lon="6.19819">
        <ele>1098</ele>
        <time>2025-11-21T09:59:23.000Z</time>
      </trkpt>
      <trkpt lat="44.47299" lon="6.19819">
        <ele>1098</ele>
        <time>2025-11-21T09:59:24.000Z</time>
      </trkpt>
      <trkpt lat="44.473" lon="6.19818">
        <ele>1098</ele>
        <time>2025-11-21T09:59:25.000Z</time>
      </trkpt>
      <trkpt lat="44.47301" lon="6.19816">
        <ele>1097</ele>
        <time>2025-11-21T09:59:26.000Z</time>
      </trkpt>
      <trkpt lat="44.47302" lon="6.19815">
        <ele>1098</ele>
        <time>2025-11-21T09:59:27.000Z</time>
      </trkpt>
      <trkpt lat="44.47302" lon="6.19814">
        <ele>1097</ele>
        <time>2025-11-21T09:59:28.000Z</time>
      </trkpt>
      <trkpt lat="44.47302" lon="6.19814">
        <ele>1097</ele>
        <time>2025-11-21T09:59:29.000Z</time>
      </trkpt>
      <trkpt lat="44.47302" lon="6.19814">
        <ele>1097</ele>
        <time>2025-11-21T09:59:30.000Z</time>
      </trkpt>
      <trkpt lat="44.47303" lon="6.19813">
        <ele>1096</ele>
        <time>2025-11-21T09:59:31.000Z</time>
      </trkpt>
      <trkpt lat="44.47304" lon="6.19812">
        <ele>1096</ele>
        <time>2025-11-21T09:59:32.000Z</time>
      </trkpt>
      <trkpt lat="44.47304" lon="6.19811">
        <ele>1096</ele>
        <time>2025-11-21T09:59:33.000Z</time>
      </trkpt>
      <trkpt lat="44.47306" lon="6.1981">
        <ele>1095</ele>
        <time>2025-11-21T09:59:34.000Z</time>
      </trkpt>
      <trkpt lat="44.47306" lon="6.19808">
        <ele>1094</ele>
        <time>2025-11-21T09:59:35.000Z</time>
      </trkpt>
      <trkpt lat="44.47307" lon="6.19807">
        <ele>1094</ele>
        <time>2025-11-21T09:59:36.000Z</time>
      </trkpt>
      <trkpt lat="44.47308" lon="6.19805">
        <ele>1093</ele>
        <time>2025-11-21T09:59:37.000Z</time>
      </trkpt>
      <trkpt lat="44.47308" lon="6.19804">
        <ele>1093</ele>
        <time>2025-11-21T09:59:38.000Z</time>
      </trkpt>
      <trkpt lat="44.47309" lon="6.19803">
        <ele>1093</ele>
        <time>2025-11-21T09:59:39.000Z</time>
      </trkpt>
      <trkpt lat="44.4731" lon="6.19802">
        <ele>1093</ele>
        <time>2025-11-21T09:59:40.000Z</time>
      </trkpt>
      <trkpt lat="44.47311" lon="6.19802">
        <ele>1093</ele>
        <time>2025-11-21T09:59:41.000Z</time>
      </trkpt>
      <trkpt lat="44.47312" lon="6.19801">
        <ele>1093</ele>
        <time>2025-11-21T09:59:42.000Z</time>
      </trkpt>
      <trkpt lat="44.47313" lon="6.198">
        <ele>1093</ele>
        <time>2025-11-21T09:59:43.000Z</time>
      </trkpt>
      <trkpt lat="44.47314" lon="6.19799">
        <ele>1092</ele>
        <time>2025-11-21T09:59:44.000Z</time>
      </trkpt>
      <trkpt lat="44.47315" lon="6.19798">
        <ele>1093</ele>
        <time>2025-11-21T09:59:45.000Z</time>
      </trkpt>
      <trkpt lat="44.47316" lon="6.19796">
        <ele>1093</ele>
        <time>2025-11-21T09:59:46.000Z</time>
      </trkpt>
      <trkpt lat="44.47316" lon="6.19796">
        <ele>1093</ele>
        <time>2025-11-21T09:59:47.000Z</time>
      </trkpt>
      <trkpt lat="44.47317" lon="6.19795">
        <ele>1094</ele>
        <time>2025-11-21T09:59:48.000Z</time>
      </trkpt>
      <trkpt lat="44.47318" lon="6.19793">
        <ele>1094</ele>
        <time>2025-11-21T09:59:49.000Z</time>
      </trkpt>
      <trkpt lat="44.47319" lon="6.19792">
        <ele>1094</ele>
        <time>2025-11-21T09:59:50.000Z</time>
      </trkpt>
      <trkpt lat="44.4732" lon="6.19792">
        <ele>1094</ele>
        <time>2025-11-21T09:59:51.000Z</time>
      </trkpt>
      <trkpt lat="44.47321" lon="6.19791">
        <ele>1094</ele>
        <time>2025-11-21T09:59:52.000Z</time>
      </trkpt>
      <trkpt lat="44.47322" lon="6.19791">
        <ele>1093</ele>
        <time>2025-11-21T09:59:53.000Z</time>
      </trkpt>
      <trkpt lat="44.47323" lon="6.1979">
        <ele>1093</ele>
        <time>2025-11-21T09:59:54.000Z</time>
      </trkpt>
      <trkpt lat="44.47325" lon="6.19789">
        <ele>1093</ele>
        <time>2025-11-21T09:59:55.000Z</time>
      </trkpt>
      <trkpt lat="44.47326" lon="6.19789">
        <ele>1093</ele>
        <time>2025-11-21T09:59:56.000Z</time>
      </trkpt>
      <trkpt lat="44.47327" lon="6.19788">
        <ele>1093</ele>
        <time>2025-11-21T09:59:57.000Z</time>
      </trkpt>
      <trkpt lat="44.47328" lon="6.19787">
        <ele>1092</ele>
        <time>2025-11-21T09:59:58.000Z</time>
      </trkpt>
      <trkpt lat="44.47329" lon="6.19786">
        <ele>1092</ele>
        <time>2025-11-21T09:59:59.000Z</time>
      </trkpt>
      <trkpt lat="44.4733" lon="6.19785">
        <ele>1092</ele>
        <time>2025-11-21T10:00:00.000Z</time>
      </trkpt>
      <trkpt lat="44.4733" lon="6.19785">
        <ele>1092</ele>
        <time>2025-11-21T10:00:01.000Z</time>
      </trkpt>
      <trkpt lat="44.47331" lon="6.19784">
        <ele>1093</ele>
        <time>2025-11-21T10:00:02.000Z</time>
      </trkpt>
      <trkpt lat="44.47331" lon="6.19783">
        <ele>1093</ele>
        <time>2025-11-21T10:00:03.000Z</time>
      </trkpt>
      <trkpt lat="44.47332" lon="6.19783">
        <ele>1093</ele>
        <time>2025-11-21T10:00:04.000Z</time>
      </trkpt>
      <trkpt lat="44.47333" lon="6.19782">
        <ele>1093</ele>
        <time>2025-11-21T10:00:05.000Z</time>
      </trkpt>
      <trkpt lat="44.47333" lon="6.19781">
        <ele>1093</ele>
        <time>2025-11-21T10:00:06.000Z</time>
      </trkpt>
      <trkpt lat="44.47334" lon="6.1978">
        <ele>1093</ele>
        <time>2025-11-21T10:00:07.000Z</time>
      </trkpt>
      <trkpt lat="44.47335" lon="6.19779">
        <ele>1093</ele>
        <time>2025-11-21T10:00:08.000Z</time>
      </trkpt>
      <trkpt lat="44.47336" lon="6.19778">
        <ele>1093</ele>
        <time>2025-11-21T10:00:09.000Z</time>
      </trkpt>
      <trkpt lat="44.47337" lon="6.19778">
        <ele>1093</ele>
        <time>2025-11-21T10:00:10.000Z</time>
      </trkpt>
      <trkpt lat="44.47338" lon="6.19777">
        <ele>1092</ele>
        <time>2025-11-21T10:00:11.000Z</time>
      </trkpt>
      <trkpt lat="44.47339" lon="6.19776">
        <ele>1092</ele>
        <time>2025-11-21T10:00:12.000Z</time>
      </trkpt>
      <trkpt lat="44.4734" lon="6.19775">
        <ele>1092</ele>
        <time>2025-11-21T10:00:13.000Z</time>
      </trkpt>
      <trkpt lat="44.47341" lon="6.19775">
        <ele>1092</ele>
        <time>2025-11-21T10:00:14.000Z</time>
      </trkpt>
      <trkpt lat="44.47342" lon="6.19773">
        <ele>1092</ele>
        <time>2025-11-21T10:00:15.000Z</time>
      </trkpt>
      <trkpt lat="44.47343" lon="6.19772">
        <ele>1092</ele>
        <time>2025-11-21T10:00:16.000Z</time>
      </trkpt>
      <trkpt lat="44.47343" lon="6.19772">
        <ele>1092</ele>
        <time>2025-11-21T10:00:17.000Z</time>
      </trkpt>
      <trkpt lat="44.47344" lon="6.19771">
        <ele>1091</ele>
        <time>2025-11-21T10:00:18.000Z</time>
      </trkpt>
      <trkpt lat="44.47345" lon="6.1977">
        <ele>1092</ele>
        <time>2025-11-21T10:00:19.000Z</time>
      </trkpt>
      <trkpt lat="44.47345" lon="6.19769">
        <ele>1091</ele>
        <time>2025-11-21T10:00:20.000Z</time>
      </trkpt>
      <trkpt lat="44.47346" lon="6.19769">
        <ele>1091</ele>
        <time>2025-11-21T10:00:21.000Z</time>
      </trkpt>
      <trkpt lat="44.47347" lon="6.19768">
        <ele>1091</ele>
        <time>2025-11-21T10:00:22.000Z</time>
      </trkpt>
      <trkpt lat="44.47348" lon="6.19767">
        <ele>1091</ele>
        <time>2025-11-21T10:00:23.000Z</time>
      </trkpt>
      <trkpt lat="44.4735" lon="6.19767">
        <ele>1091</ele>
        <time>2025-11-21T10:00:24.000Z</time>
      </trkpt>
      <trkpt lat="44.4735" lon="6.19766">
        <ele>1091</ele>
        <time>2025-11-21T10:00:25.000Z</time>
      </trkpt>
      <trkpt lat="44.47352" lon="6.19765">
        <ele>1091</ele>
        <time>2025-11-21T10:00:26.000Z</time>
      </trkpt>
      <trkpt lat="44.47353" lon="6.19765">
        <ele>1090</ele>
        <time>2025-11-21T10:00:27.000Z</time>
      </trkpt>
      <trkpt lat="44.47354" lon="6.19764">
        <ele>1090</ele>
        <time>2025-11-21T10:00:28.000Z</time>
      </trkpt>
      <trkpt lat="44.47355" lon="6.19763">
        <ele>1090</ele>
        <time>2025-11-21T10:00:29.000Z</time>
      </trkpt>
      <trkpt lat="44.47357" lon="6.19763">
        <ele>1090</ele>
        <time>2025-11-21T10:00:30.000Z</time>
      </trkpt>
      <trkpt lat="44.47358" lon="6.19763">
        <ele>1090</ele>
        <time>2025-11-21T10:00:31.000Z</time>
      </trkpt>
      <trkpt lat="44.47359" lon="6.19764">
        <ele>1090</ele>
        <time>2025-11-21T10:00:32.000Z</time>
      </trkpt>
      <trkpt lat="44.47361" lon="6.19765">
        <ele>1089</ele>
        <time>2025-11-21T10:00:33.000Z</time>
      </trkpt>
      <trkpt lat="44.47362" lon="6.19765">
        <ele>1089</ele>
        <time>2025-11-21T10:00:34.000Z</time>
      </trkpt>
      <trkpt lat="44.47363" lon="6.19765">
        <ele>1089</ele>
        <time>2025-11-21T10:00:35.000Z</time>
      </trkpt>
      <trkpt lat="44.47363" lon="6.19764">
        <ele>1089</ele>
        <time>2025-11-21T10:00:36.000Z</time>
      </trkpt>
      <trkpt lat="44.47364" lon="6.19764">
        <ele>1089</ele>
        <time>2025-11-21T10:00:37.000Z</time>
      </trkpt>
      <trkpt lat="44.47364" lon="6.19764">
        <ele>1089</ele>
        <time>2025-11-21T10:00:38.000Z</time>
      </trkpt>
      <trkpt lat="44.47366" lon="6.19762">
        <ele>1089</ele>
        <time>2025-11-21T10:00:39.000Z</time>
      </trkpt>
      <trkpt lat="44.47366" lon="6.19762">
        <ele>1088</ele>
        <time>2025-11-21T10:00:40.000Z</time>
      </trkpt>
      <trkpt lat="44.47367" lon="6.19761">
        <ele>1088</ele>
        <time>2025-11-21T10:00:41.000Z</time>
      </trkpt>
      <trkpt lat="44.47368" lon="6.19761">
        <ele>1088</ele>
        <time>2025-11-21T10:00:42.000Z</time>
      </trkpt>
      <trkpt lat="44.47369" lon="6.19761">
        <ele>1088</ele>
        <time>2025-11-21T10:00:43.000Z</time>
      </trkpt>
      <trkpt lat="44.4737" lon="6.1976">
        <ele>1088</ele>
        <time>2025-11-21T10:00:44.000Z</time>
      </trkpt>
      <trkpt lat="44.4737" lon="6.19759">
        <ele>1089</ele>
        <time>2025-11-21T10:00:45.000Z</time>
      </trkpt>
      <trkpt lat="44.47372" lon="6.19759">
        <ele>1088</ele>
        <time>2025-11-21T10:00:46.000Z</time>
      </trkpt>
      <trkpt lat="44.47372" lon="6.19758">
        <ele>1088</ele>
        <time>2025-11-21T10:00:47.000Z</time>
      </trkpt>
      <trkpt lat="44.47373" lon="6.19757">
        <ele>1087</ele>
        <time>2025-11-21T10:00:48.000Z</time>
      </trkpt>
      <trkpt lat="44.47373" lon="6.19756">
        <ele>1087</ele>
        <time>2025-11-21T10:00:49.000Z</time>
      </trkpt>
      <trkpt lat="44.47373" lon="6.19756">
        <ele>1087</ele>
        <time>2025-11-21T10:00:50.000Z</time>
      </trkpt>
      <trkpt lat="44.47373" lon="6.19756">
        <ele>1087</ele>
        <time>2025-11-21T10:00:51.000Z</time>
      </trkpt>
      <trkpt lat="44.47375" lon="6.19754">
        <ele>1086</ele>
        <time>2025-11-21T10:00:52.000Z</time>
      </trkpt>
      <trkpt lat="44.47375" lon="6.19753">
        <ele>1086</ele>
        <time>2025-11-21T10:00:53.000Z</time>
      </trkpt>
      <trkpt lat="44.47376" lon="6.19752">
        <ele>1085</ele>
        <time>2025-11-21T10:00:54.000Z</time>
      </trkpt>
      <trkpt lat="44.47377" lon="6.19752">
        <ele>1084</ele>
        <time>2025-11-21T10:00:55.000Z</time>
      </trkpt>
      <trkpt lat="44.47377" lon="6.19752">
        <ele>1084</ele>
        <time>2025-11-21T10:00:56.000Z</time>
      </trkpt>
      <trkpt lat="44.47378" lon="6.19751">
        <ele>1083</ele>
        <time>2025-11-21T10:00:57.000Z</time>
      </trkpt>
      <trkpt lat="44.47379" lon="6.1975">
        <ele>1083</ele>
        <time>2025-11-21T10:00:58.000Z</time>
      </trkpt>
      <trkpt lat="44.4738" lon="6.1975">
        <ele>1083</ele>
        <time>2025-11-21T10:00:59.000Z</time>
      </trkpt>
      <trkpt lat="44.47381" lon="6.19749">
        <ele>1083</ele>
        <time>2025-11-21T10:01:00.000Z</time>
      </trkpt>
      <trkpt lat="44.47382" lon="6.19748">
        <ele>1083</ele>
        <time>2025-11-21T10:01:01.000Z</time>
      </trkpt>
      <trkpt lat="44.47382" lon="6.19748">
        <ele>1083</ele>
        <time>2025-11-21T10:01:02.000Z</time>
      </trkpt>
      <trkpt lat="44.47383" lon="6.19747">
        <ele>1082</ele>
        <time>2025-11-21T10:01:03.000Z</time>
      </trkpt>
      <trkpt lat="44.47384" lon="6.19746">
        <ele>1084</ele>
        <time>2025-11-21T10:01:04.000Z</time>
      </trkpt>
      <trkpt lat="44.47384" lon="6.19745">
        <ele>1083</ele>
        <time>2025-11-21T10:01:05.000Z</time>
      </trkpt>
      <trkpt lat="44.47385" lon="6.19744">
        <ele>1083</ele>
        <time>2025-11-21T10:01:06.000Z</time>
      </trkpt>
      <trkpt lat="44.47386" lon="6.19743">
        <ele>1083</ele>
        <time>2025-11-21T10:01:07.000Z</time>
      </trkpt>
      <trkpt lat="44.47387" lon="6.19743">
        <ele>1083</ele>
        <time>2025-11-21T10:01:08.000Z</time>
      </trkpt>
      <trkpt lat="44.47388" lon="6.19743">
        <ele>1082</ele>
        <time>2025-11-21T10:01:09.000Z</time>
      </trkpt>
      <trkpt lat="44.47388" lon="6.19743">
        <ele>1082</ele>
        <time>2025-11-21T10:01:10.000Z</time>
      </trkpt>
      <trkpt lat="44.47388" lon="6.19743">
        <ele>1082</ele>
        <time>2025-11-21T10:01:11.000Z</time>
      </trkpt>
      <trkpt lat="44.47388" lon="6.19743">
        <ele>1082</ele>
        <time>2025-11-21T10:01:12.000Z</time>
      </trkpt>
      <trkpt lat="44.47388" lon="6.19743">
        <ele>1082</ele>
        <time>2025-11-21T10:01:13.000Z</time>
      </trkpt>
      <trkpt lat="44.4739" lon="6.19743">
        <ele>1083</ele>
        <time>2025-11-21T10:01:14.000Z</time>
      </trkpt>
      <trkpt lat="44.4739" lon="6.19743">
        <ele>1083</ele>
        <time>2025-11-21T10:01:15.000Z</time>
      </trkpt>
      <trkpt lat="44.4739" lon="6.19743">
        <ele>1083</ele>
        <time>2025-11-21T10:01:16.000Z</time>
      </trkpt>
      <trkpt lat="44.47391" lon="6.19744">
        <ele>1084</ele>
        <time>2025-11-21T10:01:17.000Z</time>
      </trkpt>
      <trkpt lat="44.47391" lon="6.19744">
        <ele>1084</ele>
        <time>2025-11-21T10:01:18.000Z</time>
      </trkpt>
      <trkpt lat="44.47391" lon="6.19744">
        <ele>1084</ele>
        <time>2025-11-21T10:01:19.000Z</time>
      </trkpt>
      <trkpt lat="44.47391" lon="6.19744">
        <ele>1084</ele>
        <time>2025-11-21T10:01:20.000Z</time>
      </trkpt>
      <trkpt lat="44.47392" lon="6.19744">
        <ele>1084</ele>
        <time>2025-11-21T10:01:21.000Z</time>
      </trkpt>
      <trkpt lat="44.47393" lon="6.19744">
        <ele>1084</ele>
        <time>2025-11-21T10:01:22.000Z</time>
      </trkpt>
      <trkpt lat="44.47392" lon="6.19743">
        <ele>1084</ele>
        <time>2025-11-21T10:01:23.000Z</time>
      </trkpt>
      <trkpt lat="44.47391" lon="6.1974">
        <ele>1084</ele>
        <time>2025-11-21T10:02:01.000Z</time>
      </trkpt>
      <trkpt lat="44.47391" lon="6.19739">
        <ele>1084</ele>
        <time>2025-11-21T10:02:02.000Z</time>
      </trkpt>
      <trkpt lat="44.47391" lon="6.19738">
        <ele>1084</ele>
        <time>2025-11-21T10:02:03.000Z</time>
      </trkpt>
      <trkpt lat="44.47391" lon="6.19738">
        <ele>1085</ele>
        <time>2025-11-21T10:02:04.000Z</time>
      </trkpt>
      <trkpt lat="44.47392" lon="6.19738">
        <ele>1083</ele>
        <time>2025-11-21T10:02:19.000Z</time>
      </trkpt>
      <trkpt lat="44.47393" lon="6.19738">
        <ele>1083</ele>
        <time>2025-11-21T10:02:20.000Z</time>
      </trkpt>
      <trkpt lat="44.47394" lon="6.19737">
        <ele>1083</ele>
        <time>2025-11-21T10:02:21.000Z</time>
      </trkpt>
      <trkpt lat="44.47395" lon="6.19737">
        <ele>1083</ele>
        <time>2025-11-21T10:02:22.000Z</time>
      </trkpt>
      <trkpt lat="44.47395" lon="6.19737">
        <ele>1083</ele>
        <time>2025-11-21T10:02:23.000Z</time>
      </trkpt>
      <trkpt lat="44.47395" lon="6.19737">
        <ele>1083</ele>
        <time>2025-11-21T10:02:24.000Z</time>
      </trkpt>
      <trkpt lat="44.47397" lon="6.19736">
        <ele>1083</ele>
        <time>2025-11-21T10:02:25.000Z</time>
      </trkpt>
      <trkpt lat="44.47397" lon="6.19735">
        <ele>1083</ele>
        <time>2025-11-21T10:02:26.000Z</time>
      </trkpt>
      <trkpt lat="44.47398" lon="6.19735">
        <ele>1083</ele>
        <time>2025-11-21T10:02:27.000Z</time>
      </trkpt>
      <trkpt lat="44.47399" lon="6.19735">
        <ele>1082</ele>
        <time>2025-11-21T10:02:28.000Z</time>
      </trkpt>
      <trkpt lat="44.474" lon="6.19734">
        <ele>1082</ele>
        <time>2025-11-21T10:02:29.000Z</time>
      </trkpt>
      <trkpt lat="44.474" lon="6.19734">
        <ele>1081</ele>
        <time>2025-11-21T10:02:30.000Z</time>
      </trkpt>
      <trkpt lat="44.47401" lon="6.19733">
        <ele>1081</ele>
        <time>2025-11-21T10:02:31.000Z</time>
      </trkpt>
      <trkpt lat="44.47401" lon="6.19732">
        <ele>1081</ele>
        <time>2025-11-21T10:02:32.000Z</time>
      </trkpt>
      <trkpt lat="44.47401" lon="6.19732">
        <ele>1080</ele>
        <time>2025-11-21T10:02:33.000Z</time>
      </trkpt>
      <trkpt lat="44.47402" lon="6.19731">
        <ele>1080</ele>
        <time>2025-11-21T10:02:34.000Z</time>
      </trkpt>
      <trkpt lat="44.47402" lon="6.1973">
        <ele>1080</ele>
        <time>2025-11-21T10:02:35.000Z</time>
      </trkpt>
      <trkpt lat="44.47402" lon="6.1973">
        <ele>1079</ele>
        <time>2025-11-21T10:02:36.000Z</time>
      </trkpt>
      <trkpt lat="44.47403" lon="6.19729">
        <ele>1079</ele>
        <time>2025-11-21T10:02:37.000Z</time>
      </trkpt>
      <trkpt lat="44.47403" lon="6.19728">
        <ele>1079</ele>
        <time>2025-11-21T10:02:38.000Z</time>
      </trkpt>
      <trkpt lat="44.47403" lon="6.19728">
        <ele>1080</ele>
        <time>2025-11-21T10:02:39.000Z</time>
      </trkpt>
      <trkpt lat="44.47403" lon="6.19728">
        <ele>1080</ele>
        <time>2025-11-21T10:02:40.000Z</time>
      </trkpt>
      <trkpt lat="44.47403" lon="6.19728">
        <ele>1080</ele>
        <time>2025-11-21T10:02:41.000Z</time>
      </trkpt>
      <trkpt lat="44.47401" lon="6.19727">
        <ele>1080</ele>
        <time>2025-11-21T10:02:42.000Z</time>
      </trkpt>
      <trkpt lat="44.47401" lon="6.19727">
        <ele>1080</ele>
        <time>2025-11-21T10:02:43.000Z</time>
      </trkpt>
      <trkpt lat="44.474" lon="6.19728">
        <ele>1080</ele>
        <time>2025-11-21T10:02:44.000Z</time>
      </trkpt>
      <trkpt lat="44.474" lon="6.19728">
        <ele>1080</ele>
        <time>2025-11-21T10:02:45.000Z</time>
      </trkpt>
      <trkpt lat="44.47399" lon="6.19727">
        <ele>1079</ele>
        <time>2025-11-21T10:02:46.000Z</time>
      </trkpt>
      <trkpt lat="44.47398" lon="6.19728">
        <ele>1079</ele>
        <time>2025-11-21T10:02:47.000Z</time>
      </trkpt>
      <trkpt lat="44.47396" lon="6.19727">
        <ele>1079</ele>
        <time>2025-11-21T10:02:48.000Z</time>
      </trkpt>
      <trkpt lat="44.47395" lon="6.19727">
        <ele>1079</ele>
        <time>2025-11-21T10:02:49.000Z</time>
      </trkpt>
      <trkpt lat="44.47395" lon="6.19727">
        <ele>1079</ele>
        <time>2025-11-21T10:02:50.000Z</time>
      </trkpt>
      <trkpt lat="44.47394" lon="6.19727">
        <ele>1079</ele>
        <time>2025-11-21T10:02:51.000Z</time>
      </trkpt>
      <trkpt lat="44.47393" lon="6.19727">
        <ele>1079</ele>
        <time>2025-11-21T10:02:52.000Z</time>
      </trkpt>
      <trkpt lat="44.47393" lon="6.19727">
        <ele>1079</ele>
        <time>2025-11-21T10:02:53.000Z</time>
      </trkpt>
      <trkpt lat="44.47393" lon="6.19727">
        <ele>1079</ele>
        <time>2025-11-21T10:02:54.000Z</time>
      </trkpt>
      <trkpt lat="44.47391" lon="6.19726">
        <ele>1078</ele>
        <time>2025-11-21T10:02:55.000Z</time>
      </trkpt>
      <trkpt lat="44.47391" lon="6.19727">
        <ele>1079</ele>
        <time>2025-11-21T10:02:56.000Z</time>
      </trkpt>
      <trkpt lat="44.47391" lon="6.19726">
        <ele>1079</ele>
        <time>2025-11-21T10:02:57.000Z</time>
      </trkpt>
      <trkpt lat="44.47391" lon="6.19726">
        <ele>1079</ele>
        <time>2025-11-21T10:02:58.000Z</time>
      </trkpt>
      <trkpt lat="44.47391" lon="6.19726">
        <ele>1079</ele>
        <time>2025-11-21T10:02:59.000Z</time>
      </trkpt>
      <trkpt lat="44.47391" lon="6.19726">
        <ele>1079</ele>
        <time>2025-11-21T10:03:00.000Z</time>
      </trkpt>
      <trkpt lat="44.4739" lon="6.19727">
        <ele>1078</ele>
        <time>2025-11-21T10:03:01.000Z</time>
      </trkpt>
      <trkpt lat="44.47389" lon="6.19727">
        <ele>1078</ele>
        <time>2025-11-21T10:03:02.000Z</time>
      </trkpt>
      <trkpt lat="44.47388" lon="6.19727">
        <ele>1079</ele>
        <time>2025-11-21T10:03:03.000Z</time>
      </trkpt>
      <trkpt lat="44.47388" lon="6.19728">
        <ele>1079</ele>
        <time>2025-11-21T10:03:04.000Z</time>
      </trkpt>
      <trkpt lat="44.47387" lon="6.19728">
        <ele>1078</ele>
        <time>2025-11-21T10:03:05.000Z</time>
      </trkpt>
      <trkpt lat="44.47386" lon="6.19728">
        <ele>1079</ele>
        <time>2025-11-21T10:03:06.000Z</time>
      </trkpt>
      <trkpt lat="44.47385" lon="6.19728">
        <ele>1079</ele>
        <time>2025-11-21T10:03:07.000Z</time>
      </trkpt>
      <trkpt lat="44.47383" lon="6.19728">
        <ele>1079</ele>
        <time>2025-11-21T10:03:08.000Z</time>
      </trkpt>
      <trkpt lat="44.47382" lon="6.19728">
        <ele>1079</ele>
        <time>2025-11-21T10:03:09.000Z</time>
      </trkpt>
      <trkpt lat="44.47381" lon="6.19728">
        <ele>1078</ele>
        <time>2025-11-21T10:03:10.000Z</time>
      </trkpt>
      <trkpt lat="44.4738" lon="6.19727">
        <ele>1079</ele>
        <time>2025-11-21T10:03:11.000Z</time>
      </trkpt>
      <trkpt lat="44.4738" lon="6.19727">
        <ele>1079</ele>
        <time>2025-11-21T10:03:12.000Z</time>
      </trkpt>
      <trkpt lat="44.47379" lon="6.19726">
        <ele>1079</ele>
        <time>2025-11-21T10:03:13.000Z</time>
      </trkpt>
      <trkpt lat="44.47378" lon="6.19725">
        <ele>1079</ele>
        <time>2025-11-21T10:03:14.000Z</time>
      </trkpt>
      <trkpt lat="44.47377" lon="6.19725">
        <ele>1079</ele>
        <time>2025-11-21T10:03:15.000Z</time>
      </trkpt>
      <trkpt lat="44.47375" lon="6.19725">
        <ele>1078</ele>
        <time>2025-11-21T10:03:16.000Z</time>
      </trkpt>
      <trkpt lat="44.47374" lon="6.19724">
        <ele>1078</ele>
        <time>2025-11-21T10:03:17.000Z</time>
      </trkpt>
      <trkpt lat="44.47373" lon="6.19724">
        <ele>1079</ele>
        <time>2025-11-21T10:03:18.000Z</time>
      </trkpt>
      <trkpt lat="44.47373" lon="6.19725">
        <ele>1079</ele>
        <time>2025-11-21T10:03:19.000Z</time>
      </trkpt>
      <trkpt lat="44.47372" lon="6.19725">
        <ele>1079</ele>
        <time>2025-11-21T10:03:20.000Z</time>
      </trkpt>
      <trkpt lat="44.47372" lon="6.19725">
        <ele>1079</ele>
        <time>2025-11-21T10:03:21.000Z</time>
      </trkpt>
      <trkpt lat="44.47372" lon="6.19725">
        <ele>1079</ele>
        <time>2025-11-21T10:03:22.000Z</time>
      </trkpt>
      <trkpt lat="44.4737" lon="6.19725">
        <ele>1080</ele>
        <time>2025-11-21T10:03:23.000Z</time>
      </trkpt>
      <trkpt lat="44.47369" lon="6.19725">
        <ele>1080</ele>
        <time>2025-11-21T10:03:24.000Z</time>
      </trkpt>
      <trkpt lat="44.47368" lon="6.19724">
        <ele>1080</ele>
        <time>2025-11-21T10:03:25.000Z</time>
      </trkpt>
      <trkpt lat="44.47367" lon="6.19725">
        <ele>1080</ele>
        <time>2025-11-21T10:03:26.000Z</time>
      </trkpt>
      <trkpt lat="44.47366" lon="6.19724">
        <ele>1080</ele>
        <time>2025-11-21T10:03:27.000Z</time>
      </trkpt>
      <trkpt lat="44.47365" lon="6.19723">
        <ele>1080</ele>
        <time>2025-11-21T10:03:28.000Z</time>
      </trkpt>
      <trkpt lat="44.47364" lon="6.19723">
        <ele>1080</ele>
        <time>2025-11-21T10:03:29.000Z</time>
      </trkpt>
      <trkpt lat="44.47364" lon="6.19724">
        <ele>1079</ele>
        <time>2025-11-21T10:03:30.000Z</time>
      </trkpt>
      <trkpt lat="44.47363" lon="6.19724">
        <ele>1078</ele>
        <time>2025-11-21T10:03:31.000Z</time>
      </trkpt>
      <trkpt lat="44.47361" lon="6.19724">
        <ele>1077</ele>
        <time>2025-11-21T10:03:32.000Z</time>
      </trkpt>
      <trkpt lat="44.4736" lon="6.19723">
        <ele>1077</ele>
        <time>2025-11-21T10:03:33.000Z</time>
      </trkpt>
      <trkpt lat="44.47359" lon="6.19723">
        <ele>1077</ele>
        <time>2025-11-21T10:03:34.000Z</time>
      </trkpt>
      <trkpt lat="44.47359" lon="6.19722">
        <ele>1077</ele>
        <time>2025-11-21T10:03:35.000Z</time>
      </trkpt>
      <trkpt lat="44.47359" lon="6.19722">
        <ele>1077</ele>
        <time>2025-11-21T10:03:36.000Z</time>
      </trkpt>
      <trkpt lat="44.47357" lon="6.19722">
        <ele>1076</ele>
        <time>2025-11-21T10:03:37.000Z</time>
      </trkpt>
      <trkpt lat="44.47357" lon="6.19722">
        <ele>1076</ele>
        <time>2025-11-21T10:03:38.000Z</time>
      </trkpt>
      <trkpt lat="44.47355" lon="6.19722">
        <ele>1076</ele>
        <time>2025-11-21T10:03:39.000Z</time>
      </trkpt>
      <trkpt lat="44.47355" lon="6.19722">
        <ele>1076</ele>
        <time>2025-11-21T10:03:40.000Z</time>
      </trkpt>
      <trkpt lat="44.47355" lon="6.19722">
        <ele>1076</ele>
        <time>2025-11-21T10:03:41.000Z</time>
      </trkpt>
      <trkpt lat="44.47355" lon="6.19721">
        <ele>1076</ele>
        <time>2025-11-21T10:03:42.000Z</time>
      </trkpt>
      <trkpt lat="44.47354" lon="6.19722">
        <ele>1076</ele>
        <time>2025-11-21T10:03:43.000Z</time>
      </trkpt>
      <trkpt lat="44.47354" lon="6.19722">
        <ele>1077</ele>
        <time>2025-11-21T10:03:44.000Z</time>
      </trkpt>
      <trkpt lat="44.47353" lon="6.19722">
        <ele>1077</ele>
        <time>2025-11-21T10:03:45.000Z</time>
      </trkpt>
      <trkpt lat="44.47352" lon="6.19723">
        <ele>1076</ele>
        <time>2025-11-21T10:03:46.000Z</time>
      </trkpt>
      <trkpt lat="44.47351" lon="6.19723">
        <ele>1076</ele>
        <time>2025-11-21T10:03:47.000Z</time>
      </trkpt>
      <trkpt lat="44.4735" lon="6.19722">
        <ele>1076</ele>
        <time>2025-11-21T10:03:48.000Z</time>
      </trkpt>
      <trkpt lat="44.4735" lon="6.19721">
        <ele>1076</ele>
        <time>2025-11-21T10:03:49.000Z</time>
      </trkpt>
      <trkpt lat="44.47349" lon="6.19721">
        <ele>1076</ele>
        <time>2025-11-21T10:03:50.000Z</time>
      </trkpt>
      <trkpt lat="44.47348" lon="6.1972">
        <ele>1075</ele>
        <time>2025-11-21T10:03:51.000Z</time>
      </trkpt>
      <trkpt lat="44.47347" lon="6.1972">
        <ele>1075</ele>
        <time>2025-11-21T10:03:52.000Z</time>
      </trkpt>
      <trkpt lat="44.47347" lon="6.1972">
        <ele>1075</ele>
        <time>2025-11-21T10:03:53.000Z</time>
      </trkpt>
      <trkpt lat="44.47347" lon="6.1972">
        <ele>1075</ele>
        <time>2025-11-21T10:03:54.000Z</time>
      </trkpt>
      <trkpt lat="44.47347" lon="6.1972">
        <ele>1075</ele>
        <time>2025-11-21T10:03:55.000Z</time>
      </trkpt>
      <trkpt lat="44.47344" lon="6.19719">
        <ele>1075</ele>
        <time>2025-11-21T10:03:56.000Z</time>
      </trkpt>
      <trkpt lat="44.47344" lon="6.19719">
        <ele>1075</ele>
        <time>2025-11-21T10:03:57.000Z</time>
      </trkpt>
      <trkpt lat="44.47343" lon="6.19719">
        <ele>1075</ele>
        <time>2025-11-21T10:03:58.000Z</time>
      </trkpt>
      <trkpt lat="44.47342" lon="6.19719">
        <ele>1075</ele>
        <time>2025-11-21T10:03:59.000Z</time>
      </trkpt>
      <trkpt lat="44.47341" lon="6.19719">
        <ele>1074</ele>
        <time>2025-11-21T10:04:00.000Z</time>
      </trkpt>
      <trkpt lat="44.4734" lon="6.19719">
        <ele>1074</ele>
        <time>2025-11-21T10:04:01.000Z</time>
      </trkpt>
      <trkpt lat="44.47338" lon="6.19719">
        <ele>1073</ele>
        <time>2025-11-21T10:04:02.000Z</time>
      </trkpt>
      <trkpt lat="44.47337" lon="6.19718">
        <ele>1073</ele>
        <time>2025-11-21T10:04:03.000Z</time>
      </trkpt>
      <trkpt lat="44.47335" lon="6.19718">
        <ele>1073</ele>
        <time>2025-11-21T10:04:04.000Z</time>
      </trkpt>
      <trkpt lat="44.47335" lon="6.19718">
        <ele>1073</ele>
        <time>2025-11-21T10:04:05.000Z</time>
      </trkpt>
      <trkpt lat="44.47334" lon="6.19717">
        <ele>1073</ele>
        <time>2025-11-21T10:04:06.000Z</time>
      </trkpt>
      <trkpt lat="44.47334" lon="6.19717">
        <ele>1073</ele>
        <time>2025-11-21T10:04:07.000Z</time>
      </trkpt>
      <trkpt lat="44.47334" lon="6.19717">
        <ele>1073</ele>
        <time>2025-11-21T10:04:08.000Z</time>
      </trkpt>
      <trkpt lat="44.47333" lon="6.19717">
        <ele>1073</ele>
        <time>2025-11-21T10:04:09.000Z</time>
      </trkpt>
      <trkpt lat="44.47332" lon="6.19717">
        <ele>1072</ele>
        <time>2025-11-21T10:04:10.000Z</time>
      </trkpt>
      <trkpt lat="44.47331" lon="6.19717">
        <ele>1072</ele>
        <time>2025-11-21T10:04:11.000Z</time>
      </trkpt>
      <trkpt lat="44.4733" lon="6.19716">
        <ele>1073</ele>
        <time>2025-11-21T10:04:12.000Z</time>
      </trkpt>
      <trkpt lat="44.47329" lon="6.19716">
        <ele>1072</ele>
        <time>2025-11-21T10:04:13.000Z</time>
      </trkpt>
      <trkpt lat="44.47328" lon="6.19716">
        <ele>1073</ele>
        <time>2025-11-21T10:04:14.000Z</time>
      </trkpt>
      <trkpt lat="44.47327" lon="6.19716">
        <ele>1072</ele>
        <time>2025-11-21T10:04:15.000Z</time>
      </trkpt>
      <trkpt lat="44.47325" lon="6.19716">
        <ele>1072</ele>
        <time>2025-11-21T10:04:16.000Z</time>
      </trkpt>
      <trkpt lat="44.47324" lon="6.19716">
        <ele>1071</ele>
        <time>2025-11-21T10:04:17.000Z</time>
      </trkpt>
      <trkpt lat="44.47322" lon="6.19716">
        <ele>1071</ele>
        <time>2025-11-21T10:04:18.000Z</time>
      </trkpt>
      <trkpt lat="44.47322" lon="6.19716">
        <ele>1071</ele>
        <time>2025-11-21T10:04:19.000Z</time>
      </trkpt>
      <trkpt lat="44.47321" lon="6.19716">
        <ele>1070</ele>
        <time>2025-11-21T10:04:20.000Z</time>
      </trkpt>
      <trkpt lat="44.4732" lon="6.19717">
        <ele>1070</ele>
        <time>2025-11-21T10:04:21.000Z</time>
      </trkpt>
      <trkpt lat="44.47318" lon="6.19717">
        <ele>1070</ele>
        <time>2025-11-21T10:04:22.000Z</time>
      </trkpt>
      <trkpt lat="44.47317" lon="6.19717">
        <ele>1070</ele>
        <time>2025-11-21T10:04:23.000Z</time>
      </trkpt>
      <trkpt lat="44.47316" lon="6.19717">
        <ele>1071</ele>
        <time>2025-11-21T10:04:24.000Z</time>
      </trkpt>
      <trkpt lat="44.47315" lon="6.19717">
        <ele>1071</ele>
        <time>2025-11-21T10:04:25.000Z</time>
      </trkpt>
      <trkpt lat="44.47314" lon="6.19717">
        <ele>1071</ele>
        <time>2025-11-21T10:04:26.000Z</time>
      </trkpt>
      <trkpt lat="44.47313" lon="6.19717">
        <ele>1071</ele>
        <time>2025-11-21T10:04:27.000Z</time>
      </trkpt>
      <trkpt lat="44.47313" lon="6.19718">
        <ele>1071</ele>
        <time>2025-11-21T10:04:28.000Z</time>
      </trkpt>
      <trkpt lat="44.47312" lon="6.19718">
        <ele>1070</ele>
        <time>2025-11-21T10:04:29.000Z</time>
      </trkpt>
      <trkpt lat="44.47311" lon="6.19718">
        <ele>1070</ele>
        <time>2025-11-21T10:04:30.000Z</time>
      </trkpt>
      <trkpt lat="44.4731" lon="6.19718">
        <ele>1070</ele>
        <time>2025-11-21T10:04:31.000Z</time>
      </trkpt>
      <trkpt lat="44.47309" lon="6.19717">
        <ele>1069</ele>
        <time>2025-11-21T10:04:32.000Z</time>
      </trkpt>
      <trkpt lat="44.47308" lon="6.19717">
        <ele>1069</ele>
        <time>2025-11-21T10:04:33.000Z</time>
      </trkpt>
      <trkpt lat="44.47308" lon="6.19718">
        <ele>1069</ele>
        <time>2025-11-21T10:04:34.000Z</time>
      </trkpt>
      <trkpt lat="44.47307" lon="6.19718">
        <ele>1069</ele>
        <time>2025-11-21T10:04:35.000Z</time>
      </trkpt>
      <trkpt lat="44.47307" lon="6.19718">
        <ele>1069</ele>
        <time>2025-11-21T10:04:36.000Z</time>
      </trkpt>
      <trkpt lat="44.47307" lon="6.19718">
        <ele>1069</ele>
        <time>2025-11-21T10:04:37.000Z</time>
      </trkpt>
      <trkpt lat="44.47306" lon="6.19718">
        <ele>1067</ele>
        <time>2025-11-21T10:04:38.000Z</time>
      </trkpt>
      <trkpt lat="44.47305" lon="6.19718">
        <ele>1067</ele>
        <time>2025-11-21T10:04:39.000Z</time>
      </trkpt>
      <trkpt lat="44.47303" lon="6.19718">
        <ele>1067</ele>
        <time>2025-11-21T10:04:40.000Z</time>
      </trkpt>
      <trkpt lat="44.47302" lon="6.19717">
        <ele>1067</ele>
        <time>2025-11-21T10:04:41.000Z</time>
      </trkpt>
      <trkpt lat="44.47301" lon="6.19717">
        <ele>1066</ele>
        <time>2025-11-21T10:04:42.000Z</time>
      </trkpt>
      <trkpt lat="44.47301" lon="6.19716">
        <ele>1067</ele>
        <time>2025-11-21T10:04:43.000Z</time>
      </trkpt>
      <trkpt lat="44.47301" lon="6.19716">
        <ele>1067</ele>
        <time>2025-11-21T10:04:44.000Z</time>
      </trkpt>
      <trkpt lat="44.473" lon="6.19716">
        <ele>1067</ele>
        <time>2025-11-21T10:04:45.000Z</time>
      </trkpt>
      <trkpt lat="44.47299" lon="6.19715">
        <ele>1067</ele>
        <time>2025-11-21T10:04:46.000Z</time>
      </trkpt>
      <trkpt lat="44.47298" lon="6.19715">
        <ele>1067</ele>
        <time>2025-11-21T10:04:47.000Z</time>
      </trkpt>
      <trkpt lat="44.47297" lon="6.19714">
        <ele>1067</ele>
        <time>2025-11-21T10:04:48.000Z</time>
      </trkpt>
      <trkpt lat="44.47295" lon="6.19714">
        <ele>1066</ele>
        <time>2025-11-21T10:04:49.000Z</time>
      </trkpt>
      <trkpt lat="44.47294" lon="6.19714">
        <ele>1066</ele>
        <time>2025-11-21T10:04:50.000Z</time>
      </trkpt>
      <trkpt lat="44.47294" lon="6.19714">
        <ele>1066</ele>
        <time>2025-11-21T10:04:51.000Z</time>
      </trkpt>
      <trkpt lat="44.47293" lon="6.19713">
        <ele>1065</ele>
        <time>2025-11-21T10:04:52.000Z</time>
      </trkpt>
      <trkpt lat="44.47293" lon="6.19713">
        <ele>1065</ele>
        <time>2025-11-21T10:04:53.000Z</time>
      </trkpt>
      <trkpt lat="44.47293" lon="6.19713">
        <ele>1065</ele>
        <time>2025-11-21T10:04:54.000Z</time>
      </trkpt>
      <trkpt lat="44.47293" lon="6.19713">
        <ele>1065</ele>
        <time>2025-11-21T10:04:55.000Z</time>
      </trkpt>
      <trkpt lat="44.47291" lon="6.19712">
        <ele>1065</ele>
        <time>2025-11-21T10:04:56.000Z</time>
      </trkpt>
      <trkpt lat="44.4729" lon="6.19711">
        <ele>1066</ele>
        <time>2025-11-21T10:04:57.000Z</time>
      </trkpt>
      <trkpt lat="44.4729" lon="6.19712">
        <ele>1065</ele>
        <time>2025-11-21T10:04:58.000Z</time>
      </trkpt>
      <trkpt lat="44.47294" lon="6.19709">
        <ele>1062</ele>
        <time>2025-11-21T10:05:11.000Z</time>
      </trkpt>
      <trkpt lat="44.47294" lon="6.19709">
        <ele>1062</ele>
        <time>2025-11-21T10:05:12.000Z</time>
      </trkpt>
      <trkpt lat="44.47294" lon="6.19708">
        <ele>1061</ele>
        <time>2025-11-21T10:05:13.000Z</time>
      </trkpt>
      <trkpt lat="44.47295" lon="6.19707">
        <ele>1061</ele>
        <time>2025-11-21T10:05:14.000Z</time>
      </trkpt>
      <trkpt lat="44.47296" lon="6.19706">
        <ele>1061</ele>
        <time>2025-11-21T10:05:15.000Z</time>
      </trkpt>
      <trkpt lat="44.47297" lon="6.19705">
        <ele>1060</ele>
        <time>2025-11-21T10:05:16.000Z</time>
      </trkpt>
      <trkpt lat="44.47297" lon="6.19704">
        <ele>1059</ele>
        <time>2025-11-21T10:05:17.000Z</time>
      </trkpt>
      <trkpt lat="44.47298" lon="6.19703">
        <ele>1059</ele>
        <time>2025-11-21T10:05:18.000Z</time>
      </trkpt>
      <trkpt lat="44.47299" lon="6.19703">
        <ele>1058</ele>
        <time>2025-11-21T10:05:19.000Z</time>
      </trkpt>
      <trkpt lat="44.47299" lon="6.19701">
        <ele>1058</ele>
        <time>2025-11-21T10:05:20.000Z</time>
      </trkpt>
      <trkpt lat="44.473" lon="6.197">
        <ele>1058</ele>
        <time>2025-11-21T10:05:21.000Z</time>
      </trkpt>
      <trkpt lat="44.473" lon="6.19699">
        <ele>1057</ele>
        <time>2025-11-21T10:05:22.000Z</time>
      </trkpt>
      <trkpt lat="44.47301" lon="6.19698">
        <ele>1057</ele>
        <time>2025-11-21T10:05:23.000Z</time>
      </trkpt>
      <trkpt lat="44.47301" lon="6.19697">
        <ele>1057</ele>
        <time>2025-11-21T10:05:24.000Z</time>
      </trkpt>
      <trkpt lat="44.47302" lon="6.19697">
        <ele>1056</ele>
        <time>2025-11-21T10:05:25.000Z</time>
      </trkpt>
      <trkpt lat="44.47302" lon="6.19696">
        <ele>1056</ele>
        <time>2025-11-21T10:05:26.000Z</time>
      </trkpt>
      <trkpt lat="44.47303" lon="6.19695">
        <ele>1056</ele>
        <time>2025-11-21T10:05:27.000Z</time>
      </trkpt>
      <trkpt lat="44.47303" lon="6.19694">
        <ele>1056</ele>
        <time>2025-11-21T10:05:28.000Z</time>
      </trkpt>
      <trkpt lat="44.47304" lon="6.19692">
        <ele>1057</ele>
        <time>2025-11-21T10:05:29.000Z</time>
      </trkpt>
      <trkpt lat="44.47306" lon="6.19691">
        <ele>1057</ele>
        <time>2025-11-21T10:05:30.000Z</time>
      </trkpt>
      <trkpt lat="44.47306" lon="6.1969">
        <ele>1056</ele>
        <time>2025-11-21T10:05:31.000Z</time>
      </trkpt>
      <trkpt lat="44.47307" lon="6.1969">
        <ele>1056</ele>
        <time>2025-11-21T10:05:32.000Z</time>
      </trkpt>
      <trkpt lat="44.47309" lon="6.1969">
        <ele>1055</ele>
        <time>2025-11-21T10:05:33.000Z</time>
      </trkpt>
      <trkpt lat="44.47309" lon="6.1969">
        <ele>1055</ele>
        <time>2025-11-21T10:05:34.000Z</time>
      </trkpt>
      <trkpt lat="44.4731" lon="6.1969">
        <ele>1055</ele>
        <time>2025-11-21T10:05:35.000Z</time>
      </trkpt>
      <trkpt lat="44.47311" lon="6.19688">
        <ele>1055</ele>
        <time>2025-11-21T10:05:36.000Z</time>
      </trkpt>
      <trkpt lat="44.47312" lon="6.19687">
        <ele>1055</ele>
        <time>2025-11-21T10:05:37.000Z</time>
      </trkpt>
      <trkpt lat="44.47313" lon="6.19687">
        <ele>1055</ele>
        <time>2025-11-21T10:05:38.000Z</time>
      </trkpt>
      <trkpt lat="44.47313" lon="6.19686">
        <ele>1055</ele>
        <time>2025-11-21T10:05:39.000Z</time>
      </trkpt>
      <trkpt lat="44.47314" lon="6.19686">
        <ele>1055</ele>
        <time>2025-11-21T10:05:40.000Z</time>
      </trkpt>
      <trkpt lat="44.47315" lon="6.19684">
        <ele>1055</ele>
        <time>2025-11-21T10:05:41.000Z</time>
      </trkpt>
      <trkpt lat="44.47315" lon="6.19683">
        <ele>1055</ele>
        <time>2025-11-21T10:05:42.000Z</time>
      </trkpt>
      <trkpt lat="44.47315" lon="6.19683">
        <ele>1055</ele>
        <time>2025-11-21T10:05:43.000Z</time>
      </trkpt>
      <trkpt lat="44.47316" lon="6.19681">
        <ele>1054</ele>
        <time>2025-11-21T10:05:44.000Z</time>
      </trkpt>
      <trkpt lat="44.47317" lon="6.1968">
        <ele>1054</ele>
        <time>2025-11-21T10:05:45.000Z</time>
      </trkpt>
      <trkpt lat="44.47318" lon="6.19678">
        <ele>1054</ele>
        <time>2025-11-21T10:05:46.000Z</time>
      </trkpt>
      <trkpt lat="44.47318" lon="6.19677">
        <ele>1053</ele>
        <time>2025-11-21T10:05:47.000Z</time>
      </trkpt>
      <trkpt lat="44.47319" lon="6.19676">
        <ele>1052</ele>
        <time>2025-11-21T10:05:48.000Z</time>
      </trkpt>
      <trkpt lat="44.47319" lon="6.19676">
        <ele>1052</ele>
        <time>2025-11-21T10:05:49.000Z</time>
      </trkpt>
      <trkpt lat="44.4732" lon="6.19676">
        <ele>1052</ele>
        <time>2025-11-21T10:05:50.000Z</time>
      </trkpt>
      <trkpt lat="44.4732" lon="6.19675">
        <ele>1053</ele>
        <time>2025-11-21T10:05:51.000Z</time>
      </trkpt>
      <trkpt lat="44.4732" lon="6.19675">
        <ele>1053</ele>
        <time>2025-11-21T10:05:52.000Z</time>
      </trkpt>
      <trkpt lat="44.4732" lon="6.19675">
        <ele>1053</ele>
        <time>2025-11-21T10:05:53.000Z</time>
      </trkpt>
      <trkpt lat="44.47322" lon="6.19674">
        <ele>1053</ele>
        <time>2025-11-21T10:05:54.000Z</time>
      </trkpt>
      <trkpt lat="44.47323" lon="6.19673">
        <ele>1053</ele>
        <time>2025-11-21T10:05:55.000Z</time>
      </trkpt>
      <trkpt lat="44.47323" lon="6.19672">
        <ele>1053</ele>
        <time>2025-11-21T10:05:56.000Z</time>
      </trkpt>
      <trkpt lat="44.47324" lon="6.19671">
        <ele>1052</ele>
        <time>2025-11-21T10:05:57.000Z</time>
      </trkpt>
      <trkpt lat="44.47325" lon="6.1967">
        <ele>1052</ele>
        <time>2025-11-21T10:05:58.000Z</time>
      </trkpt>
      <trkpt lat="44.47325" lon="6.1967">
        <ele>1052</ele>
        <time>2025-11-21T10:05:59.000Z</time>
      </trkpt>
      <trkpt lat="44.47327" lon="6.1967">
        <ele>1052</ele>
        <time>2025-11-21T10:06:00.000Z</time>
      </trkpt>
      <trkpt lat="44.47328" lon="6.1967">
        <ele>1052</ele>
        <time>2025-11-21T10:06:01.000Z</time>
      </trkpt>
      <trkpt lat="44.47329" lon="6.1967">
        <ele>1051</ele>
        <time>2025-11-21T10:06:02.000Z</time>
      </trkpt>
      <trkpt lat="44.47329" lon="6.19669">
        <ele>1051</ele>
        <time>2025-11-21T10:06:03.000Z</time>
      </trkpt>
      <trkpt lat="44.4733" lon="6.19668">
        <ele>1051</ele>
        <time>2025-11-21T10:06:04.000Z</time>
      </trkpt>
      <trkpt lat="44.47331" lon="6.19668">
        <ele>1050</ele>
        <time>2025-11-21T10:06:05.000Z</time>
      </trkpt>
      <trkpt lat="44.47332" lon="6.19667">
        <ele>1049</ele>
        <time>2025-11-21T10:06:06.000Z</time>
      </trkpt>
      <trkpt lat="44.47332" lon="6.19666">
        <ele>1049</ele>
        <time>2025-11-21T10:06:07.000Z</time>
      </trkpt>
      <trkpt lat="44.47333" lon="6.19664">
        <ele>1049</ele>
        <time>2025-11-21T10:06:08.000Z</time>
      </trkpt>
      <trkpt lat="44.47335" lon="6.19662">
        <ele>1049</ele>
        <time>2025-11-21T10:06:09.000Z</time>
      </trkpt>
      <trkpt lat="44.47336" lon="6.19661">
        <ele>1049</ele>
        <time>2025-11-21T10:06:10.000Z</time>
      </trkpt>
      <trkpt lat="44.47337" lon="6.19659">
        <ele>1049</ele>
        <time>2025-11-21T10:06:11.000Z</time>
      </trkpt>
      <trkpt lat="44.47337" lon="6.19658">
        <ele>1050</ele>
        <time>2025-11-21T10:06:12.000Z</time>
      </trkpt>
      <trkpt lat="44.47338" lon="6.19656">
        <ele>1049</ele>
        <time>2025-11-21T10:06:13.000Z</time>
      </trkpt>
      <trkpt lat="44.47339" lon="6.19656">
        <ele>1049</ele>
        <time>2025-11-21T10:06:14.000Z</time>
      </trkpt>
      <trkpt lat="44.4734" lon="6.19655">
        <ele>1049</ele>
        <time>2025-11-21T10:06:15.000Z</time>
      </trkpt>
      <trkpt lat="44.47341" lon="6.19654">
        <ele>1049</ele>
        <time>2025-11-21T10:06:16.000Z</time>
      </trkpt>
      <trkpt lat="44.47342" lon="6.19654">
        <ele>1049</ele>
        <time>2025-11-21T10:06:17.000Z</time>
      </trkpt>
      <trkpt lat="44.47343" lon="6.19653">
        <ele>1049</ele>
        <time>2025-11-21T10:06:18.000Z</time>
      </trkpt>
      <trkpt lat="44.47344" lon="6.19652">
        <ele>1048</ele>
        <time>2025-11-21T10:06:19.000Z</time>
      </trkpt>
      <trkpt lat="44.47345" lon="6.19651">
        <ele>1049</ele>
        <time>2025-11-21T10:06:20.000Z</time>
      </trkpt>
      <trkpt lat="44.47345" lon="6.1965">
        <ele>1048</ele>
        <time>2025-11-21T10:06:21.000Z</time>
      </trkpt>
      <trkpt lat="44.47346" lon="6.19649">
        <ele>1048</ele>
        <time>2025-11-21T10:06:22.000Z</time>
      </trkpt>
      <trkpt lat="44.47347" lon="6.19647">
        <ele>1048</ele>
        <time>2025-11-21T10:06:23.000Z</time>
      </trkpt>
      <trkpt lat="44.47348" lon="6.19646">
        <ele>1048</ele>
        <time>2025-11-21T10:06:24.000Z</time>
      </trkpt>
      <trkpt lat="44.47348" lon="6.19645">
        <ele>1048</ele>
        <time>2025-11-21T10:06:25.000Z</time>
      </trkpt>
      <trkpt lat="44.47349" lon="6.19644">
        <ele>1047</ele>
        <time>2025-11-21T10:06:26.000Z</time>
      </trkpt>
      <trkpt lat="44.4735" lon="6.19642">
        <ele>1047</ele>
        <time>2025-11-21T10:06:27.000Z</time>
      </trkpt>
      <trkpt lat="44.47351" lon="6.19641">
        <ele>1047</ele>
        <time>2025-11-21T10:06:28.000Z</time>
      </trkpt>
      <trkpt lat="44.47351" lon="6.19639">
        <ele>1047</ele>
        <time>2025-11-21T10:06:29.000Z</time>
      </trkpt>
      <trkpt lat="44.47352" lon="6.19637">
        <ele>1047</ele>
        <time>2025-11-21T10:06:30.000Z</time>
      </trkpt>
      <trkpt lat="44.47352" lon="6.19636">
        <ele>1047</ele>
        <time>2025-11-21T10:06:31.000Z</time>
      </trkpt>
      <trkpt lat="44.47354" lon="6.19635">
        <ele>1047</ele>
        <time>2025-11-21T10:06:32.000Z</time>
      </trkpt>
      <trkpt lat="44.47355" lon="6.19633">
        <ele>1046</ele>
        <time>2025-11-21T10:06:33.000Z</time>
      </trkpt>
      <trkpt lat="44.47355" lon="6.19632">
        <ele>1046</ele>
        <time>2025-11-21T10:06:34.000Z</time>
      </trkpt>
      <trkpt lat="44.47355" lon="6.19631">
        <ele>1046</ele>
        <time>2025-11-21T10:06:35.000Z</time>
      </trkpt>
      <trkpt lat="44.47355" lon="6.1963">
        <ele>1045</ele>
        <time>2025-11-21T10:06:36.000Z</time>
      </trkpt>
      <trkpt lat="44.47356" lon="6.19628">
        <ele>1045</ele>
        <time>2025-11-21T10:06:37.000Z</time>
      </trkpt>
      <trkpt lat="44.47356" lon="6.19627">
        <ele>1045</ele>
        <time>2025-11-21T10:06:38.000Z</time>
      </trkpt>
      <trkpt lat="44.47357" lon="6.19625">
        <ele>1046</ele>
        <time>2025-11-21T10:06:39.000Z</time>
      </trkpt>
      <trkpt lat="44.47357" lon="6.19624">
        <ele>1046</ele>
        <time>2025-11-21T10:06:40.000Z</time>
      </trkpt>
      <trkpt lat="44.47358" lon="6.19622">
        <ele>1045</ele>
        <time>2025-11-21T10:06:41.000Z</time>
      </trkpt>
      <trkpt lat="44.47359" lon="6.1962">
        <ele>1046</ele>
        <time>2025-11-21T10:06:42.000Z</time>
      </trkpt>
      <trkpt lat="44.47359" lon="6.19619">
        <ele>1046</ele>
        <time>2025-11-21T10:06:43.000Z</time>
      </trkpt>
      <trkpt lat="44.4736" lon="6.19617">
        <ele>1046</ele>
        <time>2025-11-21T10:06:44.000Z</time>
      </trkpt>
      <trkpt lat="44.47361" lon="6.19616">
        <ele>1047</ele>
        <time>2025-11-21T10:06:45.000Z</time>
      </trkpt>
      <trkpt lat="44.47362" lon="6.19614">
        <ele>1047</ele>
        <time>2025-11-21T10:06:46.000Z</time>
      </trkpt>
      <trkpt lat="44.47362" lon="6.19613">
        <ele>1047</ele>
        <time>2025-11-21T10:06:47.000Z</time>
      </trkpt>
      <trkpt lat="44.47363" lon="6.19611">
        <ele>1047</ele>
        <time>2025-11-21T10:06:48.000Z</time>
      </trkpt>
      <trkpt lat="44.47363" lon="6.19611">
        <ele>1047</ele>
        <time>2025-11-21T10:06:49.000Z</time>
      </trkpt>
      <trkpt lat="44.47363" lon="6.19609">
        <ele>1047</ele>
        <time>2025-11-21T10:06:50.000Z</time>
      </trkpt>
      <trkpt lat="44.47364" lon="6.19608">
        <ele>1047</ele>
        <time>2025-11-21T10:06:51.000Z</time>
      </trkpt>
      <trkpt lat="44.47364" lon="6.19606">
        <ele>1047</ele>
        <time>2025-11-21T10:06:52.000Z</time>
      </trkpt>
      <trkpt lat="44.47365" lon="6.19605">
        <ele>1047</ele>
        <time>2025-11-21T10:06:53.000Z</time>
      </trkpt>
      <trkpt lat="44.47366" lon="6.19603">
        <ele>1047</ele>
        <time>2025-11-21T10:06:54.000Z</time>
      </trkpt>
      <trkpt lat="44.47367" lon="6.19601">
        <ele>1047</ele>
        <time>2025-11-21T10:06:55.000Z</time>
      </trkpt>
      <trkpt lat="44.47368" lon="6.19601">
        <ele>1047</ele>
        <time>2025-11-21T10:06:56.000Z</time>
      </trkpt>
      <trkpt lat="44.47368" lon="6.196">
        <ele>1047</ele>
        <time>2025-11-21T10:06:57.000Z</time>
      </trkpt>
      <trkpt lat="44.47368" lon="6.19599">
        <ele>1047</ele>
        <time>2025-11-21T10:06:58.000Z</time>
      </trkpt>
      <trkpt lat="44.47369" lon="6.19598">
        <ele>1047</ele>
        <time>2025-11-21T10:06:59.000Z</time>
      </trkpt>
      <trkpt lat="44.47369" lon="6.19597">
        <ele>1047</ele>
        <time>2025-11-21T10:07:00.000Z</time>
      </trkpt>
      <trkpt lat="44.4737" lon="6.19596">
        <ele>1047</ele>
        <time>2025-11-21T10:07:01.000Z</time>
      </trkpt>
      <trkpt lat="44.4737" lon="6.19595">
        <ele>1047</ele>
        <time>2025-11-21T10:07:02.000Z</time>
      </trkpt>
      <trkpt lat="44.47371" lon="6.19594">
        <ele>1047</ele>
        <time>2025-11-21T10:07:03.000Z</time>
      </trkpt>
      <trkpt lat="44.47372" lon="6.19593">
        <ele>1047</ele>
        <time>2025-11-21T10:07:04.000Z</time>
      </trkpt>
      <trkpt lat="44.47373" lon="6.19592">
        <ele>1047</ele>
        <time>2025-11-21T10:07:05.000Z</time>
      </trkpt>
      <trkpt lat="44.47373" lon="6.19592">
        <ele>1047</ele>
        <time>2025-11-21T10:07:06.000Z</time>
      </trkpt>
      <trkpt lat="44.47374" lon="6.19591">
        <ele>1047</ele>
        <time>2025-11-21T10:07:07.000Z</time>
      </trkpt>
      <trkpt lat="44.47374" lon="6.1959">
        <ele>1047</ele>
        <time>2025-11-21T10:07:08.000Z</time>
      </trkpt>
      <trkpt lat="44.47375" lon="6.19589">
        <ele>1047</ele>
        <time>2025-11-21T10:07:09.000Z</time>
      </trkpt>
      <trkpt lat="44.47375" lon="6.19588">
        <ele>1047</ele>
        <time>2025-11-21T10:07:10.000Z</time>
      </trkpt>
      <trkpt lat="44.47376" lon="6.19587">
        <ele>1047</ele>
        <time>2025-11-21T10:07:11.000Z</time>
      </trkpt>
      <trkpt lat="44.47377" lon="6.19585">
        <ele>1048</ele>
        <time>2025-11-21T10:07:12.000Z</time>
      </trkpt>
      <trkpt lat="44.47378" lon="6.19584">
        <ele>1047</ele>
        <time>2025-11-21T10:07:13.000Z</time>
      </trkpt>
      <trkpt lat="44.47378" lon="6.19583">
        <ele>1047</ele>
        <time>2025-11-21T10:07:14.000Z</time>
      </trkpt>
      <trkpt lat="44.47379" lon="6.19582">
        <ele>1047</ele>
        <time>2025-11-21T10:07:15.000Z</time>
      </trkpt>
      <trkpt lat="44.4738" lon="6.19581">
        <ele>1047</ele>
        <time>2025-11-21T10:07:16.000Z</time>
      </trkpt>
      <trkpt lat="44.4738" lon="6.19581">
        <ele>1047</ele>
        <time>2025-11-21T10:07:17.000Z</time>
      </trkpt>
      <trkpt lat="44.4738" lon="6.19581">
        <ele>1047</ele>
        <time>2025-11-21T10:07:18.000Z</time>
      </trkpt>
      <trkpt lat="44.47381" lon="6.1958">
        <ele>1047</ele>
        <time>2025-11-21T10:07:19.000Z</time>
      </trkpt>
      <trkpt lat="44.47382" lon="6.19579">
        <ele>1047</ele>
        <time>2025-11-21T10:07:20.000Z</time>
      </trkpt>
      <trkpt lat="44.47383" lon="6.19578">
        <ele>1047</ele>
        <time>2025-11-21T10:07:21.000Z</time>
      </trkpt>
      <trkpt lat="44.47383" lon="6.19577">
        <ele>1047</ele>
        <time>2025-11-21T10:07:22.000Z</time>
      </trkpt>
      <trkpt lat="44.47384" lon="6.19576">
        <ele>1046</ele>
        <time>2025-11-21T10:07:23.000Z</time>
      </trkpt>
      <trkpt lat="44.47385" lon="6.19575">
        <ele>1047</ele>
        <time>2025-11-21T10:07:24.000Z</time>
      </trkpt>
      <trkpt lat="44.47386" lon="6.19574">
        <ele>1047</ele>
        <time>2025-11-21T10:07:25.000Z</time>
      </trkpt>
      <trkpt lat="44.47386" lon="6.19574">
        <ele>1047</ele>
        <time>2025-11-21T10:07:26.000Z</time>
      </trkpt>
      <trkpt lat="44.47387" lon="6.19574">
        <ele>1047</ele>
        <time>2025-11-21T10:07:27.000Z</time>
      </trkpt>
      <trkpt lat="44.47388" lon="6.19573">
        <ele>1046</ele>
        <time>2025-11-21T10:07:28.000Z</time>
      </trkpt>
      <trkpt lat="44.47389" lon="6.19573">
        <ele>1046</ele>
        <time>2025-11-21T10:07:29.000Z</time>
      </trkpt>
      <trkpt lat="44.4739" lon="6.19573">
        <ele>1045</ele>
        <time>2025-11-21T10:07:30.000Z</time>
      </trkpt>
      <trkpt lat="44.47391" lon="6.19573">
        <ele>1045</ele>
        <time>2025-11-21T10:07:31.000Z</time>
      </trkpt>
      <trkpt lat="44.47391" lon="6.19571">
        <ele>1045</ele>
        <time>2025-11-21T10:07:32.000Z</time>
      </trkpt>
      <trkpt lat="44.47392" lon="6.19571">
        <ele>1045</ele>
        <time>2025-11-21T10:07:33.000Z</time>
      </trkpt>
      <trkpt lat="44.47393" lon="6.19569">
        <ele>1045</ele>
        <time>2025-11-21T10:07:34.000Z</time>
      </trkpt>
      <trkpt lat="44.47393" lon="6.19568">
        <ele>1045</ele>
        <time>2025-11-21T10:07:35.000Z</time>
      </trkpt>
      <trkpt lat="44.47394" lon="6.19567">
        <ele>1044</ele>
        <time>2025-11-21T10:07:36.000Z</time>
      </trkpt>
      <trkpt lat="44.47394" lon="6.19566">
        <ele>1044</ele>
        <time>2025-11-21T10:07:37.000Z</time>
      </trkpt>
      <trkpt lat="44.47395" lon="6.19564">
        <ele>1043</ele>
        <time>2025-11-21T10:07:38.000Z</time>
      </trkpt>
      <trkpt lat="44.47395" lon="6.19563">
        <ele>1043</ele>
        <time>2025-11-21T10:07:39.000Z</time>
      </trkpt>
      <trkpt lat="44.47395" lon="6.19562">
        <ele>1043</ele>
        <time>2025-11-21T10:07:40.000Z</time>
      </trkpt>
      <trkpt lat="44.47394" lon="6.19561">
        <ele>1043</ele>
        <time>2025-11-21T10:07:41.000Z</time>
      </trkpt>
      <trkpt lat="44.47393" lon="6.19561">
        <ele>1043</ele>
        <time>2025-11-21T10:07:42.000Z</time>
      </trkpt>
      <trkpt lat="44.47392" lon="6.19559">
        <ele>1042</ele>
        <time>2025-11-21T10:07:43.000Z</time>
      </trkpt>
      <trkpt lat="44.47391" lon="6.19558">
        <ele>1042</ele>
        <time>2025-11-21T10:07:44.000Z</time>
      </trkpt>
      <trkpt lat="44.4739" lon="6.19558">
        <ele>1041</ele>
        <time>2025-11-21T10:07:45.000Z</time>
      </trkpt>
      <trkpt lat="44.47389" lon="6.19558">
        <ele>1041</ele>
        <time>2025-11-21T10:07:46.000Z</time>
      </trkpt>
      <trkpt lat="44.47389" lon="6.19558">
        <ele>1040</ele>
        <time>2025-11-21T10:07:47.000Z</time>
      </trkpt>
      <trkpt lat="44.47388" lon="6.19558">
        <ele>1041</ele>
        <time>2025-11-21T10:07:48.000Z</time>
      </trkpt>
      <trkpt lat="44.47388" lon="6.19557">
        <ele>1040</ele>
        <time>2025-11-21T10:07:49.000Z</time>
      </trkpt>
      <trkpt lat="44.47388" lon="6.19556">
        <ele>1040</ele>
        <time>2025-11-21T10:07:50.000Z</time>
      </trkpt>
      <trkpt lat="44.47388" lon="6.19555">
        <ele>1040</ele>
        <time>2025-11-21T10:07:51.000Z</time>
      </trkpt>
      <trkpt lat="44.47387" lon="6.19555">
        <ele>1041</ele>
        <time>2025-11-21T10:07:52.000Z</time>
      </trkpt>
      <trkpt lat="44.47387" lon="6.19554">
        <ele>1041</ele>
        <time>2025-11-21T10:07:53.000Z</time>
      </trkpt>
      <trkpt lat="44.47387" lon="6.19554">
        <ele>1041</ele>
        <time>2025-11-21T10:07:54.000Z</time>
      </trkpt>
      <trkpt lat="44.47387" lon="6.19554">
        <ele>1041</ele>
        <time>2025-11-21T10:07:55.000Z</time>
      </trkpt>
      <trkpt lat="44.47387" lon="6.19554">
        <ele>1041</ele>
        <time>2025-11-21T10:07:56.000Z</time>
      </trkpt>
      <trkpt lat="44.47386" lon="6.19551">
        <ele>1041</ele>
        <time>2025-11-21T10:07:57.000Z</time>
      </trkpt>
      <trkpt lat="44.47385" lon="6.1955">
        <ele>1041</ele>
        <time>2025-11-21T10:07:58.000Z</time>
      </trkpt>
      <trkpt lat="44.47385" lon="6.1955">
        <ele>1041</ele>
        <time>2025-11-21T10:07:59.000Z</time>
      </trkpt>
      <trkpt lat="44.47384" lon="6.19549">
        <ele>1041</ele>
        <time>2025-11-21T10:08:00.000Z</time>
      </trkpt>
      <trkpt lat="44.47384" lon="6.19549">
        <ele>1041</ele>
        <time>2025-11-21T10:08:01.000Z</time>
      </trkpt>
      <trkpt lat="44.47384" lon="6.19549">
        <ele>1041</ele>
        <time>2025-11-21T10:08:02.000Z</time>
      </trkpt>
      <trkpt lat="44.47382" lon="6.19548">
        <ele>1041</ele>
        <time>2025-11-21T10:08:03.000Z</time>
      </trkpt>
      <trkpt lat="44.47381" lon="6.19548">
        <ele>1041</ele>
        <time>2025-11-21T10:08:04.000Z</time>
      </trkpt>
      <trkpt lat="44.4738" lon="6.19548">
        <ele>1040</ele>
        <time>2025-11-21T10:08:05.000Z</time>
      </trkpt>
      <trkpt lat="44.47379" lon="6.19548">
        <ele>1039</ele>
        <time>2025-11-21T10:08:06.000Z</time>
      </trkpt>
      <trkpt lat="44.47378" lon="6.19548">
        <ele>1039</ele>
        <time>2025-11-21T10:08:07.000Z</time>
      </trkpt>
      <trkpt lat="44.47377" lon="6.19547">
        <ele>1038</ele>
        <time>2025-11-21T10:08:08.000Z</time>
      </trkpt>
      <trkpt lat="44.47377" lon="6.19547">
        <ele>1038</ele>
        <time>2025-11-21T10:08:09.000Z</time>
      </trkpt>
      <trkpt lat="44.47377" lon="6.19547">
        <ele>1037</ele>
        <time>2025-11-21T10:08:10.000Z</time>
      </trkpt>
      <trkpt lat="44.47376" lon="6.19547">
        <ele>1037</ele>
        <time>2025-11-21T10:08:11.000Z</time>
      </trkpt>
      <trkpt lat="44.47375" lon="6.19547">
        <ele>1037</ele>
        <time>2025-11-21T10:08:12.000Z</time>
      </trkpt>
      <trkpt lat="44.47374" lon="6.19548">
        <ele>1036</ele>
        <time>2025-11-21T10:08:13.000Z</time>
      </trkpt>
      <trkpt lat="44.47374" lon="6.19548">
        <ele>1036</ele>
        <time>2025-11-21T10:08:14.000Z</time>
      </trkpt>
      <trkpt lat="44.47372" lon="6.19548">
        <ele>1036</ele>
        <time>2025-11-21T10:08:15.000Z</time>
      </trkpt>
      <trkpt lat="44.47371" lon="6.19547">
        <ele>1036</ele>
        <time>2025-11-21T10:08:16.000Z</time>
      </trkpt>
      <trkpt lat="44.4737" lon="6.19546">
        <ele>1035</ele>
        <time>2025-11-21T10:08:17.000Z</time>
      </trkpt>
      <trkpt lat="44.47368" lon="6.19546">
        <ele>1036</ele>
        <time>2025-11-21T10:08:18.000Z</time>
      </trkpt>
      <trkpt lat="44.47368" lon="6.19547">
        <ele>1036</ele>
        <time>2025-11-21T10:08:19.000Z</time>
      </trkpt>
      <trkpt lat="44.47367" lon="6.19547">
        <ele>1035</ele>
        <time>2025-11-21T10:08:20.000Z</time>
      </trkpt>
      <trkpt lat="44.47366" lon="6.19547">
        <ele>1034</ele>
        <time>2025-11-21T10:08:21.000Z</time>
      </trkpt>
      <trkpt lat="44.47364" lon="6.19546">
        <ele>1035</ele>
        <time>2025-11-21T10:08:22.000Z</time>
      </trkpt>
      <trkpt lat="44.47363" lon="6.19546">
        <ele>1035</ele>
        <time>2025-11-21T10:08:23.000Z</time>
      </trkpt>
      <trkpt lat="44.47362" lon="6.19546">
        <ele>1034</ele>
        <time>2025-11-21T10:08:24.000Z</time>
      </trkpt>
      <trkpt lat="44.47362" lon="6.19546">
        <ele>1035</ele>
        <time>2025-11-21T10:08:25.000Z</time>
      </trkpt>
      <trkpt lat="44.47361" lon="6.19546">
        <ele>1034</ele>
        <time>2025-11-21T10:08:26.000Z</time>
      </trkpt>
      <trkpt lat="44.47361" lon="6.19546">
        <ele>1034</ele>
        <time>2025-11-21T10:08:27.000Z</time>
      </trkpt>
      <trkpt lat="44.47361" lon="6.19546">
        <ele>1034</ele>
        <time>2025-11-21T10:08:28.000Z</time>
      </trkpt>
      <trkpt lat="44.47359" lon="6.19546">
        <ele>1034</ele>
        <time>2025-11-21T10:08:29.000Z</time>
      </trkpt>
      <trkpt lat="44.47359" lon="6.19547">
        <ele>1033</ele>
        <time>2025-11-21T10:08:30.000Z</time>
      </trkpt>
      <trkpt lat="44.47357" lon="6.19547">
        <ele>1032</ele>
        <time>2025-11-21T10:08:31.000Z</time>
      </trkpt>
      <trkpt lat="44.47356" lon="6.19547">
        <ele>1032</ele>
        <time>2025-11-21T10:08:32.000Z</time>
      </trkpt>
      <trkpt lat="44.47355" lon="6.19548">
        <ele>1032</ele>
        <time>2025-11-21T10:08:33.000Z</time>
      </trkpt>
      <trkpt lat="44.47355" lon="6.19547">
        <ele>1031</ele>
        <time>2025-11-21T10:08:34.000Z</time>
      </trkpt>
      <trkpt lat="44.47354" lon="6.19546">
        <ele>1031</ele>
        <time>2025-11-21T10:08:35.000Z</time>
      </trkpt>
      <trkpt lat="44.47353" lon="6.19546">
        <ele>1031</ele>
        <time>2025-11-21T10:08:36.000Z</time>
      </trkpt>
      <trkpt lat="44.47352" lon="6.19546">
        <ele>1032</ele>
        <time>2025-11-21T10:08:37.000Z</time>
      </trkpt>
      <trkpt lat="44.47352" lon="6.19546">
        <ele>1032</ele>
        <time>2025-11-21T10:08:38.000Z</time>
      </trkpt>
      <trkpt lat="44.47351" lon="6.19545">
        <ele>1032</ele>
        <time>2025-11-21T10:08:39.000Z</time>
      </trkpt>
      <trkpt lat="44.47349" lon="6.19546">
        <ele>1032</ele>
        <time>2025-11-21T10:08:40.000Z</time>
      </trkpt>
      <trkpt lat="44.47348" lon="6.19546">
        <ele>1032</ele>
        <time>2025-11-21T10:08:41.000Z</time>
      </trkpt>
      <trkpt lat="44.47347" lon="6.19546">
        <ele>1032</ele>
        <time>2025-11-21T10:08:42.000Z</time>
      </trkpt>
      <trkpt lat="44.47346" lon="6.19546">
        <ele>1031</ele>
        <time>2025-11-21T10:08:43.000Z</time>
      </trkpt>
      <trkpt lat="44.47346" lon="6.19547">
        <ele>1031</ele>
        <time>2025-11-21T10:08:44.000Z</time>
      </trkpt>
      <trkpt lat="44.47346" lon="6.19547">
        <ele>1031</ele>
        <time>2025-11-21T10:08:45.000Z</time>
      </trkpt>
      <trkpt lat="44.47346" lon="6.19547">
        <ele>1031</ele>
        <time>2025-11-21T10:08:46.000Z</time>
      </trkpt>
      <trkpt lat="44.47345" lon="6.19548">
        <ele>1030</ele>
        <time>2025-11-21T10:08:47.000Z</time>
      </trkpt>
      <trkpt lat="44.47344" lon="6.19548">
        <ele>1030</ele>
        <time>2025-11-21T10:08:48.000Z</time>
      </trkpt>
      <trkpt lat="44.47344" lon="6.19547">
        <ele>1030</ele>
        <time>2025-11-21T10:08:49.000Z</time>
      </trkpt>
      <trkpt lat="44.47343" lon="6.19547">
        <ele>1031</ele>
        <time>2025-11-21T10:08:50.000Z</time>
      </trkpt>
      <trkpt lat="44.47342" lon="6.19546">
        <ele>1030</ele>
        <time>2025-11-21T10:08:51.000Z</time>
      </trkpt>
      <trkpt lat="44.47342" lon="6.19546">
        <ele>1030</ele>
        <time>2025-11-21T10:08:52.000Z</time>
      </trkpt>
      <trkpt lat="44.47341" lon="6.19546">
        <ele>1029</ele>
        <time>2025-11-21T10:08:53.000Z</time>
      </trkpt>
      <trkpt lat="44.47341" lon="6.19546">
        <ele>1029</ele>
        <time>2025-11-21T10:08:54.000Z</time>
      </trkpt>
      <trkpt lat="44.47341" lon="6.19546">
        <ele>1029</ele>
        <time>2025-11-21T10:08:55.000Z</time>
      </trkpt>
      <trkpt lat="44.4734" lon="6.19546">
        <ele>1028</ele>
        <time>2025-11-21T10:08:56.000Z</time>
      </trkpt>
      <trkpt lat="44.4734" lon="6.19546">
        <ele>1028</ele>
        <time>2025-11-21T10:08:57.000Z</time>
      </trkpt>
      <trkpt lat="44.4734" lon="6.19546">
        <ele>1028</ele>
        <time>2025-11-21T10:08:58.000Z</time>
      </trkpt>
      <trkpt lat="44.47338" lon="6.19546">
        <ele>1028</ele>
        <time>2025-11-21T10:08:59.000Z</time>
      </trkpt>
      <trkpt lat="44.47337" lon="6.19546">
        <ele>1028</ele>
        <time>2025-11-21T10:09:00.000Z</time>
      </trkpt>
      <trkpt lat="44.47337" lon="6.19546">
        <ele>1028</ele>
        <time>2025-11-21T10:09:01.000Z</time>
      </trkpt>
      <trkpt lat="44.47336" lon="6.19545">
        <ele>1028</ele>
        <time>2025-11-21T10:09:02.000Z</time>
      </trkpt>
      <trkpt lat="44.47336" lon="6.19546">
        <ele>1028</ele>
        <time>2025-11-21T10:09:03.000Z</time>
      </trkpt>
      <trkpt lat="44.47335" lon="6.19546">
        <ele>1027</ele>
        <time>2025-11-21T10:09:04.000Z</time>
      </trkpt>
      <trkpt lat="44.47334" lon="6.19545">
        <ele>1026</ele>
        <time>2025-11-21T10:09:05.000Z</time>
      </trkpt>
      <trkpt lat="44.47333" lon="6.19545">
        <ele>1026</ele>
        <time>2025-11-21T10:09:06.000Z</time>
      </trkpt>
      <trkpt lat="44.47332" lon="6.19545">
        <ele>1026</ele>
        <time>2025-11-21T10:09:07.000Z</time>
      </trkpt>
      <trkpt lat="44.47331" lon="6.19545">
        <ele>1025</ele>
        <time>2025-11-21T10:09:08.000Z</time>
      </trkpt>
      <trkpt lat="44.4733" lon="6.19544">
        <ele>1025</ele>
        <time>2025-11-21T10:09:09.000Z</time>
      </trkpt>
      <trkpt lat="44.4733" lon="6.19544">
        <ele>1025</ele>
        <time>2025-11-21T10:09:10.000Z</time>
      </trkpt>
      <trkpt lat="44.47329" lon="6.19544">
        <ele>1026</ele>
        <time>2025-11-21T10:09:11.000Z</time>
      </trkpt>
      <trkpt lat="44.47329" lon="6.19544">
        <ele>1026</ele>
        <time>2025-11-21T10:09:12.000Z</time>
      </trkpt>
      <trkpt lat="44.47329" lon="6.19544">
        <ele>1025</ele>
        <time>2025-11-21T10:09:13.000Z</time>
      </trkpt>
      <trkpt lat="44.47329" lon="6.19544">
        <ele>1024</ele>
        <time>2025-11-21T10:09:14.000Z</time>
      </trkpt>
      <trkpt lat="44.47328" lon="6.19543">
        <ele>1023</ele>
        <time>2025-11-21T10:09:15.000Z</time>
      </trkpt>
      <trkpt lat="44.47328" lon="6.19543">
        <ele>1023</ele>
        <time>2025-11-21T10:09:16.000Z</time>
      </trkpt>
      <trkpt lat="44.47327" lon="6.19543">
        <ele>1024</ele>
        <time>2025-11-21T10:09:17.000Z</time>
      </trkpt>
      <trkpt lat="44.47326" lon="6.19543">
        <ele>1024</ele>
        <time>2025-11-21T10:09:18.000Z</time>
      </trkpt>
      <trkpt lat="44.47325" lon="6.19542">
        <ele>1025</ele>
        <time>2025-11-21T10:09:19.000Z</time>
      </trkpt>
      <trkpt lat="44.47324" lon="6.19542">
        <ele>1025</ele>
        <time>2025-11-21T10:09:20.000Z</time>
      </trkpt>
      <trkpt lat="44.47323" lon="6.19541">
        <ele>1025</ele>
        <time>2025-11-21T10:09:21.000Z</time>
      </trkpt>
      <trkpt lat="44.47322" lon="6.19542">
        <ele>1024</ele>
        <time>2025-11-21T10:09:22.000Z</time>
      </trkpt>
      <trkpt lat="44.47321" lon="6.19542">
        <ele>1024</ele>
        <time>2025-11-21T10:09:23.000Z</time>
      </trkpt>
      <trkpt lat="44.4732" lon="6.19542">
        <ele>1024</ele>
        <time>2025-11-21T10:09:24.000Z</time>
      </trkpt>
      <trkpt lat="44.47319" lon="6.19542">
        <ele>1023</ele>
        <time>2025-11-21T10:09:25.000Z</time>
      </trkpt>
      <trkpt lat="44.47318" lon="6.19541">
        <ele>1023</ele>
        <time>2025-11-21T10:09:26.000Z</time>
      </trkpt>
      <trkpt lat="44.47317" lon="6.19541">
        <ele>1023</ele>
        <time>2025-11-21T10:09:27.000Z</time>
      </trkpt>
      <trkpt lat="44.47316" lon="6.19541">
        <ele>1023</ele>
        <time>2025-11-21T10:09:28.000Z</time>
      </trkpt>
      <trkpt lat="44.47315" lon="6.1954">
        <ele>1023</ele>
        <time>2025-11-21T10:09:29.000Z</time>
      </trkpt>
      <trkpt lat="44.47314" lon="6.19539">
        <ele>1023</ele>
        <time>2025-11-21T10:09:30.000Z</time>
      </trkpt>
      <trkpt lat="44.47314" lon="6.19538">
        <ele>1022</ele>
        <time>2025-11-21T10:09:31.000Z</time>
      </trkpt>
      <trkpt lat="44.47314" lon="6.19539">
        <ele>1022</ele>
        <time>2025-11-21T10:09:32.000Z</time>
      </trkpt>
      <trkpt lat="44.47314" lon="6.19539">
        <ele>1022</ele>
        <time>2025-11-21T10:09:33.000Z</time>
      </trkpt>
      <trkpt lat="44.47315" lon="6.19535">
        <ele>1021</ele>
        <time>2025-11-21T10:10:26.000Z</time>
      </trkpt>
      <trkpt lat="44.47315" lon="6.19533">
        <ele>1020</ele>
        <time>2025-11-21T10:10:27.000Z</time>
      </trkpt>
      <trkpt lat="44.47315" lon="6.19532">
        <ele>1019</ele>
        <time>2025-11-21T10:10:28.000Z</time>
      </trkpt>
      <trkpt lat="44.47315" lon="6.19531">
        <ele>1019</ele>
        <time>2025-11-21T10:10:29.000Z</time>
      </trkpt>
      <trkpt lat="44.47316" lon="6.1953">
        <ele>1019</ele>
        <time>2025-11-21T10:10:30.000Z</time>
      </trkpt>
      <trkpt lat="44.47316" lon="6.19529">
        <ele>1018</ele>
        <time>2025-11-21T10:10:31.000Z</time>
      </trkpt>
      <trkpt lat="44.47317" lon="6.19527">
        <ele>1018</ele>
        <time>2025-11-21T10:10:32.000Z</time>
      </trkpt>
      <trkpt lat="44.47317" lon="6.19527">
        <ele>1018</ele>
        <time>2025-11-21T10:10:33.000Z</time>
      </trkpt>
      <trkpt lat="44.47318" lon="6.19526">
        <ele>1017</ele>
        <time>2025-11-21T10:10:34.000Z</time>
      </trkpt>
      <trkpt lat="44.47318" lon="6.19525">
        <ele>1016</ele>
        <time>2025-11-21T10:10:35.000Z</time>
      </trkpt>
      <trkpt lat="44.47318" lon="6.19525">
        <ele>1016</ele>
        <time>2025-11-21T10:10:36.000Z</time>
      </trkpt>
      <trkpt lat="44.47319" lon="6.19524">
        <ele>1016</ele>
        <time>2025-11-21T10:10:37.000Z</time>
      </trkpt>
      <trkpt lat="44.47321" lon="6.19522">
        <ele>1017</ele>
        <time>2025-11-21T10:10:38.000Z</time>
      </trkpt>
      <trkpt lat="44.47321" lon="6.19521">
        <ele>1017</ele>
        <time>2025-11-21T10:10:39.000Z</time>
      </trkpt>
      <trkpt lat="44.47322" lon="6.1952">
        <ele>1017</ele>
        <time>2025-11-21T10:10:40.000Z</time>
      </trkpt>
      <trkpt lat="44.47323" lon="6.19519">
        <ele>1017</ele>
        <time>2025-11-21T10:10:41.000Z</time>
      </trkpt>
      <trkpt lat="44.47324" lon="6.19519">
        <ele>1017</ele>
        <time>2025-11-21T10:10:42.000Z</time>
      </trkpt>
      <trkpt lat="44.47324" lon="6.19518">
        <ele>1017</ele>
        <time>2025-11-21T10:10:43.000Z</time>
      </trkpt>
      <trkpt lat="44.47325" lon="6.19517">
        <ele>1017</ele>
        <time>2025-11-21T10:10:44.000Z</time>
      </trkpt>
      <trkpt lat="44.47325" lon="6.19516">
        <ele>1016</ele>
        <time>2025-11-21T10:10:45.000Z</time>
      </trkpt>
      <trkpt lat="44.47326" lon="6.19515">
        <ele>1016</ele>
        <time>2025-11-21T10:10:46.000Z</time>
      </trkpt>
      <trkpt lat="44.47326" lon="6.19514">
        <ele>1016</ele>
        <time>2025-11-21T10:10:47.000Z</time>
      </trkpt>
      <trkpt lat="44.47326" lon="6.19513">
        <ele>1015</ele>
        <time>2025-11-21T10:10:48.000Z</time>
      </trkpt>
      <trkpt lat="44.47327" lon="6.19512">
        <ele>1014</ele>
        <time>2025-11-21T10:10:49.000Z</time>
      </trkpt>
      <trkpt lat="44.47328" lon="6.19512">
        <ele>1015</ele>
        <time>2025-11-21T10:10:50.000Z</time>
      </trkpt>
      <trkpt lat="44.47328" lon="6.19511">
        <ele>1014</ele>
        <time>2025-11-21T10:10:51.000Z</time>
      </trkpt>
      <trkpt lat="44.47329" lon="6.1951">
        <ele>1014</ele>
        <time>2025-11-21T10:10:52.000Z</time>
      </trkpt>
      <trkpt lat="44.4733" lon="6.19508">
        <ele>1014</ele>
        <time>2025-11-21T10:10:53.000Z</time>
      </trkpt>
      <trkpt lat="44.4733" lon="6.19508">
        <ele>1014</ele>
        <time>2025-11-21T10:10:54.000Z</time>
      </trkpt>
      <trkpt lat="44.4733" lon="6.19508">
        <ele>1014</ele>
        <time>2025-11-21T10:10:55.000Z</time>
      </trkpt>
      <trkpt lat="44.47332" lon="6.19506">
        <ele>1014</ele>
        <time>2025-11-21T10:10:56.000Z</time>
      </trkpt>
      <trkpt lat="44.47332" lon="6.19506">
        <ele>1013</ele>
        <time>2025-11-21T10:10:57.000Z</time>
      </trkpt>
      <trkpt lat="44.47333" lon="6.19505">
        <ele>1013</ele>
        <time>2025-11-21T10:10:58.000Z</time>
      </trkpt>
      <trkpt lat="44.47333" lon="6.19504">
        <ele>1012</ele>
        <time>2025-11-21T10:10:59.000Z</time>
      </trkpt>
      <trkpt lat="44.47334" lon="6.19503">
        <ele>1012</ele>
        <time>2025-11-21T10:11:00.000Z</time>
      </trkpt>
      <trkpt lat="44.47335" lon="6.19503">
        <ele>1012</ele>
        <time>2025-11-21T10:11:01.000Z</time>
      </trkpt>
      <trkpt lat="44.47336" lon="6.19501">
        <ele>1012</ele>
        <time>2025-11-21T10:11:02.000Z</time>
      </trkpt>
      <trkpt lat="44.47337" lon="6.19501">
        <ele>1011</ele>
        <time>2025-11-21T10:11:03.000Z</time>
      </trkpt>
      <trkpt lat="44.47338" lon="6.195">
        <ele>1011</ele>
        <time>2025-11-21T10:11:04.000Z</time>
      </trkpt>
      <trkpt lat="44.47338" lon="6.19499">
        <ele>1011</ele>
        <time>2025-11-21T10:11:05.000Z</time>
      </trkpt>
      <trkpt lat="44.47339" lon="6.19498">
        <ele>1011</ele>
        <time>2025-11-21T10:11:06.000Z</time>
      </trkpt>
      <trkpt lat="44.47339" lon="6.19498">
        <ele>1010</ele>
        <time>2025-11-21T10:11:07.000Z</time>
      </trkpt>
      <trkpt lat="44.4734" lon="6.19497">
        <ele>1011</ele>
        <time>2025-11-21T10:11:08.000Z</time>
      </trkpt>
      <trkpt lat="44.47341" lon="6.19498">
        <ele>1010</ele>
        <time>2025-11-21T10:11:09.000Z</time>
      </trkpt>
      <trkpt lat="44.47342" lon="6.19496">
        <ele>1010</ele>
        <time>2025-11-21T10:11:10.000Z</time>
      </trkpt>
      <trkpt lat="44.47342" lon="6.19495">
        <ele>1010</ele>
        <time>2025-11-21T10:11:11.000Z</time>
      </trkpt>
      <trkpt lat="44.47343" lon="6.19494">
        <ele>1010</ele>
        <time>2025-11-21T10:11:12.000Z</time>
      </trkpt>
      <trkpt lat="44.47343" lon="6.19494">
        <ele>1010</ele>
        <time>2025-11-21T10:11:13.000Z</time>
      </trkpt>
      <trkpt lat="44.47344" lon="6.19493">
        <ele>1010</ele>
        <time>2025-11-21T10:11:14.000Z</time>
      </trkpt>
      <trkpt lat="44.47344" lon="6.19491">
        <ele>1010</ele>
        <time>2025-11-21T10:11:15.000Z</time>
      </trkpt>
      <trkpt lat="44.47345" lon="6.1949">
        <ele>1010</ele>
        <time>2025-11-21T10:11:16.000Z</time>
      </trkpt>
      <trkpt lat="44.47345" lon="6.19489">
        <ele>1010</ele>
        <time>2025-11-21T10:11:17.000Z</time>
      </trkpt>
      <trkpt lat="44.47346" lon="6.19488">
        <ele>1010</ele>
        <time>2025-11-21T10:11:18.000Z</time>
      </trkpt>
      <trkpt lat="44.47346" lon="6.19488">
        <ele>1009</ele>
        <time>2025-11-21T10:11:19.000Z</time>
      </trkpt>
      <trkpt lat="44.47347" lon="6.19488">
        <ele>1009</ele>
        <time>2025-11-21T10:11:20.000Z</time>
      </trkpt>
      <trkpt lat="44.47347" lon="6.19487">
        <ele>1008</ele>
        <time>2025-11-21T10:11:21.000Z</time>
      </trkpt>
      <trkpt lat="44.47347" lon="6.19486">
        <ele>1008</ele>
        <time>2025-11-21T10:11:22.000Z</time>
      </trkpt>
      <trkpt lat="44.47347" lon="6.19486">
        <ele>1008</ele>
        <time>2025-11-21T10:11:23.000Z</time>
      </trkpt>
      <trkpt lat="44.47347" lon="6.19486">
        <ele>1008</ele>
        <time>2025-11-21T10:11:24.000Z</time>
      </trkpt>
      <trkpt lat="44.47347" lon="6.19483">
        <ele>1008</ele>
        <time>2025-11-21T10:11:25.000Z</time>
      </trkpt>
      <trkpt lat="44.47346" lon="6.19482">
        <ele>1008</ele>
        <time>2025-11-21T10:11:26.000Z</time>
      </trkpt>
      <trkpt lat="44.47346" lon="6.19482">
        <ele>1008</ele>
        <time>2025-11-21T10:11:27.000Z</time>
      </trkpt>
      <trkpt lat="44.47346" lon="6.19481">
        <ele>1009</ele>
        <time>2025-11-21T10:11:28.000Z</time>
      </trkpt>
      <trkpt lat="44.47346" lon="6.19481">
        <ele>1009</ele>
        <time>2025-11-21T10:11:29.000Z</time>
      </trkpt>
      <trkpt lat="44.47346" lon="6.1948">
        <ele>1008</ele>
        <time>2025-11-21T10:11:30.000Z</time>
      </trkpt>
      <trkpt lat="44.47345" lon="6.1948">
        <ele>1009</ele>
        <time>2025-11-21T10:11:31.000Z</time>
      </trkpt>
      <trkpt lat="44.47344" lon="6.1948">
        <ele>1009</ele>
        <time>2025-11-21T10:11:32.000Z</time>
      </trkpt>
      <trkpt lat="44.47343" lon="6.1948">
        <ele>1009</ele>
        <time>2025-11-21T10:11:33.000Z</time>
      </trkpt>
      <trkpt lat="44.47343" lon="6.19481">
        <ele>1008</ele>
        <time>2025-11-21T10:11:34.000Z</time>
      </trkpt>
      <trkpt lat="44.47342" lon="6.19483">
        <ele>1008</ele>
        <time>2025-11-21T10:11:35.000Z</time>
      </trkpt>
      <trkpt lat="44.47342" lon="6.19483">
        <ele>1008</ele>
        <time>2025-11-21T10:11:36.000Z</time>
      </trkpt>
      <trkpt lat="44.47342" lon="6.19483">
        <ele>1008</ele>
        <time>2025-11-21T10:11:37.000Z</time>
      </trkpt>
      <trkpt lat="44.4734" lon="6.19483">
        <ele>1009</ele>
        <time>2025-11-21T10:11:38.000Z</time>
      </trkpt>
      <trkpt lat="44.47339" lon="6.19484">
        <ele>1009</ele>
        <time>2025-11-21T10:11:39.000Z</time>
      </trkpt>
      <trkpt lat="44.47338" lon="6.19484">
        <ele>1009</ele>
        <time>2025-11-21T10:11:40.000Z</time>
      </trkpt>
      <trkpt lat="44.47338" lon="6.19484">
        <ele>1009</ele>
        <time>2025-11-21T10:11:41.000Z</time>
      </trkpt>
      <trkpt lat="44.4734" lon="6.1948">
        <ele>1008</ele>
        <time>2025-11-21T10:12:02.000Z</time>
      </trkpt>
      <trkpt lat="44.4734" lon="6.19479">
        <ele>1007</ele>
        <time>2025-11-21T10:12:03.000Z</time>
      </trkpt>
      <trkpt lat="44.47341" lon="6.19479">
        <ele>1007</ele>
        <time>2025-11-21T10:12:04.000Z</time>
      </trkpt>
      <trkpt lat="44.47341" lon="6.19479">
        <ele>1007</ele>
        <time>2025-11-21T10:12:05.000Z</time>
      </trkpt>
      <trkpt lat="44.47341" lon="6.19479">
        <ele>1007</ele>
        <time>2025-11-21T10:12:06.000Z</time>
      </trkpt>
      <trkpt lat="44.47341" lon="6.19479">
        <ele>1007</ele>
        <time>2025-11-21T10:12:07.000Z</time>
      </trkpt>
      <trkpt lat="44.47341" lon="6.19477">
        <ele>1005</ele>
        <time>2025-11-21T10:12:08.000Z</time>
      </trkpt>
      <trkpt lat="44.47341" lon="6.19476">
        <ele>1005</ele>
        <time>2025-11-21T10:12:09.000Z</time>
      </trkpt>
      <trkpt lat="44.47341" lon="6.19474">
        <ele>1005</ele>
        <time>2025-11-21T10:12:10.000Z</time>
      </trkpt>
      <trkpt lat="44.47342" lon="6.19473">
        <ele>1005</ele>
        <time>2025-11-21T10:12:11.000Z</time>
      </trkpt>
      <trkpt lat="44.47342" lon="6.19471">
        <ele>1004</ele>
        <time>2025-11-21T10:12:12.000Z</time>
      </trkpt>
      <trkpt lat="44.47342" lon="6.19471">
        <ele>1004</ele>
        <time>2025-11-21T10:12:13.000Z</time>
      </trkpt>
      <trkpt lat="44.47342" lon="6.1947">
        <ele>1004</ele>
        <time>2025-11-21T10:12:14.000Z</time>
      </trkpt>
      <trkpt lat="44.47342" lon="6.1947">
        <ele>1004</ele>
        <time>2025-11-21T10:12:15.000Z</time>
      </trkpt>
      <trkpt lat="44.47342" lon="6.1947">
        <ele>1003</ele>
        <time>2025-11-21T10:12:16.000Z</time>
      </trkpt>
      <trkpt lat="44.47342" lon="6.19469">
        <ele>1003</ele>
        <time>2025-11-21T10:12:17.000Z</time>
      </trkpt>
      <trkpt lat="44.47342" lon="6.19469">
        <ele>1002</ele>
        <time>2025-11-21T10:12:18.000Z</time>
      </trkpt>
      <trkpt lat="44.47343" lon="6.19468">
        <ele>1002</ele>
        <time>2025-11-21T10:12:19.000Z</time>
      </trkpt>
      <trkpt lat="44.47343" lon="6.19467">
        <ele>1001</ele>
        <time>2025-11-21T10:12:20.000Z</time>
      </trkpt>
      <trkpt lat="44.47343" lon="6.19466">
        <ele>1002</ele>
        <time>2025-11-21T10:12:21.000Z</time>
      </trkpt>
      <trkpt lat="44.47343" lon="6.19465">
        <ele>1002</ele>
        <time>2025-11-21T10:12:22.000Z</time>
      </trkpt>
      <trkpt lat="44.47342" lon="6.19463">
        <ele>1002</ele>
        <time>2025-11-21T10:12:23.000Z</time>
      </trkpt>
      <trkpt lat="44.47342" lon="6.19463">
        <ele>1001</ele>
        <time>2025-11-21T10:12:24.000Z</time>
      </trkpt>
      <trkpt lat="44.47341" lon="6.19461">
        <ele>1002</ele>
        <time>2025-11-21T10:12:25.000Z</time>
      </trkpt>
      <trkpt lat="44.47341" lon="6.19461">
        <ele>1001</ele>
        <time>2025-11-21T10:12:26.000Z</time>
      </trkpt>
      <trkpt lat="44.4734" lon="6.19459">
        <ele>1001</ele>
        <time>2025-11-21T10:12:27.000Z</time>
      </trkpt>
      <trkpt lat="44.4734" lon="6.19459">
        <ele>1001</ele>
        <time>2025-11-21T10:12:28.000Z</time>
      </trkpt>
      <trkpt lat="44.47341" lon="6.19457">
        <ele>1002</ele>
        <time>2025-11-21T10:12:29.000Z</time>
      </trkpt>
      <trkpt lat="44.47341" lon="6.19457">
        <ele>1000</ele>
        <time>2025-11-21T10:12:30.000Z</time>
      </trkpt>
      <trkpt lat="44.47341" lon="6.19455">
        <ele>1000</ele>
        <time>2025-11-21T10:12:31.000Z</time>
      </trkpt>
      <trkpt lat="44.47339" lon="6.19453">
        <ele>1000</ele>
        <time>2025-11-21T10:13:10.000Z</time>
      </trkpt>
      <trkpt lat="44.4734" lon="6.19453">
        <ele>1000</ele>
        <time>2025-11-21T10:13:11.000Z</time>
      </trkpt>
      <trkpt lat="44.4734" lon="6.19452">
        <ele>1000</ele>
        <time>2025-11-21T10:13:12.000Z</time>
      </trkpt>
      <trkpt lat="44.47341" lon="6.19451">
        <ele>1000</ele>
        <time>2025-11-21T10:13:13.000Z</time>
      </trkpt>
      <trkpt lat="44.47341" lon="6.19449">
        <ele>1000</ele>
        <time>2025-11-21T10:13:14.000Z</time>
      </trkpt>
      <trkpt lat="44.47342" lon="6.19448">
        <ele>999</ele>
        <time>2025-11-21T10:13:15.000Z</time>
      </trkpt>
      <trkpt lat="44.47342" lon="6.19446">
        <ele>998</ele>
        <time>2025-11-21T10:13:16.000Z</time>
      </trkpt>
      <trkpt lat="44.47341" lon="6.19445">
        <ele>998</ele>
        <time>2025-11-21T10:13:17.000Z</time>
      </trkpt>
      <trkpt lat="44.47341" lon="6.19444">
        <ele>998</ele>
        <time>2025-11-21T10:13:18.000Z</time>
      </trkpt>
      <trkpt lat="44.47341" lon="6.19443">
        <ele>998</ele>
        <time>2025-11-21T10:13:19.000Z</time>
      </trkpt>
      <trkpt lat="44.47341" lon="6.19442">
        <ele>998</ele>
        <time>2025-11-21T10:13:20.000Z</time>
      </trkpt>
      <trkpt lat="44.47341" lon="6.1944">
        <ele>998</ele>
        <time>2025-11-21T10:13:21.000Z</time>
      </trkpt>
      <trkpt lat="44.47341" lon="6.19439">
        <ele>998</ele>
        <time>2025-11-21T10:13:22.000Z</time>
      </trkpt>
      <trkpt lat="44.47341" lon="6.19438">
        <ele>997</ele>
        <time>2025-11-21T10:13:23.000Z</time>
      </trkpt>
      <trkpt lat="44.47341" lon="6.19436">
        <ele>996</ele>
        <time>2025-11-21T10:13:24.000Z</time>
      </trkpt>
      <trkpt lat="44.47341" lon="6.19435">
        <ele>996</ele>
        <time>2025-11-21T10:13:25.000Z</time>
      </trkpt>
      <trkpt lat="44.47341" lon="6.19434">
        <ele>996</ele>
        <time>2025-11-21T10:13:26.000Z</time>
      </trkpt>
      <trkpt lat="44.4734" lon="6.19432">
        <ele>996</ele>
        <time>2025-11-21T10:13:27.000Z</time>
      </trkpt>
      <trkpt lat="44.4734" lon="6.1943">
        <ele>995</ele>
        <time>2025-11-21T10:13:28.000Z</time>
      </trkpt>
      <trkpt lat="44.4734" lon="6.19429">
        <ele>995</ele>
        <time>2025-11-21T10:13:29.000Z</time>
      </trkpt>
      <trkpt lat="44.4734" lon="6.19427">
        <ele>996</ele>
        <time>2025-11-21T10:13:30.000Z</time>
      </trkpt>
      <trkpt lat="44.47339" lon="6.19425">
        <ele>996</ele>
        <time>2025-11-21T10:13:31.000Z</time>
      </trkpt>
      <trkpt lat="44.47339" lon="6.19424">
        <ele>996</ele>
        <time>2025-11-21T10:13:32.000Z</time>
      </trkpt>
      <trkpt lat="44.47339" lon="6.19422">
        <ele>996</ele>
        <time>2025-11-21T10:13:33.000Z</time>
      </trkpt>
      <trkpt lat="44.47338" lon="6.19421">
        <ele>995</ele>
        <time>2025-11-21T10:13:34.000Z</time>
      </trkpt>
      <trkpt lat="44.47338" lon="6.19419">
        <ele>995</ele>
        <time>2025-11-21T10:13:35.000Z</time>
      </trkpt>
      <trkpt lat="44.47338" lon="6.19418">
        <ele>995</ele>
        <time>2025-11-21T10:13:36.000Z</time>
      </trkpt>
      <trkpt lat="44.47337" lon="6.19417">
        <ele>995</ele>
        <time>2025-11-21T10:13:37.000Z</time>
      </trkpt>
      <trkpt lat="44.47337" lon="6.19416">
        <ele>995</ele>
        <time>2025-11-21T10:13:38.000Z</time>
      </trkpt>
      <trkpt lat="44.47337" lon="6.19414">
        <ele>995</ele>
        <time>2025-11-21T10:13:39.000Z</time>
      </trkpt>
      <trkpt lat="44.47337" lon="6.19412">
        <ele>995</ele>
        <time>2025-11-21T10:13:40.000Z</time>
      </trkpt>
      <trkpt lat="44.47336" lon="6.1941">
        <ele>995</ele>
        <time>2025-11-21T10:13:41.000Z</time>
      </trkpt>
      <trkpt lat="44.47336" lon="6.19408">
        <ele>996</ele>
        <time>2025-11-21T10:13:42.000Z</time>
      </trkpt>
      <trkpt lat="44.47336" lon="6.19407">
        <ele>996</ele>
        <time>2025-11-21T10:13:43.000Z</time>
      </trkpt>
      <trkpt lat="44.47335" lon="6.19406">
        <ele>996</ele>
        <time>2025-11-21T10:13:44.000Z</time>
      </trkpt>
      <trkpt lat="44.47335" lon="6.19405">
        <ele>995</ele>
        <time>2025-11-21T10:13:45.000Z</time>
      </trkpt>
      <trkpt lat="44.47335" lon="6.19404">
        <ele>995</ele>
        <time>2025-11-21T10:13:46.000Z</time>
      </trkpt>
      <trkpt lat="44.47334" lon="6.19403">
        <ele>995</ele>
        <time>2025-11-21T10:13:47.000Z</time>
      </trkpt>
      <trkpt lat="44.47334" lon="6.19402">
        <ele>994</ele>
        <time>2025-11-21T10:13:48.000Z</time>
      </trkpt>
      <trkpt lat="44.47334" lon="6.194">
        <ele>994</ele>
        <time>2025-11-21T10:13:49.000Z</time>
      </trkpt>
      <trkpt lat="44.47334" lon="6.19398">
        <ele>995</ele>
        <time>2025-11-21T10:13:50.000Z</time>
      </trkpt>
      <trkpt lat="44.47334" lon="6.19397">
        <ele>994</ele>
        <time>2025-11-21T10:13:51.000Z</time>
      </trkpt>
      <trkpt lat="44.47334" lon="6.19396">
        <ele>993</ele>
        <time>2025-11-21T10:13:52.000Z</time>
      </trkpt>
      <trkpt lat="44.47334" lon="6.19395">
        <ele>993</ele>
        <time>2025-11-21T10:13:53.000Z</time>
      </trkpt>
      <trkpt lat="44.47334" lon="6.19395">
        <ele>993</ele>
        <time>2025-11-21T10:13:54.000Z</time>
      </trkpt>
      <trkpt lat="44.47333" lon="6.19393">
        <ele>993</ele>
        <time>2025-11-21T10:13:55.000Z</time>
      </trkpt>
      <trkpt lat="44.47333" lon="6.19392">
        <ele>992</ele>
        <time>2025-11-21T10:13:56.000Z</time>
      </trkpt>
      <trkpt lat="44.47333" lon="6.19391">
        <ele>993</ele>
        <time>2025-11-21T10:13:57.000Z</time>
      </trkpt>
      <trkpt lat="44.47333" lon="6.1939">
        <ele>993</ele>
        <time>2025-11-21T10:13:58.000Z</time>
      </trkpt>
      <trkpt lat="44.47333" lon="6.19389">
        <ele>992</ele>
        <time>2025-11-21T10:13:59.000Z</time>
      </trkpt>
      <trkpt lat="44.47333" lon="6.19387">
        <ele>991</ele>
        <time>2025-11-21T10:14:00.000Z</time>
      </trkpt>
      <trkpt lat="44.47333" lon="6.19386">
        <ele>992</ele>
        <time>2025-11-21T10:14:01.000Z</time>
      </trkpt>
      <trkpt lat="44.47333" lon="6.19385">
        <ele>991</ele>
        <time>2025-11-21T10:14:02.000Z</time>
      </trkpt>
      <trkpt lat="44.47333" lon="6.19384">
        <ele>990</ele>
        <time>2025-11-21T10:14:03.000Z</time>
      </trkpt>
      <trkpt lat="44.47333" lon="6.19383">
        <ele>990</ele>
        <time>2025-11-21T10:14:04.000Z</time>
      </trkpt>
      <trkpt lat="44.47333" lon="6.19382">
        <ele>990</ele>
        <time>2025-11-21T10:14:05.000Z</time>
      </trkpt>
      <trkpt lat="44.47334" lon="6.19381">
        <ele>989</ele>
        <time>2025-11-21T10:14:06.000Z</time>
      </trkpt>
      <trkpt lat="44.47334" lon="6.1938">
        <ele>989</ele>
        <time>2025-11-21T10:14:07.000Z</time>
      </trkpt>
      <trkpt lat="44.47334" lon="6.1938">
        <ele>988</ele>
        <time>2025-11-21T10:14:08.000Z</time>
      </trkpt>
      <trkpt lat="44.47334" lon="6.19379">
        <ele>988</ele>
        <time>2025-11-21T10:14:09.000Z</time>
      </trkpt>
      <trkpt lat="44.47333" lon="6.19378">
        <ele>988</ele>
        <time>2025-11-21T10:14:10.000Z</time>
      </trkpt>
      <trkpt lat="44.47332" lon="6.19377">
        <ele>988</ele>
        <time>2025-11-21T10:14:11.000Z</time>
      </trkpt>
      <trkpt lat="44.47332" lon="6.19377">
        <ele>987</ele>
        <time>2025-11-21T10:14:12.000Z</time>
      </trkpt>
      <trkpt lat="44.47332" lon="6.19376">
        <ele>987</ele>
        <time>2025-11-21T10:14:13.000Z</time>
      </trkpt>
      <trkpt lat="44.47332" lon="6.19376">
        <ele>987</ele>
        <time>2025-11-21T10:14:14.000Z</time>
      </trkpt>
      <trkpt lat="44.47333" lon="6.19376">
        <ele>987</ele>
        <time>2025-11-21T10:14:15.000Z</time>
      </trkpt>
      <trkpt lat="44.47333" lon="6.19375">
        <ele>987</ele>
        <time>2025-11-21T10:14:16.000Z</time>
      </trkpt>
      <trkpt lat="44.47333" lon="6.19374">
        <ele>986</ele>
        <time>2025-11-21T10:14:17.000Z</time>
      </trkpt>
      <trkpt lat="44.47333" lon="6.19374">
        <ele>985</ele>
        <time>2025-11-21T10:14:18.000Z</time>
      </trkpt>
      <trkpt lat="44.47333" lon="6.19374">
        <ele>985</ele>
        <time>2025-11-21T10:14:19.000Z</time>
      </trkpt>
      <trkpt lat="44.47333" lon="6.19373">
        <ele>985</ele>
        <time>2025-11-21T10:14:20.000Z</time>
      </trkpt>
      <trkpt lat="44.47333" lon="6.19373">
        <ele>985</ele>
        <time>2025-11-21T10:14:21.000Z</time>
      </trkpt>
      <trkpt lat="44.47333" lon="6.19372">
        <ele>984</ele>
        <time>2025-11-21T10:14:22.000Z</time>
      </trkpt>
      <trkpt lat="44.47333" lon="6.19371">
        <ele>983</ele>
        <time>2025-11-21T10:14:23.000Z</time>
      </trkpt>
      <trkpt lat="44.47333" lon="6.1937">
        <ele>983</ele>
        <time>2025-11-21T10:14:24.000Z</time>
      </trkpt>
      <trkpt lat="44.47333" lon="6.19368">
        <ele>983</ele>
        <time>2025-11-21T10:14:25.000Z</time>
      </trkpt>
      <trkpt lat="44.47333" lon="6.19366">
        <ele>982</ele>
        <time>2025-11-21T10:14:26.000Z</time>
      </trkpt>
      <trkpt lat="44.47333" lon="6.19365">
        <ele>982</ele>
        <time>2025-11-21T10:14:27.000Z</time>
      </trkpt>
      <trkpt lat="44.47333" lon="6.19364">
        <ele>982</ele>
        <time>2025-11-21T10:14:28.000Z</time>
      </trkpt>
      <trkpt lat="44.47333" lon="6.19364">
        <ele>982</ele>
        <time>2025-11-21T10:14:29.000Z</time>
      </trkpt>
      <trkpt lat="44.47333" lon="6.19364">
        <ele>981</ele>
        <time>2025-11-21T10:14:30.000Z</time>
      </trkpt>
      <trkpt lat="44.47332" lon="6.19364">
        <ele>981</ele>
        <time>2025-11-21T10:14:31.000Z</time>
      </trkpt>
      <trkpt lat="44.47335" lon="6.19358">
        <ele>980</ele>
        <time>2025-11-21T10:15:50.000Z</time>
      </trkpt>
      <trkpt lat="44.47336" lon="6.19357">
        <ele>980</ele>
        <time>2025-11-21T10:15:51.000Z</time>
      </trkpt>
      <trkpt lat="44.47336" lon="6.19356">
        <ele>980</ele>
        <time>2025-11-21T10:15:52.000Z</time>
      </trkpt>
      <trkpt lat="44.47336" lon="6.19355">
        <ele>980</ele>
        <time>2025-11-21T10:15:53.000Z</time>
      </trkpt>
      <trkpt lat="44.47336" lon="6.19354">
        <ele>980</ele>
        <time>2025-11-21T10:15:54.000Z</time>
      </trkpt>
      <trkpt lat="44.47336" lon="6.19353">
        <ele>979</ele>
        <time>2025-11-21T10:15:55.000Z</time>
      </trkpt>
      <trkpt lat="44.47337" lon="6.19352">
        <ele>979</ele>
        <time>2025-11-21T10:15:56.000Z</time>
      </trkpt>
      <trkpt lat="44.47337" lon="6.19351">
        <ele>979</ele>
        <time>2025-11-21T10:15:57.000Z</time>
      </trkpt>
      <trkpt lat="44.47338" lon="6.1935">
        <ele>978</ele>
        <time>2025-11-21T10:15:58.000Z</time>
      </trkpt>
      <trkpt lat="44.47339" lon="6.19349">
        <ele>977</ele>
        <time>2025-11-21T10:15:59.000Z</time>
      </trkpt>
      <trkpt lat="44.4734" lon="6.19348">
        <ele>977</ele>
        <time>2025-11-21T10:16:00.000Z</time>
      </trkpt>
      <trkpt lat="44.47341" lon="6.19347">
        <ele>975</ele>
        <time>2025-11-21T10:16:01.000Z</time>
      </trkpt>
      <trkpt lat="44.47341" lon="6.19346">
        <ele>975</ele>
        <time>2025-11-21T10:16:02.000Z</time>
      </trkpt>
      <trkpt lat="44.47342" lon="6.19346">
        <ele>975</ele>
        <time>2025-11-21T10:16:03.000Z</time>
      </trkpt>
      <trkpt lat="44.47343" lon="6.19345">
        <ele>975</ele>
        <time>2025-11-21T10:16:04.000Z</time>
      </trkpt>
      <trkpt lat="44.47343" lon="6.19344">
        <ele>975</ele>
        <time>2025-11-21T10:16:05.000Z</time>
      </trkpt>
      <trkpt lat="44.47344" lon="6.19343">
        <ele>975</ele>
        <time>2025-11-21T10:16:06.000Z</time>
      </trkpt>
      <trkpt lat="44.47344" lon="6.19342">
        <ele>975</ele>
        <time>2025-11-21T10:16:07.000Z</time>
      </trkpt>
      <trkpt lat="44.47344" lon="6.19342">
        <ele>975</ele>
        <time>2025-11-21T10:16:08.000Z</time>
      </trkpt>
      <trkpt lat="44.47344" lon="6.19342">
        <ele>975</ele>
        <time>2025-11-21T10:16:09.000Z</time>
      </trkpt>
      <trkpt lat="44.47345" lon="6.1934">
        <ele>974</ele>
        <time>2025-11-21T10:16:10.000Z</time>
      </trkpt>
      <trkpt lat="44.47346" lon="6.19339">
        <ele>974</ele>
        <time>2025-11-21T10:16:11.000Z</time>
      </trkpt>
      <trkpt lat="44.47347" lon="6.19339">
        <ele>974</ele>
        <time>2025-11-21T10:16:12.000Z</time>
      </trkpt>
      <trkpt lat="44.47347" lon="6.19337">
        <ele>974</ele>
        <time>2025-11-21T10:16:13.000Z</time>
      </trkpt>
      <trkpt lat="44.47348" lon="6.19336">
        <ele>973</ele>
        <time>2025-11-21T10:16:14.000Z</time>
      </trkpt>
      <trkpt lat="44.47348" lon="6.19335">
        <ele>972</ele>
        <time>2025-11-21T10:16:15.000Z</time>
      </trkpt>
      <trkpt lat="44.47349" lon="6.19333">
        <ele>973</ele>
        <time>2025-11-21T10:16:16.000Z</time>
      </trkpt>
      <trkpt lat="44.4735" lon="6.19332">
        <ele>973</ele>
        <time>2025-11-21T10:16:17.000Z</time>
      </trkpt>
      <trkpt lat="44.4735" lon="6.19331">
        <ele>973</ele>
        <time>2025-11-21T10:16:18.000Z</time>
      </trkpt>
      <trkpt lat="44.47351" lon="6.1933">
        <ele>972</ele>
        <time>2025-11-21T10:16:19.000Z</time>
      </trkpt>
      <trkpt lat="44.47352" lon="6.19328">
        <ele>972</ele>
        <time>2025-11-21T10:16:20.000Z</time>
      </trkpt>
      <trkpt lat="44.47353" lon="6.19327">
        <ele>972</ele>
        <time>2025-11-21T10:16:21.000Z</time>
      </trkpt>
      <trkpt lat="44.47354" lon="6.19326">
        <ele>972</ele>
        <time>2025-11-21T10:16:22.000Z</time>
      </trkpt>
      <trkpt lat="44.47354" lon="6.19325">
        <ele>972</ele>
        <time>2025-11-21T10:16:23.000Z</time>
      </trkpt>
      <trkpt lat="44.47355" lon="6.19324">
        <ele>972</ele>
        <time>2025-11-21T10:16:24.000Z</time>
      </trkpt>
      <trkpt lat="44.47356" lon="6.19324">
        <ele>971</ele>
        <time>2025-11-21T10:16:25.000Z</time>
      </trkpt>
      <trkpt lat="44.47356" lon="6.19323">
        <ele>971</ele>
        <time>2025-11-21T10:16:26.000Z</time>
      </trkpt>
      <trkpt lat="44.47357" lon="6.19323">
        <ele>971</ele>
        <time>2025-11-21T10:16:27.000Z</time>
      </trkpt>
      <trkpt lat="44.47358" lon="6.19322">
        <ele>971</ele>
        <time>2025-11-21T10:16:28.000Z</time>
      </trkpt>
      <trkpt lat="44.47359" lon="6.1932">
        <ele>970</ele>
        <time>2025-11-21T10:16:29.000Z</time>
      </trkpt>
      <trkpt lat="44.4736" lon="6.19319">
        <ele>971</ele>
        <time>2025-11-21T10:16:30.000Z</time>
      </trkpt>
      <trkpt lat="44.4736" lon="6.19318">
        <ele>971</ele>
        <time>2025-11-21T10:16:31.000Z</time>
      </trkpt>
      <trkpt lat="44.47361" lon="6.19319">
        <ele>970</ele>
        <time>2025-11-21T10:16:32.000Z</time>
      </trkpt>
      <trkpt lat="44.47361" lon="6.19318">
        <ele>969</ele>
        <time>2025-11-21T10:16:33.000Z</time>
      </trkpt>
      <trkpt lat="44.47361" lon="6.19318">
        <ele>969</ele>
        <time>2025-11-21T10:16:34.000Z</time>
      </trkpt>
      <trkpt lat="44.47361" lon="6.19318">
        <ele>969</ele>
        <time>2025-11-21T10:16:35.000Z</time>
      </trkpt>
      <trkpt lat="44.47362" lon="6.19317">
        <ele>969</ele>
        <time>2025-11-21T10:16:36.000Z</time>
      </trkpt>
      <trkpt lat="44.47363" lon="6.19315">
        <ele>969</ele>
        <time>2025-11-21T10:16:37.000Z</time>
      </trkpt>
      <trkpt lat="44.47364" lon="6.19314">
        <ele>970</ele>
        <time>2025-11-21T10:16:38.000Z</time>
      </trkpt>
      <trkpt lat="44.47364" lon="6.19313">
        <ele>970</ele>
        <time>2025-11-21T10:16:39.000Z</time>
      </trkpt>
      <trkpt lat="44.47365" lon="6.19311">
        <ele>970</ele>
        <time>2025-11-21T10:16:40.000Z</time>
      </trkpt>
      <trkpt lat="44.47365" lon="6.1931">
        <ele>969</ele>
        <time>2025-11-21T10:16:41.000Z</time>
      </trkpt>
      <trkpt lat="44.47364" lon="6.19309">
        <ele>969</ele>
        <time>2025-11-21T10:16:42.000Z</time>
      </trkpt>
      <trkpt lat="44.47364" lon="6.19309">
        <ele>968</ele>
        <time>2025-11-21T10:16:43.000Z</time>
      </trkpt>
      <trkpt lat="44.47363" lon="6.19308">
        <ele>968</ele>
        <time>2025-11-21T10:16:44.000Z</time>
      </trkpt>
      <trkpt lat="44.47361" lon="6.19307">
        <ele>968</ele>
        <time>2025-11-21T10:16:45.000Z</time>
      </trkpt>
      <trkpt lat="44.4736" lon="6.19308">
        <ele>967</ele>
        <time>2025-11-21T10:16:46.000Z</time>
      </trkpt>
      <trkpt lat="44.47359" lon="6.19308">
        <ele>968</ele>
        <time>2025-11-21T10:16:47.000Z</time>
      </trkpt>
      <trkpt lat="44.47358" lon="6.19307">
        <ele>968</ele>
        <time>2025-11-21T10:16:48.000Z</time>
      </trkpt>
      <trkpt lat="44.47357" lon="6.19308">
        <ele>968</ele>
        <time>2025-11-21T10:16:49.000Z</time>
      </trkpt>
      <trkpt lat="44.47356" lon="6.19308">
        <ele>968</ele>
        <time>2025-11-21T10:16:50.000Z</time>
      </trkpt>
      <trkpt lat="44.47355" lon="6.19308">
        <ele>968</ele>
        <time>2025-11-21T10:16:51.000Z</time>
      </trkpt>
      <trkpt lat="44.47355" lon="6.19308">
        <ele>968</ele>
        <time>2025-11-21T10:16:52.000Z</time>
      </trkpt>
      <trkpt lat="44.47355" lon="6.19308">
        <ele>968</ele>
        <time>2025-11-21T10:16:53.000Z</time>
      </trkpt>
      <trkpt lat="44.47354" lon="6.19308">
        <ele>967</ele>
        <time>2025-11-21T10:16:54.000Z</time>
      </trkpt>
      <trkpt lat="44.47353" lon="6.19308">
        <ele>967</ele>
        <time>2025-11-21T10:16:55.000Z</time>
      </trkpt>
      <trkpt lat="44.47351" lon="6.19308">
        <ele>967</ele>
        <time>2025-11-21T10:16:56.000Z</time>
      </trkpt>
      <trkpt lat="44.4735" lon="6.19308">
        <ele>967</ele>
        <time>2025-11-21T10:16:57.000Z</time>
      </trkpt>
      <trkpt lat="44.47349" lon="6.19308">
        <ele>967</ele>
        <time>2025-11-21T10:16:58.000Z</time>
      </trkpt>
      <trkpt lat="44.47348" lon="6.19308">
        <ele>967</ele>
        <time>2025-11-21T10:16:59.000Z</time>
      </trkpt>
      <trkpt lat="44.47347" lon="6.19308">
        <ele>966</ele>
        <time>2025-11-21T10:17:00.000Z</time>
      </trkpt>
      <trkpt lat="44.47346" lon="6.19308">
        <ele>966</ele>
        <time>2025-11-21T10:17:01.000Z</time>
      </trkpt>
      <trkpt lat="44.47346" lon="6.19308">
        <ele>966</ele>
        <time>2025-11-21T10:17:02.000Z</time>
      </trkpt>
      <trkpt lat="44.47345" lon="6.19307">
        <ele>966</ele>
        <time>2025-11-21T10:17:03.000Z</time>
      </trkpt>
      <trkpt lat="44.47344" lon="6.19308">
        <ele>965</ele>
        <time>2025-11-21T10:17:04.000Z</time>
      </trkpt>
      <trkpt lat="44.47343" lon="6.19308">
        <ele>964</ele>
        <time>2025-11-21T10:17:05.000Z</time>
      </trkpt>
      <trkpt lat="44.47342" lon="6.19308">
        <ele>963</ele>
        <time>2025-11-21T10:17:06.000Z</time>
      </trkpt>
      <trkpt lat="44.47342" lon="6.19308">
        <ele>963</ele>
        <time>2025-11-21T10:17:07.000Z</time>
      </trkpt>
      <trkpt lat="44.47341" lon="6.19307">
        <ele>964</ele>
        <time>2025-11-21T10:17:08.000Z</time>
      </trkpt>
      <trkpt lat="44.47341" lon="6.19307">
        <ele>964</ele>
        <time>2025-11-21T10:17:09.000Z</time>
      </trkpt>
      <trkpt lat="44.4734" lon="6.19307">
        <ele>964</ele>
        <time>2025-11-21T10:17:10.000Z</time>
      </trkpt>
      <trkpt lat="44.47339" lon="6.19307">
        <ele>964</ele>
        <time>2025-11-21T10:17:11.000Z</time>
      </trkpt>
      <trkpt lat="44.47338" lon="6.19308">
        <ele>965</ele>
        <time>2025-11-21T10:17:12.000Z</time>
      </trkpt>
      <trkpt lat="44.47337" lon="6.19308">
        <ele>965</ele>
        <time>2025-11-21T10:17:13.000Z</time>
      </trkpt>
      <trkpt lat="44.47336" lon="6.19308">
        <ele>965</ele>
        <time>2025-11-21T10:17:14.000Z</time>
      </trkpt>
      <trkpt lat="44.47335" lon="6.19309">
        <ele>966</ele>
        <time>2025-11-21T10:17:15.000Z</time>
      </trkpt>
      <trkpt lat="44.47334" lon="6.19308">
        <ele>966</ele>
        <time>2025-11-21T10:17:16.000Z</time>
      </trkpt>
      <trkpt lat="44.47333" lon="6.19309">
        <ele>966</ele>
        <time>2025-11-21T10:17:17.000Z</time>
      </trkpt>
      <trkpt lat="44.47333" lon="6.1931">
        <ele>966</ele>
        <time>2025-11-21T10:17:18.000Z</time>
      </trkpt>
      <trkpt lat="44.47332" lon="6.19311">
        <ele>965</ele>
        <time>2025-11-21T10:17:19.000Z</time>
      </trkpt>
      <trkpt lat="44.47331" lon="6.19311">
        <ele>964</ele>
        <time>2025-11-21T10:17:20.000Z</time>
      </trkpt>
      <trkpt lat="44.4733" lon="6.19311">
        <ele>964</ele>
        <time>2025-11-21T10:17:21.000Z</time>
      </trkpt>
      <trkpt lat="44.4733" lon="6.19311">
        <ele>964</ele>
        <time>2025-11-21T10:17:22.000Z</time>
      </trkpt>
      <trkpt lat="44.47329" lon="6.1931">
        <ele>964</ele>
        <time>2025-11-21T10:17:23.000Z</time>
      </trkpt>
      <trkpt lat="44.47328" lon="6.19311">
        <ele>964</ele>
        <time>2025-11-21T10:17:24.000Z</time>
      </trkpt>
      <trkpt lat="44.47327" lon="6.19311">
        <ele>964</ele>
        <time>2025-11-21T10:17:25.000Z</time>
      </trkpt>
      <trkpt lat="44.47326" lon="6.19311">
        <ele>963</ele>
        <time>2025-11-21T10:17:26.000Z</time>
      </trkpt>
      <trkpt lat="44.47325" lon="6.19311">
        <ele>963</ele>
        <time>2025-11-21T10:17:27.000Z</time>
      </trkpt>
      <trkpt lat="44.47325" lon="6.19309">
        <ele>963</ele>
        <time>2025-11-21T10:17:28.000Z</time>
      </trkpt>
      <trkpt lat="44.47324" lon="6.19308">
        <ele>962</ele>
        <time>2025-11-21T10:17:29.000Z</time>
      </trkpt>
      <trkpt lat="44.47324" lon="6.19307">
        <ele>961</ele>
        <time>2025-11-21T10:17:30.000Z</time>
      </trkpt>
      <trkpt lat="44.47323" lon="6.19305">
        <ele>962</ele>
        <time>2025-11-21T10:17:31.000Z</time>
      </trkpt>
      <trkpt lat="44.47323" lon="6.19304">
        <ele>962</ele>
        <time>2025-11-21T10:17:32.000Z</time>
      </trkpt>
      <trkpt lat="44.47323" lon="6.19304">
        <ele>962</ele>
        <time>2025-11-21T10:17:33.000Z</time>
      </trkpt>
      <trkpt lat="44.47323" lon="6.19303">
        <ele>962</ele>
        <time>2025-11-21T10:17:34.000Z</time>
      </trkpt>
      <trkpt lat="44.47323" lon="6.19302">
        <ele>962</ele>
        <time>2025-11-21T10:17:35.000Z</time>
      </trkpt>
      <trkpt lat="44.47323" lon="6.19302">
        <ele>962</ele>
        <time>2025-11-21T10:17:36.000Z</time>
      </trkpt>
      <trkpt lat="44.47323" lon="6.19302">
        <ele>962</ele>
        <time>2025-11-21T10:17:37.000Z</time>
      </trkpt>
      <trkpt lat="44.47323" lon="6.19302">
        <ele>962</ele>
        <time>2025-11-21T10:17:38.000Z</time>
      </trkpt>
      <trkpt lat="44.47324" lon="6.193">
        <ele>960</ele>
        <time>2025-11-21T10:17:39.000Z</time>
      </trkpt>
      <trkpt lat="44.47324" lon="6.19299">
        <ele>960</ele>
        <time>2025-11-21T10:17:40.000Z</time>
      </trkpt>
      <trkpt lat="44.47324" lon="6.19298">
        <ele>959</ele>
        <time>2025-11-21T10:17:41.000Z</time>
      </trkpt>
      <trkpt lat="44.47324" lon="6.19297">
        <ele>959</ele>
        <time>2025-11-21T10:17:42.000Z</time>
      </trkpt>
      <trkpt lat="44.47325" lon="6.19296">
        <ele>958</ele>
        <time>2025-11-21T10:17:43.000Z</time>
      </trkpt>
      <trkpt lat="44.47325" lon="6.19295">
        <ele>958</ele>
        <time>2025-11-21T10:17:44.000Z</time>
      </trkpt>
      <trkpt lat="44.47326" lon="6.19294">
        <ele>957</ele>
        <time>2025-11-21T10:17:45.000Z</time>
      </trkpt>
      <trkpt lat="44.47327" lon="6.19292">
        <ele>957</ele>
        <time>2025-11-21T10:17:46.000Z</time>
      </trkpt>
      <trkpt lat="44.47327" lon="6.19291">
        <ele>957</ele>
        <time>2025-11-21T10:17:47.000Z</time>
      </trkpt>
      <trkpt lat="44.47328" lon="6.1929">
        <ele>957</ele>
        <time>2025-11-21T10:17:48.000Z</time>
      </trkpt>
      <trkpt lat="44.47328" lon="6.19289">
        <ele>957</ele>
        <time>2025-11-21T10:17:49.000Z</time>
      </trkpt>
      <trkpt lat="44.47329" lon="6.19288">
        <ele>957</ele>
        <time>2025-11-21T10:17:50.000Z</time>
      </trkpt>
      <trkpt lat="44.4733" lon="6.19286">
        <ele>957</ele>
        <time>2025-11-21T10:17:51.000Z</time>
      </trkpt>
      <trkpt lat="44.47331" lon="6.19286">
        <ele>956</ele>
        <time>2025-11-21T10:17:52.000Z</time>
      </trkpt>
      <trkpt lat="44.47332" lon="6.19284">
        <ele>955</ele>
        <time>2025-11-21T10:17:53.000Z</time>
      </trkpt>
      <trkpt lat="44.47333" lon="6.19283">
        <ele>955</ele>
        <time>2025-11-21T10:17:54.000Z</time>
      </trkpt>
      <trkpt lat="44.47333" lon="6.19281">
        <ele>954</ele>
        <time>2025-11-21T10:17:55.000Z</time>
      </trkpt>
      <trkpt lat="44.47334" lon="6.1928">
        <ele>954</ele>
        <time>2025-11-21T10:17:56.000Z</time>
      </trkpt>
      <trkpt lat="44.47334" lon="6.19279">
        <ele>954</ele>
        <time>2025-11-21T10:17:57.000Z</time>
      </trkpt>
      <trkpt lat="44.47335" lon="6.19278">
        <ele>954</ele>
        <time>2025-11-21T10:17:58.000Z</time>
      </trkpt>
      <trkpt lat="44.47336" lon="6.19277">
        <ele>954</ele>
        <time>2025-11-21T10:17:59.000Z</time>
      </trkpt>
      <trkpt lat="44.47337" lon="6.19277">
        <ele>954</ele>
        <time>2025-11-21T10:18:00.000Z</time>
      </trkpt>
      <trkpt lat="44.47337" lon="6.19277">
        <ele>954</ele>
        <time>2025-11-21T10:18:01.000Z</time>
      </trkpt>
      <trkpt lat="44.47337" lon="6.19276">
        <ele>954</ele>
        <time>2025-11-21T10:18:02.000Z</time>
      </trkpt>
      <trkpt lat="44.47338" lon="6.19276">
        <ele>954</ele>
        <time>2025-11-21T10:18:03.000Z</time>
      </trkpt>
      <trkpt lat="44.47338" lon="6.19276">
        <ele>954</ele>
        <time>2025-11-21T10:18:04.000Z</time>
      </trkpt>
      <trkpt lat="44.47339" lon="6.19275">
        <ele>953</ele>
        <time>2025-11-21T10:18:05.000Z</time>
      </trkpt>
      <trkpt lat="44.47339" lon="6.19275">
        <ele>952</ele>
        <time>2025-11-21T10:18:06.000Z</time>
      </trkpt>
      <trkpt lat="44.4734" lon="6.19274">
        <ele>951</ele>
        <time>2025-11-21T10:18:07.000Z</time>
      </trkpt>
      <trkpt lat="44.4734" lon="6.19274">
        <ele>950</ele>
        <time>2025-11-21T10:18:08.000Z</time>
      </trkpt>
      <trkpt lat="44.4734" lon="6.19274">
        <ele>950</ele>
        <time>2025-11-21T10:18:09.000Z</time>
      </trkpt>
      <trkpt lat="44.4734" lon="6.19274">
        <ele>950</ele>
        <time>2025-11-21T10:18:10.000Z</time>
      </trkpt>
      <trkpt lat="44.47342" lon="6.19271">
        <ele>950</ele>
        <time>2025-11-21T10:18:11.000Z</time>
      </trkpt>
      <trkpt lat="44.47343" lon="6.1927">
        <ele>950</ele>
        <time>2025-11-21T10:18:12.000Z</time>
      </trkpt>
      <trkpt lat="44.47343" lon="6.19269">
        <ele>949</ele>
        <time>2025-11-21T10:18:13.000Z</time>
      </trkpt>
      <trkpt lat="44.47344" lon="6.19268">
        <ele>949</ele>
        <time>2025-11-21T10:18:14.000Z</time>
      </trkpt>
      <trkpt lat="44.47345" lon="6.19267">
        <ele>949</ele>
        <time>2025-11-21T10:18:15.000Z</time>
      </trkpt>
      <trkpt lat="44.47345" lon="6.19266">
        <ele>949</ele>
        <time>2025-11-21T10:18:16.000Z</time>
      </trkpt>
      <trkpt lat="44.47346" lon="6.19265">
        <ele>949</ele>
        <time>2025-11-21T10:18:17.000Z</time>
      </trkpt>
      <trkpt lat="44.47347" lon="6.19264">
        <ele>949</ele>
        <time>2025-11-21T10:18:18.000Z</time>
      </trkpt>
      <trkpt lat="44.47347" lon="6.19262">
        <ele>948</ele>
        <time>2025-11-21T10:18:19.000Z</time>
      </trkpt>
      <trkpt lat="44.47348" lon="6.19261">
        <ele>948</ele>
        <time>2025-11-21T10:18:20.000Z</time>
      </trkpt>
      <trkpt lat="44.47348" lon="6.1926">
        <ele>947</ele>
        <time>2025-11-21T10:18:21.000Z</time>
      </trkpt>
      <trkpt lat="44.47348" lon="6.19259">
        <ele>946</ele>
        <time>2025-11-21T10:18:22.000Z</time>
      </trkpt>
      <trkpt lat="44.47349" lon="6.19258">
        <ele>946</ele>
        <time>2025-11-21T10:18:23.000Z</time>
      </trkpt>
      <trkpt lat="44.47349" lon="6.19257">
        <ele>946</ele>
        <time>2025-11-21T10:18:24.000Z</time>
      </trkpt>
      <trkpt lat="44.4735" lon="6.19256">
        <ele>946</ele>
        <time>2025-11-21T10:18:25.000Z</time>
      </trkpt>
      <trkpt lat="44.4735" lon="6.19255">
        <ele>946</ele>
        <time>2025-11-21T10:18:26.000Z</time>
      </trkpt>
      <trkpt lat="44.4735" lon="6.19254">
        <ele>946</ele>
        <time>2025-11-21T10:18:27.000Z</time>
      </trkpt>
      <trkpt lat="44.47351" lon="6.19253">
        <ele>946</ele>
        <time>2025-11-21T10:18:28.000Z</time>
      </trkpt>
      <trkpt lat="44.47351" lon="6.19253">
        <ele>946</ele>
        <time>2025-11-21T10:18:29.000Z</time>
      </trkpt>
      <trkpt lat="44.47351" lon="6.19253">
        <ele>946</ele>
        <time>2025-11-21T10:18:30.000Z</time>
      </trkpt>
      <trkpt lat="44.47351" lon="6.19253">
        <ele>946</ele>
        <time>2025-11-21T10:18:31.000Z</time>
      </trkpt>
      <trkpt lat="44.47351" lon="6.19253">
        <ele>946</ele>
        <time>2025-11-21T10:18:32.000Z</time>
      </trkpt>
      <trkpt lat="44.47351" lon="6.19253">
        <ele>946</ele>
        <time>2025-11-21T10:18:33.000Z</time>
      </trkpt>
      <trkpt lat="44.47351" lon="6.1925">
        <ele>943</ele>
        <time>2025-11-21T10:18:34.000Z</time>
      </trkpt>
      <trkpt lat="44.47351" lon="6.19249">
        <ele>943</ele>
        <time>2025-11-21T10:18:35.000Z</time>
      </trkpt>
      <trkpt lat="44.47351" lon="6.19248">
        <ele>943</ele>
        <time>2025-11-21T10:18:36.000Z</time>
      </trkpt>
      <trkpt lat="44.4735" lon="6.19247">
        <ele>942</ele>
        <time>2025-11-21T10:18:37.000Z</time>
      </trkpt>
      <trkpt lat="44.4735" lon="6.19247">
        <ele>942</ele>
        <time>2025-11-21T10:18:38.000Z</time>
      </trkpt>
      <trkpt lat="44.4735" lon="6.19247">
        <ele>942</ele>
        <time>2025-11-21T10:18:39.000Z</time>
      </trkpt>
      <trkpt lat="44.47351" lon="6.19244">
        <ele>941</ele>
        <time>2025-11-21T10:18:40.000Z</time>
      </trkpt>
      <trkpt lat="44.47351" lon="6.19243">
        <ele>941</ele>
        <time>2025-11-21T10:18:41.000Z</time>
      </trkpt>
      <trkpt lat="44.47351" lon="6.19242">
        <ele>940</ele>
        <time>2025-11-21T10:18:42.000Z</time>
      </trkpt>
      <trkpt lat="44.47351" lon="6.1924">
        <ele>940</ele>
        <time>2025-11-21T10:18:43.000Z</time>
      </trkpt>
      <trkpt lat="44.47351" lon="6.19238">
        <ele>940</ele>
        <time>2025-11-21T10:18:44.000Z</time>
      </trkpt>
      <trkpt lat="44.47351" lon="6.19237">
        <ele>940</ele>
        <time>2025-11-21T10:18:45.000Z</time>
      </trkpt>
      <trkpt lat="44.47351" lon="6.19235">
        <ele>939</ele>
        <time>2025-11-21T10:18:46.000Z</time>
      </trkpt>
      <trkpt lat="44.47351" lon="6.19234">
        <ele>939</ele>
        <time>2025-11-21T10:18:47.000Z</time>
      </trkpt>
      <trkpt lat="44.47351" lon="6.19232">
        <ele>939</ele>
        <time>2025-11-21T10:18:48.000Z</time>
      </trkpt>
      <trkpt lat="44.47351" lon="6.19231">
        <ele>939</ele>
        <time>2025-11-21T10:18:49.000Z</time>
      </trkpt>
      <trkpt lat="44.47351" lon="6.19229">
        <ele>939</ele>
        <time>2025-11-21T10:18:50.000Z</time>
      </trkpt>
      <trkpt lat="44.47351" lon="6.19227">
        <ele>938</ele>
        <time>2025-11-21T10:18:51.000Z</time>
      </trkpt>
      <trkpt lat="44.47351" lon="6.19226">
        <ele>939</ele>
        <time>2025-11-21T10:18:52.000Z</time>
      </trkpt>
      <trkpt lat="44.47351" lon="6.19224">
        <ele>939</ele>
        <time>2025-11-21T10:18:53.000Z</time>
      </trkpt>
      <trkpt lat="44.47351" lon="6.19222">
        <ele>939</ele>
        <time>2025-11-21T10:18:54.000Z</time>
      </trkpt>
      <trkpt lat="44.47351" lon="6.1922">
        <ele>939</ele>
        <time>2025-11-21T10:18:55.000Z</time>
      </trkpt>
      <trkpt lat="44.4735" lon="6.19219">
        <ele>938</ele>
        <time>2025-11-21T10:18:56.000Z</time>
      </trkpt>
      <trkpt lat="44.4735" lon="6.19217">
        <ele>938</ele>
        <time>2025-11-21T10:18:57.000Z</time>
      </trkpt>
      <trkpt lat="44.47349" lon="6.19216">
        <ele>939</ele>
        <time>2025-11-21T10:18:58.000Z</time>
      </trkpt>
      <trkpt lat="44.47348" lon="6.19214">
        <ele>939</ele>
        <time>2025-11-21T10:18:59.000Z</time>
      </trkpt>
      <trkpt lat="44.47348" lon="6.19213">
        <ele>939</ele>
        <time>2025-11-21T10:19:00.000Z</time>
      </trkpt>
      <trkpt lat="44.47346" lon="6.19211">
        <ele>939</ele>
        <time>2025-11-21T10:19:01.000Z</time>
      </trkpt>
      <trkpt lat="44.47346" lon="6.1921">
        <ele>939</ele>
        <time>2025-11-21T10:19:02.000Z</time>
      </trkpt>
      <trkpt lat="44.47345" lon="6.19209">
        <ele>939</ele>
        <time>2025-11-21T10:19:03.000Z</time>
      </trkpt>
      <trkpt lat="44.47344" lon="6.19208">
        <ele>939</ele>
        <time>2025-11-21T10:19:04.000Z</time>
      </trkpt>
      <trkpt lat="44.47343" lon="6.19207">
        <ele>939</ele>
        <time>2025-11-21T10:19:05.000Z</time>
      </trkpt>
      <trkpt lat="44.47342" lon="6.19206">
        <ele>939</ele>
        <time>2025-11-21T10:19:06.000Z</time>
      </trkpt>
      <trkpt lat="44.47341" lon="6.19205">
        <ele>939</ele>
        <time>2025-11-21T10:19:07.000Z</time>
      </trkpt>
      <trkpt lat="44.4734" lon="6.19204">
        <ele>938</ele>
        <time>2025-11-21T10:19:08.000Z</time>
      </trkpt>
      <trkpt lat="44.4734" lon="6.19203">
        <ele>939</ele>
        <time>2025-11-21T10:19:09.000Z</time>
      </trkpt>
      <trkpt lat="44.47339" lon="6.19202">
        <ele>939</ele>
        <time>2025-11-21T10:19:10.000Z</time>
      </trkpt>
      <trkpt lat="44.47339" lon="6.19199">
        <ele>939</ele>
        <time>2025-11-21T10:19:11.000Z</time>
      </trkpt>
      <trkpt lat="44.47339" lon="6.19197">
        <ele>939</ele>
        <time>2025-11-21T10:19:12.000Z</time>
      </trkpt>
      <trkpt lat="44.47339" lon="6.19195">
        <ele>939</ele>
        <time>2025-11-21T10:19:13.000Z</time>
      </trkpt>
      <trkpt lat="44.47339" lon="6.19195">
        <ele>938</ele>
        <time>2025-11-21T10:19:14.000Z</time>
      </trkpt>
      <trkpt lat="44.47339" lon="6.19193">
        <ele>938</ele>
        <time>2025-11-21T10:19:15.000Z</time>
      </trkpt>
      <trkpt lat="44.47338" lon="6.19191">
        <ele>938</ele>
        <time>2025-11-21T10:19:16.000Z</time>
      </trkpt>
      <trkpt lat="44.47338" lon="6.1919">
        <ele>938</ele>
        <time>2025-11-21T10:19:17.000Z</time>
      </trkpt>
      <trkpt lat="44.47338" lon="6.19188">
        <ele>938</ele>
        <time>2025-11-21T10:19:18.000Z</time>
      </trkpt>
      <trkpt lat="44.47338" lon="6.19187">
        <ele>937</ele>
        <time>2025-11-21T10:19:19.000Z</time>
      </trkpt>
      <trkpt lat="44.47338" lon="6.19186">
        <ele>937</ele>
        <time>2025-11-21T10:19:20.000Z</time>
      </trkpt>
      <trkpt lat="44.47339" lon="6.19184">
        <ele>937</ele>
        <time>2025-11-21T10:19:21.000Z</time>
      </trkpt>
      <trkpt lat="44.47339" lon="6.19184">
        <ele>937</ele>
        <time>2025-11-21T10:19:22.000Z</time>
      </trkpt>
      <trkpt lat="44.47339" lon="6.19183">
        <ele>937</ele>
        <time>2025-11-21T10:19:23.000Z</time>
      </trkpt>
      <trkpt lat="44.47339" lon="6.19182">
        <ele>937</ele>
        <time>2025-11-21T10:19:24.000Z</time>
      </trkpt>
      <trkpt lat="44.47339" lon="6.1918">
        <ele>937</ele>
        <time>2025-11-21T10:19:25.000Z</time>
      </trkpt>
      <trkpt lat="44.47339" lon="6.19179">
        <ele>937</ele>
        <time>2025-11-21T10:19:26.000Z</time>
      </trkpt>
      <trkpt lat="44.47339" lon="6.19177">
        <ele>938</ele>
        <time>2025-11-21T10:19:27.000Z</time>
      </trkpt>
      <trkpt lat="44.47339" lon="6.19176">
        <ele>938</ele>
        <time>2025-11-21T10:19:28.000Z</time>
      </trkpt>
      <trkpt lat="44.47339" lon="6.19175">
        <ele>937</ele>
        <time>2025-11-21T10:19:29.000Z</time>
      </trkpt>
      <trkpt lat="44.47339" lon="6.19173">
        <ele>937</ele>
        <time>2025-11-21T10:19:30.000Z</time>
      </trkpt>
      <trkpt lat="44.47339" lon="6.19172">
        <ele>937</ele>
        <time>2025-11-21T10:19:31.000Z</time>
      </trkpt>
      <trkpt lat="44.4734" lon="6.1917">
        <ele>937</ele>
        <time>2025-11-21T10:19:32.000Z</time>
      </trkpt>
      <trkpt lat="44.4734" lon="6.19168">
        <ele>938</ele>
        <time>2025-11-21T10:19:33.000Z</time>
      </trkpt>
      <trkpt lat="44.47341" lon="6.19167">
        <ele>937</ele>
        <time>2025-11-21T10:19:34.000Z</time>
      </trkpt>
      <trkpt lat="44.47341" lon="6.19167">
        <ele>937</ele>
        <time>2025-11-21T10:19:35.000Z</time>
      </trkpt>
      <trkpt lat="44.47341" lon="6.19166">
        <ele>936</ele>
        <time>2025-11-21T10:19:36.000Z</time>
      </trkpt>
      <trkpt lat="44.47341" lon="6.19166">
        <ele>936</ele>
        <time>2025-11-21T10:19:37.000Z</time>
      </trkpt>
      <trkpt lat="44.47342" lon="6.19164">
        <ele>937</ele>
        <time>2025-11-21T10:19:38.000Z</time>
      </trkpt>
      <trkpt lat="44.47343" lon="6.19163">
        <ele>936</ele>
        <time>2025-11-21T10:19:39.000Z</time>
      </trkpt>
      <trkpt lat="44.47343" lon="6.19162">
        <ele>936</ele>
        <time>2025-11-21T10:19:40.000Z</time>
      </trkpt>
      <trkpt lat="44.47343" lon="6.19161">
        <ele>935</ele>
        <time>2025-11-21T10:19:41.000Z</time>
      </trkpt>
      <trkpt lat="44.47343" lon="6.1916">
        <ele>935</ele>
        <time>2025-11-21T10:19:42.000Z</time>
      </trkpt>
      <trkpt lat="44.47343" lon="6.19159">
        <ele>935</ele>
        <time>2025-11-21T10:19:43.000Z</time>
      </trkpt>
      <trkpt lat="44.47343" lon="6.19159">
        <ele>935</ele>
        <time>2025-11-21T10:19:44.000Z</time>
      </trkpt>
      <trkpt lat="44.47343" lon="6.19159">
        <ele>935</ele>
        <time>2025-11-21T10:19:45.000Z</time>
      </trkpt>
      <trkpt lat="44.47343" lon="6.19156">
        <ele>933</ele>
        <time>2025-11-21T10:19:46.000Z</time>
      </trkpt>
      <trkpt lat="44.47343" lon="6.19154">
        <ele>933</ele>
        <time>2025-11-21T10:19:47.000Z</time>
      </trkpt>
      <trkpt lat="44.47342" lon="6.19153">
        <ele>933</ele>
        <time>2025-11-21T10:19:48.000Z</time>
      </trkpt>
      <trkpt lat="44.47342" lon="6.19151">
        <ele>933</ele>
        <time>2025-11-21T10:19:49.000Z</time>
      </trkpt>
      <trkpt lat="44.47341" lon="6.1915">
        <ele>933</ele>
        <time>2025-11-21T10:19:50.000Z</time>
      </trkpt>
      <trkpt lat="44.47341" lon="6.19149">
        <ele>933</ele>
        <time>2025-11-21T10:19:51.000Z</time>
      </trkpt>
      <trkpt lat="44.47341" lon="6.19147">
        <ele>932</ele>
        <time>2025-11-21T10:19:52.000Z</time>
      </trkpt>
      <trkpt lat="44.47341" lon="6.19146">
        <ele>932</ele>
        <time>2025-11-21T10:19:53.000Z</time>
      </trkpt>
      <trkpt lat="44.4734" lon="6.19145">
        <ele>932</ele>
        <time>2025-11-21T10:19:54.000Z</time>
      </trkpt>
      <trkpt lat="44.47339" lon="6.19144">
        <ele>931</ele>
        <time>2025-11-21T10:19:55.000Z</time>
      </trkpt>
      <trkpt lat="44.47339" lon="6.19143">
        <ele>932</ele>
        <time>2025-11-21T10:19:56.000Z</time>
      </trkpt>
      <trkpt lat="44.47338" lon="6.19142">
        <ele>932</ele>
        <time>2025-11-21T10:19:57.000Z</time>
      </trkpt>
      <trkpt lat="44.47338" lon="6.19141">
        <ele>932</ele>
        <time>2025-11-21T10:19:58.000Z</time>
      </trkpt>
      <trkpt lat="44.47337" lon="6.19139">
        <ele>932</ele>
        <time>2025-11-21T10:19:59.000Z</time>
      </trkpt>
      <trkpt lat="44.47337" lon="6.19137">
        <ele>930</ele>
        <time>2025-11-21T10:20:00.000Z</time>
      </trkpt>
      <trkpt lat="44.47336" lon="6.19136">
        <ele>930</ele>
        <time>2025-11-21T10:20:01.000Z</time>
      </trkpt>
      <trkpt lat="44.47336" lon="6.19134">
        <ele>930</ele>
        <time>2025-11-21T10:20:02.000Z</time>
      </trkpt>
      <trkpt lat="44.47335" lon="6.19133">
        <ele>930</ele>
        <time>2025-11-21T10:20:03.000Z</time>
      </trkpt>
      <trkpt lat="44.47335" lon="6.19132">
        <ele>930</ele>
        <time>2025-11-21T10:20:04.000Z</time>
      </trkpt>
      <trkpt lat="44.47334" lon="6.19131">
        <ele>929</ele>
        <time>2025-11-21T10:20:05.000Z</time>
      </trkpt>
      <trkpt lat="44.47334" lon="6.19129">
        <ele>929</ele>
        <time>2025-11-21T10:20:06.000Z</time>
      </trkpt>
      <trkpt lat="44.47334" lon="6.19128">
        <ele>928</ele>
        <time>2025-11-21T10:20:07.000Z</time>
      </trkpt>
      <trkpt lat="44.47334" lon="6.19127">
        <ele>927</ele>
        <time>2025-11-21T10:20:08.000Z</time>
      </trkpt>
      <trkpt lat="44.47333" lon="6.19126">
        <ele>927</ele>
        <time>2025-11-21T10:20:09.000Z</time>
      </trkpt>
      <trkpt lat="44.47333" lon="6.19124">
        <ele>927</ele>
        <time>2025-11-21T10:20:10.000Z</time>
      </trkpt>
      <trkpt lat="44.47333" lon="6.19123">
        <ele>927</ele>
        <time>2025-11-21T10:20:11.000Z</time>
      </trkpt>
      <trkpt lat="44.47332" lon="6.19122">
        <ele>927</ele>
        <time>2025-11-21T10:20:12.000Z</time>
      </trkpt>
      <trkpt lat="44.47331" lon="6.1912">
        <ele>927</ele>
        <time>2025-11-21T10:20:13.000Z</time>
      </trkpt>
      <trkpt lat="44.47331" lon="6.19119">
        <ele>927</ele>
        <time>2025-11-21T10:20:14.000Z</time>
      </trkpt>
      <trkpt lat="44.47331" lon="6.19118">
        <ele>927</ele>
        <time>2025-11-21T10:20:15.000Z</time>
      </trkpt>
      <trkpt lat="44.4733" lon="6.19117">
        <ele>927</ele>
        <time>2025-11-21T10:20:16.000Z</time>
      </trkpt>
      <trkpt lat="44.47329" lon="6.19115">
        <ele>927</ele>
        <time>2025-11-21T10:20:17.000Z</time>
      </trkpt>
      <trkpt lat="44.47328" lon="6.19114">
        <ele>927</ele>
        <time>2025-11-21T10:20:18.000Z</time>
      </trkpt>
      <trkpt lat="44.47328" lon="6.19113">
        <ele>927</ele>
        <time>2025-11-21T10:20:19.000Z</time>
      </trkpt>
      <trkpt lat="44.47328" lon="6.19111">
        <ele>927</ele>
        <time>2025-11-21T10:20:20.000Z</time>
      </trkpt>
      <trkpt lat="44.47328" lon="6.1911">
        <ele>926</ele>
        <time>2025-11-21T10:20:21.000Z</time>
      </trkpt>
      <trkpt lat="44.47328" lon="6.19108">
        <ele>926</ele>
        <time>2025-11-21T10:20:22.000Z</time>
      </trkpt>
      <trkpt lat="44.47327" lon="6.19107">
        <ele>925</ele>
        <time>2025-11-21T10:20:23.000Z</time>
      </trkpt>
      <trkpt lat="44.47327" lon="6.19105">
        <ele>925</ele>
        <time>2025-11-21T10:20:24.000Z</time>
      </trkpt>
      <trkpt lat="44.47327" lon="6.19104">
        <ele>925</ele>
        <time>2025-11-21T10:20:25.000Z</time>
      </trkpt>
      <trkpt lat="44.47327" lon="6.19102">
        <ele>924</ele>
        <time>2025-11-21T10:20:26.000Z</time>
      </trkpt>
      <trkpt lat="44.47327" lon="6.191">
        <ele>924</ele>
        <time>2025-11-21T10:20:27.000Z</time>
      </trkpt>
      <trkpt lat="44.47327" lon="6.19099">
        <ele>923</ele>
        <time>2025-11-21T10:20:28.000Z</time>
      </trkpt>
      <trkpt lat="44.47328" lon="6.19097">
        <ele>923</ele>
        <time>2025-11-21T10:20:29.000Z</time>
      </trkpt>
      <trkpt lat="44.47328" lon="6.19096">
        <ele>923</ele>
        <time>2025-11-21T10:20:30.000Z</time>
      </trkpt>
      <trkpt lat="44.47328" lon="6.19095">
        <ele>923</ele>
        <time>2025-11-21T10:20:31.000Z</time>
      </trkpt>
      <trkpt lat="44.47328" lon="6.19095">
        <ele>923</ele>
        <time>2025-11-21T10:20:32.000Z</time>
      </trkpt>
      <trkpt lat="44.47328" lon="6.19095">
        <ele>923</ele>
        <time>2025-11-21T10:20:33.000Z</time>
      </trkpt>
      <trkpt lat="44.4733" lon="6.19094">
        <ele>920</ele>
        <time>2025-11-21T10:20:34.000Z</time>
      </trkpt>
      <trkpt lat="44.47331" lon="6.19094">
        <ele>920</ele>
        <time>2025-11-21T10:20:35.000Z</time>
      </trkpt>
      <trkpt lat="44.47332" lon="6.19094">
        <ele>919</ele>
        <time>2025-11-21T10:20:36.000Z</time>
      </trkpt>
      <trkpt lat="44.47332" lon="6.19094">
        <ele>919</ele>
        <time>2025-11-21T10:20:37.000Z</time>
      </trkpt>
      <trkpt lat="44.47333" lon="6.19094">
        <ele>918</ele>
        <time>2025-11-21T10:20:38.000Z</time>
      </trkpt>
      <trkpt lat="44.47334" lon="6.19095">
        <ele>918</ele>
        <time>2025-11-21T10:20:39.000Z</time>
      </trkpt>
      <trkpt lat="44.47335" lon="6.19096">
        <ele>918</ele>
        <time>2025-11-21T10:20:40.000Z</time>
      </trkpt>
      <trkpt lat="44.47336" lon="6.19096">
        <ele>918</ele>
        <time>2025-11-21T10:20:41.000Z</time>
      </trkpt>
      <trkpt lat="44.47337" lon="6.19097">
        <ele>918</ele>
        <time>2025-11-21T10:20:42.000Z</time>
      </trkpt>
      <trkpt lat="44.47338" lon="6.19098">
        <ele>918</ele>
        <time>2025-11-21T10:20:43.000Z</time>
      </trkpt>
      <trkpt lat="44.47339" lon="6.19098">
        <ele>917</ele>
        <time>2025-11-21T10:20:44.000Z</time>
      </trkpt>
      <trkpt lat="44.47339" lon="6.19099">
        <ele>917</ele>
        <time>2025-11-21T10:20:45.000Z</time>
      </trkpt>
      <trkpt lat="44.47339" lon="6.19099">
        <ele>917</ele>
        <time>2025-11-21T10:20:46.000Z</time>
      </trkpt>
      <trkpt lat="44.4734" lon="6.191">
        <ele>917</ele>
        <time>2025-11-21T10:20:47.000Z</time>
      </trkpt>
      <trkpt lat="44.47342" lon="6.191">
        <ele>917</ele>
        <time>2025-11-21T10:20:48.000Z</time>
      </trkpt>
      <trkpt lat="44.47342" lon="6.191">
        <ele>916</ele>
        <time>2025-11-21T10:20:49.000Z</time>
      </trkpt>
      <trkpt lat="44.47343" lon="6.19101">
        <ele>916</ele>
        <time>2025-11-21T10:20:50.000Z</time>
      </trkpt>
      <trkpt lat="44.47344" lon="6.19102">
        <ele>916</ele>
        <time>2025-11-21T10:20:51.000Z</time>
      </trkpt>
      <trkpt lat="44.47345" lon="6.19103">
        <ele>916</ele>
        <time>2025-11-21T10:20:52.000Z</time>
      </trkpt>
      <trkpt lat="44.47346" lon="6.19104">
        <ele>916</ele>
        <time>2025-11-21T10:20:53.000Z</time>
      </trkpt>
      <trkpt lat="44.47347" lon="6.19105">
        <ele>916</ele>
        <time>2025-11-21T10:20:54.000Z</time>
      </trkpt>
      <trkpt lat="44.47348" lon="6.19106">
        <ele>915</ele>
        <time>2025-11-21T10:20:55.000Z</time>
      </trkpt>
      <trkpt lat="44.47349" lon="6.19107">
        <ele>915</ele>
        <time>2025-11-21T10:20:56.000Z</time>
      </trkpt>
      <trkpt lat="44.4735" lon="6.19108">
        <ele>915</ele>
        <time>2025-11-21T10:20:57.000Z</time>
      </trkpt>
      <trkpt lat="44.47351" lon="6.19109">
        <ele>915</ele>
        <time>2025-11-21T10:20:58.000Z</time>
      </trkpt>
      <trkpt lat="44.47352" lon="6.19109">
        <ele>914</ele>
        <time>2025-11-21T10:20:59.000Z</time>
      </trkpt>
      <trkpt lat="44.47352" lon="6.1911">
        <ele>914</ele>
        <time>2025-11-21T10:21:00.000Z</time>
      </trkpt>
      <trkpt lat="44.47352" lon="6.19111">
        <ele>914</ele>
        <time>2025-11-21T10:21:01.000Z</time>
      </trkpt>
      <trkpt lat="44.47353" lon="6.19112">
        <ele>914</ele>
        <time>2025-11-21T10:21:02.000Z</time>
      </trkpt>
      <trkpt lat="44.47353" lon="6.19113">
        <ele>914</ele>
        <time>2025-11-21T10:21:03.000Z</time>
      </trkpt>
      <trkpt lat="44.47354" lon="6.19113">
        <ele>914</ele>
        <time>2025-11-21T10:21:04.000Z</time>
      </trkpt>
      <trkpt lat="44.47355" lon="6.19114">
        <ele>913</ele>
        <time>2025-11-21T10:21:05.000Z</time>
      </trkpt>
      <trkpt lat="44.47355" lon="6.19114">
        <ele>914</ele>
        <time>2025-11-21T10:21:06.000Z</time>
      </trkpt>
      <trkpt lat="44.47355" lon="6.19115">
        <ele>913</ele>
        <time>2025-11-21T10:21:07.000Z</time>
      </trkpt>
      <trkpt lat="44.47356" lon="6.19116">
        <ele>913</ele>
        <time>2025-11-21T10:21:08.000Z</time>
      </trkpt>
      <trkpt lat="44.47357" lon="6.19117">
        <ele>912</ele>
        <time>2025-11-21T10:21:09.000Z</time>
      </trkpt>
      <trkpt lat="44.47357" lon="6.19118">
        <ele>912</ele>
        <time>2025-11-21T10:21:10.000Z</time>
      </trkpt>
      <trkpt lat="44.47358" lon="6.19118">
        <ele>912</ele>
        <time>2025-11-21T10:21:11.000Z</time>
      </trkpt>
      <trkpt lat="44.47359" lon="6.19119">
        <ele>911</ele>
        <time>2025-11-21T10:21:12.000Z</time>
      </trkpt>
      <trkpt lat="44.4736" lon="6.19119">
        <ele>911</ele>
        <time>2025-11-21T10:21:13.000Z</time>
      </trkpt>
      <trkpt lat="44.4736" lon="6.19121">
        <ele>911</ele>
        <time>2025-11-21T10:21:14.000Z</time>
      </trkpt>
      <trkpt lat="44.47361" lon="6.19122">
        <ele>911</ele>
        <time>2025-11-21T10:21:15.000Z</time>
      </trkpt>
      <trkpt lat="44.47362" lon="6.19123">
        <ele>911</ele>
        <time>2025-11-21T10:21:16.000Z</time>
      </trkpt>
      <trkpt lat="44.47362" lon="6.19125">
        <ele>911</ele>
        <time>2025-11-21T10:21:17.000Z</time>
      </trkpt>
      <trkpt lat="44.47363" lon="6.19125">
        <ele>910</ele>
        <time>2025-11-21T10:21:18.000Z</time>
      </trkpt>
      <trkpt lat="44.47364" lon="6.19126">
        <ele>910</ele>
        <time>2025-11-21T10:21:19.000Z</time>
      </trkpt>
      <trkpt lat="44.47365" lon="6.19127">
        <ele>910</ele>
        <time>2025-11-21T10:21:20.000Z</time>
      </trkpt>
      <trkpt lat="44.47366" lon="6.19127">
        <ele>909</ele>
        <time>2025-11-21T10:21:21.000Z</time>
      </trkpt>
      <trkpt lat="44.47367" lon="6.19128">
        <ele>909</ele>
        <time>2025-11-21T10:21:22.000Z</time>
      </trkpt>
      <trkpt lat="44.47368" lon="6.19128">
        <ele>909</ele>
        <time>2025-11-21T10:21:23.000Z</time>
      </trkpt>
      <trkpt lat="44.47369" lon="6.19128">
        <ele>909</ele>
        <time>2025-11-21T10:21:24.000Z</time>
      </trkpt>
      <trkpt lat="44.4737" lon="6.19129">
        <ele>908</ele>
        <time>2025-11-21T10:21:25.000Z</time>
      </trkpt>
      <trkpt lat="44.4737" lon="6.1913">
        <ele>908</ele>
        <time>2025-11-21T10:21:26.000Z</time>
      </trkpt>
      <trkpt lat="44.47371" lon="6.19132">
        <ele>908</ele>
        <time>2025-11-21T10:21:27.000Z</time>
      </trkpt>
      <trkpt lat="44.47371" lon="6.19133">
        <ele>908</ele>
        <time>2025-11-21T10:21:28.000Z</time>
      </trkpt>
      <trkpt lat="44.47372" lon="6.19134">
        <ele>908</ele>
        <time>2025-11-21T10:21:29.000Z</time>
      </trkpt>
      <trkpt lat="44.47373" lon="6.19135">
        <ele>907</ele>
        <time>2025-11-21T10:21:30.000Z</time>
      </trkpt>
      <trkpt lat="44.47374" lon="6.19135">
        <ele>907</ele>
        <time>2025-11-21T10:21:31.000Z</time>
      </trkpt>
      <trkpt lat="44.47375" lon="6.19136">
        <ele>907</ele>
        <time>2025-11-21T10:21:32.000Z</time>
      </trkpt>
      <trkpt lat="44.47376" lon="6.19137">
        <ele>907</ele>
        <time>2025-11-21T10:21:33.000Z</time>
      </trkpt>
      <trkpt lat="44.47376" lon="6.19137">
        <ele>907</ele>
        <time>2025-11-21T10:21:34.000Z</time>
      </trkpt>
      <trkpt lat="44.47376" lon="6.19138">
        <ele>906</ele>
        <time>2025-11-21T10:21:35.000Z</time>
      </trkpt>
      <trkpt lat="44.47376" lon="6.19138">
        <ele>905</ele>
        <time>2025-11-21T10:21:36.000Z</time>
      </trkpt>
      <trkpt lat="44.47376" lon="6.19138">
        <ele>905</ele>
        <time>2025-11-21T10:21:37.000Z</time>
      </trkpt>
      <trkpt lat="44.47377" lon="6.19139">
        <ele>903</ele>
        <time>2025-11-21T10:21:38.000Z</time>
      </trkpt>
      <trkpt lat="44.47378" lon="6.1914">
        <ele>903</ele>
        <time>2025-11-21T10:21:39.000Z</time>
      </trkpt>
      <trkpt lat="44.47378" lon="6.19141">
        <ele>902</ele>
        <time>2025-11-21T10:21:40.000Z</time>
      </trkpt>
      <trkpt lat="44.47379" lon="6.19141">
        <ele>902</ele>
        <time>2025-11-21T10:21:41.000Z</time>
      </trkpt>
      <trkpt lat="44.4738" lon="6.19141">
        <ele>902</ele>
        <time>2025-11-21T10:21:42.000Z</time>
      </trkpt>
      <trkpt lat="44.47381" lon="6.19142">
        <ele>902</ele>
        <time>2025-11-21T10:21:43.000Z</time>
      </trkpt>
      <trkpt lat="44.47382" lon="6.19143">
        <ele>901</ele>
        <time>2025-11-21T10:21:44.000Z</time>
      </trkpt>
      <trkpt lat="44.47383" lon="6.19144">
        <ele>902</ele>
        <time>2025-11-21T10:21:45.000Z</time>
      </trkpt>
      <trkpt lat="44.47383" lon="6.19144">
        <ele>902</ele>
        <time>2025-11-21T10:21:46.000Z</time>
      </trkpt>
      <trkpt lat="44.47384" lon="6.19144">
        <ele>902</ele>
        <time>2025-11-21T10:21:47.000Z</time>
      </trkpt>
      <trkpt lat="44.47384" lon="6.19144">
        <ele>902</ele>
        <time>2025-11-21T10:21:48.000Z</time>
      </trkpt>
      <trkpt lat="44.47385" lon="6.19144">
        <ele>901</ele>
        <time>2025-11-21T10:21:49.000Z</time>
      </trkpt>
      <trkpt lat="44.47385" lon="6.19144">
        <ele>901</ele>
        <time>2025-11-21T10:21:50.000Z</time>
      </trkpt>
      <trkpt lat="44.47385" lon="6.19143">
        <ele>901</ele>
        <time>2025-11-21T10:21:51.000Z</time>
      </trkpt>
      <trkpt lat="44.47386" lon="6.19143">
        <ele>900</ele>
        <time>2025-11-21T10:21:52.000Z</time>
      </trkpt>
      <trkpt lat="44.47386" lon="6.19142">
        <ele>899</ele>
        <time>2025-11-21T10:21:53.000Z</time>
      </trkpt>
      <trkpt lat="44.47386" lon="6.19142">
        <ele>899</ele>
        <time>2025-11-21T10:21:54.000Z</time>
      </trkpt>
      <trkpt lat="44.47386" lon="6.19142">
        <ele>899</ele>
        <time>2025-11-21T10:21:55.000Z</time>
      </trkpt>
      <trkpt lat="44.47388" lon="6.1914">
        <ele>898</ele>
        <time>2025-11-21T10:21:56.000Z</time>
      </trkpt>
      <trkpt lat="44.47389" lon="6.1914">
        <ele>897</ele>
        <time>2025-11-21T10:21:57.000Z</time>
      </trkpt>
      <trkpt lat="44.47391" lon="6.1914">
        <ele>897</ele>
        <time>2025-11-21T10:21:58.000Z</time>
      </trkpt>
      <trkpt lat="44.47391" lon="6.1914">
        <ele>897</ele>
        <time>2025-11-21T10:21:59.000Z</time>
      </trkpt>
      <trkpt lat="44.47392" lon="6.19139">
        <ele>897</ele>
        <time>2025-11-21T10:22:00.000Z</time>
      </trkpt>
      <trkpt lat="44.47393" lon="6.19138">
        <ele>896</ele>
        <time>2025-11-21T10:22:01.000Z</time>
      </trkpt>
      <trkpt lat="44.47394" lon="6.19138">
        <ele>896</ele>
        <time>2025-11-21T10:22:02.000Z</time>
      </trkpt>
      <trkpt lat="44.47394" lon="6.19138">
        <ele>896</ele>
        <time>2025-11-21T10:22:03.000Z</time>
      </trkpt>
      <trkpt lat="44.47394" lon="6.19138">
        <ele>896</ele>
        <time>2025-11-21T10:22:04.000Z</time>
      </trkpt>
      <trkpt lat="44.47396" lon="6.19136">
        <ele>894</ele>
        <time>2025-11-21T10:22:05.000Z</time>
      </trkpt>
      <trkpt lat="44.47397" lon="6.19135">
        <ele>894</ele>
        <time>2025-11-21T10:22:06.000Z</time>
      </trkpt>
      <trkpt lat="44.47398" lon="6.19134">
        <ele>894</ele>
        <time>2025-11-21T10:22:07.000Z</time>
      </trkpt>
      <trkpt lat="44.47398" lon="6.19134">
        <ele>893</ele>
        <time>2025-11-21T10:22:08.000Z</time>
      </trkpt>
      <trkpt lat="44.47399" lon="6.19133">
        <ele>893</ele>
        <time>2025-11-21T10:22:09.000Z</time>
      </trkpt>
      <trkpt lat="44.47399" lon="6.19133">
        <ele>893</ele>
        <time>2025-11-21T10:22:10.000Z</time>
      </trkpt>
      <trkpt lat="44.47399" lon="6.19132">
        <ele>892</ele>
        <time>2025-11-21T10:22:11.000Z</time>
      </trkpt>
      <trkpt lat="44.474" lon="6.19131">
        <ele>892</ele>
        <time>2025-11-21T10:22:12.000Z</time>
      </trkpt>
      <trkpt lat="44.47401" lon="6.1913">
        <ele>892</ele>
        <time>2025-11-21T10:22:13.000Z</time>
      </trkpt>
      <trkpt lat="44.47402" lon="6.1913">
        <ele>892</ele>
        <time>2025-11-21T10:22:14.000Z</time>
      </trkpt>
      <trkpt lat="44.47403" lon="6.19129">
        <ele>892</ele>
        <time>2025-11-21T10:22:15.000Z</time>
      </trkpt>
      <trkpt lat="44.47403" lon="6.19128">
        <ele>892</ele>
        <time>2025-11-21T10:22:16.000Z</time>
      </trkpt>
      <trkpt lat="44.47404" lon="6.19127">
        <ele>892</ele>
        <time>2025-11-21T10:22:17.000Z</time>
      </trkpt>
      <trkpt lat="44.47405" lon="6.19126">
        <ele>891</ele>
        <time>2025-11-21T10:22:18.000Z</time>
      </trkpt>
      <trkpt lat="44.47407" lon="6.19125">
        <ele>891</ele>
        <time>2025-11-21T10:22:19.000Z</time>
      </trkpt>
      <trkpt lat="44.47407" lon="6.19124">
        <ele>891</ele>
        <time>2025-11-21T10:22:20.000Z</time>
      </trkpt>
      <trkpt lat="44.47408" lon="6.19123">
        <ele>890</ele>
        <time>2025-11-21T10:22:21.000Z</time>
      </trkpt>
      <trkpt lat="44.4741" lon="6.19122">
        <ele>890</ele>
        <time>2025-11-21T10:22:22.000Z</time>
      </trkpt>
      <trkpt lat="44.4741" lon="6.19121">
        <ele>890</ele>
        <time>2025-11-21T10:22:23.000Z</time>
      </trkpt>
      <trkpt lat="44.47411" lon="6.19119">
        <ele>890</ele>
        <time>2025-11-21T10:22:24.000Z</time>
      </trkpt>
      <trkpt lat="44.47413" lon="6.19118">
        <ele>890</ele>
        <time>2025-11-21T10:22:25.000Z</time>
      </trkpt>
      <trkpt lat="44.47414" lon="6.19117">
        <ele>890</ele>
        <time>2025-11-21T10:22:26.000Z</time>
      </trkpt>
      <trkpt lat="44.47415" lon="6.19115">
        <ele>890</ele>
        <time>2025-11-21T10:22:27.000Z</time>
      </trkpt>
      <trkpt lat="44.47415" lon="6.19114">
        <ele>889</ele>
        <time>2025-11-21T10:22:28.000Z</time>
      </trkpt>
      <trkpt lat="44.47415" lon="6.19114">
        <ele>888</ele>
        <time>2025-11-21T10:22:29.000Z</time>
      </trkpt>
      <trkpt lat="44.47416" lon="6.19113">
        <ele>888</ele>
        <time>2025-11-21T10:22:30.000Z</time>
      </trkpt>
      <trkpt lat="44.47416" lon="6.19112">
        <ele>888</ele>
        <time>2025-11-21T10:22:31.000Z</time>
      </trkpt>
      <trkpt lat="44.47417" lon="6.19113">
        <ele>888</ele>
        <time>2025-11-21T10:22:32.000Z</time>
      </trkpt>
      <trkpt lat="44.47417" lon="6.19112">
        <ele>888</ele>
        <time>2025-11-21T10:22:33.000Z</time>
      </trkpt>
      <trkpt lat="44.47418" lon="6.19111">
        <ele>889</ele>
        <time>2025-11-21T10:22:34.000Z</time>
      </trkpt>
      <trkpt lat="44.47419" lon="6.1911">
        <ele>888</ele>
        <time>2025-11-21T10:22:35.000Z</time>
      </trkpt>
      <trkpt lat="44.47419" lon="6.1911">
        <ele>887</ele>
        <time>2025-11-21T10:22:36.000Z</time>
      </trkpt>
      <trkpt lat="44.4742" lon="6.19111">
        <ele>887</ele>
        <time>2025-11-21T10:22:37.000Z</time>
      </trkpt>
      <trkpt lat="44.4742" lon="6.19111">
        <ele>887</ele>
        <time>2025-11-21T10:22:38.000Z</time>
      </trkpt>
      <trkpt lat="44.4742" lon="6.19111">
        <ele>887</ele>
        <time>2025-11-21T10:22:39.000Z</time>
      </trkpt>
      <trkpt lat="44.4742" lon="6.19111">
        <ele>887</ele>
        <time>2025-11-21T10:22:40.000Z</time>
      </trkpt>
      <trkpt lat="44.47423" lon="6.1911">
        <ele>886</ele>
        <time>2025-11-21T10:22:41.000Z</time>
      </trkpt>
      <trkpt lat="44.47424" lon="6.1911">
        <ele>886</ele>
        <time>2025-11-21T10:22:42.000Z</time>
      </trkpt>
      <trkpt lat="44.47425" lon="6.19109">
        <ele>886</ele>
        <time>2025-11-21T10:22:43.000Z</time>
      </trkpt>
      <trkpt lat="44.47426" lon="6.19108">
        <ele>886</ele>
        <time>2025-11-21T10:22:44.000Z</time>
      </trkpt>
      <trkpt lat="44.47427" lon="6.19109">
        <ele>886</ele>
        <time>2025-11-21T10:22:45.000Z</time>
      </trkpt>
      <trkpt lat="44.47428" lon="6.19109">
        <ele>886</ele>
        <time>2025-11-21T10:22:46.000Z</time>
      </trkpt>
      <trkpt lat="44.47429" lon="6.19109">
        <ele>886</ele>
        <time>2025-11-21T10:22:47.000Z</time>
      </trkpt>
      <trkpt lat="44.47438" lon="6.19106">
        <ele>888</ele>
        <time>2025-11-21T10:23:05.000Z</time>
      </trkpt>
      <trkpt lat="44.47439" lon="6.19107">
        <ele>888</ele>
        <time>2025-11-21T10:23:06.000Z</time>
      </trkpt>
      <trkpt lat="44.4744" lon="6.19109">
        <ele>889</ele>
        <time>2025-11-21T10:23:07.000Z</time>
      </trkpt>
      <trkpt lat="44.47442" lon="6.19108">
        <ele>888</ele>
        <time>2025-11-21T10:23:08.000Z</time>
      </trkpt>
      <trkpt lat="44.47443" lon="6.19106">
        <ele>887</ele>
        <time>2025-11-21T10:23:09.000Z</time>
      </trkpt>
      <trkpt lat="44.47445" lon="6.19105">
        <ele>886</ele>
        <time>2025-11-21T10:23:10.000Z</time>
      </trkpt>
      <trkpt lat="44.47445" lon="6.19105">
        <ele>886</ele>
        <time>2025-11-21T10:23:11.000Z</time>
      </trkpt>
      <trkpt lat="44.47445" lon="6.19105">
        <ele>885</ele>
        <time>2025-11-21T10:23:12.000Z</time>
      </trkpt>
      <trkpt lat="44.47446" lon="6.19105">
        <ele>886</ele>
        <time>2025-11-21T10:23:13.000Z</time>
      </trkpt>
      <trkpt lat="44.47448" lon="6.19105">
        <ele>887</ele>
        <time>2025-11-21T10:23:14.000Z</time>
      </trkpt>
      <trkpt lat="44.4745" lon="6.19105">
        <ele>887</ele>
        <time>2025-11-21T10:23:15.000Z</time>
      </trkpt>
      <trkpt lat="44.4745" lon="6.19106">
        <ele>887</ele>
        <time>2025-11-21T10:23:16.000Z</time>
      </trkpt>
      <trkpt lat="44.47451" lon="6.19106">
        <ele>887</ele>
        <time>2025-11-21T10:23:17.000Z</time>
      </trkpt>
      <trkpt lat="44.47452" lon="6.19106">
        <ele>888</ele>
        <time>2025-11-21T10:23:18.000Z</time>
      </trkpt>
      <trkpt lat="44.47453" lon="6.19107">
        <ele>887</ele>
        <time>2025-11-21T10:23:19.000Z</time>
      </trkpt>
      <trkpt lat="44.47454" lon="6.19108">
        <ele>887</ele>
        <time>2025-11-21T10:23:20.000Z</time>
      </trkpt>
      <trkpt lat="44.47454" lon="6.19108">
        <ele>887</ele>
        <time>2025-11-21T10:23:21.000Z</time>
      </trkpt>
      <trkpt lat="44.47455" lon="6.19108">
        <ele>886</ele>
        <time>2025-11-21T10:23:22.000Z</time>
      </trkpt>
      <trkpt lat="44.47457" lon="6.19109">
        <ele>886</ele>
        <time>2025-11-21T10:23:23.000Z</time>
      </trkpt>
      <trkpt lat="44.47457" lon="6.1911">
        <ele>886</ele>
        <time>2025-11-21T10:23:24.000Z</time>
      </trkpt>
      <trkpt lat="44.47458" lon="6.1911">
        <ele>887</ele>
        <time>2025-11-21T10:23:25.000Z</time>
      </trkpt>
      <trkpt lat="44.4746" lon="6.19111">
        <ele>886</ele>
        <time>2025-11-21T10:23:26.000Z</time>
      </trkpt>
      <trkpt lat="44.4746" lon="6.1911">
        <ele>887</ele>
        <time>2025-11-21T10:23:27.000Z</time>
      </trkpt>
      <trkpt lat="44.47461" lon="6.1911">
        <ele>887</ele>
        <time>2025-11-21T10:23:28.000Z</time>
      </trkpt>
      <trkpt lat="44.47462" lon="6.1911">
        <ele>888</ele>
        <time>2025-11-21T10:23:29.000Z</time>
      </trkpt>
      <trkpt lat="44.47463" lon="6.1911">
        <ele>888</ele>
        <time>2025-11-21T10:23:30.000Z</time>
      </trkpt>
      <trkpt lat="44.47464" lon="6.1911">
        <ele>888</ele>
        <time>2025-11-21T10:23:31.000Z</time>
      </trkpt>
      <trkpt lat="44.47465" lon="6.19111">
        <ele>888</ele>
        <time>2025-11-21T10:23:32.000Z</time>
      </trkpt>
      <trkpt lat="44.47465" lon="6.19111">
        <ele>888</ele>
        <time>2025-11-21T10:23:33.000Z</time>
      </trkpt>
      <trkpt lat="44.47466" lon="6.19111">
        <ele>888</ele>
        <time>2025-11-21T10:23:34.000Z</time>
      </trkpt>
      <trkpt lat="44.47467" lon="6.19111">
        <ele>888</ele>
        <time>2025-11-21T10:23:35.000Z</time>
      </trkpt>
      <trkpt lat="44.47468" lon="6.19111">
        <ele>888</ele>
        <time>2025-11-21T10:23:36.000Z</time>
      </trkpt>
      <trkpt lat="44.47469" lon="6.19113">
        <ele>888</ele>
        <time>2025-11-21T10:23:37.000Z</time>
      </trkpt>
      <trkpt lat="44.4747" lon="6.19114">
        <ele>887</ele>
        <time>2025-11-21T10:23:38.000Z</time>
      </trkpt>
      <trkpt lat="44.47471" lon="6.19115">
        <ele>887</ele>
        <time>2025-11-21T10:23:39.000Z</time>
      </trkpt>
      <trkpt lat="44.47471" lon="6.19115">
        <ele>887</ele>
        <time>2025-11-21T10:23:40.000Z</time>
      </trkpt>
      <trkpt lat="44.47472" lon="6.19115">
        <ele>887</ele>
        <time>2025-11-21T10:23:41.000Z</time>
      </trkpt>
      <trkpt lat="44.47472" lon="6.19116">
        <ele>886</ele>
        <time>2025-11-21T10:23:42.000Z</time>
      </trkpt>
      <trkpt lat="44.47474" lon="6.19117">
        <ele>886</ele>
        <time>2025-11-21T10:23:43.000Z</time>
      </trkpt>
      <trkpt lat="44.47474" lon="6.19117">
        <ele>886</ele>
        <time>2025-11-21T10:23:44.000Z</time>
      </trkpt>
      <trkpt lat="44.47475" lon="6.19118">
        <ele>886</ele>
        <time>2025-11-21T10:23:45.000Z</time>
      </trkpt>
      <trkpt lat="44.47476" lon="6.19119">
        <ele>886</ele>
        <time>2025-11-21T10:23:46.000Z</time>
      </trkpt>
      <trkpt lat="44.47477" lon="6.19121">
        <ele>886</ele>
        <time>2025-11-21T10:23:47.000Z</time>
      </trkpt>
      <trkpt lat="44.47478" lon="6.19122">
        <ele>887</ele>
        <time>2025-11-21T10:23:48.000Z</time>
      </trkpt>
      <trkpt lat="44.47479" lon="6.19123">
        <ele>887</ele>
        <time>2025-11-21T10:23:49.000Z</time>
      </trkpt>
      <trkpt lat="44.4748" lon="6.19123">
        <ele>887</ele>
        <time>2025-11-21T10:23:50.000Z</time>
      </trkpt>
      <trkpt lat="44.47481" lon="6.19124">
        <ele>887</ele>
        <time>2025-11-21T10:23:51.000Z</time>
      </trkpt>
      <trkpt lat="44.47481" lon="6.19126">
        <ele>887</ele>
        <time>2025-11-21T10:23:52.000Z</time>
      </trkpt>
      <trkpt lat="44.47481" lon="6.19128">
        <ele>887</ele>
        <time>2025-11-21T10:23:53.000Z</time>
      </trkpt>
      <trkpt lat="44.47482" lon="6.19129">
        <ele>887</ele>
        <time>2025-11-21T10:23:54.000Z</time>
      </trkpt>
      <trkpt lat="44.47482" lon="6.19129">
        <ele>887</ele>
        <time>2025-11-21T10:23:55.000Z</time>
      </trkpt>
      <trkpt lat="44.47483" lon="6.1913">
        <ele>888</ele>
        <time>2025-11-21T10:23:56.000Z</time>
      </trkpt>
      <trkpt lat="44.47483" lon="6.19131">
        <ele>888</ele>
        <time>2025-11-21T10:23:57.000Z</time>
      </trkpt>
      <trkpt lat="44.47484" lon="6.19132">
        <ele>888</ele>
        <time>2025-11-21T10:23:58.000Z</time>
      </trkpt>
      <trkpt lat="44.47485" lon="6.19133">
        <ele>888</ele>
        <time>2025-11-21T10:23:59.000Z</time>
      </trkpt>
      <trkpt lat="44.47486" lon="6.19134">
        <ele>888</ele>
        <time>2025-11-21T10:24:00.000Z</time>
      </trkpt>
      <trkpt lat="44.47486" lon="6.19135">
        <ele>888</ele>
        <time>2025-11-21T10:24:01.000Z</time>
      </trkpt>
      <trkpt lat="44.47487" lon="6.19135">
        <ele>887</ele>
        <time>2025-11-21T10:24:02.000Z</time>
      </trkpt>
      <trkpt lat="44.47489" lon="6.19135">
        <ele>888</ele>
        <time>2025-11-21T10:24:03.000Z</time>
      </trkpt>
      <trkpt lat="44.4749" lon="6.19135">
        <ele>888</ele>
        <time>2025-11-21T10:24:04.000Z</time>
      </trkpt>
      <trkpt lat="44.47491" lon="6.19136">
        <ele>888</ele>
        <time>2025-11-21T10:24:05.000Z</time>
      </trkpt>
      <trkpt lat="44.47491" lon="6.19136">
        <ele>889</ele>
        <time>2025-11-21T10:24:06.000Z</time>
      </trkpt>
      <trkpt lat="44.47492" lon="6.19137">
        <ele>889</ele>
        <time>2025-11-21T10:24:07.000Z</time>
      </trkpt>
      <trkpt lat="44.47493" lon="6.19137">
        <ele>889</ele>
        <time>2025-11-21T10:24:08.000Z</time>
      </trkpt>
      <trkpt lat="44.47494" lon="6.19137">
        <ele>888</ele>
        <time>2025-11-21T10:24:09.000Z</time>
      </trkpt>
      <trkpt lat="44.47493" lon="6.19139">
        <ele>888</ele>
        <time>2025-11-21T10:24:10.000Z</time>
      </trkpt>
      <trkpt lat="44.47494" lon="6.1914">
        <ele>888</ele>
        <time>2025-11-21T10:24:11.000Z</time>
      </trkpt>
      <trkpt lat="44.47492" lon="6.19141">
        <ele>888</ele>
        <time>2025-11-21T10:24:12.000Z</time>
      </trkpt>
      <trkpt lat="44.47491" lon="6.19142">
        <ele>887</ele>
        <time>2025-11-21T10:24:13.000Z</time>
      </trkpt>
      <trkpt lat="44.47491" lon="6.19141">
        <ele>887</ele>
        <time>2025-11-21T10:24:14.000Z</time>
      </trkpt>
      <trkpt lat="44.47492" lon="6.1914">
        <ele>887</ele>
        <time>2025-11-21T10:24:15.000Z</time>
      </trkpt>
      <trkpt lat="44.47492" lon="6.19139">
        <ele>886</ele>
        <time>2025-11-21T10:24:16.000Z</time>
      </trkpt>
      <trkpt lat="44.47492" lon="6.19139">
        <ele>891</ele>
        <time>2025-11-21T10:24:41.000Z</time>
      </trkpt>
      <trkpt lat="44.47493" lon="6.19138">
        <ele>892</ele>
        <time>2025-11-21T10:24:42.000Z</time>
      </trkpt>
      <trkpt lat="44.47494" lon="6.19138">
        <ele>893</ele>
        <time>2025-11-21T10:24:43.000Z</time>
      </trkpt>
      <trkpt lat="44.47494" lon="6.1914">
        <ele>893</ele>
        <time>2025-11-21T10:25:04.000Z</time>
      </trkpt>
      <trkpt lat="44.47493" lon="6.19141">
        <ele>892</ele>
        <time>2025-11-21T10:25:05.000Z</time>
      </trkpt>
      <trkpt lat="44.47494" lon="6.19142">
        <ele>893</ele>
        <time>2025-11-21T10:25:06.000Z</time>
      </trkpt>
      <trkpt lat="44.47495" lon="6.19144">
        <ele>892</ele>
        <time>2025-11-21T10:25:20.000Z</time>
      </trkpt>
      <trkpt lat="44.47496" lon="6.19144">
        <ele>891</ele>
        <time>2025-11-21T10:25:21.000Z</time>
      </trkpt>
      <trkpt lat="44.47496" lon="6.19145">
        <ele>890</ele>
        <time>2025-11-21T10:25:22.000Z</time>
      </trkpt>
      <trkpt lat="44.47497" lon="6.19145">
        <ele>890</ele>
        <time>2025-11-21T10:25:23.000Z</time>
      </trkpt>
      <trkpt lat="44.47497" lon="6.19145">
        <ele>890</ele>
        <time>2025-11-21T10:25:24.000Z</time>
      </trkpt>
      <trkpt lat="44.47497" lon="6.19145">
        <ele>890</ele>
        <time>2025-11-21T10:25:25.000Z</time>
      </trkpt>
      <trkpt lat="44.47498" lon="6.19144">
        <ele>889</ele>
        <time>2025-11-21T10:25:26.000Z</time>
      </trkpt>
      <trkpt lat="44.47497" lon="6.19145">
        <ele>889</ele>
        <time>2025-11-21T10:25:55.000Z</time>
      </trkpt>
      <trkpt lat="44.47497" lon="6.19145">
        <ele>889</ele>
        <time>2025-11-21T10:25:56.000Z</time>
      </trkpt>
      <trkpt lat="44.47496" lon="6.19144">
        <ele>890</ele>
        <time>2025-11-21T10:25:57.000Z</time>
      </trkpt>
      <trkpt lat="44.47494" lon="6.19145">
        <ele>891</ele>
        <time>2025-11-21T10:26:12.000Z</time>
      </trkpt>
      <trkpt lat="44.47494" lon="6.19144">
        <ele>891</ele>
        <time>2025-11-21T10:26:13.000Z</time>
      </trkpt>
      <trkpt lat="44.47493" lon="6.19145">
        <ele>891</ele>
        <time>2025-11-21T10:26:14.000Z</time>
      </trkpt>
      <trkpt lat="44.47492" lon="6.19145">
        <ele>891</ele>
        <time>2025-11-21T10:26:15.000Z</time>
      </trkpt>
      <trkpt lat="44.47491" lon="6.19145">
        <ele>891</ele>
        <time>2025-11-21T10:26:16.000Z</time>
      </trkpt>
      <trkpt lat="44.47491" lon="6.19145">
        <ele>891</ele>
        <time>2025-11-21T10:26:17.000Z</time>
      </trkpt>
      <trkpt lat="44.4749" lon="6.19146">
        <ele>891</ele>
        <time>2025-11-21T10:26:18.000Z</time>
      </trkpt>
      <trkpt lat="44.47489" lon="6.19146">
        <ele>891</ele>
        <time>2025-11-21T10:26:19.000Z</time>
      </trkpt>
      <trkpt lat="44.47488" lon="6.19147">
        <ele>892</ele>
        <time>2025-11-21T10:26:20.000Z</time>
      </trkpt>
      <trkpt lat="44.47487" lon="6.19147">
        <ele>892</ele>
        <time>2025-11-21T10:26:21.000Z</time>
      </trkpt>
      <trkpt lat="44.47486" lon="6.19147">
        <ele>892</ele>
        <time>2025-11-21T10:26:22.000Z</time>
      </trkpt>
      <trkpt lat="44.47486" lon="6.19147">
        <ele>892</ele>
        <time>2025-11-21T10:26:23.000Z</time>
      </trkpt>
      <trkpt lat="44.47484" lon="6.19148">
        <ele>892</ele>
        <time>2025-11-21T10:26:24.000Z</time>
      </trkpt>
      <trkpt lat="44.47484" lon="6.19148">
        <ele>893</ele>
        <time>2025-11-21T10:26:25.000Z</time>
      </trkpt>
      <trkpt lat="44.47483" lon="6.19148">
        <ele>893</ele>
        <time>2025-11-21T10:26:26.000Z</time>
      </trkpt>
      <trkpt lat="44.47482" lon="6.19148">
        <ele>893</ele>
        <time>2025-11-21T10:26:27.000Z</time>
      </trkpt>
      <trkpt lat="44.47481" lon="6.19148">
        <ele>893</ele>
        <time>2025-11-21T10:26:28.000Z</time>
      </trkpt>
      <trkpt lat="44.47481" lon="6.19149">
        <ele>893</ele>
        <time>2025-11-21T10:26:29.000Z</time>
      </trkpt>
      <trkpt lat="44.4748" lon="6.1915">
        <ele>893</ele>
        <time>2025-11-21T10:26:30.000Z</time>
      </trkpt>
      <trkpt lat="44.47479" lon="6.1915">
        <ele>894</ele>
        <time>2025-11-21T10:26:31.000Z</time>
      </trkpt>
      <trkpt lat="44.47479" lon="6.19151">
        <ele>894</ele>
        <time>2025-11-21T10:26:32.000Z</time>
      </trkpt>
      <trkpt lat="44.47478" lon="6.19151">
        <ele>894</ele>
        <time>2025-11-21T10:26:33.000Z</time>
      </trkpt>
      <trkpt lat="44.47478" lon="6.19152">
        <ele>893</ele>
        <time>2025-11-21T10:26:34.000Z</time>
      </trkpt>
      <trkpt lat="44.47478" lon="6.19152">
        <ele>893</ele>
        <time>2025-11-21T10:26:35.000Z</time>
      </trkpt>
      <trkpt lat="44.47478" lon="6.19152">
        <ele>894</ele>
        <time>2025-11-21T10:26:36.000Z</time>
      </trkpt>
      <trkpt lat="44.47477" lon="6.19153">
        <ele>894</ele>
        <time>2025-11-21T10:26:37.000Z</time>
      </trkpt>
      <trkpt lat="44.47477" lon="6.19153">
        <ele>894</ele>
        <time>2025-11-21T10:26:38.000Z</time>
      </trkpt>
      <trkpt lat="44.47477" lon="6.19153">
        <ele>894</ele>
        <time>2025-11-21T10:26:39.000Z</time>
      </trkpt>
      <trkpt lat="44.47476" lon="6.19156">
        <ele>894</ele>
        <time>2025-11-21T10:26:40.000Z</time>
      </trkpt>
      <trkpt lat="44.47476" lon="6.19157">
        <ele>894</ele>
        <time>2025-11-21T10:26:41.000Z</time>
      </trkpt>
      <trkpt lat="44.47476" lon="6.19158">
        <ele>894</ele>
        <time>2025-11-21T10:26:42.000Z</time>
      </trkpt>
      <trkpt lat="44.47477" lon="6.19159">
        <ele>894</ele>
        <time>2025-11-21T10:26:43.000Z</time>
      </trkpt>
      <trkpt lat="44.47478" lon="6.1916">
        <ele>894</ele>
        <time>2025-11-21T10:26:44.000Z</time>
      </trkpt>
      <trkpt lat="44.47477" lon="6.19162">
        <ele>894</ele>
        <time>2025-11-21T10:26:45.000Z</time>
      </trkpt>
      <trkpt lat="44.47477" lon="6.19163">
        <ele>894</ele>
        <time>2025-11-21T10:26:46.000Z</time>
      </trkpt>
      <trkpt lat="44.47478" lon="6.19165">
        <ele>893</ele>
        <time>2025-11-21T10:26:47.000Z</time>
      </trkpt>
      <trkpt lat="44.47478" lon="6.19167">
        <ele>893</ele>
        <time>2025-11-21T10:26:48.000Z</time>
      </trkpt>
      <trkpt lat="44.47478" lon="6.19169">
        <ele>893</ele>
        <time>2025-11-21T10:26:49.000Z</time>
      </trkpt>
      <trkpt lat="44.47479" lon="6.19171">
        <ele>893</ele>
        <time>2025-11-21T10:26:50.000Z</time>
      </trkpt>
      <trkpt lat="44.47479" lon="6.19171">
        <ele>893</ele>
        <time>2025-11-21T10:26:51.000Z</time>
      </trkpt>
      <trkpt lat="44.47479" lon="6.19172">
        <ele>893</ele>
        <time>2025-11-21T10:26:52.000Z</time>
      </trkpt>
      <trkpt lat="44.47479" lon="6.19173">
        <ele>893</ele>
        <time>2025-11-21T10:26:53.000Z</time>
      </trkpt>
      <trkpt lat="44.47479" lon="6.19174">
        <ele>893</ele>
        <time>2025-11-21T10:26:54.000Z</time>
      </trkpt>
      <trkpt lat="44.4748" lon="6.19175">
        <ele>893</ele>
        <time>2025-11-21T10:26:55.000Z</time>
      </trkpt>
      <trkpt lat="44.4748" lon="6.19175">
        <ele>894</ele>
        <time>2025-11-21T10:26:56.000Z</time>
      </trkpt>
      <trkpt lat="44.4748" lon="6.19175">
        <ele>893</ele>
        <time>2025-11-21T10:26:57.000Z</time>
      </trkpt>
      <trkpt lat="44.47481" lon="6.19177">
        <ele>893</ele>
        <time>2025-11-21T10:26:58.000Z</time>
      </trkpt>
      <trkpt lat="44.47481" lon="6.19178">
        <ele>893</ele>
        <time>2025-11-21T10:26:59.000Z</time>
      </trkpt>
      <trkpt lat="44.47481" lon="6.19179">
        <ele>893</ele>
        <time>2025-11-21T10:27:00.000Z</time>
      </trkpt>
      <trkpt lat="44.47482" lon="6.1918">
        <ele>893</ele>
        <time>2025-11-21T10:27:01.000Z</time>
      </trkpt>
      <trkpt lat="44.47482" lon="6.19181">
        <ele>893</ele>
        <time>2025-11-21T10:27:02.000Z</time>
      </trkpt>
      <trkpt lat="44.47483" lon="6.19182">
        <ele>892</ele>
        <time>2025-11-21T10:27:03.000Z</time>
      </trkpt>
      <trkpt lat="44.47484" lon="6.19182">
        <ele>891</ele>
        <time>2025-11-21T10:27:04.000Z</time>
      </trkpt>
      <trkpt lat="44.47485" lon="6.19183">
        <ele>891</ele>
        <time>2025-11-21T10:27:05.000Z</time>
      </trkpt>
      <trkpt lat="44.47485" lon="6.19185">
        <ele>891</ele>
        <time>2025-11-21T10:27:06.000Z</time>
      </trkpt>
      <trkpt lat="44.47485" lon="6.19185">
        <ele>892</ele>
        <time>2025-11-21T10:27:07.000Z</time>
      </trkpt>
      <trkpt lat="44.47485" lon="6.19187">
        <ele>892</ele>
        <time>2025-11-21T10:27:08.000Z</time>
      </trkpt>
      <trkpt lat="44.47486" lon="6.19187">
        <ele>893</ele>
        <time>2025-11-21T10:27:09.000Z</time>
      </trkpt>
      <trkpt lat="44.47486" lon="6.19188">
        <ele>893</ele>
        <time>2025-11-21T10:27:10.000Z</time>
      </trkpt>
      <trkpt lat="44.47487" lon="6.19188">
        <ele>893</ele>
        <time>2025-11-21T10:27:11.000Z</time>
      </trkpt>
      <trkpt lat="44.47488" lon="6.19189">
        <ele>894</ele>
        <time>2025-11-21T10:27:12.000Z</time>
      </trkpt>
      <trkpt lat="44.47488" lon="6.1919">
        <ele>894</ele>
        <time>2025-11-21T10:27:13.000Z</time>
      </trkpt>
      <trkpt lat="44.47488" lon="6.19191">
        <ele>894</ele>
        <time>2025-11-21T10:27:14.000Z</time>
      </trkpt>
      <trkpt lat="44.47489" lon="6.19192">
        <ele>894</ele>
        <time>2025-11-21T10:27:15.000Z</time>
      </trkpt>
      <trkpt lat="44.4749" lon="6.19192">
        <ele>895</ele>
        <time>2025-11-21T10:27:16.000Z</time>
      </trkpt>
      <trkpt lat="44.4749" lon="6.19192">
        <ele>895</ele>
        <time>2025-11-21T10:27:17.000Z</time>
      </trkpt>
      <trkpt lat="44.4749" lon="6.19192">
        <ele>895</ele>
        <time>2025-11-21T10:27:18.000Z</time>
      </trkpt>
      <trkpt lat="44.4749" lon="6.19192">
        <ele>895</ele>
        <time>2025-11-21T10:27:19.000Z</time>
      </trkpt>
      <trkpt lat="44.47491" lon="6.19195">
        <ele>896</ele>
        <time>2025-11-21T10:27:20.000Z</time>
      </trkpt>
      <trkpt lat="44.47492" lon="6.19196">
        <ele>896</ele>
        <time>2025-11-21T10:27:21.000Z</time>
      </trkpt>
      <trkpt lat="44.47492" lon="6.19196">
        <ele>896</ele>
        <time>2025-11-21T10:27:22.000Z</time>
      </trkpt>
      <trkpt lat="44.47492" lon="6.19197">
        <ele>895</ele>
        <time>2025-11-21T10:27:23.000Z</time>
      </trkpt>
      <trkpt lat="44.47493" lon="6.19198">
        <ele>895</ele>
        <time>2025-11-21T10:27:24.000Z</time>
      </trkpt>
      <trkpt lat="44.47493" lon="6.19198">
        <ele>895</ele>
        <time>2025-11-21T10:27:25.000Z</time>
      </trkpt>
      <trkpt lat="44.47493" lon="6.19198">
        <ele>895</ele>
        <time>2025-11-21T10:27:26.000Z</time>
      </trkpt>
      <trkpt lat="44.47494" lon="6.192">
        <ele>896</ele>
        <time>2025-11-21T10:27:27.000Z</time>
      </trkpt>
      <trkpt lat="44.47494" lon="6.19202">
        <ele>896</ele>
        <time>2025-11-21T10:27:28.000Z</time>
      </trkpt>
      <trkpt lat="44.47495" lon="6.19202">
        <ele>896</ele>
        <time>2025-11-21T10:27:29.000Z</time>
      </trkpt>
      <trkpt lat="44.47495" lon="6.19203">
        <ele>895</ele>
        <time>2025-11-21T10:27:30.000Z</time>
      </trkpt>
      <trkpt lat="44.47495" lon="6.19203">
        <ele>895</ele>
        <time>2025-11-21T10:27:31.000Z</time>
      </trkpt>
      <trkpt lat="44.47495" lon="6.19204">
        <ele>895</ele>
        <time>2025-11-21T10:27:32.000Z</time>
      </trkpt>
      <trkpt lat="44.47496" lon="6.19204">
        <ele>895</ele>
        <time>2025-11-21T10:27:33.000Z</time>
      </trkpt>
      <trkpt lat="44.47496" lon="6.19204">
        <ele>895</ele>
        <time>2025-11-21T10:27:34.000Z</time>
      </trkpt>
      <trkpt lat="44.47495" lon="6.19206">
        <ele>895</ele>
        <time>2025-11-21T10:27:35.000Z</time>
      </trkpt>
      <trkpt lat="44.47495" lon="6.19207">
        <ele>896</ele>
        <time>2025-11-21T10:27:36.000Z</time>
      </trkpt>
      <trkpt lat="44.47495" lon="6.19209">
        <ele>896</ele>
        <time>2025-11-21T10:27:37.000Z</time>
      </trkpt>
      <trkpt lat="44.47496" lon="6.19209">
        <ele>896</ele>
        <time>2025-11-21T10:27:38.000Z</time>
      </trkpt>
      <trkpt lat="44.47496" lon="6.19209">
        <ele>897</ele>
        <time>2025-11-21T10:27:39.000Z</time>
      </trkpt>
      <trkpt lat="44.47497" lon="6.1921">
        <ele>897</ele>
        <time>2025-11-21T10:27:40.000Z</time>
      </trkpt>
      <trkpt lat="44.47498" lon="6.19211">
        <ele>897</ele>
        <time>2025-11-21T10:27:41.000Z</time>
      </trkpt>
      <trkpt lat="44.47498" lon="6.19211">
        <ele>897</ele>
        <time>2025-11-21T10:27:42.000Z</time>
      </trkpt>
      <trkpt lat="44.47499" lon="6.19212">
        <ele>896</ele>
        <time>2025-11-21T10:27:43.000Z</time>
      </trkpt>
      <trkpt lat="44.475" lon="6.19213">
        <ele>896</ele>
        <time>2025-11-21T10:27:44.000Z</time>
      </trkpt>
      <trkpt lat="44.47501" lon="6.19213">
        <ele>896</ele>
        <time>2025-11-21T10:27:45.000Z</time>
      </trkpt>
      <trkpt lat="44.47502" lon="6.19214">
        <ele>896</ele>
        <time>2025-11-21T10:27:46.000Z</time>
      </trkpt>
      <trkpt lat="44.47503" lon="6.19215">
        <ele>897</ele>
        <time>2025-11-21T10:27:47.000Z</time>
      </trkpt>
      <trkpt lat="44.47503" lon="6.19215">
        <ele>897</ele>
        <time>2025-11-21T10:27:48.000Z</time>
      </trkpt>
      <trkpt lat="44.47503" lon="6.19215">
        <ele>897</ele>
        <time>2025-11-21T10:27:49.000Z</time>
      </trkpt>
      <trkpt lat="44.47505" lon="6.19216">
        <ele>897</ele>
        <time>2025-11-21T10:27:50.000Z</time>
      </trkpt>
      <trkpt lat="44.47506" lon="6.19217">
        <ele>897</ele>
        <time>2025-11-21T10:27:51.000Z</time>
      </trkpt>
      <trkpt lat="44.47506" lon="6.19217">
        <ele>897</ele>
        <time>2025-11-21T10:27:52.000Z</time>
      </trkpt>
      <trkpt lat="44.47507" lon="6.19217">
        <ele>898</ele>
        <time>2025-11-21T10:27:53.000Z</time>
      </trkpt>
      <trkpt lat="44.47508" lon="6.19218">
        <ele>898</ele>
        <time>2025-11-21T10:27:54.000Z</time>
      </trkpt>
      <trkpt lat="44.47508" lon="6.19219">
        <ele>897</ele>
        <time>2025-11-21T10:27:55.000Z</time>
      </trkpt>
      <trkpt lat="44.47509" lon="6.1922">
        <ele>897</ele>
        <time>2025-11-21T10:27:56.000Z</time>
      </trkpt>
      <trkpt lat="44.4751" lon="6.19221">
        <ele>897</ele>
        <time>2025-11-21T10:27:57.000Z</time>
      </trkpt>
      <trkpt lat="44.47511" lon="6.19222">
        <ele>897</ele>
        <time>2025-11-21T10:27:58.000Z</time>
      </trkpt>
      <trkpt lat="44.47512" lon="6.19224">
        <ele>897</ele>
        <time>2025-11-21T10:27:59.000Z</time>
      </trkpt>
      <trkpt lat="44.47512" lon="6.19225">
        <ele>897</ele>
        <time>2025-11-21T10:28:00.000Z</time>
      </trkpt>
      <trkpt lat="44.47513" lon="6.19226">
        <ele>898</ele>
        <time>2025-11-21T10:28:01.000Z</time>
      </trkpt>
      <trkpt lat="44.47514" lon="6.19226">
        <ele>898</ele>
        <time>2025-11-21T10:28:02.000Z</time>
      </trkpt>
      <trkpt lat="44.47514" lon="6.19226">
        <ele>898</ele>
        <time>2025-11-21T10:28:03.000Z</time>
      </trkpt>
      <trkpt lat="44.47515" lon="6.19226">
        <ele>898</ele>
        <time>2025-11-21T10:28:04.000Z</time>
      </trkpt>
      <trkpt lat="44.47515" lon="6.19226">
        <ele>898</ele>
        <time>2025-11-21T10:28:05.000Z</time>
      </trkpt>
      <trkpt lat="44.47516" lon="6.19227">
        <ele>898</ele>
        <time>2025-11-21T10:28:06.000Z</time>
      </trkpt>
      <trkpt lat="44.47517" lon="6.19227">
        <ele>899</ele>
        <time>2025-11-21T10:28:07.000Z</time>
      </trkpt>
      <trkpt lat="44.47518" lon="6.19228">
        <ele>899</ele>
        <time>2025-11-21T10:28:08.000Z</time>
      </trkpt>
      <trkpt lat="44.47518" lon="6.19229">
        <ele>898</ele>
        <time>2025-11-21T10:28:09.000Z</time>
      </trkpt>
      <trkpt lat="44.47518" lon="6.1923">
        <ele>899</ele>
        <time>2025-11-21T10:28:10.000Z</time>
      </trkpt>
      <trkpt lat="44.47519" lon="6.1923">
        <ele>899</ele>
        <time>2025-11-21T10:28:11.000Z</time>
      </trkpt>
      <trkpt lat="44.47518" lon="6.19231">
        <ele>899</ele>
        <time>2025-11-21T10:28:12.000Z</time>
      </trkpt>
      <trkpt lat="44.47518" lon="6.19232">
        <ele>898</ele>
        <time>2025-11-21T10:28:13.000Z</time>
      </trkpt>
      <trkpt lat="44.47519" lon="6.19232">
        <ele>899</ele>
        <time>2025-11-21T10:28:14.000Z</time>
      </trkpt>
      <trkpt lat="44.4752" lon="6.19233">
        <ele>899</ele>
        <time>2025-11-21T10:28:15.000Z</time>
      </trkpt>
      <trkpt lat="44.4752" lon="6.19234">
        <ele>899</ele>
        <time>2025-11-21T10:28:16.000Z</time>
      </trkpt>
      <trkpt lat="44.47521" lon="6.19235">
        <ele>899</ele>
        <time>2025-11-21T10:28:17.000Z</time>
      </trkpt>
      <trkpt lat="44.47521" lon="6.19235">
        <ele>899</ele>
        <time>2025-11-21T10:28:18.000Z</time>
      </trkpt>
      <trkpt lat="44.47522" lon="6.19235">
        <ele>898</ele>
        <time>2025-11-21T10:28:19.000Z</time>
      </trkpt>
      <trkpt lat="44.47522" lon="6.19236">
        <ele>898</ele>
        <time>2025-11-21T10:28:20.000Z</time>
      </trkpt>
      <trkpt lat="44.47522" lon="6.19236">
        <ele>899</ele>
        <time>2025-11-21T10:28:21.000Z</time>
      </trkpt>
      <trkpt lat="44.47523" lon="6.19238">
        <ele>899</ele>
        <time>2025-11-21T10:28:22.000Z</time>
      </trkpt>
      <trkpt lat="44.47523" lon="6.19238">
        <ele>899</ele>
        <time>2025-11-21T10:28:23.000Z</time>
      </trkpt>
      <trkpt lat="44.47524" lon="6.19239">
        <ele>899</ele>
        <time>2025-11-21T10:28:24.000Z</time>
      </trkpt>
      <trkpt lat="44.47524" lon="6.1924">
        <ele>898</ele>
        <time>2025-11-21T10:28:25.000Z</time>
      </trkpt>
      <trkpt lat="44.47525" lon="6.1924">
        <ele>899</ele>
        <time>2025-11-21T10:28:26.000Z</time>
      </trkpt>
      <trkpt lat="44.47525" lon="6.19241">
        <ele>899</ele>
        <time>2025-11-21T10:28:27.000Z</time>
      </trkpt>
      <trkpt lat="44.47527" lon="6.19241">
        <ele>900</ele>
        <time>2025-11-21T10:28:28.000Z</time>
      </trkpt>
      <trkpt lat="44.47528" lon="6.19242">
        <ele>900</ele>
        <time>2025-11-21T10:28:29.000Z</time>
      </trkpt>
      <trkpt lat="44.47529" lon="6.19243">
        <ele>900</ele>
        <time>2025-11-21T10:28:30.000Z</time>
      </trkpt>
      <trkpt lat="44.4753" lon="6.19244">
        <ele>900</ele>
        <time>2025-11-21T10:28:31.000Z</time>
      </trkpt>
      <trkpt lat="44.47531" lon="6.19244">
        <ele>899</ele>
        <time>2025-11-21T10:28:32.000Z</time>
      </trkpt>
      <trkpt lat="44.47532" lon="6.19244">
        <ele>900</ele>
        <time>2025-11-21T10:28:33.000Z</time>
      </trkpt>
      <trkpt lat="44.47533" lon="6.19245">
        <ele>899</ele>
        <time>2025-11-21T10:28:34.000Z</time>
      </trkpt>
      <trkpt lat="44.47533" lon="6.19246">
        <ele>900</ele>
        <time>2025-11-21T10:28:35.000Z</time>
      </trkpt>
      <trkpt lat="44.47534" lon="6.19247">
        <ele>900</ele>
        <time>2025-11-21T10:28:36.000Z</time>
      </trkpt>
      <trkpt lat="44.47535" lon="6.19248">
        <ele>900</ele>
        <time>2025-11-21T10:28:37.000Z</time>
      </trkpt>
      <trkpt lat="44.47537" lon="6.19248">
        <ele>900</ele>
        <time>2025-11-21T10:28:38.000Z</time>
      </trkpt>
      <trkpt lat="44.47538" lon="6.19249">
        <ele>900</ele>
        <time>2025-11-21T10:28:39.000Z</time>
      </trkpt>
      <trkpt lat="44.47539" lon="6.1925">
        <ele>901</ele>
        <time>2025-11-21T10:28:40.000Z</time>
      </trkpt>
      <trkpt lat="44.4754" lon="6.19251">
        <ele>901</ele>
        <time>2025-11-21T10:28:41.000Z</time>
      </trkpt>
      <trkpt lat="44.47541" lon="6.19252">
        <ele>902</ele>
        <time>2025-11-21T10:28:42.000Z</time>
      </trkpt>
      <trkpt lat="44.47542" lon="6.19253">
        <ele>902</ele>
        <time>2025-11-21T10:28:43.000Z</time>
      </trkpt>
      <trkpt lat="44.47542" lon="6.19254">
        <ele>902</ele>
        <time>2025-11-21T10:28:44.000Z</time>
      </trkpt>
      <trkpt lat="44.47543" lon="6.19255">
        <ele>903</ele>
        <time>2025-11-21T10:28:45.000Z</time>
      </trkpt>
      <trkpt lat="44.47544" lon="6.19256">
        <ele>902</ele>
        <time>2025-11-21T10:28:46.000Z</time>
      </trkpt>
      <trkpt lat="44.47544" lon="6.19257">
        <ele>903</ele>
        <time>2025-11-21T10:28:47.000Z</time>
      </trkpt>
      <trkpt lat="44.47545" lon="6.19257">
        <ele>902</ele>
        <time>2025-11-21T10:28:48.000Z</time>
      </trkpt>
      <trkpt lat="44.47546" lon="6.19258">
        <ele>902</ele>
        <time>2025-11-21T10:28:49.000Z</time>
      </trkpt>
      <trkpt lat="44.47546" lon="6.19259">
        <ele>902</ele>
        <time>2025-11-21T10:28:50.000Z</time>
      </trkpt>
      <trkpt lat="44.47547" lon="6.1926">
        <ele>903</ele>
        <time>2025-11-21T10:28:51.000Z</time>
      </trkpt>
      <trkpt lat="44.47548" lon="6.19262">
        <ele>902</ele>
        <time>2025-11-21T10:28:52.000Z</time>
      </trkpt>
      <trkpt lat="44.47548" lon="6.19263">
        <ele>903</ele>
        <time>2025-11-21T10:28:53.000Z</time>
      </trkpt>
      <trkpt lat="44.47548" lon="6.19264">
        <ele>903</ele>
        <time>2025-11-21T10:28:54.000Z</time>
      </trkpt>
      <trkpt lat="44.47549" lon="6.19263">
        <ele>903</ele>
        <time>2025-11-21T10:28:55.000Z</time>
      </trkpt>
      <trkpt lat="44.47549" lon="6.19264">
        <ele>903</ele>
        <time>2025-11-21T10:28:56.000Z</time>
      </trkpt>
      <trkpt lat="44.47549" lon="6.19266">
        <ele>903</ele>
        <time>2025-11-21T10:28:57.000Z</time>
      </trkpt>
      <trkpt lat="44.4755" lon="6.19267">
        <ele>903</ele>
        <time>2025-11-21T10:28:58.000Z</time>
      </trkpt>
      <trkpt lat="44.47551" lon="6.19269">
        <ele>903</ele>
        <time>2025-11-21T10:28:59.000Z</time>
      </trkpt>
      <trkpt lat="44.47552" lon="6.19271">
        <ele>904</ele>
        <time>2025-11-21T10:29:00.000Z</time>
      </trkpt>
      <trkpt lat="44.47553" lon="6.19272">
        <ele>904</ele>
        <time>2025-11-21T10:29:01.000Z</time>
      </trkpt>
      <trkpt lat="44.47553" lon="6.19273">
        <ele>905</ele>
        <time>2025-11-21T10:29:02.000Z</time>
      </trkpt>
      <trkpt lat="44.47554" lon="6.19274">
        <ele>905</ele>
        <time>2025-11-21T10:29:03.000Z</time>
      </trkpt>
      <trkpt lat="44.47555" lon="6.19275">
        <ele>905</ele>
        <time>2025-11-21T10:29:04.000Z</time>
      </trkpt>
      <trkpt lat="44.47556" lon="6.19277">
        <ele>906</ele>
        <time>2025-11-21T10:29:05.000Z</time>
      </trkpt>
      <trkpt lat="44.47556" lon="6.19277">
        <ele>906</ele>
        <time>2025-11-21T10:29:06.000Z</time>
      </trkpt>
      <trkpt lat="44.47558" lon="6.19278">
        <ele>907</ele>
        <time>2025-11-21T10:29:07.000Z</time>
      </trkpt>
      <trkpt lat="44.47558" lon="6.19279">
        <ele>907</ele>
        <time>2025-11-21T10:29:08.000Z</time>
      </trkpt>
      <trkpt lat="44.47558" lon="6.19279">
        <ele>907</ele>
        <time>2025-11-21T10:29:09.000Z</time>
      </trkpt>
      <trkpt lat="44.47558" lon="6.19279">
        <ele>907</ele>
        <time>2025-11-21T10:29:10.000Z</time>
      </trkpt>
      <trkpt lat="44.4756" lon="6.1928">
        <ele>907</ele>
        <time>2025-11-21T10:29:11.000Z</time>
      </trkpt>
      <trkpt lat="44.47561" lon="6.19281">
        <ele>908</ele>
        <time>2025-11-21T10:29:12.000Z</time>
      </trkpt>
      <trkpt lat="44.47562" lon="6.19281">
        <ele>909</ele>
        <time>2025-11-21T10:29:13.000Z</time>
      </trkpt>
      <trkpt lat="44.47563" lon="6.19282">
        <ele>909</ele>
        <time>2025-11-21T10:29:14.000Z</time>
      </trkpt>
      <trkpt lat="44.47563" lon="6.19283">
        <ele>909</ele>
        <time>2025-11-21T10:29:15.000Z</time>
      </trkpt>
      <trkpt lat="44.47564" lon="6.19283">
        <ele>908</ele>
        <time>2025-11-21T10:29:16.000Z</time>
      </trkpt>
      <trkpt lat="44.47565" lon="6.19284">
        <ele>908</ele>
        <time>2025-11-21T10:29:17.000Z</time>
      </trkpt>
      <trkpt lat="44.47564" lon="6.19285">
        <ele>908</ele>
        <time>2025-11-21T10:29:18.000Z</time>
      </trkpt>
      <trkpt lat="44.47565" lon="6.19286">
        <ele>908</ele>
        <time>2025-11-21T10:29:19.000Z</time>
      </trkpt>
      <trkpt lat="44.47565" lon="6.19287">
        <ele>908</ele>
        <time>2025-11-21T10:29:20.000Z</time>
      </trkpt>
      <trkpt lat="44.47566" lon="6.19287">
        <ele>908</ele>
        <time>2025-11-21T10:29:21.000Z</time>
      </trkpt>
      <trkpt lat="44.47566" lon="6.19288">
        <ele>908</ele>
        <time>2025-11-21T10:29:22.000Z</time>
      </trkpt>
      <trkpt lat="44.47567" lon="6.19289">
        <ele>908</ele>
        <time>2025-11-21T10:29:23.000Z</time>
      </trkpt>
      <trkpt lat="44.47568" lon="6.19289">
        <ele>909</ele>
        <time>2025-11-21T10:29:24.000Z</time>
      </trkpt>
      <trkpt lat="44.47568" lon="6.1929">
        <ele>909</ele>
        <time>2025-11-21T10:29:25.000Z</time>
      </trkpt>
      <trkpt lat="44.47569" lon="6.19292">
        <ele>909</ele>
        <time>2025-11-21T10:29:26.000Z</time>
      </trkpt>
      <trkpt lat="44.47569" lon="6.19292">
        <ele>909</ele>
        <time>2025-11-21T10:29:27.000Z</time>
      </trkpt>
      <trkpt lat="44.4757" lon="6.19294">
        <ele>909</ele>
        <time>2025-11-21T10:29:28.000Z</time>
      </trkpt>
      <trkpt lat="44.4757" lon="6.19295">
        <ele>909</ele>
        <time>2025-11-21T10:29:29.000Z</time>
      </trkpt>
      <trkpt lat="44.4757" lon="6.19296">
        <ele>908</ele>
        <time>2025-11-21T10:29:30.000Z</time>
      </trkpt>
      <trkpt lat="44.47571" lon="6.19297">
        <ele>908</ele>
        <time>2025-11-21T10:29:31.000Z</time>
      </trkpt>
      <trkpt lat="44.47572" lon="6.19296">
        <ele>908</ele>
        <time>2025-11-21T10:29:32.000Z</time>
      </trkpt>
      <trkpt lat="44.47573" lon="6.19297">
        <ele>908</ele>
        <time>2025-11-21T10:29:33.000Z</time>
      </trkpt>
      <trkpt lat="44.47574" lon="6.19297">
        <ele>908</ele>
        <time>2025-11-21T10:29:34.000Z</time>
      </trkpt>
      <trkpt lat="44.47575" lon="6.19297">
        <ele>909</ele>
        <time>2025-11-21T10:29:35.000Z</time>
      </trkpt>
      <trkpt lat="44.47575" lon="6.19298">
        <ele>909</ele>
        <time>2025-11-21T10:29:36.000Z</time>
      </trkpt>
      <trkpt lat="44.47576" lon="6.19299">
        <ele>909</ele>
        <time>2025-11-21T10:29:37.000Z</time>
      </trkpt>
      <trkpt lat="44.47577" lon="6.19299">
        <ele>909</ele>
        <time>2025-11-21T10:29:38.000Z</time>
      </trkpt>
      <trkpt lat="44.47579" lon="6.193">
        <ele>909</ele>
        <time>2025-11-21T10:29:39.000Z</time>
      </trkpt>
      <trkpt lat="44.4758" lon="6.19301">
        <ele>909</ele>
        <time>2025-11-21T10:29:40.000Z</time>
      </trkpt>
      <trkpt lat="44.47581" lon="6.19302">
        <ele>909</ele>
        <time>2025-11-21T10:29:41.000Z</time>
      </trkpt>
      <trkpt lat="44.47581" lon="6.19303">
        <ele>908</ele>
        <time>2025-11-21T10:29:42.000Z</time>
      </trkpt>
      <trkpt lat="44.47582" lon="6.19304">
        <ele>908</ele>
        <time>2025-11-21T10:29:43.000Z</time>
      </trkpt>
      <trkpt lat="44.47583" lon="6.19304">
        <ele>907</ele>
        <time>2025-11-21T10:29:44.000Z</time>
      </trkpt>
      <trkpt lat="44.47583" lon="6.19304">
        <ele>907</ele>
        <time>2025-11-21T10:29:45.000Z</time>
      </trkpt>
      <trkpt lat="44.47585" lon="6.19305">
        <ele>908</ele>
        <time>2025-11-21T10:29:46.000Z</time>
      </trkpt>
      <trkpt lat="44.47585" lon="6.19306">
        <ele>909</ele>
        <time>2025-11-21T10:29:47.000Z</time>
      </trkpt>
      <trkpt lat="44.47586" lon="6.19306">
        <ele>909</ele>
        <time>2025-11-21T10:29:48.000Z</time>
      </trkpt>
      <trkpt lat="44.47588" lon="6.19308">
        <ele>909</ele>
        <time>2025-11-21T10:29:49.000Z</time>
      </trkpt>
      <trkpt lat="44.47589" lon="6.19309">
        <ele>909</ele>
        <time>2025-11-21T10:29:50.000Z</time>
      </trkpt>
      <trkpt lat="44.47589" lon="6.1931">
        <ele>909</ele>
        <time>2025-11-21T10:29:51.000Z</time>
      </trkpt>
      <trkpt lat="44.4759" lon="6.19311">
        <ele>909</ele>
        <time>2025-11-21T10:29:52.000Z</time>
      </trkpt>
      <trkpt lat="44.47591" lon="6.19312">
        <ele>909</ele>
        <time>2025-11-21T10:29:53.000Z</time>
      </trkpt>
      <trkpt lat="44.47591" lon="6.19312">
        <ele>909</ele>
        <time>2025-11-21T10:29:54.000Z</time>
      </trkpt>
      <trkpt lat="44.47592" lon="6.19313">
        <ele>909</ele>
        <time>2025-11-21T10:29:55.000Z</time>
      </trkpt>
      <trkpt lat="44.47593" lon="6.19314">
        <ele>909</ele>
        <time>2025-11-21T10:29:56.000Z</time>
      </trkpt>
      <trkpt lat="44.47594" lon="6.19315">
        <ele>909</ele>
        <time>2025-11-21T10:29:57.000Z</time>
      </trkpt>
      <trkpt lat="44.47594" lon="6.19316">
        <ele>909</ele>
        <time>2025-11-21T10:29:58.000Z</time>
      </trkpt>
      <trkpt lat="44.47594" lon="6.19318">
        <ele>909</ele>
        <time>2025-11-21T10:29:59.000Z</time>
      </trkpt>
      <trkpt lat="44.47595" lon="6.1932">
        <ele>909</ele>
        <time>2025-11-21T10:30:00.000Z</time>
      </trkpt>
      <trkpt lat="44.47596" lon="6.19321">
        <ele>909</ele>
        <time>2025-11-21T10:30:01.000Z</time>
      </trkpt>
      <trkpt lat="44.47597" lon="6.19322">
        <ele>909</ele>
        <time>2025-11-21T10:30:02.000Z</time>
      </trkpt>
      <trkpt lat="44.47597" lon="6.19323">
        <ele>910</ele>
        <time>2025-11-21T10:30:03.000Z</time>
      </trkpt>
      <trkpt lat="44.47598" lon="6.19324">
        <ele>910</ele>
        <time>2025-11-21T10:30:04.000Z</time>
      </trkpt>
      <trkpt lat="44.47599" lon="6.19325">
        <ele>911</ele>
        <time>2025-11-21T10:30:05.000Z</time>
      </trkpt>
      <trkpt lat="44.47599" lon="6.19326">
        <ele>911</ele>
        <time>2025-11-21T10:30:06.000Z</time>
      </trkpt>
      <trkpt lat="44.476" lon="6.19327">
        <ele>911</ele>
        <time>2025-11-21T10:30:07.000Z</time>
      </trkpt>
      <trkpt lat="44.476" lon="6.19328">
        <ele>912</ele>
        <time>2025-11-21T10:30:08.000Z</time>
      </trkpt>
      <trkpt lat="44.47601" lon="6.19328">
        <ele>912</ele>
        <time>2025-11-21T10:30:09.000Z</time>
      </trkpt>
      <trkpt lat="44.47602" lon="6.19329">
        <ele>912</ele>
        <time>2025-11-21T10:30:10.000Z</time>
      </trkpt>
      <trkpt lat="44.47603" lon="6.1933">
        <ele>912</ele>
        <time>2025-11-21T10:30:11.000Z</time>
      </trkpt>
      <trkpt lat="44.47604" lon="6.19332">
        <ele>912</ele>
        <time>2025-11-21T10:30:12.000Z</time>
      </trkpt>
      <trkpt lat="44.47603" lon="6.19333">
        <ele>912</ele>
        <time>2025-11-21T10:30:13.000Z</time>
      </trkpt>
      <trkpt lat="44.47604" lon="6.19335">
        <ele>912</ele>
        <time>2025-11-21T10:30:14.000Z</time>
      </trkpt>
      <trkpt lat="44.47604" lon="6.19336">
        <ele>912</ele>
        <time>2025-11-21T10:30:15.000Z</time>
      </trkpt>
      <trkpt lat="44.47606" lon="6.19336">
        <ele>913</ele>
        <time>2025-11-21T10:30:16.000Z</time>
      </trkpt>
      <trkpt lat="44.47607" lon="6.19338">
        <ele>912</ele>
        <time>2025-11-21T10:30:17.000Z</time>
      </trkpt>
      <trkpt lat="44.47607" lon="6.19338">
        <ele>912</ele>
        <time>2025-11-21T10:30:18.000Z</time>
      </trkpt>
      <trkpt lat="44.47608" lon="6.19339">
        <ele>913</ele>
        <time>2025-11-21T10:30:19.000Z</time>
      </trkpt>
      <trkpt lat="44.47608" lon="6.19339">
        <ele>914</ele>
        <time>2025-11-21T10:30:20.000Z</time>
      </trkpt>
      <trkpt lat="44.47609" lon="6.1934">
        <ele>914</ele>
        <time>2025-11-21T10:30:21.000Z</time>
      </trkpt>
      <trkpt lat="44.4761" lon="6.19341">
        <ele>914</ele>
        <time>2025-11-21T10:30:22.000Z</time>
      </trkpt>
      <trkpt lat="44.47611" lon="6.19342">
        <ele>914</ele>
        <time>2025-11-21T10:30:23.000Z</time>
      </trkpt>
      <trkpt lat="44.47611" lon="6.19343">
        <ele>914</ele>
        <time>2025-11-21T10:30:24.000Z</time>
      </trkpt>
      <trkpt lat="44.47612" lon="6.19343">
        <ele>914</ele>
        <time>2025-11-21T10:30:25.000Z</time>
      </trkpt>
      <trkpt lat="44.47613" lon="6.19343">
        <ele>914</ele>
        <time>2025-11-21T10:30:26.000Z</time>
      </trkpt>
      <trkpt lat="44.47614" lon="6.19343">
        <ele>914</ele>
        <time>2025-11-21T10:30:27.000Z</time>
      </trkpt>
      <trkpt lat="44.47614" lon="6.19343">
        <ele>914</ele>
        <time>2025-11-21T10:30:28.000Z</time>
      </trkpt>
      <trkpt lat="44.47614" lon="6.19344">
        <ele>915</ele>
        <time>2025-11-21T10:30:29.000Z</time>
      </trkpt>
      <trkpt lat="44.47614" lon="6.19344">
        <ele>915</ele>
        <time>2025-11-21T10:30:30.000Z</time>
      </trkpt>
      <trkpt lat="44.47615" lon="6.19346">
        <ele>914</ele>
        <time>2025-11-21T10:30:31.000Z</time>
      </trkpt>
      <trkpt lat="44.47616" lon="6.19346">
        <ele>914</ele>
        <time>2025-11-21T10:30:32.000Z</time>
      </trkpt>
      <trkpt lat="44.47616" lon="6.19348">
        <ele>914</ele>
        <time>2025-11-21T10:30:33.000Z</time>
      </trkpt>
      <trkpt lat="44.47616" lon="6.19349">
        <ele>914</ele>
        <time>2025-11-21T10:30:34.000Z</time>
      </trkpt>
      <trkpt lat="44.47617" lon="6.1935">
        <ele>914</ele>
        <time>2025-11-21T10:30:35.000Z</time>
      </trkpt>
      <trkpt lat="44.47617" lon="6.19351">
        <ele>913</ele>
        <time>2025-11-21T10:30:36.000Z</time>
      </trkpt>
      <trkpt lat="44.47617" lon="6.19352">
        <ele>913</ele>
        <time>2025-11-21T10:30:37.000Z</time>
      </trkpt>
      <trkpt lat="44.47618" lon="6.19354">
        <ele>913</ele>
        <time>2025-11-21T10:30:38.000Z</time>
      </trkpt>
      <trkpt lat="44.47619" lon="6.19356">
        <ele>913</ele>
        <time>2025-11-21T10:30:39.000Z</time>
      </trkpt>
      <trkpt lat="44.47619" lon="6.19358">
        <ele>913</ele>
        <time>2025-11-21T10:30:40.000Z</time>
      </trkpt>
      <trkpt lat="44.4762" lon="6.1936">
        <ele>913</ele>
        <time>2025-11-21T10:30:41.000Z</time>
      </trkpt>
      <trkpt lat="44.4762" lon="6.19361">
        <ele>913</ele>
        <time>2025-11-21T10:30:42.000Z</time>
      </trkpt>
      <trkpt lat="44.47621" lon="6.19362">
        <ele>913</ele>
        <time>2025-11-21T10:30:43.000Z</time>
      </trkpt>
      <trkpt lat="44.47622" lon="6.19364">
        <ele>913</ele>
        <time>2025-11-21T10:30:44.000Z</time>
      </trkpt>
      <trkpt lat="44.47623" lon="6.19364">
        <ele>913</ele>
        <time>2025-11-21T10:30:45.000Z</time>
      </trkpt>
      <trkpt lat="44.47624" lon="6.19366">
        <ele>914</ele>
        <time>2025-11-21T10:30:46.000Z</time>
      </trkpt>
      <trkpt lat="44.47625" lon="6.19367">
        <ele>914</ele>
        <time>2025-11-21T10:30:47.000Z</time>
      </trkpt>
      <trkpt lat="44.47626" lon="6.19367">
        <ele>914</ele>
        <time>2025-11-21T10:30:48.000Z</time>
      </trkpt>
      <trkpt lat="44.47627" lon="6.19368">
        <ele>915</ele>
        <time>2025-11-21T10:30:49.000Z</time>
      </trkpt>
      <trkpt lat="44.47627" lon="6.19368">
        <ele>916</ele>
        <time>2025-11-21T10:30:50.000Z</time>
      </trkpt>
      <trkpt lat="44.47629" lon="6.19369">
        <ele>917</ele>
        <time>2025-11-21T10:30:51.000Z</time>
      </trkpt>
      <trkpt lat="44.4763" lon="6.19369">
        <ele>917</ele>
        <time>2025-11-21T10:30:52.000Z</time>
      </trkpt>
      <trkpt lat="44.47631" lon="6.1937">
        <ele>918</ele>
        <time>2025-11-21T10:30:53.000Z</time>
      </trkpt>
      <trkpt lat="44.47632" lon="6.19371">
        <ele>918</ele>
        <time>2025-11-21T10:30:54.000Z</time>
      </trkpt>
      <trkpt lat="44.47634" lon="6.19372">
        <ele>919</ele>
        <time>2025-11-21T10:30:55.000Z</time>
      </trkpt>
      <trkpt lat="44.47635" lon="6.19373">
        <ele>919</ele>
        <time>2025-11-21T10:30:56.000Z</time>
      </trkpt>
      <trkpt lat="44.47636" lon="6.19374">
        <ele>919</ele>
        <time>2025-11-21T10:30:57.000Z</time>
      </trkpt>
      <trkpt lat="44.47637" lon="6.19374">
        <ele>920</ele>
        <time>2025-11-21T10:30:58.000Z</time>
      </trkpt>
      <trkpt lat="44.47638" lon="6.19375">
        <ele>921</ele>
        <time>2025-11-21T10:30:59.000Z</time>
      </trkpt>
      <trkpt lat="44.47638" lon="6.19375">
        <ele>922</ele>
        <time>2025-11-21T10:31:00.000Z</time>
      </trkpt>
      <trkpt lat="44.47639" lon="6.19376">
        <ele>923</ele>
        <time>2025-11-21T10:31:01.000Z</time>
      </trkpt>
      <trkpt lat="44.4764" lon="6.19377">
        <ele>923</ele>
        <time>2025-11-21T10:31:02.000Z</time>
      </trkpt>
      <trkpt lat="44.4764" lon="6.19377">
        <ele>923</ele>
        <time>2025-11-21T10:31:03.000Z</time>
      </trkpt>
      <trkpt lat="44.47641" lon="6.19377">
        <ele>923</ele>
        <time>2025-11-21T10:31:04.000Z</time>
      </trkpt>
      <trkpt lat="44.47642" lon="6.19377">
        <ele>924</ele>
        <time>2025-11-21T10:31:05.000Z</time>
      </trkpt>
      <trkpt lat="44.47643" lon="6.19378">
        <ele>924</ele>
        <time>2025-11-21T10:31:06.000Z</time>
      </trkpt>
      <trkpt lat="44.47643" lon="6.19379">
        <ele>923</ele>
        <time>2025-11-21T10:31:07.000Z</time>
      </trkpt>
      <trkpt lat="44.47644" lon="6.19381">
        <ele>923</ele>
        <time>2025-11-21T10:31:08.000Z</time>
      </trkpt>
      <trkpt lat="44.47644" lon="6.19382">
        <ele>923</ele>
        <time>2025-11-21T10:31:09.000Z</time>
      </trkpt>
      <trkpt lat="44.47644" lon="6.19383">
        <ele>923</ele>
        <time>2025-11-21T10:31:10.000Z</time>
      </trkpt>
      <trkpt lat="44.47645" lon="6.19384">
        <ele>923</ele>
        <time>2025-11-21T10:31:11.000Z</time>
      </trkpt>
      <trkpt lat="44.47646" lon="6.19385">
        <ele>923</ele>
        <time>2025-11-21T10:31:12.000Z</time>
      </trkpt>
      <trkpt lat="44.47646" lon="6.19387">
        <ele>923</ele>
        <time>2025-11-21T10:31:13.000Z</time>
      </trkpt>
      <trkpt lat="44.47646" lon="6.19387">
        <ele>923</ele>
        <time>2025-11-21T10:31:14.000Z</time>
      </trkpt>
      <trkpt lat="44.47646" lon="6.19387">
        <ele>924</ele>
        <time>2025-11-21T10:31:15.000Z</time>
      </trkpt>
      <trkpt lat="44.47646" lon="6.19387">
        <ele>924</ele>
        <time>2025-11-21T10:31:16.000Z</time>
      </trkpt>
      <trkpt lat="44.47647" lon="6.19388">
        <ele>924</ele>
        <time>2025-11-21T10:31:17.000Z</time>
      </trkpt>
      <trkpt lat="44.47647" lon="6.19388">
        <ele>924</ele>
        <time>2025-11-21T10:31:18.000Z</time>
      </trkpt>
      <trkpt lat="44.47647" lon="6.19388">
        <ele>925</ele>
        <time>2025-11-21T10:31:19.000Z</time>
      </trkpt>
      <trkpt lat="44.47648" lon="6.19388">
        <ele>925</ele>
        <time>2025-11-21T10:31:20.000Z</time>
      </trkpt>
      <trkpt lat="44.47649" lon="6.1939">
        <ele>924</ele>
        <time>2025-11-21T10:31:21.000Z</time>
      </trkpt>
      <trkpt lat="44.47649" lon="6.1939">
        <ele>924</ele>
        <time>2025-11-21T10:31:22.000Z</time>
      </trkpt>
      <trkpt lat="44.47649" lon="6.1939">
        <ele>924</ele>
        <time>2025-11-21T10:31:23.000Z</time>
      </trkpt>
      <trkpt lat="44.4765" lon="6.19392">
        <ele>924</ele>
        <time>2025-11-21T10:31:24.000Z</time>
      </trkpt>
      <trkpt lat="44.47651" lon="6.19393">
        <ele>924</ele>
        <time>2025-11-21T10:31:25.000Z</time>
      </trkpt>
      <trkpt lat="44.47652" lon="6.19394">
        <ele>924</ele>
        <time>2025-11-21T10:31:26.000Z</time>
      </trkpt>
      <trkpt lat="44.47652" lon="6.19395">
        <ele>924</ele>
        <time>2025-11-21T10:31:27.000Z</time>
      </trkpt>
      <trkpt lat="44.47653" lon="6.19396">
        <ele>924</ele>
        <time>2025-11-21T10:31:28.000Z</time>
      </trkpt>
      <trkpt lat="44.47654" lon="6.19397">
        <ele>924</ele>
        <time>2025-11-21T10:31:29.000Z</time>
      </trkpt>
      <trkpt lat="44.47654" lon="6.19397">
        <ele>923</ele>
        <time>2025-11-21T10:31:30.000Z</time>
      </trkpt>
      <trkpt lat="44.47655" lon="6.19398">
        <ele>923</ele>
        <time>2025-11-21T10:31:31.000Z</time>
      </trkpt>
      <trkpt lat="44.47656" lon="6.19398">
        <ele>924</ele>
        <time>2025-11-21T10:31:32.000Z</time>
      </trkpt>
      <trkpt lat="44.47657" lon="6.19398">
        <ele>924</ele>
        <time>2025-11-21T10:31:33.000Z</time>
      </trkpt>
      <trkpt lat="44.47658" lon="6.19399">
        <ele>924</ele>
        <time>2025-11-21T10:31:34.000Z</time>
      </trkpt>
      <trkpt lat="44.47659" lon="6.194">
        <ele>924</ele>
        <time>2025-11-21T10:31:35.000Z</time>
      </trkpt>
      <trkpt lat="44.47659" lon="6.19401">
        <ele>924</ele>
        <time>2025-11-21T10:31:36.000Z</time>
      </trkpt>
      <trkpt lat="44.4766" lon="6.19402">
        <ele>923</ele>
        <time>2025-11-21T10:31:37.000Z</time>
      </trkpt>
      <trkpt lat="44.47662" lon="6.194">
        <ele>924</ele>
        <time>2025-11-21T10:31:38.000Z</time>
      </trkpt>
      <trkpt lat="44.47663" lon="6.19401">
        <ele>924</ele>
        <time>2025-11-21T10:31:39.000Z</time>
      </trkpt>
      <trkpt lat="44.47664" lon="6.19403">
        <ele>924</ele>
        <time>2025-11-21T10:31:40.000Z</time>
      </trkpt>
      <trkpt lat="44.47665" lon="6.19403">
        <ele>925</ele>
        <time>2025-11-21T10:31:41.000Z</time>
      </trkpt>
      <trkpt lat="44.47665" lon="6.19404">
        <ele>925</ele>
        <time>2025-11-21T10:31:42.000Z</time>
      </trkpt>
      <trkpt lat="44.47666" lon="6.19405">
        <ele>925</ele>
        <time>2025-11-21T10:31:43.000Z</time>
      </trkpt>
      <trkpt lat="44.47666" lon="6.19407">
        <ele>925</ele>
        <time>2025-11-21T10:31:44.000Z</time>
      </trkpt>
      <trkpt lat="44.47668" lon="6.19407">
        <ele>925</ele>
        <time>2025-11-21T10:31:45.000Z</time>
      </trkpt>
      <trkpt lat="44.47667" lon="6.19408">
        <ele>924</ele>
        <time>2025-11-21T10:31:46.000Z</time>
      </trkpt>
      <trkpt lat="44.47667" lon="6.19409">
        <ele>924</ele>
        <time>2025-11-21T10:31:47.000Z</time>
      </trkpt>
      <trkpt lat="44.47668" lon="6.19409">
        <ele>925</ele>
        <time>2025-11-21T10:31:48.000Z</time>
      </trkpt>
      <trkpt lat="44.47668" lon="6.19411">
        <ele>925</ele>
        <time>2025-11-21T10:31:49.000Z</time>
      </trkpt>
      <trkpt lat="44.47669" lon="6.19412">
        <ele>925</ele>
        <time>2025-11-21T10:31:50.000Z</time>
      </trkpt>
      <trkpt lat="44.47671" lon="6.19412">
        <ele>926</ele>
        <time>2025-11-21T10:31:51.000Z</time>
      </trkpt>
      <trkpt lat="44.47671" lon="6.19412">
        <ele>925</ele>
        <time>2025-11-21T10:31:52.000Z</time>
      </trkpt>
      <trkpt lat="44.47673" lon="6.19412">
        <ele>926</ele>
        <time>2025-11-21T10:31:53.000Z</time>
      </trkpt>
      <trkpt lat="44.47674" lon="6.19413">
        <ele>927</ele>
        <time>2025-11-21T10:31:54.000Z</time>
      </trkpt>
      <trkpt lat="44.47675" lon="6.19414">
        <ele>927</ele>
        <time>2025-11-21T10:31:55.000Z</time>
      </trkpt>
      <trkpt lat="44.47676" lon="6.19416">
        <ele>927</ele>
        <time>2025-11-21T10:31:56.000Z</time>
      </trkpt>
      <trkpt lat="44.47676" lon="6.19417">
        <ele>926</ele>
        <time>2025-11-21T10:31:57.000Z</time>
      </trkpt>
      <trkpt lat="44.47677" lon="6.19417">
        <ele>927</ele>
        <time>2025-11-21T10:31:58.000Z</time>
      </trkpt>
      <trkpt lat="44.47677" lon="6.19418">
        <ele>927</ele>
        <time>2025-11-21T10:31:59.000Z</time>
      </trkpt>
      <trkpt lat="44.47677" lon="6.19418">
        <ele>927</ele>
        <time>2025-11-21T10:32:00.000Z</time>
      </trkpt>
      <trkpt lat="44.47679" lon="6.19418">
        <ele>926</ele>
        <time>2025-11-21T10:32:01.000Z</time>
      </trkpt>
      <trkpt lat="44.47681" lon="6.19419">
        <ele>926</ele>
        <time>2025-11-21T10:32:02.000Z</time>
      </trkpt>
      <trkpt lat="44.47682" lon="6.19419">
        <ele>926</ele>
        <time>2025-11-21T10:32:03.000Z</time>
      </trkpt>
      <trkpt lat="44.47683" lon="6.19418">
        <ele>927</ele>
        <time>2025-11-21T10:32:04.000Z</time>
      </trkpt>
      <trkpt lat="44.47685" lon="6.19419">
        <ele>928</ele>
        <time>2025-11-21T10:32:05.000Z</time>
      </trkpt>
      <trkpt lat="44.47686" lon="6.19419">
        <ele>928</ele>
        <time>2025-11-21T10:32:06.000Z</time>
      </trkpt>
      <trkpt lat="44.47687" lon="6.1942">
        <ele>929</ele>
        <time>2025-11-21T10:32:07.000Z</time>
      </trkpt>
      <trkpt lat="44.47688" lon="6.19421">
        <ele>929</ele>
        <time>2025-11-21T10:32:08.000Z</time>
      </trkpt>
      <trkpt lat="44.47689" lon="6.19421">
        <ele>930</ele>
        <time>2025-11-21T10:32:09.000Z</time>
      </trkpt>
      <trkpt lat="44.47689" lon="6.19422">
        <ele>930</ele>
        <time>2025-11-21T10:32:10.000Z</time>
      </trkpt>
      <trkpt lat="44.4769" lon="6.19423">
        <ele>930</ele>
        <time>2025-11-21T10:32:11.000Z</time>
      </trkpt>
      <trkpt lat="44.47691" lon="6.19424">
        <ele>930</ele>
        <time>2025-11-21T10:32:12.000Z</time>
      </trkpt>
      <trkpt lat="44.47692" lon="6.19424">
        <ele>930</ele>
        <time>2025-11-21T10:32:13.000Z</time>
      </trkpt>
      <trkpt lat="44.47692" lon="6.19425">
        <ele>930</ele>
        <time>2025-11-21T10:32:14.000Z</time>
      </trkpt>
      <trkpt lat="44.47693" lon="6.19425">
        <ele>930</ele>
        <time>2025-11-21T10:32:15.000Z</time>
      </trkpt>
      <trkpt lat="44.47694" lon="6.19424">
        <ele>931</ele>
        <time>2025-11-21T10:32:16.000Z</time>
      </trkpt>
      <trkpt lat="44.47694" lon="6.19425">
        <ele>930</ele>
        <time>2025-11-21T10:32:17.000Z</time>
      </trkpt>
      <trkpt lat="44.47695" lon="6.19426">
        <ele>931</ele>
        <time>2025-11-21T10:32:18.000Z</time>
      </trkpt>
      <trkpt lat="44.47696" lon="6.19426">
        <ele>930</ele>
        <time>2025-11-21T10:32:19.000Z</time>
      </trkpt>
      <trkpt lat="44.47697" lon="6.19426">
        <ele>930</ele>
        <time>2025-11-21T10:32:20.000Z</time>
      </trkpt>
      <trkpt lat="44.47697" lon="6.19427">
        <ele>930</ele>
        <time>2025-11-21T10:32:21.000Z</time>
      </trkpt>
      <trkpt lat="44.47699" lon="6.19427">
        <ele>931</ele>
        <time>2025-11-21T10:32:22.000Z</time>
      </trkpt>
      <trkpt lat="44.47699" lon="6.19428">
        <ele>931</ele>
        <time>2025-11-21T10:32:23.000Z</time>
      </trkpt>
      <trkpt lat="44.477" lon="6.19428">
        <ele>930</ele>
        <time>2025-11-21T10:32:24.000Z</time>
      </trkpt>
      <trkpt lat="44.47701" lon="6.1943">
        <ele>931</ele>
        <time>2025-11-21T10:32:25.000Z</time>
      </trkpt>
      <trkpt lat="44.47702" lon="6.1943">
        <ele>932</ele>
        <time>2025-11-21T10:32:26.000Z</time>
      </trkpt>
      <trkpt lat="44.47703" lon="6.19431">
        <ele>933</ele>
        <time>2025-11-21T10:32:27.000Z</time>
      </trkpt>
      <trkpt lat="44.47704" lon="6.19432">
        <ele>933</ele>
        <time>2025-11-21T10:32:28.000Z</time>
      </trkpt>
      <trkpt lat="44.47706" lon="6.19433">
        <ele>933</ele>
        <time>2025-11-21T10:32:29.000Z</time>
      </trkpt>
      <trkpt lat="44.47707" lon="6.19433">
        <ele>933</ele>
        <time>2025-11-21T10:32:30.000Z</time>
      </trkpt>
      <trkpt lat="44.47708" lon="6.19434">
        <ele>934</ele>
        <time>2025-11-21T10:32:31.000Z</time>
      </trkpt>
      <trkpt lat="44.47709" lon="6.19435">
        <ele>934</ele>
        <time>2025-11-21T10:32:32.000Z</time>
      </trkpt>
      <trkpt lat="44.4771" lon="6.19435">
        <ele>935</ele>
        <time>2025-11-21T10:32:33.000Z</time>
      </trkpt>
      <trkpt lat="44.47711" lon="6.19436">
        <ele>935</ele>
        <time>2025-11-21T10:32:34.000Z</time>
      </trkpt>
      <trkpt lat="44.47712" lon="6.19436">
        <ele>936</ele>
        <time>2025-11-21T10:32:35.000Z</time>
      </trkpt>
      <trkpt lat="44.47714" lon="6.19437">
        <ele>937</ele>
        <time>2025-11-21T10:32:36.000Z</time>
      </trkpt>
      <trkpt lat="44.47714" lon="6.19438">
        <ele>937</ele>
        <time>2025-11-21T10:32:37.000Z</time>
      </trkpt>
      <trkpt lat="44.47716" lon="6.19439">
        <ele>937</ele>
        <time>2025-11-21T10:32:38.000Z</time>
      </trkpt>
      <trkpt lat="44.47717" lon="6.1944">
        <ele>937</ele>
        <time>2025-11-21T10:32:39.000Z</time>
      </trkpt>
      <trkpt lat="44.47718" lon="6.19441">
        <ele>937</ele>
        <time>2025-11-21T10:32:40.000Z</time>
      </trkpt>
      <trkpt lat="44.47719" lon="6.19441">
        <ele>937</ele>
        <time>2025-11-21T10:32:41.000Z</time>
      </trkpt>
      <trkpt lat="44.47721" lon="6.19442">
        <ele>936</ele>
        <time>2025-11-21T10:32:42.000Z</time>
      </trkpt>
      <trkpt lat="44.47722" lon="6.19442">
        <ele>936</ele>
        <time>2025-11-21T10:32:43.000Z</time>
      </trkpt>
      <trkpt lat="44.47723" lon="6.19443">
        <ele>935</ele>
        <time>2025-11-21T10:32:44.000Z</time>
      </trkpt>
      <trkpt lat="44.47724" lon="6.19444">
        <ele>935</ele>
        <time>2025-11-21T10:32:45.000Z</time>
      </trkpt>
      <trkpt lat="44.47725" lon="6.19444">
        <ele>935</ele>
        <time>2025-11-21T10:32:46.000Z</time>
      </trkpt>
      <trkpt lat="44.47727" lon="6.19445">
        <ele>935</ele>
        <time>2025-11-21T10:32:47.000Z</time>
      </trkpt>
      <trkpt lat="44.47728" lon="6.19446">
        <ele>936</ele>
        <time>2025-11-21T10:32:48.000Z</time>
      </trkpt>
      <trkpt lat="44.47728" lon="6.19446">
        <ele>936</ele>
        <time>2025-11-21T10:32:49.000Z</time>
      </trkpt>
      <trkpt lat="44.47729" lon="6.19447">
        <ele>936</ele>
        <time>2025-11-21T10:32:50.000Z</time>
      </trkpt>
      <trkpt lat="44.47729" lon="6.19449">
        <ele>937</ele>
        <time>2025-11-21T10:32:51.000Z</time>
      </trkpt>
      <trkpt lat="44.47729" lon="6.19449">
        <ele>937</ele>
        <time>2025-11-21T10:32:52.000Z</time>
      </trkpt>
      <trkpt lat="44.47729" lon="6.19451">
        <ele>937</ele>
        <time>2025-11-21T10:32:53.000Z</time>
      </trkpt>
      <trkpt lat="44.4773" lon="6.19453">
        <ele>937</ele>
        <time>2025-11-21T10:32:54.000Z</time>
      </trkpt>
      <trkpt lat="44.47731" lon="6.19453">
        <ele>937</ele>
        <time>2025-11-21T10:32:55.000Z</time>
      </trkpt>
      <trkpt lat="44.47731" lon="6.19454">
        <ele>937</ele>
        <time>2025-11-21T10:32:56.000Z</time>
      </trkpt>
      <trkpt lat="44.47732" lon="6.19455">
        <ele>938</ele>
        <time>2025-11-21T10:32:57.000Z</time>
      </trkpt>
      <trkpt lat="44.47732" lon="6.19455">
        <ele>939</ele>
        <time>2025-11-21T10:32:58.000Z</time>
      </trkpt>
      <trkpt lat="44.47733" lon="6.19456">
        <ele>939</ele>
        <time>2025-11-21T10:32:59.000Z</time>
      </trkpt>
      <trkpt lat="44.47734" lon="6.19457">
        <ele>940</ele>
        <time>2025-11-21T10:33:00.000Z</time>
      </trkpt>
      <trkpt lat="44.47734" lon="6.19458">
        <ele>940</ele>
        <time>2025-11-21T10:33:01.000Z</time>
      </trkpt>
      <trkpt lat="44.47735" lon="6.19459">
        <ele>940</ele>
        <time>2025-11-21T10:33:02.000Z</time>
      </trkpt>
      <trkpt lat="44.47735" lon="6.1946">
        <ele>939</ele>
        <time>2025-11-21T10:33:03.000Z</time>
      </trkpt>
      <trkpt lat="44.47735" lon="6.19461">
        <ele>939</ele>
        <time>2025-11-21T10:33:04.000Z</time>
      </trkpt>
      <trkpt lat="44.47736" lon="6.19462">
        <ele>938</ele>
        <time>2025-11-21T10:33:05.000Z</time>
      </trkpt>
      <trkpt lat="44.47736" lon="6.19463">
        <ele>939</ele>
        <time>2025-11-21T10:33:06.000Z</time>
      </trkpt>
      <trkpt lat="44.47736" lon="6.19464">
        <ele>939</ele>
        <time>2025-11-21T10:33:07.000Z</time>
      </trkpt>
      <trkpt lat="44.47737" lon="6.19465">
        <ele>939</ele>
        <time>2025-11-21T10:33:08.000Z</time>
      </trkpt>
      <trkpt lat="44.47738" lon="6.19465">
        <ele>939</ele>
        <time>2025-11-21T10:33:09.000Z</time>
      </trkpt>
      <trkpt lat="44.47738" lon="6.19466">
        <ele>939</ele>
        <time>2025-11-21T10:33:10.000Z</time>
      </trkpt>
      <trkpt lat="44.47739" lon="6.19467">
        <ele>939</ele>
        <time>2025-11-21T10:33:11.000Z</time>
      </trkpt>
      <trkpt lat="44.47739" lon="6.19469">
        <ele>939</ele>
        <time>2025-11-21T10:33:12.000Z</time>
      </trkpt>
      <trkpt lat="44.47739" lon="6.19469">
        <ele>939</ele>
        <time>2025-11-21T10:33:13.000Z</time>
      </trkpt>
      <trkpt lat="44.4774" lon="6.19471">
        <ele>939</ele>
        <time>2025-11-21T10:33:14.000Z</time>
      </trkpt>
      <trkpt lat="44.47741" lon="6.19473">
        <ele>939</ele>
        <time>2025-11-21T10:33:15.000Z</time>
      </trkpt>
      <trkpt lat="44.47742" lon="6.19474">
        <ele>939</ele>
        <time>2025-11-21T10:33:16.000Z</time>
      </trkpt>
      <trkpt lat="44.47742" lon="6.19476">
        <ele>939</ele>
        <time>2025-11-21T10:33:17.000Z</time>
      </trkpt>
      <trkpt lat="44.47744" lon="6.19477">
        <ele>941</ele>
        <time>2025-11-21T10:33:18.000Z</time>
      </trkpt>
      <trkpt lat="44.47744" lon="6.19478">
        <ele>941</ele>
        <time>2025-11-21T10:33:19.000Z</time>
      </trkpt>
      <trkpt lat="44.47744" lon="6.19479">
        <ele>941</ele>
        <time>2025-11-21T10:33:20.000Z</time>
      </trkpt>
      <trkpt lat="44.47744" lon="6.19481">
        <ele>941</ele>
        <time>2025-11-21T10:33:21.000Z</time>
      </trkpt>
      <trkpt lat="44.47745" lon="6.19483">
        <ele>941</ele>
        <time>2025-11-21T10:33:22.000Z</time>
      </trkpt>
      <trkpt lat="44.47745" lon="6.19484">
        <ele>941</ele>
        <time>2025-11-21T10:33:23.000Z</time>
      </trkpt>
      <trkpt lat="44.47746" lon="6.19485">
        <ele>941</ele>
        <time>2025-11-21T10:33:24.000Z</time>
      </trkpt>
      <trkpt lat="44.47747" lon="6.19486">
        <ele>941</ele>
        <time>2025-11-21T10:33:25.000Z</time>
      </trkpt>
      <trkpt lat="44.47747" lon="6.19487">
        <ele>941</ele>
        <time>2025-11-21T10:33:26.000Z</time>
      </trkpt>
      <trkpt lat="44.47748" lon="6.19488">
        <ele>941</ele>
        <time>2025-11-21T10:33:27.000Z</time>
      </trkpt>
      <trkpt lat="44.47749" lon="6.19488">
        <ele>942</ele>
        <time>2025-11-21T10:33:28.000Z</time>
      </trkpt>
      <trkpt lat="44.47749" lon="6.19488">
        <ele>941</ele>
        <time>2025-11-21T10:33:29.000Z</time>
      </trkpt>
      <trkpt lat="44.4775" lon="6.19488">
        <ele>941</ele>
        <time>2025-11-21T10:33:30.000Z</time>
      </trkpt>
      <trkpt lat="44.4775" lon="6.19488">
        <ele>942</ele>
        <time>2025-11-21T10:33:31.000Z</time>
      </trkpt>
      <trkpt lat="44.47751" lon="6.19489">
        <ele>941</ele>
        <time>2025-11-21T10:33:32.000Z</time>
      </trkpt>
      <trkpt lat="44.47752" lon="6.19489">
        <ele>941</ele>
        <time>2025-11-21T10:33:33.000Z</time>
      </trkpt>
      <trkpt lat="44.47753" lon="6.1949">
        <ele>941</ele>
        <time>2025-11-21T10:33:34.000Z</time>
      </trkpt>
      <trkpt lat="44.47753" lon="6.19491">
        <ele>941</ele>
        <time>2025-11-21T10:33:35.000Z</time>
      </trkpt>
      <trkpt lat="44.47755" lon="6.19491">
        <ele>941</ele>
        <time>2025-11-21T10:33:36.000Z</time>
      </trkpt>
      <trkpt lat="44.47756" lon="6.19491">
        <ele>941</ele>
        <time>2025-11-21T10:33:37.000Z</time>
      </trkpt>
      <trkpt lat="44.47757" lon="6.19492">
        <ele>941</ele>
        <time>2025-11-21T10:33:38.000Z</time>
      </trkpt>
      <trkpt lat="44.47758" lon="6.19494">
        <ele>941</ele>
        <time>2025-11-21T10:33:39.000Z</time>
      </trkpt>
      <trkpt lat="44.47758" lon="6.19494">
        <ele>941</ele>
        <time>2025-11-21T10:33:40.000Z</time>
      </trkpt>
      <trkpt lat="44.47759" lon="6.19495">
        <ele>941</ele>
        <time>2025-11-21T10:33:41.000Z</time>
      </trkpt>
      <trkpt lat="44.47759" lon="6.19495">
        <ele>942</ele>
        <time>2025-11-21T10:33:42.000Z</time>
      </trkpt>
      <trkpt lat="44.4776" lon="6.19495">
        <ele>942</ele>
        <time>2025-11-21T10:33:43.000Z</time>
      </trkpt>
      <trkpt lat="44.47761" lon="6.19496">
        <ele>942</ele>
        <time>2025-11-21T10:33:44.000Z</time>
      </trkpt>
      <trkpt lat="44.47761" lon="6.19496">
        <ele>942</ele>
        <time>2025-11-21T10:33:45.000Z</time>
      </trkpt>
      <trkpt lat="44.47761" lon="6.19496">
        <ele>942</ele>
        <time>2025-11-21T10:33:46.000Z</time>
      </trkpt>
      <trkpt lat="44.47763" lon="6.19497">
        <ele>942</ele>
        <time>2025-11-21T10:33:47.000Z</time>
      </trkpt>
      <trkpt lat="44.47764" lon="6.19498">
        <ele>943</ele>
        <time>2025-11-21T10:33:48.000Z</time>
      </trkpt>
      <trkpt lat="44.47765" lon="6.19499">
        <ele>943</ele>
        <time>2025-11-21T10:33:49.000Z</time>
      </trkpt>
      <trkpt lat="44.47766" lon="6.195">
        <ele>943</ele>
        <time>2025-11-21T10:33:50.000Z</time>
      </trkpt>
      <trkpt lat="44.47768" lon="6.195">
        <ele>943</ele>
        <time>2025-11-21T10:33:51.000Z</time>
      </trkpt>
      <trkpt lat="44.47769" lon="6.19501">
        <ele>943</ele>
        <time>2025-11-21T10:33:52.000Z</time>
      </trkpt>
      <trkpt lat="44.4777" lon="6.19502">
        <ele>942</ele>
        <time>2025-11-21T10:33:53.000Z</time>
      </trkpt>
      <trkpt lat="44.47772" lon="6.19502">
        <ele>943</ele>
        <time>2025-11-21T10:33:54.000Z</time>
      </trkpt>
      <trkpt lat="44.47773" lon="6.19502">
        <ele>943</ele>
        <time>2025-11-21T10:33:55.000Z</time>
      </trkpt>
      <trkpt lat="44.47773" lon="6.19503">
        <ele>943</ele>
        <time>2025-11-21T10:33:56.000Z</time>
      </trkpt>
      <trkpt lat="44.47773" lon="6.19504">
        <ele>943</ele>
        <time>2025-11-21T10:33:57.000Z</time>
      </trkpt>
      <trkpt lat="44.47774" lon="6.19505">
        <ele>943</ele>
        <time>2025-11-21T10:33:58.000Z</time>
      </trkpt>
      <trkpt lat="44.47774" lon="6.19506">
        <ele>944</ele>
        <time>2025-11-21T10:33:59.000Z</time>
      </trkpt>
      <trkpt lat="44.47774" lon="6.19506">
        <ele>944</ele>
        <time>2025-11-21T10:34:00.000Z</time>
      </trkpt>
      <trkpt lat="44.47774" lon="6.19506">
        <ele>944</ele>
        <time>2025-11-21T10:34:01.000Z</time>
      </trkpt>
      <trkpt lat="44.47777" lon="6.19508">
        <ele>944</ele>
        <time>2025-11-21T10:34:02.000Z</time>
      </trkpt>
      <trkpt lat="44.47777" lon="6.19509">
        <ele>944</ele>
        <time>2025-11-21T10:34:03.000Z</time>
      </trkpt>
      <trkpt lat="44.47778" lon="6.1951">
        <ele>944</ele>
        <time>2025-11-21T10:34:04.000Z</time>
      </trkpt>
      <trkpt lat="44.47779" lon="6.1951">
        <ele>944</ele>
        <time>2025-11-21T10:34:05.000Z</time>
      </trkpt>
      <trkpt lat="44.47779" lon="6.1951">
        <ele>944</ele>
        <time>2025-11-21T10:34:06.000Z</time>
      </trkpt>
      <trkpt lat="44.4778" lon="6.1951">
        <ele>944</ele>
        <time>2025-11-21T10:34:07.000Z</time>
      </trkpt>
      <trkpt lat="44.47781" lon="6.1951">
        <ele>944</ele>
        <time>2025-11-21T10:34:08.000Z</time>
      </trkpt>
      <trkpt lat="44.47782" lon="6.19511">
        <ele>944</ele>
        <time>2025-11-21T10:34:09.000Z</time>
      </trkpt>
      <trkpt lat="44.47782" lon="6.19512">
        <ele>944</ele>
        <time>2025-11-21T10:34:10.000Z</time>
      </trkpt>
      <trkpt lat="44.47784" lon="6.19513">
        <ele>944</ele>
        <time>2025-11-21T10:34:11.000Z</time>
      </trkpt>
      <trkpt lat="44.47785" lon="6.19514">
        <ele>943</ele>
        <time>2025-11-21T10:34:12.000Z</time>
      </trkpt>
      <trkpt lat="44.47786" lon="6.19514">
        <ele>943</ele>
        <time>2025-11-21T10:34:13.000Z</time>
      </trkpt>
      <trkpt lat="44.47787" lon="6.19514">
        <ele>943</ele>
        <time>2025-11-21T10:34:14.000Z</time>
      </trkpt>
      <trkpt lat="44.47788" lon="6.19515">
        <ele>943</ele>
        <time>2025-11-21T10:34:15.000Z</time>
      </trkpt>
      <trkpt lat="44.47788" lon="6.19516">
        <ele>944</ele>
        <time>2025-11-21T10:34:16.000Z</time>
      </trkpt>
      <trkpt lat="44.4779" lon="6.19518">
        <ele>944</ele>
        <time>2025-11-21T10:34:17.000Z</time>
      </trkpt>
      <trkpt lat="44.4779" lon="6.1952">
        <ele>944</ele>
        <time>2025-11-21T10:34:18.000Z</time>
      </trkpt>
      <trkpt lat="44.47791" lon="6.19521">
        <ele>945</ele>
        <time>2025-11-21T10:34:19.000Z</time>
      </trkpt>
      <trkpt lat="44.47792" lon="6.19521">
        <ele>945</ele>
        <time>2025-11-21T10:34:20.000Z</time>
      </trkpt>
      <trkpt lat="44.47792" lon="6.19522">
        <ele>945</ele>
        <time>2025-11-21T10:34:21.000Z</time>
      </trkpt>
      <trkpt lat="44.47793" lon="6.19523">
        <ele>945</ele>
        <time>2025-11-21T10:34:22.000Z</time>
      </trkpt>
      <trkpt lat="44.47793" lon="6.19523">
        <ele>946</ele>
        <time>2025-11-21T10:34:23.000Z</time>
      </trkpt>
      <trkpt lat="44.47793" lon="6.19524">
        <ele>946</ele>
        <time>2025-11-21T10:34:24.000Z</time>
      </trkpt>
      <trkpt lat="44.47795" lon="6.19524">
        <ele>947</ele>
        <time>2025-11-21T10:34:25.000Z</time>
      </trkpt>
      <trkpt lat="44.47796" lon="6.19526">
        <ele>947</ele>
        <time>2025-11-21T10:34:26.000Z</time>
      </trkpt>
      <trkpt lat="44.47796" lon="6.19527">
        <ele>946</ele>
        <time>2025-11-21T10:34:27.000Z</time>
      </trkpt>
      <trkpt lat="44.47797" lon="6.19527">
        <ele>946</ele>
        <time>2025-11-21T10:34:28.000Z</time>
      </trkpt>
      <trkpt lat="44.47798" lon="6.19528">
        <ele>946</ele>
        <time>2025-11-21T10:34:29.000Z</time>
      </trkpt>
      <trkpt lat="44.478" lon="6.19528">
        <ele>946</ele>
        <time>2025-11-21T10:34:30.000Z</time>
      </trkpt>
      <trkpt lat="44.47801" lon="6.19529">
        <ele>946</ele>
        <time>2025-11-21T10:34:31.000Z</time>
      </trkpt>
      <trkpt lat="44.47801" lon="6.1953">
        <ele>947</ele>
        <time>2025-11-21T10:34:32.000Z</time>
      </trkpt>
      <trkpt lat="44.47803" lon="6.1953">
        <ele>947</ele>
        <time>2025-11-21T10:34:33.000Z</time>
      </trkpt>
      <trkpt lat="44.47804" lon="6.19531">
        <ele>948</ele>
        <time>2025-11-21T10:34:34.000Z</time>
      </trkpt>
      <trkpt lat="44.47804" lon="6.19531">
        <ele>948</ele>
        <time>2025-11-21T10:34:35.000Z</time>
      </trkpt>
      <trkpt lat="44.47805" lon="6.19531">
        <ele>949</ele>
        <time>2025-11-21T10:34:36.000Z</time>
      </trkpt>
      <trkpt lat="44.47806" lon="6.1953">
        <ele>949</ele>
        <time>2025-11-21T10:34:37.000Z</time>
      </trkpt>
      <trkpt lat="44.47807" lon="6.1953">
        <ele>949</ele>
        <time>2025-11-21T10:34:38.000Z</time>
      </trkpt>
      <trkpt lat="44.47808" lon="6.1953">
        <ele>949</ele>
        <time>2025-11-21T10:34:39.000Z</time>
      </trkpt>
      <trkpt lat="44.47809" lon="6.19531">
        <ele>950</ele>
        <time>2025-11-21T10:34:40.000Z</time>
      </trkpt>
      <trkpt lat="44.4781" lon="6.19531">
        <ele>950</ele>
        <time>2025-11-21T10:34:41.000Z</time>
      </trkpt>
      <trkpt lat="44.47811" lon="6.19532">
        <ele>950</ele>
        <time>2025-11-21T10:34:42.000Z</time>
      </trkpt>
      <trkpt lat="44.47812" lon="6.19533">
        <ele>950</ele>
        <time>2025-11-21T10:34:43.000Z</time>
      </trkpt>
      <trkpt lat="44.47812" lon="6.19535">
        <ele>951</ele>
        <time>2025-11-21T10:34:44.000Z</time>
      </trkpt>
      <trkpt lat="44.47812" lon="6.19535">
        <ele>951</ele>
        <time>2025-11-21T10:34:45.000Z</time>
      </trkpt>
      <trkpt lat="44.47813" lon="6.19537">
        <ele>950</ele>
        <time>2025-11-21T10:34:46.000Z</time>
      </trkpt>
      <trkpt lat="44.47814" lon="6.19538">
        <ele>950</ele>
        <time>2025-11-21T10:34:47.000Z</time>
      </trkpt>
      <trkpt lat="44.47815" lon="6.1954">
        <ele>950</ele>
        <time>2025-11-21T10:34:48.000Z</time>
      </trkpt>
      <trkpt lat="44.47815" lon="6.19541">
        <ele>950</ele>
        <time>2025-11-21T10:34:49.000Z</time>
      </trkpt>
      <trkpt lat="44.47816" lon="6.19542">
        <ele>950</ele>
        <time>2025-11-21T10:34:50.000Z</time>
      </trkpt>
      <trkpt lat="44.47816" lon="6.19543">
        <ele>950</ele>
        <time>2025-11-21T10:34:51.000Z</time>
      </trkpt>
      <trkpt lat="44.47816" lon="6.19543">
        <ele>950</ele>
        <time>2025-11-21T10:34:52.000Z</time>
      </trkpt>
      <trkpt lat="44.47816" lon="6.19543">
        <ele>950</ele>
        <time>2025-11-21T10:34:53.000Z</time>
      </trkpt>
      <trkpt lat="44.47816" lon="6.19543">
        <ele>950</ele>
        <time>2025-11-21T10:34:54.000Z</time>
      </trkpt>
      <trkpt lat="44.47818" lon="6.19544">
        <ele>951</ele>
        <time>2025-11-21T10:34:55.000Z</time>
      </trkpt>
      <trkpt lat="44.47819" lon="6.19545">
        <ele>951</ele>
        <time>2025-11-21T10:34:56.000Z</time>
      </trkpt>
      <trkpt lat="44.47819" lon="6.19545">
        <ele>952</ele>
        <time>2025-11-21T10:34:57.000Z</time>
      </trkpt>
      <trkpt lat="44.4782" lon="6.19545">
        <ele>952</ele>
        <time>2025-11-21T10:34:58.000Z</time>
      </trkpt>
      <trkpt lat="44.47821" lon="6.19546">
        <ele>952</ele>
        <time>2025-11-21T10:34:59.000Z</time>
      </trkpt>
      <trkpt lat="44.47822" lon="6.19547">
        <ele>952</ele>
        <time>2025-11-21T10:35:00.000Z</time>
      </trkpt>
      <trkpt lat="44.47824" lon="6.19547">
        <ele>952</ele>
        <time>2025-11-21T10:35:01.000Z</time>
      </trkpt>
      <trkpt lat="44.47825" lon="6.19547">
        <ele>952</ele>
        <time>2025-11-21T10:35:02.000Z</time>
      </trkpt>
      <trkpt lat="44.47827" lon="6.19548">
        <ele>952</ele>
        <time>2025-11-21T10:35:03.000Z</time>
      </trkpt>
      <trkpt lat="44.47828" lon="6.19549">
        <ele>952</ele>
        <time>2025-11-21T10:35:04.000Z</time>
      </trkpt>
      <trkpt lat="44.47829" lon="6.19551">
        <ele>952</ele>
        <time>2025-11-21T10:35:05.000Z</time>
      </trkpt>
      <trkpt lat="44.4783" lon="6.19552">
        <ele>952</ele>
        <time>2025-11-21T10:35:06.000Z</time>
      </trkpt>
      <trkpt lat="44.47832" lon="6.19553">
        <ele>952</ele>
        <time>2025-11-21T10:35:07.000Z</time>
      </trkpt>
      <trkpt lat="44.47832" lon="6.19553">
        <ele>952</ele>
        <time>2025-11-21T10:35:08.000Z</time>
      </trkpt>
      <trkpt lat="44.47833" lon="6.19555">
        <ele>952</ele>
        <time>2025-11-21T10:35:09.000Z</time>
      </trkpt>
      <trkpt lat="44.47834" lon="6.19556">
        <ele>951</ele>
        <time>2025-11-21T10:35:10.000Z</time>
      </trkpt>
      <trkpt lat="44.47836" lon="6.19557">
        <ele>951</ele>
        <time>2025-11-21T10:35:11.000Z</time>
      </trkpt>
      <trkpt lat="44.47837" lon="6.19558">
        <ele>951</ele>
        <time>2025-11-21T10:35:12.000Z</time>
      </trkpt>
      <trkpt lat="44.47838" lon="6.19558">
        <ele>951</ele>
        <time>2025-11-21T10:35:13.000Z</time>
      </trkpt>
      <trkpt lat="44.47839" lon="6.19559">
        <ele>951</ele>
        <time>2025-11-21T10:35:14.000Z</time>
      </trkpt>
      <trkpt lat="44.4784" lon="6.19559">
        <ele>952</ele>
        <time>2025-11-21T10:35:15.000Z</time>
      </trkpt>
      <trkpt lat="44.47841" lon="6.1956">
        <ele>952</ele>
        <time>2025-11-21T10:35:16.000Z</time>
      </trkpt>
      <trkpt lat="44.47841" lon="6.19562">
        <ele>952</ele>
        <time>2025-11-21T10:35:17.000Z</time>
      </trkpt>
      <trkpt lat="44.47841" lon="6.19564">
        <ele>953</ele>
        <time>2025-11-21T10:35:18.000Z</time>
      </trkpt>
      <trkpt lat="44.47842" lon="6.19566">
        <ele>953</ele>
        <time>2025-11-21T10:35:19.000Z</time>
      </trkpt>
      <trkpt lat="44.47843" lon="6.19567">
        <ele>954</ele>
        <time>2025-11-21T10:35:20.000Z</time>
      </trkpt>
      <trkpt lat="44.47844" lon="6.19568">
        <ele>955</ele>
        <time>2025-11-21T10:35:21.000Z</time>
      </trkpt>
      <trkpt lat="44.47845" lon="6.19569">
        <ele>955</ele>
        <time>2025-11-21T10:35:22.000Z</time>
      </trkpt>
      <trkpt lat="44.47846" lon="6.1957">
        <ele>955</ele>
        <time>2025-11-21T10:35:23.000Z</time>
      </trkpt>
      <trkpt lat="44.47847" lon="6.1957">
        <ele>955</ele>
        <time>2025-11-21T10:35:24.000Z</time>
      </trkpt>
      <trkpt lat="44.47848" lon="6.19571">
        <ele>955</ele>
        <time>2025-11-21T10:35:25.000Z</time>
      </trkpt>
      <trkpt lat="44.47848" lon="6.19571">
        <ele>955</ele>
        <time>2025-11-21T10:35:26.000Z</time>
      </trkpt>
      <trkpt lat="44.47849" lon="6.19572">
        <ele>955</ele>
        <time>2025-11-21T10:35:27.000Z</time>
      </trkpt>
      <trkpt lat="44.4785" lon="6.19573">
        <ele>956</ele>
        <time>2025-11-21T10:35:28.000Z</time>
      </trkpt>
      <trkpt lat="44.47851" lon="6.19573">
        <ele>956</ele>
        <time>2025-11-21T10:35:29.000Z</time>
      </trkpt>
      <trkpt lat="44.47852" lon="6.19574">
        <ele>956</ele>
        <time>2025-11-21T10:35:30.000Z</time>
      </trkpt>
      <trkpt lat="44.47852" lon="6.19576">
        <ele>957</ele>
        <time>2025-11-21T10:35:31.000Z</time>
      </trkpt>
      <trkpt lat="44.47853" lon="6.19578">
        <ele>957</ele>
        <time>2025-11-21T10:35:32.000Z</time>
      </trkpt>
      <trkpt lat="44.47853" lon="6.19579">
        <ele>957</ele>
        <time>2025-11-21T10:35:33.000Z</time>
      </trkpt>
      <trkpt lat="44.47854" lon="6.1958">
        <ele>958</ele>
        <time>2025-11-21T10:35:34.000Z</time>
      </trkpt>
      <trkpt lat="44.47855" lon="6.19581">
        <ele>958</ele>
        <time>2025-11-21T10:35:35.000Z</time>
      </trkpt>
      <trkpt lat="44.47856" lon="6.19581">
        <ele>958</ele>
        <time>2025-11-21T10:35:36.000Z</time>
      </trkpt>
      <trkpt lat="44.47856" lon="6.19582">
        <ele>958</ele>
        <time>2025-11-21T10:35:37.000Z</time>
      </trkpt>
      <trkpt lat="44.47857" lon="6.19583">
        <ele>959</ele>
        <time>2025-11-21T10:35:38.000Z</time>
      </trkpt>
      <trkpt lat="44.47858" lon="6.19584">
        <ele>959</ele>
        <time>2025-11-21T10:35:39.000Z</time>
      </trkpt>
      <trkpt lat="44.47859" lon="6.19585">
        <ele>959</ele>
        <time>2025-11-21T10:35:40.000Z</time>
      </trkpt>
      <trkpt lat="44.4786" lon="6.19586">
        <ele>960</ele>
        <time>2025-11-21T10:35:41.000Z</time>
      </trkpt>
      <trkpt lat="44.4786" lon="6.19587">
        <ele>960</ele>
        <time>2025-11-21T10:35:42.000Z</time>
      </trkpt>
      <trkpt lat="44.4786" lon="6.19589">
        <ele>961</ele>
        <time>2025-11-21T10:35:43.000Z</time>
      </trkpt>
      <trkpt lat="44.47861" lon="6.19591">
        <ele>960</ele>
        <time>2025-11-21T10:35:44.000Z</time>
      </trkpt>
      <trkpt lat="44.47862" lon="6.19592">
        <ele>960</ele>
        <time>2025-11-21T10:35:45.000Z</time>
      </trkpt>
      <trkpt lat="44.47863" lon="6.19592">
        <ele>960</ele>
        <time>2025-11-21T10:35:46.000Z</time>
      </trkpt>
      <trkpt lat="44.47864" lon="6.19592">
        <ele>960</ele>
        <time>2025-11-21T10:35:47.000Z</time>
      </trkpt>
      <trkpt lat="44.47864" lon="6.19593">
        <ele>961</ele>
        <time>2025-11-21T10:35:48.000Z</time>
      </trkpt>
      <trkpt lat="44.47865" lon="6.19593">
        <ele>961</ele>
        <time>2025-11-21T10:35:49.000Z</time>
      </trkpt>
      <trkpt lat="44.47867" lon="6.19594">
        <ele>962</ele>
        <time>2025-11-21T10:35:50.000Z</time>
      </trkpt>
      <trkpt lat="44.47867" lon="6.19595">
        <ele>961</ele>
        <time>2025-11-21T10:35:51.000Z</time>
      </trkpt>
      <trkpt lat="44.47869" lon="6.19595">
        <ele>962</ele>
        <time>2025-11-21T10:35:52.000Z</time>
      </trkpt>
      <trkpt lat="44.4787" lon="6.19597">
        <ele>961</ele>
        <time>2025-11-21T10:35:53.000Z</time>
      </trkpt>
      <trkpt lat="44.47871" lon="6.19597">
        <ele>962</ele>
        <time>2025-11-21T10:35:54.000Z</time>
      </trkpt>
      <trkpt lat="44.47872" lon="6.19598">
        <ele>961</ele>
        <time>2025-11-21T10:35:55.000Z</time>
      </trkpt>
      <trkpt lat="44.47872" lon="6.19599">
        <ele>962</ele>
        <time>2025-11-21T10:35:56.000Z</time>
      </trkpt>
      <trkpt lat="44.47873" lon="6.19599">
        <ele>961</ele>
        <time>2025-11-21T10:35:57.000Z</time>
      </trkpt>
      <trkpt lat="44.47873" lon="6.196">
        <ele>961</ele>
        <time>2025-11-21T10:35:58.000Z</time>
      </trkpt>
      <trkpt lat="44.47874" lon="6.19601">
        <ele>960</ele>
        <time>2025-11-21T10:35:59.000Z</time>
      </trkpt>
      <trkpt lat="44.47875" lon="6.19602">
        <ele>961</ele>
        <time>2025-11-21T10:36:00.000Z</time>
      </trkpt>
      <trkpt lat="44.47876" lon="6.19603">
        <ele>961</ele>
        <time>2025-11-21T10:36:01.000Z</time>
      </trkpt>
      <trkpt lat="44.47876" lon="6.19603">
        <ele>961</ele>
        <time>2025-11-21T10:36:02.000Z</time>
      </trkpt>
      <trkpt lat="44.47877" lon="6.19604">
        <ele>961</ele>
        <time>2025-11-21T10:36:03.000Z</time>
      </trkpt>
      <trkpt lat="44.47879" lon="6.19604">
        <ele>961</ele>
        <time>2025-11-21T10:36:04.000Z</time>
      </trkpt>
      <trkpt lat="44.4788" lon="6.19605">
        <ele>961</ele>
        <time>2025-11-21T10:36:05.000Z</time>
      </trkpt>
      <trkpt lat="44.47881" lon="6.19606">
        <ele>961</ele>
        <time>2025-11-21T10:36:06.000Z</time>
      </trkpt>
      <trkpt lat="44.47882" lon="6.19606">
        <ele>961</ele>
        <time>2025-11-21T10:36:07.000Z</time>
      </trkpt>
      <trkpt lat="44.47883" lon="6.19607">
        <ele>961</ele>
        <time>2025-11-21T10:36:08.000Z</time>
      </trkpt>
      <trkpt lat="44.47884" lon="6.19608">
        <ele>961</ele>
        <time>2025-11-21T10:36:09.000Z</time>
      </trkpt>
      <trkpt lat="44.47885" lon="6.19609">
        <ele>962</ele>
        <time>2025-11-21T10:36:10.000Z</time>
      </trkpt>
      <trkpt lat="44.47885" lon="6.1961">
        <ele>962</ele>
        <time>2025-11-21T10:36:11.000Z</time>
      </trkpt>
      <trkpt lat="44.47887" lon="6.19612">
        <ele>963</ele>
        <time>2025-11-21T10:36:12.000Z</time>
      </trkpt>
      <trkpt lat="44.47887" lon="6.19613">
        <ele>964</ele>
        <time>2025-11-21T10:36:13.000Z</time>
      </trkpt>
      <trkpt lat="44.47888" lon="6.19614">
        <ele>964</ele>
        <time>2025-11-21T10:36:14.000Z</time>
      </trkpt>
      <trkpt lat="44.47889" lon="6.19614">
        <ele>964</ele>
        <time>2025-11-21T10:36:15.000Z</time>
      </trkpt>
      <trkpt lat="44.4789" lon="6.19615">
        <ele>965</ele>
        <time>2025-11-21T10:36:16.000Z</time>
      </trkpt>
      <trkpt lat="44.4789" lon="6.19615">
        <ele>965</ele>
        <time>2025-11-21T10:36:17.000Z</time>
      </trkpt>
      <trkpt lat="44.47891" lon="6.19616">
        <ele>965</ele>
        <time>2025-11-21T10:36:18.000Z</time>
      </trkpt>
      <trkpt lat="44.47892" lon="6.19615">
        <ele>965</ele>
        <time>2025-11-21T10:36:19.000Z</time>
      </trkpt>
      <trkpt lat="44.47893" lon="6.19615">
        <ele>965</ele>
        <time>2025-11-21T10:36:20.000Z</time>
      </trkpt>
      <trkpt lat="44.47893" lon="6.19616">
        <ele>965</ele>
        <time>2025-11-21T10:36:21.000Z</time>
      </trkpt>
      <trkpt lat="44.47894" lon="6.19617">
        <ele>965</ele>
        <time>2025-11-21T10:36:22.000Z</time>
      </trkpt>
      <trkpt lat="44.47895" lon="6.19618">
        <ele>965</ele>
        <time>2025-11-21T10:36:23.000Z</time>
      </trkpt>
      <trkpt lat="44.47895" lon="6.19619">
        <ele>965</ele>
        <time>2025-11-21T10:36:24.000Z</time>
      </trkpt>
      <trkpt lat="44.47896" lon="6.1962">
        <ele>965</ele>
        <time>2025-11-21T10:36:25.000Z</time>
      </trkpt>
      <trkpt lat="44.47897" lon="6.19622">
        <ele>965</ele>
        <time>2025-11-21T10:36:26.000Z</time>
      </trkpt>
      <trkpt lat="44.47897" lon="6.19624">
        <ele>965</ele>
        <time>2025-11-21T10:36:27.000Z</time>
      </trkpt>
      <trkpt lat="44.47898" lon="6.19625">
        <ele>965</ele>
        <time>2025-11-21T10:36:28.000Z</time>
      </trkpt>
      <trkpt lat="44.47898" lon="6.19626">
        <ele>965</ele>
        <time>2025-11-21T10:36:29.000Z</time>
      </trkpt>
      <trkpt lat="44.47899" lon="6.19627">
        <ele>964</ele>
        <time>2025-11-21T10:36:30.000Z</time>
      </trkpt>
      <trkpt lat="44.479" lon="6.19628">
        <ele>965</ele>
        <time>2025-11-21T10:36:31.000Z</time>
      </trkpt>
      <trkpt lat="44.479" lon="6.1963">
        <ele>965</ele>
        <time>2025-11-21T10:36:32.000Z</time>
      </trkpt>
      <trkpt lat="44.47901" lon="6.19631">
        <ele>965</ele>
        <time>2025-11-21T10:36:33.000Z</time>
      </trkpt>
      <trkpt lat="44.47902" lon="6.19632">
        <ele>965</ele>
        <time>2025-11-21T10:36:34.000Z</time>
      </trkpt>
      <trkpt lat="44.47902" lon="6.19634">
        <ele>964</ele>
        <time>2025-11-21T10:36:35.000Z</time>
      </trkpt>
      <trkpt lat="44.47903" lon="6.19635">
        <ele>964</ele>
        <time>2025-11-21T10:36:36.000Z</time>
      </trkpt>
      <trkpt lat="44.47903" lon="6.19636">
        <ele>965</ele>
        <time>2025-11-21T10:36:37.000Z</time>
      </trkpt>
      <trkpt lat="44.47904" lon="6.19638">
        <ele>964</ele>
        <time>2025-11-21T10:36:38.000Z</time>
      </trkpt>
      <trkpt lat="44.47904" lon="6.19639">
        <ele>964</ele>
        <time>2025-11-21T10:36:39.000Z</time>
      </trkpt>
      <trkpt lat="44.47905" lon="6.19641">
        <ele>964</ele>
        <time>2025-11-21T10:36:40.000Z</time>
      </trkpt>
      <trkpt lat="44.47906" lon="6.19642">
        <ele>964</ele>
        <time>2025-11-21T10:36:41.000Z</time>
      </trkpt>
      <trkpt lat="44.47906" lon="6.19645">
        <ele>964</ele>
        <time>2025-11-21T10:36:42.000Z</time>
      </trkpt>
      <trkpt lat="44.47908" lon="6.19646">
        <ele>965</ele>
        <time>2025-11-21T10:36:43.000Z</time>
      </trkpt>
      <trkpt lat="44.47908" lon="6.19646">
        <ele>965</ele>
        <time>2025-11-21T10:36:44.000Z</time>
      </trkpt>
      <trkpt lat="44.47909" lon="6.19647">
        <ele>965</ele>
        <time>2025-11-21T10:36:45.000Z</time>
      </trkpt>
      <trkpt lat="44.47909" lon="6.19647">
        <ele>966</ele>
        <time>2025-11-21T10:36:46.000Z</time>
      </trkpt>
      <trkpt lat="44.4791" lon="6.19648">
        <ele>966</ele>
        <time>2025-11-21T10:36:47.000Z</time>
      </trkpt>
      <trkpt lat="44.4791" lon="6.19648">
        <ele>966</ele>
        <time>2025-11-21T10:36:48.000Z</time>
      </trkpt>
      <trkpt lat="44.47911" lon="6.1965">
        <ele>966</ele>
        <time>2025-11-21T10:36:49.000Z</time>
      </trkpt>
      <trkpt lat="44.47911" lon="6.1965">
        <ele>966</ele>
        <time>2025-11-21T10:36:50.000Z</time>
      </trkpt>
      <trkpt lat="44.47911" lon="6.1965">
        <ele>966</ele>
        <time>2025-11-21T10:36:51.000Z</time>
      </trkpt>
      <trkpt lat="44.47912" lon="6.19652">
        <ele>966</ele>
        <time>2025-11-21T10:36:52.000Z</time>
      </trkpt>
      <trkpt lat="44.47912" lon="6.19654">
        <ele>966</ele>
        <time>2025-11-21T10:36:53.000Z</time>
      </trkpt>
      <trkpt lat="44.47913" lon="6.19655">
        <ele>966</ele>
        <time>2025-11-21T10:36:54.000Z</time>
      </trkpt>
      <trkpt lat="44.47914" lon="6.19656">
        <ele>967</ele>
        <time>2025-11-21T10:36:55.000Z</time>
      </trkpt>
      <trkpt lat="44.47914" lon="6.19657">
        <ele>967</ele>
        <time>2025-11-21T10:36:56.000Z</time>
      </trkpt>
      <trkpt lat="44.47915" lon="6.19658">
        <ele>966</ele>
        <time>2025-11-21T10:36:57.000Z</time>
      </trkpt>
      <trkpt lat="44.47916" lon="6.19659">
        <ele>966</ele>
        <time>2025-11-21T10:36:58.000Z</time>
      </trkpt>
      <trkpt lat="44.47915" lon="6.19661">
        <ele>967</ele>
        <time>2025-11-21T10:36:59.000Z</time>
      </trkpt>
      <trkpt lat="44.47915" lon="6.19663">
        <ele>967</ele>
        <time>2025-11-21T10:37:00.000Z</time>
      </trkpt>
      <trkpt lat="44.47915" lon="6.19663">
        <ele>968</ele>
        <time>2025-11-21T10:37:01.000Z</time>
      </trkpt>
      <trkpt lat="44.47916" lon="6.19664">
        <ele>968</ele>
        <time>2025-11-21T10:37:02.000Z</time>
      </trkpt>
      <trkpt lat="44.47917" lon="6.19665">
        <ele>969</ele>
        <time>2025-11-21T10:37:03.000Z</time>
      </trkpt>
      <trkpt lat="44.47918" lon="6.19666">
        <ele>968</ele>
        <time>2025-11-21T10:37:04.000Z</time>
      </trkpt>
      <trkpt lat="44.47918" lon="6.19666">
        <ele>968</ele>
        <time>2025-11-21T10:37:05.000Z</time>
      </trkpt>
      <trkpt lat="44.47919" lon="6.19666">
        <ele>968</ele>
        <time>2025-11-21T10:37:06.000Z</time>
      </trkpt>
      <trkpt lat="44.47919" lon="6.19668">
        <ele>968</ele>
        <time>2025-11-21T10:37:07.000Z</time>
      </trkpt>
      <trkpt lat="44.4792" lon="6.19669">
        <ele>968</ele>
        <time>2025-11-21T10:37:08.000Z</time>
      </trkpt>
      <trkpt lat="44.47921" lon="6.1967">
        <ele>968</ele>
        <time>2025-11-21T10:37:09.000Z</time>
      </trkpt>
      <trkpt lat="44.47922" lon="6.1967">
        <ele>968</ele>
        <time>2025-11-21T10:37:10.000Z</time>
      </trkpt>
      <trkpt lat="44.47923" lon="6.19671">
        <ele>968</ele>
        <time>2025-11-21T10:37:11.000Z</time>
      </trkpt>
      <trkpt lat="44.47924" lon="6.19672">
        <ele>968</ele>
        <time>2025-11-21T10:37:12.000Z</time>
      </trkpt>
      <trkpt lat="44.47926" lon="6.19672">
        <ele>968</ele>
        <time>2025-11-21T10:37:13.000Z</time>
      </trkpt>
      <trkpt lat="44.47927" lon="6.19672">
        <ele>969</ele>
        <time>2025-11-21T10:37:14.000Z</time>
      </trkpt>
      <trkpt lat="44.47928" lon="6.19673">
        <ele>969</ele>
        <time>2025-11-21T10:37:15.000Z</time>
      </trkpt>
      <trkpt lat="44.4793" lon="6.19674">
        <ele>969</ele>
        <time>2025-11-21T10:37:16.000Z</time>
      </trkpt>
      <trkpt lat="44.4793" lon="6.19675">
        <ele>969</ele>
        <time>2025-11-21T10:37:17.000Z</time>
      </trkpt>
      <trkpt lat="44.47931" lon="6.19676">
        <ele>969</ele>
        <time>2025-11-21T10:37:18.000Z</time>
      </trkpt>
      <trkpt lat="44.47932" lon="6.19677">
        <ele>969</ele>
        <time>2025-11-21T10:37:19.000Z</time>
      </trkpt>
      <trkpt lat="44.47933" lon="6.19678">
        <ele>969</ele>
        <time>2025-11-21T10:37:20.000Z</time>
      </trkpt>
      <trkpt lat="44.47934" lon="6.19679">
        <ele>970</ele>
        <time>2025-11-21T10:37:21.000Z</time>
      </trkpt>
      <trkpt lat="44.47936" lon="6.1968">
        <ele>970</ele>
        <time>2025-11-21T10:37:22.000Z</time>
      </trkpt>
      <trkpt lat="44.47937" lon="6.19682">
        <ele>970</ele>
        <time>2025-11-21T10:37:23.000Z</time>
      </trkpt>
      <trkpt lat="44.47939" lon="6.19683">
        <ele>970</ele>
        <time>2025-11-21T10:37:24.000Z</time>
      </trkpt>
      <trkpt lat="44.47939" lon="6.19684">
        <ele>970</ele>
        <time>2025-11-21T10:37:25.000Z</time>
      </trkpt>
      <trkpt lat="44.4794" lon="6.19684">
        <ele>971</ele>
        <time>2025-11-21T10:37:26.000Z</time>
      </trkpt>
      <trkpt lat="44.47941" lon="6.19684">
        <ele>972</ele>
        <time>2025-11-21T10:37:27.000Z</time>
      </trkpt>
      <trkpt lat="44.47942" lon="6.19685">
        <ele>972</ele>
        <time>2025-11-21T10:37:28.000Z</time>
      </trkpt>
      <trkpt lat="44.47943" lon="6.19686">
        <ele>972</ele>
        <time>2025-11-21T10:37:29.000Z</time>
      </trkpt>
      <trkpt lat="44.47944" lon="6.19687">
        <ele>973</ele>
        <time>2025-11-21T10:37:30.000Z</time>
      </trkpt>
      <trkpt lat="44.47946" lon="6.19688">
        <ele>974</ele>
        <time>2025-11-21T10:37:31.000Z</time>
      </trkpt>
      <trkpt lat="44.47946" lon="6.19689">
        <ele>974</ele>
        <time>2025-11-21T10:37:32.000Z</time>
      </trkpt>
      <trkpt lat="44.47948" lon="6.19691">
        <ele>975</ele>
        <time>2025-11-21T10:37:33.000Z</time>
      </trkpt>
      <trkpt lat="44.47948" lon="6.1969">
        <ele>975</ele>
        <time>2025-11-21T10:37:34.000Z</time>
      </trkpt>
      <trkpt lat="44.47949" lon="6.1969">
        <ele>977</ele>
        <time>2025-11-21T10:37:35.000Z</time>
      </trkpt>
      <trkpt lat="44.47949" lon="6.1969">
        <ele>977</ele>
        <time>2025-11-21T10:37:36.000Z</time>
      </trkpt>
      <trkpt lat="44.47949" lon="6.19691">
        <ele>977</ele>
        <time>2025-11-21T10:37:37.000Z</time>
      </trkpt>
      <trkpt lat="44.47949" lon="6.19692">
        <ele>979</ele>
        <time>2025-11-21T10:37:38.000Z</time>
      </trkpt>
      <trkpt lat="44.47948" lon="6.19693">
        <ele>980</ele>
        <time>2025-11-21T10:37:39.000Z</time>
      </trkpt>
      <trkpt lat="44.47948" lon="6.19694">
        <ele>980</ele>
        <time>2025-11-21T10:37:40.000Z</time>
      </trkpt>
      <trkpt lat="44.47948" lon="6.19694">
        <ele>981</ele>
        <time>2025-11-21T10:37:41.000Z</time>
      </trkpt>
      <trkpt lat="44.47947" lon="6.19695">
        <ele>981</ele>
        <time>2025-11-21T10:37:42.000Z</time>
      </trkpt>
      <trkpt lat="44.47947" lon="6.19695">
        <ele>982</ele>
        <time>2025-11-21T10:37:43.000Z</time>
      </trkpt>
      <trkpt lat="44.47946" lon="6.19696">
        <ele>982</ele>
        <time>2025-11-21T10:37:44.000Z</time>
      </trkpt>
      <trkpt lat="44.47946" lon="6.19697">
        <ele>982</ele>
        <time>2025-11-21T10:37:45.000Z</time>
      </trkpt>
      <trkpt lat="44.47945" lon="6.19698">
        <ele>982</ele>
        <time>2025-11-21T10:37:46.000Z</time>
      </trkpt>
      <trkpt lat="44.47945" lon="6.19698">
        <ele>982</ele>
        <time>2025-11-21T10:37:47.000Z</time>
      </trkpt>
      <trkpt lat="44.47944" lon="6.19698">
        <ele>983</ele>
        <time>2025-11-21T10:37:48.000Z</time>
      </trkpt>
      <trkpt lat="44.47943" lon="6.19698">
        <ele>983</ele>
        <time>2025-11-21T10:37:49.000Z</time>
      </trkpt>
      <trkpt lat="44.47942" lon="6.19698">
        <ele>984</ele>
        <time>2025-11-21T10:37:50.000Z</time>
      </trkpt>
      <trkpt lat="44.47942" lon="6.19698">
        <ele>984</ele>
        <time>2025-11-21T10:37:51.000Z</time>
      </trkpt>
      <trkpt lat="44.47941" lon="6.19698">
        <ele>984</ele>
        <time>2025-11-21T10:37:52.000Z</time>
      </trkpt>
      <trkpt lat="44.47941" lon="6.19698">
        <ele>985</ele>
        <time>2025-11-21T10:37:53.000Z</time>
      </trkpt>
      <trkpt lat="44.47939" lon="6.19698">
        <ele>985</ele>
        <time>2025-11-21T10:37:54.000Z</time>
      </trkpt>
      <trkpt lat="44.47938" lon="6.19698">
        <ele>985</ele>
        <time>2025-11-21T10:37:55.000Z</time>
      </trkpt>
      <trkpt lat="44.47938" lon="6.19698">
        <ele>985</ele>
        <time>2025-11-21T10:37:56.000Z</time>
      </trkpt>
      <trkpt lat="44.47937" lon="6.19698">
        <ele>985</ele>
        <time>2025-11-21T10:37:57.000Z</time>
      </trkpt>
      <trkpt lat="44.47937" lon="6.19698">
        <ele>985</ele>
        <time>2025-11-21T10:37:58.000Z</time>
      </trkpt>
      <trkpt lat="44.47936" lon="6.19698">
        <ele>986</ele>
        <time>2025-11-21T10:37:59.000Z</time>
      </trkpt>
      <trkpt lat="44.47937" lon="6.19698">
        <ele>986</ele>
        <time>2025-11-21T10:38:00.000Z</time>
      </trkpt>
      <trkpt lat="44.47937" lon="6.19699">
        <ele>986</ele>
        <time>2025-11-21T10:38:01.000Z</time>
      </trkpt>
      <trkpt lat="44.47937" lon="6.19698">
        <ele>986</ele>
        <time>2025-11-21T10:38:02.000Z</time>
      </trkpt>
      <trkpt lat="44.47937" lon="6.19698">
        <ele>987</ele>
        <time>2025-11-21T10:38:03.000Z</time>
      </trkpt>
      <trkpt lat="44.47936" lon="6.19697">
        <ele>987</ele>
        <time>2025-11-21T10:38:04.000Z</time>
      </trkpt>
      <trkpt lat="44.47936" lon="6.19696">
        <ele>988</ele>
        <time>2025-11-21T10:38:05.000Z</time>
      </trkpt>
      <trkpt lat="44.47935" lon="6.19696">
        <ele>988</ele>
        <time>2025-11-21T10:38:06.000Z</time>
      </trkpt>
      <trkpt lat="44.4794" lon="6.19698">
        <ele>985</ele>
        <time>2025-11-21T10:38:30.000Z</time>
      </trkpt>
      <trkpt lat="44.4794" lon="6.19698">
        <ele>985</ele>
        <time>2025-11-21T10:38:31.000Z</time>
      </trkpt>
      <trkpt lat="44.47941" lon="6.19698">
        <ele>985</ele>
        <time>2025-11-21T10:38:32.000Z</time>
      </trkpt>
      <trkpt lat="44.47941" lon="6.19698">
        <ele>985</ele>
        <time>2025-11-21T10:38:33.000Z</time>
      </trkpt>
      <trkpt lat="44.47941" lon="6.19698">
        <ele>985</ele>
        <time>2025-11-21T10:38:34.000Z</time>
      </trkpt>
      <trkpt lat="44.47941" lon="6.19698">
        <ele>985</ele>
        <time>2025-11-21T10:38:35.000Z</time>
      </trkpt>
      <trkpt lat="44.47941" lon="6.19698">
        <ele>985</ele>
        <time>2025-11-21T10:38:36.000Z</time>
      </trkpt>
      <trkpt lat="44.47941" lon="6.19698">
        <ele>985</ele>
        <time>2025-11-21T10:38:37.000Z</time>
      </trkpt>
      <trkpt lat="44.47943" lon="6.19699">
        <ele>982</ele>
        <time>2025-11-21T10:38:38.000Z</time>
      </trkpt>
      <trkpt lat="44.47945" lon="6.19699">
        <ele>986</ele>
        <time>2025-11-21T10:39:13.000Z</time>
      </trkpt>
      <trkpt lat="44.47946" lon="6.19699">
        <ele>986</ele>
        <time>2025-11-21T10:39:14.000Z</time>
      </trkpt>
      <trkpt lat="44.47947" lon="6.197">
        <ele>986</ele>
        <time>2025-11-21T10:39:15.000Z</time>
      </trkpt>
      <trkpt lat="44.47947" lon="6.197">
        <ele>986</ele>
        <time>2025-11-21T10:39:16.000Z</time>
      </trkpt>
      <trkpt lat="44.47947" lon="6.197">
        <ele>986</ele>
        <time>2025-11-21T10:39:17.000Z</time>
      </trkpt>
      <trkpt lat="44.47947" lon="6.197">
        <ele>986</ele>
        <time>2025-11-21T10:39:18.000Z</time>
      </trkpt>
      <trkpt lat="44.47947" lon="6.19699">
        <ele>986</ele>
        <time>2025-11-21T10:39:19.000Z</time>
      </trkpt>
      <trkpt lat="44.47947" lon="6.19698">
        <ele>985</ele>
        <time>2025-11-21T10:39:20.000Z</time>
      </trkpt>
      <trkpt lat="44.47947" lon="6.19698">
        <ele>985</ele>
        <time>2025-11-21T10:39:21.000Z</time>
      </trkpt>
      <trkpt lat="44.47947" lon="6.19698">
        <ele>985</ele>
        <time>2025-11-21T10:39:22.000Z</time>
      </trkpt>
      <trkpt lat="44.47948" lon="6.19696">
        <ele>983</ele>
        <time>2025-11-21T10:39:23.000Z</time>
      </trkpt>
      <trkpt lat="44.47948" lon="6.19694">
        <ele>983</ele>
        <time>2025-11-21T10:39:24.000Z</time>
      </trkpt>
      <trkpt lat="44.47949" lon="6.19693">
        <ele>982</ele>
        <time>2025-11-21T10:39:25.000Z</time>
      </trkpt>
      <trkpt lat="44.4795" lon="6.19692">
        <ele>982</ele>
        <time>2025-11-21T10:39:26.000Z</time>
      </trkpt>
      <trkpt lat="44.4795" lon="6.19691">
        <ele>982</ele>
        <time>2025-11-21T10:39:27.000Z</time>
      </trkpt>
      <trkpt lat="44.47951" lon="6.1969">
        <ele>982</ele>
        <time>2025-11-21T10:39:28.000Z</time>
      </trkpt>
      <trkpt lat="44.47951" lon="6.19689">
        <ele>982</ele>
        <time>2025-11-21T10:39:29.000Z</time>
      </trkpt>
      <trkpt lat="44.47952" lon="6.19688">
        <ele>983</ele>
        <time>2025-11-21T10:39:30.000Z</time>
      </trkpt>
      <trkpt lat="44.47952" lon="6.19687">
        <ele>983</ele>
        <time>2025-11-21T10:39:31.000Z</time>
      </trkpt>
      <trkpt lat="44.47953" lon="6.19685">
        <ele>983</ele>
        <time>2025-11-21T10:39:32.000Z</time>
      </trkpt>
      <trkpt lat="44.47954" lon="6.19685">
        <ele>983</ele>
        <time>2025-11-21T10:39:33.000Z</time>
      </trkpt>
      <trkpt lat="44.47954" lon="6.19684">
        <ele>983</ele>
        <time>2025-11-21T10:39:34.000Z</time>
      </trkpt>
      <trkpt lat="44.47954" lon="6.19684">
        <ele>983</ele>
        <time>2025-11-21T10:39:35.000Z</time>
      </trkpt>
      <trkpt lat="44.47954" lon="6.19684">
        <ele>983</ele>
        <time>2025-11-21T10:39:36.000Z</time>
      </trkpt>
      <trkpt lat="44.47955" lon="6.19682">
        <ele>984</ele>
        <time>2025-11-21T10:39:37.000Z</time>
      </trkpt>
      <trkpt lat="44.47955" lon="6.19682">
        <ele>984</ele>
        <time>2025-11-21T10:39:38.000Z</time>
      </trkpt>
      <trkpt lat="44.47955" lon="6.19682">
        <ele>984</ele>
        <time>2025-11-21T10:39:39.000Z</time>
      </trkpt>
      <trkpt lat="44.47956" lon="6.19682">
        <ele>985</ele>
        <time>2025-11-21T10:39:40.000Z</time>
      </trkpt>
      <trkpt lat="44.47957" lon="6.19681">
        <ele>986</ele>
        <time>2025-11-21T10:39:57.000Z</time>
      </trkpt>
      <trkpt lat="44.47957" lon="6.19681">
        <ele>986</ele>
        <time>2025-11-21T10:39:58.000Z</time>
      </trkpt>
      <trkpt lat="44.47958" lon="6.1968">
        <ele>985</ele>
        <time>2025-11-21T10:39:59.000Z</time>
      </trkpt>
      <trkpt lat="44.47959" lon="6.19679">
        <ele>985</ele>
        <time>2025-11-21T10:40:00.000Z</time>
      </trkpt>
      <trkpt lat="44.47959" lon="6.19679">
        <ele>985</ele>
        <time>2025-11-21T10:40:01.000Z</time>
      </trkpt>
      <trkpt lat="44.47959" lon="6.19679">
        <ele>985</ele>
        <time>2025-11-21T10:40:02.000Z</time>
      </trkpt>
      <trkpt lat="44.4796" lon="6.19678">
        <ele>986</ele>
        <time>2025-11-21T10:40:03.000Z</time>
      </trkpt>
      <trkpt lat="44.4796" lon="6.19677">
        <ele>986</ele>
        <time>2025-11-21T10:40:04.000Z</time>
      </trkpt>
      <trkpt lat="44.4796" lon="6.19676">
        <ele>987</ele>
        <time>2025-11-21T10:40:05.000Z</time>
      </trkpt>
      <trkpt lat="44.47961" lon="6.19675">
        <ele>987</ele>
        <time>2025-11-21T10:40:06.000Z</time>
      </trkpt>
      <trkpt lat="44.47962" lon="6.19674">
        <ele>986</ele>
        <time>2025-11-21T10:40:07.000Z</time>
      </trkpt>
      <trkpt lat="44.47962" lon="6.19674">
        <ele>986</ele>
        <time>2025-11-21T10:40:08.000Z</time>
      </trkpt>
      <trkpt lat="44.47963" lon="6.19672">
        <ele>986</ele>
        <time>2025-11-21T10:40:09.000Z</time>
      </trkpt>
      <trkpt lat="44.47963" lon="6.19671">
        <ele>986</ele>
        <time>2025-11-21T10:40:10.000Z</time>
      </trkpt>
      <trkpt lat="44.47963" lon="6.19671">
        <ele>987</ele>
        <time>2025-11-21T10:40:11.000Z</time>
      </trkpt>
      <trkpt lat="44.47964" lon="6.19671">
        <ele>987</ele>
        <time>2025-11-21T10:40:12.000Z</time>
      </trkpt>
      <trkpt lat="44.47964" lon="6.1967">
        <ele>987</ele>
        <time>2025-11-21T10:40:13.000Z</time>
      </trkpt>
      <trkpt lat="44.47965" lon="6.19669">
        <ele>987</ele>
        <time>2025-11-21T10:40:14.000Z</time>
      </trkpt>
      <trkpt lat="44.47965" lon="6.19667">
        <ele>987</ele>
        <time>2025-11-21T10:40:15.000Z</time>
      </trkpt>
      <trkpt lat="44.47966" lon="6.19667">
        <ele>987</ele>
        <time>2025-11-21T10:40:16.000Z</time>
      </trkpt>
      <trkpt lat="44.47966" lon="6.19666">
        <ele>987</ele>
        <time>2025-11-21T10:40:17.000Z</time>
      </trkpt>
      <trkpt lat="44.47966" lon="6.19666">
        <ele>988</ele>
        <time>2025-11-21T10:40:18.000Z</time>
      </trkpt>
      <trkpt lat="44.47965" lon="6.19665">
        <ele>987</ele>
        <time>2025-11-21T10:40:19.000Z</time>
      </trkpt>
      <trkpt lat="44.47965" lon="6.19664">
        <ele>987</ele>
        <time>2025-11-21T10:40:20.000Z</time>
      </trkpt>
      <trkpt lat="44.47965" lon="6.19664">
        <ele>987</ele>
        <time>2025-11-21T10:40:21.000Z</time>
      </trkpt>
      <trkpt lat="44.47964" lon="6.19664">
        <ele>987</ele>
        <time>2025-11-21T10:40:22.000Z</time>
      </trkpt>
      <trkpt lat="44.47964" lon="6.19664">
        <ele>987</ele>
        <time>2025-11-21T10:40:23.000Z</time>
      </trkpt>
      <trkpt lat="44.47964" lon="6.19664">
        <ele>987</ele>
        <time>2025-11-21T10:40:24.000Z</time>
      </trkpt>
      <trkpt lat="44.47965" lon="6.19663">
        <ele>987</ele>
        <time>2025-11-21T10:40:25.000Z</time>
      </trkpt>
      <trkpt lat="44.47964" lon="6.19663">
        <ele>986</ele>
        <time>2025-11-21T10:40:26.000Z</time>
      </trkpt>
      <trkpt lat="44.47965" lon="6.19663">
        <ele>987</ele>
        <time>2025-11-21T10:40:27.000Z</time>
      </trkpt>
      <trkpt lat="44.47964" lon="6.19663">
        <ele>986</ele>
        <time>2025-11-21T10:40:28.000Z</time>
      </trkpt>
      <trkpt lat="44.47965" lon="6.19663">
        <ele>986</ele>
        <time>2025-11-21T10:40:29.000Z</time>
      </trkpt>
      <trkpt lat="44.47965" lon="6.19663">
        <ele>986</ele>
        <time>2025-11-21T10:40:30.000Z</time>
      </trkpt>
      <trkpt lat="44.47965" lon="6.19663">
        <ele>986</ele>
        <time>2025-11-21T10:40:31.000Z</time>
      </trkpt>
      <trkpt lat="44.47964" lon="6.19661">
        <ele>987</ele>
        <time>2025-11-21T10:40:32.000Z</time>
      </trkpt>
      <trkpt lat="44.47964" lon="6.19661">
        <ele>987</ele>
        <time>2025-11-21T10:40:33.000Z</time>
      </trkpt>
      <trkpt lat="44.47964" lon="6.1966">
        <ele>987</ele>
        <time>2025-11-21T10:40:34.000Z</time>
      </trkpt>
      <trkpt lat="44.47964" lon="6.19659">
        <ele>987</ele>
        <time>2025-11-21T10:40:35.000Z</time>
      </trkpt>
      <trkpt lat="44.47964" lon="6.19659">
        <ele>988</ele>
        <time>2025-11-21T10:40:36.000Z</time>
      </trkpt>
      <trkpt lat="44.47964" lon="6.19658">
        <ele>988</ele>
        <time>2025-11-21T10:40:37.000Z</time>
      </trkpt>
      <trkpt lat="44.47965" lon="6.19656">
        <ele>988</ele>
        <time>2025-11-21T10:40:38.000Z</time>
      </trkpt>
      <trkpt lat="44.47965" lon="6.19655">
        <ele>988</ele>
        <time>2025-11-21T10:40:39.000Z</time>
      </trkpt>
      <trkpt lat="44.47966" lon="6.19655">
        <ele>988</ele>
        <time>2025-11-21T10:40:40.000Z</time>
      </trkpt>
      <trkpt lat="44.47966" lon="6.19655">
        <ele>988</ele>
        <time>2025-11-21T10:40:41.000Z</time>
      </trkpt>
      <trkpt lat="44.47966" lon="6.19655">
        <ele>988</ele>
        <time>2025-11-21T10:40:42.000Z</time>
      </trkpt>
      <trkpt lat="44.47967" lon="6.19654">
        <ele>989</ele>
        <time>2025-11-21T10:40:43.000Z</time>
      </trkpt>
      <trkpt lat="44.47967" lon="6.19654">
        <ele>990</ele>
        <time>2025-11-21T10:40:44.000Z</time>
      </trkpt>
      <trkpt lat="44.47967" lon="6.19653">
        <ele>991</ele>
        <time>2025-11-21T10:40:45.000Z</time>
      </trkpt>
      <trkpt lat="44.47968" lon="6.19652">
        <ele>990</ele>
        <time>2025-11-21T10:40:46.000Z</time>
      </trkpt>
      <trkpt lat="44.47968" lon="6.19651">
        <ele>990</ele>
        <time>2025-11-21T10:40:47.000Z</time>
      </trkpt>
      <trkpt lat="44.47968" lon="6.19649">
        <ele>991</ele>
        <time>2025-11-21T10:40:48.000Z</time>
      </trkpt>
      <trkpt lat="44.47967" lon="6.19649">
        <ele>991</ele>
        <time>2025-11-21T10:40:49.000Z</time>
      </trkpt>
      <trkpt lat="44.47967" lon="6.19648">
        <ele>991</ele>
        <time>2025-11-21T10:40:50.000Z</time>
      </trkpt>
      <trkpt lat="44.47966" lon="6.19643">
        <ele>990</ele>
        <time>2025-11-21T10:41:54.000Z</time>
      </trkpt>
      <trkpt lat="44.47966" lon="6.19642">
        <ele>990</ele>
        <time>2025-11-21T10:41:55.000Z</time>
      </trkpt>
      <trkpt lat="44.47965" lon="6.19642">
        <ele>989</ele>
        <time>2025-11-21T10:41:56.000Z</time>
      </trkpt>
      <trkpt lat="44.47964" lon="6.1964">
        <ele>989</ele>
        <time>2025-11-21T10:41:57.000Z</time>
      </trkpt>
      <trkpt lat="44.47964" lon="6.19639">
        <ele>989</ele>
        <time>2025-11-21T10:41:58.000Z</time>
      </trkpt>
      <trkpt lat="44.47964" lon="6.19637">
        <ele>989</ele>
        <time>2025-11-21T10:41:59.000Z</time>
      </trkpt>
      <trkpt lat="44.47964" lon="6.19635">
        <ele>989</ele>
        <time>2025-11-21T10:42:00.000Z</time>
      </trkpt>
      <trkpt lat="44.47963" lon="6.19634">
        <ele>990</ele>
        <time>2025-11-21T10:42:01.000Z</time>
      </trkpt>
      <trkpt lat="44.47963" lon="6.19632">
        <ele>990</ele>
        <time>2025-11-21T10:42:02.000Z</time>
      </trkpt>
      <trkpt lat="44.47962" lon="6.1963">
        <ele>990</ele>
        <time>2025-11-21T10:42:03.000Z</time>
      </trkpt>
      <trkpt lat="44.47962" lon="6.19628">
        <ele>990</ele>
        <time>2025-11-21T10:42:04.000Z</time>
      </trkpt>
      <trkpt lat="44.47962" lon="6.19626">
        <ele>990</ele>
        <time>2025-11-21T10:42:05.000Z</time>
      </trkpt>
      <trkpt lat="44.47962" lon="6.19625">
        <ele>991</ele>
        <time>2025-11-21T10:42:06.000Z</time>
      </trkpt>
      <trkpt lat="44.47962" lon="6.19623">
        <ele>991</ele>
        <time>2025-11-21T10:42:07.000Z</time>
      </trkpt>
      <trkpt lat="44.47961" lon="6.19622">
        <ele>990</ele>
        <time>2025-11-21T10:42:08.000Z</time>
      </trkpt>
      <trkpt lat="44.4796" lon="6.1962">
        <ele>990</ele>
        <time>2025-11-21T10:42:09.000Z</time>
      </trkpt>
      <trkpt lat="44.47959" lon="6.19618">
        <ele>989</ele>
        <time>2025-11-21T10:42:10.000Z</time>
      </trkpt>
      <trkpt lat="44.47958" lon="6.19617">
        <ele>989</ele>
        <time>2025-11-21T10:42:11.000Z</time>
      </trkpt>
      <trkpt lat="44.47958" lon="6.19615">
        <ele>989</ele>
        <time>2025-11-21T10:42:12.000Z</time>
      </trkpt>
      <trkpt lat="44.47957" lon="6.19612">
        <ele>990</ele>
        <time>2025-11-21T10:42:13.000Z</time>
      </trkpt>
      <trkpt lat="44.47957" lon="6.1961">
        <ele>991</ele>
        <time>2025-11-21T10:42:14.000Z</time>
      </trkpt>
      <trkpt lat="44.47958" lon="6.19609">
        <ele>991</ele>
        <time>2025-11-21T10:42:15.000Z</time>
      </trkpt>
      <trkpt lat="44.47958" lon="6.19608">
        <ele>991</ele>
        <time>2025-11-21T10:42:16.000Z</time>
      </trkpt>
      <trkpt lat="44.47958" lon="6.19607">
        <ele>991</ele>
        <time>2025-11-21T10:42:17.000Z</time>
      </trkpt>
      <trkpt lat="44.47957" lon="6.19605">
        <ele>991</ele>
        <time>2025-11-21T10:42:18.000Z</time>
      </trkpt>
      <trkpt lat="44.47957" lon="6.19603">
        <ele>990</ele>
        <time>2025-11-21T10:42:19.000Z</time>
      </trkpt>
      <trkpt lat="44.47957" lon="6.19602">
        <ele>990</ele>
        <time>2025-11-21T10:42:20.000Z</time>
      </trkpt>
      <trkpt lat="44.47956" lon="6.196">
        <ele>989</ele>
        <time>2025-11-21T10:42:21.000Z</time>
      </trkpt>
      <trkpt lat="44.47956" lon="6.19598">
        <ele>989</ele>
        <time>2025-11-21T10:42:22.000Z</time>
      </trkpt>
      <trkpt lat="44.47956" lon="6.19597">
        <ele>990</ele>
        <time>2025-11-21T10:42:23.000Z</time>
      </trkpt>
      <trkpt lat="44.47956" lon="6.19595">
        <ele>990</ele>
        <time>2025-11-21T10:42:24.000Z</time>
      </trkpt>
      <trkpt lat="44.47956" lon="6.19593">
        <ele>990</ele>
        <time>2025-11-21T10:42:25.000Z</time>
      </trkpt>
      <trkpt lat="44.47957" lon="6.19591">
        <ele>991</ele>
        <time>2025-11-21T10:42:26.000Z</time>
      </trkpt>
      <trkpt lat="44.47957" lon="6.19589">
        <ele>992</ele>
        <time>2025-11-21T10:42:27.000Z</time>
      </trkpt>
      <trkpt lat="44.47958" lon="6.19589">
        <ele>991</ele>
        <time>2025-11-21T10:42:28.000Z</time>
      </trkpt>
      <trkpt lat="44.47959" lon="6.19587">
        <ele>992</ele>
        <time>2025-11-21T10:42:29.000Z</time>
      </trkpt>
      <trkpt lat="44.4796" lon="6.19586">
        <ele>992</ele>
        <time>2025-11-21T10:42:30.000Z</time>
      </trkpt>
      <trkpt lat="44.4796" lon="6.19586">
        <ele>992</ele>
        <time>2025-11-21T10:42:31.000Z</time>
      </trkpt>
      <trkpt lat="44.47961" lon="6.19586">
        <ele>992</ele>
        <time>2025-11-21T10:42:32.000Z</time>
      </trkpt>
      <trkpt lat="44.47962" lon="6.19586">
        <ele>992</ele>
        <time>2025-11-21T10:42:33.000Z</time>
      </trkpt>
      <trkpt lat="44.47962" lon="6.19585">
        <ele>992</ele>
        <time>2025-11-21T10:42:34.000Z</time>
      </trkpt>
      <trkpt lat="44.47962" lon="6.19585">
        <ele>992</ele>
        <time>2025-11-21T10:42:35.000Z</time>
      </trkpt>
      <trkpt lat="44.47962" lon="6.19585">
        <ele>992</ele>
        <time>2025-11-21T10:42:36.000Z</time>
      </trkpt>
      <trkpt lat="44.47963" lon="6.19586">
        <ele>993</ele>
        <time>2025-11-21T10:42:37.000Z</time>
      </trkpt>
      <trkpt lat="44.47964" lon="6.19584">
        <ele>993</ele>
        <time>2025-11-21T10:42:38.000Z</time>
      </trkpt>
      <trkpt lat="44.47964" lon="6.19583">
        <ele>993</ele>
        <time>2025-11-21T10:42:39.000Z</time>
      </trkpt>
      <trkpt lat="44.47965" lon="6.19582">
        <ele>993</ele>
        <time>2025-11-21T10:42:40.000Z</time>
      </trkpt>
      <trkpt lat="44.47966" lon="6.19582">
        <ele>993</ele>
        <time>2025-11-21T10:42:41.000Z</time>
      </trkpt>
      <trkpt lat="44.47967" lon="6.19581">
        <ele>992</ele>
        <time>2025-11-21T10:42:42.000Z</time>
      </trkpt>
      <trkpt lat="44.47968" lon="6.19581">
        <ele>991</ele>
        <time>2025-11-21T10:42:43.000Z</time>
      </trkpt>
      <trkpt lat="44.4797" lon="6.19582">
        <ele>990</ele>
        <time>2025-11-21T10:42:44.000Z</time>
      </trkpt>
      <trkpt lat="44.47971" lon="6.19581">
        <ele>990</ele>
        <time>2025-11-21T10:42:45.000Z</time>
      </trkpt>
      <trkpt lat="44.47972" lon="6.19581">
        <ele>991</ele>
        <time>2025-11-21T10:42:46.000Z</time>
      </trkpt>
      <trkpt lat="44.47973" lon="6.1958">
        <ele>991</ele>
        <time>2025-11-21T10:42:47.000Z</time>
      </trkpt>
      <trkpt lat="44.47974" lon="6.19579">
        <ele>990</ele>
        <time>2025-11-21T10:42:48.000Z</time>
      </trkpt>
      <trkpt lat="44.47975" lon="6.19578">
        <ele>990</ele>
        <time>2025-11-21T10:42:49.000Z</time>
      </trkpt>
      <trkpt lat="44.47976" lon="6.19578">
        <ele>990</ele>
        <time>2025-11-21T10:42:50.000Z</time>
      </trkpt>
      <trkpt lat="44.47977" lon="6.19577">
        <ele>991</ele>
        <time>2025-11-21T10:42:51.000Z</time>
      </trkpt>
      <trkpt lat="44.47978" lon="6.19578">
        <ele>990</ele>
        <time>2025-11-21T10:42:52.000Z</time>
      </trkpt>
      <trkpt lat="44.47979" lon="6.19578">
        <ele>990</ele>
        <time>2025-11-21T10:42:53.000Z</time>
      </trkpt>
      <trkpt lat="44.4798" lon="6.19578">
        <ele>990</ele>
        <time>2025-11-21T10:42:54.000Z</time>
      </trkpt>
      <trkpt lat="44.47981" lon="6.19579">
        <ele>989</ele>
        <time>2025-11-21T10:42:55.000Z</time>
      </trkpt>
      <trkpt lat="44.47981" lon="6.19579">
        <ele>989</ele>
        <time>2025-11-21T10:42:56.000Z</time>
      </trkpt>
      <trkpt lat="44.47982" lon="6.19579">
        <ele>990</ele>
        <time>2025-11-21T10:42:57.000Z</time>
      </trkpt>
      <trkpt lat="44.47983" lon="6.19579">
        <ele>989</ele>
        <time>2025-11-21T10:42:58.000Z</time>
      </trkpt>
      <trkpt lat="44.47984" lon="6.19578">
        <ele>990</ele>
        <time>2025-11-21T10:42:59.000Z</time>
      </trkpt>
      <trkpt lat="44.47985" lon="6.19578">
        <ele>990</ele>
        <time>2025-11-21T10:43:00.000Z</time>
      </trkpt>
      <trkpt lat="44.47985" lon="6.19578">
        <ele>990</ele>
        <time>2025-11-21T10:43:01.000Z</time>
      </trkpt>
      <trkpt lat="44.47986" lon="6.19577">
        <ele>989</ele>
        <time>2025-11-21T10:43:02.000Z</time>
      </trkpt>
      <trkpt lat="44.47986" lon="6.19576">
        <ele>989</ele>
        <time>2025-11-21T10:43:03.000Z</time>
      </trkpt>
      <trkpt lat="44.47986" lon="6.19576">
        <ele>989</ele>
        <time>2025-11-21T10:43:04.000Z</time>
      </trkpt>
      <trkpt lat="44.47987" lon="6.19574">
        <ele>990</ele>
        <time>2025-11-21T10:43:05.000Z</time>
      </trkpt>
      <trkpt lat="44.47988" lon="6.19572">
        <ele>990</ele>
        <time>2025-11-21T10:43:06.000Z</time>
      </trkpt>
      <trkpt lat="44.47989" lon="6.19571">
        <ele>990</ele>
        <time>2025-11-21T10:43:07.000Z</time>
      </trkpt>
      <trkpt lat="44.47989" lon="6.19571">
        <ele>990</ele>
        <time>2025-11-21T10:43:08.000Z</time>
      </trkpt>
      <trkpt lat="44.4799" lon="6.19569">
        <ele>990</ele>
        <time>2025-11-21T10:43:09.000Z</time>
      </trkpt>
      <trkpt lat="44.47991" lon="6.19568">
        <ele>991</ele>
        <time>2025-11-21T10:43:10.000Z</time>
      </trkpt>
      <trkpt lat="44.47992" lon="6.19567">
        <ele>991</ele>
        <time>2025-11-21T10:43:11.000Z</time>
      </trkpt>
      <trkpt lat="44.47993" lon="6.19566">
        <ele>991</ele>
        <time>2025-11-21T10:43:12.000Z</time>
      </trkpt>
      <trkpt lat="44.47994" lon="6.19565">
        <ele>991</ele>
        <time>2025-11-21T10:43:13.000Z</time>
      </trkpt>
      <trkpt lat="44.47994" lon="6.19564">
        <ele>991</ele>
        <time>2025-11-21T10:43:14.000Z</time>
      </trkpt>
      <trkpt lat="44.47995" lon="6.19563">
        <ele>991</ele>
        <time>2025-11-21T10:43:15.000Z</time>
      </trkpt>
      <trkpt lat="44.47995" lon="6.19563">
        <ele>991</ele>
        <time>2025-11-21T10:43:16.000Z</time>
      </trkpt>
      <trkpt lat="44.47995" lon="6.19563">
        <ele>991</ele>
        <time>2025-11-21T10:43:17.000Z</time>
      </trkpt>
      <trkpt lat="44.47995" lon="6.1956">
        <ele>992</ele>
        <time>2025-11-21T10:43:18.000Z</time>
      </trkpt>
      <trkpt lat="44.47995" lon="6.19559">
        <ele>992</ele>
        <time>2025-11-21T10:43:19.000Z</time>
      </trkpt>
      <trkpt lat="44.47995" lon="6.19558">
        <ele>992</ele>
        <time>2025-11-21T10:43:20.000Z</time>
      </trkpt>
      <trkpt lat="44.47995" lon="6.19557">
        <ele>993</ele>
        <time>2025-11-21T10:43:21.000Z</time>
      </trkpt>
      <trkpt lat="44.47995" lon="6.19557">
        <ele>993</ele>
        <time>2025-11-21T10:43:22.000Z</time>
      </trkpt>
      <trkpt lat="44.47995" lon="6.19554">
        <ele>992</ele>
        <time>2025-11-21T10:43:23.000Z</time>
      </trkpt>
      <trkpt lat="44.47996" lon="6.19552">
        <ele>992</ele>
        <time>2025-11-21T10:43:24.000Z</time>
      </trkpt>
      <trkpt lat="44.47996" lon="6.1955">
        <ele>993</ele>
        <time>2025-11-21T10:43:25.000Z</time>
      </trkpt>
      <trkpt lat="44.47997" lon="6.19548">
        <ele>993</ele>
        <time>2025-11-21T10:43:26.000Z</time>
      </trkpt>
      <trkpt lat="44.47998" lon="6.19547">
        <ele>993</ele>
        <time>2025-11-21T10:43:27.000Z</time>
      </trkpt>
      <trkpt lat="44.47998" lon="6.19546">
        <ele>994</ele>
        <time>2025-11-21T10:43:28.000Z</time>
      </trkpt>
      <trkpt lat="44.47999" lon="6.19545">
        <ele>994</ele>
        <time>2025-11-21T10:43:29.000Z</time>
      </trkpt>
      <trkpt lat="44.47998" lon="6.19544">
        <ele>995</ele>
        <time>2025-11-21T10:43:30.000Z</time>
      </trkpt>
      <trkpt lat="44.47998" lon="6.19543">
        <ele>995</ele>
        <time>2025-11-21T10:43:31.000Z</time>
      </trkpt>
      <trkpt lat="44.47998" lon="6.19542">
        <ele>996</ele>
        <time>2025-11-21T10:43:32.000Z</time>
      </trkpt>
      <trkpt lat="44.47997" lon="6.19542">
        <ele>996</ele>
        <time>2025-11-21T10:43:33.000Z</time>
      </trkpt>
      <trkpt lat="44.47997" lon="6.19541">
        <ele>996</ele>
        <time>2025-11-21T10:43:34.000Z</time>
      </trkpt>
      <trkpt lat="44.47996" lon="6.1954">
        <ele>996</ele>
        <time>2025-11-21T10:43:35.000Z</time>
      </trkpt>
      <trkpt lat="44.47996" lon="6.19539">
        <ele>995</ele>
        <time>2025-11-21T10:43:36.000Z</time>
      </trkpt>
      <trkpt lat="44.47995" lon="6.19537">
        <ele>995</ele>
        <time>2025-11-21T10:43:37.000Z</time>
      </trkpt>
      <trkpt lat="44.47995" lon="6.19536">
        <ele>996</ele>
        <time>2025-11-21T10:43:38.000Z</time>
      </trkpt>
      <trkpt lat="44.47995" lon="6.19534">
        <ele>996</ele>
        <time>2025-11-21T10:43:39.000Z</time>
      </trkpt>
      <trkpt lat="44.47995" lon="6.19532">
        <ele>996</ele>
        <time>2025-11-21T10:43:40.000Z</time>
      </trkpt>
      <trkpt lat="44.47996" lon="6.19531">
        <ele>996</ele>
        <time>2025-11-21T10:43:41.000Z</time>
      </trkpt>
      <trkpt lat="44.47997" lon="6.19529">
        <ele>996</ele>
        <time>2025-11-21T10:43:42.000Z</time>
      </trkpt>
      <trkpt lat="44.47997" lon="6.19528">
        <ele>996</ele>
        <time>2025-11-21T10:43:43.000Z</time>
      </trkpt>
      <trkpt lat="44.47997" lon="6.19528">
        <ele>997</ele>
        <time>2025-11-21T10:43:44.000Z</time>
      </trkpt>
      <trkpt lat="44.47997" lon="6.19527">
        <ele>996</ele>
        <time>2025-11-21T10:43:45.000Z</time>
      </trkpt>
      <trkpt lat="44.47997" lon="6.19525">
        <ele>996</ele>
        <time>2025-11-21T10:43:46.000Z</time>
      </trkpt>
      <trkpt lat="44.47998" lon="6.19524">
        <ele>997</ele>
        <time>2025-11-21T10:43:47.000Z</time>
      </trkpt>
      <trkpt lat="44.47998" lon="6.19523">
        <ele>997</ele>
        <time>2025-11-21T10:43:48.000Z</time>
      </trkpt>
      <trkpt lat="44.47998" lon="6.19521">
        <ele>997</ele>
        <time>2025-11-21T10:43:49.000Z</time>
      </trkpt>
      <trkpt lat="44.47998" lon="6.1952">
        <ele>997</ele>
        <time>2025-11-21T10:43:50.000Z</time>
      </trkpt>
      <trkpt lat="44.47999" lon="6.1952">
        <ele>997</ele>
        <time>2025-11-21T10:43:51.000Z</time>
      </trkpt>
      <trkpt lat="44.47999" lon="6.19519">
        <ele>998</ele>
        <time>2025-11-21T10:43:52.000Z</time>
      </trkpt>
      <trkpt lat="44.47999" lon="6.19518">
        <ele>998</ele>
        <time>2025-11-21T10:43:53.000Z</time>
      </trkpt>
      <trkpt lat="44.47998" lon="6.19517">
        <ele>998</ele>
        <time>2025-11-21T10:43:54.000Z</time>
      </trkpt>
      <trkpt lat="44.47998" lon="6.19517">
        <ele>998</ele>
        <time>2025-11-21T10:43:55.000Z</time>
      </trkpt>
      <trkpt lat="44.47999" lon="6.19517">
        <ele>997</ele>
        <time>2025-11-21T10:43:56.000Z</time>
      </trkpt>
      <trkpt lat="44.47999" lon="6.19515">
        <ele>998</ele>
        <time>2025-11-21T10:43:57.000Z</time>
      </trkpt>
      <trkpt lat="44.47998" lon="6.19515">
        <ele>999</ele>
        <time>2025-11-21T10:43:58.000Z</time>
      </trkpt>
      <trkpt lat="44.47998" lon="6.19514">
        <ele>998</ele>
        <time>2025-11-21T10:43:59.000Z</time>
      </trkpt>
      <trkpt lat="44.47997" lon="6.19512">
        <ele>997</ele>
        <time>2025-11-21T10:44:00.000Z</time>
      </trkpt>
      <trkpt lat="44.47996" lon="6.19512">
        <ele>998</ele>
        <time>2025-11-21T10:44:01.000Z</time>
      </trkpt>
      <trkpt lat="44.47997" lon="6.1951">
        <ele>999</ele>
        <time>2025-11-21T10:44:02.000Z</time>
      </trkpt>
      <trkpt lat="44.47996" lon="6.1951">
        <ele>999</ele>
        <time>2025-11-21T10:44:03.000Z</time>
      </trkpt>
      <trkpt lat="44.47996" lon="6.19509">
        <ele>999</ele>
        <time>2025-11-21T10:44:04.000Z</time>
      </trkpt>
      <trkpt lat="44.47997" lon="6.19508">
        <ele>999</ele>
        <time>2025-11-21T10:44:05.000Z</time>
      </trkpt>
      <trkpt lat="44.47996" lon="6.19509">
        <ele>998</ele>
        <time>2025-11-21T10:44:06.000Z</time>
      </trkpt>
      <trkpt lat="44.47996" lon="6.19509">
        <ele>999</ele>
        <time>2025-11-21T10:44:07.000Z</time>
      </trkpt>
      <trkpt lat="44.47995" lon="6.19509">
        <ele>999</ele>
        <time>2025-11-21T10:44:08.000Z</time>
      </trkpt>
      <trkpt lat="44.47995" lon="6.19508">
        <ele>999</ele>
        <time>2025-11-21T10:44:09.000Z</time>
      </trkpt>
      <trkpt lat="44.47994" lon="6.19508">
        <ele>999</ele>
        <time>2025-11-21T10:44:10.000Z</time>
      </trkpt>
      <trkpt lat="44.47992" lon="6.19509">
        <ele>999</ele>
        <time>2025-11-21T10:44:11.000Z</time>
      </trkpt>
      <trkpt lat="44.47991" lon="6.19508">
        <ele>999</ele>
        <time>2025-11-21T10:44:12.000Z</time>
      </trkpt>
      <trkpt lat="44.4799" lon="6.19507">
        <ele>1000</ele>
        <time>2025-11-21T10:44:13.000Z</time>
      </trkpt>
      <trkpt lat="44.47989" lon="6.19506">
        <ele>1000</ele>
        <time>2025-11-21T10:44:14.000Z</time>
      </trkpt>
      <trkpt lat="44.47988" lon="6.19506">
        <ele>1001</ele>
        <time>2025-11-21T10:44:15.000Z</time>
      </trkpt>
      <trkpt lat="44.47987" lon="6.19505">
        <ele>1000</ele>
        <time>2025-11-21T10:44:16.000Z</time>
      </trkpt>
      <trkpt lat="44.47986" lon="6.19505">
        <ele>1000</ele>
        <time>2025-11-21T10:44:17.000Z</time>
      </trkpt>
      <trkpt lat="44.47985" lon="6.19504">
        <ele>1001</ele>
        <time>2025-11-21T10:44:18.000Z</time>
      </trkpt>
      <trkpt lat="44.47984" lon="6.19505">
        <ele>1001</ele>
        <time>2025-11-21T10:44:19.000Z</time>
      </trkpt>
      <trkpt lat="44.47983" lon="6.19504">
        <ele>1001</ele>
        <time>2025-11-21T10:44:20.000Z</time>
      </trkpt>
      <trkpt lat="44.47983" lon="6.19504">
        <ele>1001</ele>
        <time>2025-11-21T10:44:21.000Z</time>
      </trkpt>
      <trkpt lat="44.4798" lon="6.19504">
        <ele>1000</ele>
        <time>2025-11-21T10:44:22.000Z</time>
      </trkpt>
      <trkpt lat="44.47979" lon="6.19504">
        <ele>999</ele>
        <time>2025-11-21T10:44:23.000Z</time>
      </trkpt>
      <trkpt lat="44.47978" lon="6.19504">
        <ele>999</ele>
        <time>2025-11-21T10:44:24.000Z</time>
      </trkpt>
      <trkpt lat="44.47977" lon="6.19504">
        <ele>999</ele>
        <time>2025-11-21T10:44:25.000Z</time>
      </trkpt>
      <trkpt lat="44.47976" lon="6.19503">
        <ele>998</ele>
        <time>2025-11-21T10:44:26.000Z</time>
      </trkpt>
      <trkpt lat="44.47975" lon="6.19503">
        <ele>998</ele>
        <time>2025-11-21T10:44:27.000Z</time>
      </trkpt>
      <trkpt lat="44.47974" lon="6.19502">
        <ele>999</ele>
        <time>2025-11-21T10:44:28.000Z</time>
      </trkpt>
      <trkpt lat="44.47973" lon="6.19501">
        <ele>998</ele>
        <time>2025-11-21T10:44:29.000Z</time>
      </trkpt>
      <trkpt lat="44.47973" lon="6.195">
        <ele>998</ele>
        <time>2025-11-21T10:44:30.000Z</time>
      </trkpt>
      <trkpt lat="44.47972" lon="6.19498">
        <ele>998</ele>
        <time>2025-11-21T10:44:31.000Z</time>
      </trkpt>
      <trkpt lat="44.47971" lon="6.19496">
        <ele>999</ele>
        <time>2025-11-21T10:44:32.000Z</time>
      </trkpt>
      <trkpt lat="44.47971" lon="6.19495">
        <ele>999</ele>
        <time>2025-11-21T10:44:33.000Z</time>
      </trkpt>
      <trkpt lat="44.47971" lon="6.19493">
        <ele>1000</ele>
        <time>2025-11-21T10:44:34.000Z</time>
      </trkpt>
      <trkpt lat="44.47971" lon="6.19491">
        <ele>1000</ele>
        <time>2025-11-21T10:44:35.000Z</time>
      </trkpt>
      <trkpt lat="44.47971" lon="6.1949">
        <ele>1000</ele>
        <time>2025-11-21T10:44:36.000Z</time>
      </trkpt>
      <trkpt lat="44.47971" lon="6.19489">
        <ele>1001</ele>
        <time>2025-11-21T10:44:37.000Z</time>
      </trkpt>
      <trkpt lat="44.47971" lon="6.19489">
        <ele>1002</ele>
        <time>2025-11-21T10:44:38.000Z</time>
      </trkpt>
      <trkpt lat="44.4797" lon="6.19487">
        <ele>1002</ele>
        <time>2025-11-21T10:44:39.000Z</time>
      </trkpt>
      <trkpt lat="44.4797" lon="6.19487">
        <ele>1002</ele>
        <time>2025-11-21T10:44:40.000Z</time>
      </trkpt>
      <trkpt lat="44.47971" lon="6.19484">
        <ele>1002</ele>
        <time>2025-11-21T10:44:41.000Z</time>
      </trkpt>
      <trkpt lat="44.47971" lon="6.19482">
        <ele>1003</ele>
        <time>2025-11-21T10:44:42.000Z</time>
      </trkpt>
      <trkpt lat="44.47971" lon="6.1948">
        <ele>1003</ele>
        <time>2025-11-21T10:44:43.000Z</time>
      </trkpt>
      <trkpt lat="44.4797" lon="6.19479">
        <ele>1004</ele>
        <time>2025-11-21T10:44:44.000Z</time>
      </trkpt>
      <trkpt lat="44.4797" lon="6.19477">
        <ele>1004</ele>
        <time>2025-11-21T10:44:45.000Z</time>
      </trkpt>
      <trkpt lat="44.4797" lon="6.19476">
        <ele>1005</ele>
        <time>2025-11-21T10:44:46.000Z</time>
      </trkpt>
      <trkpt lat="44.47971" lon="6.19474">
        <ele>1004</ele>
        <time>2025-11-21T10:44:47.000Z</time>
      </trkpt>
      <trkpt lat="44.47971" lon="6.19473">
        <ele>1005</ele>
        <time>2025-11-21T10:44:48.000Z</time>
      </trkpt>
      <trkpt lat="44.47972" lon="6.1947">
        <ele>1006</ele>
        <time>2025-11-21T10:44:49.000Z</time>
      </trkpt>
      <trkpt lat="44.47972" lon="6.19469">
        <ele>1006</ele>
        <time>2025-11-21T10:44:50.000Z</time>
      </trkpt>
      <trkpt lat="44.47973" lon="6.19468">
        <ele>1005</ele>
        <time>2025-11-21T10:44:51.000Z</time>
      </trkpt>
      <trkpt lat="44.47972" lon="6.19467">
        <ele>1006</ele>
        <time>2025-11-21T10:44:52.000Z</time>
      </trkpt>
      <trkpt lat="44.47972" lon="6.19466">
        <ele>1006</ele>
        <time>2025-11-21T10:44:53.000Z</time>
      </trkpt>
      <trkpt lat="44.47973" lon="6.19465">
        <ele>1006</ele>
        <time>2025-11-21T10:44:54.000Z</time>
      </trkpt>
      <trkpt lat="44.47972" lon="6.19464">
        <ele>1006</ele>
        <time>2025-11-21T10:44:55.000Z</time>
      </trkpt>
      <trkpt lat="44.47972" lon="6.19462">
        <ele>1007</ele>
        <time>2025-11-21T10:44:56.000Z</time>
      </trkpt>
      <trkpt lat="44.47972" lon="6.19461">
        <ele>1008</ele>
        <time>2025-11-21T10:44:57.000Z</time>
      </trkpt>
      <trkpt lat="44.47972" lon="6.19459">
        <ele>1008</ele>
        <time>2025-11-21T10:44:58.000Z</time>
      </trkpt>
      <trkpt lat="44.47972" lon="6.19458">
        <ele>1008</ele>
        <time>2025-11-21T10:44:59.000Z</time>
      </trkpt>
      <trkpt lat="44.47972" lon="6.19457">
        <ele>1008</ele>
        <time>2025-11-21T10:45:00.000Z</time>
      </trkpt>
      <trkpt lat="44.47972" lon="6.19455">
        <ele>1009</ele>
        <time>2025-11-21T10:45:01.000Z</time>
      </trkpt>
      <trkpt lat="44.47973" lon="6.19453">
        <ele>1009</ele>
        <time>2025-11-21T10:45:02.000Z</time>
      </trkpt>
      <trkpt lat="44.47973" lon="6.19452">
        <ele>1009</ele>
        <time>2025-11-21T10:45:03.000Z</time>
      </trkpt>
      <trkpt lat="44.47973" lon="6.19452">
        <ele>1010</ele>
        <time>2025-11-21T10:45:04.000Z</time>
      </trkpt>
      <trkpt lat="44.47973" lon="6.19451">
        <ele>1010</ele>
        <time>2025-11-21T10:45:05.000Z</time>
      </trkpt>
      <trkpt lat="44.47973" lon="6.1945">
        <ele>1009</ele>
        <time>2025-11-21T10:45:06.000Z</time>
      </trkpt>
      <trkpt lat="44.47972" lon="6.19449">
        <ele>1010</ele>
        <time>2025-11-21T10:45:07.000Z</time>
      </trkpt>
      <trkpt lat="44.47972" lon="6.19448">
        <ele>1010</ele>
        <time>2025-11-21T10:45:08.000Z</time>
      </trkpt>
      <trkpt lat="44.4797" lon="6.19447">
        <ele>1010</ele>
        <time>2025-11-21T10:45:09.000Z</time>
      </trkpt>
      <trkpt lat="44.4797" lon="6.19445">
        <ele>1011</ele>
        <time>2025-11-21T10:45:10.000Z</time>
      </trkpt>
      <trkpt lat="44.4797" lon="6.19445">
        <ele>1011</ele>
        <time>2025-11-21T10:45:11.000Z</time>
      </trkpt>
      <trkpt lat="44.47969" lon="6.19442">
        <ele>1012</ele>
        <time>2025-11-21T10:45:12.000Z</time>
      </trkpt>
      <trkpt lat="44.47969" lon="6.19441">
        <ele>1012</ele>
        <time>2025-11-21T10:45:13.000Z</time>
      </trkpt>
      <trkpt lat="44.47969" lon="6.19439">
        <ele>1012</ele>
        <time>2025-11-21T10:45:14.000Z</time>
      </trkpt>
      <trkpt lat="44.47969" lon="6.19438">
        <ele>1012</ele>
        <time>2025-11-21T10:45:15.000Z</time>
      </trkpt>
      <trkpt lat="44.47968" lon="6.19437">
        <ele>1012</ele>
        <time>2025-11-21T10:45:16.000Z</time>
      </trkpt>
      <trkpt lat="44.47969" lon="6.19438">
        <ele>1012</ele>
        <time>2025-11-21T10:45:17.000Z</time>
      </trkpt>
      <trkpt lat="44.47969" lon="6.19438">
        <ele>1012</ele>
        <time>2025-11-21T10:45:18.000Z</time>
      </trkpt>
      <trkpt lat="44.4797" lon="6.1944">
        <ele>1011</ele>
        <time>2025-11-21T10:45:19.000Z</time>
      </trkpt>
      <trkpt lat="44.47971" lon="6.19441">
        <ele>1011</ele>
        <time>2025-11-21T10:45:20.000Z</time>
      </trkpt>
      <trkpt lat="44.47972" lon="6.19442">
        <ele>1010</ele>
        <time>2025-11-21T10:45:21.000Z</time>
      </trkpt>
      <trkpt lat="44.47973" lon="6.19443">
        <ele>1011</ele>
        <time>2025-11-21T10:45:22.000Z</time>
      </trkpt>
      <trkpt lat="44.47973" lon="6.19444">
        <ele>1011</ele>
        <time>2025-11-21T10:45:23.000Z</time>
      </trkpt>
      <trkpt lat="44.47974" lon="6.19446">
        <ele>1010</ele>
        <time>2025-11-21T10:45:24.000Z</time>
      </trkpt>
      <trkpt lat="44.47974" lon="6.19447">
        <ele>1010</ele>
        <time>2025-11-21T10:45:25.000Z</time>
      </trkpt>
      <trkpt lat="44.47975" lon="6.19447">
        <ele>1009</ele>
        <time>2025-11-21T10:45:26.000Z</time>
      </trkpt>
      <trkpt lat="44.47975" lon="6.19447">
        <ele>1009</ele>
        <time>2025-11-21T10:45:27.000Z</time>
      </trkpt>
      <trkpt lat="44.47976" lon="6.19447">
        <ele>1009</ele>
        <time>2025-11-21T10:45:28.000Z</time>
      </trkpt>
      <trkpt lat="44.47976" lon="6.19447">
        <ele>1010</ele>
        <time>2025-11-21T10:45:29.000Z</time>
      </trkpt>
      <trkpt lat="44.47977" lon="6.19448">
        <ele>1009</ele>
        <time>2025-11-21T10:45:30.000Z</time>
      </trkpt>
      <trkpt lat="44.47977" lon="6.19449">
        <ele>1009</ele>
        <time>2025-11-21T10:45:31.000Z</time>
      </trkpt>
      <trkpt lat="44.47977" lon="6.1945">
        <ele>1010</ele>
        <time>2025-11-21T10:45:32.000Z</time>
      </trkpt>
      <trkpt lat="44.47978" lon="6.19452">
        <ele>1010</ele>
        <time>2025-11-21T10:45:33.000Z</time>
      </trkpt>
      <trkpt lat="44.47978" lon="6.19453">
        <ele>1010</ele>
        <time>2025-11-21T10:45:34.000Z</time>
      </trkpt>
      <trkpt lat="44.47978" lon="6.19454">
        <ele>1010</ele>
        <time>2025-11-21T10:45:35.000Z</time>
      </trkpt>
      <trkpt lat="44.47978" lon="6.19454">
        <ele>1010</ele>
        <time>2025-11-21T10:45:36.000Z</time>
      </trkpt>
      <trkpt lat="44.47979" lon="6.19456">
        <ele>1009</ele>
        <time>2025-11-21T10:45:37.000Z</time>
      </trkpt>
      <trkpt lat="44.47979" lon="6.19456">
        <ele>1009</ele>
        <time>2025-11-21T10:45:38.000Z</time>
      </trkpt>
      <trkpt lat="44.4798" lon="6.19456">
        <ele>1009</ele>
        <time>2025-11-21T10:45:39.000Z</time>
      </trkpt>
      <trkpt lat="44.47981" lon="6.19456">
        <ele>1009</ele>
        <time>2025-11-21T10:45:40.000Z</time>
      </trkpt>
      <trkpt lat="44.47982" lon="6.19457">
        <ele>1008</ele>
        <time>2025-11-21T10:45:41.000Z</time>
      </trkpt>
      <trkpt lat="44.47982" lon="6.19457">
        <ele>1009</ele>
        <time>2025-11-21T10:45:42.000Z</time>
      </trkpt>
      <trkpt lat="44.47983" lon="6.19457">
        <ele>1009</ele>
        <time>2025-11-21T10:45:43.000Z</time>
      </trkpt>
      <trkpt lat="44.47983" lon="6.19457">
        <ele>1008</ele>
        <time>2025-11-21T10:45:44.000Z</time>
      </trkpt>
      <trkpt lat="44.47984" lon="6.19458">
        <ele>1009</ele>
        <time>2025-11-21T10:45:45.000Z</time>
      </trkpt>
      <trkpt lat="44.47985" lon="6.19459">
        <ele>1009</ele>
        <time>2025-11-21T10:45:46.000Z</time>
      </trkpt>
      <trkpt lat="44.47985" lon="6.1946">
        <ele>1009</ele>
        <time>2025-11-21T10:45:47.000Z</time>
      </trkpt>
      <trkpt lat="44.47986" lon="6.1946">
        <ele>1008</ele>
        <time>2025-11-21T10:45:48.000Z</time>
      </trkpt>
      <trkpt lat="44.47986" lon="6.1946">
        <ele>1008</ele>
        <time>2025-11-21T10:45:49.000Z</time>
      </trkpt>
      <trkpt lat="44.47987" lon="6.1946">
        <ele>1009</ele>
        <time>2025-11-21T10:45:50.000Z</time>
      </trkpt>
      <trkpt lat="44.47987" lon="6.1946">
        <ele>1009</ele>
        <time>2025-11-21T10:45:51.000Z</time>
      </trkpt>
      <trkpt lat="44.47987" lon="6.1946">
        <ele>1009</ele>
        <time>2025-11-21T10:45:52.000Z</time>
      </trkpt>
      <trkpt lat="44.47988" lon="6.19458">
        <ele>1009</ele>
        <time>2025-11-21T10:45:53.000Z</time>
      </trkpt>
      <trkpt lat="44.47988" lon="6.19458">
        <ele>1009</ele>
        <time>2025-11-21T10:45:54.000Z</time>
      </trkpt>
      <trkpt lat="44.47988" lon="6.19458">
        <ele>1010</ele>
        <time>2025-11-21T10:45:55.000Z</time>
      </trkpt>
      <trkpt lat="44.47988" lon="6.19458">
        <ele>1011</ele>
        <time>2025-11-21T10:45:56.000Z</time>
      </trkpt>
      <trkpt lat="44.47989" lon="6.19458">
        <ele>1011</ele>
        <time>2025-11-21T10:45:57.000Z</time>
      </trkpt>
      <trkpt lat="44.4799" lon="6.19458">
        <ele>1012</ele>
        <time>2025-11-21T10:45:58.000Z</time>
      </trkpt>
      <trkpt lat="44.4799" lon="6.19457">
        <ele>1012</ele>
        <time>2025-11-21T10:45:59.000Z</time>
      </trkpt>
      <trkpt lat="44.4799" lon="6.19457">
        <ele>1011</ele>
        <time>2025-11-21T10:46:00.000Z</time>
      </trkpt>
      <trkpt lat="44.4799" lon="6.19456">
        <ele>1011</ele>
        <time>2025-11-21T10:46:01.000Z</time>
      </trkpt>
      <trkpt lat="44.4799" lon="6.19456">
        <ele>1011</ele>
        <time>2025-11-21T10:46:02.000Z</time>
      </trkpt>
      <trkpt lat="44.47991" lon="6.19454">
        <ele>1010</ele>
        <time>2025-11-21T10:46:03.000Z</time>
      </trkpt>
      <trkpt lat="44.47992" lon="6.19453">
        <ele>1009</ele>
        <time>2025-11-21T10:46:04.000Z</time>
      </trkpt>
      <trkpt lat="44.47992" lon="6.19452">
        <ele>1010</ele>
        <time>2025-11-21T10:46:05.000Z</time>
      </trkpt>
      <trkpt lat="44.47992" lon="6.19451">
        <ele>1010</ele>
        <time>2025-11-21T10:46:06.000Z</time>
      </trkpt>
      <trkpt lat="44.47992" lon="6.1945">
        <ele>1010</ele>
        <time>2025-11-21T10:46:07.000Z</time>
      </trkpt>
      <trkpt lat="44.47993" lon="6.1945">
        <ele>1010</ele>
        <time>2025-11-21T10:46:08.000Z</time>
      </trkpt>
      <trkpt lat="44.47993" lon="6.19449">
        <ele>1010</ele>
        <time>2025-11-21T10:46:09.000Z</time>
      </trkpt>
      <trkpt lat="44.47993" lon="6.19449">
        <ele>1010</ele>
        <time>2025-11-21T10:46:10.000Z</time>
      </trkpt>
      <trkpt lat="44.47993" lon="6.19449">
        <ele>1010</ele>
        <time>2025-11-21T10:46:11.000Z</time>
      </trkpt>
      <trkpt lat="44.47994" lon="6.19449">
        <ele>1008</ele>
        <time>2025-11-21T10:46:12.000Z</time>
      </trkpt>
      <trkpt lat="44.47994" lon="6.19449">
        <ele>1009</ele>
        <time>2025-11-21T10:46:13.000Z</time>
      </trkpt>
      <trkpt lat="44.47995" lon="6.19448">
        <ele>1009</ele>
        <time>2025-11-21T10:46:14.000Z</time>
      </trkpt>
      <trkpt lat="44.47996" lon="6.19447">
        <ele>1008</ele>
        <time>2025-11-21T10:46:15.000Z</time>
      </trkpt>
      <trkpt lat="44.47997" lon="6.19448">
        <ele>1008</ele>
        <time>2025-11-21T10:46:16.000Z</time>
      </trkpt>
      <trkpt lat="44.47997" lon="6.19449">
        <ele>1008</ele>
        <time>2025-11-21T10:46:17.000Z</time>
      </trkpt>
      <trkpt lat="44.47998" lon="6.1945">
        <ele>1009</ele>
        <time>2025-11-21T10:46:18.000Z</time>
      </trkpt>
      <trkpt lat="44.47999" lon="6.19449">
        <ele>1009</ele>
        <time>2025-11-21T10:46:19.000Z</time>
      </trkpt>
      <trkpt lat="44.48001" lon="6.19449">
        <ele>1009</ele>
        <time>2025-11-21T10:46:20.000Z</time>
      </trkpt>
      <trkpt lat="44.48001" lon="6.19449">
        <ele>1009</ele>
        <time>2025-11-21T10:46:21.000Z</time>
      </trkpt>
      <trkpt lat="44.48002" lon="6.19447">
        <ele>1009</ele>
        <time>2025-11-21T10:46:22.000Z</time>
      </trkpt>
      <trkpt lat="44.48004" lon="6.19446">
        <ele>1009</ele>
        <time>2025-11-21T10:46:23.000Z</time>
      </trkpt>
      <trkpt lat="44.48004" lon="6.19444">
        <ele>1010</ele>
        <time>2025-11-21T10:46:24.000Z</time>
      </trkpt>
      <trkpt lat="44.48005" lon="6.19443">
        <ele>1010</ele>
        <time>2025-11-21T10:46:25.000Z</time>
      </trkpt>
      <trkpt lat="44.48007" lon="6.19442">
        <ele>1010</ele>
        <time>2025-11-21T10:46:26.000Z</time>
      </trkpt>
      <trkpt lat="44.48007" lon="6.19442">
        <ele>1010</ele>
        <time>2025-11-21T10:46:27.000Z</time>
      </trkpt>
      <trkpt lat="44.48008" lon="6.19442">
        <ele>1010</ele>
        <time>2025-11-21T10:46:28.000Z</time>
      </trkpt>
      <trkpt lat="44.48009" lon="6.19442">
        <ele>1011</ele>
        <time>2025-11-21T10:46:29.000Z</time>
      </trkpt>
      <trkpt lat="44.48009" lon="6.19442">
        <ele>1011</ele>
        <time>2025-11-21T10:46:30.000Z</time>
      </trkpt>
      <trkpt lat="44.48009" lon="6.19442">
        <ele>1011</ele>
        <time>2025-11-21T10:46:31.000Z</time>
      </trkpt>
      <trkpt lat="44.4801" lon="6.19442">
        <ele>1012</ele>
        <time>2025-11-21T10:46:32.000Z</time>
      </trkpt>
      <trkpt lat="44.48011" lon="6.19442">
        <ele>1012</ele>
        <time>2025-11-21T10:46:33.000Z</time>
      </trkpt>
      <trkpt lat="44.48012" lon="6.19442">
        <ele>1012</ele>
        <time>2025-11-21T10:46:34.000Z</time>
      </trkpt>
      <trkpt lat="44.48013" lon="6.19442">
        <ele>1012</ele>
        <time>2025-11-21T10:46:35.000Z</time>
      </trkpt>
      <trkpt lat="44.48015" lon="6.19442">
        <ele>1012</ele>
        <time>2025-11-21T10:46:36.000Z</time>
      </trkpt>
      <trkpt lat="44.48015" lon="6.19441">
        <ele>1012</ele>
        <time>2025-11-21T10:46:37.000Z</time>
      </trkpt>
      <trkpt lat="44.48016" lon="6.1944">
        <ele>1012</ele>
        <time>2025-11-21T10:46:38.000Z</time>
      </trkpt>
      <trkpt lat="44.48016" lon="6.1944">
        <ele>1013</ele>
        <time>2025-11-21T10:46:39.000Z</time>
      </trkpt>
      <trkpt lat="44.48017" lon="6.19439">
        <ele>1014</ele>
        <time>2025-11-21T10:46:40.000Z</time>
      </trkpt>
      <trkpt lat="44.48017" lon="6.19439">
        <ele>1014</ele>
        <time>2025-11-21T10:46:41.000Z</time>
      </trkpt>
      <trkpt lat="44.48017" lon="6.19439">
        <ele>1014</ele>
        <time>2025-11-21T10:46:42.000Z</time>
      </trkpt>
      <trkpt lat="44.48018" lon="6.19439">
        <ele>1015</ele>
        <time>2025-11-21T10:46:43.000Z</time>
      </trkpt>
      <trkpt lat="44.48019" lon="6.1944">
        <ele>1014</ele>
        <time>2025-11-21T10:46:44.000Z</time>
      </trkpt>
      <trkpt lat="44.4802" lon="6.19441">
        <ele>1013</ele>
        <time>2025-11-21T10:46:45.000Z</time>
      </trkpt>
      <trkpt lat="44.4802" lon="6.19442">
        <ele>1013</ele>
        <time>2025-11-21T10:46:46.000Z</time>
      </trkpt>
      <trkpt lat="44.48022" lon="6.19442">
        <ele>1013</ele>
        <time>2025-11-21T10:46:47.000Z</time>
      </trkpt>
      <trkpt lat="44.48023" lon="6.19443">
        <ele>1013</ele>
        <time>2025-11-21T10:46:48.000Z</time>
      </trkpt>
      <trkpt lat="44.48024" lon="6.19443">
        <ele>1013</ele>
        <time>2025-11-21T10:46:49.000Z</time>
      </trkpt>
      <trkpt lat="44.48025" lon="6.19444">
        <ele>1012</ele>
        <time>2025-11-21T10:46:50.000Z</time>
      </trkpt>
      <trkpt lat="44.48026" lon="6.19446">
        <ele>1012</ele>
        <time>2025-11-21T10:46:51.000Z</time>
      </trkpt>
      <trkpt lat="44.48026" lon="6.19446">
        <ele>1012</ele>
        <time>2025-11-21T10:46:52.000Z</time>
      </trkpt>
      <trkpt lat="44.48026" lon="6.19446">
        <ele>1012</ele>
        <time>2025-11-21T10:46:53.000Z</time>
      </trkpt>
      <trkpt lat="44.48028" lon="6.19447">
        <ele>1015</ele>
        <time>2025-11-21T10:46:54.000Z</time>
      </trkpt>
      <trkpt lat="44.48028" lon="6.19449">
        <ele>1015</ele>
        <time>2025-11-21T10:46:55.000Z</time>
      </trkpt>
      <trkpt lat="44.48028" lon="6.1945">
        <ele>1015</ele>
        <time>2025-11-21T10:46:56.000Z</time>
      </trkpt>
      <trkpt lat="44.48029" lon="6.19451">
        <ele>1015</ele>
        <time>2025-11-21T10:46:57.000Z</time>
      </trkpt>
      <trkpt lat="44.4803" lon="6.19452">
        <ele>1015</ele>
        <time>2025-11-21T10:46:58.000Z</time>
      </trkpt>
      <trkpt lat="44.4803" lon="6.19453">
        <ele>1014</ele>
        <time>2025-11-21T10:46:59.000Z</time>
      </trkpt>
      <trkpt lat="44.48031" lon="6.19454">
        <ele>1014</ele>
        <time>2025-11-21T10:47:00.000Z</time>
      </trkpt>
      <trkpt lat="44.48032" lon="6.19455">
        <ele>1015</ele>
        <time>2025-11-21T10:47:01.000Z</time>
      </trkpt>
      <trkpt lat="44.48032" lon="6.19455">
        <ele>1015</ele>
        <time>2025-11-21T10:47:02.000Z</time>
      </trkpt>
      <trkpt lat="44.48033" lon="6.19457">
        <ele>1015</ele>
        <time>2025-11-21T10:47:03.000Z</time>
      </trkpt>
      <trkpt lat="44.48034" lon="6.19458">
        <ele>1015</ele>
        <time>2025-11-21T10:47:04.000Z</time>
      </trkpt>
      <trkpt lat="44.48035" lon="6.19458">
        <ele>1015</ele>
        <time>2025-11-21T10:47:05.000Z</time>
      </trkpt>
      <trkpt lat="44.48035" lon="6.19459">
        <ele>1016</ele>
        <time>2025-11-21T10:47:06.000Z</time>
      </trkpt>
      <trkpt lat="44.48036" lon="6.19459">
        <ele>1016</ele>
        <time>2025-11-21T10:47:07.000Z</time>
      </trkpt>
      <trkpt lat="44.48036" lon="6.1946">
        <ele>1016</ele>
        <time>2025-11-21T10:47:08.000Z</time>
      </trkpt>
      <trkpt lat="44.48037" lon="6.19461">
        <ele>1017</ele>
        <time>2025-11-21T10:47:09.000Z</time>
      </trkpt>
      <trkpt lat="44.48038" lon="6.19462">
        <ele>1017</ele>
        <time>2025-11-21T10:47:10.000Z</time>
      </trkpt>
      <trkpt lat="44.48038" lon="6.19464">
        <ele>1017</ele>
        <time>2025-11-21T10:47:11.000Z</time>
      </trkpt>
      <trkpt lat="44.48038" lon="6.19465">
        <ele>1017</ele>
        <time>2025-11-21T10:47:12.000Z</time>
      </trkpt>
      <trkpt lat="44.48039" lon="6.19466">
        <ele>1017</ele>
        <time>2025-11-21T10:47:13.000Z</time>
      </trkpt>
      <trkpt lat="44.48039" lon="6.19466">
        <ele>1017</ele>
        <time>2025-11-21T10:47:14.000Z</time>
      </trkpt>
      <trkpt lat="44.4804" lon="6.19466">
        <ele>1018</ele>
        <time>2025-11-21T10:47:15.000Z</time>
      </trkpt>
      <trkpt lat="44.48041" lon="6.19466">
        <ele>1018</ele>
        <time>2025-11-21T10:47:16.000Z</time>
      </trkpt>
      <trkpt lat="44.48042" lon="6.19466">
        <ele>1019</ele>
        <time>2025-11-21T10:47:17.000Z</time>
      </trkpt>
      <trkpt lat="44.48043" lon="6.19465">
        <ele>1019</ele>
        <time>2025-11-21T10:47:18.000Z</time>
      </trkpt>
      <trkpt lat="44.48044" lon="6.19466">
        <ele>1019</ele>
        <time>2025-11-21T10:47:19.000Z</time>
      </trkpt>
      <trkpt lat="44.48045" lon="6.19466">
        <ele>1019</ele>
        <time>2025-11-21T10:47:20.000Z</time>
      </trkpt>
      <trkpt lat="44.48045" lon="6.19467">
        <ele>1019</ele>
        <time>2025-11-21T10:47:21.000Z</time>
      </trkpt>
      <trkpt lat="44.48046" lon="6.19467">
        <ele>1018</ele>
        <time>2025-11-21T10:47:22.000Z</time>
      </trkpt>
      <trkpt lat="44.48047" lon="6.19468">
        <ele>1018</ele>
        <time>2025-11-21T10:47:23.000Z</time>
      </trkpt>
      <trkpt lat="44.48047" lon="6.19468">
        <ele>1018</ele>
        <time>2025-11-21T10:47:24.000Z</time>
      </trkpt>
      <trkpt lat="44.48048" lon="6.1947">
        <ele>1018</ele>
        <time>2025-11-21T10:47:25.000Z</time>
      </trkpt>
      <trkpt lat="44.48049" lon="6.19471">
        <ele>1018</ele>
        <time>2025-11-21T10:47:26.000Z</time>
      </trkpt>
      <trkpt lat="44.48049" lon="6.19474">
        <ele>1018</ele>
        <time>2025-11-21T10:47:27.000Z</time>
      </trkpt>
      <trkpt lat="44.4805" lon="6.19475">
        <ele>1018</ele>
        <time>2025-11-21T10:47:28.000Z</time>
      </trkpt>
      <trkpt lat="44.48051" lon="6.19476">
        <ele>1017</ele>
        <time>2025-11-21T10:47:29.000Z</time>
      </trkpt>
      <trkpt lat="44.48052" lon="6.19478">
        <ele>1017</ele>
        <time>2025-11-21T10:47:30.000Z</time>
      </trkpt>
      <trkpt lat="44.48053" lon="6.19479">
        <ele>1018</ele>
        <time>2025-11-21T10:47:31.000Z</time>
      </trkpt>
      <trkpt lat="44.48054" lon="6.1948">
        <ele>1017</ele>
        <time>2025-11-21T10:47:32.000Z</time>
      </trkpt>
      <trkpt lat="44.48055" lon="6.19481">
        <ele>1017</ele>
        <time>2025-11-21T10:47:33.000Z</time>
      </trkpt>
      <trkpt lat="44.48056" lon="6.19482">
        <ele>1017</ele>
        <time>2025-11-21T10:47:34.000Z</time>
      </trkpt>
      <trkpt lat="44.48058" lon="6.19482">
        <ele>1017</ele>
        <time>2025-11-21T10:47:35.000Z</time>
      </trkpt>
      <trkpt lat="44.48059" lon="6.19482">
        <ele>1017</ele>
        <time>2025-11-21T10:47:36.000Z</time>
      </trkpt>
      <trkpt lat="44.48059" lon="6.19483">
        <ele>1017</ele>
        <time>2025-11-21T10:47:37.000Z</time>
      </trkpt>
      <trkpt lat="44.48059" lon="6.19483">
        <ele>1017</ele>
        <time>2025-11-21T10:47:38.000Z</time>
      </trkpt>
      <trkpt lat="44.4806" lon="6.19482">
        <ele>1017</ele>
        <time>2025-11-21T10:47:39.000Z</time>
      </trkpt>
      <trkpt lat="44.4806" lon="6.19483">
        <ele>1017</ele>
        <time>2025-11-21T10:47:40.000Z</time>
      </trkpt>
      <trkpt lat="44.48061" lon="6.19483">
        <ele>1018</ele>
        <time>2025-11-21T10:47:41.000Z</time>
      </trkpt>
      <trkpt lat="44.48061" lon="6.19483">
        <ele>1017</ele>
        <time>2025-11-21T10:47:42.000Z</time>
      </trkpt>
      <trkpt lat="44.48062" lon="6.19485">
        <ele>1018</ele>
        <time>2025-11-21T10:47:43.000Z</time>
      </trkpt>
      <trkpt lat="44.48062" lon="6.19486">
        <ele>1018</ele>
        <time>2025-11-21T10:47:44.000Z</time>
      </trkpt>
      <trkpt lat="44.48063" lon="6.19487">
        <ele>1018</ele>
        <time>2025-11-21T10:47:45.000Z</time>
      </trkpt>
      <trkpt lat="44.48063" lon="6.19488">
        <ele>1018</ele>
        <time>2025-11-21T10:47:46.000Z</time>
      </trkpt>
      <trkpt lat="44.48064" lon="6.19489">
        <ele>1018</ele>
        <time>2025-11-21T10:47:47.000Z</time>
      </trkpt>
      <trkpt lat="44.48064" lon="6.19489">
        <ele>1018</ele>
        <time>2025-11-21T10:47:48.000Z</time>
      </trkpt>
      <trkpt lat="44.48065" lon="6.1949">
        <ele>1017</ele>
        <time>2025-11-21T10:47:49.000Z</time>
      </trkpt>
      <trkpt lat="44.48067" lon="6.19492">
        <ele>1017</ele>
        <time>2025-11-21T10:47:50.000Z</time>
      </trkpt>
      <trkpt lat="44.48068" lon="6.19493">
        <ele>1018</ele>
        <time>2025-11-21T10:47:51.000Z</time>
      </trkpt>
      <trkpt lat="44.48069" lon="6.19495">
        <ele>1018</ele>
        <time>2025-11-21T10:47:52.000Z</time>
      </trkpt>
      <trkpt lat="44.4807" lon="6.19496">
        <ele>1019</ele>
        <time>2025-11-21T10:47:53.000Z</time>
      </trkpt>
      <trkpt lat="44.4807" lon="6.19497">
        <ele>1019</ele>
        <time>2025-11-21T10:47:54.000Z</time>
      </trkpt>
      <trkpt lat="44.48071" lon="6.19497">
        <ele>1019</ele>
        <time>2025-11-21T10:47:55.000Z</time>
      </trkpt>
      <trkpt lat="44.48072" lon="6.19498">
        <ele>1019</ele>
        <time>2025-11-21T10:47:56.000Z</time>
      </trkpt>
      <trkpt lat="44.48072" lon="6.19498">
        <ele>1019</ele>
        <time>2025-11-21T10:47:57.000Z</time>
      </trkpt>
      <trkpt lat="44.48073" lon="6.19499">
        <ele>1019</ele>
        <time>2025-11-21T10:47:58.000Z</time>
      </trkpt>
      <trkpt lat="44.48073" lon="6.195">
        <ele>1019</ele>
        <time>2025-11-21T10:47:59.000Z</time>
      </trkpt>
      <trkpt lat="44.48074" lon="6.195">
        <ele>1019</ele>
        <time>2025-11-21T10:48:00.000Z</time>
      </trkpt>
      <trkpt lat="44.48074" lon="6.19502">
        <ele>1020</ele>
        <time>2025-11-21T10:48:01.000Z</time>
      </trkpt>
      <trkpt lat="44.48075" lon="6.19504">
        <ele>1020</ele>
        <time>2025-11-21T10:48:02.000Z</time>
      </trkpt>
      <trkpt lat="44.48076" lon="6.19506">
        <ele>1020</ele>
        <time>2025-11-21T10:48:03.000Z</time>
      </trkpt>
      <trkpt lat="44.48077" lon="6.19507">
        <ele>1020</ele>
        <time>2025-11-21T10:48:04.000Z</time>
      </trkpt>
      <trkpt lat="44.48077" lon="6.19508">
        <ele>1020</ele>
        <time>2025-11-21T10:48:05.000Z</time>
      </trkpt>
      <trkpt lat="44.48077" lon="6.19509">
        <ele>1021</ele>
        <time>2025-11-21T10:48:06.000Z</time>
      </trkpt>
      <trkpt lat="44.48078" lon="6.19508">
        <ele>1021</ele>
        <time>2025-11-21T10:48:07.000Z</time>
      </trkpt>
      <trkpt lat="44.48079" lon="6.19508">
        <ele>1021</ele>
        <time>2025-11-21T10:48:08.000Z</time>
      </trkpt>
      <trkpt lat="44.48081" lon="6.1951">
        <ele>1022</ele>
        <time>2025-11-21T10:48:09.000Z</time>
      </trkpt>
      <trkpt lat="44.48082" lon="6.1951">
        <ele>1022</ele>
        <time>2025-11-21T10:48:10.000Z</time>
      </trkpt>
      <trkpt lat="44.48082" lon="6.19511">
        <ele>1022</ele>
        <time>2025-11-21T10:48:11.000Z</time>
      </trkpt>
      <trkpt lat="44.48083" lon="6.19511">
        <ele>1022</ele>
        <time>2025-11-21T10:48:12.000Z</time>
      </trkpt>
      <trkpt lat="44.48084" lon="6.19511">
        <ele>1023</ele>
        <time>2025-11-21T10:48:13.000Z</time>
      </trkpt>
      <trkpt lat="44.48085" lon="6.19509">
        <ele>1022</ele>
        <time>2025-11-21T10:48:14.000Z</time>
      </trkpt>
      <trkpt lat="44.48086" lon="6.19507">
        <ele>1022</ele>
        <time>2025-11-21T10:48:15.000Z</time>
      </trkpt>
      <trkpt lat="44.48086" lon="6.19507">
        <ele>1022</ele>
        <time>2025-11-21T10:48:16.000Z</time>
      </trkpt>
      <trkpt lat="44.48086" lon="6.19507">
        <ele>1022</ele>
        <time>2025-11-21T10:48:17.000Z</time>
      </trkpt>
      <trkpt lat="44.48088" lon="6.19509">
        <ele>1023</ele>
        <time>2025-11-21T10:48:18.000Z</time>
      </trkpt>
      <trkpt lat="44.48089" lon="6.1951">
        <ele>1023</ele>
        <time>2025-11-21T10:48:19.000Z</time>
      </trkpt>
      <trkpt lat="44.4809" lon="6.19511">
        <ele>1023</ele>
        <time>2025-11-21T10:48:20.000Z</time>
      </trkpt>
      <trkpt lat="44.48091" lon="6.19511">
        <ele>1023</ele>
        <time>2025-11-21T10:48:21.000Z</time>
      </trkpt>
      <trkpt lat="44.48092" lon="6.19512">
        <ele>1022</ele>
        <time>2025-11-21T10:48:22.000Z</time>
      </trkpt>
      <trkpt lat="44.48093" lon="6.19513">
        <ele>1022</ele>
        <time>2025-11-21T10:48:23.000Z</time>
      </trkpt>
      <trkpt lat="44.48094" lon="6.19514">
        <ele>1022</ele>
        <time>2025-11-21T10:48:24.000Z</time>
      </trkpt>
      <trkpt lat="44.48095" lon="6.19514">
        <ele>1023</ele>
        <time>2025-11-21T10:48:25.000Z</time>
      </trkpt>
      <trkpt lat="44.48096" lon="6.19515">
        <ele>1023</ele>
        <time>2025-11-21T10:48:26.000Z</time>
      </trkpt>
      <trkpt lat="44.48097" lon="6.19516">
        <ele>1023</ele>
        <time>2025-11-21T10:48:27.000Z</time>
      </trkpt>
      <trkpt lat="44.48098" lon="6.19517">
        <ele>1023</ele>
        <time>2025-11-21T10:48:28.000Z</time>
      </trkpt>
      <trkpt lat="44.48099" lon="6.19518">
        <ele>1023</ele>
        <time>2025-11-21T10:48:29.000Z</time>
      </trkpt>
      <trkpt lat="44.481" lon="6.19518">
        <ele>1024</ele>
        <time>2025-11-21T10:48:30.000Z</time>
      </trkpt>
      <trkpt lat="44.481" lon="6.19519">
        <ele>1024</ele>
        <time>2025-11-21T10:48:31.000Z</time>
      </trkpt>
      <trkpt lat="44.48101" lon="6.19521">
        <ele>1025</ele>
        <time>2025-11-21T10:48:32.000Z</time>
      </trkpt>
      <trkpt lat="44.48101" lon="6.19522">
        <ele>1026</ele>
        <time>2025-11-21T10:48:33.000Z</time>
      </trkpt>
      <trkpt lat="44.48101" lon="6.19523">
        <ele>1026</ele>
        <time>2025-11-21T10:48:34.000Z</time>
      </trkpt>
      <trkpt lat="44.48102" lon="6.19525">
        <ele>1027</ele>
        <time>2025-11-21T10:48:35.000Z</time>
      </trkpt>
      <trkpt lat="44.48103" lon="6.19527">
        <ele>1026</ele>
        <time>2025-11-21T10:48:36.000Z</time>
      </trkpt>
      <trkpt lat="44.48102" lon="6.19528">
        <ele>1027</ele>
        <time>2025-11-21T10:48:37.000Z</time>
      </trkpt>
      <trkpt lat="44.48102" lon="6.19529">
        <ele>1027</ele>
        <time>2025-11-21T10:48:38.000Z</time>
      </trkpt>
      <trkpt lat="44.48102" lon="6.1953">
        <ele>1026</ele>
        <time>2025-11-21T10:48:39.000Z</time>
      </trkpt>
      <trkpt lat="44.48103" lon="6.19531">
        <ele>1027</ele>
        <time>2025-11-21T10:48:40.000Z</time>
      </trkpt>
      <trkpt lat="44.48104" lon="6.19533">
        <ele>1027</ele>
        <time>2025-11-21T10:48:41.000Z</time>
      </trkpt>
      <trkpt lat="44.48104" lon="6.19534">
        <ele>1028</ele>
        <time>2025-11-21T10:48:42.000Z</time>
      </trkpt>
      <trkpt lat="44.48104" lon="6.19535">
        <ele>1028</ele>
        <time>2025-11-21T10:48:43.000Z</time>
      </trkpt>
      <trkpt lat="44.48105" lon="6.19537">
        <ele>1028</ele>
        <time>2025-11-21T10:48:44.000Z</time>
      </trkpt>
      <trkpt lat="44.48105" lon="6.19538">
        <ele>1029</ele>
        <time>2025-11-21T10:48:45.000Z</time>
      </trkpt>
      <trkpt lat="44.48106" lon="6.1954">
        <ele>1030</ele>
        <time>2025-11-21T10:48:46.000Z</time>
      </trkpt>
      <trkpt lat="44.48106" lon="6.19542">
        <ele>1030</ele>
        <time>2025-11-21T10:48:47.000Z</time>
      </trkpt>
      <trkpt lat="44.48107" lon="6.19543">
        <ele>1030</ele>
        <time>2025-11-21T10:48:48.000Z</time>
      </trkpt>
      <trkpt lat="44.48107" lon="6.19545">
        <ele>1030</ele>
        <time>2025-11-21T10:48:49.000Z</time>
      </trkpt>
      <trkpt lat="44.48108" lon="6.19544">
        <ele>1031</ele>
        <time>2025-11-21T10:48:50.000Z</time>
      </trkpt>
      <trkpt lat="44.48108" lon="6.19544">
        <ele>1031</ele>
        <time>2025-11-21T10:48:51.000Z</time>
      </trkpt>
      <trkpt lat="44.48108" lon="6.19546">
        <ele>1031</ele>
        <time>2025-11-21T10:48:52.000Z</time>
      </trkpt>
      <trkpt lat="44.48108" lon="6.19548">
        <ele>1031</ele>
        <time>2025-11-21T10:48:53.000Z</time>
      </trkpt>
      <trkpt lat="44.48108" lon="6.19548">
        <ele>1033</ele>
        <time>2025-11-21T10:48:54.000Z</time>
      </trkpt>
      <trkpt lat="44.48108" lon="6.19548">
        <ele>1033</ele>
        <time>2025-11-21T10:48:55.000Z</time>
      </trkpt>
      <trkpt lat="44.48107" lon="6.19549">
        <ele>1034</ele>
        <time>2025-11-21T10:48:56.000Z</time>
      </trkpt>
      <trkpt lat="44.48107" lon="6.19549">
        <ele>1034</ele>
        <time>2025-11-21T10:48:57.000Z</time>
      </trkpt>
      <trkpt lat="44.48107" lon="6.19549">
        <ele>1034</ele>
        <time>2025-11-21T10:48:58.000Z</time>
      </trkpt>
      <trkpt lat="44.48107" lon="6.19549">
        <ele>1034</ele>
        <time>2025-11-21T10:48:59.000Z</time>
      </trkpt>
      <trkpt lat="44.48108" lon="6.19552">
        <ele>1034</ele>
        <time>2025-11-21T10:49:00.000Z</time>
      </trkpt>
      <trkpt lat="44.4811" lon="6.19552">
        <ele>1035</ele>
        <time>2025-11-21T10:49:01.000Z</time>
      </trkpt>
      <trkpt lat="44.48111" lon="6.19552">
        <ele>1036</ele>
        <time>2025-11-21T10:49:02.000Z</time>
      </trkpt>
      <trkpt lat="44.48112" lon="6.19552">
        <ele>1037</ele>
        <time>2025-11-21T10:49:03.000Z</time>
      </trkpt>
      <trkpt lat="44.48113" lon="6.19552">
        <ele>1038</ele>
        <time>2025-11-21T10:49:04.000Z</time>
      </trkpt>
      <trkpt lat="44.48114" lon="6.19553">
        <ele>1037</ele>
        <time>2025-11-21T10:49:05.000Z</time>
      </trkpt>
      <trkpt lat="44.48115" lon="6.19553">
        <ele>1037</ele>
        <time>2025-11-21T10:49:06.000Z</time>
      </trkpt>
      <trkpt lat="44.48116" lon="6.19554">
        <ele>1036</ele>
        <time>2025-11-21T10:49:07.000Z</time>
      </trkpt>
      <trkpt lat="44.48116" lon="6.19556">
        <ele>1037</ele>
        <time>2025-11-21T10:49:08.000Z</time>
      </trkpt>
      <trkpt lat="44.48117" lon="6.19556">
        <ele>1036</ele>
        <time>2025-11-21T10:49:09.000Z</time>
      </trkpt>
      <trkpt lat="44.48118" lon="6.19557">
        <ele>1035</ele>
        <time>2025-11-21T10:49:10.000Z</time>
      </trkpt>
      <trkpt lat="44.48117" lon="6.19557">
        <ele>1034</ele>
        <time>2025-11-21T10:49:11.000Z</time>
      </trkpt>
      <trkpt lat="44.48118" lon="6.19558">
        <ele>1034</ele>
        <time>2025-11-21T10:49:12.000Z</time>
      </trkpt>
      <trkpt lat="44.48117" lon="6.19559">
        <ele>1033</ele>
        <time>2025-11-21T10:49:13.000Z</time>
      </trkpt>
      <trkpt lat="44.48117" lon="6.1956">
        <ele>1032</ele>
        <time>2025-11-21T10:49:14.000Z</time>
      </trkpt>
      <trkpt lat="44.48118" lon="6.19561">
        <ele>1032</ele>
        <time>2025-11-21T10:49:15.000Z</time>
      </trkpt>
      <trkpt lat="44.48119" lon="6.19561">
        <ele>1031</ele>
        <time>2025-11-21T10:49:16.000Z</time>
      </trkpt>
      <trkpt lat="44.48119" lon="6.19562">
        <ele>1031</ele>
        <time>2025-11-21T10:49:17.000Z</time>
      </trkpt>
      <trkpt lat="44.4812" lon="6.19563">
        <ele>1032</ele>
        <time>2025-11-21T10:49:18.000Z</time>
      </trkpt>
      <trkpt lat="44.48121" lon="6.19564">
        <ele>1031</ele>
        <time>2025-11-21T10:49:19.000Z</time>
      </trkpt>
      <trkpt lat="44.48121" lon="6.19563">
        <ele>1032</ele>
        <time>2025-11-21T10:49:20.000Z</time>
      </trkpt>
      <trkpt lat="44.48123" lon="6.19562">
        <ele>1032</ele>
        <time>2025-11-21T10:49:21.000Z</time>
      </trkpt>
      <trkpt lat="44.48124" lon="6.19562">
        <ele>1033</ele>
        <time>2025-11-21T10:49:22.000Z</time>
      </trkpt>
      <trkpt lat="44.48125" lon="6.19562">
        <ele>1034</ele>
        <time>2025-11-21T10:49:23.000Z</time>
      </trkpt>
      <trkpt lat="44.48125" lon="6.19563">
        <ele>1035</ele>
        <time>2025-11-21T10:49:24.000Z</time>
      </trkpt>
      <trkpt lat="44.48126" lon="6.19564">
        <ele>1035</ele>
        <time>2025-11-21T10:49:25.000Z</time>
      </trkpt>
      <trkpt lat="44.48127" lon="6.19565">
        <ele>1036</ele>
        <time>2025-11-21T10:49:26.000Z</time>
      </trkpt>
      <trkpt lat="44.48127" lon="6.19565">
        <ele>1036</ele>
        <time>2025-11-21T10:49:27.000Z</time>
      </trkpt>
      <trkpt lat="44.48127" lon="6.19565">
        <ele>1036</ele>
        <time>2025-11-21T10:49:28.000Z</time>
      </trkpt>
      <trkpt lat="44.48128" lon="6.19565">
        <ele>1036</ele>
        <time>2025-11-21T10:49:29.000Z</time>
      </trkpt>
      <trkpt lat="44.48129" lon="6.19564">
        <ele>1035</ele>
        <time>2025-11-21T10:49:30.000Z</time>
      </trkpt>
      <trkpt lat="44.4813" lon="6.19565">
        <ele>1035</ele>
        <time>2025-11-21T10:49:31.000Z</time>
      </trkpt>
      <trkpt lat="44.4813" lon="6.19566">
        <ele>1036</ele>
        <time>2025-11-21T10:49:32.000Z</time>
      </trkpt>
      <trkpt lat="44.48131" lon="6.19566">
        <ele>1037</ele>
        <time>2025-11-21T10:49:33.000Z</time>
      </trkpt>
      <trkpt lat="44.48132" lon="6.19568">
        <ele>1037</ele>
        <time>2025-11-21T10:49:34.000Z</time>
      </trkpt>
      <trkpt lat="44.48133" lon="6.19569">
        <ele>1038</ele>
        <time>2025-11-21T10:49:35.000Z</time>
      </trkpt>
      <trkpt lat="44.48132" lon="6.1957">
        <ele>1038</ele>
        <time>2025-11-21T10:49:36.000Z</time>
      </trkpt>
      <trkpt lat="44.48133" lon="6.19571">
        <ele>1038</ele>
        <time>2025-11-21T10:49:37.000Z</time>
      </trkpt>
      <trkpt lat="44.48133" lon="6.19572">
        <ele>1038</ele>
        <time>2025-11-21T10:49:38.000Z</time>
      </trkpt>
      <trkpt lat="44.48133" lon="6.19574">
        <ele>1038</ele>
        <time>2025-11-21T10:49:39.000Z</time>
      </trkpt>
      <trkpt lat="44.48134" lon="6.19575">
        <ele>1038</ele>
        <time>2025-11-21T10:49:40.000Z</time>
      </trkpt>
      <trkpt lat="44.48135" lon="6.19576">
        <ele>1039</ele>
        <time>2025-11-21T10:49:41.000Z</time>
      </trkpt>
      <trkpt lat="44.48137" lon="6.19577">
        <ele>1039</ele>
        <time>2025-11-21T10:49:42.000Z</time>
      </trkpt>
      <trkpt lat="44.48138" lon="6.19578">
        <ele>1040</ele>
        <time>2025-11-21T10:49:43.000Z</time>
      </trkpt>
      <trkpt lat="44.48138" lon="6.19579">
        <ele>1040</ele>
        <time>2025-11-21T10:49:44.000Z</time>
      </trkpt>
      <trkpt lat="44.4814" lon="6.19578">
        <ele>1040</ele>
        <time>2025-11-21T10:49:45.000Z</time>
      </trkpt>
      <trkpt lat="44.48141" lon="6.19579">
        <ele>1041</ele>
        <time>2025-11-21T10:49:46.000Z</time>
      </trkpt>
      <trkpt lat="44.48141" lon="6.1958">
        <ele>1041</ele>
        <time>2025-11-21T10:49:47.000Z</time>
      </trkpt>
      <trkpt lat="44.48142" lon="6.19582">
        <ele>1042</ele>
        <time>2025-11-21T10:49:48.000Z</time>
      </trkpt>
      <trkpt lat="44.48142" lon="6.19584">
        <ele>1042</ele>
        <time>2025-11-21T10:49:49.000Z</time>
      </trkpt>
      <trkpt lat="44.48142" lon="6.19584">
        <ele>1042</ele>
        <time>2025-11-21T10:49:50.000Z</time>
      </trkpt>
      <trkpt lat="44.48142" lon="6.19583">
        <ele>1041</ele>
        <time>2025-11-21T10:49:51.000Z</time>
      </trkpt>
      <trkpt lat="44.48142" lon="6.19583">
        <ele>1042</ele>
        <time>2025-11-21T10:49:52.000Z</time>
      </trkpt>
      <trkpt lat="44.48143" lon="6.19583">
        <ele>1042</ele>
        <time>2025-11-21T10:49:53.000Z</time>
      </trkpt>
      <trkpt lat="44.48143" lon="6.19583">
        <ele>1042</ele>
        <time>2025-11-21T10:49:54.000Z</time>
      </trkpt>
      <trkpt lat="44.48143" lon="6.19583">
        <ele>1042</ele>
        <time>2025-11-21T10:49:55.000Z</time>
      </trkpt>
      <trkpt lat="44.48144" lon="6.19584">
        <ele>1042</ele>
        <time>2025-11-21T10:49:56.000Z</time>
      </trkpt>
      <trkpt lat="44.48144" lon="6.19583">
        <ele>1042</ele>
        <time>2025-11-21T10:49:57.000Z</time>
      </trkpt>
      <trkpt lat="44.48144" lon="6.19582">
        <ele>1042</ele>
        <time>2025-11-21T10:49:58.000Z</time>
      </trkpt>
      <trkpt lat="44.48143" lon="6.19582">
        <ele>1041</ele>
        <time>2025-11-21T10:49:59.000Z</time>
      </trkpt>
      <trkpt lat="44.48144" lon="6.19582">
        <ele>1042</ele>
        <time>2025-11-21T10:50:00.000Z</time>
      </trkpt>
      <trkpt lat="44.48144" lon="6.19583">
        <ele>1042</ele>
        <time>2025-11-21T10:50:01.000Z</time>
      </trkpt>
      <trkpt lat="44.48143" lon="6.19584">
        <ele>1041</ele>
        <time>2025-11-21T10:50:02.000Z</time>
      </trkpt>
      <trkpt lat="44.48143" lon="6.19581">
        <ele>1044</ele>
        <time>2025-11-21T10:51:00.000Z</time>
      </trkpt>
      <trkpt lat="44.48143" lon="6.19582">
        <ele>1044</ele>
        <time>2025-11-21T10:51:01.000Z</time>
      </trkpt>
      <trkpt lat="44.48144" lon="6.19583">
        <ele>1044</ele>
        <time>2025-11-21T10:51:02.000Z</time>
      </trkpt>
      <trkpt lat="44.48145" lon="6.19583">
        <ele>1043</ele>
        <time>2025-11-21T10:51:03.000Z</time>
      </trkpt>
      <trkpt lat="44.48145" lon="6.19585">
        <ele>1043</ele>
        <time>2025-11-21T10:51:04.000Z</time>
      </trkpt>
      <trkpt lat="44.48146" lon="6.19585">
        <ele>1044</ele>
        <time>2025-11-21T10:51:05.000Z</time>
      </trkpt>
      <trkpt lat="44.48147" lon="6.19586">
        <ele>1043</ele>
        <time>2025-11-21T10:51:06.000Z</time>
      </trkpt>
      <trkpt lat="44.48147" lon="6.19585">
        <ele>1044</ele>
        <time>2025-11-21T10:51:07.000Z</time>
      </trkpt>
      <trkpt lat="44.48147" lon="6.19586">
        <ele>1044</ele>
        <time>2025-11-21T10:51:08.000Z</time>
      </trkpt>
      <trkpt lat="44.48148" lon="6.19587">
        <ele>1044</ele>
        <time>2025-11-21T10:51:09.000Z</time>
      </trkpt>
      <trkpt lat="44.48149" lon="6.19588">
        <ele>1044</ele>
        <time>2025-11-21T10:51:10.000Z</time>
      </trkpt>
      <trkpt lat="44.4815" lon="6.19589">
        <ele>1044</ele>
        <time>2025-11-21T10:51:11.000Z</time>
      </trkpt>
      <trkpt lat="44.48151" lon="6.19589">
        <ele>1043</ele>
        <time>2025-11-21T10:51:12.000Z</time>
      </trkpt>
      <trkpt lat="44.48152" lon="6.19589">
        <ele>1043</ele>
        <time>2025-11-21T10:51:13.000Z</time>
      </trkpt>
      <trkpt lat="44.48153" lon="6.1959">
        <ele>1043</ele>
        <time>2025-11-21T10:51:14.000Z</time>
      </trkpt>
      <trkpt lat="44.48153" lon="6.1959">
        <ele>1042</ele>
        <time>2025-11-21T10:51:15.000Z</time>
      </trkpt>
      <trkpt lat="44.48153" lon="6.19591">
        <ele>1042</ele>
        <time>2025-11-21T10:51:16.000Z</time>
      </trkpt>
      <trkpt lat="44.48154" lon="6.19591">
        <ele>1042</ele>
        <time>2025-11-21T10:51:17.000Z</time>
      </trkpt>
      <trkpt lat="44.48155" lon="6.19593">
        <ele>1041</ele>
        <time>2025-11-21T10:51:18.000Z</time>
      </trkpt>
      <trkpt lat="44.48156" lon="6.19593">
        <ele>1041</ele>
        <time>2025-11-21T10:51:19.000Z</time>
      </trkpt>
      <trkpt lat="44.48156" lon="6.19594">
        <ele>1041</ele>
        <time>2025-11-21T10:51:20.000Z</time>
      </trkpt>
      <trkpt lat="44.48158" lon="6.19594">
        <ele>1042</ele>
        <time>2025-11-21T10:51:21.000Z</time>
      </trkpt>
      <trkpt lat="44.48159" lon="6.19595">
        <ele>1042</ele>
        <time>2025-11-21T10:51:22.000Z</time>
      </trkpt>
      <trkpt lat="44.48159" lon="6.19596">
        <ele>1042</ele>
        <time>2025-11-21T10:51:23.000Z</time>
      </trkpt>
      <trkpt lat="44.4816" lon="6.19596">
        <ele>1043</ele>
        <time>2025-11-21T10:51:24.000Z</time>
      </trkpt>
      <trkpt lat="44.48161" lon="6.19597">
        <ele>1042</ele>
        <time>2025-11-21T10:51:25.000Z</time>
      </trkpt>
      <trkpt lat="44.48161" lon="6.19597">
        <ele>1043</ele>
        <time>2025-11-21T10:51:26.000Z</time>
      </trkpt>
      <trkpt lat="44.48162" lon="6.19598">
        <ele>1043</ele>
        <time>2025-11-21T10:51:27.000Z</time>
      </trkpt>
      <trkpt lat="44.48162" lon="6.19599">
        <ele>1042</ele>
        <time>2025-11-21T10:51:28.000Z</time>
      </trkpt>
      <trkpt lat="44.48163" lon="6.19601">
        <ele>1043</ele>
        <time>2025-11-21T10:51:29.000Z</time>
      </trkpt>
      <trkpt lat="44.48164" lon="6.19602">
        <ele>1044</ele>
        <time>2025-11-21T10:51:30.000Z</time>
      </trkpt>
      <trkpt lat="44.48165" lon="6.19603">
        <ele>1044</ele>
        <time>2025-11-21T10:51:31.000Z</time>
      </trkpt>
      <trkpt lat="44.48165" lon="6.19604">
        <ele>1044</ele>
        <time>2025-11-21T10:51:32.000Z</time>
      </trkpt>
      <trkpt lat="44.48166" lon="6.19604">
        <ele>1043</ele>
        <time>2025-11-21T10:51:33.000Z</time>
      </trkpt>
      <trkpt lat="44.48167" lon="6.19604">
        <ele>1043</ele>
        <time>2025-11-21T10:51:34.000Z</time>
      </trkpt>
      <trkpt lat="44.48169" lon="6.19603">
        <ele>1044</ele>
        <time>2025-11-21T10:51:35.000Z</time>
      </trkpt>
      <trkpt lat="44.48169" lon="6.19602">
        <ele>1045</ele>
        <time>2025-11-21T10:51:36.000Z</time>
      </trkpt>
      <trkpt lat="44.48169" lon="6.19601">
        <ele>1045</ele>
        <time>2025-11-21T10:51:37.000Z</time>
      </trkpt>
      <trkpt lat="44.48169" lon="6.196">
        <ele>1045</ele>
        <time>2025-11-21T10:51:38.000Z</time>
      </trkpt>
      <trkpt lat="44.48168" lon="6.196">
        <ele>1045</ele>
        <time>2025-11-21T10:51:39.000Z</time>
      </trkpt>
      <trkpt lat="44.48168" lon="6.19598">
        <ele>1045</ele>
        <time>2025-11-21T10:51:40.000Z</time>
      </trkpt>
      <trkpt lat="44.48168" lon="6.19597">
        <ele>1047</ele>
        <time>2025-11-21T10:51:41.000Z</time>
      </trkpt>
      <trkpt lat="44.48168" lon="6.19596">
        <ele>1047</ele>
        <time>2025-11-21T10:51:42.000Z</time>
      </trkpt>
      <trkpt lat="44.48169" lon="6.19594">
        <ele>1048</ele>
        <time>2025-11-21T10:51:43.000Z</time>
      </trkpt>
      <trkpt lat="44.48168" lon="6.19594">
        <ele>1049</ele>
        <time>2025-11-21T10:51:44.000Z</time>
      </trkpt>
      <trkpt lat="44.48168" lon="6.19594">
        <ele>1049</ele>
        <time>2025-11-21T10:51:45.000Z</time>
      </trkpt>
      <trkpt lat="44.48167" lon="6.19594">
        <ele>1050</ele>
        <time>2025-11-21T10:51:46.000Z</time>
      </trkpt>
      <trkpt lat="44.48167" lon="6.19593">
        <ele>1050</ele>
        <time>2025-11-21T10:51:47.000Z</time>
      </trkpt>
      <trkpt lat="44.48167" lon="6.19593">
        <ele>1051</ele>
        <time>2025-11-21T10:51:48.000Z</time>
      </trkpt>
      <trkpt lat="44.48167" lon="6.19593">
        <ele>1051</ele>
        <time>2025-11-21T10:51:49.000Z</time>
      </trkpt>
      <trkpt lat="44.48167" lon="6.19589">
        <ele>1051</ele>
        <time>2025-11-21T10:51:50.000Z</time>
      </trkpt>
      <trkpt lat="44.48167" lon="6.19589">
        <ele>1052</ele>
        <time>2025-11-21T10:51:51.000Z</time>
      </trkpt>
      <trkpt lat="44.48167" lon="6.19589">
        <ele>1053</ele>
        <time>2025-11-21T10:51:52.000Z</time>
      </trkpt>
      <trkpt lat="44.48167" lon="6.19588">
        <ele>1054</ele>
        <time>2025-11-21T10:51:53.000Z</time>
      </trkpt>
      <trkpt lat="44.48167" lon="6.19587">
        <ele>1054</ele>
        <time>2025-11-21T10:51:54.000Z</time>
      </trkpt>
      <trkpt lat="44.48167" lon="6.19587">
        <ele>1054</ele>
        <time>2025-11-21T10:51:55.000Z</time>
      </trkpt>
      <trkpt lat="44.48167" lon="6.19587">
        <ele>1054</ele>
        <time>2025-11-21T10:51:56.000Z</time>
      </trkpt>
      <trkpt lat="44.48166" lon="6.19584">
        <ele>1054</ele>
        <time>2025-11-21T10:51:57.000Z</time>
      </trkpt>
      <trkpt lat="44.48165" lon="6.19583">
        <ele>1054</ele>
        <time>2025-11-21T10:51:58.000Z</time>
      </trkpt>
      <trkpt lat="44.48165" lon="6.19582">
        <ele>1054</ele>
        <time>2025-11-21T10:51:59.000Z</time>
      </trkpt>
      <trkpt lat="44.48164" lon="6.19581">
        <ele>1055</ele>
        <time>2025-11-21T10:52:00.000Z</time>
      </trkpt>
      <trkpt lat="44.48163" lon="6.19579">
        <ele>1055</ele>
        <time>2025-11-21T10:52:01.000Z</time>
      </trkpt>
      <trkpt lat="44.48163" lon="6.19577">
        <ele>1055</ele>
        <time>2025-11-21T10:52:02.000Z</time>
      </trkpt>
      <trkpt lat="44.48162" lon="6.19577">
        <ele>1056</ele>
        <time>2025-11-21T10:52:03.000Z</time>
      </trkpt>
      <trkpt lat="44.48162" lon="6.19575">
        <ele>1056</ele>
        <time>2025-11-21T10:52:04.000Z</time>
      </trkpt>
      <trkpt lat="44.48162" lon="6.19574">
        <ele>1057</ele>
        <time>2025-11-21T10:52:05.000Z</time>
      </trkpt>
      <trkpt lat="44.48162" lon="6.19574">
        <ele>1058</ele>
        <time>2025-11-21T10:52:06.000Z</time>
      </trkpt>
      <trkpt lat="44.48162" lon="6.19574">
        <ele>1058</ele>
        <time>2025-11-21T10:52:07.000Z</time>
      </trkpt>
      <trkpt lat="44.48162" lon="6.19573">
        <ele>1058</ele>
        <time>2025-11-21T10:52:08.000Z</time>
      </trkpt>
      <trkpt lat="44.48162" lon="6.19571">
        <ele>1058</ele>
        <time>2025-11-21T10:52:09.000Z</time>
      </trkpt>
      <trkpt lat="44.48162" lon="6.1957">
        <ele>1058</ele>
        <time>2025-11-21T10:52:10.000Z</time>
      </trkpt>
      <trkpt lat="44.48162" lon="6.19568">
        <ele>1059</ele>
        <time>2025-11-21T10:52:11.000Z</time>
      </trkpt>
      <trkpt lat="44.48162" lon="6.19566">
        <ele>1059</ele>
        <time>2025-11-21T10:52:12.000Z</time>
      </trkpt>
      <trkpt lat="44.48162" lon="6.19565">
        <ele>1060</ele>
        <time>2025-11-21T10:52:13.000Z</time>
      </trkpt>
      <trkpt lat="44.48163" lon="6.19563">
        <ele>1060</ele>
        <time>2025-11-21T10:52:14.000Z</time>
      </trkpt>
      <trkpt lat="44.48163" lon="6.19562">
        <ele>1060</ele>
        <time>2025-11-21T10:52:15.000Z</time>
      </trkpt>
      <trkpt lat="44.48162" lon="6.19562">
        <ele>1060</ele>
        <time>2025-11-21T10:52:16.000Z</time>
      </trkpt>
      <trkpt lat="44.48163" lon="6.19563">
        <ele>1059</ele>
        <time>2025-11-21T10:52:17.000Z</time>
      </trkpt>
      <trkpt lat="44.48163" lon="6.19565">
        <ele>1058</ele>
        <time>2025-11-21T10:52:18.000Z</time>
      </trkpt>
      <trkpt lat="44.48163" lon="6.19566">
        <ele>1059</ele>
        <time>2025-11-21T10:52:19.000Z</time>
      </trkpt>
      <trkpt lat="44.48163" lon="6.19567">
        <ele>1059</ele>
        <time>2025-11-21T10:52:20.000Z</time>
      </trkpt>
      <trkpt lat="44.48164" lon="6.19568">
        <ele>1058</ele>
        <time>2025-11-21T10:52:21.000Z</time>
      </trkpt>
      <trkpt lat="44.48165" lon="6.19568">
        <ele>1058</ele>
        <time>2025-11-21T10:52:22.000Z</time>
      </trkpt>
      <trkpt lat="44.48167" lon="6.1957">
        <ele>1057</ele>
        <time>2025-11-21T10:52:23.000Z</time>
      </trkpt>
      <trkpt lat="44.48167" lon="6.19572">
        <ele>1057</ele>
        <time>2025-11-21T10:52:24.000Z</time>
      </trkpt>
      <trkpt lat="44.48167" lon="6.19572">
        <ele>1058</ele>
        <time>2025-11-21T10:52:25.000Z</time>
      </trkpt>
      <trkpt lat="44.48167" lon="6.19574">
        <ele>1059</ele>
        <time>2025-11-21T10:52:26.000Z</time>
      </trkpt>
      <trkpt lat="44.48167" lon="6.19574">
        <ele>1060</ele>
        <time>2025-11-21T10:52:27.000Z</time>
      </trkpt>
      <trkpt lat="44.48168" lon="6.19575">
        <ele>1060</ele>
        <time>2025-11-21T10:52:28.000Z</time>
      </trkpt>
      <trkpt lat="44.4817" lon="6.19575">
        <ele>1060</ele>
        <time>2025-11-21T10:52:29.000Z</time>
      </trkpt>
      <trkpt lat="44.48171" lon="6.19575">
        <ele>1061</ele>
        <time>2025-11-21T10:52:30.000Z</time>
      </trkpt>
      <trkpt lat="44.48171" lon="6.19576">
        <ele>1062</ele>
        <time>2025-11-21T10:52:31.000Z</time>
      </trkpt>
      <trkpt lat="44.48172" lon="6.19576">
        <ele>1061</ele>
        <time>2025-11-21T10:52:32.000Z</time>
      </trkpt>
      <trkpt lat="44.48173" lon="6.19576">
        <ele>1061</ele>
        <time>2025-11-21T10:52:33.000Z</time>
      </trkpt>
      <trkpt lat="44.48173" lon="6.19577">
        <ele>1062</ele>
        <time>2025-11-21T10:52:34.000Z</time>
      </trkpt>
      <trkpt lat="44.48173" lon="6.19578">
        <ele>1062</ele>
        <time>2025-11-21T10:52:35.000Z</time>
      </trkpt>
      <trkpt lat="44.48173" lon="6.19579">
        <ele>1062</ele>
        <time>2025-11-21T10:52:36.000Z</time>
      </trkpt>
      <trkpt lat="44.48173" lon="6.19581">
        <ele>1062</ele>
        <time>2025-11-21T10:52:37.000Z</time>
      </trkpt>
      <trkpt lat="44.48174" lon="6.19581">
        <ele>1062</ele>
        <time>2025-11-21T10:52:38.000Z</time>
      </trkpt>
      <trkpt lat="44.48175" lon="6.19581">
        <ele>1061</ele>
        <time>2025-11-21T10:52:39.000Z</time>
      </trkpt>
      <trkpt lat="44.48176" lon="6.19581">
        <ele>1062</ele>
        <time>2025-11-21T10:52:40.000Z</time>
      </trkpt>
      <trkpt lat="44.48176" lon="6.19582">
        <ele>1063</ele>
        <time>2025-11-21T10:52:41.000Z</time>
      </trkpt>
      <trkpt lat="44.48177" lon="6.19585">
        <ele>1062</ele>
        <time>2025-11-21T10:52:42.000Z</time>
      </trkpt>
      <trkpt lat="44.48178" lon="6.19587">
        <ele>1062</ele>
        <time>2025-11-21T10:52:43.000Z</time>
      </trkpt>
      <trkpt lat="44.48178" lon="6.19588">
        <ele>1062</ele>
        <time>2025-11-21T10:52:44.000Z</time>
      </trkpt>
      <trkpt lat="44.48179" lon="6.19589">
        <ele>1062</ele>
        <time>2025-11-21T10:52:45.000Z</time>
      </trkpt>
      <trkpt lat="44.48179" lon="6.19589">
        <ele>1062</ele>
        <time>2025-11-21T10:52:46.000Z</time>
      </trkpt>
      <trkpt lat="44.4818" lon="6.19589">
        <ele>1062</ele>
        <time>2025-11-21T10:52:47.000Z</time>
      </trkpt>
      <trkpt lat="44.4818" lon="6.19589">
        <ele>1063</ele>
        <time>2025-11-21T10:52:48.000Z</time>
      </trkpt>
      <trkpt lat="44.4818" lon="6.19591">
        <ele>1063</ele>
        <time>2025-11-21T10:52:49.000Z</time>
      </trkpt>
      <trkpt lat="44.48181" lon="6.19592">
        <ele>1063</ele>
        <time>2025-11-21T10:52:50.000Z</time>
      </trkpt>
      <trkpt lat="44.48181" lon="6.19594">
        <ele>1063</ele>
        <time>2025-11-21T10:52:51.000Z</time>
      </trkpt>
      <trkpt lat="44.48182" lon="6.19594">
        <ele>1063</ele>
        <time>2025-11-21T10:52:52.000Z</time>
      </trkpt>
      <trkpt lat="44.48183" lon="6.19595">
        <ele>1063</ele>
        <time>2025-11-21T10:52:53.000Z</time>
      </trkpt>
      <trkpt lat="44.48183" lon="6.19597">
        <ele>1063</ele>
        <time>2025-11-21T10:52:54.000Z</time>
      </trkpt>
      <trkpt lat="44.48184" lon="6.19597">
        <ele>1063</ele>
        <time>2025-11-21T10:52:55.000Z</time>
      </trkpt>
      <trkpt lat="44.48185" lon="6.19598">
        <ele>1062</ele>
        <time>2025-11-21T10:52:56.000Z</time>
      </trkpt>
      <trkpt lat="44.48186" lon="6.19597">
        <ele>1062</ele>
        <time>2025-11-21T10:52:57.000Z</time>
      </trkpt>
      <trkpt lat="44.48187" lon="6.19598">
        <ele>1063</ele>
        <time>2025-11-21T10:52:58.000Z</time>
      </trkpt>
      <trkpt lat="44.48187" lon="6.196">
        <ele>1063</ele>
        <time>2025-11-21T10:52:59.000Z</time>
      </trkpt>
      <trkpt lat="44.48188" lon="6.196">
        <ele>1063</ele>
        <time>2025-11-21T10:53:00.000Z</time>
      </trkpt>
      <trkpt lat="44.48189" lon="6.19601">
        <ele>1063</ele>
        <time>2025-11-21T10:53:01.000Z</time>
      </trkpt>
      <trkpt lat="44.4819" lon="6.19602">
        <ele>1063</ele>
        <time>2025-11-21T10:53:02.000Z</time>
      </trkpt>
      <trkpt lat="44.4819" lon="6.19602">
        <ele>1064</ele>
        <time>2025-11-21T10:53:03.000Z</time>
      </trkpt>
      <trkpt lat="44.48191" lon="6.19601">
        <ele>1064</ele>
        <time>2025-11-21T10:53:04.000Z</time>
      </trkpt>
      <trkpt lat="44.48191" lon="6.19601">
        <ele>1063</ele>
        <time>2025-11-21T10:53:05.000Z</time>
      </trkpt>
      <trkpt lat="44.48192" lon="6.19602">
        <ele>1063</ele>
        <time>2025-11-21T10:53:06.000Z</time>
      </trkpt>
      <trkpt lat="44.48193" lon="6.19603">
        <ele>1063</ele>
        <time>2025-11-21T10:53:07.000Z</time>
      </trkpt>
      <trkpt lat="44.48194" lon="6.19603">
        <ele>1063</ele>
        <time>2025-11-21T10:53:08.000Z</time>
      </trkpt>
      <trkpt lat="44.48195" lon="6.19604">
        <ele>1063</ele>
        <time>2025-11-21T10:53:09.000Z</time>
      </trkpt>
      <trkpt lat="44.48196" lon="6.19605">
        <ele>1062</ele>
        <time>2025-11-21T10:53:10.000Z</time>
      </trkpt>
      <trkpt lat="44.48198" lon="6.19606">
        <ele>1062</ele>
        <time>2025-11-21T10:53:11.000Z</time>
      </trkpt>
      <trkpt lat="44.48199" lon="6.19607">
        <ele>1062</ele>
        <time>2025-11-21T10:53:12.000Z</time>
      </trkpt>
      <trkpt lat="44.482" lon="6.19608">
        <ele>1062</ele>
        <time>2025-11-21T10:53:13.000Z</time>
      </trkpt>
      <trkpt lat="44.48201" lon="6.1961">
        <ele>1062</ele>
        <time>2025-11-21T10:53:14.000Z</time>
      </trkpt>
      <trkpt lat="44.48201" lon="6.19611">
        <ele>1062</ele>
        <time>2025-11-21T10:53:15.000Z</time>
      </trkpt>
      <trkpt lat="44.48202" lon="6.19613">
        <ele>1062</ele>
        <time>2025-11-21T10:53:16.000Z</time>
      </trkpt>
      <trkpt lat="44.48202" lon="6.19614">
        <ele>1063</ele>
        <time>2025-11-21T10:53:17.000Z</time>
      </trkpt>
      <trkpt lat="44.48202" lon="6.19615">
        <ele>1062</ele>
        <time>2025-11-21T10:53:18.000Z</time>
      </trkpt>
      <trkpt lat="44.48202" lon="6.19616">
        <ele>1062</ele>
        <time>2025-11-21T10:53:19.000Z</time>
      </trkpt>
      <trkpt lat="44.48203" lon="6.19617">
        <ele>1062</ele>
        <time>2025-11-21T10:53:20.000Z</time>
      </trkpt>
      <trkpt lat="44.48204" lon="6.19618">
        <ele>1062</ele>
        <time>2025-11-21T10:53:21.000Z</time>
      </trkpt>
      <trkpt lat="44.48206" lon="6.1962">
        <ele>1061</ele>
        <time>2025-11-21T10:53:22.000Z</time>
      </trkpt>
      <trkpt lat="44.48208" lon="6.1962">
        <ele>1060</ele>
        <time>2025-11-21T10:53:23.000Z</time>
      </trkpt>
      <trkpt lat="44.48209" lon="6.19622">
        <ele>1059</ele>
        <time>2025-11-21T10:53:24.000Z</time>
      </trkpt>
      <trkpt lat="44.4821" lon="6.19622">
        <ele>1059</ele>
        <time>2025-11-21T10:53:25.000Z</time>
      </trkpt>
      <trkpt lat="44.48209" lon="6.19623">
        <ele>1058</ele>
        <time>2025-11-21T10:53:26.000Z</time>
      </trkpt>
      <trkpt lat="44.4821" lon="6.19623">
        <ele>1058</ele>
        <time>2025-11-21T10:53:27.000Z</time>
      </trkpt>
      <trkpt lat="44.48211" lon="6.19624">
        <ele>1058</ele>
        <time>2025-11-21T10:53:28.000Z</time>
      </trkpt>
      <trkpt lat="44.48212" lon="6.19625">
        <ele>1059</ele>
        <time>2025-11-21T10:53:29.000Z</time>
      </trkpt>
      <trkpt lat="44.48212" lon="6.19626">
        <ele>1059</ele>
        <time>2025-11-21T10:53:30.000Z</time>
      </trkpt>
      <trkpt lat="44.48212" lon="6.19628">
        <ele>1059</ele>
        <time>2025-11-21T10:53:31.000Z</time>
      </trkpt>
      <trkpt lat="44.48212" lon="6.19629">
        <ele>1059</ele>
        <time>2025-11-21T10:53:32.000Z</time>
      </trkpt>
      <trkpt lat="44.48212" lon="6.19629">
        <ele>1059</ele>
        <time>2025-11-21T10:53:33.000Z</time>
      </trkpt>
      <trkpt lat="44.48212" lon="6.1963">
        <ele>1060</ele>
        <time>2025-11-21T10:53:34.000Z</time>
      </trkpt>
      <trkpt lat="44.48212" lon="6.19631">
        <ele>1061</ele>
        <time>2025-11-21T10:53:35.000Z</time>
      </trkpt>
      <trkpt lat="44.48212" lon="6.19631">
        <ele>1061</ele>
        <time>2025-11-21T10:53:36.000Z</time>
      </trkpt>
      <trkpt lat="44.48213" lon="6.19633">
        <ele>1062</ele>
        <time>2025-11-21T10:53:37.000Z</time>
      </trkpt>
      <trkpt lat="44.48213" lon="6.19633">
        <ele>1062</ele>
        <time>2025-11-21T10:53:38.000Z</time>
      </trkpt>
      <trkpt lat="44.48214" lon="6.19635">
        <ele>1062</ele>
        <time>2025-11-21T10:53:39.000Z</time>
      </trkpt>
      <trkpt lat="44.48215" lon="6.19636">
        <ele>1061</ele>
        <time>2025-11-21T10:53:40.000Z</time>
      </trkpt>
      <trkpt lat="44.48215" lon="6.19636">
        <ele>1062</ele>
        <time>2025-11-21T10:53:41.000Z</time>
      </trkpt>
      <trkpt lat="44.48216" lon="6.19637">
        <ele>1064</ele>
        <time>2025-11-21T10:53:42.000Z</time>
      </trkpt>
      <trkpt lat="44.48216" lon="6.19638">
        <ele>1063</ele>
        <time>2025-11-21T10:53:43.000Z</time>
      </trkpt>
      <trkpt lat="44.48217" lon="6.19639">
        <ele>1064</ele>
        <time>2025-11-21T10:53:44.000Z</time>
      </trkpt>
      <trkpt lat="44.48218" lon="6.1964">
        <ele>1065</ele>
        <time>2025-11-21T10:53:45.000Z</time>
      </trkpt>
      <trkpt lat="44.48218" lon="6.19641">
        <ele>1065</ele>
        <time>2025-11-21T10:53:46.000Z</time>
      </trkpt>
      <trkpt lat="44.48218" lon="6.19641">
        <ele>1064</ele>
        <time>2025-11-21T10:53:47.000Z</time>
      </trkpt>
      <trkpt lat="44.48218" lon="6.19643">
        <ele>1066</ele>
        <time>2025-11-21T10:53:48.000Z</time>
      </trkpt>
      <trkpt lat="44.48218" lon="6.19643">
        <ele>1066</ele>
        <time>2025-11-21T10:53:49.000Z</time>
      </trkpt>
      <trkpt lat="44.48218" lon="6.19643">
        <ele>1066</ele>
        <time>2025-11-21T10:53:50.000Z</time>
      </trkpt>
      <trkpt lat="44.48218" lon="6.19643">
        <ele>1066</ele>
        <time>2025-11-21T10:53:51.000Z</time>
      </trkpt>
      <trkpt lat="44.48219" lon="6.19645">
        <ele>1067</ele>
        <time>2025-11-21T10:53:52.000Z</time>
      </trkpt>
      <trkpt lat="44.4822" lon="6.19646">
        <ele>1067</ele>
        <time>2025-11-21T10:53:53.000Z</time>
      </trkpt>
      <trkpt lat="44.48221" lon="6.19648">
        <ele>1066</ele>
        <time>2025-11-21T10:53:54.000Z</time>
      </trkpt>
      <trkpt lat="44.48221" lon="6.19649">
        <ele>1066</ele>
        <time>2025-11-21T10:53:55.000Z</time>
      </trkpt>
      <trkpt lat="44.48222" lon="6.19649">
        <ele>1066</ele>
        <time>2025-11-21T10:53:56.000Z</time>
      </trkpt>
      <trkpt lat="44.48222" lon="6.19649">
        <ele>1067</ele>
        <time>2025-11-21T10:53:57.000Z</time>
      </trkpt>
      <trkpt lat="44.48222" lon="6.1965">
        <ele>1068</ele>
        <time>2025-11-21T10:53:58.000Z</time>
      </trkpt>
      <trkpt lat="44.48222" lon="6.19651">
        <ele>1068</ele>
        <time>2025-11-21T10:53:59.000Z</time>
      </trkpt>
      <trkpt lat="44.48223" lon="6.19652">
        <ele>1069</ele>
        <time>2025-11-21T10:54:00.000Z</time>
      </trkpt>
      <trkpt lat="44.48223" lon="6.19652">
        <ele>1069</ele>
        <time>2025-11-21T10:54:01.000Z</time>
      </trkpt>
      <trkpt lat="44.48223" lon="6.19652">
        <ele>1069</ele>
        <time>2025-11-21T10:54:02.000Z</time>
      </trkpt>
      <trkpt lat="44.48223" lon="6.19652">
        <ele>1070</ele>
        <time>2025-11-21T10:54:03.000Z</time>
      </trkpt>
      <trkpt lat="44.48223" lon="6.19653">
        <ele>1073</ele>
        <time>2025-11-21T10:54:04.000Z</time>
      </trkpt>
      <trkpt lat="44.48223" lon="6.19652">
        <ele>1073</ele>
        <time>2025-11-21T10:54:05.000Z</time>
      </trkpt>
      <trkpt lat="44.48224" lon="6.19652">
        <ele>1073</ele>
        <time>2025-11-21T10:54:06.000Z</time>
      </trkpt>
      <trkpt lat="44.48224" lon="6.19656">
        <ele>1076</ele>
        <time>2025-11-21T10:54:25.000Z</time>
      </trkpt>
      <trkpt lat="44.48223" lon="6.19658">
        <ele>1076</ele>
        <time>2025-11-21T10:54:26.000Z</time>
      </trkpt>
      <trkpt lat="44.48223" lon="6.1966">
        <ele>1077</ele>
        <time>2025-11-21T10:54:27.000Z</time>
      </trkpt>
      <trkpt lat="44.48224" lon="6.19662">
        <ele>1077</ele>
        <time>2025-11-21T10:54:28.000Z</time>
      </trkpt>
      <trkpt lat="44.48224" lon="6.19662">
        <ele>1077</ele>
        <time>2025-11-21T10:54:29.000Z</time>
      </trkpt>
      <trkpt lat="44.48224" lon="6.19665">
        <ele>1077</ele>
        <time>2025-11-21T10:54:30.000Z</time>
      </trkpt>
      <trkpt lat="44.48224" lon="6.19667">
        <ele>1077</ele>
        <time>2025-11-21T10:54:31.000Z</time>
      </trkpt>
      <trkpt lat="44.48225" lon="6.19668">
        <ele>1077</ele>
        <time>2025-11-21T10:54:32.000Z</time>
      </trkpt>
      <trkpt lat="44.48225" lon="6.19669">
        <ele>1077</ele>
        <time>2025-11-21T10:54:33.000Z</time>
      </trkpt>
      <trkpt lat="44.48225" lon="6.19671">
        <ele>1076</ele>
        <time>2025-11-21T10:54:34.000Z</time>
      </trkpt>
      <trkpt lat="44.48225" lon="6.19672">
        <ele>1077</ele>
        <time>2025-11-21T10:54:35.000Z</time>
      </trkpt>
      <trkpt lat="44.48225" lon="6.19675">
        <ele>1077</ele>
        <time>2025-11-21T10:54:36.000Z</time>
      </trkpt>
      <trkpt lat="44.48224" lon="6.19676">
        <ele>1077</ele>
        <time>2025-11-21T10:54:37.000Z</time>
      </trkpt>
      <trkpt lat="44.48224" lon="6.19678">
        <ele>1078</ele>
        <time>2025-11-21T10:54:38.000Z</time>
      </trkpt>
      <trkpt lat="44.48223" lon="6.19678">
        <ele>1078</ele>
        <time>2025-11-21T10:54:39.000Z</time>
      </trkpt>
      <trkpt lat="44.48223" lon="6.19679">
        <ele>1078</ele>
        <time>2025-11-21T10:54:40.000Z</time>
      </trkpt>
      <trkpt lat="44.48223" lon="6.19679">
        <ele>1079</ele>
        <time>2025-11-21T10:54:41.000Z</time>
      </trkpt>
      <trkpt lat="44.48223" lon="6.1968">
        <ele>1079</ele>
        <time>2025-11-21T10:54:42.000Z</time>
      </trkpt>
      <trkpt lat="44.48223" lon="6.1968">
        <ele>1079</ele>
        <time>2025-11-21T10:54:43.000Z</time>
      </trkpt>
      <trkpt lat="44.48222" lon="6.19679">
        <ele>1079</ele>
        <time>2025-11-21T10:54:44.000Z</time>
      </trkpt>
      <trkpt lat="44.48221" lon="6.1968">
        <ele>1078</ele>
        <time>2025-11-21T10:54:45.000Z</time>
      </trkpt>
      <trkpt lat="44.48221" lon="6.1968">
        <ele>1078</ele>
        <time>2025-11-21T10:54:46.000Z</time>
      </trkpt>
      <trkpt lat="44.48222" lon="6.1968">
        <ele>1079</ele>
        <time>2025-11-21T10:54:47.000Z</time>
      </trkpt>
      <trkpt lat="44.48223" lon="6.1968">
        <ele>1079</ele>
        <time>2025-11-21T10:54:48.000Z</time>
      </trkpt>
      <trkpt lat="44.48223" lon="6.19681">
        <ele>1079</ele>
        <time>2025-11-21T10:54:49.000Z</time>
      </trkpt>
      <trkpt lat="44.48224" lon="6.19681">
        <ele>1080</ele>
        <time>2025-11-21T10:54:50.000Z</time>
      </trkpt>
      <trkpt lat="44.48224" lon="6.19681">
        <ele>1081</ele>
        <time>2025-11-21T10:54:51.000Z</time>
      </trkpt>
      <trkpt lat="44.48225" lon="6.19682">
        <ele>1080</ele>
        <time>2025-11-21T10:54:52.000Z</time>
      </trkpt>
      <trkpt lat="44.48225" lon="6.19682">
        <ele>1080</ele>
        <time>2025-11-21T10:54:53.000Z</time>
      </trkpt>
      <trkpt lat="44.48225" lon="6.19682">
        <ele>1080</ele>
        <time>2025-11-21T10:54:54.000Z</time>
      </trkpt>
      <trkpt lat="44.48226" lon="6.19682">
        <ele>1080</ele>
        <time>2025-11-21T10:54:55.000Z</time>
      </trkpt>
      <trkpt lat="44.48226" lon="6.19683">
        <ele>1080</ele>
        <time>2025-11-21T10:54:56.000Z</time>
      </trkpt>
      <trkpt lat="44.48227" lon="6.19683">
        <ele>1080</ele>
        <time>2025-11-21T10:54:57.000Z</time>
      </trkpt>
      <trkpt lat="44.48228" lon="6.19683">
        <ele>1079</ele>
        <time>2025-11-21T10:54:58.000Z</time>
      </trkpt>
      <trkpt lat="44.48229" lon="6.19683">
        <ele>1079</ele>
        <time>2025-11-21T10:54:59.000Z</time>
      </trkpt>
      <trkpt lat="44.4823" lon="6.19683">
        <ele>1079</ele>
        <time>2025-11-21T10:55:00.000Z</time>
      </trkpt>
      <trkpt lat="44.4823" lon="6.19682">
        <ele>1080</ele>
        <time>2025-11-21T10:55:01.000Z</time>
      </trkpt>
      <trkpt lat="44.4823" lon="6.19681">
        <ele>1080</ele>
        <time>2025-11-21T10:55:02.000Z</time>
      </trkpt>
      <trkpt lat="44.4823" lon="6.1968">
        <ele>1080</ele>
        <time>2025-11-21T10:55:03.000Z</time>
      </trkpt>
      <trkpt lat="44.48231" lon="6.19678">
        <ele>1080</ele>
        <time>2025-11-21T10:55:04.000Z</time>
      </trkpt>
      <trkpt lat="44.48231" lon="6.19677">
        <ele>1081</ele>
        <time>2025-11-21T10:55:05.000Z</time>
      </trkpt>
      <trkpt lat="44.48231" lon="6.19677">
        <ele>1081</ele>
        <time>2025-11-21T10:55:06.000Z</time>
      </trkpt>
      <trkpt lat="44.48232" lon="6.19674">
        <ele>1080</ele>
        <time>2025-11-21T10:55:07.000Z</time>
      </trkpt>
      <trkpt lat="44.48233" lon="6.19673">
        <ele>1080</ele>
        <time>2025-11-21T10:55:08.000Z</time>
      </trkpt>
      <trkpt lat="44.48233" lon="6.19672">
        <ele>1080</ele>
        <time>2025-11-21T10:55:09.000Z</time>
      </trkpt>
      <trkpt lat="44.48235" lon="6.19671">
        <ele>1080</ele>
        <time>2025-11-21T10:55:10.000Z</time>
      </trkpt>
      <trkpt lat="44.48235" lon="6.19672">
        <ele>1081</ele>
        <time>2025-11-21T10:55:11.000Z</time>
      </trkpt>
      <trkpt lat="44.48236" lon="6.19673">
        <ele>1081</ele>
        <time>2025-11-21T10:55:12.000Z</time>
      </trkpt>
      <trkpt lat="44.48236" lon="6.19675">
        <ele>1081</ele>
        <time>2025-11-21T10:55:13.000Z</time>
      </trkpt>
      <trkpt lat="44.48237" lon="6.19675">
        <ele>1080</ele>
        <time>2025-11-21T10:55:14.000Z</time>
      </trkpt>
      <trkpt lat="44.48237" lon="6.19675">
        <ele>1080</ele>
        <time>2025-11-21T10:55:15.000Z</time>
      </trkpt>
      <trkpt lat="44.48237" lon="6.19675">
        <ele>1080</ele>
        <time>2025-11-21T10:55:16.000Z</time>
      </trkpt>
      <trkpt lat="44.48239" lon="6.19674">
        <ele>1080</ele>
        <time>2025-11-21T10:55:17.000Z</time>
      </trkpt>
      <trkpt lat="44.48239" lon="6.19674">
        <ele>1080</ele>
        <time>2025-11-21T10:55:18.000Z</time>
      </trkpt>
      <trkpt lat="44.48239" lon="6.19675">
        <ele>1080</ele>
        <time>2025-11-21T10:55:19.000Z</time>
      </trkpt>
      <trkpt lat="44.48241" lon="6.19677">
        <ele>1080</ele>
        <time>2025-11-21T10:55:20.000Z</time>
      </trkpt>
      <trkpt lat="44.48241" lon="6.19678">
        <ele>1080</ele>
        <time>2025-11-21T10:55:21.000Z</time>
      </trkpt>
      <trkpt lat="44.48242" lon="6.19678">
        <ele>1080</ele>
        <time>2025-11-21T10:55:22.000Z</time>
      </trkpt>
      <trkpt lat="44.48243" lon="6.19678">
        <ele>1080</ele>
        <time>2025-11-21T10:55:23.000Z</time>
      </trkpt>
      <trkpt lat="44.48243" lon="6.19678">
        <ele>1080</ele>
        <time>2025-11-21T10:55:24.000Z</time>
      </trkpt>
      <trkpt lat="44.48243" lon="6.19678">
        <ele>1080</ele>
        <time>2025-11-21T10:55:25.000Z</time>
      </trkpt>
      <trkpt lat="44.48244" lon="6.19682">
        <ele>1079</ele>
        <time>2025-11-21T10:55:26.000Z</time>
      </trkpt>
      <trkpt lat="44.48244" lon="6.19682">
        <ele>1079</ele>
        <time>2025-11-21T10:55:27.000Z</time>
      </trkpt>
      <trkpt lat="44.48245" lon="6.19683">
        <ele>1079</ele>
        <time>2025-11-21T10:55:28.000Z</time>
      </trkpt>
      <trkpt lat="44.48245" lon="6.19683">
        <ele>1080</ele>
        <time>2025-11-21T10:55:29.000Z</time>
      </trkpt>
      <trkpt lat="44.48245" lon="6.19683">
        <ele>1081</ele>
        <time>2025-11-21T10:55:30.000Z</time>
      </trkpt>
      <trkpt lat="44.48246" lon="6.19682">
        <ele>1081</ele>
        <time>2025-11-21T10:55:31.000Z</time>
      </trkpt>
      <trkpt lat="44.48246" lon="6.19681">
        <ele>1081</ele>
        <time>2025-11-21T10:55:32.000Z</time>
      </trkpt>
      <trkpt lat="44.48247" lon="6.1968">
        <ele>1081</ele>
        <time>2025-11-21T10:55:33.000Z</time>
      </trkpt>
      <trkpt lat="44.48248" lon="6.19679">
        <ele>1082</ele>
        <time>2025-11-21T10:55:34.000Z</time>
      </trkpt>
      <trkpt lat="44.48248" lon="6.1968">
        <ele>1082</ele>
        <time>2025-11-21T10:55:35.000Z</time>
      </trkpt>
      <trkpt lat="44.48249" lon="6.19681">
        <ele>1082</ele>
        <time>2025-11-21T10:55:36.000Z</time>
      </trkpt>
      <trkpt lat="44.4825" lon="6.19682">
        <ele>1082</ele>
        <time>2025-11-21T10:55:37.000Z</time>
      </trkpt>
      <trkpt lat="44.48251" lon="6.19682">
        <ele>1081</ele>
        <time>2025-11-21T10:55:38.000Z</time>
      </trkpt>
      <trkpt lat="44.48252" lon="6.19683">
        <ele>1081</ele>
        <time>2025-11-21T10:55:39.000Z</time>
      </trkpt>
      <trkpt lat="44.48253" lon="6.19684">
        <ele>1082</ele>
        <time>2025-11-21T10:55:40.000Z</time>
      </trkpt>
      <trkpt lat="44.48254" lon="6.19685">
        <ele>1082</ele>
        <time>2025-11-21T10:55:41.000Z</time>
      </trkpt>
      <trkpt lat="44.48255" lon="6.19685">
        <ele>1082</ele>
        <time>2025-11-21T10:55:42.000Z</time>
      </trkpt>
      <trkpt lat="44.48256" lon="6.19686">
        <ele>1082</ele>
        <time>2025-11-21T10:55:43.000Z</time>
      </trkpt>
      <trkpt lat="44.48256" lon="6.19687">
        <ele>1082</ele>
        <time>2025-11-21T10:55:44.000Z</time>
      </trkpt>
      <trkpt lat="44.48257" lon="6.19688">
        <ele>1083</ele>
        <time>2025-11-21T10:55:45.000Z</time>
      </trkpt>
      <trkpt lat="44.48257" lon="6.19689">
        <ele>1083</ele>
        <time>2025-11-21T10:55:46.000Z</time>
      </trkpt>
      <trkpt lat="44.48257" lon="6.19691">
        <ele>1083</ele>
        <time>2025-11-21T10:55:47.000Z</time>
      </trkpt>
      <trkpt lat="44.48258" lon="6.19691">
        <ele>1082</ele>
        <time>2025-11-21T10:55:48.000Z</time>
      </trkpt>
      <trkpt lat="44.48258" lon="6.19694">
        <ele>1083</ele>
        <time>2025-11-21T10:55:49.000Z</time>
      </trkpt>
      <trkpt lat="44.48258" lon="6.19695">
        <ele>1083</ele>
        <time>2025-11-21T10:55:50.000Z</time>
      </trkpt>
      <trkpt lat="44.48258" lon="6.19696">
        <ele>1083</ele>
        <time>2025-11-21T10:55:51.000Z</time>
      </trkpt>
      <trkpt lat="44.48258" lon="6.19697">
        <ele>1083</ele>
        <time>2025-11-21T10:55:52.000Z</time>
      </trkpt>
      <trkpt lat="44.48259" lon="6.19697">
        <ele>1084</ele>
        <time>2025-11-21T10:55:53.000Z</time>
      </trkpt>
      <trkpt lat="44.48259" lon="6.19697">
        <ele>1084</ele>
        <time>2025-11-21T10:55:54.000Z</time>
      </trkpt>
      <trkpt lat="44.4826" lon="6.19697">
        <ele>1083</ele>
        <time>2025-11-21T10:55:55.000Z</time>
      </trkpt>
      <trkpt lat="44.4826" lon="6.19698">
        <ele>1083</ele>
        <time>2025-11-21T10:55:56.000Z</time>
      </trkpt>
      <trkpt lat="44.4826" lon="6.19699">
        <ele>1084</ele>
        <time>2025-11-21T10:55:57.000Z</time>
      </trkpt>
      <trkpt lat="44.48261" lon="6.19699">
        <ele>1084</ele>
        <time>2025-11-21T10:55:58.000Z</time>
      </trkpt>
      <trkpt lat="44.48262" lon="6.197">
        <ele>1084</ele>
        <time>2025-11-21T10:55:59.000Z</time>
      </trkpt>
      <trkpt lat="44.48262" lon="6.197">
        <ele>1084</ele>
        <time>2025-11-21T10:56:00.000Z</time>
      </trkpt>
      <trkpt lat="44.48262" lon="6.19702">
        <ele>1084</ele>
        <time>2025-11-21T10:56:01.000Z</time>
      </trkpt>
      <trkpt lat="44.48262" lon="6.19701">
        <ele>1084</ele>
        <time>2025-11-21T10:56:02.000Z</time>
      </trkpt>
      <trkpt lat="44.48261" lon="6.19702">
        <ele>1084</ele>
        <time>2025-11-21T10:56:03.000Z</time>
      </trkpt>
      <trkpt lat="44.48262" lon="6.19702">
        <ele>1084</ele>
        <time>2025-11-21T10:56:04.000Z</time>
      </trkpt>
      <trkpt lat="44.48262" lon="6.19703">
        <ele>1084</ele>
        <time>2025-11-21T10:56:05.000Z</time>
      </trkpt>
      <trkpt lat="44.48263" lon="6.19705">
        <ele>1085</ele>
        <time>2025-11-21T10:56:06.000Z</time>
      </trkpt>
      <trkpt lat="44.48262" lon="6.19706">
        <ele>1086</ele>
        <time>2025-11-21T10:56:07.000Z</time>
      </trkpt>
      <trkpt lat="44.48262" lon="6.19706">
        <ele>1086</ele>
        <time>2025-11-21T10:56:08.000Z</time>
      </trkpt>
      <trkpt lat="44.48262" lon="6.19706">
        <ele>1086</ele>
        <time>2025-11-21T10:56:09.000Z</time>
      </trkpt>
      <trkpt lat="44.48262" lon="6.19706">
        <ele>1086</ele>
        <time>2025-11-21T10:56:10.000Z</time>
      </trkpt>
      <trkpt lat="44.48262" lon="6.19706">
        <ele>1086</ele>
        <time>2025-11-21T10:56:11.000Z</time>
      </trkpt>
      <trkpt lat="44.48262" lon="6.19706">
        <ele>1086</ele>
        <time>2025-11-21T10:56:12.000Z</time>
      </trkpt>
      <trkpt lat="44.48264" lon="6.19707">
        <ele>1085</ele>
        <time>2025-11-21T10:56:13.000Z</time>
      </trkpt>
      <trkpt lat="44.48265" lon="6.19707">
        <ele>1086</ele>
        <time>2025-11-21T10:56:14.000Z</time>
      </trkpt>
      <trkpt lat="44.48265" lon="6.19707">
        <ele>1086</ele>
        <time>2025-11-21T10:56:15.000Z</time>
      </trkpt>
      <trkpt lat="44.48266" lon="6.19706">
        <ele>1087</ele>
        <time>2025-11-21T10:56:16.000Z</time>
      </trkpt>
      <trkpt lat="44.48266" lon="6.19705">
        <ele>1087</ele>
        <time>2025-11-21T10:56:17.000Z</time>
      </trkpt>
      <trkpt lat="44.48266" lon="6.19705">
        <ele>1087</ele>
        <time>2025-11-21T10:56:18.000Z</time>
      </trkpt>
      <trkpt lat="44.48266" lon="6.19704">
        <ele>1088</ele>
        <time>2025-11-21T10:56:19.000Z</time>
      </trkpt>
      <trkpt lat="44.48267" lon="6.19705">
        <ele>1088</ele>
        <time>2025-11-21T10:56:20.000Z</time>
      </trkpt>
      <trkpt lat="44.48267" lon="6.19705">
        <ele>1087</ele>
        <time>2025-11-21T10:56:21.000Z</time>
      </trkpt>
      <trkpt lat="44.48268" lon="6.19706">
        <ele>1087</ele>
        <time>2025-11-21T10:56:22.000Z</time>
      </trkpt>
      <trkpt lat="44.48268" lon="6.19707">
        <ele>1088</ele>
        <time>2025-11-21T10:56:23.000Z</time>
      </trkpt>
      <trkpt lat="44.48269" lon="6.19708">
        <ele>1088</ele>
        <time>2025-11-21T10:56:24.000Z</time>
      </trkpt>
      <trkpt lat="44.4827" lon="6.19708">
        <ele>1088</ele>
        <time>2025-11-21T10:56:25.000Z</time>
      </trkpt>
      <trkpt lat="44.4827" lon="6.19707">
        <ele>1088</ele>
        <time>2025-11-21T10:56:26.000Z</time>
      </trkpt>
      <trkpt lat="44.48271" lon="6.19708">
        <ele>1088</ele>
        <time>2025-11-21T10:56:27.000Z</time>
      </trkpt>
      <trkpt lat="44.48272" lon="6.19708">
        <ele>1087</ele>
        <time>2025-11-21T10:56:28.000Z</time>
      </trkpt>
      <trkpt lat="44.48272" lon="6.19708">
        <ele>1087</ele>
        <time>2025-11-21T10:56:29.000Z</time>
      </trkpt>
      <trkpt lat="44.48273" lon="6.19708">
        <ele>1086</ele>
        <time>2025-11-21T10:56:30.000Z</time>
      </trkpt>
      <trkpt lat="44.48273" lon="6.19708">
        <ele>1086</ele>
        <time>2025-11-21T10:56:31.000Z</time>
      </trkpt>
      <trkpt lat="44.48273" lon="6.19706">
        <ele>1085</ele>
        <time>2025-11-21T10:56:32.000Z</time>
      </trkpt>
      <trkpt lat="44.48273" lon="6.19705">
        <ele>1085</ele>
        <time>2025-11-21T10:56:33.000Z</time>
      </trkpt>
      <trkpt lat="44.48273" lon="6.19705">
        <ele>1086</ele>
        <time>2025-11-21T10:56:34.000Z</time>
      </trkpt>
      <trkpt lat="44.48273" lon="6.19704">
        <ele>1087</ele>
        <time>2025-11-21T10:56:35.000Z</time>
      </trkpt>
      <trkpt lat="44.48273" lon="6.19703">
        <ele>1088</ele>
        <time>2025-11-21T10:56:36.000Z</time>
      </trkpt>
      <trkpt lat="44.48274" lon="6.19702">
        <ele>1088</ele>
        <time>2025-11-21T10:56:37.000Z</time>
      </trkpt>
      <trkpt lat="44.48275" lon="6.19699">
        <ele>1089</ele>
        <time>2025-11-21T10:56:38.000Z</time>
      </trkpt>
      <trkpt lat="44.48275" lon="6.19698">
        <ele>1089</ele>
        <time>2025-11-21T10:56:39.000Z</time>
      </trkpt>
      <trkpt lat="44.48275" lon="6.19696">
        <ele>1091</ele>
        <time>2025-11-21T10:56:40.000Z</time>
      </trkpt>
      <trkpt lat="44.48276" lon="6.19695">
        <ele>1090</ele>
        <time>2025-11-21T10:56:41.000Z</time>
      </trkpt>
      <trkpt lat="44.48276" lon="6.19694">
        <ele>1091</ele>
        <time>2025-11-21T10:56:42.000Z</time>
      </trkpt>
      <trkpt lat="44.48276" lon="6.19692">
        <ele>1092</ele>
        <time>2025-11-21T10:56:43.000Z</time>
      </trkpt>
      <trkpt lat="44.48277" lon="6.19691">
        <ele>1093</ele>
        <time>2025-11-21T10:56:44.000Z</time>
      </trkpt>
      <trkpt lat="44.48277" lon="6.1969">
        <ele>1093</ele>
        <time>2025-11-21T10:56:45.000Z</time>
      </trkpt>
      <trkpt lat="44.48277" lon="6.19689">
        <ele>1094</ele>
        <time>2025-11-21T10:56:46.000Z</time>
      </trkpt>
      <trkpt lat="44.48278" lon="6.19687">
        <ele>1094</ele>
        <time>2025-11-21T10:56:47.000Z</time>
      </trkpt>
      <trkpt lat="44.48278" lon="6.19686">
        <ele>1094</ele>
        <time>2025-11-21T10:56:48.000Z</time>
      </trkpt>
      <trkpt lat="44.48278" lon="6.19685">
        <ele>1094</ele>
        <time>2025-11-21T10:56:49.000Z</time>
      </trkpt>
      <trkpt lat="44.48278" lon="6.19684">
        <ele>1094</ele>
        <time>2025-11-21T10:56:50.000Z</time>
      </trkpt>
      <trkpt lat="44.48278" lon="6.19683">
        <ele>1094</ele>
        <time>2025-11-21T10:56:51.000Z</time>
      </trkpt>
      <trkpt lat="44.48278" lon="6.19681">
        <ele>1093</ele>
        <time>2025-11-21T10:56:52.000Z</time>
      </trkpt>
      <trkpt lat="44.48278" lon="6.1968">
        <ele>1093</ele>
        <time>2025-11-21T10:56:53.000Z</time>
      </trkpt>
      <trkpt lat="44.48277" lon="6.19679">
        <ele>1093</ele>
        <time>2025-11-21T10:56:54.000Z</time>
      </trkpt>
      <trkpt lat="44.48277" lon="6.19679">
        <ele>1094</ele>
        <time>2025-11-21T10:56:55.000Z</time>
      </trkpt>
      <trkpt lat="44.48277" lon="6.19678">
        <ele>1094</ele>
        <time>2025-11-21T10:56:56.000Z</time>
      </trkpt>
      <trkpt lat="44.48278" lon="6.19677">
        <ele>1094</ele>
        <time>2025-11-21T10:56:57.000Z</time>
      </trkpt>
      <trkpt lat="44.48278" lon="6.19677">
        <ele>1095</ele>
        <time>2025-11-21T10:56:58.000Z</time>
      </trkpt>
      <trkpt lat="44.48277" lon="6.19675">
        <ele>1095</ele>
        <time>2025-11-21T10:56:59.000Z</time>
      </trkpt>
      <trkpt lat="44.48277" lon="6.19673">
        <ele>1096</ele>
        <time>2025-11-21T10:57:00.000Z</time>
      </trkpt>
      <trkpt lat="44.48277" lon="6.19672">
        <ele>1096</ele>
        <time>2025-11-21T10:57:01.000Z</time>
      </trkpt>
      <trkpt lat="44.48277" lon="6.1967">
        <ele>1096</ele>
        <time>2025-11-21T10:57:02.000Z</time>
      </trkpt>
      <trkpt lat="44.48278" lon="6.19668">
        <ele>1097</ele>
        <time>2025-11-21T10:57:03.000Z</time>
      </trkpt>
      <trkpt lat="44.48278" lon="6.19667">
        <ele>1097</ele>
        <time>2025-11-21T10:57:04.000Z</time>
      </trkpt>
      <trkpt lat="44.48278" lon="6.19665">
        <ele>1097</ele>
        <time>2025-11-21T10:57:05.000Z</time>
      </trkpt>
      <trkpt lat="44.48277" lon="6.19663">
        <ele>1098</ele>
        <time>2025-11-21T10:57:06.000Z</time>
      </trkpt>
      <trkpt lat="44.48277" lon="6.19661">
        <ele>1098</ele>
        <time>2025-11-21T10:57:07.000Z</time>
      </trkpt>
      <trkpt lat="44.48277" lon="6.1966">
        <ele>1099</ele>
        <time>2025-11-21T10:57:08.000Z</time>
      </trkpt>
      <trkpt lat="44.48276" lon="6.19659">
        <ele>1099</ele>
        <time>2025-11-21T10:57:09.000Z</time>
      </trkpt>
      <trkpt lat="44.48276" lon="6.19658">
        <ele>1100</ele>
        <time>2025-11-21T10:57:10.000Z</time>
      </trkpt>
      <trkpt lat="44.48275" lon="6.19657">
        <ele>1100</ele>
        <time>2025-11-21T10:57:11.000Z</time>
      </trkpt>
      <trkpt lat="44.48275" lon="6.19655">
        <ele>1101</ele>
        <time>2025-11-21T10:57:12.000Z</time>
      </trkpt>
      <trkpt lat="44.48275" lon="6.19654">
        <ele>1101</ele>
        <time>2025-11-21T10:57:13.000Z</time>
      </trkpt>
      <trkpt lat="44.48275" lon="6.19653">
        <ele>1100</ele>
        <time>2025-11-21T10:57:14.000Z</time>
      </trkpt>
      <trkpt lat="44.48274" lon="6.19651">
        <ele>1100</ele>
        <time>2025-11-21T10:57:15.000Z</time>
      </trkpt>
      <trkpt lat="44.48274" lon="6.19649">
        <ele>1101</ele>
        <time>2025-11-21T10:57:16.000Z</time>
      </trkpt>
      <trkpt lat="44.48274" lon="6.19647">
        <ele>1101</ele>
        <time>2025-11-21T10:57:17.000Z</time>
      </trkpt>
      <trkpt lat="44.48274" lon="6.19646">
        <ele>1101</ele>
        <time>2025-11-21T10:57:18.000Z</time>
      </trkpt>
      <trkpt lat="44.48273" lon="6.19646">
        <ele>1102</ele>
        <time>2025-11-21T10:57:19.000Z</time>
      </trkpt>
      <trkpt lat="44.48273" lon="6.19644">
        <ele>1103</ele>
        <time>2025-11-21T10:57:20.000Z</time>
      </trkpt>
      <trkpt lat="44.48273" lon="6.19642">
        <ele>1103</ele>
        <time>2025-11-21T10:57:21.000Z</time>
      </trkpt>
      <trkpt lat="44.48272" lon="6.19641">
        <ele>1102</ele>
        <time>2025-11-21T10:57:22.000Z</time>
      </trkpt>
      <trkpt lat="44.48271" lon="6.19639">
        <ele>1103</ele>
        <time>2025-11-21T10:57:23.000Z</time>
      </trkpt>
      <trkpt lat="44.4827" lon="6.19637">
        <ele>1103</ele>
        <time>2025-11-21T10:57:24.000Z</time>
      </trkpt>
      <trkpt lat="44.4827" lon="6.19636">
        <ele>1104</ele>
        <time>2025-11-21T10:57:25.000Z</time>
      </trkpt>
      <trkpt lat="44.48269" lon="6.19635">
        <ele>1104</ele>
        <time>2025-11-21T10:57:26.000Z</time>
      </trkpt>
      <trkpt lat="44.48268" lon="6.19635">
        <ele>1105</ele>
        <time>2025-11-21T10:57:27.000Z</time>
      </trkpt>
      <trkpt lat="44.48267" lon="6.19634">
        <ele>1105</ele>
        <time>2025-11-21T10:57:28.000Z</time>
      </trkpt>
      <trkpt lat="44.48266" lon="6.19632">
        <ele>1105</ele>
        <time>2025-11-21T10:57:29.000Z</time>
      </trkpt>
      <trkpt lat="44.48265" lon="6.1963">
        <ele>1105</ele>
        <time>2025-11-21T10:57:30.000Z</time>
      </trkpt>
      <trkpt lat="44.48265" lon="6.19629">
        <ele>1105</ele>
        <time>2025-11-21T10:57:31.000Z</time>
      </trkpt>
      <trkpt lat="44.48265" lon="6.19627">
        <ele>1106</ele>
        <time>2025-11-21T10:57:32.000Z</time>
      </trkpt>
      <trkpt lat="44.48265" lon="6.19626">
        <ele>1106</ele>
        <time>2025-11-21T10:57:33.000Z</time>
      </trkpt>
      <trkpt lat="44.48265" lon="6.19624">
        <ele>1106</ele>
        <time>2025-11-21T10:57:34.000Z</time>
      </trkpt>
      <trkpt lat="44.48263" lon="6.19623">
        <ele>1107</ele>
        <time>2025-11-21T10:57:35.000Z</time>
      </trkpt>
      <trkpt lat="44.48262" lon="6.19622">
        <ele>1107</ele>
        <time>2025-11-21T10:57:36.000Z</time>
      </trkpt>
      <trkpt lat="44.48261" lon="6.19621">
        <ele>1107</ele>
        <time>2025-11-21T10:57:37.000Z</time>
      </trkpt>
      <trkpt lat="44.48259" lon="6.19619">
        <ele>1106</ele>
        <time>2025-11-21T10:57:38.000Z</time>
      </trkpt>
      <trkpt lat="44.48259" lon="6.19617">
        <ele>1107</ele>
        <time>2025-11-21T10:57:39.000Z</time>
      </trkpt>
      <trkpt lat="44.48258" lon="6.19615">
        <ele>1107</ele>
        <time>2025-11-21T10:57:40.000Z</time>
      </trkpt>
      <trkpt lat="44.48257" lon="6.19613">
        <ele>1107</ele>
        <time>2025-11-21T10:57:41.000Z</time>
      </trkpt>
      <trkpt lat="44.48257" lon="6.19612">
        <ele>1107</ele>
        <time>2025-11-21T10:57:42.000Z</time>
      </trkpt>
      <trkpt lat="44.48255" lon="6.19611">
        <ele>1107</ele>
        <time>2025-11-21T10:57:43.000Z</time>
      </trkpt>
      <trkpt lat="44.48254" lon="6.1961">
        <ele>1107</ele>
        <time>2025-11-21T10:57:44.000Z</time>
      </trkpt>
      <trkpt lat="44.48252" lon="6.19609">
        <ele>1106</ele>
        <time>2025-11-21T10:57:45.000Z</time>
      </trkpt>
      <trkpt lat="44.48252" lon="6.19607">
        <ele>1106</ele>
        <time>2025-11-21T10:57:46.000Z</time>
      </trkpt>
      <trkpt lat="44.48251" lon="6.19605">
        <ele>1107</ele>
        <time>2025-11-21T10:57:47.000Z</time>
      </trkpt>
      <trkpt lat="44.4825" lon="6.19604">
        <ele>1106</ele>
        <time>2025-11-21T10:57:48.000Z</time>
      </trkpt>
      <trkpt lat="44.48249" lon="6.19602">
        <ele>1106</ele>
        <time>2025-11-21T10:57:49.000Z</time>
      </trkpt>
      <trkpt lat="44.48248" lon="6.19601">
        <ele>1106</ele>
        <time>2025-11-21T10:57:50.000Z</time>
      </trkpt>
      <trkpt lat="44.48247" lon="6.19599">
        <ele>1106</ele>
        <time>2025-11-21T10:57:51.000Z</time>
      </trkpt>
      <trkpt lat="44.48246" lon="6.19596">
        <ele>1107</ele>
        <time>2025-11-21T10:57:52.000Z</time>
      </trkpt>
      <trkpt lat="44.48245" lon="6.19595">
        <ele>1108</ele>
        <time>2025-11-21T10:57:53.000Z</time>
      </trkpt>
      <trkpt lat="44.48244" lon="6.19593">
        <ele>1108</ele>
        <time>2025-11-21T10:57:54.000Z</time>
      </trkpt>
      <trkpt lat="44.48243" lon="6.19592">
        <ele>1108</ele>
        <time>2025-11-21T10:57:55.000Z</time>
      </trkpt>
      <trkpt lat="44.48243" lon="6.19589">
        <ele>1109</ele>
        <time>2025-11-21T10:57:56.000Z</time>
      </trkpt>
      <trkpt lat="44.48242" lon="6.19588">
        <ele>1109</ele>
        <time>2025-11-21T10:57:57.000Z</time>
      </trkpt>
      <trkpt lat="44.48242" lon="6.19586">
        <ele>1109</ele>
        <time>2025-11-21T10:57:58.000Z</time>
      </trkpt>
      <trkpt lat="44.48241" lon="6.19585">
        <ele>1109</ele>
        <time>2025-11-21T10:57:59.000Z</time>
      </trkpt>
      <trkpt lat="44.4824" lon="6.19583">
        <ele>1109</ele>
        <time>2025-11-21T10:58:00.000Z</time>
      </trkpt>
      <trkpt lat="44.48239" lon="6.19582">
        <ele>1109</ele>
        <time>2025-11-21T10:58:01.000Z</time>
      </trkpt>
      <trkpt lat="44.4824" lon="6.1958">
        <ele>1109</ele>
        <time>2025-11-21T10:58:02.000Z</time>
      </trkpt>
      <trkpt lat="44.4824" lon="6.19578">
        <ele>1109</ele>
        <time>2025-11-21T10:58:03.000Z</time>
      </trkpt>
      <trkpt lat="44.48241" lon="6.19577">
        <ele>1108</ele>
        <time>2025-11-21T10:58:04.000Z</time>
      </trkpt>
      <trkpt lat="44.48241" lon="6.19576">
        <ele>1108</ele>
        <time>2025-11-21T10:58:05.000Z</time>
      </trkpt>
      <trkpt lat="44.48241" lon="6.19576">
        <ele>1108</ele>
        <time>2025-11-21T10:58:06.000Z</time>
      </trkpt>
      <trkpt lat="44.48242" lon="6.19576">
        <ele>1108</ele>
        <time>2025-11-21T10:58:07.000Z</time>
      </trkpt>
      <trkpt lat="44.48242" lon="6.19573">
        <ele>1109</ele>
        <time>2025-11-21T10:58:08.000Z</time>
      </trkpt>
      <trkpt lat="44.48243" lon="6.19572">
        <ele>1109</ele>
        <time>2025-11-21T10:58:09.000Z</time>
      </trkpt>
      <trkpt lat="44.48244" lon="6.1957">
        <ele>1108</ele>
        <time>2025-11-21T10:58:10.000Z</time>
      </trkpt>
      <trkpt lat="44.48244" lon="6.1957">
        <ele>1110</ele>
        <time>2025-11-21T10:58:11.000Z</time>
      </trkpt>
      <trkpt lat="44.48244" lon="6.1957">
        <ele>1110</ele>
        <time>2025-11-21T10:58:12.000Z</time>
      </trkpt>
      <trkpt lat="44.48245" lon="6.19569">
        <ele>1110</ele>
        <time>2025-11-21T10:58:13.000Z</time>
      </trkpt>
      <trkpt lat="44.48245" lon="6.19568">
        <ele>1110</ele>
        <time>2025-11-21T10:58:14.000Z</time>
      </trkpt>
      <trkpt lat="44.48245" lon="6.19566">
        <ele>1110</ele>
        <time>2025-11-21T10:58:15.000Z</time>
      </trkpt>
      <trkpt lat="44.48245" lon="6.19565">
        <ele>1109</ele>
        <time>2025-11-21T10:58:16.000Z</time>
      </trkpt>
      <trkpt lat="44.48245" lon="6.19564">
        <ele>1109</ele>
        <time>2025-11-21T10:58:17.000Z</time>
      </trkpt>
      <trkpt lat="44.48246" lon="6.19563">
        <ele>1109</ele>
        <time>2025-11-21T10:58:18.000Z</time>
      </trkpt>
      <trkpt lat="44.48246" lon="6.19562">
        <ele>1109</ele>
        <time>2025-11-21T10:58:19.000Z</time>
      </trkpt>
      <trkpt lat="44.48245" lon="6.1956">
        <ele>1108</ele>
        <time>2025-11-21T10:58:20.000Z</time>
      </trkpt>
      <trkpt lat="44.48243" lon="6.19559">
        <ele>1108</ele>
        <time>2025-11-21T10:58:21.000Z</time>
      </trkpt>
      <trkpt lat="44.48243" lon="6.19559">
        <ele>1108</ele>
        <time>2025-11-21T10:58:22.000Z</time>
      </trkpt>
      <trkpt lat="44.48242" lon="6.19558">
        <ele>1108</ele>
        <time>2025-11-21T10:58:23.000Z</time>
      </trkpt>
      <trkpt lat="44.48241" lon="6.19558">
        <ele>1109</ele>
        <time>2025-11-21T10:58:24.000Z</time>
      </trkpt>
      <trkpt lat="44.4824" lon="6.19557">
        <ele>1109</ele>
        <time>2025-11-21T10:58:25.000Z</time>
      </trkpt>
      <trkpt lat="44.48239" lon="6.19556">
        <ele>1109</ele>
        <time>2025-11-21T10:58:26.000Z</time>
      </trkpt>
      <trkpt lat="44.48238" lon="6.19556">
        <ele>1109</ele>
        <time>2025-11-21T10:58:27.000Z</time>
      </trkpt>
      <trkpt lat="44.48236" lon="6.19556">
        <ele>1108</ele>
        <time>2025-11-21T10:58:28.000Z</time>
      </trkpt>
      <trkpt lat="44.48235" lon="6.19556">
        <ele>1107</ele>
        <time>2025-11-21T10:58:29.000Z</time>
      </trkpt>
      <trkpt lat="44.48234" lon="6.19556">
        <ele>1107</ele>
        <time>2025-11-21T10:58:30.000Z</time>
      </trkpt>
      <trkpt lat="44.48233" lon="6.19555">
        <ele>1108</ele>
        <time>2025-11-21T10:58:31.000Z</time>
      </trkpt>
      <trkpt lat="44.48232" lon="6.19555">
        <ele>1107</ele>
        <time>2025-11-21T10:58:32.000Z</time>
      </trkpt>
      <trkpt lat="44.48231" lon="6.19555">
        <ele>1107</ele>
        <time>2025-11-21T10:58:33.000Z</time>
      </trkpt>
      <trkpt lat="44.48231" lon="6.19553">
        <ele>1108</ele>
        <time>2025-11-21T10:58:34.000Z</time>
      </trkpt>
      <trkpt lat="44.4823" lon="6.19552">
        <ele>1108</ele>
        <time>2025-11-21T10:58:35.000Z</time>
      </trkpt>
      <trkpt lat="44.48229" lon="6.19552">
        <ele>1107</ele>
        <time>2025-11-21T10:58:36.000Z</time>
      </trkpt>
      <trkpt lat="44.48228" lon="6.1955">
        <ele>1106</ele>
        <time>2025-11-21T10:58:37.000Z</time>
      </trkpt>
      <trkpt lat="44.48227" lon="6.19549">
        <ele>1106</ele>
        <time>2025-11-21T10:58:38.000Z</time>
      </trkpt>
      <trkpt lat="44.48227" lon="6.19549">
        <ele>1106</ele>
        <time>2025-11-21T10:58:39.000Z</time>
      </trkpt>
      <trkpt lat="44.48226" lon="6.19548">
        <ele>1107</ele>
        <time>2025-11-21T10:58:40.000Z</time>
      </trkpt>
      <trkpt lat="44.48225" lon="6.19546">
        <ele>1107</ele>
        <time>2025-11-21T10:58:41.000Z</time>
      </trkpt>
      <trkpt lat="44.48224" lon="6.19545">
        <ele>1106</ele>
        <time>2025-11-21T10:58:42.000Z</time>
      </trkpt>
      <trkpt lat="44.48223" lon="6.19543">
        <ele>1106</ele>
        <time>2025-11-21T10:58:43.000Z</time>
      </trkpt>
      <trkpt lat="44.48222" lon="6.19542">
        <ele>1107</ele>
        <time>2025-11-21T10:58:44.000Z</time>
      </trkpt>
      <trkpt lat="44.48221" lon="6.1954">
        <ele>1107</ele>
        <time>2025-11-21T10:58:45.000Z</time>
      </trkpt>
      <trkpt lat="44.48221" lon="6.1954">
        <ele>1108</ele>
        <time>2025-11-21T10:58:46.000Z</time>
      </trkpt>
      <trkpt lat="44.48219" lon="6.19539">
        <ele>1108</ele>
        <time>2025-11-21T10:58:47.000Z</time>
      </trkpt>
      <trkpt lat="44.48219" lon="6.19538">
        <ele>1108</ele>
        <time>2025-11-21T10:58:48.000Z</time>
      </trkpt>
      <trkpt lat="44.48219" lon="6.19537">
        <ele>1108</ele>
        <time>2025-11-21T10:58:49.000Z</time>
      </trkpt>
      <trkpt lat="44.48218" lon="6.19535">
        <ele>1108</ele>
        <time>2025-11-21T10:58:50.000Z</time>
      </trkpt>
      <trkpt lat="44.48218" lon="6.19533">
        <ele>1107</ele>
        <time>2025-11-21T10:58:51.000Z</time>
      </trkpt>
      <trkpt lat="44.48217" lon="6.19532">
        <ele>1109</ele>
        <time>2025-11-21T10:58:52.000Z</time>
      </trkpt>
      <trkpt lat="44.48217" lon="6.19531">
        <ele>1109</ele>
        <time>2025-11-21T10:58:53.000Z</time>
      </trkpt>
      <trkpt lat="44.48216" lon="6.19529">
        <ele>1109</ele>
        <time>2025-11-21T10:58:54.000Z</time>
      </trkpt>
      <trkpt lat="44.48215" lon="6.19528">
        <ele>1110</ele>
        <time>2025-11-21T10:58:55.000Z</time>
      </trkpt>
      <trkpt lat="44.48214" lon="6.19526">
        <ele>1110</ele>
        <time>2025-11-21T10:58:56.000Z</time>
      </trkpt>
      <trkpt lat="44.48212" lon="6.19524">
        <ele>1109</ele>
        <time>2025-11-21T10:58:57.000Z</time>
      </trkpt>
      <trkpt lat="44.48212" lon="6.19523">
        <ele>1110</ele>
        <time>2025-11-21T10:58:58.000Z</time>
      </trkpt>
      <trkpt lat="44.48212" lon="6.19521">
        <ele>1109</ele>
        <time>2025-11-21T10:58:59.000Z</time>
      </trkpt>
      <trkpt lat="44.48211" lon="6.19519">
        <ele>1109</ele>
        <time>2025-11-21T10:59:00.000Z</time>
      </trkpt>
      <trkpt lat="44.48211" lon="6.19517">
        <ele>1108</ele>
        <time>2025-11-21T10:59:01.000Z</time>
      </trkpt>
      <trkpt lat="44.4821" lon="6.19516">
        <ele>1108</ele>
        <time>2025-11-21T10:59:02.000Z</time>
      </trkpt>
      <trkpt lat="44.48209" lon="6.19516">
        <ele>1109</ele>
        <time>2025-11-21T10:59:03.000Z</time>
      </trkpt>
      <trkpt lat="44.48209" lon="6.19515">
        <ele>1109</ele>
        <time>2025-11-21T10:59:04.000Z</time>
      </trkpt>
      <trkpt lat="44.48208" lon="6.19514">
        <ele>1109</ele>
        <time>2025-11-21T10:59:05.000Z</time>
      </trkpt>
      <trkpt lat="44.48207" lon="6.19513">
        <ele>1109</ele>
        <time>2025-11-21T10:59:06.000Z</time>
      </trkpt>
      <trkpt lat="44.48206" lon="6.19512">
        <ele>1108</ele>
        <time>2025-11-21T10:59:07.000Z</time>
      </trkpt>
      <trkpt lat="44.48206" lon="6.19511">
        <ele>1108</ele>
        <time>2025-11-21T10:59:08.000Z</time>
      </trkpt>
      <trkpt lat="44.48205" lon="6.19509">
        <ele>1108</ele>
        <time>2025-11-21T10:59:09.000Z</time>
      </trkpt>
      <trkpt lat="44.48204" lon="6.19507">
        <ele>1109</ele>
        <time>2025-11-21T10:59:10.000Z</time>
      </trkpt>
      <trkpt lat="44.48204" lon="6.19505">
        <ele>1109</ele>
        <time>2025-11-21T10:59:11.000Z</time>
      </trkpt>
      <trkpt lat="44.48203" lon="6.19504">
        <ele>1109</ele>
        <time>2025-11-21T10:59:12.000Z</time>
      </trkpt>
      <trkpt lat="44.48202" lon="6.19503">
        <ele>1110</ele>
        <time>2025-11-21T10:59:13.000Z</time>
      </trkpt>
      <trkpt lat="44.48202" lon="6.19501">
        <ele>1110</ele>
        <time>2025-11-21T10:59:14.000Z</time>
      </trkpt>
      <trkpt lat="44.48201" lon="6.19499">
        <ele>1111</ele>
        <time>2025-11-21T10:59:15.000Z</time>
      </trkpt>
      <trkpt lat="44.48201" lon="6.19497">
        <ele>1112</ele>
        <time>2025-11-21T10:59:16.000Z</time>
      </trkpt>
      <trkpt lat="44.48201" lon="6.19495">
        <ele>1112</ele>
        <time>2025-11-21T10:59:17.000Z</time>
      </trkpt>
      <trkpt lat="44.48201" lon="6.19494">
        <ele>1112</ele>
        <time>2025-11-21T10:59:18.000Z</time>
      </trkpt>
      <trkpt lat="44.48201" lon="6.19492">
        <ele>1114</ele>
        <time>2025-11-21T10:59:19.000Z</time>
      </trkpt>
      <trkpt lat="44.48201" lon="6.19491">
        <ele>1114</ele>
        <time>2025-11-21T10:59:20.000Z</time>
      </trkpt>
      <trkpt lat="44.482" lon="6.19489">
        <ele>1114</ele>
        <time>2025-11-21T10:59:21.000Z</time>
      </trkpt>
      <trkpt lat="44.482" lon="6.19487">
        <ele>1114</ele>
        <time>2025-11-21T10:59:22.000Z</time>
      </trkpt>
      <trkpt lat="44.482" lon="6.19485">
        <ele>1115</ele>
        <time>2025-11-21T10:59:23.000Z</time>
      </trkpt>
      <trkpt lat="44.482" lon="6.19484">
        <ele>1115</ele>
        <time>2025-11-21T10:59:24.000Z</time>
      </trkpt>
      <trkpt lat="44.482" lon="6.19483">
        <ele>1115</ele>
        <time>2025-11-21T10:59:25.000Z</time>
      </trkpt>
      <trkpt lat="44.48201" lon="6.19481">
        <ele>1116</ele>
        <time>2025-11-21T10:59:26.000Z</time>
      </trkpt>
      <trkpt lat="44.482" lon="6.1948">
        <ele>1116</ele>
        <time>2025-11-21T10:59:27.000Z</time>
      </trkpt>
      <trkpt lat="44.482" lon="6.19479">
        <ele>1116</ele>
        <time>2025-11-21T10:59:28.000Z</time>
      </trkpt>
      <trkpt lat="44.482" lon="6.19477">
        <ele>1116</ele>
        <time>2025-11-21T10:59:29.000Z</time>
      </trkpt>
      <trkpt lat="44.482" lon="6.19475">
        <ele>1116</ele>
        <time>2025-11-21T10:59:30.000Z</time>
      </trkpt>
      <trkpt lat="44.48201" lon="6.19474">
        <ele>1116</ele>
        <time>2025-11-21T10:59:31.000Z</time>
      </trkpt>
      <trkpt lat="44.482" lon="6.19472">
        <ele>1116</ele>
        <time>2025-11-21T10:59:32.000Z</time>
      </trkpt>
      <trkpt lat="44.482" lon="6.1947">
        <ele>1116</ele>
        <time>2025-11-21T10:59:33.000Z</time>
      </trkpt>
      <trkpt lat="44.482" lon="6.19469">
        <ele>1116</ele>
        <time>2025-11-21T10:59:34.000Z</time>
      </trkpt>
      <trkpt lat="44.48199" lon="6.19467">
        <ele>1116</ele>
        <time>2025-11-21T10:59:35.000Z</time>
      </trkpt>
      <trkpt lat="44.48199" lon="6.19466">
        <ele>1117</ele>
        <time>2025-11-21T10:59:36.000Z</time>
      </trkpt>
      <trkpt lat="44.48199" lon="6.19464">
        <ele>1117</ele>
        <time>2025-11-21T10:59:37.000Z</time>
      </trkpt>
      <trkpt lat="44.48198" lon="6.19463">
        <ele>1117</ele>
        <time>2025-11-21T10:59:38.000Z</time>
      </trkpt>
      <trkpt lat="44.48198" lon="6.19461">
        <ele>1116</ele>
        <time>2025-11-21T10:59:39.000Z</time>
      </trkpt>
      <trkpt lat="44.48198" lon="6.19458">
        <ele>1116</ele>
        <time>2025-11-21T10:59:40.000Z</time>
      </trkpt>
      <trkpt lat="44.48198" lon="6.19457">
        <ele>1116</ele>
        <time>2025-11-21T10:59:41.000Z</time>
      </trkpt>
      <trkpt lat="44.48199" lon="6.19455">
        <ele>1116</ele>
        <time>2025-11-21T10:59:42.000Z</time>
      </trkpt>
      <trkpt lat="44.48199" lon="6.19454">
        <ele>1116</ele>
        <time>2025-11-21T10:59:43.000Z</time>
      </trkpt>
      <trkpt lat="44.48198" lon="6.19452">
        <ele>1116</ele>
        <time>2025-11-21T10:59:44.000Z</time>
      </trkpt>
      <trkpt lat="44.48198" lon="6.1945">
        <ele>1116</ele>
        <time>2025-11-21T10:59:45.000Z</time>
      </trkpt>
      <trkpt lat="44.48198" lon="6.19449">
        <ele>1116</ele>
        <time>2025-11-21T10:59:46.000Z</time>
      </trkpt>
      <trkpt lat="44.48198" lon="6.19447">
        <ele>1116</ele>
        <time>2025-11-21T10:59:47.000Z</time>
      </trkpt>
      <trkpt lat="44.48197" lon="6.19445">
        <ele>1116</ele>
        <time>2025-11-21T10:59:48.000Z</time>
      </trkpt>
      <trkpt lat="44.48197" lon="6.19445">
        <ele>1117</ele>
        <time>2025-11-21T10:59:49.000Z</time>
      </trkpt>
      <trkpt lat="44.48197" lon="6.19443">
        <ele>1117</ele>
        <time>2025-11-21T10:59:50.000Z</time>
      </trkpt>
      <trkpt lat="44.48197" lon="6.19442">
        <ele>1117</ele>
        <time>2025-11-21T10:59:51.000Z</time>
      </trkpt>
      <trkpt lat="44.48196" lon="6.1944">
        <ele>1117</ele>
        <time>2025-11-21T10:59:52.000Z</time>
      </trkpt>
      <trkpt lat="44.48195" lon="6.19438">
        <ele>1117</ele>
        <time>2025-11-21T10:59:53.000Z</time>
      </trkpt>
      <trkpt lat="44.48195" lon="6.19437">
        <ele>1118</ele>
        <time>2025-11-21T10:59:54.000Z</time>
      </trkpt>
      <trkpt lat="44.48194" lon="6.19436">
        <ele>1118</ele>
        <time>2025-11-21T10:59:55.000Z</time>
      </trkpt>
      <trkpt lat="44.48193" lon="6.19434">
        <ele>1118</ele>
        <time>2025-11-21T10:59:56.000Z</time>
      </trkpt>
      <trkpt lat="44.48192" lon="6.19432">
        <ele>1118</ele>
        <time>2025-11-21T10:59:57.000Z</time>
      </trkpt>
      <trkpt lat="44.48191" lon="6.19429">
        <ele>1118</ele>
        <time>2025-11-21T10:59:58.000Z</time>
      </trkpt>
      <trkpt lat="44.48191" lon="6.19428">
        <ele>1118</ele>
        <time>2025-11-21T10:59:59.000Z</time>
      </trkpt>
      <trkpt lat="44.4819" lon="6.19426">
        <ele>1117</ele>
        <time>2025-11-21T11:00:00.000Z</time>
      </trkpt>
      <trkpt lat="44.48189" lon="6.19424">
        <ele>1118</ele>
        <time>2025-11-21T11:00:01.000Z</time>
      </trkpt>
      <trkpt lat="44.48189" lon="6.19421">
        <ele>1118</ele>
        <time>2025-11-21T11:00:02.000Z</time>
      </trkpt>
      <trkpt lat="44.48189" lon="6.19419">
        <ele>1118</ele>
        <time>2025-11-21T11:00:03.000Z</time>
      </trkpt>
      <trkpt lat="44.48189" lon="6.19417">
        <ele>1118</ele>
        <time>2025-11-21T11:00:04.000Z</time>
      </trkpt>
      <trkpt lat="44.48189" lon="6.19415">
        <ele>1118</ele>
        <time>2025-11-21T11:00:05.000Z</time>
      </trkpt>
      <trkpt lat="44.48189" lon="6.19414">
        <ele>1119</ele>
        <time>2025-11-21T11:00:06.000Z</time>
      </trkpt>
      <trkpt lat="44.48189" lon="6.19412">
        <ele>1119</ele>
        <time>2025-11-21T11:00:07.000Z</time>
      </trkpt>
      <trkpt lat="44.48189" lon="6.19411">
        <ele>1120</ele>
        <time>2025-11-21T11:00:08.000Z</time>
      </trkpt>
      <trkpt lat="44.48189" lon="6.19409">
        <ele>1120</ele>
        <time>2025-11-21T11:00:09.000Z</time>
      </trkpt>
      <trkpt lat="44.4819" lon="6.19408">
        <ele>1119</ele>
        <time>2025-11-21T11:00:10.000Z</time>
      </trkpt>
      <trkpt lat="44.4819" lon="6.19408">
        <ele>1120</ele>
        <time>2025-11-21T11:00:11.000Z</time>
      </trkpt>
      <trkpt lat="44.48189" lon="6.19407">
        <ele>1120</ele>
        <time>2025-11-21T11:00:12.000Z</time>
      </trkpt>
      <trkpt lat="44.48188" lon="6.19406">
        <ele>1120</ele>
        <time>2025-11-21T11:00:13.000Z</time>
      </trkpt>
      <trkpt lat="44.48188" lon="6.19403">
        <ele>1120</ele>
        <time>2025-11-21T11:00:14.000Z</time>
      </trkpt>
      <trkpt lat="44.48186" lon="6.19403">
        <ele>1120</ele>
        <time>2025-11-21T11:00:15.000Z</time>
      </trkpt>
      <trkpt lat="44.48186" lon="6.19403">
        <ele>1120</ele>
        <time>2025-11-21T11:00:16.000Z</time>
      </trkpt>
      <trkpt lat="44.48186" lon="6.19403">
        <ele>1120</ele>
        <time>2025-11-21T11:00:17.000Z</time>
      </trkpt>
      <trkpt lat="44.48185" lon="6.19399">
        <ele>1121</ele>
        <time>2025-11-21T11:00:18.000Z</time>
      </trkpt>
      <trkpt lat="44.48184" lon="6.19398">
        <ele>1121</ele>
        <time>2025-11-21T11:00:19.000Z</time>
      </trkpt>
      <trkpt lat="44.48183" lon="6.19397">
        <ele>1120</ele>
        <time>2025-11-21T11:00:20.000Z</time>
      </trkpt>
      <trkpt lat="44.48182" lon="6.19396">
        <ele>1120</ele>
        <time>2025-11-21T11:00:21.000Z</time>
      </trkpt>
      <trkpt lat="44.48181" lon="6.19395">
        <ele>1120</ele>
        <time>2025-11-21T11:00:22.000Z</time>
      </trkpt>
      <trkpt lat="44.4818" lon="6.19394">
        <ele>1120</ele>
        <time>2025-11-21T11:00:23.000Z</time>
      </trkpt>
      <trkpt lat="44.4818" lon="6.19392">
        <ele>1120</ele>
        <time>2025-11-21T11:00:24.000Z</time>
      </trkpt>
      <trkpt lat="44.48179" lon="6.1939">
        <ele>1120</ele>
        <time>2025-11-21T11:00:25.000Z</time>
      </trkpt>
      <trkpt lat="44.48178" lon="6.19388">
        <ele>1120</ele>
        <time>2025-11-21T11:00:26.000Z</time>
      </trkpt>
      <trkpt lat="44.48177" lon="6.19387">
        <ele>1121</ele>
        <time>2025-11-21T11:00:27.000Z</time>
      </trkpt>
      <trkpt lat="44.48177" lon="6.19385">
        <ele>1120</ele>
        <time>2025-11-21T11:00:28.000Z</time>
      </trkpt>
      <trkpt lat="44.48176" lon="6.19384">
        <ele>1121</ele>
        <time>2025-11-21T11:00:29.000Z</time>
      </trkpt>
      <trkpt lat="44.48176" lon="6.19383">
        <ele>1121</ele>
        <time>2025-11-21T11:00:30.000Z</time>
      </trkpt>
      <trkpt lat="44.48174" lon="6.19382">
        <ele>1120</ele>
        <time>2025-11-21T11:00:31.000Z</time>
      </trkpt>
      <trkpt lat="44.48173" lon="6.19381">
        <ele>1120</ele>
        <time>2025-11-21T11:00:32.000Z</time>
      </trkpt>
      <trkpt lat="44.48172" lon="6.1938">
        <ele>1120</ele>
        <time>2025-11-21T11:00:33.000Z</time>
      </trkpt>
      <trkpt lat="44.48172" lon="6.19379">
        <ele>1120</ele>
        <time>2025-11-21T11:00:34.000Z</time>
      </trkpt>
      <trkpt lat="44.48172" lon="6.19377">
        <ele>1120</ele>
        <time>2025-11-21T11:00:35.000Z</time>
      </trkpt>
      <trkpt lat="44.48172" lon="6.19376">
        <ele>1120</ele>
        <time>2025-11-21T11:00:36.000Z</time>
      </trkpt>
      <trkpt lat="44.48171" lon="6.19375">
        <ele>1120</ele>
        <time>2025-11-21T11:00:37.000Z</time>
      </trkpt>
      <trkpt lat="44.4817" lon="6.19375">
        <ele>1120</ele>
        <time>2025-11-21T11:00:38.000Z</time>
      </trkpt>
      <trkpt lat="44.4817" lon="6.19374">
        <ele>1119</ele>
        <time>2025-11-21T11:00:39.000Z</time>
      </trkpt>
      <trkpt lat="44.48169" lon="6.19373">
        <ele>1119</ele>
        <time>2025-11-21T11:00:40.000Z</time>
      </trkpt>
      <trkpt lat="44.48169" lon="6.19373">
        <ele>1119</ele>
        <time>2025-11-21T11:00:41.000Z</time>
      </trkpt>
      <trkpt lat="44.48168" lon="6.19371">
        <ele>1118</ele>
        <time>2025-11-21T11:00:42.000Z</time>
      </trkpt>
      <trkpt lat="44.48167" lon="6.1937">
        <ele>1118</ele>
        <time>2025-11-21T11:00:43.000Z</time>
      </trkpt>
      <trkpt lat="44.48166" lon="6.19369">
        <ele>1119</ele>
        <time>2025-11-21T11:00:44.000Z</time>
      </trkpt>
      <trkpt lat="44.48165" lon="6.19368">
        <ele>1119</ele>
        <time>2025-11-21T11:00:45.000Z</time>
      </trkpt>
      <trkpt lat="44.48164" lon="6.19366">
        <ele>1118</ele>
        <time>2025-11-21T11:00:46.000Z</time>
      </trkpt>
      <trkpt lat="44.48163" lon="6.19365">
        <ele>1118</ele>
        <time>2025-11-21T11:00:47.000Z</time>
      </trkpt>
      <trkpt lat="44.48162" lon="6.19363">
        <ele>1118</ele>
        <time>2025-11-21T11:00:48.000Z</time>
      </trkpt>
      <trkpt lat="44.4816" lon="6.19361">
        <ele>1117</ele>
        <time>2025-11-21T11:00:49.000Z</time>
      </trkpt>
      <trkpt lat="44.4816" lon="6.1936">
        <ele>1117</ele>
        <time>2025-11-21T11:00:50.000Z</time>
      </trkpt>
      <trkpt lat="44.48159" lon="6.19359">
        <ele>1117</ele>
        <time>2025-11-21T11:00:51.000Z</time>
      </trkpt>
      <trkpt lat="44.48158" lon="6.19357">
        <ele>1117</ele>
        <time>2025-11-21T11:00:52.000Z</time>
      </trkpt>
      <trkpt lat="44.48158" lon="6.19356">
        <ele>1117</ele>
        <time>2025-11-21T11:00:53.000Z</time>
      </trkpt>
      <trkpt lat="44.48156" lon="6.19355">
        <ele>1117</ele>
        <time>2025-11-21T11:00:54.000Z</time>
      </trkpt>
      <trkpt lat="44.48155" lon="6.19355">
        <ele>1117</ele>
        <time>2025-11-21T11:00:55.000Z</time>
      </trkpt>
      <trkpt lat="44.48154" lon="6.19354">
        <ele>1117</ele>
        <time>2025-11-21T11:00:56.000Z</time>
      </trkpt>
      <trkpt lat="44.48154" lon="6.19353">
        <ele>1118</ele>
        <time>2025-11-21T11:00:57.000Z</time>
      </trkpt>
      <trkpt lat="44.48153" lon="6.19352">
        <ele>1118</ele>
        <time>2025-11-21T11:00:58.000Z</time>
      </trkpt>
      <trkpt lat="44.48152" lon="6.19351">
        <ele>1119</ele>
        <time>2025-11-21T11:00:59.000Z</time>
      </trkpt>
      <trkpt lat="44.48152" lon="6.1935">
        <ele>1119</ele>
        <time>2025-11-21T11:01:00.000Z</time>
      </trkpt>
      <trkpt lat="44.48151" lon="6.19349">
        <ele>1120</ele>
        <time>2025-11-21T11:01:01.000Z</time>
      </trkpt>
      <trkpt lat="44.4815" lon="6.19348">
        <ele>1119</ele>
        <time>2025-11-21T11:01:02.000Z</time>
      </trkpt>
      <trkpt lat="44.48151" lon="6.19349">
        <ele>1118</ele>
        <time>2025-11-21T11:01:03.000Z</time>
      </trkpt>
      <trkpt lat="44.48151" lon="6.1935">
        <ele>1118</ele>
        <time>2025-11-21T11:01:04.000Z</time>
      </trkpt>
      <trkpt lat="44.48152" lon="6.1935">
        <ele>1118</ele>
        <time>2025-11-21T11:01:05.000Z</time>
      </trkpt>
      <trkpt lat="44.48153" lon="6.19351">
        <ele>1117</ele>
        <time>2025-11-21T11:01:06.000Z</time>
      </trkpt>
      <trkpt lat="44.48153" lon="6.19351">
        <ele>1117</ele>
        <time>2025-11-21T11:01:07.000Z</time>
      </trkpt>
      <trkpt lat="44.48153" lon="6.19351">
        <ele>1117</ele>
        <time>2025-11-21T11:01:08.000Z</time>
      </trkpt>
      <trkpt lat="44.48153" lon="6.19351">
        <ele>1117</ele>
        <time>2025-11-21T11:01:09.000Z</time>
      </trkpt>
      <trkpt lat="44.48153" lon="6.1935">
        <ele>1117</ele>
        <time>2025-11-21T11:01:10.000Z</time>
      </trkpt>
      <trkpt lat="44.48153" lon="6.19351">
        <ele>1117</ele>
        <time>2025-11-21T11:01:11.000Z</time>
      </trkpt>
      <trkpt lat="44.48153" lon="6.1935">
        <ele>1117</ele>
        <time>2025-11-21T11:01:12.000Z</time>
      </trkpt>
      <trkpt lat="44.48154" lon="6.1935">
        <ele>1117</ele>
        <time>2025-11-21T11:01:13.000Z</time>
      </trkpt>
      <trkpt lat="44.48155" lon="6.19351">
        <ele>1116</ele>
        <time>2025-11-21T11:01:14.000Z</time>
      </trkpt>
      <trkpt lat="44.48157" lon="6.19351">
        <ele>1115</ele>
        <time>2025-11-21T11:01:15.000Z</time>
      </trkpt>
      <trkpt lat="44.48157" lon="6.19351">
        <ele>1114</ele>
        <time>2025-11-21T11:01:16.000Z</time>
      </trkpt>
      <trkpt lat="44.48157" lon="6.19351">
        <ele>1113</ele>
        <time>2025-11-21T11:01:17.000Z</time>
      </trkpt>
      <trkpt lat="44.48158" lon="6.19352">
        <ele>1114</ele>
        <time>2025-11-21T11:01:18.000Z</time>
      </trkpt>
      <trkpt lat="44.48158" lon="6.19353">
        <ele>1114</ele>
        <time>2025-11-21T11:01:19.000Z</time>
      </trkpt>
      <trkpt lat="44.48156" lon="6.19354">
        <ele>1117</ele>
        <time>2025-11-21T11:02:12.000Z</time>
      </trkpt>
      <trkpt lat="44.48156" lon="6.19354">
        <ele>1117</ele>
        <time>2025-11-21T11:02:13.000Z</time>
      </trkpt>
      <trkpt lat="44.48156" lon="6.19354">
        <ele>1117</ele>
        <time>2025-11-21T11:02:14.000Z</time>
      </trkpt>
      <trkpt lat="44.48154" lon="6.19354">
        <ele>1119</ele>
        <time>2025-11-21T11:03:58.000Z</time>
      </trkpt>
      <trkpt lat="44.48154" lon="6.19353">
        <ele>1119</ele>
        <time>2025-11-21T11:03:59.000Z</time>
      </trkpt>
      <trkpt lat="44.48153" lon="6.19353">
        <ele>1120</ele>
        <time>2025-11-21T11:04:00.000Z</time>
      </trkpt>
      <trkpt lat="44.48156" lon="6.19355">
        <ele>1119</ele>
        <time>2025-11-21T11:04:46.000Z</time>
      </trkpt>
      <trkpt lat="44.48156" lon="6.19355">
        <ele>1119</ele>
        <time>2025-11-21T11:04:47.000Z</time>
      </trkpt>
      <trkpt lat="44.48157" lon="6.19356">
        <ele>1119</ele>
        <time>2025-11-21T11:04:48.000Z</time>
      </trkpt>
      <trkpt lat="44.48157" lon="6.19356">
        <ele>1119</ele>
        <time>2025-11-21T11:04:49.000Z</time>
      </trkpt>
      <trkpt lat="44.48157" lon="6.19356">
        <ele>1119</ele>
        <time>2025-11-21T11:04:50.000Z</time>
      </trkpt>
      <trkpt lat="44.48158" lon="6.19356">
        <ele>1119</ele>
        <time>2025-11-21T11:04:51.000Z</time>
      </trkpt>
      <trkpt lat="44.48159" lon="6.19357">
        <ele>1119</ele>
        <time>2025-11-21T11:04:52.000Z</time>
      </trkpt>
      <trkpt lat="44.4816" lon="6.19357">
        <ele>1119</ele>
        <time>2025-11-21T11:04:53.000Z</time>
      </trkpt>
      <trkpt lat="44.48161" lon="6.19358">
        <ele>1119</ele>
        <time>2025-11-21T11:04:54.000Z</time>
      </trkpt>
      <trkpt lat="44.48161" lon="6.19358">
        <ele>1119</ele>
        <time>2025-11-21T11:04:55.000Z</time>
      </trkpt>
      <trkpt lat="44.48161" lon="6.19358">
        <ele>1119</ele>
        <time>2025-11-21T11:04:56.000Z</time>
      </trkpt>
      <trkpt lat="44.48162" lon="6.19359">
        <ele>1119</ele>
        <time>2025-11-21T11:04:57.000Z</time>
      </trkpt>
      <trkpt lat="44.48163" lon="6.19359">
        <ele>1120</ele>
        <time>2025-11-21T11:04:58.000Z</time>
      </trkpt>
      <trkpt lat="44.48164" lon="6.19359">
        <ele>1120</ele>
        <time>2025-11-21T11:04:59.000Z</time>
      </trkpt>
      <trkpt lat="44.48165" lon="6.19359">
        <ele>1120</ele>
        <time>2025-11-21T11:05:00.000Z</time>
      </trkpt>
      <trkpt lat="44.48165" lon="6.19359">
        <ele>1119</ele>
        <time>2025-11-21T11:05:01.000Z</time>
      </trkpt>
      <trkpt lat="44.48166" lon="6.19359">
        <ele>1119</ele>
        <time>2025-11-21T11:05:02.000Z</time>
      </trkpt>
      <trkpt lat="44.48167" lon="6.1936">
        <ele>1119</ele>
        <time>2025-11-21T11:05:03.000Z</time>
      </trkpt>
      <trkpt lat="44.48168" lon="6.1936">
        <ele>1119</ele>
        <time>2025-11-21T11:05:04.000Z</time>
      </trkpt>
      <trkpt lat="44.48168" lon="6.1936">
        <ele>1119</ele>
        <time>2025-11-21T11:05:05.000Z</time>
      </trkpt>
      <trkpt lat="44.48168" lon="6.1936">
        <ele>1119</ele>
        <time>2025-11-21T11:05:06.000Z</time>
      </trkpt>
      <trkpt lat="44.4817" lon="6.1936">
        <ele>1118</ele>
        <time>2025-11-21T11:05:07.000Z</time>
      </trkpt>
      <trkpt lat="44.4817" lon="6.19361">
        <ele>1118</ele>
        <time>2025-11-21T11:05:08.000Z</time>
      </trkpt>
      <trkpt lat="44.48171" lon="6.19362">
        <ele>1118</ele>
        <time>2025-11-21T11:05:09.000Z</time>
      </trkpt>
      <trkpt lat="44.48172" lon="6.19362">
        <ele>1118</ele>
        <time>2025-11-21T11:05:10.000Z</time>
      </trkpt>
      <trkpt lat="44.48173" lon="6.19363">
        <ele>1117</ele>
        <time>2025-11-21T11:05:11.000Z</time>
      </trkpt>
      <trkpt lat="44.48174" lon="6.19364">
        <ele>1117</ele>
        <time>2025-11-21T11:05:12.000Z</time>
      </trkpt>
      <trkpt lat="44.48174" lon="6.19364">
        <ele>1118</ele>
        <time>2025-11-21T11:05:13.000Z</time>
      </trkpt>
      <trkpt lat="44.48175" lon="6.19364">
        <ele>1117</ele>
        <time>2025-11-21T11:05:14.000Z</time>
      </trkpt>
      <trkpt lat="44.48175" lon="6.19364">
        <ele>1117</ele>
        <time>2025-11-21T11:05:15.000Z</time>
      </trkpt>
      <trkpt lat="44.48175" lon="6.19364">
        <ele>1117</ele>
        <time>2025-11-21T11:05:16.000Z</time>
      </trkpt>
      <trkpt lat="44.48175" lon="6.19364">
        <ele>1117</ele>
        <time>2025-11-21T11:05:17.000Z</time>
      </trkpt>
      <trkpt lat="44.48175" lon="6.19364">
        <ele>1117</ele>
        <time>2025-11-21T11:05:18.000Z</time>
      </trkpt>
      <trkpt lat="44.48175" lon="6.19364">
        <ele>1117</ele>
        <time>2025-11-21T11:05:19.000Z</time>
      </trkpt>
      <trkpt lat="44.48177" lon="6.19367">
        <ele>1117</ele>
        <time>2025-11-21T11:05:20.000Z</time>
      </trkpt>
      <trkpt lat="44.48177" lon="6.19368">
        <ele>1116</ele>
        <time>2025-11-21T11:05:21.000Z</time>
      </trkpt>
      <trkpt lat="44.48178" lon="6.19369">
        <ele>1115</ele>
        <time>2025-11-21T11:05:22.000Z</time>
      </trkpt>
      <trkpt lat="44.48179" lon="6.19369">
        <ele>1115</ele>
        <time>2025-11-21T11:05:23.000Z</time>
      </trkpt>
      <trkpt lat="44.4818" lon="6.19369">
        <ele>1115</ele>
        <time>2025-11-21T11:05:24.000Z</time>
      </trkpt>
      <trkpt lat="44.48181" lon="6.1937">
        <ele>1114</ele>
        <time>2025-11-21T11:05:25.000Z</time>
      </trkpt>
      <trkpt lat="44.48182" lon="6.19371">
        <ele>1114</ele>
        <time>2025-11-21T11:05:26.000Z</time>
      </trkpt>
      <trkpt lat="44.48183" lon="6.19371">
        <ele>1114</ele>
        <time>2025-11-21T11:05:27.000Z</time>
      </trkpt>
      <trkpt lat="44.48184" lon="6.19371">
        <ele>1115</ele>
        <time>2025-11-21T11:05:28.000Z</time>
      </trkpt>
      <trkpt lat="44.48185" lon="6.19371">
        <ele>1115</ele>
        <time>2025-11-21T11:05:29.000Z</time>
      </trkpt>
      <trkpt lat="44.48185" lon="6.1937">
        <ele>1115</ele>
        <time>2025-11-21T11:05:30.000Z</time>
      </trkpt>
      <trkpt lat="44.48186" lon="6.1937">
        <ele>1116</ele>
        <time>2025-11-21T11:05:31.000Z</time>
      </trkpt>
      <trkpt lat="44.48187" lon="6.1937">
        <ele>1116</ele>
        <time>2025-11-21T11:05:32.000Z</time>
      </trkpt>
      <trkpt lat="44.48189" lon="6.1937">
        <ele>1116</ele>
        <time>2025-11-21T11:05:33.000Z</time>
      </trkpt>
      <trkpt lat="44.48189" lon="6.1937">
        <ele>1117</ele>
        <time>2025-11-21T11:05:34.000Z</time>
      </trkpt>
      <trkpt lat="44.4819" lon="6.19371">
        <ele>1116</ele>
        <time>2025-11-21T11:05:35.000Z</time>
      </trkpt>
      <trkpt lat="44.4819" lon="6.19371">
        <ele>1117</ele>
        <time>2025-11-21T11:05:36.000Z</time>
      </trkpt>
      <trkpt lat="44.48192" lon="6.19372">
        <ele>1117</ele>
        <time>2025-11-21T11:05:37.000Z</time>
      </trkpt>
      <trkpt lat="44.48193" lon="6.19373">
        <ele>1116</ele>
        <time>2025-11-21T11:05:38.000Z</time>
      </trkpt>
      <trkpt lat="44.48193" lon="6.19374">
        <ele>1116</ele>
        <time>2025-11-21T11:05:39.000Z</time>
      </trkpt>
      <trkpt lat="44.48194" lon="6.19375">
        <ele>1117</ele>
        <time>2025-11-21T11:05:40.000Z</time>
      </trkpt>
      <trkpt lat="44.48194" lon="6.19375">
        <ele>1117</ele>
        <time>2025-11-21T11:05:41.000Z</time>
      </trkpt>
      <trkpt lat="44.48194" lon="6.19375">
        <ele>1117</ele>
        <time>2025-11-21T11:05:42.000Z</time>
      </trkpt>
      <trkpt lat="44.48194" lon="6.19377">
        <ele>1117</ele>
        <time>2025-11-21T11:06:22.000Z</time>
      </trkpt>
      <trkpt lat="44.48195" lon="6.19377">
        <ele>1116</ele>
        <time>2025-11-21T11:06:23.000Z</time>
      </trkpt>
      <trkpt lat="44.48196" lon="6.19378">
        <ele>1118</ele>
        <time>2025-11-21T11:06:24.000Z</time>
      </trkpt>
      <trkpt lat="44.48196" lon="6.19378">
        <ele>1118</ele>
        <time>2025-11-21T11:06:25.000Z</time>
      </trkpt>
      <trkpt lat="44.48197" lon="6.19378">
        <ele>1118</ele>
        <time>2025-11-21T11:06:26.000Z</time>
      </trkpt>
      <trkpt lat="44.48198" lon="6.19379">
        <ele>1118</ele>
        <time>2025-11-21T11:06:27.000Z</time>
      </trkpt>
      <trkpt lat="44.48199" lon="6.19379">
        <ele>1119</ele>
        <time>2025-11-21T11:06:28.000Z</time>
      </trkpt>
      <trkpt lat="44.482" lon="6.19379">
        <ele>1120</ele>
        <time>2025-11-21T11:06:29.000Z</time>
      </trkpt>
      <trkpt lat="44.482" lon="6.19379">
        <ele>1119</ele>
        <time>2025-11-21T11:06:30.000Z</time>
      </trkpt>
      <trkpt lat="44.482" lon="6.19378">
        <ele>1120</ele>
        <time>2025-11-21T11:06:31.000Z</time>
      </trkpt>
      <trkpt lat="44.482" lon="6.19378">
        <ele>1120</ele>
        <time>2025-11-21T11:06:32.000Z</time>
      </trkpt>
      <trkpt lat="44.482" lon="6.19378">
        <ele>1120</ele>
        <time>2025-11-21T11:06:33.000Z</time>
      </trkpt>
      <trkpt lat="44.482" lon="6.19378">
        <ele>1120</ele>
        <time>2025-11-21T11:06:34.000Z</time>
      </trkpt>
      <trkpt lat="44.482" lon="6.19378">
        <ele>1121</ele>
        <time>2025-11-21T11:06:35.000Z</time>
      </trkpt>
      <trkpt lat="44.48201" lon="6.19378">
        <ele>1122</ele>
        <time>2025-11-21T11:06:36.000Z</time>
      </trkpt>
      <trkpt lat="44.48202" lon="6.19378">
        <ele>1122</ele>
        <time>2025-11-21T11:06:37.000Z</time>
      </trkpt>
      <trkpt lat="44.48203" lon="6.19379">
        <ele>1123</ele>
        <time>2025-11-21T11:06:38.000Z</time>
      </trkpt>
      <trkpt lat="44.48204" lon="6.19379">
        <ele>1124</ele>
        <time>2025-11-21T11:06:39.000Z</time>
      </trkpt>
      <trkpt lat="44.48205" lon="6.1938">
        <ele>1124</ele>
        <time>2025-11-21T11:06:40.000Z</time>
      </trkpt>
      <trkpt lat="44.48205" lon="6.1938">
        <ele>1124</ele>
        <time>2025-11-21T11:06:41.000Z</time>
      </trkpt>
      <trkpt lat="44.48205" lon="6.1938">
        <ele>1124</ele>
        <time>2025-11-21T11:06:42.000Z</time>
      </trkpt>
      <trkpt lat="44.48207" lon="6.19381">
        <ele>1123</ele>
        <time>2025-11-21T11:06:43.000Z</time>
      </trkpt>
      <trkpt lat="44.48208" lon="6.19382">
        <ele>1123</ele>
        <time>2025-11-21T11:06:44.000Z</time>
      </trkpt>
      <trkpt lat="44.48208" lon="6.19383">
        <ele>1123</ele>
        <time>2025-11-21T11:06:45.000Z</time>
      </trkpt>
      <trkpt lat="44.48209" lon="6.19384">
        <ele>1124</ele>
        <time>2025-11-21T11:06:46.000Z</time>
      </trkpt>
      <trkpt lat="44.48209" lon="6.19385">
        <ele>1124</ele>
        <time>2025-11-21T11:06:47.000Z</time>
      </trkpt>
      <trkpt lat="44.4821" lon="6.19385">
        <ele>1124</ele>
        <time>2025-11-21T11:06:48.000Z</time>
      </trkpt>
      <trkpt lat="44.4821" lon="6.19386">
        <ele>1124</ele>
        <time>2025-11-21T11:06:49.000Z</time>
      </trkpt>
      <trkpt lat="44.48212" lon="6.19387">
        <ele>1124</ele>
        <time>2025-11-21T11:06:50.000Z</time>
      </trkpt>
      <trkpt lat="44.48213" lon="6.19388">
        <ele>1124</ele>
        <time>2025-11-21T11:06:51.000Z</time>
      </trkpt>
      <trkpt lat="44.48213" lon="6.1939">
        <ele>1123</ele>
        <time>2025-11-21T11:06:52.000Z</time>
      </trkpt>
      <trkpt lat="44.48214" lon="6.19391">
        <ele>1124</ele>
        <time>2025-11-21T11:06:53.000Z</time>
      </trkpt>
      <trkpt lat="44.48214" lon="6.19392">
        <ele>1123</ele>
        <time>2025-11-21T11:06:54.000Z</time>
      </trkpt>
      <trkpt lat="44.48215" lon="6.19393">
        <ele>1123</ele>
        <time>2025-11-21T11:06:55.000Z</time>
      </trkpt>
      <trkpt lat="44.48215" lon="6.19394">
        <ele>1123</ele>
        <time>2025-11-21T11:06:56.000Z</time>
      </trkpt>
      <trkpt lat="44.48215" lon="6.19395">
        <ele>1123</ele>
        <time>2025-11-21T11:06:57.000Z</time>
      </trkpt>
      <trkpt lat="44.48215" lon="6.19395">
        <ele>1123</ele>
        <time>2025-11-21T11:06:58.000Z</time>
      </trkpt>
      <trkpt lat="44.48217" lon="6.19396">
        <ele>1124</ele>
        <time>2025-11-21T11:06:59.000Z</time>
      </trkpt>
      <trkpt lat="44.48218" lon="6.19397">
        <ele>1124</ele>
        <time>2025-11-21T11:07:00.000Z</time>
      </trkpt>
      <trkpt lat="44.48217" lon="6.19398">
        <ele>1124</ele>
        <time>2025-11-21T11:07:01.000Z</time>
      </trkpt>
      <trkpt lat="44.48218" lon="6.19398">
        <ele>1124</ele>
        <time>2025-11-21T11:07:02.000Z</time>
      </trkpt>
      <trkpt lat="44.48219" lon="6.19399">
        <ele>1124</ele>
        <time>2025-11-21T11:07:03.000Z</time>
      </trkpt>
      <trkpt lat="44.48219" lon="6.194">
        <ele>1123</ele>
        <time>2025-11-21T11:07:04.000Z</time>
      </trkpt>
      <trkpt lat="44.4822" lon="6.19401">
        <ele>1123</ele>
        <time>2025-11-21T11:07:05.000Z</time>
      </trkpt>
      <trkpt lat="44.4822" lon="6.19401">
        <ele>1123</ele>
        <time>2025-11-21T11:07:06.000Z</time>
      </trkpt>
      <trkpt lat="44.4822" lon="6.19402">
        <ele>1123</ele>
        <time>2025-11-21T11:07:07.000Z</time>
      </trkpt>
      <trkpt lat="44.48221" lon="6.19402">
        <ele>1124</ele>
        <time>2025-11-21T11:07:08.000Z</time>
      </trkpt>
      <trkpt lat="44.48221" lon="6.19403">
        <ele>1124</ele>
        <time>2025-11-21T11:07:09.000Z</time>
      </trkpt>
      <trkpt lat="44.48222" lon="6.19404">
        <ele>1123</ele>
        <time>2025-11-21T11:07:10.000Z</time>
      </trkpt>
      <trkpt lat="44.48223" lon="6.19405">
        <ele>1122</ele>
        <time>2025-11-21T11:07:11.000Z</time>
      </trkpt>
      <trkpt lat="44.48224" lon="6.19405">
        <ele>1123</ele>
        <time>2025-11-21T11:07:12.000Z</time>
      </trkpt>
      <trkpt lat="44.48224" lon="6.19405">
        <ele>1123</ele>
        <time>2025-11-21T11:07:13.000Z</time>
      </trkpt>
      <trkpt lat="44.48225" lon="6.19406">
        <ele>1123</ele>
        <time>2025-11-21T11:07:14.000Z</time>
      </trkpt>
      <trkpt lat="44.48226" lon="6.19407">
        <ele>1122</ele>
        <time>2025-11-21T11:07:15.000Z</time>
      </trkpt>
      <trkpt lat="44.48226" lon="6.19408">
        <ele>1122</ele>
        <time>2025-11-21T11:07:16.000Z</time>
      </trkpt>
      <trkpt lat="44.48227" lon="6.19409">
        <ele>1122</ele>
        <time>2025-11-21T11:07:17.000Z</time>
      </trkpt>
      <trkpt lat="44.48228" lon="6.19409">
        <ele>1122</ele>
        <time>2025-11-21T11:07:18.000Z</time>
      </trkpt>
      <trkpt lat="44.48228" lon="6.19409">
        <ele>1123</ele>
        <time>2025-11-21T11:07:19.000Z</time>
      </trkpt>
      <trkpt lat="44.48228" lon="6.1941">
        <ele>1123</ele>
        <time>2025-11-21T11:07:20.000Z</time>
      </trkpt>
      <trkpt lat="44.48228" lon="6.19411">
        <ele>1124</ele>
        <time>2025-11-21T11:07:21.000Z</time>
      </trkpt>
      <trkpt lat="44.48229" lon="6.19411">
        <ele>1124</ele>
        <time>2025-11-21T11:07:22.000Z</time>
      </trkpt>
      <trkpt lat="44.48229" lon="6.19412">
        <ele>1124</ele>
        <time>2025-11-21T11:07:23.000Z</time>
      </trkpt>
      <trkpt lat="44.4823" lon="6.19411">
        <ele>1124</ele>
        <time>2025-11-21T11:07:24.000Z</time>
      </trkpt>
      <trkpt lat="44.48231" lon="6.19411">
        <ele>1124</ele>
        <time>2025-11-21T11:07:25.000Z</time>
      </trkpt>
      <trkpt lat="44.48231" lon="6.1941">
        <ele>1124</ele>
        <time>2025-11-21T11:07:26.000Z</time>
      </trkpt>
      <trkpt lat="44.48232" lon="6.19411">
        <ele>1124</ele>
        <time>2025-11-21T11:07:27.000Z</time>
      </trkpt>
      <trkpt lat="44.48233" lon="6.19412">
        <ele>1124</ele>
        <time>2025-11-21T11:07:28.000Z</time>
      </trkpt>
      <trkpt lat="44.48233" lon="6.19412">
        <ele>1124</ele>
        <time>2025-11-21T11:07:29.000Z</time>
      </trkpt>
      <trkpt lat="44.48234" lon="6.19413">
        <ele>1125</ele>
        <time>2025-11-21T11:07:30.000Z</time>
      </trkpt>
      <trkpt lat="44.48234" lon="6.19414">
        <ele>1125</ele>
        <time>2025-11-21T11:07:31.000Z</time>
      </trkpt>
      <trkpt lat="44.48234" lon="6.19414">
        <ele>1125</ele>
        <time>2025-11-21T11:07:32.000Z</time>
      </trkpt>
      <trkpt lat="44.48234" lon="6.19414">
        <ele>1125</ele>
        <time>2025-11-21T11:07:33.000Z</time>
      </trkpt>
      <trkpt lat="44.48235" lon="6.19416">
        <ele>1126</ele>
        <time>2025-11-21T11:07:34.000Z</time>
      </trkpt>
      <trkpt lat="44.48235" lon="6.19418">
        <ele>1126</ele>
        <time>2025-11-21T11:07:35.000Z</time>
      </trkpt>
      <trkpt lat="44.48237" lon="6.19419">
        <ele>1126</ele>
        <time>2025-11-21T11:07:36.000Z</time>
      </trkpt>
      <trkpt lat="44.48237" lon="6.1942">
        <ele>1126</ele>
        <time>2025-11-21T11:07:37.000Z</time>
      </trkpt>
      <trkpt lat="44.48238" lon="6.19422">
        <ele>1126</ele>
        <time>2025-11-21T11:07:38.000Z</time>
      </trkpt>
      <trkpt lat="44.48238" lon="6.19423">
        <ele>1127</ele>
        <time>2025-11-21T11:07:39.000Z</time>
      </trkpt>
      <trkpt lat="44.48239" lon="6.19424">
        <ele>1127</ele>
        <time>2025-11-21T11:07:40.000Z</time>
      </trkpt>
      <trkpt lat="44.4824" lon="6.19425">
        <ele>1126</ele>
        <time>2025-11-21T11:07:41.000Z</time>
      </trkpt>
      <trkpt lat="44.4824" lon="6.19426">
        <ele>1126</ele>
        <time>2025-11-21T11:07:42.000Z</time>
      </trkpt>
      <trkpt lat="44.48241" lon="6.19427">
        <ele>1126</ele>
        <time>2025-11-21T11:07:43.000Z</time>
      </trkpt>
      <trkpt lat="44.48242" lon="6.19428">
        <ele>1127</ele>
        <time>2025-11-21T11:07:44.000Z</time>
      </trkpt>
      <trkpt lat="44.48242" lon="6.19429">
        <ele>1127</ele>
        <time>2025-11-21T11:07:45.000Z</time>
      </trkpt>
      <trkpt lat="44.48243" lon="6.19429">
        <ele>1128</ele>
        <time>2025-11-21T11:07:46.000Z</time>
      </trkpt>
      <trkpt lat="44.48244" lon="6.19431">
        <ele>1128</ele>
        <time>2025-11-21T11:07:47.000Z</time>
      </trkpt>
      <trkpt lat="44.48245" lon="6.19432">
        <ele>1129</ele>
        <time>2025-11-21T11:07:48.000Z</time>
      </trkpt>
      <trkpt lat="44.48246" lon="6.19433">
        <ele>1127</ele>
        <time>2025-11-21T11:07:49.000Z</time>
      </trkpt>
      <trkpt lat="44.48246" lon="6.19433">
        <ele>1126</ele>
        <time>2025-11-21T11:07:50.000Z</time>
      </trkpt>
      <trkpt lat="44.48246" lon="6.19434">
        <ele>1127</ele>
        <time>2025-11-21T11:07:51.000Z</time>
      </trkpt>
      <trkpt lat="44.48247" lon="6.19436">
        <ele>1128</ele>
        <time>2025-11-21T11:07:52.000Z</time>
      </trkpt>
      <trkpt lat="44.48247" lon="6.19437">
        <ele>1129</ele>
        <time>2025-11-21T11:07:53.000Z</time>
      </trkpt>
      <trkpt lat="44.48248" lon="6.19438">
        <ele>1129</ele>
        <time>2025-11-21T11:07:54.000Z</time>
      </trkpt>
      <trkpt lat="44.48249" lon="6.19437">
        <ele>1129</ele>
        <time>2025-11-21T11:07:55.000Z</time>
      </trkpt>
      <trkpt lat="44.48249" lon="6.19438">
        <ele>1131</ele>
        <time>2025-11-21T11:07:56.000Z</time>
      </trkpt>
      <trkpt lat="44.48249" lon="6.19439">
        <ele>1131</ele>
        <time>2025-11-21T11:07:57.000Z</time>
      </trkpt>
      <trkpt lat="44.4825" lon="6.1944">
        <ele>1131</ele>
        <time>2025-11-21T11:07:58.000Z</time>
      </trkpt>
      <trkpt lat="44.4825" lon="6.19441">
        <ele>1131</ele>
        <time>2025-11-21T11:07:59.000Z</time>
      </trkpt>
      <trkpt lat="44.48251" lon="6.19442">
        <ele>1131</ele>
        <time>2025-11-21T11:08:00.000Z</time>
      </trkpt>
      <trkpt lat="44.48252" lon="6.19444">
        <ele>1131</ele>
        <time>2025-11-21T11:08:01.000Z</time>
      </trkpt>
      <trkpt lat="44.48253" lon="6.19444">
        <ele>1132</ele>
        <time>2025-11-21T11:08:02.000Z</time>
      </trkpt>
      <trkpt lat="44.48254" lon="6.19444">
        <ele>1131</ele>
        <time>2025-11-21T11:08:03.000Z</time>
      </trkpt>
      <trkpt lat="44.48254" lon="6.19445">
        <ele>1131</ele>
        <time>2025-11-21T11:08:04.000Z</time>
      </trkpt>
      <trkpt lat="44.48255" lon="6.19446">
        <ele>1132</ele>
        <time>2025-11-21T11:08:05.000Z</time>
      </trkpt>
      <trkpt lat="44.48256" lon="6.19447">
        <ele>1132</ele>
        <time>2025-11-21T11:08:06.000Z</time>
      </trkpt>
      <trkpt lat="44.48256" lon="6.19447">
        <ele>1132</ele>
        <time>2025-11-21T11:08:07.000Z</time>
      </trkpt>
      <trkpt lat="44.48257" lon="6.19447">
        <ele>1133</ele>
        <time>2025-11-21T11:08:08.000Z</time>
      </trkpt>
      <trkpt lat="44.48258" lon="6.19447">
        <ele>1133</ele>
        <time>2025-11-21T11:08:09.000Z</time>
      </trkpt>
      <trkpt lat="44.48258" lon="6.19447">
        <ele>1133</ele>
        <time>2025-11-21T11:08:10.000Z</time>
      </trkpt>
      <trkpt lat="44.48259" lon="6.19448">
        <ele>1133</ele>
        <time>2025-11-21T11:08:11.000Z</time>
      </trkpt>
      <trkpt lat="44.4826" lon="6.19448">
        <ele>1133</ele>
        <time>2025-11-21T11:08:12.000Z</time>
      </trkpt>
      <trkpt lat="44.4826" lon="6.19449">
        <ele>1133</ele>
        <time>2025-11-21T11:08:13.000Z</time>
      </trkpt>
      <trkpt lat="44.48261" lon="6.1945">
        <ele>1134</ele>
        <time>2025-11-21T11:08:14.000Z</time>
      </trkpt>
      <trkpt lat="44.48261" lon="6.19451">
        <ele>1135</ele>
        <time>2025-11-21T11:08:15.000Z</time>
      </trkpt>
      <trkpt lat="44.48261" lon="6.19452">
        <ele>1136</ele>
        <time>2025-11-21T11:08:16.000Z</time>
      </trkpt>
      <trkpt lat="44.48262" lon="6.19453">
        <ele>1136</ele>
        <time>2025-11-21T11:08:17.000Z</time>
      </trkpt>
      <trkpt lat="44.48262" lon="6.19454">
        <ele>1136</ele>
        <time>2025-11-21T11:08:18.000Z</time>
      </trkpt>
      <trkpt lat="44.48262" lon="6.19456">
        <ele>1136</ele>
        <time>2025-11-21T11:08:19.000Z</time>
      </trkpt>
      <trkpt lat="44.48262" lon="6.19457">
        <ele>1137</ele>
        <time>2025-11-21T11:08:20.000Z</time>
      </trkpt>
      <trkpt lat="44.48262" lon="6.19459">
        <ele>1136</ele>
        <time>2025-11-21T11:08:21.000Z</time>
      </trkpt>
      <trkpt lat="44.48263" lon="6.19461">
        <ele>1137</ele>
        <time>2025-11-21T11:08:22.000Z</time>
      </trkpt>
      <trkpt lat="44.48263" lon="6.19462">
        <ele>1137</ele>
        <time>2025-11-21T11:08:23.000Z</time>
      </trkpt>
      <trkpt lat="44.48265" lon="6.19462">
        <ele>1136</ele>
        <time>2025-11-21T11:08:24.000Z</time>
      </trkpt>
      <trkpt lat="44.48266" lon="6.19463">
        <ele>1136</ele>
        <time>2025-11-21T11:08:25.000Z</time>
      </trkpt>
      <trkpt lat="44.48267" lon="6.19463">
        <ele>1137</ele>
        <time>2025-11-21T11:08:26.000Z</time>
      </trkpt>
      <trkpt lat="44.48267" lon="6.19464">
        <ele>1137</ele>
        <time>2025-11-21T11:08:27.000Z</time>
      </trkpt>
      <trkpt lat="44.48268" lon="6.19463">
        <ele>1137</ele>
        <time>2025-11-21T11:08:28.000Z</time>
      </trkpt>
      <trkpt lat="44.48269" lon="6.19464">
        <ele>1137</ele>
        <time>2025-11-21T11:08:29.000Z</time>
      </trkpt>
      <trkpt lat="44.48269" lon="6.19465">
        <ele>1138</ele>
        <time>2025-11-21T11:08:30.000Z</time>
      </trkpt>
      <trkpt lat="44.48269" lon="6.19466">
        <ele>1138</ele>
        <time>2025-11-21T11:08:31.000Z</time>
      </trkpt>
      <trkpt lat="44.4827" lon="6.19467">
        <ele>1137</ele>
        <time>2025-11-21T11:08:32.000Z</time>
      </trkpt>
      <trkpt lat="44.4827" lon="6.19469">
        <ele>1137</ele>
        <time>2025-11-21T11:08:33.000Z</time>
      </trkpt>
      <trkpt lat="44.48271" lon="6.19471">
        <ele>1137</ele>
        <time>2025-11-21T11:08:34.000Z</time>
      </trkpt>
      <trkpt lat="44.48271" lon="6.19473">
        <ele>1138</ele>
        <time>2025-11-21T11:08:35.000Z</time>
      </trkpt>
      <trkpt lat="44.48272" lon="6.19474">
        <ele>1139</ele>
        <time>2025-11-21T11:08:36.000Z</time>
      </trkpt>
      <trkpt lat="44.48273" lon="6.19475">
        <ele>1140</ele>
        <time>2025-11-21T11:08:37.000Z</time>
      </trkpt>
      <trkpt lat="44.48274" lon="6.19475">
        <ele>1140</ele>
        <time>2025-11-21T11:08:38.000Z</time>
      </trkpt>
      <trkpt lat="44.48275" lon="6.19477">
        <ele>1140</ele>
        <time>2025-11-21T11:08:39.000Z</time>
      </trkpt>
      <trkpt lat="44.48276" lon="6.19477">
        <ele>1140</ele>
        <time>2025-11-21T11:08:40.000Z</time>
      </trkpt>
      <trkpt lat="44.48276" lon="6.19477">
        <ele>1140</ele>
        <time>2025-11-21T11:08:41.000Z</time>
      </trkpt>
      <trkpt lat="44.48277" lon="6.19477">
        <ele>1140</ele>
        <time>2025-11-21T11:08:42.000Z</time>
      </trkpt>
      <trkpt lat="44.48278" lon="6.19478">
        <ele>1139</ele>
        <time>2025-11-21T11:08:43.000Z</time>
      </trkpt>
      <trkpt lat="44.4828" lon="6.19479">
        <ele>1139</ele>
        <time>2025-11-21T11:08:44.000Z</time>
      </trkpt>
      <trkpt lat="44.48281" lon="6.1948">
        <ele>1140</ele>
        <time>2025-11-21T11:08:45.000Z</time>
      </trkpt>
      <trkpt lat="44.48282" lon="6.19481">
        <ele>1141</ele>
        <time>2025-11-21T11:08:46.000Z</time>
      </trkpt>
      <trkpt lat="44.48283" lon="6.19482">
        <ele>1141</ele>
        <time>2025-11-21T11:08:47.000Z</time>
      </trkpt>
      <trkpt lat="44.48283" lon="6.19482">
        <ele>1141</ele>
        <time>2025-11-21T11:08:48.000Z</time>
      </trkpt>
      <trkpt lat="44.48284" lon="6.19482">
        <ele>1142</ele>
        <time>2025-11-21T11:08:49.000Z</time>
      </trkpt>
      <trkpt lat="44.48285" lon="6.19483">
        <ele>1143</ele>
        <time>2025-11-21T11:08:50.000Z</time>
      </trkpt>
      <trkpt lat="44.48285" lon="6.19483">
        <ele>1143</ele>
        <time>2025-11-21T11:08:51.000Z</time>
      </trkpt>
      <trkpt lat="44.48286" lon="6.19483">
        <ele>1144</ele>
        <time>2025-11-21T11:08:52.000Z</time>
      </trkpt>
      <trkpt lat="44.48286" lon="6.19484">
        <ele>1143</ele>
        <time>2025-11-21T11:08:53.000Z</time>
      </trkpt>
      <trkpt lat="44.48287" lon="6.19484">
        <ele>1144</ele>
        <time>2025-11-21T11:08:54.000Z</time>
      </trkpt>
      <trkpt lat="44.48287" lon="6.19484">
        <ele>1144</ele>
        <time>2025-11-21T11:08:55.000Z</time>
      </trkpt>
      <trkpt lat="44.48288" lon="6.19485">
        <ele>1145</ele>
        <time>2025-11-21T11:08:56.000Z</time>
      </trkpt>
      <trkpt lat="44.48288" lon="6.19486">
        <ele>1144</ele>
        <time>2025-11-21T11:08:57.000Z</time>
      </trkpt>
      <trkpt lat="44.48289" lon="6.19488">
        <ele>1144</ele>
        <time>2025-11-21T11:08:58.000Z</time>
      </trkpt>
      <trkpt lat="44.4829" lon="6.19489">
        <ele>1144</ele>
        <time>2025-11-21T11:08:59.000Z</time>
      </trkpt>
      <trkpt lat="44.48291" lon="6.1949">
        <ele>1144</ele>
        <time>2025-11-21T11:09:00.000Z</time>
      </trkpt>
      <trkpt lat="44.48291" lon="6.1949">
        <ele>1144</ele>
        <time>2025-11-21T11:09:01.000Z</time>
      </trkpt>
      <trkpt lat="44.48292" lon="6.1949">
        <ele>1144</ele>
        <time>2025-11-21T11:09:02.000Z</time>
      </trkpt>
      <trkpt lat="44.48293" lon="6.19491">
        <ele>1144</ele>
        <time>2025-11-21T11:09:03.000Z</time>
      </trkpt>
      <trkpt lat="44.48294" lon="6.19492">
        <ele>1144</ele>
        <time>2025-11-21T11:09:04.000Z</time>
      </trkpt>
      <trkpt lat="44.48295" lon="6.19493">
        <ele>1145</ele>
        <time>2025-11-21T11:09:05.000Z</time>
      </trkpt>
      <trkpt lat="44.48296" lon="6.19494">
        <ele>1145</ele>
        <time>2025-11-21T11:09:06.000Z</time>
      </trkpt>
      <trkpt lat="44.48298" lon="6.19494">
        <ele>1145</ele>
        <time>2025-11-21T11:09:07.000Z</time>
      </trkpt>
      <trkpt lat="44.48298" lon="6.19494">
        <ele>1145</ele>
        <time>2025-11-21T11:09:08.000Z</time>
      </trkpt>
      <trkpt lat="44.48299" lon="6.19495">
        <ele>1145</ele>
        <time>2025-11-21T11:09:09.000Z</time>
      </trkpt>
      <trkpt lat="44.483" lon="6.19496">
        <ele>1145</ele>
        <time>2025-11-21T11:09:10.000Z</time>
      </trkpt>
      <trkpt lat="44.48301" lon="6.19497">
        <ele>1145</ele>
        <time>2025-11-21T11:09:11.000Z</time>
      </trkpt>
      <trkpt lat="44.48301" lon="6.19498">
        <ele>1144</ele>
        <time>2025-11-21T11:09:12.000Z</time>
      </trkpt>
      <trkpt lat="44.48302" lon="6.19499">
        <ele>1145</ele>
        <time>2025-11-21T11:09:13.000Z</time>
      </trkpt>
      <trkpt lat="44.48303" lon="6.19499">
        <ele>1145</ele>
        <time>2025-11-21T11:09:14.000Z</time>
      </trkpt>
      <trkpt lat="44.48303" lon="6.195">
        <ele>1145</ele>
        <time>2025-11-21T11:09:15.000Z</time>
      </trkpt>
      <trkpt lat="44.48304" lon="6.195">
        <ele>1146</ele>
        <time>2025-11-21T11:09:16.000Z</time>
      </trkpt>
      <trkpt lat="44.48304" lon="6.19501">
        <ele>1146</ele>
        <time>2025-11-21T11:09:17.000Z</time>
      </trkpt>
      <trkpt lat="44.48305" lon="6.19502">
        <ele>1145</ele>
        <time>2025-11-21T11:09:18.000Z</time>
      </trkpt>
      <trkpt lat="44.48305" lon="6.19503">
        <ele>1145</ele>
        <time>2025-11-21T11:09:19.000Z</time>
      </trkpt>
      <trkpt lat="44.48306" lon="6.19505">
        <ele>1145</ele>
        <time>2025-11-21T11:09:20.000Z</time>
      </trkpt>
      <trkpt lat="44.48307" lon="6.19506">
        <ele>1146</ele>
        <time>2025-11-21T11:09:21.000Z</time>
      </trkpt>
      <trkpt lat="44.48307" lon="6.19507">
        <ele>1146</ele>
        <time>2025-11-21T11:09:22.000Z</time>
      </trkpt>
      <trkpt lat="44.48308" lon="6.19509">
        <ele>1147</ele>
        <time>2025-11-21T11:09:23.000Z</time>
      </trkpt>
      <trkpt lat="44.48309" lon="6.1951">
        <ele>1147</ele>
        <time>2025-11-21T11:09:24.000Z</time>
      </trkpt>
      <trkpt lat="44.48309" lon="6.19511">
        <ele>1148</ele>
        <time>2025-11-21T11:09:25.000Z</time>
      </trkpt>
      <trkpt lat="44.48309" lon="6.19512">
        <ele>1148</ele>
        <time>2025-11-21T11:09:26.000Z</time>
      </trkpt>
      <trkpt lat="44.4831" lon="6.19513">
        <ele>1147</ele>
        <time>2025-11-21T11:09:27.000Z</time>
      </trkpt>
      <trkpt lat="44.48311" lon="6.19513">
        <ele>1148</ele>
        <time>2025-11-21T11:09:28.000Z</time>
      </trkpt>
      <trkpt lat="44.4831" lon="6.19513">
        <ele>1148</ele>
        <time>2025-11-21T11:09:29.000Z</time>
      </trkpt>
      <trkpt lat="44.4831" lon="6.19515">
        <ele>1149</ele>
        <time>2025-11-21T11:09:30.000Z</time>
      </trkpt>
      <trkpt lat="44.48311" lon="6.19515">
        <ele>1150</ele>
        <time>2025-11-21T11:09:31.000Z</time>
      </trkpt>
      <trkpt lat="44.48311" lon="6.19516">
        <ele>1150</ele>
        <time>2025-11-21T11:09:32.000Z</time>
      </trkpt>
      <trkpt lat="44.48312" lon="6.19517">
        <ele>1149</ele>
        <time>2025-11-21T11:09:33.000Z</time>
      </trkpt>
      <trkpt lat="44.48313" lon="6.19518">
        <ele>1149</ele>
        <time>2025-11-21T11:09:34.000Z</time>
      </trkpt>
      <trkpt lat="44.48314" lon="6.19519">
        <ele>1149</ele>
        <time>2025-11-21T11:09:35.000Z</time>
      </trkpt>
      <trkpt lat="44.48315" lon="6.1952">
        <ele>1149</ele>
        <time>2025-11-21T11:09:36.000Z</time>
      </trkpt>
      <trkpt lat="44.48316" lon="6.19521">
        <ele>1149</ele>
        <time>2025-11-21T11:09:37.000Z</time>
      </trkpt>
      <trkpt lat="44.48316" lon="6.19521">
        <ele>1149</ele>
        <time>2025-11-21T11:09:38.000Z</time>
      </trkpt>
      <trkpt lat="44.48317" lon="6.19522">
        <ele>1149</ele>
        <time>2025-11-21T11:09:39.000Z</time>
      </trkpt>
      <trkpt lat="44.48318" lon="6.19524">
        <ele>1149</ele>
        <time>2025-11-21T11:09:40.000Z</time>
      </trkpt>
      <trkpt lat="44.48318" lon="6.19524">
        <ele>1150</ele>
        <time>2025-11-21T11:09:41.000Z</time>
      </trkpt>
      <trkpt lat="44.4832" lon="6.19524">
        <ele>1150</ele>
        <time>2025-11-21T11:09:42.000Z</time>
      </trkpt>
      <trkpt lat="44.4832" lon="6.19525">
        <ele>1151</ele>
        <time>2025-11-21T11:09:43.000Z</time>
      </trkpt>
      <trkpt lat="44.48321" lon="6.19525">
        <ele>1151</ele>
        <time>2025-11-21T11:09:44.000Z</time>
      </trkpt>
      <trkpt lat="44.48321" lon="6.19526">
        <ele>1152</ele>
        <time>2025-11-21T11:09:45.000Z</time>
      </trkpt>
      <trkpt lat="44.48321" lon="6.19527">
        <ele>1152</ele>
        <time>2025-11-21T11:09:46.000Z</time>
      </trkpt>
      <trkpt lat="44.48322" lon="6.19528">
        <ele>1152</ele>
        <time>2025-11-21T11:09:47.000Z</time>
      </trkpt>
      <trkpt lat="44.48322" lon="6.19529">
        <ele>1153</ele>
        <time>2025-11-21T11:09:48.000Z</time>
      </trkpt>
      <trkpt lat="44.48322" lon="6.1953">
        <ele>1154</ele>
        <time>2025-11-21T11:09:49.000Z</time>
      </trkpt>
      <trkpt lat="44.48323" lon="6.19529">
        <ele>1154</ele>
        <time>2025-11-21T11:09:50.000Z</time>
      </trkpt>
      <trkpt lat="44.48323" lon="6.19531">
        <ele>1155</ele>
        <time>2025-11-21T11:09:51.000Z</time>
      </trkpt>
      <trkpt lat="44.48324" lon="6.19532">
        <ele>1154</ele>
        <time>2025-11-21T11:09:52.000Z</time>
      </trkpt>
      <trkpt lat="44.48325" lon="6.19532">
        <ele>1154</ele>
        <time>2025-11-21T11:09:53.000Z</time>
      </trkpt>
      <trkpt lat="44.48326" lon="6.19533">
        <ele>1154</ele>
        <time>2025-11-21T11:09:54.000Z</time>
      </trkpt>
      <trkpt lat="44.48326" lon="6.19534">
        <ele>1153</ele>
        <time>2025-11-21T11:09:55.000Z</time>
      </trkpt>
      <trkpt lat="44.48327" lon="6.19534">
        <ele>1153</ele>
        <time>2025-11-21T11:09:56.000Z</time>
      </trkpt>
      <trkpt lat="44.48328" lon="6.19534">
        <ele>1153</ele>
        <time>2025-11-21T11:09:57.000Z</time>
      </trkpt>
      <trkpt lat="44.48329" lon="6.19535">
        <ele>1154</ele>
        <time>2025-11-21T11:09:58.000Z</time>
      </trkpt>
      <trkpt lat="44.48331" lon="6.19536">
        <ele>1153</ele>
        <time>2025-11-21T11:09:59.000Z</time>
      </trkpt>
      <trkpt lat="44.48332" lon="6.19536">
        <ele>1153</ele>
        <time>2025-11-21T11:10:00.000Z</time>
      </trkpt>
      <trkpt lat="44.48333" lon="6.19537">
        <ele>1153</ele>
        <time>2025-11-21T11:10:01.000Z</time>
      </trkpt>
      <trkpt lat="44.48333" lon="6.19538">
        <ele>1154</ele>
        <time>2025-11-21T11:10:02.000Z</time>
      </trkpt>
      <trkpt lat="44.48334" lon="6.19539">
        <ele>1154</ele>
        <time>2025-11-21T11:10:03.000Z</time>
      </trkpt>
      <trkpt lat="44.48335" lon="6.1954">
        <ele>1154</ele>
        <time>2025-11-21T11:10:04.000Z</time>
      </trkpt>
      <trkpt lat="44.48336" lon="6.19541">
        <ele>1154</ele>
        <time>2025-11-21T11:10:05.000Z</time>
      </trkpt>
      <trkpt lat="44.48336" lon="6.19542">
        <ele>1155</ele>
        <time>2025-11-21T11:10:06.000Z</time>
      </trkpt>
      <trkpt lat="44.48337" lon="6.19543">
        <ele>1155</ele>
        <time>2025-11-21T11:10:07.000Z</time>
      </trkpt>
      <trkpt lat="44.48337" lon="6.19543">
        <ele>1155</ele>
        <time>2025-11-21T11:10:08.000Z</time>
      </trkpt>
      <trkpt lat="44.48339" lon="6.19544">
        <ele>1155</ele>
        <time>2025-11-21T11:10:09.000Z</time>
      </trkpt>
      <trkpt lat="44.4834" lon="6.19545">
        <ele>1155</ele>
        <time>2025-11-21T11:10:10.000Z</time>
      </trkpt>
      <trkpt lat="44.4834" lon="6.19546">
        <ele>1155</ele>
        <time>2025-11-21T11:10:11.000Z</time>
      </trkpt>
      <trkpt lat="44.48341" lon="6.19547">
        <ele>1155</ele>
        <time>2025-11-21T11:10:12.000Z</time>
      </trkpt>
      <trkpt lat="44.48342" lon="6.19548">
        <ele>1154</ele>
        <time>2025-11-21T11:10:13.000Z</time>
      </trkpt>
      <trkpt lat="44.48342" lon="6.19549">
        <ele>1154</ele>
        <time>2025-11-21T11:10:14.000Z</time>
      </trkpt>
      <trkpt lat="44.48343" lon="6.1955">
        <ele>1155</ele>
        <time>2025-11-21T11:10:15.000Z</time>
      </trkpt>
      <trkpt lat="44.48343" lon="6.19551">
        <ele>1155</ele>
        <time>2025-11-21T11:10:16.000Z</time>
      </trkpt>
      <trkpt lat="44.48343" lon="6.19551">
        <ele>1155</ele>
        <time>2025-11-21T11:10:17.000Z</time>
      </trkpt>
      <trkpt lat="44.48344" lon="6.19551">
        <ele>1155</ele>
        <time>2025-11-21T11:10:18.000Z</time>
      </trkpt>
      <trkpt lat="44.48346" lon="6.19552">
        <ele>1155</ele>
        <time>2025-11-21T11:10:19.000Z</time>
      </trkpt>
      <trkpt lat="44.48347" lon="6.19552">
        <ele>1155</ele>
        <time>2025-11-21T11:10:20.000Z</time>
      </trkpt>
      <trkpt lat="44.48348" lon="6.19553">
        <ele>1154</ele>
        <time>2025-11-21T11:10:21.000Z</time>
      </trkpt>
      <trkpt lat="44.48348" lon="6.19553">
        <ele>1155</ele>
        <time>2025-11-21T11:10:22.000Z</time>
      </trkpt>
      <trkpt lat="44.48349" lon="6.19555">
        <ele>1156</ele>
        <time>2025-11-21T11:10:23.000Z</time>
      </trkpt>
      <trkpt lat="44.4835" lon="6.19555">
        <ele>1155</ele>
        <time>2025-11-21T11:10:24.000Z</time>
      </trkpt>
      <trkpt lat="44.4835" lon="6.19555">
        <ele>1155</ele>
        <time>2025-11-21T11:10:25.000Z</time>
      </trkpt>
      <trkpt lat="44.48351" lon="6.19556">
        <ele>1155</ele>
        <time>2025-11-21T11:10:26.000Z</time>
      </trkpt>
      <trkpt lat="44.48351" lon="6.19557">
        <ele>1155</ele>
        <time>2025-11-21T11:10:27.000Z</time>
      </trkpt>
      <trkpt lat="44.48351" lon="6.19559">
        <ele>1155</ele>
        <time>2025-11-21T11:10:28.000Z</time>
      </trkpt>
      <trkpt lat="44.48352" lon="6.1956">
        <ele>1155</ele>
        <time>2025-11-21T11:10:29.000Z</time>
      </trkpt>
      <trkpt lat="44.48352" lon="6.19561">
        <ele>1156</ele>
        <time>2025-11-21T11:10:30.000Z</time>
      </trkpt>
      <trkpt lat="44.48353" lon="6.19561">
        <ele>1156</ele>
        <time>2025-11-21T11:10:31.000Z</time>
      </trkpt>
      <trkpt lat="44.48353" lon="6.19562">
        <ele>1157</ele>
        <time>2025-11-21T11:10:32.000Z</time>
      </trkpt>
      <trkpt lat="44.48354" lon="6.19563">
        <ele>1157</ele>
        <time>2025-11-21T11:10:33.000Z</time>
      </trkpt>
      <trkpt lat="44.48355" lon="6.19565">
        <ele>1158</ele>
        <time>2025-11-21T11:10:34.000Z</time>
      </trkpt>
      <trkpt lat="44.48355" lon="6.19566">
        <ele>1159</ele>
        <time>2025-11-21T11:10:35.000Z</time>
      </trkpt>
      <trkpt lat="44.48355" lon="6.19568">
        <ele>1160</ele>
        <time>2025-11-21T11:10:36.000Z</time>
      </trkpt>
      <trkpt lat="44.48356" lon="6.1957">
        <ele>1160</ele>
        <time>2025-11-21T11:10:37.000Z</time>
      </trkpt>
      <trkpt lat="44.48356" lon="6.19571">
        <ele>1161</ele>
        <time>2025-11-21T11:10:38.000Z</time>
      </trkpt>
      <trkpt lat="44.48357" lon="6.19571">
        <ele>1162</ele>
        <time>2025-11-21T11:10:39.000Z</time>
      </trkpt>
      <trkpt lat="44.48357" lon="6.19572">
        <ele>1162</ele>
        <time>2025-11-21T11:10:40.000Z</time>
      </trkpt>
      <trkpt lat="44.48358" lon="6.19573">
        <ele>1161</ele>
        <time>2025-11-21T11:10:41.000Z</time>
      </trkpt>
      <trkpt lat="44.48358" lon="6.19576">
        <ele>1162</ele>
        <time>2025-11-21T11:10:42.000Z</time>
      </trkpt>
      <trkpt lat="44.48359" lon="6.19577">
        <ele>1162</ele>
        <time>2025-11-21T11:10:43.000Z</time>
      </trkpt>
      <trkpt lat="44.48359" lon="6.19577">
        <ele>1163</ele>
        <time>2025-11-21T11:10:44.000Z</time>
      </trkpt>
      <trkpt lat="44.4836" lon="6.19579">
        <ele>1163</ele>
        <time>2025-11-21T11:10:45.000Z</time>
      </trkpt>
      <trkpt lat="44.48361" lon="6.1958">
        <ele>1163</ele>
        <time>2025-11-21T11:10:46.000Z</time>
      </trkpt>
      <trkpt lat="44.48362" lon="6.1958">
        <ele>1163</ele>
        <time>2025-11-21T11:10:47.000Z</time>
      </trkpt>
      <trkpt lat="44.48364" lon="6.19581">
        <ele>1162</ele>
        <time>2025-11-21T11:10:48.000Z</time>
      </trkpt>
      <trkpt lat="44.48364" lon="6.19581">
        <ele>1162</ele>
        <time>2025-11-21T11:10:49.000Z</time>
      </trkpt>
      <trkpt lat="44.48365" lon="6.19581">
        <ele>1162</ele>
        <time>2025-11-21T11:10:50.000Z</time>
      </trkpt>
      <trkpt lat="44.48365" lon="6.19582">
        <ele>1161</ele>
        <time>2025-11-21T11:10:51.000Z</time>
      </trkpt>
      <trkpt lat="44.48365" lon="6.19582">
        <ele>1161</ele>
        <time>2025-11-21T11:10:52.000Z</time>
      </trkpt>
      <trkpt lat="44.48365" lon="6.19582">
        <ele>1161</ele>
        <time>2025-11-21T11:10:53.000Z</time>
      </trkpt>
      <trkpt lat="44.48367" lon="6.19584">
        <ele>1163</ele>
        <time>2025-11-21T11:10:54.000Z</time>
      </trkpt>
      <trkpt lat="44.48368" lon="6.19585">
        <ele>1163</ele>
        <time>2025-11-21T11:10:55.000Z</time>
      </trkpt>
      <trkpt lat="44.48369" lon="6.19585">
        <ele>1164</ele>
        <time>2025-11-21T11:10:56.000Z</time>
      </trkpt>
      <trkpt lat="44.4837" lon="6.19585">
        <ele>1164</ele>
        <time>2025-11-21T11:10:57.000Z</time>
      </trkpt>
      <trkpt lat="44.4837" lon="6.19585">
        <ele>1163</ele>
        <time>2025-11-21T11:10:58.000Z</time>
      </trkpt>
      <trkpt lat="44.48371" lon="6.19586">
        <ele>1164</ele>
        <time>2025-11-21T11:10:59.000Z</time>
      </trkpt>
      <trkpt lat="44.48372" lon="6.19588">
        <ele>1164</ele>
        <time>2025-11-21T11:11:00.000Z</time>
      </trkpt>
      <trkpt lat="44.48373" lon="6.19589">
        <ele>1164</ele>
        <time>2025-11-21T11:11:01.000Z</time>
      </trkpt>
      <trkpt lat="44.48374" lon="6.1959">
        <ele>1164</ele>
        <time>2025-11-21T11:11:02.000Z</time>
      </trkpt>
      <trkpt lat="44.48375" lon="6.19591">
        <ele>1164</ele>
        <time>2025-11-21T11:11:03.000Z</time>
      </trkpt>
      <trkpt lat="44.48375" lon="6.19594">
        <ele>1163</ele>
        <time>2025-11-21T11:11:04.000Z</time>
      </trkpt>
      <trkpt lat="44.48376" lon="6.19595">
        <ele>1163</ele>
        <time>2025-11-21T11:11:05.000Z</time>
      </trkpt>
      <trkpt lat="44.48377" lon="6.19596">
        <ele>1165</ele>
        <time>2025-11-21T11:11:06.000Z</time>
      </trkpt>
      <trkpt lat="44.48377" lon="6.19596">
        <ele>1164</ele>
        <time>2025-11-21T11:11:07.000Z</time>
      </trkpt>
      <trkpt lat="44.48377" lon="6.19596">
        <ele>1164</ele>
        <time>2025-11-21T11:11:08.000Z</time>
      </trkpt>
      <trkpt lat="44.48377" lon="6.19596">
        <ele>1164</ele>
        <time>2025-11-21T11:11:09.000Z</time>
      </trkpt>
      <trkpt lat="44.48377" lon="6.19596">
        <ele>1165</ele>
        <time>2025-11-21T11:11:10.000Z</time>
      </trkpt>
      <trkpt lat="44.48376" lon="6.19595">
        <ele>1166</ele>
        <time>2025-11-21T11:11:11.000Z</time>
      </trkpt>
      <trkpt lat="44.48376" lon="6.19595">
        <ele>1166</ele>
        <time>2025-11-21T11:11:12.000Z</time>
      </trkpt>
      <trkpt lat="44.48377" lon="6.19593">
        <ele>1167</ele>
        <time>2025-11-21T11:11:13.000Z</time>
      </trkpt>
      <trkpt lat="44.48376" lon="6.19593">
        <ele>1168</ele>
        <time>2025-11-21T11:11:14.000Z</time>
      </trkpt>
      <trkpt lat="44.48375" lon="6.19591">
        <ele>1169</ele>
        <time>2025-11-21T11:11:15.000Z</time>
      </trkpt>
      <trkpt lat="44.48375" lon="6.1959">
        <ele>1170</ele>
        <time>2025-11-21T11:11:16.000Z</time>
      </trkpt>
      <trkpt lat="44.48375" lon="6.19589">
        <ele>1171</ele>
        <time>2025-11-21T11:11:17.000Z</time>
      </trkpt>
      <trkpt lat="44.48375" lon="6.19589">
        <ele>1172</ele>
        <time>2025-11-21T11:11:18.000Z</time>
      </trkpt>
      <trkpt lat="44.48375" lon="6.19587">
        <ele>1172</ele>
        <time>2025-11-21T11:11:19.000Z</time>
      </trkpt>
      <trkpt lat="44.48375" lon="6.19586">
        <ele>1173</ele>
        <time>2025-11-21T11:11:20.000Z</time>
      </trkpt>
      <trkpt lat="44.48375" lon="6.19585">
        <ele>1174</ele>
        <time>2025-11-21T11:11:21.000Z</time>
      </trkpt>
      <trkpt lat="44.48376" lon="6.19584">
        <ele>1175</ele>
        <time>2025-11-21T11:11:22.000Z</time>
      </trkpt>
      <trkpt lat="44.48376" lon="6.19584">
        <ele>1175</ele>
        <time>2025-11-21T11:11:23.000Z</time>
      </trkpt>
      <trkpt lat="44.48376" lon="6.19584">
        <ele>1175</ele>
        <time>2025-11-21T11:11:24.000Z</time>
      </trkpt>
      <trkpt lat="44.48375" lon="6.19582">
        <ele>1175</ele>
        <time>2025-11-21T11:11:25.000Z</time>
      </trkpt>
      <trkpt lat="44.48376" lon="6.1958">
        <ele>1176</ele>
        <time>2025-11-21T11:11:26.000Z</time>
      </trkpt>
      <trkpt lat="44.48376" lon="6.19579">
        <ele>1175</ele>
        <time>2025-11-21T11:11:27.000Z</time>
      </trkpt>
      <trkpt lat="44.48377" lon="6.19579">
        <ele>1176</ele>
        <time>2025-11-21T11:11:28.000Z</time>
      </trkpt>
      <trkpt lat="44.48377" lon="6.19578">
        <ele>1176</ele>
        <time>2025-11-21T11:11:29.000Z</time>
      </trkpt>
      <trkpt lat="44.48377" lon="6.19577">
        <ele>1176</ele>
        <time>2025-11-21T11:11:30.000Z</time>
      </trkpt>
      <trkpt lat="44.48379" lon="6.19577">
        <ele>1175</ele>
        <time>2025-11-21T11:11:31.000Z</time>
      </trkpt>
      <trkpt lat="44.48379" lon="6.19577">
        <ele>1176</ele>
        <time>2025-11-21T11:11:32.000Z</time>
      </trkpt>
      <trkpt lat="44.4838" lon="6.19577">
        <ele>1177</ele>
        <time>2025-11-21T11:11:33.000Z</time>
      </trkpt>
      <trkpt lat="44.4838" lon="6.19577">
        <ele>1178</ele>
        <time>2025-11-21T11:11:34.000Z</time>
      </trkpt>
      <trkpt lat="44.48381" lon="6.19577">
        <ele>1178</ele>
        <time>2025-11-21T11:11:35.000Z</time>
      </trkpt>
      <trkpt lat="44.48381" lon="6.19577">
        <ele>1177</ele>
        <time>2025-11-21T11:11:36.000Z</time>
      </trkpt>
      <trkpt lat="44.48383" lon="6.19578">
        <ele>1176</ele>
        <time>2025-11-21T11:11:37.000Z</time>
      </trkpt>
      <trkpt lat="44.48384" lon="6.19579">
        <ele>1175</ele>
        <time>2025-11-21T11:11:38.000Z</time>
      </trkpt>
      <trkpt lat="44.48385" lon="6.19579">
        <ele>1175</ele>
        <time>2025-11-21T11:11:39.000Z</time>
      </trkpt>
      <trkpt lat="44.48386" lon="6.19579">
        <ele>1175</ele>
        <time>2025-11-21T11:11:40.000Z</time>
      </trkpt>
      <trkpt lat="44.48387" lon="6.19579">
        <ele>1174</ele>
        <time>2025-11-21T11:11:41.000Z</time>
      </trkpt>
      <trkpt lat="44.48388" lon="6.19579">
        <ele>1174</ele>
        <time>2025-11-21T11:11:42.000Z</time>
      </trkpt>
      <trkpt lat="44.48388" lon="6.19579">
        <ele>1175</ele>
        <time>2025-11-21T11:11:43.000Z</time>
      </trkpt>
      <trkpt lat="44.48389" lon="6.1958">
        <ele>1175</ele>
        <time>2025-11-21T11:11:44.000Z</time>
      </trkpt>
      <trkpt lat="44.48389" lon="6.19581">
        <ele>1175</ele>
        <time>2025-11-21T11:11:45.000Z</time>
      </trkpt>
      <trkpt lat="44.4839" lon="6.19582">
        <ele>1176</ele>
        <time>2025-11-21T11:11:46.000Z</time>
      </trkpt>
      <trkpt lat="44.48391" lon="6.19583">
        <ele>1176</ele>
        <time>2025-11-21T11:11:47.000Z</time>
      </trkpt>
      <trkpt lat="44.48391" lon="6.19583">
        <ele>1177</ele>
        <time>2025-11-21T11:11:48.000Z</time>
      </trkpt>
      <trkpt lat="44.48392" lon="6.19584">
        <ele>1177</ele>
        <time>2025-11-21T11:11:49.000Z</time>
      </trkpt>
      <trkpt lat="44.48393" lon="6.19584">
        <ele>1177</ele>
        <time>2025-11-21T11:11:50.000Z</time>
      </trkpt>
      <trkpt lat="44.48393" lon="6.19585">
        <ele>1177</ele>
        <time>2025-11-21T11:11:51.000Z</time>
      </trkpt>
      <trkpt lat="44.48393" lon="6.19586">
        <ele>1177</ele>
        <time>2025-11-21T11:11:52.000Z</time>
      </trkpt>
      <trkpt lat="44.48394" lon="6.19588">
        <ele>1177</ele>
        <time>2025-11-21T11:11:53.000Z</time>
      </trkpt>
      <trkpt lat="44.48394" lon="6.19588">
        <ele>1178</ele>
        <time>2025-11-21T11:11:54.000Z</time>
      </trkpt>
      <trkpt lat="44.48395" lon="6.19588">
        <ele>1179</ele>
        <time>2025-11-21T11:11:55.000Z</time>
      </trkpt>
      <trkpt lat="44.48396" lon="6.19588">
        <ele>1179</ele>
        <time>2025-11-21T11:11:56.000Z</time>
      </trkpt>
      <trkpt lat="44.48397" lon="6.19588">
        <ele>1179</ele>
        <time>2025-11-21T11:11:57.000Z</time>
      </trkpt>
      <trkpt lat="44.48398" lon="6.19588">
        <ele>1179</ele>
        <time>2025-11-21T11:11:58.000Z</time>
      </trkpt>
      <trkpt lat="44.48398" lon="6.19589">
        <ele>1178</ele>
        <time>2025-11-21T11:11:59.000Z</time>
      </trkpt>
      <trkpt lat="44.48399" lon="6.19589">
        <ele>1178</ele>
        <time>2025-11-21T11:12:00.000Z</time>
      </trkpt>
      <trkpt lat="44.484" lon="6.19589">
        <ele>1179</ele>
        <time>2025-11-21T11:12:01.000Z</time>
      </trkpt>
      <trkpt lat="44.48401" lon="6.1959">
        <ele>1179</ele>
        <time>2025-11-21T11:12:02.000Z</time>
      </trkpt>
      <trkpt lat="44.48401" lon="6.1959">
        <ele>1179</ele>
        <time>2025-11-21T11:12:03.000Z</time>
      </trkpt>
      <trkpt lat="44.48402" lon="6.19591">
        <ele>1179</ele>
        <time>2025-11-21T11:12:04.000Z</time>
      </trkpt>
      <trkpt lat="44.48403" lon="6.19593">
        <ele>1179</ele>
        <time>2025-11-21T11:12:05.000Z</time>
      </trkpt>
      <trkpt lat="44.48404" lon="6.19594">
        <ele>1179</ele>
        <time>2025-11-21T11:12:06.000Z</time>
      </trkpt>
      <trkpt lat="44.48405" lon="6.19595">
        <ele>1178</ele>
        <time>2025-11-21T11:12:07.000Z</time>
      </trkpt>
      <trkpt lat="44.48406" lon="6.19595">
        <ele>1178</ele>
        <time>2025-11-21T11:12:08.000Z</time>
      </trkpt>
      <trkpt lat="44.48407" lon="6.19595">
        <ele>1178</ele>
        <time>2025-11-21T11:12:09.000Z</time>
      </trkpt>
      <trkpt lat="44.48407" lon="6.19596">
        <ele>1179</ele>
        <time>2025-11-21T11:12:10.000Z</time>
      </trkpt>
      <trkpt lat="44.48408" lon="6.19597">
        <ele>1179</ele>
        <time>2025-11-21T11:12:11.000Z</time>
      </trkpt>
      <trkpt lat="44.48409" lon="6.19598">
        <ele>1179</ele>
        <time>2025-11-21T11:12:12.000Z</time>
      </trkpt>
      <trkpt lat="44.4841" lon="6.19598">
        <ele>1179</ele>
        <time>2025-11-21T11:12:13.000Z</time>
      </trkpt>
      <trkpt lat="44.4841" lon="6.196">
        <ele>1179</ele>
        <time>2025-11-21T11:12:14.000Z</time>
      </trkpt>
      <trkpt lat="44.48411" lon="6.196">
        <ele>1179</ele>
        <time>2025-11-21T11:12:15.000Z</time>
      </trkpt>
      <trkpt lat="44.48412" lon="6.19601">
        <ele>1180</ele>
        <time>2025-11-21T11:12:16.000Z</time>
      </trkpt>
      <trkpt lat="44.48413" lon="6.19602">
        <ele>1180</ele>
        <time>2025-11-21T11:12:17.000Z</time>
      </trkpt>
      <trkpt lat="44.48413" lon="6.19604">
        <ele>1180</ele>
        <time>2025-11-21T11:12:18.000Z</time>
      </trkpt>
      <trkpt lat="44.48414" lon="6.19605">
        <ele>1180</ele>
        <time>2025-11-21T11:12:19.000Z</time>
      </trkpt>
      <trkpt lat="44.48414" lon="6.19606">
        <ele>1181</ele>
        <time>2025-11-21T11:12:20.000Z</time>
      </trkpt>
      <trkpt lat="44.48415" lon="6.19608">
        <ele>1181</ele>
        <time>2025-11-21T11:12:21.000Z</time>
      </trkpt>
      <trkpt lat="44.48416" lon="6.19609">
        <ele>1181</ele>
        <time>2025-11-21T11:12:22.000Z</time>
      </trkpt>
      <trkpt lat="44.48416" lon="6.19609">
        <ele>1182</ele>
        <time>2025-11-21T11:12:23.000Z</time>
      </trkpt>
      <trkpt lat="44.48417" lon="6.19609">
        <ele>1182</ele>
        <time>2025-11-21T11:12:24.000Z</time>
      </trkpt>
      <trkpt lat="44.48419" lon="6.19611">
        <ele>1183</ele>
        <time>2025-11-21T11:12:25.000Z</time>
      </trkpt>
      <trkpt lat="44.4842" lon="6.19611">
        <ele>1182</ele>
        <time>2025-11-21T11:12:26.000Z</time>
      </trkpt>
      <trkpt lat="44.4842" lon="6.19611">
        <ele>1182</ele>
        <time>2025-11-21T11:12:27.000Z</time>
      </trkpt>
      <trkpt lat="44.48421" lon="6.19611">
        <ele>1182</ele>
        <time>2025-11-21T11:12:28.000Z</time>
      </trkpt>
      <trkpt lat="44.48423" lon="6.19611">
        <ele>1183</ele>
        <time>2025-11-21T11:12:29.000Z</time>
      </trkpt>
      <trkpt lat="44.48423" lon="6.19612">
        <ele>1183</ele>
        <time>2025-11-21T11:12:30.000Z</time>
      </trkpt>
      <trkpt lat="44.48424" lon="6.19612">
        <ele>1182</ele>
        <time>2025-11-21T11:12:31.000Z</time>
      </trkpt>
      <trkpt lat="44.48425" lon="6.19611">
        <ele>1183</ele>
        <time>2025-11-21T11:12:32.000Z</time>
      </trkpt>
      <trkpt lat="44.48425" lon="6.19612">
        <ele>1182</ele>
        <time>2025-11-21T11:12:33.000Z</time>
      </trkpt>
      <trkpt lat="44.48425" lon="6.19612">
        <ele>1182</ele>
        <time>2025-11-21T11:12:34.000Z</time>
      </trkpt>
      <trkpt lat="44.48426" lon="6.19613">
        <ele>1183</ele>
        <time>2025-11-21T11:12:35.000Z</time>
      </trkpt>
      <trkpt lat="44.48427" lon="6.19613">
        <ele>1182</ele>
        <time>2025-11-21T11:12:36.000Z</time>
      </trkpt>
      <trkpt lat="44.48428" lon="6.19614">
        <ele>1182</ele>
        <time>2025-11-21T11:12:37.000Z</time>
      </trkpt>
      <trkpt lat="44.48428" lon="6.19615">
        <ele>1182</ele>
        <time>2025-11-21T11:12:38.000Z</time>
      </trkpt>
      <trkpt lat="44.48429" lon="6.19617">
        <ele>1182</ele>
        <time>2025-11-21T11:12:39.000Z</time>
      </trkpt>
      <trkpt lat="44.48429" lon="6.19617">
        <ele>1182</ele>
        <time>2025-11-21T11:12:40.000Z</time>
      </trkpt>
      <trkpt lat="44.4843" lon="6.19618">
        <ele>1182</ele>
        <time>2025-11-21T11:12:41.000Z</time>
      </trkpt>
      <trkpt lat="44.48431" lon="6.19618">
        <ele>1182</ele>
        <time>2025-11-21T11:12:42.000Z</time>
      </trkpt>
      <trkpt lat="44.48431" lon="6.19618">
        <ele>1182</ele>
        <time>2025-11-21T11:12:43.000Z</time>
      </trkpt>
      <trkpt lat="44.48432" lon="6.19619">
        <ele>1182</ele>
        <time>2025-11-21T11:12:44.000Z</time>
      </trkpt>
      <trkpt lat="44.48433" lon="6.19619">
        <ele>1181</ele>
        <time>2025-11-21T11:12:45.000Z</time>
      </trkpt>
      <trkpt lat="44.48434" lon="6.19621">
        <ele>1181</ele>
        <time>2025-11-21T11:12:46.000Z</time>
      </trkpt>
      <trkpt lat="44.48435" lon="6.19623">
        <ele>1182</ele>
        <time>2025-11-21T11:12:47.000Z</time>
      </trkpt>
      <trkpt lat="44.48436" lon="6.19624">
        <ele>1182</ele>
        <time>2025-11-21T11:12:48.000Z</time>
      </trkpt>
      <trkpt lat="44.48437" lon="6.19625">
        <ele>1182</ele>
        <time>2025-11-21T11:12:49.000Z</time>
      </trkpt>
      <trkpt lat="44.48437" lon="6.19625">
        <ele>1182</ele>
        <time>2025-11-21T11:12:50.000Z</time>
      </trkpt>
      <trkpt lat="44.48438" lon="6.19625">
        <ele>1183</ele>
        <time>2025-11-21T11:12:51.000Z</time>
      </trkpt>
      <trkpt lat="44.48439" lon="6.19625">
        <ele>1184</ele>
        <time>2025-11-21T11:12:52.000Z</time>
      </trkpt>
      <trkpt lat="44.48439" lon="6.19625">
        <ele>1184</ele>
        <time>2025-11-21T11:12:53.000Z</time>
      </trkpt>
      <trkpt lat="44.4844" lon="6.19626">
        <ele>1185</ele>
        <time>2025-11-21T11:12:54.000Z</time>
      </trkpt>
      <trkpt lat="44.4844" lon="6.19625">
        <ele>1185</ele>
        <time>2025-11-21T11:12:55.000Z</time>
      </trkpt>
      <trkpt lat="44.4844" lon="6.19626">
        <ele>1184</ele>
        <time>2025-11-21T11:12:56.000Z</time>
      </trkpt>
      <trkpt lat="44.4844" lon="6.19626">
        <ele>1185</ele>
        <time>2025-11-21T11:12:57.000Z</time>
      </trkpt>
      <trkpt lat="44.48441" lon="6.19627">
        <ele>1185</ele>
        <time>2025-11-21T11:12:58.000Z</time>
      </trkpt>
      <trkpt lat="44.48442" lon="6.19628">
        <ele>1184</ele>
        <time>2025-11-21T11:12:59.000Z</time>
      </trkpt>
      <trkpt lat="44.48443" lon="6.19628">
        <ele>1184</ele>
        <time>2025-11-21T11:13:00.000Z</time>
      </trkpt>
      <trkpt lat="44.48444" lon="6.19628">
        <ele>1184</ele>
        <time>2025-11-21T11:13:01.000Z</time>
      </trkpt>
      <trkpt lat="44.48445" lon="6.1963">
        <ele>1184</ele>
        <time>2025-11-21T11:13:02.000Z</time>
      </trkpt>
      <trkpt lat="44.48446" lon="6.1963">
        <ele>1184</ele>
        <time>2025-11-21T11:13:03.000Z</time>
      </trkpt>
      <trkpt lat="44.48447" lon="6.19631">
        <ele>1185</ele>
        <time>2025-11-21T11:13:04.000Z</time>
      </trkpt>
      <trkpt lat="44.48448" lon="6.19632">
        <ele>1185</ele>
        <time>2025-11-21T11:13:05.000Z</time>
      </trkpt>
      <trkpt lat="44.48449" lon="6.19633">
        <ele>1186</ele>
        <time>2025-11-21T11:13:06.000Z</time>
      </trkpt>
      <trkpt lat="44.4845" lon="6.19634">
        <ele>1186</ele>
        <time>2025-11-21T11:13:07.000Z</time>
      </trkpt>
      <trkpt lat="44.48451" lon="6.19635">
        <ele>1186</ele>
        <time>2025-11-21T11:13:08.000Z</time>
      </trkpt>
      <trkpt lat="44.48451" lon="6.19635">
        <ele>1186</ele>
        <time>2025-11-21T11:13:09.000Z</time>
      </trkpt>
      <trkpt lat="44.48452" lon="6.19635">
        <ele>1186</ele>
        <time>2025-11-21T11:13:10.000Z</time>
      </trkpt>
      <trkpt lat="44.48452" lon="6.19635">
        <ele>1186</ele>
        <time>2025-11-21T11:13:11.000Z</time>
      </trkpt>
      <trkpt lat="44.48452" lon="6.19635">
        <ele>1186</ele>
        <time>2025-11-21T11:13:12.000Z</time>
      </trkpt>
      <trkpt lat="44.48453" lon="6.19637">
        <ele>1186</ele>
        <time>2025-11-21T11:13:13.000Z</time>
      </trkpt>
      <trkpt lat="44.48454" lon="6.19637">
        <ele>1185</ele>
        <time>2025-11-21T11:13:14.000Z</time>
      </trkpt>
      <trkpt lat="44.48455" lon="6.19638">
        <ele>1186</ele>
        <time>2025-11-21T11:13:15.000Z</time>
      </trkpt>
      <trkpt lat="44.48455" lon="6.19639">
        <ele>1186</ele>
        <time>2025-11-21T11:13:16.000Z</time>
      </trkpt>
      <trkpt lat="44.48456" lon="6.19639">
        <ele>1186</ele>
        <time>2025-11-21T11:13:17.000Z</time>
      </trkpt>
      <trkpt lat="44.48456" lon="6.1964">
        <ele>1187</ele>
        <time>2025-11-21T11:13:18.000Z</time>
      </trkpt>
      <trkpt lat="44.48457" lon="6.1964">
        <ele>1187</ele>
        <time>2025-11-21T11:13:19.000Z</time>
      </trkpt>
      <trkpt lat="44.48457" lon="6.1964">
        <ele>1187</ele>
        <time>2025-11-21T11:13:20.000Z</time>
      </trkpt>
      <trkpt lat="44.48458" lon="6.1964">
        <ele>1188</ele>
        <time>2025-11-21T11:13:21.000Z</time>
      </trkpt>
      <trkpt lat="44.4846" lon="6.1964">
        <ele>1187</ele>
        <time>2025-11-21T11:13:22.000Z</time>
      </trkpt>
      <trkpt lat="44.4846" lon="6.1964">
        <ele>1188</ele>
        <time>2025-11-21T11:13:23.000Z</time>
      </trkpt>
      <trkpt lat="44.48461" lon="6.19639">
        <ele>1188</ele>
        <time>2025-11-21T11:13:24.000Z</time>
      </trkpt>
      <trkpt lat="44.48462" lon="6.19639">
        <ele>1189</ele>
        <time>2025-11-21T11:13:25.000Z</time>
      </trkpt>
      <trkpt lat="44.48462" lon="6.19639">
        <ele>1189</ele>
        <time>2025-11-21T11:13:26.000Z</time>
      </trkpt>
      <trkpt lat="44.48463" lon="6.19639">
        <ele>1189</ele>
        <time>2025-11-21T11:13:27.000Z</time>
      </trkpt>
      <trkpt lat="44.48464" lon="6.19639">
        <ele>1191</ele>
        <time>2025-11-21T11:13:28.000Z</time>
      </trkpt>
      <trkpt lat="44.48465" lon="6.19639">
        <ele>1191</ele>
        <time>2025-11-21T11:13:29.000Z</time>
      </trkpt>
      <trkpt lat="44.48465" lon="6.19639">
        <ele>1190</ele>
        <time>2025-11-21T11:13:30.000Z</time>
      </trkpt>
      <trkpt lat="44.48466" lon="6.1964">
        <ele>1190</ele>
        <time>2025-11-21T11:13:31.000Z</time>
      </trkpt>
      <trkpt lat="44.48467" lon="6.19639">
        <ele>1191</ele>
        <time>2025-11-21T11:13:32.000Z</time>
      </trkpt>
      <trkpt lat="44.48467" lon="6.19639">
        <ele>1191</ele>
        <time>2025-11-21T11:13:33.000Z</time>
      </trkpt>
      <trkpt lat="44.48469" lon="6.19639">
        <ele>1191</ele>
        <time>2025-11-21T11:13:34.000Z</time>
      </trkpt>
      <trkpt lat="44.4847" lon="6.19639">
        <ele>1191</ele>
        <time>2025-11-21T11:13:35.000Z</time>
      </trkpt>
      <trkpt lat="44.4847" lon="6.19638">
        <ele>1191</ele>
        <time>2025-11-21T11:13:36.000Z</time>
      </trkpt>
      <trkpt lat="44.48472" lon="6.19638">
        <ele>1192</ele>
        <time>2025-11-21T11:13:37.000Z</time>
      </trkpt>
      <trkpt lat="44.48472" lon="6.19637">
        <ele>1191</ele>
        <time>2025-11-21T11:13:38.000Z</time>
      </trkpt>
      <trkpt lat="44.48472" lon="6.19637">
        <ele>1191</ele>
        <time>2025-11-21T11:13:39.000Z</time>
      </trkpt>
      <trkpt lat="44.48473" lon="6.19638">
        <ele>1191</ele>
        <time>2025-11-21T11:13:40.000Z</time>
      </trkpt>
      <trkpt lat="44.48474" lon="6.19638">
        <ele>1191</ele>
        <time>2025-11-21T11:13:41.000Z</time>
      </trkpt>
      <trkpt lat="44.48474" lon="6.19639">
        <ele>1191</ele>
        <time>2025-11-21T11:13:42.000Z</time>
      </trkpt>
      <trkpt lat="44.48475" lon="6.1964">
        <ele>1191</ele>
        <time>2025-11-21T11:13:43.000Z</time>
      </trkpt>
      <trkpt lat="44.48475" lon="6.1964">
        <ele>1191</ele>
        <time>2025-11-21T11:13:44.000Z</time>
      </trkpt>
      <trkpt lat="44.48475" lon="6.1964">
        <ele>1191</ele>
        <time>2025-11-21T11:13:45.000Z</time>
      </trkpt>
      <trkpt lat="44.48476" lon="6.19641">
        <ele>1191</ele>
        <time>2025-11-21T11:13:46.000Z</time>
      </trkpt>
      <trkpt lat="44.48477" lon="6.19642">
        <ele>1192</ele>
        <time>2025-11-21T11:13:47.000Z</time>
      </trkpt>
      <trkpt lat="44.48478" lon="6.19642">
        <ele>1192</ele>
        <time>2025-11-21T11:13:48.000Z</time>
      </trkpt>
      <trkpt lat="44.4848" lon="6.19642">
        <ele>1192</ele>
        <time>2025-11-21T11:13:49.000Z</time>
      </trkpt>
      <trkpt lat="44.48481" lon="6.19643">
        <ele>1191</ele>
        <time>2025-11-21T11:13:50.000Z</time>
      </trkpt>
      <trkpt lat="44.48481" lon="6.19644">
        <ele>1192</ele>
        <time>2025-11-21T11:13:51.000Z</time>
      </trkpt>
      <trkpt lat="44.48482" lon="6.19646">
        <ele>1192</ele>
        <time>2025-11-21T11:13:52.000Z</time>
      </trkpt>
      <trkpt lat="44.48483" lon="6.19647">
        <ele>1191</ele>
        <time>2025-11-21T11:13:53.000Z</time>
      </trkpt>
      <trkpt lat="44.48483" lon="6.19647">
        <ele>1191</ele>
        <time>2025-11-21T11:13:54.000Z</time>
      </trkpt>
      <trkpt lat="44.48484" lon="6.19648">
        <ele>1191</ele>
        <time>2025-11-21T11:13:55.000Z</time>
      </trkpt>
      <trkpt lat="44.48485" lon="6.19649">
        <ele>1191</ele>
        <time>2025-11-21T11:13:56.000Z</time>
      </trkpt>
      <trkpt lat="44.48486" lon="6.19649">
        <ele>1191</ele>
        <time>2025-11-21T11:13:57.000Z</time>
      </trkpt>
      <trkpt lat="44.48487" lon="6.1965">
        <ele>1191</ele>
        <time>2025-11-21T11:13:58.000Z</time>
      </trkpt>
      <trkpt lat="44.48488" lon="6.19651">
        <ele>1191</ele>
        <time>2025-11-21T11:13:59.000Z</time>
      </trkpt>
      <trkpt lat="44.48488" lon="6.19653">
        <ele>1192</ele>
        <time>2025-11-21T11:14:00.000Z</time>
      </trkpt>
      <trkpt lat="44.48488" lon="6.19655">
        <ele>1193</ele>
        <time>2025-11-21T11:14:01.000Z</time>
      </trkpt>
      <trkpt lat="44.4849" lon="6.19656">
        <ele>1193</ele>
        <time>2025-11-21T11:14:02.000Z</time>
      </trkpt>
      <trkpt lat="44.48491" lon="6.19657">
        <ele>1193</ele>
        <time>2025-11-21T11:14:03.000Z</time>
      </trkpt>
      <trkpt lat="44.48491" lon="6.19657">
        <ele>1193</ele>
        <time>2025-11-21T11:14:04.000Z</time>
      </trkpt>
      <trkpt lat="44.48492" lon="6.19658">
        <ele>1194</ele>
        <time>2025-11-21T11:14:05.000Z</time>
      </trkpt>
      <trkpt lat="44.48493" lon="6.19658">
        <ele>1195</ele>
        <time>2025-11-21T11:14:06.000Z</time>
      </trkpt>
      <trkpt lat="44.48494" lon="6.19658">
        <ele>1195</ele>
        <time>2025-11-21T11:14:07.000Z</time>
      </trkpt>
      <trkpt lat="44.48495" lon="6.19659">
        <ele>1196</ele>
        <time>2025-11-21T11:14:08.000Z</time>
      </trkpt>
      <trkpt lat="44.48495" lon="6.19659">
        <ele>1196</ele>
        <time>2025-11-21T11:14:09.000Z</time>
      </trkpt>
      <trkpt lat="44.48496" lon="6.1966">
        <ele>1196</ele>
        <time>2025-11-21T11:14:10.000Z</time>
      </trkpt>
      <trkpt lat="44.48497" lon="6.19659">
        <ele>1196</ele>
        <time>2025-11-21T11:14:11.000Z</time>
      </trkpt>
      <trkpt lat="44.48497" lon="6.19661">
        <ele>1196</ele>
        <time>2025-11-21T11:14:12.000Z</time>
      </trkpt>
      <trkpt lat="44.48498" lon="6.19662">
        <ele>1196</ele>
        <time>2025-11-21T11:14:13.000Z</time>
      </trkpt>
      <trkpt lat="44.48499" lon="6.19662">
        <ele>1196</ele>
        <time>2025-11-21T11:14:14.000Z</time>
      </trkpt>
      <trkpt lat="44.485" lon="6.19662">
        <ele>1196</ele>
        <time>2025-11-21T11:14:15.000Z</time>
      </trkpt>
      <trkpt lat="44.48501" lon="6.19663">
        <ele>1196</ele>
        <time>2025-11-21T11:14:16.000Z</time>
      </trkpt>
      <trkpt lat="44.48501" lon="6.19664">
        <ele>1195</ele>
        <time>2025-11-21T11:14:17.000Z</time>
      </trkpt>
      <trkpt lat="44.48501" lon="6.19665">
        <ele>1196</ele>
        <time>2025-11-21T11:14:18.000Z</time>
      </trkpt>
      <trkpt lat="44.48502" lon="6.19666">
        <ele>1196</ele>
        <time>2025-11-21T11:14:19.000Z</time>
      </trkpt>
      <trkpt lat="44.48502" lon="6.19666">
        <ele>1196</ele>
        <time>2025-11-21T11:14:20.000Z</time>
      </trkpt>
      <trkpt lat="44.48502" lon="6.19667">
        <ele>1196</ele>
        <time>2025-11-21T11:14:21.000Z</time>
      </trkpt>
      <trkpt lat="44.48503" lon="6.19667">
        <ele>1195</ele>
        <time>2025-11-21T11:14:22.000Z</time>
      </trkpt>
      <trkpt lat="44.48504" lon="6.19667">
        <ele>1195</ele>
        <time>2025-11-21T11:14:23.000Z</time>
      </trkpt>
      <trkpt lat="44.48504" lon="6.19667">
        <ele>1195</ele>
        <time>2025-11-21T11:14:24.000Z</time>
      </trkpt>
      <trkpt lat="44.48505" lon="6.19668">
        <ele>1195</ele>
        <time>2025-11-21T11:14:25.000Z</time>
      </trkpt>
      <trkpt lat="44.48506" lon="6.19669">
        <ele>1196</ele>
        <time>2025-11-21T11:14:26.000Z</time>
      </trkpt>
      <trkpt lat="44.48507" lon="6.1967">
        <ele>1196</ele>
        <time>2025-11-21T11:14:27.000Z</time>
      </trkpt>
      <trkpt lat="44.48509" lon="6.1967">
        <ele>1196</ele>
        <time>2025-11-21T11:14:28.000Z</time>
      </trkpt>
      <trkpt lat="44.4851" lon="6.1967">
        <ele>1196</ele>
        <time>2025-11-21T11:14:29.000Z</time>
      </trkpt>
      <trkpt lat="44.48511" lon="6.19672">
        <ele>1196</ele>
        <time>2025-11-21T11:14:30.000Z</time>
      </trkpt>
      <trkpt lat="44.48512" lon="6.19674">
        <ele>1197</ele>
        <time>2025-11-21T11:14:31.000Z</time>
      </trkpt>
      <trkpt lat="44.48513" lon="6.19674">
        <ele>1197</ele>
        <time>2025-11-21T11:14:32.000Z</time>
      </trkpt>
      <trkpt lat="44.48514" lon="6.19674">
        <ele>1198</ele>
        <time>2025-11-21T11:14:33.000Z</time>
      </trkpt>
      <trkpt lat="44.48515" lon="6.19674">
        <ele>1198</ele>
        <time>2025-11-21T11:14:34.000Z</time>
      </trkpt>
      <trkpt lat="44.48516" lon="6.19675">
        <ele>1198</ele>
        <time>2025-11-21T11:14:35.000Z</time>
      </trkpt>
      <trkpt lat="44.48516" lon="6.19674">
        <ele>1199</ele>
        <time>2025-11-21T11:14:36.000Z</time>
      </trkpt>
      <trkpt lat="44.48516" lon="6.19674">
        <ele>1199</ele>
        <time>2025-11-21T11:14:37.000Z</time>
      </trkpt>
      <trkpt lat="44.48516" lon="6.19673">
        <ele>1198</ele>
        <time>2025-11-21T11:14:38.000Z</time>
      </trkpt>
      <trkpt lat="44.48516" lon="6.19674">
        <ele>1199</ele>
        <time>2025-11-21T11:14:39.000Z</time>
      </trkpt>
      <trkpt lat="44.48516" lon="6.19675">
        <ele>1198</ele>
        <time>2025-11-21T11:14:40.000Z</time>
      </trkpt>
      <trkpt lat="44.48517" lon="6.19675">
        <ele>1198</ele>
        <time>2025-11-21T11:14:41.000Z</time>
      </trkpt>
      <trkpt lat="44.48517" lon="6.19675">
        <ele>1198</ele>
        <time>2025-11-21T11:14:42.000Z</time>
      </trkpt>
      <trkpt lat="44.48517" lon="6.19675">
        <ele>1198</ele>
        <time>2025-11-21T11:14:43.000Z</time>
      </trkpt>
      <trkpt lat="44.48519" lon="6.19676">
        <ele>1200</ele>
        <time>2025-11-21T11:14:44.000Z</time>
      </trkpt>
      <trkpt lat="44.48519" lon="6.19676">
        <ele>1200</ele>
        <time>2025-11-21T11:14:45.000Z</time>
      </trkpt>
      <trkpt lat="44.48521" lon="6.19677">
        <ele>1200</ele>
        <time>2025-11-21T11:14:46.000Z</time>
      </trkpt>
      <trkpt lat="44.48522" lon="6.19678">
        <ele>1200</ele>
        <time>2025-11-21T11:14:47.000Z</time>
      </trkpt>
      <trkpt lat="44.48523" lon="6.19678">
        <ele>1200</ele>
        <time>2025-11-21T11:14:48.000Z</time>
      </trkpt>
      <trkpt lat="44.48524" lon="6.19679">
        <ele>1200</ele>
        <time>2025-11-21T11:14:49.000Z</time>
      </trkpt>
      <trkpt lat="44.48524" lon="6.19679">
        <ele>1199</ele>
        <time>2025-11-21T11:14:50.000Z</time>
      </trkpt>
      <trkpt lat="44.48525" lon="6.1968">
        <ele>1200</ele>
        <time>2025-11-21T11:14:51.000Z</time>
      </trkpt>
      <trkpt lat="44.48526" lon="6.19681">
        <ele>1200</ele>
        <time>2025-11-21T11:14:52.000Z</time>
      </trkpt>
      <trkpt lat="44.48527" lon="6.19682">
        <ele>1200</ele>
        <time>2025-11-21T11:14:53.000Z</time>
      </trkpt>
      <trkpt lat="44.48528" lon="6.19683">
        <ele>1200</ele>
        <time>2025-11-21T11:14:54.000Z</time>
      </trkpt>
      <trkpt lat="44.48529" lon="6.19683">
        <ele>1200</ele>
        <time>2025-11-21T11:14:55.000Z</time>
      </trkpt>
      <trkpt lat="44.48529" lon="6.19684">
        <ele>1201</ele>
        <time>2025-11-21T11:14:56.000Z</time>
      </trkpt>
      <trkpt lat="44.48529" lon="6.19684">
        <ele>1201</ele>
        <time>2025-11-21T11:14:57.000Z</time>
      </trkpt>
      <trkpt lat="44.48529" lon="6.19684">
        <ele>1201</ele>
        <time>2025-11-21T11:14:58.000Z</time>
      </trkpt>
      <trkpt lat="44.4853" lon="6.19686">
        <ele>1203</ele>
        <time>2025-11-21T11:14:59.000Z</time>
      </trkpt>
      <trkpt lat="44.4853" lon="6.19687">
        <ele>1203</ele>
        <time>2025-11-21T11:15:00.000Z</time>
      </trkpt>
      <trkpt lat="44.48531" lon="6.19688">
        <ele>1203</ele>
        <time>2025-11-21T11:15:01.000Z</time>
      </trkpt>
      <trkpt lat="44.48532" lon="6.19689">
        <ele>1203</ele>
        <time>2025-11-21T11:15:02.000Z</time>
      </trkpt>
      <trkpt lat="44.48533" lon="6.19689">
        <ele>1203</ele>
        <time>2025-11-21T11:15:03.000Z</time>
      </trkpt>
      <trkpt lat="44.48533" lon="6.19689">
        <ele>1203</ele>
        <time>2025-11-21T11:15:04.000Z</time>
      </trkpt>
      <trkpt lat="44.48534" lon="6.1969">
        <ele>1203</ele>
        <time>2025-11-21T11:15:05.000Z</time>
      </trkpt>
      <trkpt lat="44.48534" lon="6.19691">
        <ele>1204</ele>
        <time>2025-11-21T11:15:06.000Z</time>
      </trkpt>
      <trkpt lat="44.48535" lon="6.19692">
        <ele>1203</ele>
        <time>2025-11-21T11:15:07.000Z</time>
      </trkpt>
      <trkpt lat="44.48535" lon="6.19693">
        <ele>1204</ele>
        <time>2025-11-21T11:15:08.000Z</time>
      </trkpt>
      <trkpt lat="44.48536" lon="6.19694">
        <ele>1204</ele>
        <time>2025-11-21T11:15:09.000Z</time>
      </trkpt>
      <trkpt lat="44.48536" lon="6.19695">
        <ele>1205</ele>
        <time>2025-11-21T11:15:10.000Z</time>
      </trkpt>
      <trkpt lat="44.48537" lon="6.19695">
        <ele>1205</ele>
        <time>2025-11-21T11:15:11.000Z</time>
      </trkpt>
      <trkpt lat="44.48538" lon="6.19696">
        <ele>1205</ele>
        <time>2025-11-21T11:15:12.000Z</time>
      </trkpt>
      <trkpt lat="44.4854" lon="6.19697">
        <ele>1204</ele>
        <time>2025-11-21T11:15:13.000Z</time>
      </trkpt>
      <trkpt lat="44.4854" lon="6.19698">
        <ele>1204</ele>
        <time>2025-11-21T11:15:14.000Z</time>
      </trkpt>
      <trkpt lat="44.48542" lon="6.19698">
        <ele>1204</ele>
        <time>2025-11-21T11:15:15.000Z</time>
      </trkpt>
      <trkpt lat="44.48542" lon="6.197">
        <ele>1203</ele>
        <time>2025-11-21T11:15:16.000Z</time>
      </trkpt>
      <trkpt lat="44.48543" lon="6.19701">
        <ele>1203</ele>
        <time>2025-11-21T11:15:17.000Z</time>
      </trkpt>
      <trkpt lat="44.48544" lon="6.19702">
        <ele>1203</ele>
        <time>2025-11-21T11:15:18.000Z</time>
      </trkpt>
      <trkpt lat="44.48544" lon="6.19702">
        <ele>1203</ele>
        <time>2025-11-21T11:15:19.000Z</time>
      </trkpt>
      <trkpt lat="44.48545" lon="6.19703">
        <ele>1203</ele>
        <time>2025-11-21T11:15:20.000Z</time>
      </trkpt>
      <trkpt lat="44.48545" lon="6.19704">
        <ele>1203</ele>
        <time>2025-11-21T11:15:21.000Z</time>
      </trkpt>
      <trkpt lat="44.48546" lon="6.19704">
        <ele>1204</ele>
        <time>2025-11-21T11:15:22.000Z</time>
      </trkpt>
      <trkpt lat="44.48546" lon="6.19705">
        <ele>1203</ele>
        <time>2025-11-21T11:15:23.000Z</time>
      </trkpt>
      <trkpt lat="44.48547" lon="6.19706">
        <ele>1203</ele>
        <time>2025-11-21T11:15:24.000Z</time>
      </trkpt>
      <trkpt lat="44.48547" lon="6.19708">
        <ele>1202</ele>
        <time>2025-11-21T11:15:25.000Z</time>
      </trkpt>
      <trkpt lat="44.48549" lon="6.19708">
        <ele>1201</ele>
        <time>2025-11-21T11:15:26.000Z</time>
      </trkpt>
      <trkpt lat="44.48549" lon="6.19709">
        <ele>1201</ele>
        <time>2025-11-21T11:15:27.000Z</time>
      </trkpt>
      <trkpt lat="44.4855" lon="6.1971">
        <ele>1202</ele>
        <time>2025-11-21T11:15:28.000Z</time>
      </trkpt>
      <trkpt lat="44.48551" lon="6.1971">
        <ele>1202</ele>
        <time>2025-11-21T11:15:29.000Z</time>
      </trkpt>
      <trkpt lat="44.48552" lon="6.1971">
        <ele>1202</ele>
        <time>2025-11-21T11:15:30.000Z</time>
      </trkpt>
      <trkpt lat="44.48552" lon="6.19711">
        <ele>1202</ele>
        <time>2025-11-21T11:15:31.000Z</time>
      </trkpt>
      <trkpt lat="44.48553" lon="6.19712">
        <ele>1202</ele>
        <time>2025-11-21T11:15:32.000Z</time>
      </trkpt>
      <trkpt lat="44.48554" lon="6.19714">
        <ele>1202</ele>
        <time>2025-11-21T11:15:33.000Z</time>
      </trkpt>
      <trkpt lat="44.48554" lon="6.19715">
        <ele>1203</ele>
        <time>2025-11-21T11:15:34.000Z</time>
      </trkpt>
      <trkpt lat="44.48555" lon="6.19716">
        <ele>1203</ele>
        <time>2025-11-21T11:15:35.000Z</time>
      </trkpt>
      <trkpt lat="44.48556" lon="6.19717">
        <ele>1203</ele>
        <time>2025-11-21T11:15:36.000Z</time>
      </trkpt>
      <trkpt lat="44.48556" lon="6.19718">
        <ele>1203</ele>
        <time>2025-11-21T11:15:37.000Z</time>
      </trkpt>
      <trkpt lat="44.48557" lon="6.19719">
        <ele>1204</ele>
        <time>2025-11-21T11:15:38.000Z</time>
      </trkpt>
      <trkpt lat="44.48557" lon="6.19719">
        <ele>1204</ele>
        <time>2025-11-21T11:15:39.000Z</time>
      </trkpt>
      <trkpt lat="44.48558" lon="6.19719">
        <ele>1204</ele>
        <time>2025-11-21T11:15:40.000Z</time>
      </trkpt>
      <trkpt lat="44.48558" lon="6.19719">
        <ele>1205</ele>
        <time>2025-11-21T11:15:41.000Z</time>
      </trkpt>
      <trkpt lat="44.48559" lon="6.19719">
        <ele>1205</ele>
        <time>2025-11-21T11:15:42.000Z</time>
      </trkpt>
      <trkpt lat="44.4856" lon="6.1972">
        <ele>1205</ele>
        <time>2025-11-21T11:15:43.000Z</time>
      </trkpt>
      <trkpt lat="44.4856" lon="6.1972">
        <ele>1205</ele>
        <time>2025-11-21T11:15:44.000Z</time>
      </trkpt>
      <trkpt lat="44.4856" lon="6.19721">
        <ele>1205</ele>
        <time>2025-11-21T11:15:45.000Z</time>
      </trkpt>
      <trkpt lat="44.4856" lon="6.19723">
        <ele>1204</ele>
        <time>2025-11-21T11:15:46.000Z</time>
      </trkpt>
      <trkpt lat="44.48561" lon="6.19724">
        <ele>1203</ele>
        <time>2025-11-21T11:15:47.000Z</time>
      </trkpt>
      <trkpt lat="44.48562" lon="6.19725">
        <ele>1204</ele>
        <time>2025-11-21T11:15:48.000Z</time>
      </trkpt>
      <trkpt lat="44.48562" lon="6.19727">
        <ele>1204</ele>
        <time>2025-11-21T11:15:49.000Z</time>
      </trkpt>
      <trkpt lat="44.48563" lon="6.19727">
        <ele>1205</ele>
        <time>2025-11-21T11:15:50.000Z</time>
      </trkpt>
      <trkpt lat="44.48563" lon="6.19727">
        <ele>1205</ele>
        <time>2025-11-21T11:15:51.000Z</time>
      </trkpt>
      <trkpt lat="44.48564" lon="6.19728">
        <ele>1205</ele>
        <time>2025-11-21T11:15:52.000Z</time>
      </trkpt>
      <trkpt lat="44.48564" lon="6.19728">
        <ele>1205</ele>
        <time>2025-11-21T11:15:53.000Z</time>
      </trkpt>
      <trkpt lat="44.48565" lon="6.19728">
        <ele>1206</ele>
        <time>2025-11-21T11:15:54.000Z</time>
      </trkpt>
      <trkpt lat="44.48567" lon="6.1973">
        <ele>1205</ele>
        <time>2025-11-21T11:15:55.000Z</time>
      </trkpt>
      <trkpt lat="44.48568" lon="6.19731">
        <ele>1205</ele>
        <time>2025-11-21T11:15:56.000Z</time>
      </trkpt>
      <trkpt lat="44.48568" lon="6.19733">
        <ele>1204</ele>
        <time>2025-11-21T11:15:57.000Z</time>
      </trkpt>
      <trkpt lat="44.48569" lon="6.19733">
        <ele>1204</ele>
        <time>2025-11-21T11:15:58.000Z</time>
      </trkpt>
      <trkpt lat="44.48569" lon="6.19734">
        <ele>1205</ele>
        <time>2025-11-21T11:15:59.000Z</time>
      </trkpt>
      <trkpt lat="44.48569" lon="6.19734">
        <ele>1205</ele>
        <time>2025-11-21T11:16:00.000Z</time>
      </trkpt>
      <trkpt lat="44.48569" lon="6.19734">
        <ele>1205</ele>
        <time>2025-11-21T11:16:01.000Z</time>
      </trkpt>
      <trkpt lat="44.4857" lon="6.19736">
        <ele>1206</ele>
        <time>2025-11-21T11:16:02.000Z</time>
      </trkpt>
      <trkpt lat="44.48572" lon="6.19736">
        <ele>1206</ele>
        <time>2025-11-21T11:16:03.000Z</time>
      </trkpt>
      <trkpt lat="44.48573" lon="6.19737">
        <ele>1206</ele>
        <time>2025-11-21T11:16:04.000Z</time>
      </trkpt>
      <trkpt lat="44.48574" lon="6.19738">
        <ele>1206</ele>
        <time>2025-11-21T11:16:05.000Z</time>
      </trkpt>
      <trkpt lat="44.48574" lon="6.19738">
        <ele>1206</ele>
        <time>2025-11-21T11:16:06.000Z</time>
      </trkpt>
      <trkpt lat="44.48575" lon="6.1974">
        <ele>1205</ele>
        <time>2025-11-21T11:16:07.000Z</time>
      </trkpt>
      <trkpt lat="44.48576" lon="6.19741">
        <ele>1205</ele>
        <time>2025-11-21T11:16:08.000Z</time>
      </trkpt>
      <trkpt lat="44.48577" lon="6.19741">
        <ele>1204</ele>
        <time>2025-11-21T11:16:09.000Z</time>
      </trkpt>
      <trkpt lat="44.48578" lon="6.19742">
        <ele>1204</ele>
        <time>2025-11-21T11:16:10.000Z</time>
      </trkpt>
      <trkpt lat="44.48578" lon="6.19742">
        <ele>1204</ele>
        <time>2025-11-21T11:16:11.000Z</time>
      </trkpt>
      <trkpt lat="44.48578" lon="6.19742">
        <ele>1204</ele>
        <time>2025-11-21T11:16:12.000Z</time>
      </trkpt>
      <trkpt lat="44.48579" lon="6.19744">
        <ele>1204</ele>
        <time>2025-11-21T11:16:13.000Z</time>
      </trkpt>
      <trkpt lat="44.48579" lon="6.19745">
        <ele>1205</ele>
        <time>2025-11-21T11:16:14.000Z</time>
      </trkpt>
      <trkpt lat="44.4858" lon="6.19746">
        <ele>1206</ele>
        <time>2025-11-21T11:16:15.000Z</time>
      </trkpt>
      <trkpt lat="44.48581" lon="6.19748">
        <ele>1206</ele>
        <time>2025-11-21T11:16:16.000Z</time>
      </trkpt>
      <trkpt lat="44.48582" lon="6.19749">
        <ele>1207</ele>
        <time>2025-11-21T11:16:17.000Z</time>
      </trkpt>
      <trkpt lat="44.48582" lon="6.19751">
        <ele>1207</ele>
        <time>2025-11-21T11:16:18.000Z</time>
      </trkpt>
      <trkpt lat="44.48582" lon="6.19752">
        <ele>1207</ele>
        <time>2025-11-21T11:16:19.000Z</time>
      </trkpt>
      <trkpt lat="44.48582" lon="6.19753">
        <ele>1207</ele>
        <time>2025-11-21T11:16:20.000Z</time>
      </trkpt>
      <trkpt lat="44.48582" lon="6.19754">
        <ele>1208</ele>
        <time>2025-11-21T11:16:21.000Z</time>
      </trkpt>
      <trkpt lat="44.48582" lon="6.19755">
        <ele>1208</ele>
        <time>2025-11-21T11:16:22.000Z</time>
      </trkpt>
      <trkpt lat="44.48582" lon="6.19756">
        <ele>1209</ele>
        <time>2025-11-21T11:16:23.000Z</time>
      </trkpt>
      <trkpt lat="44.48583" lon="6.19757">
        <ele>1209</ele>
        <time>2025-11-21T11:16:24.000Z</time>
      </trkpt>
      <trkpt lat="44.48584" lon="6.19757">
        <ele>1209</ele>
        <time>2025-11-21T11:16:25.000Z</time>
      </trkpt>
      <trkpt lat="44.48585" lon="6.19757">
        <ele>1209</ele>
        <time>2025-11-21T11:16:26.000Z</time>
      </trkpt>
      <trkpt lat="44.48585" lon="6.19758">
        <ele>1209</ele>
        <time>2025-11-21T11:16:27.000Z</time>
      </trkpt>
      <trkpt lat="44.48587" lon="6.1976">
        <ele>1209</ele>
        <time>2025-11-21T11:16:28.000Z</time>
      </trkpt>
      <trkpt lat="44.48588" lon="6.19761">
        <ele>1208</ele>
        <time>2025-11-21T11:16:29.000Z</time>
      </trkpt>
      <trkpt lat="44.48588" lon="6.19761">
        <ele>1209</ele>
        <time>2025-11-21T11:16:30.000Z</time>
      </trkpt>
      <trkpt lat="44.48589" lon="6.19762">
        <ele>1209</ele>
        <time>2025-11-21T11:16:31.000Z</time>
      </trkpt>
      <trkpt lat="44.4859" lon="6.19763">
        <ele>1209</ele>
        <time>2025-11-21T11:16:32.000Z</time>
      </trkpt>
      <trkpt lat="44.4859" lon="6.19763">
        <ele>1209</ele>
        <time>2025-11-21T11:16:33.000Z</time>
      </trkpt>
      <trkpt lat="44.4859" lon="6.19763">
        <ele>1209</ele>
        <time>2025-11-21T11:16:34.000Z</time>
      </trkpt>
      <trkpt lat="44.48592" lon="6.19765">
        <ele>1209</ele>
        <time>2025-11-21T11:16:35.000Z</time>
      </trkpt>
      <trkpt lat="44.48592" lon="6.19766">
        <ele>1208</ele>
        <time>2025-11-21T11:16:36.000Z</time>
      </trkpt>
      <trkpt lat="44.48593" lon="6.19768">
        <ele>1208</ele>
        <time>2025-11-21T11:16:37.000Z</time>
      </trkpt>
      <trkpt lat="44.48594" lon="6.19768">
        <ele>1210</ele>
        <time>2025-11-21T11:16:38.000Z</time>
      </trkpt>
      <trkpt lat="44.48595" lon="6.1977">
        <ele>1210</ele>
        <time>2025-11-21T11:16:39.000Z</time>
      </trkpt>
      <trkpt lat="44.48596" lon="6.1977">
        <ele>1211</ele>
        <time>2025-11-21T11:16:40.000Z</time>
      </trkpt>
      <trkpt lat="44.48597" lon="6.19771">
        <ele>1212</ele>
        <time>2025-11-21T11:16:41.000Z</time>
      </trkpt>
      <trkpt lat="44.48599" lon="6.19772">
        <ele>1213</ele>
        <time>2025-11-21T11:16:42.000Z</time>
      </trkpt>
      <trkpt lat="44.48598" lon="6.19772">
        <ele>1214</ele>
        <time>2025-11-21T11:16:43.000Z</time>
      </trkpt>
      <trkpt lat="44.48599" lon="6.19772">
        <ele>1214</ele>
        <time>2025-11-21T11:16:44.000Z</time>
      </trkpt>
      <trkpt lat="44.48599" lon="6.19772">
        <ele>1214</ele>
        <time>2025-11-21T11:16:45.000Z</time>
      </trkpt>
      <trkpt lat="44.486" lon="6.19772">
        <ele>1215</ele>
        <time>2025-11-21T11:16:46.000Z</time>
      </trkpt>
      <trkpt lat="44.486" lon="6.19772">
        <ele>1217</ele>
        <time>2025-11-21T11:16:47.000Z</time>
      </trkpt>
      <trkpt lat="44.48599" lon="6.19772">
        <ele>1218</ele>
        <time>2025-11-21T11:16:48.000Z</time>
      </trkpt>
      <trkpt lat="44.486" lon="6.19772">
        <ele>1219</ele>
        <time>2025-11-21T11:16:49.000Z</time>
      </trkpt>
      <trkpt lat="44.48601" lon="6.1977">
        <ele>1218</ele>
        <time>2025-11-21T11:16:50.000Z</time>
      </trkpt>
      <trkpt lat="44.48601" lon="6.19769">
        <ele>1218</ele>
        <time>2025-11-21T11:16:51.000Z</time>
      </trkpt>
      <trkpt lat="44.48601" lon="6.19768">
        <ele>1220</ele>
        <time>2025-11-21T11:16:52.000Z</time>
      </trkpt>
      <trkpt lat="44.48601" lon="6.19766">
        <ele>1220</ele>
        <time>2025-11-21T11:16:53.000Z</time>
      </trkpt>
      <trkpt lat="44.48601" lon="6.19765">
        <ele>1220</ele>
        <time>2025-11-21T11:16:54.000Z</time>
      </trkpt>
      <trkpt lat="44.486" lon="6.19764">
        <ele>1220</ele>
        <time>2025-11-21T11:16:55.000Z</time>
      </trkpt>
      <trkpt lat="44.486" lon="6.19763">
        <ele>1220</ele>
        <time>2025-11-21T11:16:56.000Z</time>
      </trkpt>
      <trkpt lat="44.48599" lon="6.19763">
        <ele>1221</ele>
        <time>2025-11-21T11:16:57.000Z</time>
      </trkpt>
      <trkpt lat="44.48599" lon="6.19761">
        <ele>1221</ele>
        <time>2025-11-21T11:16:58.000Z</time>
      </trkpt>
      <trkpt lat="44.48598" lon="6.1976">
        <ele>1222</ele>
        <time>2025-11-21T11:16:59.000Z</time>
      </trkpt>
      <trkpt lat="44.48598" lon="6.19759">
        <ele>1223</ele>
        <time>2025-11-21T11:17:00.000Z</time>
      </trkpt>
      <trkpt lat="44.48598" lon="6.19758">
        <ele>1223</ele>
        <time>2025-11-21T11:17:01.000Z</time>
      </trkpt>
      <trkpt lat="44.48597" lon="6.19757">
        <ele>1224</ele>
        <time>2025-11-21T11:17:02.000Z</time>
      </trkpt>
      <trkpt lat="44.48597" lon="6.19756">
        <ele>1223</ele>
        <time>2025-11-21T11:17:03.000Z</time>
      </trkpt>
      <trkpt lat="44.48597" lon="6.19755">
        <ele>1223</ele>
        <time>2025-11-21T11:17:04.000Z</time>
      </trkpt>
      <trkpt lat="44.48596" lon="6.19754">
        <ele>1223</ele>
        <time>2025-11-21T11:17:05.000Z</time>
      </trkpt>
      <trkpt lat="44.48595" lon="6.19752">
        <ele>1223</ele>
        <time>2025-11-21T11:17:06.000Z</time>
      </trkpt>
      <trkpt lat="44.48595" lon="6.19751">
        <ele>1223</ele>
        <time>2025-11-21T11:17:07.000Z</time>
      </trkpt>
      <trkpt lat="44.48595" lon="6.1975">
        <ele>1223</ele>
        <time>2025-11-21T11:17:08.000Z</time>
      </trkpt>
      <trkpt lat="44.48595" lon="6.19749">
        <ele>1224</ele>
        <time>2025-11-21T11:17:09.000Z</time>
      </trkpt>
      <trkpt lat="44.48594" lon="6.19748">
        <ele>1224</ele>
        <time>2025-11-21T11:17:10.000Z</time>
      </trkpt>
      <trkpt lat="44.48594" lon="6.19747">
        <ele>1225</ele>
        <time>2025-11-21T11:17:11.000Z</time>
      </trkpt>
      <trkpt lat="44.48593" lon="6.19745">
        <ele>1225</ele>
        <time>2025-11-21T11:17:12.000Z</time>
      </trkpt>
      <trkpt lat="44.48593" lon="6.19743">
        <ele>1225</ele>
        <time>2025-11-21T11:17:13.000Z</time>
      </trkpt>
      <trkpt lat="44.48592" lon="6.19742">
        <ele>1225</ele>
        <time>2025-11-21T11:17:14.000Z</time>
      </trkpt>
      <trkpt lat="44.48592" lon="6.1974">
        <ele>1224</ele>
        <time>2025-11-21T11:17:15.000Z</time>
      </trkpt>
      <trkpt lat="44.48591" lon="6.19739">
        <ele>1224</ele>
        <time>2025-11-21T11:17:16.000Z</time>
      </trkpt>
      <trkpt lat="44.48591" lon="6.19737">
        <ele>1225</ele>
        <time>2025-11-21T11:17:17.000Z</time>
      </trkpt>
      <trkpt lat="44.48591" lon="6.19736">
        <ele>1225</ele>
        <time>2025-11-21T11:17:18.000Z</time>
      </trkpt>
      <trkpt lat="44.4859" lon="6.19734">
        <ele>1225</ele>
        <time>2025-11-21T11:17:19.000Z</time>
      </trkpt>
      <trkpt lat="44.4859" lon="6.19734">
        <ele>1226</ele>
        <time>2025-11-21T11:17:20.000Z</time>
      </trkpt>
      <trkpt lat="44.4859" lon="6.19733">
        <ele>1227</ele>
        <time>2025-11-21T11:17:21.000Z</time>
      </trkpt>
      <trkpt lat="44.48589" lon="6.19733">
        <ele>1227</ele>
        <time>2025-11-21T11:17:22.000Z</time>
      </trkpt>
      <trkpt lat="44.48589" lon="6.19732">
        <ele>1228</ele>
        <time>2025-11-21T11:17:23.000Z</time>
      </trkpt>
      <trkpt lat="44.48588" lon="6.19731">
        <ele>1228</ele>
        <time>2025-11-21T11:17:24.000Z</time>
      </trkpt>
      <trkpt lat="44.48588" lon="6.19729">
        <ele>1228</ele>
        <time>2025-11-21T11:17:25.000Z</time>
      </trkpt>
      <trkpt lat="44.48588" lon="6.19728">
        <ele>1228</ele>
        <time>2025-11-21T11:17:26.000Z</time>
      </trkpt>
      <trkpt lat="44.48587" lon="6.19727">
        <ele>1229</ele>
        <time>2025-11-21T11:17:27.000Z</time>
      </trkpt>
      <trkpt lat="44.48587" lon="6.19725">
        <ele>1229</ele>
        <time>2025-11-21T11:17:28.000Z</time>
      </trkpt>
      <trkpt lat="44.48586" lon="6.19723">
        <ele>1230</ele>
        <time>2025-11-21T11:17:29.000Z</time>
      </trkpt>
      <trkpt lat="44.48586" lon="6.19722">
        <ele>1230</ele>
        <time>2025-11-21T11:17:30.000Z</time>
      </trkpt>
      <trkpt lat="44.48586" lon="6.1972">
        <ele>1231</ele>
        <time>2025-11-21T11:17:31.000Z</time>
      </trkpt>
      <trkpt lat="44.48586" lon="6.19719">
        <ele>1231</ele>
        <time>2025-11-21T11:17:32.000Z</time>
      </trkpt>
      <trkpt lat="44.48586" lon="6.19717">
        <ele>1231</ele>
        <time>2025-11-21T11:17:33.000Z</time>
      </trkpt>
      <trkpt lat="44.48586" lon="6.19716">
        <ele>1231</ele>
        <time>2025-11-21T11:17:34.000Z</time>
      </trkpt>
      <trkpt lat="44.48585" lon="6.19715">
        <ele>1230</ele>
        <time>2025-11-21T11:17:35.000Z</time>
      </trkpt>
      <trkpt lat="44.48585" lon="6.19715">
        <ele>1230</ele>
        <time>2025-11-21T11:17:36.000Z</time>
      </trkpt>
      <trkpt lat="44.48585" lon="6.19715">
        <ele>1230</ele>
        <time>2025-11-21T11:17:37.000Z</time>
      </trkpt>
      <trkpt lat="44.48585" lon="6.19711">
        <ele>1232</ele>
        <time>2025-11-21T11:17:38.000Z</time>
      </trkpt>
      <trkpt lat="44.48585" lon="6.1971">
        <ele>1231</ele>
        <time>2025-11-21T11:17:39.000Z</time>
      </trkpt>
      <trkpt lat="44.48585" lon="6.19708">
        <ele>1230</ele>
        <time>2025-11-21T11:17:40.000Z</time>
      </trkpt>
      <trkpt lat="44.48585" lon="6.19707">
        <ele>1230</ele>
        <time>2025-11-21T11:17:41.000Z</time>
      </trkpt>
      <trkpt lat="44.48585" lon="6.19707">
        <ele>1230</ele>
        <time>2025-11-21T11:17:42.000Z</time>
      </trkpt>
      <trkpt lat="44.48585" lon="6.19707">
        <ele>1230</ele>
        <time>2025-11-21T11:17:43.000Z</time>
      </trkpt>
      <trkpt lat="44.48584" lon="6.19704">
        <ele>1231</ele>
        <time>2025-11-21T11:17:44.000Z</time>
      </trkpt>
      <trkpt lat="44.48584" lon="6.19703">
        <ele>1231</ele>
        <time>2025-11-21T11:17:45.000Z</time>
      </trkpt>
      <trkpt lat="44.48583" lon="6.19701">
        <ele>1231</ele>
        <time>2025-11-21T11:17:46.000Z</time>
      </trkpt>
      <trkpt lat="44.48582" lon="6.197">
        <ele>1231</ele>
        <time>2025-11-21T11:17:47.000Z</time>
      </trkpt>
      <trkpt lat="44.48582" lon="6.19699">
        <ele>1231</ele>
        <time>2025-11-21T11:17:48.000Z</time>
      </trkpt>
      <trkpt lat="44.48582" lon="6.19697">
        <ele>1231</ele>
        <time>2025-11-21T11:17:49.000Z</time>
      </trkpt>
      <trkpt lat="44.48581" lon="6.19696">
        <ele>1230</ele>
        <time>2025-11-21T11:17:50.000Z</time>
      </trkpt>
      <trkpt lat="44.48581" lon="6.19695">
        <ele>1230</ele>
        <time>2025-11-21T11:17:51.000Z</time>
      </trkpt>
      <trkpt lat="44.48581" lon="6.19694">
        <ele>1230</ele>
        <time>2025-11-21T11:17:52.000Z</time>
      </trkpt>
      <trkpt lat="44.4858" lon="6.19692">
        <ele>1230</ele>
        <time>2025-11-21T11:17:53.000Z</time>
      </trkpt>
      <trkpt lat="44.4858" lon="6.1969">
        <ele>1231</ele>
        <time>2025-11-21T11:17:54.000Z</time>
      </trkpt>
      <trkpt lat="44.4858" lon="6.19689">
        <ele>1231</ele>
        <time>2025-11-21T11:17:55.000Z</time>
      </trkpt>
      <trkpt lat="44.4858" lon="6.19689">
        <ele>1231</ele>
        <time>2025-11-21T11:17:56.000Z</time>
      </trkpt>
      <trkpt lat="44.4858" lon="6.19689">
        <ele>1231</ele>
        <time>2025-11-21T11:17:57.000Z</time>
      </trkpt>
      <trkpt lat="44.4858" lon="6.19689">
        <ele>1231</ele>
        <time>2025-11-21T11:17:58.000Z</time>
      </trkpt>
      <trkpt lat="44.4858" lon="6.19689">
        <ele>1231</ele>
        <time>2025-11-21T11:17:59.000Z</time>
      </trkpt>
      <trkpt lat="44.4858" lon="6.19689">
        <ele>1231</ele>
        <time>2025-11-21T11:18:00.000Z</time>
      </trkpt>
      <trkpt lat="44.4858" lon="6.19688">
        <ele>1231</ele>
        <time>2025-11-21T11:18:01.000Z</time>
      </trkpt>
      <trkpt lat="44.48579" lon="6.19686">
        <ele>1231</ele>
        <time>2025-11-21T11:18:02.000Z</time>
      </trkpt>
      <trkpt lat="44.48579" lon="6.19685">
        <ele>1231</ele>
        <time>2025-11-21T11:18:03.000Z</time>
      </trkpt>
      <trkpt lat="44.48579" lon="6.19684">
        <ele>1231</ele>
        <time>2025-11-21T11:18:04.000Z</time>
      </trkpt>
      <trkpt lat="44.48579" lon="6.19683">
        <ele>1231</ele>
        <time>2025-11-21T11:18:05.000Z</time>
      </trkpt>
      <trkpt lat="44.48579" lon="6.19681">
        <ele>1231</ele>
        <time>2025-11-21T11:18:06.000Z</time>
      </trkpt>
      <trkpt lat="44.48579" lon="6.1968">
        <ele>1232</ele>
        <time>2025-11-21T11:18:07.000Z</time>
      </trkpt>
      <trkpt lat="44.48578" lon="6.19678">
        <ele>1233</ele>
        <time>2025-11-21T11:18:08.000Z</time>
      </trkpt>
      <trkpt lat="44.48578" lon="6.19676">
        <ele>1233</ele>
        <time>2025-11-21T11:18:09.000Z</time>
      </trkpt>
      <trkpt lat="44.48578" lon="6.19675">
        <ele>1232</ele>
        <time>2025-11-21T11:18:10.000Z</time>
      </trkpt>
      <trkpt lat="44.48577" lon="6.19674">
        <ele>1232</ele>
        <time>2025-11-21T11:18:11.000Z</time>
      </trkpt>
      <trkpt lat="44.48577" lon="6.19672">
        <ele>1232</ele>
        <time>2025-11-21T11:18:12.000Z</time>
      </trkpt>
      <trkpt lat="44.48576" lon="6.19671">
        <ele>1233</ele>
        <time>2025-11-21T11:18:13.000Z</time>
      </trkpt>
      <trkpt lat="44.48576" lon="6.1967">
        <ele>1233</ele>
        <time>2025-11-21T11:18:14.000Z</time>
      </trkpt>
      <trkpt lat="44.48577" lon="6.19669">
        <ele>1233</ele>
        <time>2025-11-21T11:18:15.000Z</time>
      </trkpt>
      <trkpt lat="44.48577" lon="6.19667">
        <ele>1234</ele>
        <time>2025-11-21T11:18:16.000Z</time>
      </trkpt>
      <trkpt lat="44.48577" lon="6.19665">
        <ele>1234</ele>
        <time>2025-11-21T11:18:17.000Z</time>
      </trkpt>
      <trkpt lat="44.48576" lon="6.19664">
        <ele>1234</ele>
        <time>2025-11-21T11:18:18.000Z</time>
      </trkpt>
      <trkpt lat="44.48575" lon="6.19663">
        <ele>1235</ele>
        <time>2025-11-21T11:18:19.000Z</time>
      </trkpt>
      <trkpt lat="44.48575" lon="6.19661">
        <ele>1235</ele>
        <time>2025-11-21T11:18:20.000Z</time>
      </trkpt>
      <trkpt lat="44.48575" lon="6.1966">
        <ele>1235</ele>
        <time>2025-11-21T11:18:21.000Z</time>
      </trkpt>
      <trkpt lat="44.48575" lon="6.19658">
        <ele>1235</ele>
        <time>2025-11-21T11:18:22.000Z</time>
      </trkpt>
      <trkpt lat="44.48574" lon="6.19655">
        <ele>1234</ele>
        <time>2025-11-21T11:18:23.000Z</time>
      </trkpt>
      <trkpt lat="44.48574" lon="6.19654">
        <ele>1234</ele>
        <time>2025-11-21T11:18:24.000Z</time>
      </trkpt>
      <trkpt lat="44.48573" lon="6.19653">
        <ele>1235</ele>
        <time>2025-11-21T11:18:25.000Z</time>
      </trkpt>
      <trkpt lat="44.48573" lon="6.19652">
        <ele>1234</ele>
        <time>2025-11-21T11:18:26.000Z</time>
      </trkpt>
      <trkpt lat="44.48572" lon="6.1965">
        <ele>1234</ele>
        <time>2025-11-21T11:18:27.000Z</time>
      </trkpt>
      <trkpt lat="44.48571" lon="6.19648">
        <ele>1234</ele>
        <time>2025-11-21T11:18:28.000Z</time>
      </trkpt>
      <trkpt lat="44.48571" lon="6.19648">
        <ele>1234</ele>
        <time>2025-11-21T11:18:29.000Z</time>
      </trkpt>
      <trkpt lat="44.48571" lon="6.19646">
        <ele>1234</ele>
        <time>2025-11-21T11:18:30.000Z</time>
      </trkpt>
      <trkpt lat="44.48571" lon="6.19645">
        <ele>1234</ele>
        <time>2025-11-21T11:18:31.000Z</time>
      </trkpt>
      <trkpt lat="44.48571" lon="6.19644">
        <ele>1234</ele>
        <time>2025-11-21T11:18:32.000Z</time>
      </trkpt>
      <trkpt lat="44.48571" lon="6.19642">
        <ele>1233</ele>
        <time>2025-11-21T11:18:33.000Z</time>
      </trkpt>
      <trkpt lat="44.48571" lon="6.1964">
        <ele>1234</ele>
        <time>2025-11-21T11:18:34.000Z</time>
      </trkpt>
      <trkpt lat="44.48571" lon="6.19639">
        <ele>1234</ele>
        <time>2025-11-21T11:18:35.000Z</time>
      </trkpt>
      <trkpt lat="44.48571" lon="6.19638">
        <ele>1234</ele>
        <time>2025-11-21T11:18:36.000Z</time>
      </trkpt>
      <trkpt lat="44.48571" lon="6.19637">
        <ele>1234</ele>
        <time>2025-11-21T11:18:37.000Z</time>
      </trkpt>
      <trkpt lat="44.4857" lon="6.19635">
        <ele>1234</ele>
        <time>2025-11-21T11:18:38.000Z</time>
      </trkpt>
      <trkpt lat="44.4857" lon="6.19633">
        <ele>1234</ele>
        <time>2025-11-21T11:18:39.000Z</time>
      </trkpt>
      <trkpt lat="44.4857" lon="6.19632">
        <ele>1234</ele>
        <time>2025-11-21T11:18:40.000Z</time>
      </trkpt>
      <trkpt lat="44.48569" lon="6.19631">
        <ele>1234</ele>
        <time>2025-11-21T11:18:41.000Z</time>
      </trkpt>
      <trkpt lat="44.48568" lon="6.1963">
        <ele>1234</ele>
        <time>2025-11-21T11:18:42.000Z</time>
      </trkpt>
      <trkpt lat="44.48568" lon="6.19629">
        <ele>1233</ele>
        <time>2025-11-21T11:18:43.000Z</time>
      </trkpt>
      <trkpt lat="44.48567" lon="6.19628">
        <ele>1233</ele>
        <time>2025-11-21T11:18:44.000Z</time>
      </trkpt>
      <trkpt lat="44.48566" lon="6.19627">
        <ele>1233</ele>
        <time>2025-11-21T11:18:45.000Z</time>
      </trkpt>
      <trkpt lat="44.48565" lon="6.19626">
        <ele>1234</ele>
        <time>2025-11-21T11:18:46.000Z</time>
      </trkpt>
      <trkpt lat="44.48564" lon="6.19624">
        <ele>1235</ele>
        <time>2025-11-21T11:18:47.000Z</time>
      </trkpt>
      <trkpt lat="44.48563" lon="6.19624">
        <ele>1235</ele>
        <time>2025-11-21T11:18:48.000Z</time>
      </trkpt>
      <trkpt lat="44.48563" lon="6.19624">
        <ele>1235</ele>
        <time>2025-11-21T11:18:49.000Z</time>
      </trkpt>
      <trkpt lat="44.48563" lon="6.19624">
        <ele>1235</ele>
        <time>2025-11-21T11:18:50.000Z</time>
      </trkpt>
      <trkpt lat="44.48563" lon="6.19623">
        <ele>1236</ele>
        <time>2025-11-21T11:18:51.000Z</time>
      </trkpt>
      <trkpt lat="44.48563" lon="6.19622">
        <ele>1235</ele>
        <time>2025-11-21T11:18:52.000Z</time>
      </trkpt>
      <trkpt lat="44.48564" lon="6.19621">
        <ele>1235</ele>
        <time>2025-11-21T11:18:53.000Z</time>
      </trkpt>
      <trkpt lat="44.48566" lon="6.19621">
        <ele>1236</ele>
        <time>2025-11-21T11:18:54.000Z</time>
      </trkpt>
      <trkpt lat="44.48567" lon="6.1962">
        <ele>1236</ele>
        <time>2025-11-21T11:18:55.000Z</time>
      </trkpt>
      <trkpt lat="44.48568" lon="6.1962">
        <ele>1236</ele>
        <time>2025-11-21T11:18:56.000Z</time>
      </trkpt>
      <trkpt lat="44.48569" lon="6.19621">
        <ele>1237</ele>
        <time>2025-11-21T11:18:57.000Z</time>
      </trkpt>
      <trkpt lat="44.4857" lon="6.19622">
        <ele>1236</ele>
        <time>2025-11-21T11:18:58.000Z</time>
      </trkpt>
      <trkpt lat="44.48572" lon="6.19622">
        <ele>1237</ele>
        <time>2025-11-21T11:18:59.000Z</time>
      </trkpt>
      <trkpt lat="44.48572" lon="6.19622">
        <ele>1238</ele>
        <time>2025-11-21T11:19:00.000Z</time>
      </trkpt>
      <trkpt lat="44.48573" lon="6.19622">
        <ele>1238</ele>
        <time>2025-11-21T11:19:01.000Z</time>
      </trkpt>
      <trkpt lat="44.48573" lon="6.19623">
        <ele>1237</ele>
        <time>2025-11-21T11:19:02.000Z</time>
      </trkpt>
      <trkpt lat="44.48573" lon="6.19623">
        <ele>1238</ele>
        <time>2025-11-21T11:19:03.000Z</time>
      </trkpt>
      <trkpt lat="44.48574" lon="6.19623">
        <ele>1239</ele>
        <time>2025-11-21T11:19:04.000Z</time>
      </trkpt>
      <trkpt lat="44.48575" lon="6.19623">
        <ele>1239</ele>
        <time>2025-11-21T11:19:05.000Z</time>
      </trkpt>
      <trkpt lat="44.48575" lon="6.19624">
        <ele>1240</ele>
        <time>2025-11-21T11:19:06.000Z</time>
      </trkpt>
      <trkpt lat="44.48575" lon="6.19625">
        <ele>1240</ele>
        <time>2025-11-21T11:19:07.000Z</time>
      </trkpt>
      <trkpt lat="44.48576" lon="6.19624">
        <ele>1241</ele>
        <time>2025-11-21T11:19:08.000Z</time>
      </trkpt>
      <trkpt lat="44.48576" lon="6.19625">
        <ele>1241</ele>
        <time>2025-11-21T11:19:09.000Z</time>
      </trkpt>
      <trkpt lat="44.48578" lon="6.19625">
        <ele>1241</ele>
        <time>2025-11-21T11:19:10.000Z</time>
      </trkpt>
      <trkpt lat="44.48578" lon="6.19625">
        <ele>1242</ele>
        <time>2025-11-21T11:19:11.000Z</time>
      </trkpt>
      <trkpt lat="44.48579" lon="6.19625">
        <ele>1241</ele>
        <time>2025-11-21T11:19:12.000Z</time>
      </trkpt>
      <trkpt lat="44.48579" lon="6.19625">
        <ele>1241</ele>
        <time>2025-11-21T11:19:13.000Z</time>
      </trkpt>
      <trkpt lat="44.4858" lon="6.19626">
        <ele>1241</ele>
        <time>2025-11-21T11:19:14.000Z</time>
      </trkpt>
      <trkpt lat="44.48581" lon="6.19626">
        <ele>1242</ele>
        <time>2025-11-21T11:19:15.000Z</time>
      </trkpt>
      <trkpt lat="44.48582" lon="6.19626">
        <ele>1242</ele>
        <time>2025-11-21T11:19:16.000Z</time>
      </trkpt>
      <trkpt lat="44.48583" lon="6.19627">
        <ele>1243</ele>
        <time>2025-11-21T11:19:17.000Z</time>
      </trkpt>
      <trkpt lat="44.48584" lon="6.19628">
        <ele>1244</ele>
        <time>2025-11-21T11:19:18.000Z</time>
      </trkpt>
      <trkpt lat="44.48585" lon="6.19629">
        <ele>1244</ele>
        <time>2025-11-21T11:19:19.000Z</time>
      </trkpt>
      <trkpt lat="44.48585" lon="6.19631">
        <ele>1244</ele>
        <time>2025-11-21T11:19:20.000Z</time>
      </trkpt>
      <trkpt lat="44.48585" lon="6.19631">
        <ele>1244</ele>
        <time>2025-11-21T11:19:21.000Z</time>
      </trkpt>
      <trkpt lat="44.48585" lon="6.19632">
        <ele>1243</ele>
        <time>2025-11-21T11:19:22.000Z</time>
      </trkpt>
      <trkpt lat="44.48585" lon="6.19633">
        <ele>1244</ele>
        <time>2025-11-21T11:19:23.000Z</time>
      </trkpt>
      <trkpt lat="44.48586" lon="6.19633">
        <ele>1244</ele>
        <time>2025-11-21T11:19:24.000Z</time>
      </trkpt>
      <trkpt lat="44.48587" lon="6.19633">
        <ele>1244</ele>
        <time>2025-11-21T11:19:25.000Z</time>
      </trkpt>
      <trkpt lat="44.48588" lon="6.19634">
        <ele>1245</ele>
        <time>2025-11-21T11:19:26.000Z</time>
      </trkpt>
      <trkpt lat="44.48589" lon="6.19635">
        <ele>1245</ele>
        <time>2025-11-21T11:19:27.000Z</time>
      </trkpt>
      <trkpt lat="44.48591" lon="6.19635">
        <ele>1244</ele>
        <time>2025-11-21T11:19:28.000Z</time>
      </trkpt>
      <trkpt lat="44.48592" lon="6.19636">
        <ele>1244</ele>
        <time>2025-11-21T11:19:29.000Z</time>
      </trkpt>
      <trkpt lat="44.48592" lon="6.19637">
        <ele>1244</ele>
        <time>2025-11-21T11:19:30.000Z</time>
      </trkpt>
      <trkpt lat="44.48593" lon="6.19638">
        <ele>1244</ele>
        <time>2025-11-21T11:19:31.000Z</time>
      </trkpt>
      <trkpt lat="44.48595" lon="6.19639">
        <ele>1245</ele>
        <time>2025-11-21T11:19:32.000Z</time>
      </trkpt>
      <trkpt lat="44.48595" lon="6.1964">
        <ele>1246</ele>
        <time>2025-11-21T11:19:33.000Z</time>
      </trkpt>
      <trkpt lat="44.48595" lon="6.19642">
        <ele>1246</ele>
        <time>2025-11-21T11:19:34.000Z</time>
      </trkpt>
      <trkpt lat="44.48596" lon="6.19643">
        <ele>1246</ele>
        <time>2025-11-21T11:19:35.000Z</time>
      </trkpt>
      <trkpt lat="44.48597" lon="6.19644">
        <ele>1246</ele>
        <time>2025-11-21T11:19:36.000Z</time>
      </trkpt>
      <trkpt lat="44.48598" lon="6.19644">
        <ele>1247</ele>
        <time>2025-11-21T11:19:37.000Z</time>
      </trkpt>
      <trkpt lat="44.48599" lon="6.19645">
        <ele>1247</ele>
        <time>2025-11-21T11:19:38.000Z</time>
      </trkpt>
      <trkpt lat="44.48598" lon="6.19646">
        <ele>1248</ele>
        <time>2025-11-21T11:19:39.000Z</time>
      </trkpt>
      <trkpt lat="44.48599" lon="6.19647">
        <ele>1246</ele>
        <time>2025-11-21T11:19:40.000Z</time>
      </trkpt>
      <trkpt lat="44.48599" lon="6.19648">
        <ele>1247</ele>
        <time>2025-11-21T11:19:42.000Z</time>
      </trkpt>
      <trkpt lat="44.48601" lon="6.19649">
        <ele>1248</ele>
        <time>2025-11-21T11:19:43.000Z</time>
      </trkpt>
      <trkpt lat="44.48605" lon="6.19649">
        <ele>1248</ele>
        <time>2025-11-21T11:19:46.000Z</time>
      </trkpt>
      <trkpt lat="44.48606" lon="6.1965">
        <ele>1248</ele>
        <time>2025-11-21T11:19:47.000Z</time>
      </trkpt>
      <trkpt lat="44.48608" lon="6.1965">
        <ele>1249</ele>
        <time>2025-11-21T11:19:48.000Z</time>
      </trkpt>
      <trkpt lat="44.48609" lon="6.19651">
        <ele>1248</ele>
        <time>2025-11-21T11:19:49.000Z</time>
      </trkpt>
      <trkpt lat="44.4861" lon="6.19652">
        <ele>1248</ele>
        <time>2025-11-21T11:19:50.000Z</time>
      </trkpt>
      <trkpt lat="44.48611" lon="6.19651">
        <ele>1249</ele>
        <time>2025-11-21T11:19:51.000Z</time>
      </trkpt>
      <trkpt lat="44.48611" lon="6.19653">
        <ele>1249</ele>
        <time>2025-11-21T11:19:52.000Z</time>
      </trkpt>
      <trkpt lat="44.48611" lon="6.19654">
        <ele>1249</ele>
        <time>2025-11-21T11:19:53.000Z</time>
      </trkpt>
      <trkpt lat="44.48612" lon="6.19655">
        <ele>1248</ele>
        <time>2025-11-21T11:19:54.000Z</time>
      </trkpt>
      <trkpt lat="44.48613" lon="6.19656">
        <ele>1249</ele>
        <time>2025-11-21T11:19:55.000Z</time>
      </trkpt>
      <trkpt lat="44.48613" lon="6.19657">
        <ele>1248</ele>
        <time>2025-11-21T11:19:56.000Z</time>
      </trkpt>
      <trkpt lat="44.48614" lon="6.19659">
        <ele>1249</ele>
        <time>2025-11-21T11:19:57.000Z</time>
      </trkpt>
      <trkpt lat="44.48615" lon="6.1966">
        <ele>1248</ele>
        <time>2025-11-21T11:19:58.000Z</time>
      </trkpt>
      <trkpt lat="44.48615" lon="6.1966">
        <ele>1247</ele>
        <time>2025-11-21T11:19:59.000Z</time>
      </trkpt>
      <trkpt lat="44.48615" lon="6.19661">
        <ele>1248</ele>
        <time>2025-11-21T11:20:00.000Z</time>
      </trkpt>
      <trkpt lat="44.48616" lon="6.19662">
        <ele>1248</ele>
        <time>2025-11-21T11:20:01.000Z</time>
      </trkpt>
      <trkpt lat="44.48616" lon="6.19662">
        <ele>1248</ele>
        <time>2025-11-21T11:20:02.000Z</time>
      </trkpt>
      <trkpt lat="44.48617" lon="6.19663">
        <ele>1248</ele>
        <time>2025-11-21T11:20:03.000Z</time>
      </trkpt>
      <trkpt lat="44.48616" lon="6.19663">
        <ele>1249</ele>
        <time>2025-11-21T11:20:04.000Z</time>
      </trkpt>
      <trkpt lat="44.48617" lon="6.19665">
        <ele>1249</ele>
        <time>2025-11-21T11:20:05.000Z</time>
      </trkpt>
      <trkpt lat="44.48617" lon="6.19665">
        <ele>1249</ele>
        <time>2025-11-21T11:20:06.000Z</time>
      </trkpt>
      <trkpt lat="44.48618" lon="6.19666">
        <ele>1249</ele>
        <time>2025-11-21T11:20:07.000Z</time>
      </trkpt>
      <trkpt lat="44.48618" lon="6.19666">
        <ele>1249</ele>
        <time>2025-11-21T11:20:08.000Z</time>
      </trkpt>
      <trkpt lat="44.48618" lon="6.19666">
        <ele>1249</ele>
        <time>2025-11-21T11:20:09.000Z</time>
      </trkpt>
      <trkpt lat="44.48619" lon="6.19666">
        <ele>1249</ele>
        <time>2025-11-21T11:20:10.000Z</time>
      </trkpt>
      <trkpt lat="44.48619" lon="6.19666">
        <ele>1250</ele>
        <time>2025-11-21T11:20:11.000Z</time>
      </trkpt>
      <trkpt lat="44.4862" lon="6.19667">
        <ele>1250</ele>
        <time>2025-11-21T11:20:12.000Z</time>
      </trkpt>
      <trkpt lat="44.48621" lon="6.19668">
        <ele>1250</ele>
        <time>2025-11-21T11:20:13.000Z</time>
      </trkpt>
      <trkpt lat="44.48622" lon="6.1967">
        <ele>1250</ele>
        <time>2025-11-21T11:20:14.000Z</time>
      </trkpt>
      <trkpt lat="44.48623" lon="6.19671">
        <ele>1250</ele>
        <time>2025-11-21T11:20:15.000Z</time>
      </trkpt>
      <trkpt lat="44.48624" lon="6.19672">
        <ele>1250</ele>
        <time>2025-11-21T11:20:16.000Z</time>
      </trkpt>
      <trkpt lat="44.48624" lon="6.19672">
        <ele>1250</ele>
        <time>2025-11-21T11:20:17.000Z</time>
      </trkpt>
      <trkpt lat="44.48624" lon="6.19673">
        <ele>1250</ele>
        <time>2025-11-21T11:20:18.000Z</time>
      </trkpt>
      <trkpt lat="44.48625" lon="6.19673">
        <ele>1250</ele>
        <time>2025-11-21T11:20:19.000Z</time>
      </trkpt>
      <trkpt lat="44.48626" lon="6.19674">
        <ele>1249</ele>
        <time>2025-11-21T11:20:20.000Z</time>
      </trkpt>
      <trkpt lat="44.48627" lon="6.19675">
        <ele>1249</ele>
        <time>2025-11-21T11:20:21.000Z</time>
      </trkpt>
      <trkpt lat="44.48628" lon="6.19676">
        <ele>1249</ele>
        <time>2025-11-21T11:20:22.000Z</time>
      </trkpt>
      <trkpt lat="44.48628" lon="6.19677">
        <ele>1249</ele>
        <time>2025-11-21T11:20:23.000Z</time>
      </trkpt>
      <trkpt lat="44.48628" lon="6.19678">
        <ele>1249</ele>
        <time>2025-11-21T11:20:24.000Z</time>
      </trkpt>
      <trkpt lat="44.48628" lon="6.19679">
        <ele>1250</ele>
        <time>2025-11-21T11:20:25.000Z</time>
      </trkpt>
      <trkpt lat="44.48629" lon="6.19681">
        <ele>1250</ele>
        <time>2025-11-21T11:20:26.000Z</time>
      </trkpt>
      <trkpt lat="44.48631" lon="6.19683">
        <ele>1249</ele>
        <time>2025-11-21T11:20:27.000Z</time>
      </trkpt>
      <trkpt lat="44.48632" lon="6.19684">
        <ele>1249</ele>
        <time>2025-11-21T11:20:28.000Z</time>
      </trkpt>
      <trkpt lat="44.48632" lon="6.19686">
        <ele>1249</ele>
        <time>2025-11-21T11:20:29.000Z</time>
      </trkpt>
      <trkpt lat="44.48633" lon="6.19687">
        <ele>1249</ele>
        <time>2025-11-21T11:20:30.000Z</time>
      </trkpt>
      <trkpt lat="44.48633" lon="6.19688">
        <ele>1250</ele>
        <time>2025-11-21T11:20:31.000Z</time>
      </trkpt>
      <trkpt lat="44.48633" lon="6.19689">
        <ele>1250</ele>
        <time>2025-11-21T11:20:32.000Z</time>
      </trkpt>
      <trkpt lat="44.48634" lon="6.1969">
        <ele>1250</ele>
        <time>2025-11-21T11:20:33.000Z</time>
      </trkpt>
      <trkpt lat="44.48635" lon="6.19692">
        <ele>1250</ele>
        <time>2025-11-21T11:20:34.000Z</time>
      </trkpt>
      <trkpt lat="44.48636" lon="6.19692">
        <ele>1250</ele>
        <time>2025-11-21T11:20:35.000Z</time>
      </trkpt>
      <trkpt lat="44.48636" lon="6.19693">
        <ele>1250</ele>
        <time>2025-11-21T11:20:36.000Z</time>
      </trkpt>
      <trkpt lat="44.48636" lon="6.19694">
        <ele>1251</ele>
        <time>2025-11-21T11:20:37.000Z</time>
      </trkpt>
      <trkpt lat="44.48637" lon="6.19695">
        <ele>1251</ele>
        <time>2025-11-21T11:20:38.000Z</time>
      </trkpt>
      <trkpt lat="44.48638" lon="6.19695">
        <ele>1252</ele>
        <time>2025-11-21T11:20:39.000Z</time>
      </trkpt>
      <trkpt lat="44.48638" lon="6.19695">
        <ele>1253</ele>
        <time>2025-11-21T11:20:40.000Z</time>
      </trkpt>
      <trkpt lat="44.48638" lon="6.19695">
        <ele>1253</ele>
        <time>2025-11-21T11:20:41.000Z</time>
      </trkpt>
      <trkpt lat="44.48638" lon="6.19695">
        <ele>1253</ele>
        <time>2025-11-21T11:20:42.000Z</time>
      </trkpt>
      <trkpt lat="44.48639" lon="6.19697">
        <ele>1252</ele>
        <time>2025-11-21T11:20:43.000Z</time>
      </trkpt>
      <trkpt lat="44.48639" lon="6.19697">
        <ele>1252</ele>
        <time>2025-11-21T11:20:44.000Z</time>
      </trkpt>
      <trkpt lat="44.4864" lon="6.19698">
        <ele>1251</ele>
        <time>2025-11-21T11:20:45.000Z</time>
      </trkpt>
      <trkpt lat="44.4864" lon="6.19698">
        <ele>1251</ele>
        <time>2025-11-21T11:20:46.000Z</time>
      </trkpt>
      <trkpt lat="44.48641" lon="6.197">
        <ele>1251</ele>
        <time>2025-11-21T11:20:47.000Z</time>
      </trkpt>
      <trkpt lat="44.48642" lon="6.197">
        <ele>1251</ele>
        <time>2025-11-21T11:20:48.000Z</time>
      </trkpt>
      <trkpt lat="44.48642" lon="6.19701">
        <ele>1252</ele>
        <time>2025-11-21T11:20:49.000Z</time>
      </trkpt>
      <trkpt lat="44.48644" lon="6.19703">
        <ele>1252</ele>
        <time>2025-11-21T11:20:50.000Z</time>
      </trkpt>
      <trkpt lat="44.48645" lon="6.19704">
        <ele>1253</ele>
        <time>2025-11-21T11:20:51.000Z</time>
      </trkpt>
      <trkpt lat="44.48645" lon="6.19705">
        <ele>1253</ele>
        <time>2025-11-21T11:20:52.000Z</time>
      </trkpt>
      <trkpt lat="44.48645" lon="6.19705">
        <ele>1252</ele>
        <time>2025-11-21T11:20:53.000Z</time>
      </trkpt>
      <trkpt lat="44.48645" lon="6.19705">
        <ele>1252</ele>
        <time>2025-11-21T11:20:54.000Z</time>
      </trkpt>
      <trkpt lat="44.48645" lon="6.19705">
        <ele>1252</ele>
        <time>2025-11-21T11:20:55.000Z</time>
      </trkpt>
      <trkpt lat="44.48645" lon="6.19705">
        <ele>1252</ele>
        <time>2025-11-21T11:20:56.000Z</time>
      </trkpt>
      <trkpt lat="44.48645" lon="6.19705">
        <ele>1252</ele>
        <time>2025-11-21T11:20:57.000Z</time>
      </trkpt>
      <trkpt lat="44.48645" lon="6.19705">
        <ele>1252</ele>
        <time>2025-11-21T11:20:58.000Z</time>
      </trkpt>
      <trkpt lat="44.48645" lon="6.19706">
        <ele>1253</ele>
        <time>2025-11-21T11:20:59.000Z</time>
      </trkpt>
      <trkpt lat="44.48644" lon="6.19707">
        <ele>1254</ele>
        <time>2025-11-21T11:21:00.000Z</time>
      </trkpt>
      <trkpt lat="44.48645" lon="6.19708">
        <ele>1254</ele>
        <time>2025-11-21T11:21:01.000Z</time>
      </trkpt>
      <trkpt lat="44.48645" lon="6.19709">
        <ele>1254</ele>
        <time>2025-11-21T11:21:02.000Z</time>
      </trkpt>
      <trkpt lat="44.48646" lon="6.1971">
        <ele>1254</ele>
        <time>2025-11-21T11:21:03.000Z</time>
      </trkpt>
      <trkpt lat="44.48647" lon="6.19711">
        <ele>1254</ele>
        <time>2025-11-21T11:21:04.000Z</time>
      </trkpt>
      <trkpt lat="44.48648" lon="6.19712">
        <ele>1254</ele>
        <time>2025-11-21T11:21:05.000Z</time>
      </trkpt>
      <trkpt lat="44.48649" lon="6.19712">
        <ele>1253</ele>
        <time>2025-11-21T11:21:06.000Z</time>
      </trkpt>
      <trkpt lat="44.4865" lon="6.19713">
        <ele>1253</ele>
        <time>2025-11-21T11:21:07.000Z</time>
      </trkpt>
      <trkpt lat="44.4865" lon="6.19713">
        <ele>1254</ele>
        <time>2025-11-21T11:21:08.000Z</time>
      </trkpt>
      <trkpt lat="44.48651" lon="6.19714">
        <ele>1254</ele>
        <time>2025-11-21T11:21:09.000Z</time>
      </trkpt>
      <trkpt lat="44.48652" lon="6.19715">
        <ele>1253</ele>
        <time>2025-11-21T11:21:10.000Z</time>
      </trkpt>
      <trkpt lat="44.48653" lon="6.19716">
        <ele>1253</ele>
        <time>2025-11-21T11:21:11.000Z</time>
      </trkpt>
      <trkpt lat="44.48654" lon="6.19717">
        <ele>1254</ele>
        <time>2025-11-21T11:21:12.000Z</time>
      </trkpt>
      <trkpt lat="44.48654" lon="6.19718">
        <ele>1254</ele>
        <time>2025-11-21T11:21:13.000Z</time>
      </trkpt>
      <trkpt lat="44.48655" lon="6.19718">
        <ele>1253</ele>
        <time>2025-11-21T11:21:14.000Z</time>
      </trkpt>
      <trkpt lat="44.48656" lon="6.19718">
        <ele>1254</ele>
        <time>2025-11-21T11:21:15.000Z</time>
      </trkpt>
      <trkpt lat="44.48656" lon="6.19719">
        <ele>1254</ele>
        <time>2025-11-21T11:21:16.000Z</time>
      </trkpt>
      <trkpt lat="44.48657" lon="6.1972">
        <ele>1254</ele>
        <time>2025-11-21T11:21:17.000Z</time>
      </trkpt>
      <trkpt lat="44.48658" lon="6.1972">
        <ele>1254</ele>
        <time>2025-11-21T11:21:18.000Z</time>
      </trkpt>
      <trkpt lat="44.48658" lon="6.1972">
        <ele>1255</ele>
        <time>2025-11-21T11:21:19.000Z</time>
      </trkpt>
      <trkpt lat="44.48658" lon="6.1972">
        <ele>1255</ele>
        <time>2025-11-21T11:21:20.000Z</time>
      </trkpt>
      <trkpt lat="44.48659" lon="6.1972">
        <ele>1255</ele>
        <time>2025-11-21T11:21:21.000Z</time>
      </trkpt>
      <trkpt lat="44.48659" lon="6.19719">
        <ele>1256</ele>
        <time>2025-11-21T11:21:22.000Z</time>
      </trkpt>
      <trkpt lat="44.48656" lon="6.19723">
        <ele>1256</ele>
        <time>2025-11-21T11:22:50.000Z</time>
      </trkpt>
      <trkpt lat="44.48656" lon="6.19723">
        <ele>1257</ele>
        <time>2025-11-21T11:22:51.000Z</time>
      </trkpt>
      <trkpt lat="44.48657" lon="6.19723">
        <ele>1256</ele>
        <time>2025-11-21T11:22:52.000Z</time>
      </trkpt>
      <trkpt lat="44.48657" lon="6.19723">
        <ele>1256</ele>
        <time>2025-11-21T11:22:53.000Z</time>
      </trkpt>
      <trkpt lat="44.48657" lon="6.19723">
        <ele>1256</ele>
        <time>2025-11-21T11:22:54.000Z</time>
      </trkpt>
      <trkpt lat="44.48658" lon="6.19721">
        <ele>1256</ele>
        <time>2025-11-21T11:22:55.000Z</time>
      </trkpt>
      <trkpt lat="44.48659" lon="6.19721">
        <ele>1257</ele>
        <time>2025-11-21T11:22:56.000Z</time>
      </trkpt>
      <trkpt lat="44.48659" lon="6.1972">
        <ele>1257</ele>
        <time>2025-11-21T11:22:57.000Z</time>
      </trkpt>
      <trkpt lat="44.48659" lon="6.1972">
        <ele>1257</ele>
        <time>2025-11-21T11:22:58.000Z</time>
      </trkpt>
      <trkpt lat="44.48659" lon="6.19719">
        <ele>1256</ele>
        <time>2025-11-21T11:22:59.000Z</time>
      </trkpt>
      <trkpt lat="44.4866" lon="6.1972">
        <ele>1256</ele>
        <time>2025-11-21T11:23:00.000Z</time>
      </trkpt>
      <trkpt lat="44.4866" lon="6.1972">
        <ele>1255</ele>
        <time>2025-11-21T11:23:01.000Z</time>
      </trkpt>
      <trkpt lat="44.48661" lon="6.19719">
        <ele>1255</ele>
        <time>2025-11-21T11:23:02.000Z</time>
      </trkpt>
      <trkpt lat="44.48661" lon="6.19719">
        <ele>1255</ele>
        <time>2025-11-21T11:23:03.000Z</time>
      </trkpt>
      <trkpt lat="44.48661" lon="6.19719">
        <ele>1255</ele>
        <time>2025-11-21T11:23:04.000Z</time>
      </trkpt>
      <trkpt lat="44.48662" lon="6.1972">
        <ele>1255</ele>
        <time>2025-11-21T11:23:05.000Z</time>
      </trkpt>
      <trkpt lat="44.48662" lon="6.19721">
        <ele>1255</ele>
        <time>2025-11-21T11:23:06.000Z</time>
      </trkpt>
      <trkpt lat="44.48663" lon="6.19721">
        <ele>1254</ele>
        <time>2025-11-21T11:23:07.000Z</time>
      </trkpt>
      <trkpt lat="44.48663" lon="6.19721">
        <ele>1254</ele>
        <time>2025-11-21T11:23:08.000Z</time>
      </trkpt>
      <trkpt lat="44.48663" lon="6.19721">
        <ele>1254</ele>
        <time>2025-11-21T11:23:09.000Z</time>
      </trkpt>
      <trkpt lat="44.48662" lon="6.19725">
        <ele>1263</ele>
        <time>2025-11-21T11:24:43.000Z</time>
      </trkpt>
      <trkpt lat="44.48663" lon="6.19725">
        <ele>1263</ele>
        <time>2025-11-21T11:24:44.000Z</time>
      </trkpt>
      <trkpt lat="44.48663" lon="6.19726">
        <ele>1262</ele>
        <time>2025-11-21T11:24:45.000Z</time>
      </trkpt>
      <trkpt lat="44.48663" lon="6.19726">
        <ele>1262</ele>
        <time>2025-11-21T11:24:46.000Z</time>
      </trkpt>
      <trkpt lat="44.48663" lon="6.19726">
        <ele>1262</ele>
        <time>2025-11-21T11:24:47.000Z</time>
      </trkpt>
      <trkpt lat="44.48667" lon="6.19726">
        <ele>1261</ele>
        <time>2025-11-21T11:24:48.000Z</time>
      </trkpt>
      <trkpt lat="44.48668" lon="6.19726">
        <ele>1261</ele>
        <time>2025-11-21T11:24:49.000Z</time>
      </trkpt>
      <trkpt lat="44.48669" lon="6.19727">
        <ele>1260</ele>
        <time>2025-11-21T11:24:50.000Z</time>
      </trkpt>
      <trkpt lat="44.4867" lon="6.19728">
        <ele>1260</ele>
        <time>2025-11-21T11:24:51.000Z</time>
      </trkpt>
      <trkpt lat="44.4867" lon="6.19728">
        <ele>1260</ele>
        <time>2025-11-21T11:24:52.000Z</time>
      </trkpt>
      <trkpt lat="44.48671" lon="6.19727">
        <ele>1260</ele>
        <time>2025-11-21T11:24:53.000Z</time>
      </trkpt>
      <trkpt lat="44.48672" lon="6.19728">
        <ele>1260</ele>
        <time>2025-11-21T11:24:54.000Z</time>
      </trkpt>
      <trkpt lat="44.48674" lon="6.19728">
        <ele>1260</ele>
        <time>2025-11-21T11:24:55.000Z</time>
      </trkpt>
      <trkpt lat="44.48675" lon="6.19728">
        <ele>1260</ele>
        <time>2025-11-21T11:24:56.000Z</time>
      </trkpt>
      <trkpt lat="44.48676" lon="6.19728">
        <ele>1260</ele>
        <time>2025-11-21T11:24:57.000Z</time>
      </trkpt>
      <trkpt lat="44.48677" lon="6.19728">
        <ele>1261</ele>
        <time>2025-11-21T11:24:58.000Z</time>
      </trkpt>
      <trkpt lat="44.48678" lon="6.19727">
        <ele>1261</ele>
        <time>2025-11-21T11:24:59.000Z</time>
      </trkpt>
      <trkpt lat="44.4868" lon="6.19726">
        <ele>1261</ele>
        <time>2025-11-21T11:25:00.000Z</time>
      </trkpt>
      <trkpt lat="44.48681" lon="6.19726">
        <ele>1260</ele>
        <time>2025-11-21T11:25:01.000Z</time>
      </trkpt>
      <trkpt lat="44.48682" lon="6.19726">
        <ele>1261</ele>
        <time>2025-11-21T11:25:02.000Z</time>
      </trkpt>
      <trkpt lat="44.48684" lon="6.19727">
        <ele>1260</ele>
        <time>2025-11-21T11:25:03.000Z</time>
      </trkpt>
      <trkpt lat="44.48685" lon="6.19728">
        <ele>1260</ele>
        <time>2025-11-21T11:25:04.000Z</time>
      </trkpt>
      <trkpt lat="44.48686" lon="6.19728">
        <ele>1260</ele>
        <time>2025-11-21T11:25:05.000Z</time>
      </trkpt>
      <trkpt lat="44.48687" lon="6.19728">
        <ele>1260</ele>
        <time>2025-11-21T11:25:06.000Z</time>
      </trkpt>
      <trkpt lat="44.48688" lon="6.19728">
        <ele>1260</ele>
        <time>2025-11-21T11:25:07.000Z</time>
      </trkpt>
      <trkpt lat="44.48689" lon="6.19729">
        <ele>1259</ele>
        <time>2025-11-21T11:25:08.000Z</time>
      </trkpt>
      <trkpt lat="44.48691" lon="6.19729">
        <ele>1259</ele>
        <time>2025-11-21T11:25:09.000Z</time>
      </trkpt>
      <trkpt lat="44.48692" lon="6.1973">
        <ele>1259</ele>
        <time>2025-11-21T11:25:10.000Z</time>
      </trkpt>
      <trkpt lat="44.48693" lon="6.19731">
        <ele>1259</ele>
        <time>2025-11-21T11:25:11.000Z</time>
      </trkpt>
      <trkpt lat="44.48694" lon="6.19731">
        <ele>1259</ele>
        <time>2025-11-21T11:25:12.000Z</time>
      </trkpt>
      <trkpt lat="44.48695" lon="6.19732">
        <ele>1259</ele>
        <time>2025-11-21T11:25:13.000Z</time>
      </trkpt>
      <trkpt lat="44.48696" lon="6.19733">
        <ele>1259</ele>
        <time>2025-11-21T11:25:14.000Z</time>
      </trkpt>
      <trkpt lat="44.48697" lon="6.19734">
        <ele>1259</ele>
        <time>2025-11-21T11:25:15.000Z</time>
      </trkpt>
      <trkpt lat="44.48697" lon="6.19735">
        <ele>1259</ele>
        <time>2025-11-21T11:25:16.000Z</time>
      </trkpt>
      <trkpt lat="44.48698" lon="6.19736">
        <ele>1260</ele>
        <time>2025-11-21T11:25:17.000Z</time>
      </trkpt>
      <trkpt lat="44.48698" lon="6.19736">
        <ele>1260</ele>
        <time>2025-11-21T11:25:18.000Z</time>
      </trkpt>
      <trkpt lat="44.48699" lon="6.19739">
        <ele>1260</ele>
        <time>2025-11-21T11:25:19.000Z</time>
      </trkpt>
      <trkpt lat="44.48699" lon="6.19741">
        <ele>1261</ele>
        <time>2025-11-21T11:25:20.000Z</time>
      </trkpt>
      <trkpt lat="44.48701" lon="6.19741">
        <ele>1261</ele>
        <time>2025-11-21T11:25:21.000Z</time>
      </trkpt>
      <trkpt lat="44.48701" lon="6.19742">
        <ele>1261</ele>
        <time>2025-11-21T11:25:22.000Z</time>
      </trkpt>
      <trkpt lat="44.48703" lon="6.19744">
        <ele>1261</ele>
        <time>2025-11-21T11:25:23.000Z</time>
      </trkpt>
      <trkpt lat="44.48704" lon="6.19745">
        <ele>1261</ele>
        <time>2025-11-21T11:25:24.000Z</time>
      </trkpt>
      <trkpt lat="44.48705" lon="6.19746">
        <ele>1262</ele>
        <time>2025-11-21T11:25:25.000Z</time>
      </trkpt>
      <trkpt lat="44.48704" lon="6.19747">
        <ele>1262</ele>
        <time>2025-11-21T11:25:26.000Z</time>
      </trkpt>
      <trkpt lat="44.48705" lon="6.19748">
        <ele>1262</ele>
        <time>2025-11-21T11:25:27.000Z</time>
      </trkpt>
      <trkpt lat="44.48705" lon="6.19748">
        <ele>1263</ele>
        <time>2025-11-21T11:25:28.000Z</time>
      </trkpt>
      <trkpt lat="44.48706" lon="6.1975">
        <ele>1263</ele>
        <time>2025-11-21T11:25:29.000Z</time>
      </trkpt>
      <trkpt lat="44.48706" lon="6.1975">
        <ele>1263</ele>
        <time>2025-11-21T11:25:30.000Z</time>
      </trkpt>
      <trkpt lat="44.48707" lon="6.19751">
        <ele>1263</ele>
        <time>2025-11-21T11:25:31.000Z</time>
      </trkpt>
      <trkpt lat="44.48707" lon="6.19751">
        <ele>1263</ele>
        <time>2025-11-21T11:25:32.000Z</time>
      </trkpt>
      <trkpt lat="44.48707" lon="6.19752">
        <ele>1263</ele>
        <time>2025-11-21T11:25:33.000Z</time>
      </trkpt>
      <trkpt lat="44.48708" lon="6.19753">
        <ele>1264</ele>
        <time>2025-11-21T11:25:34.000Z</time>
      </trkpt>
      <trkpt lat="44.48709" lon="6.19754">
        <ele>1264</ele>
        <time>2025-11-21T11:25:35.000Z</time>
      </trkpt>
      <trkpt lat="44.48709" lon="6.19754">
        <ele>1264</ele>
        <time>2025-11-21T11:25:36.000Z</time>
      </trkpt>
      <trkpt lat="44.4871" lon="6.19755">
        <ele>1263</ele>
        <time>2025-11-21T11:25:37.000Z</time>
      </trkpt>
      <trkpt lat="44.48711" lon="6.19756">
        <ele>1263</ele>
        <time>2025-11-21T11:25:38.000Z</time>
      </trkpt>
      <trkpt lat="44.48711" lon="6.19757">
        <ele>1263</ele>
        <time>2025-11-21T11:25:39.000Z</time>
      </trkpt>
      <trkpt lat="44.48712" lon="6.19758">
        <ele>1263</ele>
        <time>2025-11-21T11:25:40.000Z</time>
      </trkpt>
      <trkpt lat="44.48713" lon="6.1976">
        <ele>1263</ele>
        <time>2025-11-21T11:25:41.000Z</time>
      </trkpt>
      <trkpt lat="44.48714" lon="6.19761">
        <ele>1264</ele>
        <time>2025-11-21T11:25:42.000Z</time>
      </trkpt>
      <trkpt lat="44.48714" lon="6.19761">
        <ele>1264</ele>
        <time>2025-11-21T11:25:43.000Z</time>
      </trkpt>
      <trkpt lat="44.48715" lon="6.19762">
        <ele>1264</ele>
        <time>2025-11-21T11:25:44.000Z</time>
      </trkpt>
      <trkpt lat="44.48716" lon="6.19764">
        <ele>1265</ele>
        <time>2025-11-21T11:25:45.000Z</time>
      </trkpt>
      <trkpt lat="44.48717" lon="6.19765">
        <ele>1265</ele>
        <time>2025-11-21T11:25:46.000Z</time>
      </trkpt>
      <trkpt lat="44.48717" lon="6.19766">
        <ele>1265</ele>
        <time>2025-11-21T11:25:47.000Z</time>
      </trkpt>
      <trkpt lat="44.48718" lon="6.19767">
        <ele>1265</ele>
        <time>2025-11-21T11:25:48.000Z</time>
      </trkpt>
      <trkpt lat="44.48718" lon="6.19768">
        <ele>1264</ele>
        <time>2025-11-21T11:25:49.000Z</time>
      </trkpt>
      <trkpt lat="44.48719" lon="6.19769">
        <ele>1265</ele>
        <time>2025-11-21T11:25:50.000Z</time>
      </trkpt>
      <trkpt lat="44.4872" lon="6.19771">
        <ele>1265</ele>
        <time>2025-11-21T11:25:51.000Z</time>
      </trkpt>
      <trkpt lat="44.48721" lon="6.19772">
        <ele>1266</ele>
        <time>2025-11-21T11:25:52.000Z</time>
      </trkpt>
      <trkpt lat="44.48722" lon="6.19773">
        <ele>1266</ele>
        <time>2025-11-21T11:25:53.000Z</time>
      </trkpt>
      <trkpt lat="44.48722" lon="6.19774">
        <ele>1267</ele>
        <time>2025-11-21T11:25:54.000Z</time>
      </trkpt>
      <trkpt lat="44.48723" lon="6.19775">
        <ele>1267</ele>
        <time>2025-11-21T11:25:55.000Z</time>
      </trkpt>
      <trkpt lat="44.48724" lon="6.19776">
        <ele>1267</ele>
        <time>2025-11-21T11:25:56.000Z</time>
      </trkpt>
      <trkpt lat="44.48724" lon="6.19777">
        <ele>1267</ele>
        <time>2025-11-21T11:25:57.000Z</time>
      </trkpt>
      <trkpt lat="44.48725" lon="6.19777">
        <ele>1268</ele>
        <time>2025-11-21T11:25:58.000Z</time>
      </trkpt>
      <trkpt lat="44.48726" lon="6.19778">
        <ele>1267</ele>
        <time>2025-11-21T11:25:59.000Z</time>
      </trkpt>
      <trkpt lat="44.48726" lon="6.19779">
        <ele>1268</ele>
        <time>2025-11-21T11:26:00.000Z</time>
      </trkpt>
      <trkpt lat="44.48727" lon="6.19779">
        <ele>1268</ele>
        <time>2025-11-21T11:26:01.000Z</time>
      </trkpt>
      <trkpt lat="44.48727" lon="6.19781">
        <ele>1269</ele>
        <time>2025-11-21T11:26:02.000Z</time>
      </trkpt>
      <trkpt lat="44.48728" lon="6.19782">
        <ele>1268</ele>
        <time>2025-11-21T11:26:03.000Z</time>
      </trkpt>
      <trkpt lat="44.48729" lon="6.19782">
        <ele>1268</ele>
        <time>2025-11-21T11:26:04.000Z</time>
      </trkpt>
      <trkpt lat="44.4873" lon="6.19783">
        <ele>1269</ele>
        <time>2025-11-21T11:26:05.000Z</time>
      </trkpt>
      <trkpt lat="44.4873" lon="6.19785">
        <ele>1269</ele>
        <time>2025-11-21T11:26:06.000Z</time>
      </trkpt>
      <trkpt lat="44.48731" lon="6.19786">
        <ele>1268</ele>
        <time>2025-11-21T11:26:07.000Z</time>
      </trkpt>
      <trkpt lat="44.48732" lon="6.19787">
        <ele>1269</ele>
        <time>2025-11-21T11:26:08.000Z</time>
      </trkpt>
      <trkpt lat="44.48732" lon="6.19788">
        <ele>1269</ele>
        <time>2025-11-21T11:26:09.000Z</time>
      </trkpt>
      <trkpt lat="44.48732" lon="6.19788">
        <ele>1269</ele>
        <time>2025-11-21T11:26:10.000Z</time>
      </trkpt>
      <trkpt lat="44.48734" lon="6.19788">
        <ele>1269</ele>
        <time>2025-11-21T11:26:11.000Z</time>
      </trkpt>
      <trkpt lat="44.48735" lon="6.19789">
        <ele>1270</ele>
        <time>2025-11-21T11:26:12.000Z</time>
      </trkpt>
      <trkpt lat="44.48735" lon="6.1979">
        <ele>1271</ele>
        <time>2025-11-21T11:26:13.000Z</time>
      </trkpt>
      <trkpt lat="44.48736" lon="6.19791">
        <ele>1271</ele>
        <time>2025-11-21T11:26:14.000Z</time>
      </trkpt>
      <trkpt lat="44.48737" lon="6.19792">
        <ele>1271</ele>
        <time>2025-11-21T11:26:15.000Z</time>
      </trkpt>
      <trkpt lat="44.48738" lon="6.19792">
        <ele>1270</ele>
        <time>2025-11-21T11:26:16.000Z</time>
      </trkpt>
      <trkpt lat="44.48738" lon="6.19794">
        <ele>1270</ele>
        <time>2025-11-21T11:26:17.000Z</time>
      </trkpt>
      <trkpt lat="44.48738" lon="6.19795">
        <ele>1270</ele>
        <time>2025-11-21T11:26:18.000Z</time>
      </trkpt>
      <trkpt lat="44.48739" lon="6.19797">
        <ele>1271</ele>
        <time>2025-11-21T11:26:19.000Z</time>
      </trkpt>
      <trkpt lat="44.4874" lon="6.19798">
        <ele>1270</ele>
        <time>2025-11-21T11:26:20.000Z</time>
      </trkpt>
      <trkpt lat="44.4874" lon="6.19799">
        <ele>1270</ele>
        <time>2025-11-21T11:26:21.000Z</time>
      </trkpt>
      <trkpt lat="44.48741" lon="6.19801">
        <ele>1269</ele>
        <time>2025-11-21T11:26:22.000Z</time>
      </trkpt>
      <trkpt lat="44.48742" lon="6.19802">
        <ele>1268</ele>
        <time>2025-11-21T11:26:23.000Z</time>
      </trkpt>
      <trkpt lat="44.48743" lon="6.19803">
        <ele>1268</ele>
        <time>2025-11-21T11:26:24.000Z</time>
      </trkpt>
      <trkpt lat="44.48744" lon="6.19805">
        <ele>1268</ele>
        <time>2025-11-21T11:26:25.000Z</time>
      </trkpt>
      <trkpt lat="44.48744" lon="6.19806">
        <ele>1268</ele>
        <time>2025-11-21T11:26:26.000Z</time>
      </trkpt>
      <trkpt lat="44.48745" lon="6.19807">
        <ele>1267</ele>
        <time>2025-11-21T11:26:27.000Z</time>
      </trkpt>
      <trkpt lat="44.48746" lon="6.19807">
        <ele>1268</ele>
        <time>2025-11-21T11:26:28.000Z</time>
      </trkpt>
      <trkpt lat="44.48746" lon="6.19808">
        <ele>1267</ele>
        <time>2025-11-21T11:26:29.000Z</time>
      </trkpt>
      <trkpt lat="44.48747" lon="6.1981">
        <ele>1267</ele>
        <time>2025-11-21T11:26:30.000Z</time>
      </trkpt>
      <trkpt lat="44.48747" lon="6.19811">
        <ele>1267</ele>
        <time>2025-11-21T11:26:31.000Z</time>
      </trkpt>
      <trkpt lat="44.48748" lon="6.19812">
        <ele>1268</ele>
        <time>2025-11-21T11:26:32.000Z</time>
      </trkpt>
      <trkpt lat="44.48749" lon="6.19813">
        <ele>1268</ele>
        <time>2025-11-21T11:26:33.000Z</time>
      </trkpt>
      <trkpt lat="44.48749" lon="6.19814">
        <ele>1268</ele>
        <time>2025-11-21T11:26:34.000Z</time>
      </trkpt>
      <trkpt lat="44.4875" lon="6.19815">
        <ele>1269</ele>
        <time>2025-11-21T11:26:35.000Z</time>
      </trkpt>
      <trkpt lat="44.48751" lon="6.19816">
        <ele>1270</ele>
        <time>2025-11-21T11:26:36.000Z</time>
      </trkpt>
      <trkpt lat="44.4875" lon="6.19817">
        <ele>1270</ele>
        <time>2025-11-21T11:26:37.000Z</time>
      </trkpt>
      <trkpt lat="44.48751" lon="6.19818">
        <ele>1270</ele>
        <time>2025-11-21T11:26:38.000Z</time>
      </trkpt>
      <trkpt lat="44.48751" lon="6.19819">
        <ele>1270</ele>
        <time>2025-11-21T11:26:39.000Z</time>
      </trkpt>
      <trkpt lat="44.48751" lon="6.1982">
        <ele>1271</ele>
        <time>2025-11-21T11:26:40.000Z</time>
      </trkpt>
      <trkpt lat="44.48752" lon="6.1982">
        <ele>1270</ele>
        <time>2025-11-21T11:26:41.000Z</time>
      </trkpt>
      <trkpt lat="44.48753" lon="6.19821">
        <ele>1270</ele>
        <time>2025-11-21T11:26:42.000Z</time>
      </trkpt>
      <trkpt lat="44.48753" lon="6.19823">
        <ele>1271</ele>
        <time>2025-11-21T11:26:43.000Z</time>
      </trkpt>
      <trkpt lat="44.48754" lon="6.19824">
        <ele>1271</ele>
        <time>2025-11-21T11:26:44.000Z</time>
      </trkpt>
      <trkpt lat="44.48754" lon="6.19825">
        <ele>1271</ele>
        <time>2025-11-21T11:26:45.000Z</time>
      </trkpt>
      <trkpt lat="44.48755" lon="6.19827">
        <ele>1271</ele>
        <time>2025-11-21T11:26:46.000Z</time>
      </trkpt>
      <trkpt lat="44.48754" lon="6.19827">
        <ele>1270</ele>
        <time>2025-11-21T11:26:47.000Z</time>
      </trkpt>
      <trkpt lat="44.48754" lon="6.19829">
        <ele>1270</ele>
        <time>2025-11-21T11:26:48.000Z</time>
      </trkpt>
      <trkpt lat="44.48753" lon="6.19829">
        <ele>1270</ele>
        <time>2025-11-21T11:26:49.000Z</time>
      </trkpt>
      <trkpt lat="44.48752" lon="6.1983">
        <ele>1270</ele>
        <time>2025-11-21T11:26:50.000Z</time>
      </trkpt>
      <trkpt lat="44.48751" lon="6.1983">
        <ele>1270</ele>
        <time>2025-11-21T11:26:51.000Z</time>
      </trkpt>
      <trkpt lat="44.48751" lon="6.19831">
        <ele>1270</ele>
        <time>2025-11-21T11:26:52.000Z</time>
      </trkpt>
      <trkpt lat="44.48751" lon="6.19831">
        <ele>1271</ele>
        <time>2025-11-21T11:26:53.000Z</time>
      </trkpt>
      <trkpt lat="44.4875" lon="6.19832">
        <ele>1271</ele>
        <time>2025-11-21T11:26:54.000Z</time>
      </trkpt>
      <trkpt lat="44.4875" lon="6.19833">
        <ele>1272</ele>
        <time>2025-11-21T11:26:55.000Z</time>
      </trkpt>
      <trkpt lat="44.4875" lon="6.19834">
        <ele>1272</ele>
        <time>2025-11-21T11:26:56.000Z</time>
      </trkpt>
      <trkpt lat="44.4875" lon="6.19835">
        <ele>1272</ele>
        <time>2025-11-21T11:26:57.000Z</time>
      </trkpt>
      <trkpt lat="44.4875" lon="6.19835">
        <ele>1271</ele>
        <time>2025-11-21T11:26:58.000Z</time>
      </trkpt>
      <trkpt lat="44.4875" lon="6.19836">
        <ele>1271</ele>
        <time>2025-11-21T11:26:59.000Z</time>
      </trkpt>
      <trkpt lat="44.48749" lon="6.19833">
        <ele>1272</ele>
        <time>2025-11-21T11:27:18.000Z</time>
      </trkpt>
      <trkpt lat="44.48749" lon="6.19836">
        <ele>1270</ele>
        <time>2025-11-21T11:27:19.000Z</time>
      </trkpt>
      <trkpt lat="44.4875" lon="6.19833">
        <ele>1269</ele>
        <time>2025-11-21T11:27:20.000Z</time>
      </trkpt>
      <trkpt lat="44.4875" lon="6.19833">
        <ele>1271</ele>
        <time>2025-11-21T11:27:21.000Z</time>
      </trkpt>
      <trkpt lat="44.48749" lon="6.19834">
        <ele>1270</ele>
        <time>2025-11-21T11:27:22.000Z</time>
      </trkpt>
      <trkpt lat="44.48749" lon="6.19834">
        <ele>1270</ele>
        <time>2025-11-21T11:27:23.000Z</time>
      </trkpt>
      <trkpt lat="44.48749" lon="6.19834">
        <ele>1270</ele>
        <time>2025-11-21T11:27:24.000Z</time>
      </trkpt>
      <trkpt lat="44.48749" lon="6.19834">
        <ele>1270</ele>
        <time>2025-11-21T11:27:25.000Z</time>
      </trkpt>
      <trkpt lat="44.4875" lon="6.19835">
        <ele>1268</ele>
        <time>2025-11-21T11:27:26.000Z</time>
      </trkpt>
      <trkpt lat="44.4875" lon="6.19834">
        <ele>1268</ele>
        <time>2025-11-21T11:27:27.000Z</time>
      </trkpt>
      <trkpt lat="44.48749" lon="6.19835">
        <ele>1269</ele>
        <time>2025-11-21T11:27:28.000Z</time>
      </trkpt>
      <trkpt lat="44.4875" lon="6.19836">
        <ele>1270</ele>
        <time>2025-11-21T11:27:29.000Z</time>
      </trkpt>
      <trkpt lat="44.48751" lon="6.19832">
        <ele>1272</ele>
        <time>2025-11-21T11:27:43.000Z</time>
      </trkpt>
      <trkpt lat="44.48751" lon="6.19833">
        <ele>1272</ele>
        <time>2025-11-21T11:27:44.000Z</time>
      </trkpt>
      <trkpt lat="44.4875" lon="6.19832">
        <ele>1271</ele>
        <time>2025-11-21T11:27:45.000Z</time>
      </trkpt>
      <trkpt lat="44.48749" lon="6.19833">
        <ele>1271</ele>
        <time>2025-11-21T11:27:46.000Z</time>
      </trkpt>
      <trkpt lat="44.4875" lon="6.19833">
        <ele>1270</ele>
        <time>2025-11-21T11:27:47.000Z</time>
      </trkpt>
      <trkpt lat="44.4875" lon="6.19834">
        <ele>1269</ele>
        <time>2025-11-21T11:27:48.000Z</time>
      </trkpt>
      <trkpt lat="44.4875" lon="6.19835">
        <ele>1269</ele>
        <time>2025-11-21T11:27:49.000Z</time>
      </trkpt>
      <trkpt lat="44.48749" lon="6.19834">
        <ele>1271</ele>
        <time>2025-11-21T11:29:02.000Z</time>
      </trkpt>
      <trkpt lat="44.48749" lon="6.19836">
        <ele>1270</ele>
        <time>2025-11-21T11:29:03.000Z</time>
      </trkpt>
      <trkpt lat="44.48749" lon="6.19835">
        <ele>1271</ele>
        <time>2025-11-21T11:29:04.000Z</time>
      </trkpt>
      <trkpt lat="44.48749" lon="6.19834">
        <ele>1270</ele>
        <time>2025-11-21T11:29:05.000Z</time>
      </trkpt>
      <trkpt lat="44.48749" lon="6.19835">
        <ele>1270</ele>
        <time>2025-11-21T11:29:06.000Z</time>
      </trkpt>
      <trkpt lat="44.4875" lon="6.19835">
        <ele>1270</ele>
        <time>2025-11-21T11:29:07.000Z</time>
      </trkpt>
      <trkpt lat="44.48754" lon="6.19835">
        <ele>1267</ele>
        <time>2025-11-21T11:29:48.000Z</time>
      </trkpt>
      <trkpt lat="44.48755" lon="6.19835">
        <ele>1267</ele>
        <time>2025-11-21T11:29:49.000Z</time>
      </trkpt>
      <trkpt lat="44.48755" lon="6.19835">
        <ele>1267</ele>
        <time>2025-11-21T11:29:50.000Z</time>
      </trkpt>
      <trkpt lat="44.48756" lon="6.19835">
        <ele>1267</ele>
        <time>2025-11-21T11:29:51.000Z</time>
      </trkpt>
      <trkpt lat="44.48756" lon="6.19834">
        <ele>1268</ele>
        <time>2025-11-21T11:29:52.000Z</time>
      </trkpt>
      <trkpt lat="44.48756" lon="6.19834">
        <ele>1268</ele>
        <time>2025-11-21T11:29:53.000Z</time>
      </trkpt>
      <trkpt lat="44.48757" lon="6.19835">
        <ele>1268</ele>
        <time>2025-11-21T11:29:54.000Z</time>
      </trkpt>
      <trkpt lat="44.48758" lon="6.19837">
        <ele>1267</ele>
        <time>2025-11-21T11:29:55.000Z</time>
      </trkpt>
      <trkpt lat="44.48759" lon="6.19838">
        <ele>1267</ele>
        <time>2025-11-21T11:29:56.000Z</time>
      </trkpt>
      <trkpt lat="44.4876" lon="6.19838">
        <ele>1267</ele>
        <time>2025-11-21T11:29:57.000Z</time>
      </trkpt>
      <trkpt lat="44.4876" lon="6.19839">
        <ele>1267</ele>
        <time>2025-11-21T11:29:58.000Z</time>
      </trkpt>
      <trkpt lat="44.4876" lon="6.1984">
        <ele>1267</ele>
        <time>2025-11-21T11:29:59.000Z</time>
      </trkpt>
      <trkpt lat="44.48762" lon="6.19841">
        <ele>1267</ele>
        <time>2025-11-21T11:30:00.000Z</time>
      </trkpt>
      <trkpt lat="44.48762" lon="6.19842">
        <ele>1266</ele>
        <time>2025-11-21T11:30:01.000Z</time>
      </trkpt>
      <trkpt lat="44.48763" lon="6.19843">
        <ele>1266</ele>
        <time>2025-11-21T11:30:02.000Z</time>
      </trkpt>
      <trkpt lat="44.48764" lon="6.19844">
        <ele>1267</ele>
        <time>2025-11-21T11:30:03.000Z</time>
      </trkpt>
      <trkpt lat="44.48764" lon="6.19845">
        <ele>1266</ele>
        <time>2025-11-21T11:30:04.000Z</time>
      </trkpt>
      <trkpt lat="44.48765" lon="6.19847">
        <ele>1267</ele>
        <time>2025-11-21T11:30:05.000Z</time>
      </trkpt>
      <trkpt lat="44.48766" lon="6.19848">
        <ele>1267</ele>
        <time>2025-11-21T11:30:06.000Z</time>
      </trkpt>
      <trkpt lat="44.48767" lon="6.19849">
        <ele>1268</ele>
        <time>2025-11-21T11:30:07.000Z</time>
      </trkpt>
      <trkpt lat="44.48767" lon="6.19849">
        <ele>1268</ele>
        <time>2025-11-21T11:30:08.000Z</time>
      </trkpt>
      <trkpt lat="44.48768" lon="6.19851">
        <ele>1268</ele>
        <time>2025-11-21T11:30:09.000Z</time>
      </trkpt>
      <trkpt lat="44.48768" lon="6.19852">
        <ele>1269</ele>
        <time>2025-11-21T11:30:10.000Z</time>
      </trkpt>
      <trkpt lat="44.48769" lon="6.19852">
        <ele>1269</ele>
        <time>2025-11-21T11:30:11.000Z</time>
      </trkpt>
      <trkpt lat="44.4877" lon="6.19853">
        <ele>1269</ele>
        <time>2025-11-21T11:30:12.000Z</time>
      </trkpt>
      <trkpt lat="44.48771" lon="6.19854">
        <ele>1269</ele>
        <time>2025-11-21T11:30:13.000Z</time>
      </trkpt>
      <trkpt lat="44.48771" lon="6.19855">
        <ele>1269</ele>
        <time>2025-11-21T11:30:14.000Z</time>
      </trkpt>
      <trkpt lat="44.48772" lon="6.19857">
        <ele>1269</ele>
        <time>2025-11-21T11:30:15.000Z</time>
      </trkpt>
      <trkpt lat="44.48773" lon="6.19858">
        <ele>1269</ele>
        <time>2025-11-21T11:30:16.000Z</time>
      </trkpt>
      <trkpt lat="44.48774" lon="6.19859">
        <ele>1269</ele>
        <time>2025-11-21T11:30:17.000Z</time>
      </trkpt>
      <trkpt lat="44.48775" lon="6.19859">
        <ele>1268</ele>
        <time>2025-11-21T11:30:18.000Z</time>
      </trkpt>
      <trkpt lat="44.48776" lon="6.1986">
        <ele>1268</ele>
        <time>2025-11-21T11:30:19.000Z</time>
      </trkpt>
      <trkpt lat="44.48777" lon="6.19861">
        <ele>1268</ele>
        <time>2025-11-21T11:30:20.000Z</time>
      </trkpt>
      <trkpt lat="44.48778" lon="6.19861">
        <ele>1268</ele>
        <time>2025-11-21T11:30:21.000Z</time>
      </trkpt>
      <trkpt lat="44.48779" lon="6.19861">
        <ele>1269</ele>
        <time>2025-11-21T11:30:22.000Z</time>
      </trkpt>
      <trkpt lat="44.4878" lon="6.19862">
        <ele>1269</ele>
        <time>2025-11-21T11:30:23.000Z</time>
      </trkpt>
      <trkpt lat="44.4878" lon="6.19863">
        <ele>1269</ele>
        <time>2025-11-21T11:30:24.000Z</time>
      </trkpt>
      <trkpt lat="44.48781" lon="6.19863">
        <ele>1269</ele>
        <time>2025-11-21T11:30:25.000Z</time>
      </trkpt>
      <trkpt lat="44.48782" lon="6.19863">
        <ele>1269</ele>
        <time>2025-11-21T11:30:26.000Z</time>
      </trkpt>
      <trkpt lat="44.48783" lon="6.19864">
        <ele>1269</ele>
        <time>2025-11-21T11:30:27.000Z</time>
      </trkpt>
      <trkpt lat="44.48784" lon="6.19865">
        <ele>1269</ele>
        <time>2025-11-21T11:30:28.000Z</time>
      </trkpt>
      <trkpt lat="44.48785" lon="6.19866">
        <ele>1269</ele>
        <time>2025-11-21T11:30:29.000Z</time>
      </trkpt>
      <trkpt lat="44.48786" lon="6.19866">
        <ele>1269</ele>
        <time>2025-11-21T11:30:30.000Z</time>
      </trkpt>
      <trkpt lat="44.48787" lon="6.19867">
        <ele>1270</ele>
        <time>2025-11-21T11:30:31.000Z</time>
      </trkpt>
      <trkpt lat="44.48788" lon="6.19868">
        <ele>1270</ele>
        <time>2025-11-21T11:30:32.000Z</time>
      </trkpt>
      <trkpt lat="44.48789" lon="6.19868">
        <ele>1270</ele>
        <time>2025-11-21T11:30:33.000Z</time>
      </trkpt>
      <trkpt lat="44.48789" lon="6.19869">
        <ele>1270</ele>
        <time>2025-11-21T11:30:34.000Z</time>
      </trkpt>
      <trkpt lat="44.48791" lon="6.1987">
        <ele>1269</ele>
        <time>2025-11-21T11:30:35.000Z</time>
      </trkpt>
      <trkpt lat="44.48791" lon="6.1987">
        <ele>1269</ele>
        <time>2025-11-21T11:30:36.000Z</time>
      </trkpt>
      <trkpt lat="44.48792" lon="6.1987">
        <ele>1270</ele>
        <time>2025-11-21T11:30:37.000Z</time>
      </trkpt>
      <trkpt lat="44.48793" lon="6.1987">
        <ele>1270</ele>
        <time>2025-11-21T11:30:38.000Z</time>
      </trkpt>
      <trkpt lat="44.48793" lon="6.19871">
        <ele>1271</ele>
        <time>2025-11-21T11:30:39.000Z</time>
      </trkpt>
      <trkpt lat="44.48794" lon="6.1987">
        <ele>1270</ele>
        <time>2025-11-21T11:30:40.000Z</time>
      </trkpt>
      <trkpt lat="44.48795" lon="6.1987">
        <ele>1271</ele>
        <time>2025-11-21T11:30:41.000Z</time>
      </trkpt>
      <trkpt lat="44.48796" lon="6.1987">
        <ele>1272</ele>
        <time>2025-11-21T11:30:42.000Z</time>
      </trkpt>
      <trkpt lat="44.48797" lon="6.1987">
        <ele>1272</ele>
        <time>2025-11-21T11:30:43.000Z</time>
      </trkpt>
      <trkpt lat="44.48798" lon="6.19871">
        <ele>1273</ele>
        <time>2025-11-21T11:30:44.000Z</time>
      </trkpt>
      <trkpt lat="44.48799" lon="6.1987">
        <ele>1273</ele>
        <time>2025-11-21T11:30:45.000Z</time>
      </trkpt>
      <trkpt lat="44.48799" lon="6.1987">
        <ele>1273</ele>
        <time>2025-11-21T11:30:46.000Z</time>
      </trkpt>
      <trkpt lat="44.488" lon="6.1987">
        <ele>1273</ele>
        <time>2025-11-21T11:30:47.000Z</time>
      </trkpt>
      <trkpt lat="44.488" lon="6.1987">
        <ele>1272</ele>
        <time>2025-11-21T11:30:48.000Z</time>
      </trkpt>
      <trkpt lat="44.48801" lon="6.19871">
        <ele>1273</ele>
        <time>2025-11-21T11:30:49.000Z</time>
      </trkpt>
      <trkpt lat="44.48802" lon="6.19871">
        <ele>1272</ele>
        <time>2025-11-21T11:30:50.000Z</time>
      </trkpt>
      <trkpt lat="44.48803" lon="6.19871">
        <ele>1273</ele>
        <time>2025-11-21T11:30:51.000Z</time>
      </trkpt>
      <trkpt lat="44.48803" lon="6.19872">
        <ele>1273</ele>
        <time>2025-11-21T11:30:52.000Z</time>
      </trkpt>
      <trkpt lat="44.48805" lon="6.19871">
        <ele>1273</ele>
        <time>2025-11-21T11:30:53.000Z</time>
      </trkpt>
      <trkpt lat="44.48805" lon="6.19872">
        <ele>1273</ele>
        <time>2025-11-21T11:30:54.000Z</time>
      </trkpt>
      <trkpt lat="44.48806" lon="6.19873">
        <ele>1275</ele>
        <time>2025-11-21T11:30:55.000Z</time>
      </trkpt>
      <trkpt lat="44.48807" lon="6.19875">
        <ele>1274</ele>
        <time>2025-11-21T11:30:56.000Z</time>
      </trkpt>
      <trkpt lat="44.48807" lon="6.19875">
        <ele>1274</ele>
        <time>2025-11-21T11:30:57.000Z</time>
      </trkpt>
      <trkpt lat="44.48807" lon="6.19875">
        <ele>1275</ele>
        <time>2025-11-21T11:30:58.000Z</time>
      </trkpt>
      <trkpt lat="44.48807" lon="6.19876">
        <ele>1276</ele>
        <time>2025-11-21T11:30:59.000Z</time>
      </trkpt>
      <trkpt lat="44.48807" lon="6.19876">
        <ele>1276</ele>
        <time>2025-11-21T11:31:00.000Z</time>
      </trkpt>
      <trkpt lat="44.48808" lon="6.19876">
        <ele>1277</ele>
        <time>2025-11-21T11:31:01.000Z</time>
      </trkpt>
      <trkpt lat="44.48808" lon="6.19877">
        <ele>1277</ele>
        <time>2025-11-21T11:31:02.000Z</time>
      </trkpt>
      <trkpt lat="44.48809" lon="6.19877">
        <ele>1277</ele>
        <time>2025-11-21T11:31:03.000Z</time>
      </trkpt>
      <trkpt lat="44.48809" lon="6.19878">
        <ele>1277</ele>
        <time>2025-11-21T11:31:04.000Z</time>
      </trkpt>
      <trkpt lat="44.4881" lon="6.1988">
        <ele>1277</ele>
        <time>2025-11-21T11:31:05.000Z</time>
      </trkpt>
      <trkpt lat="44.4881" lon="6.19881">
        <ele>1277</ele>
        <time>2025-11-21T11:31:06.000Z</time>
      </trkpt>
      <trkpt lat="44.4881" lon="6.19882">
        <ele>1276</ele>
        <time>2025-11-21T11:31:07.000Z</time>
      </trkpt>
      <trkpt lat="44.4881" lon="6.19883">
        <ele>1275</ele>
        <time>2025-11-21T11:31:08.000Z</time>
      </trkpt>
      <trkpt lat="44.48811" lon="6.19885">
        <ele>1275</ele>
        <time>2025-11-21T11:31:09.000Z</time>
      </trkpt>
      <trkpt lat="44.48811" lon="6.19887">
        <ele>1275</ele>
        <time>2025-11-21T11:31:10.000Z</time>
      </trkpt>
      <trkpt lat="44.48812" lon="6.19888">
        <ele>1275</ele>
        <time>2025-11-21T11:31:11.000Z</time>
      </trkpt>
      <trkpt lat="44.48812" lon="6.19889">
        <ele>1274</ele>
        <time>2025-11-21T11:31:12.000Z</time>
      </trkpt>
      <trkpt lat="44.48812" lon="6.19889">
        <ele>1274</ele>
        <time>2025-11-21T11:31:13.000Z</time>
      </trkpt>
      <trkpt lat="44.48812" lon="6.19889">
        <ele>1274</ele>
        <time>2025-11-21T11:31:14.000Z</time>
      </trkpt>
      <trkpt lat="44.48812" lon="6.1989">
        <ele>1274</ele>
        <time>2025-11-21T11:31:15.000Z</time>
      </trkpt>
      <trkpt lat="44.48812" lon="6.1989">
        <ele>1274</ele>
        <time>2025-11-21T11:31:16.000Z</time>
      </trkpt>
      <trkpt lat="44.48812" lon="6.1989">
        <ele>1274</ele>
        <time>2025-11-21T11:31:17.000Z</time>
      </trkpt>
      <trkpt lat="44.48813" lon="6.19892">
        <ele>1274</ele>
        <time>2025-11-21T11:31:18.000Z</time>
      </trkpt>
      <trkpt lat="44.48813" lon="6.19893">
        <ele>1275</ele>
        <time>2025-11-21T11:31:19.000Z</time>
      </trkpt>
      <trkpt lat="44.48813" lon="6.19894">
        <ele>1274</ele>
        <time>2025-11-21T11:31:20.000Z</time>
      </trkpt>
      <trkpt lat="44.48812" lon="6.19895">
        <ele>1274</ele>
        <time>2025-11-21T11:31:21.000Z</time>
      </trkpt>
      <trkpt lat="44.48813" lon="6.19896">
        <ele>1273</ele>
        <time>2025-11-21T11:31:22.000Z</time>
      </trkpt>
      <trkpt lat="44.48813" lon="6.19897">
        <ele>1273</ele>
        <time>2025-11-21T11:31:23.000Z</time>
      </trkpt>
      <trkpt lat="44.48813" lon="6.19898">
        <ele>1272</ele>
        <time>2025-11-21T11:31:24.000Z</time>
      </trkpt>
      <trkpt lat="44.48813" lon="6.199">
        <ele>1272</ele>
        <time>2025-11-21T11:31:25.000Z</time>
      </trkpt>
      <trkpt lat="44.48812" lon="6.19901">
        <ele>1272</ele>
        <time>2025-11-21T11:31:26.000Z</time>
      </trkpt>
      <trkpt lat="44.48812" lon="6.19902">
        <ele>1272</ele>
        <time>2025-11-21T11:31:27.000Z</time>
      </trkpt>
      <trkpt lat="44.48812" lon="6.19902">
        <ele>1272</ele>
        <time>2025-11-21T11:31:28.000Z</time>
      </trkpt>
      <trkpt lat="44.48812" lon="6.19902">
        <ele>1272</ele>
        <time>2025-11-21T11:31:29.000Z</time>
      </trkpt>
      <trkpt lat="44.48812" lon="6.19902">
        <ele>1272</ele>
        <time>2025-11-21T11:31:30.000Z</time>
      </trkpt>
      <trkpt lat="44.48812" lon="6.19901">
        <ele>1272</ele>
        <time>2025-11-21T11:31:31.000Z</time>
      </trkpt>
      <trkpt lat="44.48812" lon="6.19901">
        <ele>1272</ele>
        <time>2025-11-21T11:31:32.000Z</time>
      </trkpt>
      <trkpt lat="44.48812" lon="6.19901">
        <ele>1272</ele>
        <time>2025-11-21T11:31:33.000Z</time>
      </trkpt>
      <trkpt lat="44.48812" lon="6.19902">
        <ele>1271</ele>
        <time>2025-11-21T11:31:34.000Z</time>
      </trkpt>
      <trkpt lat="44.48812" lon="6.19902">
        <ele>1270</ele>
        <time>2025-11-21T11:31:35.000Z</time>
      </trkpt>
      <trkpt lat="44.48812" lon="6.19902">
        <ele>1270</ele>
        <time>2025-11-21T11:31:36.000Z</time>
      </trkpt>
      <trkpt lat="44.48813" lon="6.19902">
        <ele>1270</ele>
        <time>2025-11-21T11:31:37.000Z</time>
      </trkpt>
      <trkpt lat="44.48814" lon="6.19907">
        <ele>1272</ele>
        <time>2025-11-21T11:33:27.000Z</time>
      </trkpt>
      <trkpt lat="44.48814" lon="6.19907">
        <ele>1272</ele>
        <time>2025-11-21T11:33:28.000Z</time>
      </trkpt>
      <trkpt lat="44.48812" lon="6.19906">
        <ele>1272</ele>
        <time>2025-11-21T11:33:29.000Z</time>
      </trkpt>
      <trkpt lat="44.48812" lon="6.19906">
        <ele>1272</ele>
        <time>2025-11-21T11:33:30.000Z</time>
      </trkpt>
      <trkpt lat="44.48815" lon="6.19904">
        <ele>1273</ele>
        <time>2025-11-21T11:34:18.000Z</time>
      </trkpt>
      <trkpt lat="44.48815" lon="6.19906">
        <ele>1272</ele>
        <time>2025-11-21T11:34:19.000Z</time>
      </trkpt>
      <trkpt lat="44.48814" lon="6.19905">
        <ele>1272</ele>
        <time>2025-11-21T11:34:20.000Z</time>
      </trkpt>
      <trkpt lat="44.48813" lon="6.19904">
        <ele>1272</ele>
        <time>2025-11-21T11:34:21.000Z</time>
      </trkpt>
      <trkpt lat="44.48813" lon="6.19905">
        <ele>1271</ele>
        <time>2025-11-21T11:34:22.000Z</time>
      </trkpt>
      <trkpt lat="44.48812" lon="6.19905">
        <ele>1274</ele>
        <time>2025-11-21T11:35:13.000Z</time>
      </trkpt>
      <trkpt lat="44.48811" lon="6.19904">
        <ele>1274</ele>
        <time>2025-11-21T11:35:14.000Z</time>
      </trkpt>
      <trkpt lat="44.48811" lon="6.19905">
        <ele>1274</ele>
        <time>2025-11-21T11:35:15.000Z</time>
      </trkpt>
      <trkpt lat="44.48813" lon="6.19905">
        <ele>1274</ele>
        <time>2025-11-21T11:35:43.000Z</time>
      </trkpt>
      <trkpt lat="44.48814" lon="6.19906">
        <ele>1275</ele>
        <time>2025-11-21T11:35:44.000Z</time>
      </trkpt>
      <trkpt lat="44.48814" lon="6.19905">
        <ele>1275</ele>
        <time>2025-11-21T11:35:45.000Z</time>
      </trkpt>
      <trkpt lat="44.48814" lon="6.19906">
        <ele>1275</ele>
        <time>2025-11-21T11:35:46.000Z</time>
      </trkpt>
      <trkpt lat="44.48814" lon="6.19906">
        <ele>1275</ele>
        <time>2025-11-21T11:35:47.000Z</time>
      </trkpt>
      <trkpt lat="44.48814" lon="6.19904">
        <ele>1275</ele>
        <time>2025-11-21T11:36:05.000Z</time>
      </trkpt>
      <trkpt lat="44.48813" lon="6.19904">
        <ele>1274</ele>
        <time>2025-11-21T11:36:06.000Z</time>
      </trkpt>
      <trkpt lat="44.48813" lon="6.19905">
        <ele>1274</ele>
        <time>2025-11-21T11:36:07.000Z</time>
      </trkpt>
      <trkpt lat="44.48814" lon="6.19904">
        <ele>1274</ele>
        <time>2025-11-21T11:36:57.000Z</time>
      </trkpt>
      <trkpt lat="44.48814" lon="6.19904">
        <ele>1273</ele>
        <time>2025-11-21T11:36:58.000Z</time>
      </trkpt>
      <trkpt lat="44.48814" lon="6.19904">
        <ele>1273</ele>
        <time>2025-11-21T11:36:59.000Z</time>
      </trkpt>
      <trkpt lat="44.48814" lon="6.19905">
        <ele>1276</ele>
        <time>2025-11-21T11:40:53.000Z</time>
      </trkpt>
      <trkpt lat="44.48816" lon="6.19906">
        <ele>1275</ele>
        <time>2025-11-21T11:40:54.000Z</time>
      </trkpt>
      <trkpt lat="44.48817" lon="6.19906">
        <ele>1275</ele>
        <time>2025-11-21T11:40:55.000Z</time>
      </trkpt>
      <trkpt lat="44.48816" lon="6.19905">
        <ele>1275</ele>
        <time>2025-11-21T11:40:56.000Z</time>
      </trkpt>
      <trkpt lat="44.48816" lon="6.19905">
        <ele>1275</ele>
        <time>2025-11-21T11:40:57.000Z</time>
      </trkpt>
      <trkpt lat="44.48815" lon="6.19905">
        <ele>1275</ele>
        <time>2025-11-21T11:40:58.000Z</time>
      </trkpt>
      <trkpt lat="44.48815" lon="6.19905">
        <ele>1275</ele>
        <time>2025-11-21T11:40:59.000Z</time>
      </trkpt>
      <trkpt lat="44.48816" lon="6.19905">
        <ele>1276</ele>
        <time>2025-11-21T11:41:00.000Z</time>
      </trkpt>
      <trkpt lat="44.48814" lon="6.19904">
        <ele>1277</ele>
        <time>2025-11-21T11:41:01.000Z</time>
      </trkpt>
      <trkpt lat="44.48814" lon="6.19903">
        <ele>1276</ele>
        <time>2025-11-21T11:41:02.000Z</time>
      </trkpt>
      <trkpt lat="44.48813" lon="6.19902">
        <ele>1276</ele>
        <time>2025-11-21T11:41:03.000Z</time>
      </trkpt>
      <trkpt lat="44.48813" lon="6.19904">
        <ele>1276</ele>
        <time>2025-11-21T11:41:04.000Z</time>
      </trkpt>
      <trkpt lat="44.48813" lon="6.19905">
        <ele>1276</ele>
        <time>2025-11-21T11:41:05.000Z</time>
      </trkpt>
      <trkpt lat="44.48813" lon="6.19904">
        <ele>1276</ele>
        <time>2025-11-21T11:41:06.000Z</time>
      </trkpt>
      <trkpt lat="44.48814" lon="6.19902">
        <ele>1275</ele>
        <time>2025-11-21T11:41:07.000Z</time>
      </trkpt>
      <trkpt lat="44.48814" lon="6.19902">
        <ele>1274</ele>
        <time>2025-11-21T11:41:08.000Z</time>
      </trkpt>
      <trkpt lat="44.48814" lon="6.19902">
        <ele>1274</ele>
        <time>2025-11-21T11:41:09.000Z</time>
      </trkpt>
      <trkpt lat="44.48814" lon="6.19904">
        <ele>1276</ele>
        <time>2025-11-21T11:41:10.000Z</time>
      </trkpt>
      <trkpt lat="44.48815" lon="6.19905">
        <ele>1278</ele>
        <time>2025-11-21T11:41:11.000Z</time>
      </trkpt>
      <trkpt lat="44.48817" lon="6.19905">
        <ele>1275</ele>
        <time>2025-11-21T11:41:25.000Z</time>
      </trkpt>
      <trkpt lat="44.48816" lon="6.19904">
        <ele>1275</ele>
        <time>2025-11-21T11:41:26.000Z</time>
      </trkpt>
      <trkpt lat="44.48815" lon="6.19904">
        <ele>1274</ele>
        <time>2025-11-21T11:41:27.000Z</time>
      </trkpt>
      <trkpt lat="44.48816" lon="6.19905">
        <ele>1272</ele>
        <time>2025-11-21T11:41:28.000Z</time>
      </trkpt>
      <trkpt lat="44.48819" lon="6.19905">
        <ele>1272</ele>
        <time>2025-11-21T11:41:29.000Z</time>
      </trkpt>
      <trkpt lat="44.4882" lon="6.19905">
        <ele>1270</ele>
        <time>2025-11-21T11:41:30.000Z</time>
      </trkpt>
      <trkpt lat="44.48819" lon="6.19905">
        <ele>1270</ele>
        <time>2025-11-21T11:41:31.000Z</time>
      </trkpt>
      <trkpt lat="44.48818" lon="6.19905">
        <ele>1270</ele>
        <time>2025-11-21T11:41:32.000Z</time>
      </trkpt>
      <trkpt lat="44.48818" lon="6.19906">
        <ele>1272</ele>
        <time>2025-11-21T11:41:33.000Z</time>
      </trkpt>
      <trkpt lat="44.48818" lon="6.19907">
        <ele>1272</ele>
        <time>2025-11-21T11:41:34.000Z</time>
      </trkpt>
      <trkpt lat="44.48818" lon="6.19907">
        <ele>1272</ele>
        <time>2025-11-21T11:41:35.000Z</time>
      </trkpt>
      <trkpt lat="44.48818" lon="6.19907">
        <ele>1272</ele>
        <time>2025-11-21T11:41:36.000Z</time>
      </trkpt>
      <trkpt lat="44.48818" lon="6.19907">
        <ele>1272</ele>
        <time>2025-11-21T11:41:37.000Z</time>
      </trkpt>
      <trkpt lat="44.48818" lon="6.19907">
        <ele>1272</ele>
        <time>2025-11-21T11:41:38.000Z</time>
      </trkpt>
      <trkpt lat="44.48818" lon="6.19907">
        <ele>1272</ele>
        <time>2025-11-21T11:41:39.000Z</time>
      </trkpt>
      <trkpt lat="44.48817" lon="6.19906">
        <ele>1272</ele>
        <time>2025-11-21T11:41:40.000Z</time>
      </trkpt>
      <trkpt lat="44.48817" lon="6.19905">
        <ele>1273</ele>
        <time>2025-11-21T11:41:41.000Z</time>
      </trkpt>
      <trkpt lat="44.48816" lon="6.19903">
        <ele>1274</ele>
        <time>2025-11-21T11:41:42.000Z</time>
      </trkpt>
      <trkpt lat="44.48816" lon="6.19903">
        <ele>1275</ele>
        <time>2025-11-21T11:41:43.000Z</time>
      </trkpt>
      <trkpt lat="44.48815" lon="6.19901">
        <ele>1275</ele>
        <time>2025-11-21T11:41:44.000Z</time>
      </trkpt>
      <trkpt lat="44.48814" lon="6.19901">
        <ele>1275</ele>
        <time>2025-11-21T11:41:45.000Z</time>
      </trkpt>
      <trkpt lat="44.48813" lon="6.199">
        <ele>1275</ele>
        <time>2025-11-21T11:41:46.000Z</time>
      </trkpt>
      <trkpt lat="44.48813" lon="6.19901">
        <ele>1274</ele>
        <time>2025-11-21T11:41:47.000Z</time>
      </trkpt>
      <trkpt lat="44.48814" lon="6.19902">
        <ele>1274</ele>
        <time>2025-11-21T11:41:48.000Z</time>
      </trkpt>
      <trkpt lat="44.48814" lon="6.19903">
        <ele>1274</ele>
        <time>2025-11-21T11:41:49.000Z</time>
      </trkpt>
      <trkpt lat="44.48813" lon="6.19903">
        <ele>1273</ele>
        <time>2025-11-21T11:41:50.000Z</time>
      </trkpt>
      <trkpt lat="44.48813" lon="6.19903">
        <ele>1273</ele>
        <time>2025-11-21T11:41:51.000Z</time>
      </trkpt>
      <trkpt lat="44.48813" lon="6.19902">
        <ele>1273</ele>
        <time>2025-11-21T11:41:52.000Z</time>
      </trkpt>
      <trkpt lat="44.48813" lon="6.19903">
        <ele>1274</ele>
        <time>2025-11-21T11:41:53.000Z</time>
      </trkpt>
      <trkpt lat="44.48816" lon="6.19906">
        <ele>1273</ele>
        <time>2025-11-21T11:42:07.000Z</time>
      </trkpt>
      <trkpt lat="44.48815" lon="6.19906">
        <ele>1273</ele>
        <time>2025-11-21T11:42:08.000Z</time>
      </trkpt>
      <trkpt lat="44.48815" lon="6.19905">
        <ele>1273</ele>
        <time>2025-11-21T11:42:09.000Z</time>
      </trkpt>
      <trkpt lat="44.48815" lon="6.19905">
        <ele>1273</ele>
        <time>2025-11-21T11:42:10.000Z</time>
      </trkpt>
      <trkpt lat="44.48814" lon="6.19907">
        <ele>1273</ele>
        <time>2025-11-21T11:43:05.000Z</time>
      </trkpt>
      <trkpt lat="44.48815" lon="6.19906">
        <ele>1272</ele>
        <time>2025-11-21T11:43:06.000Z</time>
      </trkpt>
      <trkpt lat="44.48815" lon="6.19907">
        <ele>1272</ele>
        <time>2025-11-21T11:43:07.000Z</time>
      </trkpt>
      <trkpt lat="44.48811" lon="6.19903">
        <ele>1275</ele>
        <time>2025-11-21T11:43:40.000Z</time>
      </trkpt>
      <trkpt lat="44.4881" lon="6.19903">
        <ele>1275</ele>
        <time>2025-11-21T11:43:41.000Z</time>
      </trkpt>
      <trkpt lat="44.48811" lon="6.19903">
        <ele>1275</ele>
        <time>2025-11-21T11:43:42.000Z</time>
      </trkpt>
      <trkpt lat="44.48811" lon="6.19903">
        <ele>1275</ele>
        <time>2025-11-21T11:43:43.000Z</time>
      </trkpt>
      <trkpt lat="44.48811" lon="6.19903">
        <ele>1275</ele>
        <time>2025-11-21T11:43:44.000Z</time>
      </trkpt>
      <trkpt lat="44.48811" lon="6.19903">
        <ele>1275</ele>
        <time>2025-11-21T11:43:45.000Z</time>
      </trkpt>
      <trkpt lat="44.48812" lon="6.19905">
        <ele>1275</ele>
        <time>2025-11-21T11:43:46.000Z</time>
      </trkpt>
      <trkpt lat="44.48812" lon="6.19905">
        <ele>1275</ele>
        <time>2025-11-21T11:43:47.000Z</time>
      </trkpt>
      <trkpt lat="44.48812" lon="6.19905">
        <ele>1275</ele>
        <time>2025-11-21T11:43:48.000Z</time>
      </trkpt>
      <trkpt lat="44.48813" lon="6.19905">
        <ele>1275</ele>
        <time>2025-11-21T11:43:49.000Z</time>
      </trkpt>
      <trkpt lat="44.48813" lon="6.19904">
        <ele>1276</ele>
        <time>2025-11-21T11:43:50.000Z</time>
      </trkpt>
      <trkpt lat="44.48814" lon="6.19904">
        <ele>1275</ele>
        <time>2025-11-21T11:43:51.000Z</time>
      </trkpt>
      <trkpt lat="44.48816" lon="6.19904">
        <ele>1275</ele>
        <time>2025-11-21T11:43:52.000Z</time>
      </trkpt>
      <trkpt lat="44.48813" lon="6.19905">
        <ele>1272</ele>
        <time>2025-11-21T11:44:36.000Z</time>
      </trkpt>
      <trkpt lat="44.48813" lon="6.19905">
        <ele>1272</ele>
        <time>2025-11-21T11:44:37.000Z</time>
      </trkpt>
      <trkpt lat="44.48814" lon="6.19905">
        <ele>1273</ele>
        <time>2025-11-21T11:44:38.000Z</time>
      </trkpt>
      <trkpt lat="44.48814" lon="6.19905">
        <ele>1273</ele>
        <time>2025-11-21T11:44:39.000Z</time>
      </trkpt>
      <trkpt lat="44.48814" lon="6.19904">
        <ele>1273</ele>
        <time>2025-11-21T11:44:40.000Z</time>
      </trkpt>
      <trkpt lat="44.48814" lon="6.19904">
        <ele>1273</ele>
        <time>2025-11-21T11:44:41.000Z</time>
      </trkpt>
      <trkpt lat="44.48814" lon="6.19905">
        <ele>1273</ele>
        <time>2025-11-21T11:44:42.000Z</time>
      </trkpt>
      <trkpt lat="44.48815" lon="6.19906">
        <ele>1271</ele>
        <time>2025-11-21T11:47:07.000Z</time>
      </trkpt>
      <trkpt lat="44.48814" lon="6.19906">
        <ele>1271</ele>
        <time>2025-11-21T11:47:08.000Z</time>
      </trkpt>
      <trkpt lat="44.48814" lon="6.19905">
        <ele>1271</ele>
        <time>2025-11-21T11:47:09.000Z</time>
      </trkpt>
      <trkpt lat="44.48814" lon="6.19905">
        <ele>1271</ele>
        <time>2025-11-21T11:47:10.000Z</time>
      </trkpt>
      <trkpt lat="44.48814" lon="6.19905">
        <ele>1272</ele>
        <time>2025-11-21T11:47:11.000Z</time>
      </trkpt>
      <trkpt lat="44.48812" lon="6.19905">
        <ele>1274</ele>
        <time>2025-11-21T11:49:38.000Z</time>
      </trkpt>
      <trkpt lat="44.48812" lon="6.19905">
        <ele>1274</ele>
        <time>2025-11-21T11:49:39.000Z</time>
      </trkpt>
      <trkpt lat="44.48812" lon="6.19905">
        <ele>1275</ele>
        <time>2025-11-21T11:49:40.000Z</time>
      </trkpt>
      <trkpt lat="44.48814" lon="6.19905">
        <ele>1275</ele>
        <time>2025-11-21T11:49:41.000Z</time>
      </trkpt>
      <trkpt lat="44.48814" lon="6.19905">
        <ele>1275</ele>
        <time>2025-11-21T11:49:42.000Z</time>
      </trkpt>
      <trkpt lat="44.48814" lon="6.19904">
        <ele>1275</ele>
        <time>2025-11-21T11:49:43.000Z</time>
      </trkpt>
      <trkpt lat="44.48814" lon="6.19904">
        <ele>1275</ele>
        <time>2025-11-21T11:49:44.000Z</time>
      </trkpt>
      <trkpt lat="44.48815" lon="6.19905">
        <ele>1275</ele>
        <time>2025-11-21T11:49:45.000Z</time>
      </trkpt>
      <trkpt lat="44.48815" lon="6.19904">
        <ele>1275</ele>
        <time>2025-11-21T11:49:46.000Z</time>
      </trkpt>
      <trkpt lat="44.48815" lon="6.19905">
        <ele>1275</ele>
        <time>2025-11-21T11:52:20.000Z</time>
      </trkpt>
      <trkpt lat="44.48814" lon="6.19906">
        <ele>1275</ele>
        <time>2025-11-21T11:52:21.000Z</time>
      </trkpt>
      <trkpt lat="44.48814" lon="6.19907">
        <ele>1275</ele>
        <time>2025-11-21T11:52:22.000Z</time>
      </trkpt>
      <trkpt lat="44.48814" lon="6.19907">
        <ele>1275</ele>
        <time>2025-11-21T11:53:51.000Z</time>
      </trkpt>
      <trkpt lat="44.48813" lon="6.19907">
        <ele>1275</ele>
        <time>2025-11-21T11:53:52.000Z</time>
      </trkpt>
      <trkpt lat="44.48813" lon="6.19907">
        <ele>1275</ele>
        <time>2025-11-21T11:53:53.000Z</time>
      </trkpt>
      <trkpt lat="44.48814" lon="6.19904">
        <ele>1275</ele>
        <time>2025-11-21T11:54:53.000Z</time>
      </trkpt>
      <trkpt lat="44.48815" lon="6.19904">
        <ele>1275</ele>
        <time>2025-11-21T11:54:54.000Z</time>
      </trkpt>
      <trkpt lat="44.48815" lon="6.19903">
        <ele>1274</ele>
        <time>2025-11-21T11:54:55.000Z</time>
      </trkpt>
      <trkpt lat="44.48814" lon="6.19902">
        <ele>1275</ele>
        <time>2025-11-21T11:54:56.000Z</time>
      </trkpt>
      <trkpt lat="44.48814" lon="6.19901">
        <ele>1273</ele>
        <time>2025-11-21T11:54:57.000Z</time>
      </trkpt>
      <trkpt lat="44.48814" lon="6.19901">
        <ele>1273</ele>
        <time>2025-11-21T11:54:58.000Z</time>
      </trkpt>
      <trkpt lat="44.48814" lon="6.19901">
        <ele>1273</ele>
        <time>2025-11-21T11:54:59.000Z</time>
      </trkpt>
      <trkpt lat="44.48814" lon="6.19901">
        <ele>1273</ele>
        <time>2025-11-21T11:55:00.000Z</time>
      </trkpt>
      <trkpt lat="44.48814" lon="6.19902">
        <ele>1274</ele>
        <time>2025-11-21T11:55:01.000Z</time>
      </trkpt>
      <trkpt lat="44.48815" lon="6.19903">
        <ele>1274</ele>
        <time>2025-11-21T11:55:02.000Z</time>
      </trkpt>
      <trkpt lat="44.48814" lon="6.19903">
        <ele>1275</ele>
        <time>2025-11-21T11:55:03.000Z</time>
      </trkpt>
      <trkpt lat="44.48814" lon="6.19904">
        <ele>1274</ele>
        <time>2025-11-21T11:55:04.000Z</time>
      </trkpt>
      <trkpt lat="44.48815" lon="6.19905">
        <ele>1273</ele>
        <time>2025-11-21T11:55:05.000Z</time>
      </trkpt>
      <trkpt lat="44.48811" lon="6.19901">
        <ele>1271</ele>
        <time>2025-11-21T11:57:38.000Z</time>
      </trkpt>
      <trkpt lat="44.48812" lon="6.19902">
        <ele>1271</ele>
        <time>2025-11-21T11:57:39.000Z</time>
      </trkpt>
      <trkpt lat="44.48813" lon="6.19902">
        <ele>1270</ele>
        <time>2025-11-21T11:57:40.000Z</time>
      </trkpt>
      <trkpt lat="44.48813" lon="6.19902">
        <ele>1270</ele>
        <time>2025-11-21T11:57:41.000Z</time>
      </trkpt>
      <trkpt lat="44.48813" lon="6.19903">
        <ele>1271</ele>
        <time>2025-11-21T11:57:42.000Z</time>
      </trkpt>
      <trkpt lat="44.48814" lon="6.19904">
        <ele>1271</ele>
        <time>2025-11-21T11:57:43.000Z</time>
      </trkpt>
      <trkpt lat="44.48814" lon="6.19904">
        <ele>1271</ele>
        <time>2025-11-21T11:57:44.000Z</time>
      </trkpt>
      <trkpt lat="44.48814" lon="6.19904">
        <ele>1277</ele>
        <time>2025-11-21T11:59:27.000Z</time>
      </trkpt>
      <trkpt lat="44.48815" lon="6.19903">
        <ele>1277</ele>
        <time>2025-11-21T11:59:28.000Z</time>
      </trkpt>
      <trkpt lat="44.48814" lon="6.19903">
        <ele>1278</ele>
        <time>2025-11-21T11:59:29.000Z</time>
      </trkpt>
      <trkpt lat="44.48816" lon="6.19905">
        <ele>1277</ele>
        <time>2025-11-21T12:01:11.000Z</time>
      </trkpt>
      <trkpt lat="44.48816" lon="6.19906">
        <ele>1277</ele>
        <time>2025-11-21T12:01:12.000Z</time>
      </trkpt>
      <trkpt lat="44.48816" lon="6.19906">
        <ele>1277</ele>
        <time>2025-11-21T12:01:13.000Z</time>
      </trkpt>
      <trkpt lat="44.48816" lon="6.19907">
        <ele>1276</ele>
        <time>2025-11-21T12:01:14.000Z</time>
      </trkpt>
      <trkpt lat="44.48817" lon="6.19909">
        <ele>1276</ele>
        <time>2025-11-21T12:01:15.000Z</time>
      </trkpt>
      <trkpt lat="44.48817" lon="6.1991">
        <ele>1277</ele>
        <time>2025-11-21T12:01:16.000Z</time>
      </trkpt>
      <trkpt lat="44.48818" lon="6.19909">
        <ele>1278</ele>
        <time>2025-11-21T12:01:17.000Z</time>
      </trkpt>
      <trkpt lat="44.48819" lon="6.19908">
        <ele>1277</ele>
        <time>2025-11-21T12:01:18.000Z</time>
      </trkpt>
      <trkpt lat="44.4882" lon="6.19907">
        <ele>1277</ele>
        <time>2025-11-21T12:01:19.000Z</time>
      </trkpt>
      <trkpt lat="44.4882" lon="6.19907">
        <ele>1277</ele>
        <time>2025-11-21T12:01:20.000Z</time>
      </trkpt>
      <trkpt lat="44.48821" lon="6.19906">
        <ele>1277</ele>
        <time>2025-11-21T12:01:21.000Z</time>
      </trkpt>
      <trkpt lat="44.48821" lon="6.19906">
        <ele>1277</ele>
        <time>2025-11-21T12:01:22.000Z</time>
      </trkpt>
      <trkpt lat="44.48821" lon="6.19907">
        <ele>1278</ele>
        <time>2025-11-21T12:01:23.000Z</time>
      </trkpt>
      <trkpt lat="44.48821" lon="6.19905">
        <ele>1278</ele>
        <time>2025-11-21T12:01:24.000Z</time>
      </trkpt>
      <trkpt lat="44.4882" lon="6.19904">
        <ele>1278</ele>
        <time>2025-11-21T12:01:25.000Z</time>
      </trkpt>
      <trkpt lat="44.4882" lon="6.19903">
        <ele>1277</ele>
        <time>2025-11-21T12:01:26.000Z</time>
      </trkpt>
      <trkpt lat="44.4882" lon="6.19901">
        <ele>1278</ele>
        <time>2025-11-21T12:01:27.000Z</time>
      </trkpt>
      <trkpt lat="44.48821" lon="6.199">
        <ele>1279</ele>
        <time>2025-11-21T12:01:28.000Z</time>
      </trkpt>
      <trkpt lat="44.48821" lon="6.19898">
        <ele>1279</ele>
        <time>2025-11-21T12:01:29.000Z</time>
      </trkpt>
      <trkpt lat="44.48821" lon="6.19897">
        <ele>1279</ele>
        <time>2025-11-21T12:01:30.000Z</time>
      </trkpt>
      <trkpt lat="44.48821" lon="6.19896">
        <ele>1279</ele>
        <time>2025-11-21T12:01:31.000Z</time>
      </trkpt>
      <trkpt lat="44.4882" lon="6.19894">
        <ele>1278</ele>
        <time>2025-11-21T12:01:32.000Z</time>
      </trkpt>
      <trkpt lat="44.4882" lon="6.19893">
        <ele>1279</ele>
        <time>2025-11-21T12:01:33.000Z</time>
      </trkpt>
      <trkpt lat="44.48821" lon="6.19891">
        <ele>1279</ele>
        <time>2025-11-21T12:01:34.000Z</time>
      </trkpt>
      <trkpt lat="44.4882" lon="6.19891">
        <ele>1278</ele>
        <time>2025-11-21T12:01:35.000Z</time>
      </trkpt>
      <trkpt lat="44.4882" lon="6.19892">
        <ele>1278</ele>
        <time>2025-11-21T12:01:36.000Z</time>
      </trkpt>
      <trkpt lat="44.4882" lon="6.1989">
        <ele>1278</ele>
        <time>2025-11-21T12:01:37.000Z</time>
      </trkpt>
      <trkpt lat="44.4882" lon="6.19888">
        <ele>1278</ele>
        <time>2025-11-21T12:01:38.000Z</time>
      </trkpt>
      <trkpt lat="44.48819" lon="6.19886">
        <ele>1278</ele>
        <time>2025-11-21T12:01:39.000Z</time>
      </trkpt>
      <trkpt lat="44.48818" lon="6.19885">
        <ele>1278</ele>
        <time>2025-11-21T12:01:40.000Z</time>
      </trkpt>
      <trkpt lat="44.48818" lon="6.19884">
        <ele>1278</ele>
        <time>2025-11-21T12:01:41.000Z</time>
      </trkpt>
      <trkpt lat="44.48817" lon="6.19883">
        <ele>1278</ele>
        <time>2025-11-21T12:01:42.000Z</time>
      </trkpt>
      <trkpt lat="44.48815" lon="6.19883">
        <ele>1278</ele>
        <time>2025-11-21T12:01:43.000Z</time>
      </trkpt>
      <trkpt lat="44.48815" lon="6.19882">
        <ele>1277</ele>
        <time>2025-11-21T12:01:44.000Z</time>
      </trkpt>
      <trkpt lat="44.48815" lon="6.19881">
        <ele>1277</ele>
        <time>2025-11-21T12:01:45.000Z</time>
      </trkpt>
      <trkpt lat="44.48813" lon="6.1988">
        <ele>1277</ele>
        <time>2025-11-21T12:01:46.000Z</time>
      </trkpt>
      <trkpt lat="44.48812" lon="6.19879">
        <ele>1277</ele>
        <time>2025-11-21T12:01:47.000Z</time>
      </trkpt>
      <trkpt lat="44.48811" lon="6.19878">
        <ele>1277</ele>
        <time>2025-11-21T12:01:48.000Z</time>
      </trkpt>
      <trkpt lat="44.48811" lon="6.19877">
        <ele>1278</ele>
        <time>2025-11-21T12:01:49.000Z</time>
      </trkpt>
      <trkpt lat="44.4881" lon="6.19875">
        <ele>1278</ele>
        <time>2025-11-21T12:01:50.000Z</time>
      </trkpt>
      <trkpt lat="44.48809" lon="6.19875">
        <ele>1278</ele>
        <time>2025-11-21T12:01:51.000Z</time>
      </trkpt>
      <trkpt lat="44.4881" lon="6.19876">
        <ele>1278</ele>
        <time>2025-11-21T12:01:52.000Z</time>
      </trkpt>
      <trkpt lat="44.4881" lon="6.19877">
        <ele>1278</ele>
        <time>2025-11-21T12:01:53.000Z</time>
      </trkpt>
      <trkpt lat="44.48811" lon="6.19878">
        <ele>1278</ele>
        <time>2025-11-21T12:01:54.000Z</time>
      </trkpt>
      <trkpt lat="44.48812" lon="6.19879">
        <ele>1277</ele>
        <time>2025-11-21T12:01:55.000Z</time>
      </trkpt>
      <trkpt lat="44.48813" lon="6.19879">
        <ele>1277</ele>
        <time>2025-11-21T12:01:56.000Z</time>
      </trkpt>
      <trkpt lat="44.48814" lon="6.1988">
        <ele>1277</ele>
        <time>2025-11-21T12:01:57.000Z</time>
      </trkpt>
      <trkpt lat="44.48815" lon="6.19881">
        <ele>1277</ele>
        <time>2025-11-21T12:01:58.000Z</time>
      </trkpt>
      <trkpt lat="44.48815" lon="6.19883">
        <ele>1277</ele>
        <time>2025-11-21T12:01:59.000Z</time>
      </trkpt>
      <trkpt lat="44.48816" lon="6.19886">
        <ele>1278</ele>
        <time>2025-11-21T12:02:00.000Z</time>
      </trkpt>
      <trkpt lat="44.48816" lon="6.19886">
        <ele>1278</ele>
        <time>2025-11-21T12:02:01.000Z</time>
      </trkpt>
      <trkpt lat="44.48816" lon="6.19888">
        <ele>1279</ele>
        <time>2025-11-21T12:02:02.000Z</time>
      </trkpt>
      <trkpt lat="44.48817" lon="6.19889">
        <ele>1279</ele>
        <time>2025-11-21T12:02:03.000Z</time>
      </trkpt>
      <trkpt lat="44.48819" lon="6.19889">
        <ele>1279</ele>
        <time>2025-11-21T12:02:04.000Z</time>
      </trkpt>
      <trkpt lat="44.4882" lon="6.1989">
        <ele>1280</ele>
        <time>2025-11-21T12:02:05.000Z</time>
      </trkpt>
      <trkpt lat="44.48821" lon="6.1989">
        <ele>1280</ele>
        <time>2025-11-21T12:02:06.000Z</time>
      </trkpt>
      <trkpt lat="44.48822" lon="6.19889">
        <ele>1280</ele>
        <time>2025-11-21T12:02:07.000Z</time>
      </trkpt>
      <trkpt lat="44.48823" lon="6.1989">
        <ele>1281</ele>
        <time>2025-11-21T12:02:08.000Z</time>
      </trkpt>
      <trkpt lat="44.48823" lon="6.1989">
        <ele>1281</ele>
        <time>2025-11-21T12:02:09.000Z</time>
      </trkpt>
      <trkpt lat="44.48824" lon="6.19891">
        <ele>1281</ele>
        <time>2025-11-21T12:02:10.000Z</time>
      </trkpt>
      <trkpt lat="44.48824" lon="6.19893">
        <ele>1282</ele>
        <time>2025-11-21T12:02:11.000Z</time>
      </trkpt>
      <trkpt lat="44.48824" lon="6.19894">
        <ele>1282</ele>
        <time>2025-11-21T12:02:12.000Z</time>
      </trkpt>
      <trkpt lat="44.48825" lon="6.19896">
        <ele>1282</ele>
        <time>2025-11-21T12:02:13.000Z</time>
      </trkpt>
      <trkpt lat="44.48825" lon="6.19898">
        <ele>1282</ele>
        <time>2025-11-21T12:02:14.000Z</time>
      </trkpt>
      <trkpt lat="44.48826" lon="6.19899">
        <ele>1282</ele>
        <time>2025-11-21T12:02:15.000Z</time>
      </trkpt>
      <trkpt lat="44.48826" lon="6.199">
        <ele>1282</ele>
        <time>2025-11-21T12:02:16.000Z</time>
      </trkpt>
      <trkpt lat="44.48826" lon="6.19902">
        <ele>1282</ele>
        <time>2025-11-21T12:02:17.000Z</time>
      </trkpt>
      <trkpt lat="44.48827" lon="6.19904">
        <ele>1282</ele>
        <time>2025-11-21T12:02:18.000Z</time>
      </trkpt>
      <trkpt lat="44.48827" lon="6.19904">
        <ele>1282</ele>
        <time>2025-11-21T12:02:19.000Z</time>
      </trkpt>
      <trkpt lat="44.48828" lon="6.19904">
        <ele>1283</ele>
        <time>2025-11-21T12:02:20.000Z</time>
      </trkpt>
      <trkpt lat="44.48829" lon="6.19906">
        <ele>1283</ele>
        <time>2025-11-21T12:02:21.000Z</time>
      </trkpt>
      <trkpt lat="44.4883" lon="6.19907">
        <ele>1283</ele>
        <time>2025-11-21T12:02:22.000Z</time>
      </trkpt>
      <trkpt lat="44.48831" lon="6.19907">
        <ele>1282</ele>
        <time>2025-11-21T12:02:23.000Z</time>
      </trkpt>
      <trkpt lat="44.48832" lon="6.19909">
        <ele>1281</ele>
        <time>2025-11-21T12:02:24.000Z</time>
      </trkpt>
      <trkpt lat="44.48834" lon="6.1991">
        <ele>1282</ele>
        <time>2025-11-21T12:02:25.000Z</time>
      </trkpt>
      <trkpt lat="44.48835" lon="6.19912">
        <ele>1282</ele>
        <time>2025-11-21T12:02:26.000Z</time>
      </trkpt>
      <trkpt lat="44.48836" lon="6.19914">
        <ele>1282</ele>
        <time>2025-11-21T12:02:27.000Z</time>
      </trkpt>
      <trkpt lat="44.48837" lon="6.19915">
        <ele>1284</ele>
        <time>2025-11-21T12:02:28.000Z</time>
      </trkpt>
      <trkpt lat="44.48838" lon="6.19916">
        <ele>1284</ele>
        <time>2025-11-21T12:02:29.000Z</time>
      </trkpt>
      <trkpt lat="44.48838" lon="6.19917">
        <ele>1284</ele>
        <time>2025-11-21T12:02:30.000Z</time>
      </trkpt>
      <trkpt lat="44.48839" lon="6.19917">
        <ele>1284</ele>
        <time>2025-11-21T12:02:31.000Z</time>
      </trkpt>
      <trkpt lat="44.4884" lon="6.19917">
        <ele>1283</ele>
        <time>2025-11-21T12:02:32.000Z</time>
      </trkpt>
      <trkpt lat="44.4884" lon="6.19917">
        <ele>1283</ele>
        <time>2025-11-21T12:02:33.000Z</time>
      </trkpt>
      <trkpt lat="44.48841" lon="6.19919">
        <ele>1283</ele>
        <time>2025-11-21T12:02:34.000Z</time>
      </trkpt>
      <trkpt lat="44.48841" lon="6.19921">
        <ele>1283</ele>
        <time>2025-11-21T12:02:35.000Z</time>
      </trkpt>
      <trkpt lat="44.48842" lon="6.19922">
        <ele>1282</ele>
        <time>2025-11-21T12:02:36.000Z</time>
      </trkpt>
      <trkpt lat="44.48842" lon="6.19924">
        <ele>1283</ele>
        <time>2025-11-21T12:02:37.000Z</time>
      </trkpt>
      <trkpt lat="44.48843" lon="6.19924">
        <ele>1283</ele>
        <time>2025-11-21T12:02:38.000Z</time>
      </trkpt>
      <trkpt lat="44.48844" lon="6.19924">
        <ele>1282</ele>
        <time>2025-11-21T12:02:39.000Z</time>
      </trkpt>
      <trkpt lat="44.48845" lon="6.19925">
        <ele>1281</ele>
        <time>2025-11-21T12:02:40.000Z</time>
      </trkpt>
      <trkpt lat="44.48846" lon="6.19926">
        <ele>1281</ele>
        <time>2025-11-21T12:02:41.000Z</time>
      </trkpt>
      <trkpt lat="44.48847" lon="6.19926">
        <ele>1283</ele>
        <time>2025-11-21T12:02:42.000Z</time>
      </trkpt>
      <trkpt lat="44.48848" lon="6.19927">
        <ele>1283</ele>
        <time>2025-11-21T12:02:43.000Z</time>
      </trkpt>
      <trkpt lat="44.48849" lon="6.19929">
        <ele>1283</ele>
        <time>2025-11-21T12:02:44.000Z</time>
      </trkpt>
      <trkpt lat="44.4885" lon="6.19929">
        <ele>1284</ele>
        <time>2025-11-21T12:02:45.000Z</time>
      </trkpt>
      <trkpt lat="44.48851" lon="6.1993">
        <ele>1284</ele>
        <time>2025-11-21T12:02:46.000Z</time>
      </trkpt>
      <trkpt lat="44.48852" lon="6.19932">
        <ele>1285</ele>
        <time>2025-11-21T12:02:47.000Z</time>
      </trkpt>
      <trkpt lat="44.48853" lon="6.19933">
        <ele>1285</ele>
        <time>2025-11-21T12:02:48.000Z</time>
      </trkpt>
      <trkpt lat="44.48853" lon="6.19934">
        <ele>1286</ele>
        <time>2025-11-21T12:02:49.000Z</time>
      </trkpt>
      <trkpt lat="44.48854" lon="6.19935">
        <ele>1286</ele>
        <time>2025-11-21T12:02:50.000Z</time>
      </trkpt>
      <trkpt lat="44.48854" lon="6.19935">
        <ele>1286</ele>
        <time>2025-11-21T12:02:51.000Z</time>
      </trkpt>
      <trkpt lat="44.48855" lon="6.19936">
        <ele>1286</ele>
        <time>2025-11-21T12:02:52.000Z</time>
      </trkpt>
      <trkpt lat="44.48856" lon="6.19938">
        <ele>1286</ele>
        <time>2025-11-21T12:02:53.000Z</time>
      </trkpt>
      <trkpt lat="44.48857" lon="6.19939">
        <ele>1287</ele>
        <time>2025-11-21T12:02:54.000Z</time>
      </trkpt>
      <trkpt lat="44.48857" lon="6.1994">
        <ele>1286</ele>
        <time>2025-11-21T12:02:55.000Z</time>
      </trkpt>
      <trkpt lat="44.48859" lon="6.1994">
        <ele>1286</ele>
        <time>2025-11-21T12:02:56.000Z</time>
      </trkpt>
      <trkpt lat="44.4886" lon="6.19941">
        <ele>1286</ele>
        <time>2025-11-21T12:02:57.000Z</time>
      </trkpt>
      <trkpt lat="44.48861" lon="6.19942">
        <ele>1286</ele>
        <time>2025-11-21T12:02:58.000Z</time>
      </trkpt>
      <trkpt lat="44.48863" lon="6.19943">
        <ele>1286</ele>
        <time>2025-11-21T12:02:59.000Z</time>
      </trkpt>
      <trkpt lat="44.48865" lon="6.19944">
        <ele>1286</ele>
        <time>2025-11-21T12:03:00.000Z</time>
      </trkpt>
      <trkpt lat="44.48866" lon="6.19945">
        <ele>1287</ele>
        <time>2025-11-21T12:03:01.000Z</time>
      </trkpt>
      <trkpt lat="44.48867" lon="6.19946">
        <ele>1287</ele>
        <time>2025-11-21T12:03:02.000Z</time>
      </trkpt>
      <trkpt lat="44.48867" lon="6.19947">
        <ele>1287</ele>
        <time>2025-11-21T12:03:03.000Z</time>
      </trkpt>
      <trkpt lat="44.48868" lon="6.19948">
        <ele>1287</ele>
        <time>2025-11-21T12:03:04.000Z</time>
      </trkpt>
      <trkpt lat="44.48869" lon="6.19949">
        <ele>1287</ele>
        <time>2025-11-21T12:03:05.000Z</time>
      </trkpt>
      <trkpt lat="44.4887" lon="6.1995">
        <ele>1288</ele>
        <time>2025-11-21T12:03:06.000Z</time>
      </trkpt>
      <trkpt lat="44.48871" lon="6.1995">
        <ele>1288</ele>
        <time>2025-11-21T12:03:07.000Z</time>
      </trkpt>
      <trkpt lat="44.48872" lon="6.19952">
        <ele>1288</ele>
        <time>2025-11-21T12:03:08.000Z</time>
      </trkpt>
      <trkpt lat="44.48873" lon="6.19953">
        <ele>1288</ele>
        <time>2025-11-21T12:03:09.000Z</time>
      </trkpt>
      <trkpt lat="44.48873" lon="6.19953">
        <ele>1288</ele>
        <time>2025-11-21T12:03:10.000Z</time>
      </trkpt>
      <trkpt lat="44.48874" lon="6.19951">
        <ele>1288</ele>
        <time>2025-11-21T12:03:11.000Z</time>
      </trkpt>
      <trkpt lat="44.48875" lon="6.1995">
        <ele>1289</ele>
        <time>2025-11-21T12:03:12.000Z</time>
      </trkpt>
      <trkpt lat="44.48876" lon="6.19951">
        <ele>1289</ele>
        <time>2025-11-21T12:03:27.000Z</time>
      </trkpt>
      <trkpt lat="44.48876" lon="6.1995">
        <ele>1290</ele>
        <time>2025-11-21T12:03:28.000Z</time>
      </trkpt>
      <trkpt lat="44.48877" lon="6.19949">
        <ele>1288</ele>
        <time>2025-11-21T12:03:29.000Z</time>
      </trkpt>
      <trkpt lat="44.48878" lon="6.19947">
        <ele>1287</ele>
        <time>2025-11-21T12:03:30.000Z</time>
      </trkpt>
      <trkpt lat="44.4888" lon="6.19947">
        <ele>1287</ele>
        <time>2025-11-21T12:03:31.000Z</time>
      </trkpt>
      <trkpt lat="44.4888" lon="6.19946">
        <ele>1288</ele>
        <time>2025-11-21T12:03:32.000Z</time>
      </trkpt>
      <trkpt lat="44.48882" lon="6.19946">
        <ele>1287</ele>
        <time>2025-11-21T12:03:33.000Z</time>
      </trkpt>
      <trkpt lat="44.48882" lon="6.19945">
        <ele>1286</ele>
        <time>2025-11-21T12:03:34.000Z</time>
      </trkpt>
      <trkpt lat="44.48884" lon="6.19944">
        <ele>1286</ele>
        <time>2025-11-21T12:03:35.000Z</time>
      </trkpt>
      <trkpt lat="44.48885" lon="6.19943">
        <ele>1287</ele>
        <time>2025-11-21T12:03:36.000Z</time>
      </trkpt>
      <trkpt lat="44.48886" lon="6.19942">
        <ele>1287</ele>
        <time>2025-11-21T12:03:37.000Z</time>
      </trkpt>
      <trkpt lat="44.48886" lon="6.1994">
        <ele>1287</ele>
        <time>2025-11-21T12:03:38.000Z</time>
      </trkpt>
      <trkpt lat="44.48886" lon="6.19938">
        <ele>1289</ele>
        <time>2025-11-21T12:03:39.000Z</time>
      </trkpt>
      <trkpt lat="44.48886" lon="6.19937">
        <ele>1289</ele>
        <time>2025-11-21T12:03:40.000Z</time>
      </trkpt>
      <trkpt lat="44.48885" lon="6.19936">
        <ele>1288</ele>
        <time>2025-11-21T12:03:41.000Z</time>
      </trkpt>
      <trkpt lat="44.48885" lon="6.19935">
        <ele>1288</ele>
        <time>2025-11-21T12:03:42.000Z</time>
      </trkpt>
      <trkpt lat="44.48886" lon="6.19933">
        <ele>1289</ele>
        <time>2025-11-21T12:03:43.000Z</time>
      </trkpt>
      <trkpt lat="44.48885" lon="6.19932">
        <ele>1289</ele>
        <time>2025-11-21T12:03:44.000Z</time>
      </trkpt>
      <trkpt lat="44.48885" lon="6.19931">
        <ele>1289</ele>
        <time>2025-11-21T12:03:45.000Z</time>
      </trkpt>
      <trkpt lat="44.48886" lon="6.19928">
        <ele>1289</ele>
        <time>2025-11-21T12:03:46.000Z</time>
      </trkpt>
      <trkpt lat="44.48885" lon="6.19927">
        <ele>1290</ele>
        <time>2025-11-21T12:03:47.000Z</time>
      </trkpt>
      <trkpt lat="44.48886" lon="6.19926">
        <ele>1289</ele>
        <time>2025-11-21T12:03:48.000Z</time>
      </trkpt>
      <trkpt lat="44.48886" lon="6.19925">
        <ele>1289</ele>
        <time>2025-11-21T12:03:49.000Z</time>
      </trkpt>
      <trkpt lat="44.48886" lon="6.19923">
        <ele>1289</ele>
        <time>2025-11-21T12:03:50.000Z</time>
      </trkpt>
      <trkpt lat="44.48884" lon="6.19922">
        <ele>1289</ele>
        <time>2025-11-21T12:03:51.000Z</time>
      </trkpt>
      <trkpt lat="44.48884" lon="6.1992">
        <ele>1290</ele>
        <time>2025-11-21T12:03:52.000Z</time>
      </trkpt>
      <trkpt lat="44.48884" lon="6.19918">
        <ele>1290</ele>
        <time>2025-11-21T12:03:53.000Z</time>
      </trkpt>
      <trkpt lat="44.48885" lon="6.19916">
        <ele>1290</ele>
        <time>2025-11-21T12:03:54.000Z</time>
      </trkpt>
      <trkpt lat="44.48885" lon="6.19915">
        <ele>1289</ele>
        <time>2025-11-21T12:03:55.000Z</time>
      </trkpt>
      <trkpt lat="44.48884" lon="6.19913">
        <ele>1290</ele>
        <time>2025-11-21T12:03:56.000Z</time>
      </trkpt>
      <trkpt lat="44.48884" lon="6.19912">
        <ele>1290</ele>
        <time>2025-11-21T12:03:57.000Z</time>
      </trkpt>
      <trkpt lat="44.48883" lon="6.1991">
        <ele>1290</ele>
        <time>2025-11-21T12:03:58.000Z</time>
      </trkpt>
      <trkpt lat="44.48883" lon="6.19909">
        <ele>1290</ele>
        <time>2025-11-21T12:03:59.000Z</time>
      </trkpt>
      <trkpt lat="44.48883" lon="6.19907">
        <ele>1291</ele>
        <time>2025-11-21T12:04:00.000Z</time>
      </trkpt>
      <trkpt lat="44.48882" lon="6.19906">
        <ele>1291</ele>
        <time>2025-11-21T12:04:01.000Z</time>
      </trkpt>
      <trkpt lat="44.48882" lon="6.19905">
        <ele>1291</ele>
        <time>2025-11-21T12:04:02.000Z</time>
      </trkpt>
      <trkpt lat="44.48881" lon="6.19904">
        <ele>1292</ele>
        <time>2025-11-21T12:04:03.000Z</time>
      </trkpt>
      <trkpt lat="44.48881" lon="6.19903">
        <ele>1293</ele>
        <time>2025-11-21T12:04:04.000Z</time>
      </trkpt>
      <trkpt lat="44.4888" lon="6.19903">
        <ele>1293</ele>
        <time>2025-11-21T12:04:05.000Z</time>
      </trkpt>
      <trkpt lat="44.48881" lon="6.19902">
        <ele>1293</ele>
        <time>2025-11-21T12:04:06.000Z</time>
      </trkpt>
      <trkpt lat="44.4888" lon="6.19901">
        <ele>1292</ele>
        <time>2025-11-21T12:04:07.000Z</time>
      </trkpt>
      <trkpt lat="44.48881" lon="6.19899">
        <ele>1293</ele>
        <time>2025-11-21T12:04:08.000Z</time>
      </trkpt>
      <trkpt lat="44.4888" lon="6.19897">
        <ele>1293</ele>
        <time>2025-11-21T12:04:09.000Z</time>
      </trkpt>
      <trkpt lat="44.4888" lon="6.19896">
        <ele>1293</ele>
        <time>2025-11-21T12:04:10.000Z</time>
      </trkpt>
      <trkpt lat="44.48879" lon="6.19895">
        <ele>1293</ele>
        <time>2025-11-21T12:04:11.000Z</time>
      </trkpt>
      <trkpt lat="44.48879" lon="6.19893">
        <ele>1293</ele>
        <time>2025-11-21T12:04:12.000Z</time>
      </trkpt>
      <trkpt lat="44.48879" lon="6.19892">
        <ele>1295</ele>
        <time>2025-11-21T12:04:13.000Z</time>
      </trkpt>
      <trkpt lat="44.4888" lon="6.1989">
        <ele>1294</ele>
        <time>2025-11-21T12:04:14.000Z</time>
      </trkpt>
      <trkpt lat="44.4888" lon="6.19888">
        <ele>1295</ele>
        <time>2025-11-21T12:04:15.000Z</time>
      </trkpt>
      <trkpt lat="44.4888" lon="6.19887">
        <ele>1295</ele>
        <time>2025-11-21T12:04:16.000Z</time>
      </trkpt>
      <trkpt lat="44.4888" lon="6.19885">
        <ele>1294</ele>
        <time>2025-11-21T12:04:17.000Z</time>
      </trkpt>
      <trkpt lat="44.4888" lon="6.19883">
        <ele>1294</ele>
        <time>2025-11-21T12:04:18.000Z</time>
      </trkpt>
      <trkpt lat="44.4888" lon="6.19881">
        <ele>1295</ele>
        <time>2025-11-21T12:04:19.000Z</time>
      </trkpt>
      <trkpt lat="44.4888" lon="6.19879">
        <ele>1295</ele>
        <time>2025-11-21T12:04:20.000Z</time>
      </trkpt>
      <trkpt lat="44.48879" lon="6.19878">
        <ele>1296</ele>
        <time>2025-11-21T12:04:21.000Z</time>
      </trkpt>
      <trkpt lat="44.48877" lon="6.19877">
        <ele>1297</ele>
        <time>2025-11-21T12:04:22.000Z</time>
      </trkpt>
      <trkpt lat="44.48876" lon="6.19875">
        <ele>1296</ele>
        <time>2025-11-21T12:04:23.000Z</time>
      </trkpt>
      <trkpt lat="44.48876" lon="6.19874">
        <ele>1296</ele>
        <time>2025-11-21T12:04:24.000Z</time>
      </trkpt>
      <trkpt lat="44.48876" lon="6.19873">
        <ele>1295</ele>
        <time>2025-11-21T12:04:25.000Z</time>
      </trkpt>
      <trkpt lat="44.48874" lon="6.19871">
        <ele>1296</ele>
        <time>2025-11-21T12:04:26.000Z</time>
      </trkpt>
      <trkpt lat="44.48874" lon="6.1987">
        <ele>1296</ele>
        <time>2025-11-21T12:04:27.000Z</time>
      </trkpt>
      <trkpt lat="44.48874" lon="6.19869">
        <ele>1295</ele>
        <time>2025-11-21T12:04:28.000Z</time>
      </trkpt>
      <trkpt lat="44.48874" lon="6.19867">
        <ele>1295</ele>
        <time>2025-11-21T12:04:29.000Z</time>
      </trkpt>
      <trkpt lat="44.48874" lon="6.19865">
        <ele>1295</ele>
        <time>2025-11-21T12:04:30.000Z</time>
      </trkpt>
      <trkpt lat="44.48874" lon="6.19864">
        <ele>1295</ele>
        <time>2025-11-21T12:04:31.000Z</time>
      </trkpt>
      <trkpt lat="44.48874" lon="6.19862">
        <ele>1295</ele>
        <time>2025-11-21T12:04:32.000Z</time>
      </trkpt>
      <trkpt lat="44.48875" lon="6.19861">
        <ele>1294</ele>
        <time>2025-11-21T12:04:33.000Z</time>
      </trkpt>
      <trkpt lat="44.48874" lon="6.19859">
        <ele>1294</ele>
        <time>2025-11-21T12:04:34.000Z</time>
      </trkpt>
      <trkpt lat="44.48874" lon="6.19859">
        <ele>1294</ele>
        <time>2025-11-21T12:04:35.000Z</time>
      </trkpt>
      <trkpt lat="44.48873" lon="6.19858">
        <ele>1295</ele>
        <time>2025-11-21T12:04:36.000Z</time>
      </trkpt>
      <trkpt lat="44.48873" lon="6.19856">
        <ele>1296</ele>
        <time>2025-11-21T12:04:37.000Z</time>
      </trkpt>
      <trkpt lat="44.48873" lon="6.19855">
        <ele>1296</ele>
        <time>2025-11-21T12:04:38.000Z</time>
      </trkpt>
      <trkpt lat="44.48874" lon="6.19855">
        <ele>1296</ele>
        <time>2025-11-21T12:04:39.000Z</time>
      </trkpt>
      <trkpt lat="44.48873" lon="6.19854">
        <ele>1295</ele>
        <time>2025-11-21T12:04:40.000Z</time>
      </trkpt>
      <trkpt lat="44.48873" lon="6.19852">
        <ele>1295</ele>
        <time>2025-11-21T12:04:41.000Z</time>
      </trkpt>
      <trkpt lat="44.48873" lon="6.1985">
        <ele>1295</ele>
        <time>2025-11-21T12:04:42.000Z</time>
      </trkpt>
      <trkpt lat="44.48873" lon="6.19849">
        <ele>1295</ele>
        <time>2025-11-21T12:04:43.000Z</time>
      </trkpt>
      <trkpt lat="44.48873" lon="6.19848">
        <ele>1296</ele>
        <time>2025-11-21T12:04:44.000Z</time>
      </trkpt>
      <trkpt lat="44.48873" lon="6.19846">
        <ele>1296</ele>
        <time>2025-11-21T12:04:45.000Z</time>
      </trkpt>
      <trkpt lat="44.48874" lon="6.19845">
        <ele>1296</ele>
        <time>2025-11-21T12:04:46.000Z</time>
      </trkpt>
      <trkpt lat="44.48873" lon="6.19844">
        <ele>1296</ele>
        <time>2025-11-21T12:04:47.000Z</time>
      </trkpt>
      <trkpt lat="44.48873" lon="6.19841">
        <ele>1295</ele>
        <time>2025-11-21T12:04:48.000Z</time>
      </trkpt>
      <trkpt lat="44.48872" lon="6.19839">
        <ele>1295</ele>
        <time>2025-11-21T12:04:49.000Z</time>
      </trkpt>
      <trkpt lat="44.48871" lon="6.19838">
        <ele>1295</ele>
        <time>2025-11-21T12:04:50.000Z</time>
      </trkpt>
      <trkpt lat="44.48871" lon="6.19836">
        <ele>1295</ele>
        <time>2025-11-21T12:04:51.000Z</time>
      </trkpt>
      <trkpt lat="44.48871" lon="6.19835">
        <ele>1295</ele>
        <time>2025-11-21T12:04:52.000Z</time>
      </trkpt>
      <trkpt lat="44.48872" lon="6.19832">
        <ele>1296</ele>
        <time>2025-11-21T12:04:53.000Z</time>
      </trkpt>
      <trkpt lat="44.48872" lon="6.19831">
        <ele>1295</ele>
        <time>2025-11-21T12:04:54.000Z</time>
      </trkpt>
      <trkpt lat="44.48871" lon="6.19829">
        <ele>1295</ele>
        <time>2025-11-21T12:04:55.000Z</time>
      </trkpt>
      <trkpt lat="44.4887" lon="6.19827">
        <ele>1294</ele>
        <time>2025-11-21T12:04:56.000Z</time>
      </trkpt>
      <trkpt lat="44.48869" lon="6.19825">
        <ele>1294</ele>
        <time>2025-11-21T12:04:57.000Z</time>
      </trkpt>
      <trkpt lat="44.48868" lon="6.19823">
        <ele>1295</ele>
        <time>2025-11-21T12:04:58.000Z</time>
      </trkpt>
      <trkpt lat="44.48867" lon="6.1982">
        <ele>1295</ele>
        <time>2025-11-21T12:04:59.000Z</time>
      </trkpt>
      <trkpt lat="44.48866" lon="6.19818">
        <ele>1296</ele>
        <time>2025-11-21T12:05:00.000Z</time>
      </trkpt>
      <trkpt lat="44.48866" lon="6.19818">
        <ele>1296</ele>
        <time>2025-11-21T12:05:01.000Z</time>
      </trkpt>
      <trkpt lat="44.48865" lon="6.19817">
        <ele>1297</ele>
        <time>2025-11-21T12:05:02.000Z</time>
      </trkpt>
      <trkpt lat="44.48864" lon="6.19818">
        <ele>1296</ele>
        <time>2025-11-21T12:05:03.000Z</time>
      </trkpt>
      <trkpt lat="44.48862" lon="6.19816">
        <ele>1296</ele>
        <time>2025-11-21T12:05:04.000Z</time>
      </trkpt>
      <trkpt lat="44.48861" lon="6.19815">
        <ele>1297</ele>
        <time>2025-11-21T12:05:05.000Z</time>
      </trkpt>
      <trkpt lat="44.4886" lon="6.19814">
        <ele>1297</ele>
        <time>2025-11-21T12:05:06.000Z</time>
      </trkpt>
      <trkpt lat="44.48859" lon="6.19813">
        <ele>1297</ele>
        <time>2025-11-21T12:05:07.000Z</time>
      </trkpt>
      <trkpt lat="44.48859" lon="6.19812">
        <ele>1298</ele>
        <time>2025-11-21T12:05:08.000Z</time>
      </trkpt>
      <trkpt lat="44.48858" lon="6.1981">
        <ele>1298</ele>
        <time>2025-11-21T12:05:09.000Z</time>
      </trkpt>
      <trkpt lat="44.48857" lon="6.19808">
        <ele>1299</ele>
        <time>2025-11-21T12:05:10.000Z</time>
      </trkpt>
      <trkpt lat="44.48855" lon="6.19808">
        <ele>1300</ele>
        <time>2025-11-21T12:05:11.000Z</time>
      </trkpt>
      <trkpt lat="44.48854" lon="6.19808">
        <ele>1301</ele>
        <time>2025-11-21T12:05:12.000Z</time>
      </trkpt>
      <trkpt lat="44.48853" lon="6.19807">
        <ele>1301</ele>
        <time>2025-11-21T12:05:13.000Z</time>
      </trkpt>
      <trkpt lat="44.48853" lon="6.19806">
        <ele>1301</ele>
        <time>2025-11-21T12:05:14.000Z</time>
      </trkpt>
      <trkpt lat="44.48851" lon="6.19805">
        <ele>1301</ele>
        <time>2025-11-21T12:05:15.000Z</time>
      </trkpt>
      <trkpt lat="44.4885" lon="6.19804">
        <ele>1301</ele>
        <time>2025-11-21T12:05:16.000Z</time>
      </trkpt>
      <trkpt lat="44.48849" lon="6.19803">
        <ele>1302</ele>
        <time>2025-11-21T12:05:17.000Z</time>
      </trkpt>
      <trkpt lat="44.48848" lon="6.19803">
        <ele>1302</ele>
        <time>2025-11-21T12:05:18.000Z</time>
      </trkpt>
      <trkpt lat="44.48848" lon="6.19802">
        <ele>1302</ele>
        <time>2025-11-21T12:05:19.000Z</time>
      </trkpt>
      <trkpt lat="44.48847" lon="6.19802">
        <ele>1302</ele>
        <time>2025-11-21T12:05:20.000Z</time>
      </trkpt>
      <trkpt lat="44.48846" lon="6.19801">
        <ele>1302</ele>
        <time>2025-11-21T12:05:21.000Z</time>
      </trkpt>
      <trkpt lat="44.48845" lon="6.198">
        <ele>1302</ele>
        <time>2025-11-21T12:05:22.000Z</time>
      </trkpt>
      <trkpt lat="44.48845" lon="6.19798">
        <ele>1301</ele>
        <time>2025-11-21T12:05:23.000Z</time>
      </trkpt>
      <trkpt lat="44.48844" lon="6.19797">
        <ele>1301</ele>
        <time>2025-11-21T12:05:24.000Z</time>
      </trkpt>
      <trkpt lat="44.48844" lon="6.19795">
        <ele>1301</ele>
        <time>2025-11-21T12:05:25.000Z</time>
      </trkpt>
      <trkpt lat="44.48843" lon="6.19794">
        <ele>1302</ele>
        <time>2025-11-21T12:05:26.000Z</time>
      </trkpt>
      <trkpt lat="44.48842" lon="6.19793">
        <ele>1302</ele>
        <time>2025-11-21T12:05:27.000Z</time>
      </trkpt>
      <trkpt lat="44.48841" lon="6.19792">
        <ele>1302</ele>
        <time>2025-11-21T12:05:28.000Z</time>
      </trkpt>
      <trkpt lat="44.4884" lon="6.19791">
        <ele>1302</ele>
        <time>2025-11-21T12:05:29.000Z</time>
      </trkpt>
      <trkpt lat="44.48839" lon="6.19791">
        <ele>1302</ele>
        <time>2025-11-21T12:05:30.000Z</time>
      </trkpt>
      <trkpt lat="44.48838" lon="6.19789">
        <ele>1302</ele>
        <time>2025-11-21T12:05:31.000Z</time>
      </trkpt>
      <trkpt lat="44.48836" lon="6.19789">
        <ele>1303</ele>
        <time>2025-11-21T12:05:32.000Z</time>
      </trkpt>
      <trkpt lat="44.48835" lon="6.19787">
        <ele>1304</ele>
        <time>2025-11-21T12:05:33.000Z</time>
      </trkpt>
      <trkpt lat="44.48834" lon="6.19785">
        <ele>1304</ele>
        <time>2025-11-21T12:05:34.000Z</time>
      </trkpt>
      <trkpt lat="44.48834" lon="6.19783">
        <ele>1304</ele>
        <time>2025-11-21T12:05:35.000Z</time>
      </trkpt>
      <trkpt lat="44.48833" lon="6.19781">
        <ele>1304</ele>
        <time>2025-11-21T12:05:36.000Z</time>
      </trkpt>
      <trkpt lat="44.48832" lon="6.19779">
        <ele>1305</ele>
        <time>2025-11-21T12:05:37.000Z</time>
      </trkpt>
      <trkpt lat="44.48832" lon="6.19778">
        <ele>1305</ele>
        <time>2025-11-21T12:05:38.000Z</time>
      </trkpt>
      <trkpt lat="44.48833" lon="6.19777">
        <ele>1304</ele>
        <time>2025-11-21T12:05:39.000Z</time>
      </trkpt>
      <trkpt lat="44.48833" lon="6.19775">
        <ele>1304</ele>
        <time>2025-11-21T12:05:40.000Z</time>
      </trkpt>
      <trkpt lat="44.48833" lon="6.19773">
        <ele>1304</ele>
        <time>2025-11-21T12:05:41.000Z</time>
      </trkpt>
      <trkpt lat="44.48834" lon="6.19772">
        <ele>1304</ele>
        <time>2025-11-21T12:05:42.000Z</time>
      </trkpt>
      <trkpt lat="44.48836" lon="6.19772">
        <ele>1304</ele>
        <time>2025-11-21T12:05:43.000Z</time>
      </trkpt>
      <trkpt lat="44.48837" lon="6.19772">
        <ele>1305</ele>
        <time>2025-11-21T12:05:44.000Z</time>
      </trkpt>
      <trkpt lat="44.48838" lon="6.19771">
        <ele>1305</ele>
        <time>2025-11-21T12:05:45.000Z</time>
      </trkpt>
      <trkpt lat="44.48838" lon="6.19769">
        <ele>1304</ele>
        <time>2025-11-21T12:05:46.000Z</time>
      </trkpt>
      <trkpt lat="44.48839" lon="6.19768">
        <ele>1304</ele>
        <time>2025-11-21T12:05:47.000Z</time>
      </trkpt>
      <trkpt lat="44.48839" lon="6.19768">
        <ele>1304</ele>
        <time>2025-11-21T12:05:48.000Z</time>
      </trkpt>
      <trkpt lat="44.48839" lon="6.19768">
        <ele>1304</ele>
        <time>2025-11-21T12:05:49.000Z</time>
      </trkpt>
      <trkpt lat="44.48839" lon="6.19769">
        <ele>1304</ele>
        <time>2025-11-21T12:05:50.000Z</time>
      </trkpt>
      <trkpt lat="44.48841" lon="6.19769">
        <ele>1304</ele>
        <time>2025-11-21T12:05:51.000Z</time>
      </trkpt>
      <trkpt lat="44.48841" lon="6.1977">
        <ele>1304</ele>
        <time>2025-11-21T12:05:52.000Z</time>
      </trkpt>
      <trkpt lat="44.48842" lon="6.19772">
        <ele>1304</ele>
        <time>2025-11-21T12:05:53.000Z</time>
      </trkpt>
      <trkpt lat="44.48843" lon="6.19772">
        <ele>1304</ele>
        <time>2025-11-21T12:05:54.000Z</time>
      </trkpt>
      <trkpt lat="44.48844" lon="6.19772">
        <ele>1304</ele>
        <time>2025-11-21T12:05:55.000Z</time>
      </trkpt>
      <trkpt lat="44.48845" lon="6.19773">
        <ele>1304</ele>
        <time>2025-11-21T12:05:56.000Z</time>
      </trkpt>
      <trkpt lat="44.48846" lon="6.19774">
        <ele>1304</ele>
        <time>2025-11-21T12:05:57.000Z</time>
      </trkpt>
      <trkpt lat="44.48847" lon="6.19774">
        <ele>1305</ele>
        <time>2025-11-21T12:05:58.000Z</time>
      </trkpt>
      <trkpt lat="44.48848" lon="6.19776">
        <ele>1304</ele>
        <time>2025-11-21T12:05:59.000Z</time>
      </trkpt>
      <trkpt lat="44.48848" lon="6.19776">
        <ele>1305</ele>
        <time>2025-11-21T12:06:00.000Z</time>
      </trkpt>
      <trkpt lat="44.48849" lon="6.19777">
        <ele>1305</ele>
        <time>2025-11-21T12:06:01.000Z</time>
      </trkpt>
      <trkpt lat="44.4885" lon="6.19778">
        <ele>1304</ele>
        <time>2025-11-21T12:06:02.000Z</time>
      </trkpt>
      <trkpt lat="44.48851" lon="6.19778">
        <ele>1304</ele>
        <time>2025-11-21T12:06:03.000Z</time>
      </trkpt>
      <trkpt lat="44.48852" lon="6.19779">
        <ele>1304</ele>
        <time>2025-11-21T12:06:04.000Z</time>
      </trkpt>
      <trkpt lat="44.48853" lon="6.19779">
        <ele>1305</ele>
        <time>2025-11-21T12:06:05.000Z</time>
      </trkpt>
      <trkpt lat="44.48854" lon="6.1978">
        <ele>1305</ele>
        <time>2025-11-21T12:06:06.000Z</time>
      </trkpt>
      <trkpt lat="44.48855" lon="6.1978">
        <ele>1305</ele>
        <time>2025-11-21T12:06:07.000Z</time>
      </trkpt>
      <trkpt lat="44.48856" lon="6.19782">
        <ele>1304</ele>
        <time>2025-11-21T12:06:08.000Z</time>
      </trkpt>
      <trkpt lat="44.48857" lon="6.19783">
        <ele>1304</ele>
        <time>2025-11-21T12:06:09.000Z</time>
      </trkpt>
      <trkpt lat="44.48858" lon="6.19784">
        <ele>1304</ele>
        <time>2025-11-21T12:06:10.000Z</time>
      </trkpt>
      <trkpt lat="44.48859" lon="6.19785">
        <ele>1304</ele>
        <time>2025-11-21T12:06:11.000Z</time>
      </trkpt>
      <trkpt lat="44.4886" lon="6.19785">
        <ele>1304</ele>
        <time>2025-11-21T12:06:12.000Z</time>
      </trkpt>
      <trkpt lat="44.48861" lon="6.19785">
        <ele>1303</ele>
        <time>2025-11-21T12:06:13.000Z</time>
      </trkpt>
      <trkpt lat="44.48862" lon="6.19786">
        <ele>1304</ele>
        <time>2025-11-21T12:06:14.000Z</time>
      </trkpt>
      <trkpt lat="44.48864" lon="6.19786">
        <ele>1304</ele>
        <time>2025-11-21T12:06:15.000Z</time>
      </trkpt>
      <trkpt lat="44.48864" lon="6.19786">
        <ele>1304</ele>
        <time>2025-11-21T12:06:16.000Z</time>
      </trkpt>
      <trkpt lat="44.48866" lon="6.19786">
        <ele>1304</ele>
        <time>2025-11-21T12:06:17.000Z</time>
      </trkpt>
      <trkpt lat="44.48867" lon="6.19786">
        <ele>1304</ele>
        <time>2025-11-21T12:06:18.000Z</time>
      </trkpt>
      <trkpt lat="44.48869" lon="6.19787">
        <ele>1304</ele>
        <time>2025-11-21T12:06:19.000Z</time>
      </trkpt>
      <trkpt lat="44.48869" lon="6.19787">
        <ele>1304</ele>
        <time>2025-11-21T12:06:20.000Z</time>
      </trkpt>
      <trkpt lat="44.4887" lon="6.19788">
        <ele>1305</ele>
        <time>2025-11-21T12:06:21.000Z</time>
      </trkpt>
      <trkpt lat="44.48871" lon="6.19789">
        <ele>1305</ele>
        <time>2025-11-21T12:06:22.000Z</time>
      </trkpt>
      <trkpt lat="44.48872" lon="6.1979">
        <ele>1305</ele>
        <time>2025-11-21T12:06:23.000Z</time>
      </trkpt>
      <trkpt lat="44.48872" lon="6.19791">
        <ele>1305</ele>
        <time>2025-11-21T12:06:24.000Z</time>
      </trkpt>
      <trkpt lat="44.48873" lon="6.19791">
        <ele>1305</ele>
        <time>2025-11-21T12:06:25.000Z</time>
      </trkpt>
      <trkpt lat="44.48874" lon="6.19791">
        <ele>1305</ele>
        <time>2025-11-21T12:06:26.000Z</time>
      </trkpt>
      <trkpt lat="44.48874" lon="6.19791">
        <ele>1305</ele>
        <time>2025-11-21T12:06:27.000Z</time>
      </trkpt>
      <trkpt lat="44.48875" lon="6.19791">
        <ele>1305</ele>
        <time>2025-11-21T12:06:28.000Z</time>
      </trkpt>
      <trkpt lat="44.48876" lon="6.19792">
        <ele>1305</ele>
        <time>2025-11-21T12:06:29.000Z</time>
      </trkpt>
      <trkpt lat="44.48878" lon="6.19793">
        <ele>1306</ele>
        <time>2025-11-21T12:06:30.000Z</time>
      </trkpt>
      <trkpt lat="44.48879" lon="6.19794">
        <ele>1307</ele>
        <time>2025-11-21T12:06:31.000Z</time>
      </trkpt>
      <trkpt lat="44.48879" lon="6.19795">
        <ele>1307</ele>
        <time>2025-11-21T12:06:32.000Z</time>
      </trkpt>
      <trkpt lat="44.4888" lon="6.19796">
        <ele>1307</ele>
        <time>2025-11-21T12:06:33.000Z</time>
      </trkpt>
      <trkpt lat="44.48881" lon="6.19797">
        <ele>1307</ele>
        <time>2025-11-21T12:06:34.000Z</time>
      </trkpt>
      <trkpt lat="44.48882" lon="6.19797">
        <ele>1308</ele>
        <time>2025-11-21T12:06:35.000Z</time>
      </trkpt>
      <trkpt lat="44.48884" lon="6.19797">
        <ele>1307</ele>
        <time>2025-11-21T12:06:36.000Z</time>
      </trkpt>
      <trkpt lat="44.48885" lon="6.19797">
        <ele>1306</ele>
        <time>2025-11-21T12:06:37.000Z</time>
      </trkpt>
      <trkpt lat="44.48886" lon="6.19797">
        <ele>1306</ele>
        <time>2025-11-21T12:06:38.000Z</time>
      </trkpt>
      <trkpt lat="44.48887" lon="6.19798">
        <ele>1307</ele>
        <time>2025-11-21T12:06:39.000Z</time>
      </trkpt>
      <trkpt lat="44.48888" lon="6.19799">
        <ele>1307</ele>
        <time>2025-11-21T12:06:40.000Z</time>
      </trkpt>
      <trkpt lat="44.48889" lon="6.198">
        <ele>1307</ele>
        <time>2025-11-21T12:06:41.000Z</time>
      </trkpt>
      <trkpt lat="44.4889" lon="6.19801">
        <ele>1307</ele>
        <time>2025-11-21T12:06:42.000Z</time>
      </trkpt>
      <trkpt lat="44.48891" lon="6.19802">
        <ele>1308</ele>
        <time>2025-11-21T12:06:43.000Z</time>
      </trkpt>
      <trkpt lat="44.48892" lon="6.19802">
        <ele>1308</ele>
        <time>2025-11-21T12:06:44.000Z</time>
      </trkpt>
      <trkpt lat="44.48892" lon="6.19804">
        <ele>1308</ele>
        <time>2025-11-21T12:06:45.000Z</time>
      </trkpt>
      <trkpt lat="44.48893" lon="6.19805">
        <ele>1308</ele>
        <time>2025-11-21T12:06:46.000Z</time>
      </trkpt>
      <trkpt lat="44.48895" lon="6.19806">
        <ele>1308</ele>
        <time>2025-11-21T12:06:47.000Z</time>
      </trkpt>
      <trkpt lat="44.48896" lon="6.19807">
        <ele>1308</ele>
        <time>2025-11-21T12:06:48.000Z</time>
      </trkpt>
      <trkpt lat="44.48897" lon="6.19807">
        <ele>1308</ele>
        <time>2025-11-21T12:06:49.000Z</time>
      </trkpt>
      <trkpt lat="44.48898" lon="6.19808">
        <ele>1309</ele>
        <time>2025-11-21T12:06:50.000Z</time>
      </trkpt>
      <trkpt lat="44.489" lon="6.19809">
        <ele>1309</ele>
        <time>2025-11-21T12:06:51.000Z</time>
      </trkpt>
      <trkpt lat="44.48901" lon="6.1981">
        <ele>1310</ele>
        <time>2025-11-21T12:06:52.000Z</time>
      </trkpt>
      <trkpt lat="44.48902" lon="6.19812">
        <ele>1310</ele>
        <time>2025-11-21T12:06:53.000Z</time>
      </trkpt>
      <trkpt lat="44.48902" lon="6.19813">
        <ele>1311</ele>
        <time>2025-11-21T12:06:54.000Z</time>
      </trkpt>
      <trkpt lat="44.48903" lon="6.19814">
        <ele>1311</ele>
        <time>2025-11-21T12:06:55.000Z</time>
      </trkpt>
      <trkpt lat="44.48904" lon="6.19815">
        <ele>1311</ele>
        <time>2025-11-21T12:06:56.000Z</time>
      </trkpt>
      <trkpt lat="44.48905" lon="6.19816">
        <ele>1311</ele>
        <time>2025-11-21T12:06:57.000Z</time>
      </trkpt>
      <trkpt lat="44.48906" lon="6.19817">
        <ele>1312</ele>
        <time>2025-11-21T12:06:58.000Z</time>
      </trkpt>
      <trkpt lat="44.48907" lon="6.19818">
        <ele>1312</ele>
        <time>2025-11-21T12:06:59.000Z</time>
      </trkpt>
      <trkpt lat="44.48907" lon="6.19819">
        <ele>1312</ele>
        <time>2025-11-21T12:07:00.000Z</time>
      </trkpt>
      <trkpt lat="44.48909" lon="6.1982">
        <ele>1312</ele>
        <time>2025-11-21T12:07:01.000Z</time>
      </trkpt>
      <trkpt lat="44.4891" lon="6.19821">
        <ele>1312</ele>
        <time>2025-11-21T12:07:02.000Z</time>
      </trkpt>
      <trkpt lat="44.4891" lon="6.19823">
        <ele>1312</ele>
        <time>2025-11-21T12:07:03.000Z</time>
      </trkpt>
      <trkpt lat="44.48912" lon="6.19824">
        <ele>1312</ele>
        <time>2025-11-21T12:07:04.000Z</time>
      </trkpt>
      <trkpt lat="44.48913" lon="6.19825">
        <ele>1312</ele>
        <time>2025-11-21T12:07:05.000Z</time>
      </trkpt>
      <trkpt lat="44.48914" lon="6.19825">
        <ele>1313</ele>
        <time>2025-11-21T12:07:06.000Z</time>
      </trkpt>
      <trkpt lat="44.48915" lon="6.19825">
        <ele>1313</ele>
        <time>2025-11-21T12:07:07.000Z</time>
      </trkpt>
      <trkpt lat="44.48916" lon="6.19826">
        <ele>1313</ele>
        <time>2025-11-21T12:07:08.000Z</time>
      </trkpt>
      <trkpt lat="44.48916" lon="6.19828">
        <ele>1313</ele>
        <time>2025-11-21T12:07:09.000Z</time>
      </trkpt>
      <trkpt lat="44.48917" lon="6.19829">
        <ele>1313</ele>
        <time>2025-11-21T12:07:10.000Z</time>
      </trkpt>
      <trkpt lat="44.48918" lon="6.1983">
        <ele>1314</ele>
        <time>2025-11-21T12:07:11.000Z</time>
      </trkpt>
      <trkpt lat="44.48918" lon="6.19831">
        <ele>1314</ele>
        <time>2025-11-21T12:07:12.000Z</time>
      </trkpt>
      <trkpt lat="44.48919" lon="6.19833">
        <ele>1313</ele>
        <time>2025-11-21T12:07:13.000Z</time>
      </trkpt>
      <trkpt lat="44.4892" lon="6.19834">
        <ele>1313</ele>
        <time>2025-11-21T12:07:14.000Z</time>
      </trkpt>
      <trkpt lat="44.48921" lon="6.19835">
        <ele>1314</ele>
        <time>2025-11-21T12:07:15.000Z</time>
      </trkpt>
      <trkpt lat="44.48922" lon="6.19837">
        <ele>1314</ele>
        <time>2025-11-21T12:07:16.000Z</time>
      </trkpt>
      <trkpt lat="44.48922" lon="6.19837">
        <ele>1315</ele>
        <time>2025-11-21T12:07:17.000Z</time>
      </trkpt>
      <trkpt lat="44.48923" lon="6.19839">
        <ele>1315</ele>
        <time>2025-11-21T12:07:18.000Z</time>
      </trkpt>
      <trkpt lat="44.48924" lon="6.1984">
        <ele>1315</ele>
        <time>2025-11-21T12:07:19.000Z</time>
      </trkpt>
      <trkpt lat="44.48925" lon="6.19842">
        <ele>1314</ele>
        <time>2025-11-21T12:07:20.000Z</time>
      </trkpt>
      <trkpt lat="44.48926" lon="6.19844">
        <ele>1314</ele>
        <time>2025-11-21T12:07:21.000Z</time>
      </trkpt>
      <trkpt lat="44.48927" lon="6.19844">
        <ele>1314</ele>
        <time>2025-11-21T12:07:22.000Z</time>
      </trkpt>
      <trkpt lat="44.48928" lon="6.19844">
        <ele>1314</ele>
        <time>2025-11-21T12:07:23.000Z</time>
      </trkpt>
      <trkpt lat="44.4893" lon="6.19844">
        <ele>1314</ele>
        <time>2025-11-21T12:07:24.000Z</time>
      </trkpt>
      <trkpt lat="44.48931" lon="6.19845">
        <ele>1313</ele>
        <time>2025-11-21T12:07:25.000Z</time>
      </trkpt>
      <trkpt lat="44.48932" lon="6.19845">
        <ele>1314</ele>
        <time>2025-11-21T12:07:26.000Z</time>
      </trkpt>
      <trkpt lat="44.48933" lon="6.19847">
        <ele>1314</ele>
        <time>2025-11-21T12:07:27.000Z</time>
      </trkpt>
      <trkpt lat="44.48934" lon="6.19848">
        <ele>1314</ele>
        <time>2025-11-21T12:07:28.000Z</time>
      </trkpt>
      <trkpt lat="44.48934" lon="6.1985">
        <ele>1314</ele>
        <time>2025-11-21T12:07:29.000Z</time>
      </trkpt>
      <trkpt lat="44.48935" lon="6.1985">
        <ele>1314</ele>
        <time>2025-11-21T12:07:30.000Z</time>
      </trkpt>
      <trkpt lat="44.48936" lon="6.19851">
        <ele>1315</ele>
        <time>2025-11-21T12:07:31.000Z</time>
      </trkpt>
      <trkpt lat="44.48937" lon="6.19852">
        <ele>1315</ele>
        <time>2025-11-21T12:07:32.000Z</time>
      </trkpt>
      <trkpt lat="44.48938" lon="6.19853">
        <ele>1316</ele>
        <time>2025-11-21T12:07:33.000Z</time>
      </trkpt>
      <trkpt lat="44.48939" lon="6.19853">
        <ele>1316</ele>
        <time>2025-11-21T12:07:34.000Z</time>
      </trkpt>
      <trkpt lat="44.4894" lon="6.19854">
        <ele>1316</ele>
        <time>2025-11-21T12:07:35.000Z</time>
      </trkpt>
      <trkpt lat="44.48941" lon="6.19855">
        <ele>1316</ele>
        <time>2025-11-21T12:07:36.000Z</time>
      </trkpt>
      <trkpt lat="44.48942" lon="6.19856">
        <ele>1316</ele>
        <time>2025-11-21T12:07:37.000Z</time>
      </trkpt>
      <trkpt lat="44.48943" lon="6.19857">
        <ele>1317</ele>
        <time>2025-11-21T12:07:38.000Z</time>
      </trkpt>
      <trkpt lat="44.48944" lon="6.19858">
        <ele>1317</ele>
        <time>2025-11-21T12:07:39.000Z</time>
      </trkpt>
      <trkpt lat="44.48945" lon="6.19859">
        <ele>1317</ele>
        <time>2025-11-21T12:07:40.000Z</time>
      </trkpt>
      <trkpt lat="44.48946" lon="6.1986">
        <ele>1317</ele>
        <time>2025-11-21T12:07:41.000Z</time>
      </trkpt>
      <trkpt lat="44.48948" lon="6.19861">
        <ele>1318</ele>
        <time>2025-11-21T12:07:42.000Z</time>
      </trkpt>
      <trkpt lat="44.48949" lon="6.19862">
        <ele>1318</ele>
        <time>2025-11-21T12:07:43.000Z</time>
      </trkpt>
      <trkpt lat="44.4895" lon="6.19862">
        <ele>1318</ele>
        <time>2025-11-21T12:07:44.000Z</time>
      </trkpt>
      <trkpt lat="44.48951" lon="6.19863">
        <ele>1318</ele>
        <time>2025-11-21T12:07:45.000Z</time>
      </trkpt>
      <trkpt lat="44.48953" lon="6.19864">
        <ele>1318</ele>
        <time>2025-11-21T12:07:46.000Z</time>
      </trkpt>
      <trkpt lat="44.48954" lon="6.19865">
        <ele>1319</ele>
        <time>2025-11-21T12:07:47.000Z</time>
      </trkpt>
      <trkpt lat="44.48954" lon="6.19867">
        <ele>1319</ele>
        <time>2025-11-21T12:07:48.000Z</time>
      </trkpt>
      <trkpt lat="44.48955" lon="6.19867">
        <ele>1319</ele>
        <time>2025-11-21T12:07:49.000Z</time>
      </trkpt>
      <trkpt lat="44.48957" lon="6.19867">
        <ele>1320</ele>
        <time>2025-11-21T12:07:50.000Z</time>
      </trkpt>
      <trkpt lat="44.48958" lon="6.19869">
        <ele>1320</ele>
        <time>2025-11-21T12:07:51.000Z</time>
      </trkpt>
      <trkpt lat="44.48959" lon="6.1987">
        <ele>1320</ele>
        <time>2025-11-21T12:07:52.000Z</time>
      </trkpt>
      <trkpt lat="44.48959" lon="6.1987">
        <ele>1320</ele>
        <time>2025-11-21T12:07:53.000Z</time>
      </trkpt>
      <trkpt lat="44.4896" lon="6.19871">
        <ele>1320</ele>
        <time>2025-11-21T12:07:54.000Z</time>
      </trkpt>
      <trkpt lat="44.48961" lon="6.19872">
        <ele>1320</ele>
        <time>2025-11-21T12:07:55.000Z</time>
      </trkpt>
      <trkpt lat="44.48963" lon="6.19873">
        <ele>1319</ele>
        <time>2025-11-21T12:07:56.000Z</time>
      </trkpt>
      <trkpt lat="44.48963" lon="6.19875">
        <ele>1320</ele>
        <time>2025-11-21T12:07:57.000Z</time>
      </trkpt>
      <trkpt lat="44.48964" lon="6.19876">
        <ele>1320</ele>
        <time>2025-11-21T12:07:58.000Z</time>
      </trkpt>
      <trkpt lat="44.48966" lon="6.19878">
        <ele>1319</ele>
        <time>2025-11-21T12:07:59.000Z</time>
      </trkpt>
      <trkpt lat="44.48966" lon="6.19879">
        <ele>1320</ele>
        <time>2025-11-21T12:08:00.000Z</time>
      </trkpt>
      <trkpt lat="44.48967" lon="6.19881">
        <ele>1320</ele>
        <time>2025-11-21T12:08:01.000Z</time>
      </trkpt>
      <trkpt lat="44.48968" lon="6.19882">
        <ele>1321</ele>
        <time>2025-11-21T12:08:02.000Z</time>
      </trkpt>
      <trkpt lat="44.48969" lon="6.19883">
        <ele>1321</ele>
        <time>2025-11-21T12:08:03.000Z</time>
      </trkpt>
      <trkpt lat="44.4897" lon="6.19885">
        <ele>1321</ele>
        <time>2025-11-21T12:08:04.000Z</time>
      </trkpt>
      <trkpt lat="44.48971" lon="6.19887">
        <ele>1321</ele>
        <time>2025-11-21T12:08:05.000Z</time>
      </trkpt>
      <trkpt lat="44.48972" lon="6.19888">
        <ele>1321</ele>
        <time>2025-11-21T12:08:06.000Z</time>
      </trkpt>
      <trkpt lat="44.48973" lon="6.19889">
        <ele>1321</ele>
        <time>2025-11-21T12:08:07.000Z</time>
      </trkpt>
      <trkpt lat="44.48973" lon="6.1989">
        <ele>1322</ele>
        <time>2025-11-21T12:08:08.000Z</time>
      </trkpt>
      <trkpt lat="44.48974" lon="6.19891">
        <ele>1322</ele>
        <time>2025-11-21T12:08:09.000Z</time>
      </trkpt>
      <trkpt lat="44.48975" lon="6.19893">
        <ele>1322</ele>
        <time>2025-11-21T12:08:10.000Z</time>
      </trkpt>
      <trkpt lat="44.48976" lon="6.19895">
        <ele>1322</ele>
        <time>2025-11-21T12:08:11.000Z</time>
      </trkpt>
      <trkpt lat="44.48976" lon="6.19897">
        <ele>1322</ele>
        <time>2025-11-21T12:08:12.000Z</time>
      </trkpt>
      <trkpt lat="44.48977" lon="6.19898">
        <ele>1322</ele>
        <time>2025-11-21T12:08:13.000Z</time>
      </trkpt>
      <trkpt lat="44.48978" lon="6.19899">
        <ele>1322</ele>
        <time>2025-11-21T12:08:14.000Z</time>
      </trkpt>
      <trkpt lat="44.48979" lon="6.199">
        <ele>1322</ele>
        <time>2025-11-21T12:08:15.000Z</time>
      </trkpt>
      <trkpt lat="44.4898" lon="6.19901">
        <ele>1323</ele>
        <time>2025-11-21T12:08:16.000Z</time>
      </trkpt>
      <trkpt lat="44.48981" lon="6.19902">
        <ele>1322</ele>
        <time>2025-11-21T12:08:17.000Z</time>
      </trkpt>
      <trkpt lat="44.48982" lon="6.19903">
        <ele>1322</ele>
        <time>2025-11-21T12:08:18.000Z</time>
      </trkpt>
      <trkpt lat="44.48983" lon="6.19904">
        <ele>1322</ele>
        <time>2025-11-21T12:08:19.000Z</time>
      </trkpt>
      <trkpt lat="44.48984" lon="6.19904">
        <ele>1322</ele>
        <time>2025-11-21T12:08:20.000Z</time>
      </trkpt>
      <trkpt lat="44.48986" lon="6.19904">
        <ele>1322</ele>
        <time>2025-11-21T12:08:21.000Z</time>
      </trkpt>
      <trkpt lat="44.48987" lon="6.19906">
        <ele>1323</ele>
        <time>2025-11-21T12:08:22.000Z</time>
      </trkpt>
      <trkpt lat="44.48987" lon="6.19907">
        <ele>1323</ele>
        <time>2025-11-21T12:08:23.000Z</time>
      </trkpt>
      <trkpt lat="44.48989" lon="6.1991">
        <ele>1324</ele>
        <time>2025-11-21T12:08:24.000Z</time>
      </trkpt>
      <trkpt lat="44.4899" lon="6.19912">
        <ele>1324</ele>
        <time>2025-11-21T12:08:25.000Z</time>
      </trkpt>
      <trkpt lat="44.48991" lon="6.19914">
        <ele>1325</ele>
        <time>2025-11-21T12:08:26.000Z</time>
      </trkpt>
      <trkpt lat="44.48992" lon="6.19916">
        <ele>1325</ele>
        <time>2025-11-21T12:08:27.000Z</time>
      </trkpt>
      <trkpt lat="44.48993" lon="6.19916">
        <ele>1325</ele>
        <time>2025-11-21T12:08:28.000Z</time>
      </trkpt>
      <trkpt lat="44.48995" lon="6.19917">
        <ele>1324</ele>
        <time>2025-11-21T12:08:29.000Z</time>
      </trkpt>
      <trkpt lat="44.48996" lon="6.19919">
        <ele>1325</ele>
        <time>2025-11-21T12:08:30.000Z</time>
      </trkpt>
      <trkpt lat="44.48997" lon="6.19921">
        <ele>1325</ele>
        <time>2025-11-21T12:08:31.000Z</time>
      </trkpt>
      <trkpt lat="44.48997" lon="6.19922">
        <ele>1326</ele>
        <time>2025-11-21T12:08:32.000Z</time>
      </trkpt>
      <trkpt lat="44.48997" lon="6.19923">
        <ele>1326</ele>
        <time>2025-11-21T12:08:33.000Z</time>
      </trkpt>
      <trkpt lat="44.48998" lon="6.19925">
        <ele>1326</ele>
        <time>2025-11-21T12:08:34.000Z</time>
      </trkpt>
      <trkpt lat="44.48998" lon="6.19927">
        <ele>1326</ele>
        <time>2025-11-21T12:08:35.000Z</time>
      </trkpt>
      <trkpt lat="44.48999" lon="6.19928">
        <ele>1326</ele>
        <time>2025-11-21T12:08:36.000Z</time>
      </trkpt>
      <trkpt lat="44.49" lon="6.19929">
        <ele>1326</ele>
        <time>2025-11-21T12:08:37.000Z</time>
      </trkpt>
      <trkpt lat="44.49" lon="6.1993">
        <ele>1327</ele>
        <time>2025-11-21T12:08:38.000Z</time>
      </trkpt>
      <trkpt lat="44.49001" lon="6.19932">
        <ele>1327</ele>
        <time>2025-11-21T12:08:39.000Z</time>
      </trkpt>
      <trkpt lat="44.49001" lon="6.19933">
        <ele>1327</ele>
        <time>2025-11-21T12:08:40.000Z</time>
      </trkpt>
      <trkpt lat="44.49002" lon="6.19934">
        <ele>1328</ele>
        <time>2025-11-21T12:08:41.000Z</time>
      </trkpt>
      <trkpt lat="44.49003" lon="6.19936">
        <ele>1328</ele>
        <time>2025-11-21T12:08:42.000Z</time>
      </trkpt>
      <trkpt lat="44.49003" lon="6.19937">
        <ele>1327</ele>
        <time>2025-11-21T12:08:43.000Z</time>
      </trkpt>
      <trkpt lat="44.49004" lon="6.19939">
        <ele>1328</ele>
        <time>2025-11-21T12:08:44.000Z</time>
      </trkpt>
      <trkpt lat="44.49005" lon="6.1994">
        <ele>1328</ele>
        <time>2025-11-21T12:08:45.000Z</time>
      </trkpt>
      <trkpt lat="44.49006" lon="6.19941">
        <ele>1328</ele>
        <time>2025-11-21T12:08:46.000Z</time>
      </trkpt>
      <trkpt lat="44.49007" lon="6.19942">
        <ele>1327</ele>
        <time>2025-11-21T12:08:47.000Z</time>
      </trkpt>
      <trkpt lat="44.49008" lon="6.19943">
        <ele>1327</ele>
        <time>2025-11-21T12:08:48.000Z</time>
      </trkpt>
      <trkpt lat="44.4901" lon="6.19945">
        <ele>1327</ele>
        <time>2025-11-21T12:08:49.000Z</time>
      </trkpt>
      <trkpt lat="44.4901" lon="6.19946">
        <ele>1327</ele>
        <time>2025-11-21T12:08:50.000Z</time>
      </trkpt>
      <trkpt lat="44.4901" lon="6.19948">
        <ele>1327</ele>
        <time>2025-11-21T12:08:51.000Z</time>
      </trkpt>
      <trkpt lat="44.49011" lon="6.19949">
        <ele>1327</ele>
        <time>2025-11-21T12:08:52.000Z</time>
      </trkpt>
      <trkpt lat="44.49011" lon="6.19951">
        <ele>1327</ele>
        <time>2025-11-21T12:08:53.000Z</time>
      </trkpt>
      <trkpt lat="44.49011" lon="6.19953">
        <ele>1327</ele>
        <time>2025-11-21T12:08:54.000Z</time>
      </trkpt>
      <trkpt lat="44.49012" lon="6.19954">
        <ele>1327</ele>
        <time>2025-11-21T12:08:55.000Z</time>
      </trkpt>
      <trkpt lat="44.49012" lon="6.19955">
        <ele>1327</ele>
        <time>2025-11-21T12:08:56.000Z</time>
      </trkpt>
      <trkpt lat="44.49012" lon="6.19956">
        <ele>1326</ele>
        <time>2025-11-21T12:08:57.000Z</time>
      </trkpt>
      <trkpt lat="44.49013" lon="6.19958">
        <ele>1326</ele>
        <time>2025-11-21T12:08:58.000Z</time>
      </trkpt>
      <trkpt lat="44.49013" lon="6.19959">
        <ele>1327</ele>
        <time>2025-11-21T12:08:59.000Z</time>
      </trkpt>
      <trkpt lat="44.49014" lon="6.19961">
        <ele>1327</ele>
        <time>2025-11-21T12:09:00.000Z</time>
      </trkpt>
      <trkpt lat="44.49015" lon="6.19962">
        <ele>1327</ele>
        <time>2025-11-21T12:09:01.000Z</time>
      </trkpt>
      <trkpt lat="44.49017" lon="6.19963">
        <ele>1327</ele>
        <time>2025-11-21T12:09:02.000Z</time>
      </trkpt>
      <trkpt lat="44.49018" lon="6.19964">
        <ele>1327</ele>
        <time>2025-11-21T12:09:03.000Z</time>
      </trkpt>
      <trkpt lat="44.49019" lon="6.19966">
        <ele>1327</ele>
        <time>2025-11-21T12:09:04.000Z</time>
      </trkpt>
      <trkpt lat="44.49019" lon="6.19967">
        <ele>1327</ele>
        <time>2025-11-21T12:09:05.000Z</time>
      </trkpt>
      <trkpt lat="44.4902" lon="6.19969">
        <ele>1327</ele>
        <time>2025-11-21T12:09:06.000Z</time>
      </trkpt>
      <trkpt lat="44.49022" lon="6.19971">
        <ele>1328</ele>
        <time>2025-11-21T12:09:07.000Z</time>
      </trkpt>
      <trkpt lat="44.49023" lon="6.19973">
        <ele>1328</ele>
        <time>2025-11-21T12:09:08.000Z</time>
      </trkpt>
      <trkpt lat="44.49024" lon="6.19974">
        <ele>1328</ele>
        <time>2025-11-21T12:09:09.000Z</time>
      </trkpt>
      <trkpt lat="44.49025" lon="6.19976">
        <ele>1328</ele>
        <time>2025-11-21T12:09:10.000Z</time>
      </trkpt>
      <trkpt lat="44.49026" lon="6.19977">
        <ele>1328</ele>
        <time>2025-11-21T12:09:11.000Z</time>
      </trkpt>
      <trkpt lat="44.49027" lon="6.19979">
        <ele>1328</ele>
        <time>2025-11-21T12:09:12.000Z</time>
      </trkpt>
      <trkpt lat="44.49028" lon="6.19981">
        <ele>1328</ele>
        <time>2025-11-21T12:09:13.000Z</time>
      </trkpt>
      <trkpt lat="44.49029" lon="6.19982">
        <ele>1328</ele>
        <time>2025-11-21T12:09:14.000Z</time>
      </trkpt>
      <trkpt lat="44.4903" lon="6.19985">
        <ele>1328</ele>
        <time>2025-11-21T12:09:15.000Z</time>
      </trkpt>
      <trkpt lat="44.4903" lon="6.19987">
        <ele>1329</ele>
        <time>2025-11-21T12:09:16.000Z</time>
      </trkpt>
      <trkpt lat="44.49031" lon="6.19989">
        <ele>1328</ele>
        <time>2025-11-21T12:09:17.000Z</time>
      </trkpt>
      <trkpt lat="44.49033" lon="6.19991">
        <ele>1329</ele>
        <time>2025-11-21T12:09:18.000Z</time>
      </trkpt>
      <trkpt lat="44.49034" lon="6.19993">
        <ele>1329</ele>
        <time>2025-11-21T12:09:19.000Z</time>
      </trkpt>
      <trkpt lat="44.49035" lon="6.19994">
        <ele>1329</ele>
        <time>2025-11-21T12:09:20.000Z</time>
      </trkpt>
      <trkpt lat="44.49035" lon="6.19995">
        <ele>1329</ele>
        <time>2025-11-21T12:09:21.000Z</time>
      </trkpt>
      <trkpt lat="44.49036" lon="6.19996">
        <ele>1329</ele>
        <time>2025-11-21T12:09:22.000Z</time>
      </trkpt>
      <trkpt lat="44.49037" lon="6.19997">
        <ele>1329</ele>
        <time>2025-11-21T12:09:23.000Z</time>
      </trkpt>
      <trkpt lat="44.49037" lon="6.19998">
        <ele>1329</ele>
        <time>2025-11-21T12:09:24.000Z</time>
      </trkpt>
      <trkpt lat="44.49038" lon="6.2">
        <ele>1328</ele>
        <time>2025-11-21T12:09:25.000Z</time>
      </trkpt>
      <trkpt lat="44.49039" lon="6.20001">
        <ele>1329</ele>
        <time>2025-11-21T12:09:26.000Z</time>
      </trkpt>
      <trkpt lat="44.4904" lon="6.20002">
        <ele>1329</ele>
        <time>2025-11-21T12:09:27.000Z</time>
      </trkpt>
      <trkpt lat="44.49041" lon="6.20004">
        <ele>1329</ele>
        <time>2025-11-21T12:09:28.000Z</time>
      </trkpt>
      <trkpt lat="44.49041" lon="6.20005">
        <ele>1329</ele>
        <time>2025-11-21T12:09:29.000Z</time>
      </trkpt>
      <trkpt lat="44.49041" lon="6.20007">
        <ele>1330</ele>
        <time>2025-11-21T12:09:30.000Z</time>
      </trkpt>
      <trkpt lat="44.49043" lon="6.20008">
        <ele>1330</ele>
        <time>2025-11-21T12:09:31.000Z</time>
      </trkpt>
      <trkpt lat="44.49043" lon="6.20009">
        <ele>1330</ele>
        <time>2025-11-21T12:09:32.000Z</time>
      </trkpt>
      <trkpt lat="44.49044" lon="6.20009">
        <ele>1330</ele>
        <time>2025-11-21T12:09:33.000Z</time>
      </trkpt>
      <trkpt lat="44.49044" lon="6.20011">
        <ele>1330</ele>
        <time>2025-11-21T12:09:34.000Z</time>
      </trkpt>
      <trkpt lat="44.49045" lon="6.20012">
        <ele>1331</ele>
        <time>2025-11-21T12:09:35.000Z</time>
      </trkpt>
      <trkpt lat="44.49046" lon="6.20015">
        <ele>1331</ele>
        <time>2025-11-21T12:09:36.000Z</time>
      </trkpt>
      <trkpt lat="44.49046" lon="6.20017">
        <ele>1331</ele>
        <time>2025-11-21T12:09:37.000Z</time>
      </trkpt>
      <trkpt lat="44.49047" lon="6.20018">
        <ele>1331</ele>
        <time>2025-11-21T12:09:38.000Z</time>
      </trkpt>
      <trkpt lat="44.49048" lon="6.20019">
        <ele>1331</ele>
        <time>2025-11-21T12:09:39.000Z</time>
      </trkpt>
      <trkpt lat="44.49049" lon="6.20021">
        <ele>1331</ele>
        <time>2025-11-21T12:09:40.000Z</time>
      </trkpt>
      <trkpt lat="44.4905" lon="6.20022">
        <ele>1331</ele>
        <time>2025-11-21T12:09:41.000Z</time>
      </trkpt>
      <trkpt lat="44.49051" lon="6.20024">
        <ele>1331</ele>
        <time>2025-11-21T12:09:42.000Z</time>
      </trkpt>
      <trkpt lat="44.49051" lon="6.20025">
        <ele>1331</ele>
        <time>2025-11-21T12:09:43.000Z</time>
      </trkpt>
      <trkpt lat="44.49052" lon="6.20026">
        <ele>1331</ele>
        <time>2025-11-21T12:09:44.000Z</time>
      </trkpt>
      <trkpt lat="44.49053" lon="6.20027">
        <ele>1331</ele>
        <time>2025-11-21T12:09:45.000Z</time>
      </trkpt>
      <trkpt lat="44.49054" lon="6.20028">
        <ele>1331</ele>
        <time>2025-11-21T12:09:46.000Z</time>
      </trkpt>
      <trkpt lat="44.49056" lon="6.2003">
        <ele>1332</ele>
        <time>2025-11-21T12:09:47.000Z</time>
      </trkpt>
      <trkpt lat="44.49056" lon="6.20031">
        <ele>1332</ele>
        <time>2025-11-21T12:09:48.000Z</time>
      </trkpt>
      <trkpt lat="44.49057" lon="6.20033">
        <ele>1333</ele>
        <time>2025-11-21T12:09:49.000Z</time>
      </trkpt>
      <trkpt lat="44.49058" lon="6.20034">
        <ele>1333</ele>
        <time>2025-11-21T12:09:50.000Z</time>
      </trkpt>
      <trkpt lat="44.49059" lon="6.20036">
        <ele>1333</ele>
        <time>2025-11-21T12:09:51.000Z</time>
      </trkpt>
      <trkpt lat="44.4906" lon="6.20036">
        <ele>1333</ele>
        <time>2025-11-21T12:09:52.000Z</time>
      </trkpt>
      <trkpt lat="44.49061" lon="6.20037">
        <ele>1332</ele>
        <time>2025-11-21T12:09:53.000Z</time>
      </trkpt>
      <trkpt lat="44.49062" lon="6.20038">
        <ele>1332</ele>
        <time>2025-11-21T12:09:54.000Z</time>
      </trkpt>
      <trkpt lat="44.49062" lon="6.20039">
        <ele>1332</ele>
        <time>2025-11-21T12:09:55.000Z</time>
      </trkpt>
      <trkpt lat="44.49063" lon="6.2004">
        <ele>1332</ele>
        <time>2025-11-21T12:09:56.000Z</time>
      </trkpt>
      <trkpt lat="44.49063" lon="6.20042">
        <ele>1332</ele>
        <time>2025-11-21T12:09:57.000Z</time>
      </trkpt>
      <trkpt lat="44.49064" lon="6.20042">
        <ele>1331</ele>
        <time>2025-11-21T12:09:58.000Z</time>
      </trkpt>
      <trkpt lat="44.49065" lon="6.20043">
        <ele>1331</ele>
        <time>2025-11-21T12:09:59.000Z</time>
      </trkpt>
      <trkpt lat="44.49066" lon="6.20045">
        <ele>1331</ele>
        <time>2025-11-21T12:10:00.000Z</time>
      </trkpt>
      <trkpt lat="44.49067" lon="6.20046">
        <ele>1331</ele>
        <time>2025-11-21T12:10:01.000Z</time>
      </trkpt>
      <trkpt lat="44.49068" lon="6.20048">
        <ele>1332</ele>
        <time>2025-11-21T12:10:02.000Z</time>
      </trkpt>
      <trkpt lat="44.49068" lon="6.20049">
        <ele>1332</ele>
        <time>2025-11-21T12:10:03.000Z</time>
      </trkpt>
      <trkpt lat="44.49069" lon="6.20051">
        <ele>1333</ele>
        <time>2025-11-21T12:10:04.000Z</time>
      </trkpt>
      <trkpt lat="44.49069" lon="6.20053">
        <ele>1333</ele>
        <time>2025-11-21T12:10:05.000Z</time>
      </trkpt>
      <trkpt lat="44.49071" lon="6.20055">
        <ele>1334</ele>
        <time>2025-11-21T12:10:06.000Z</time>
      </trkpt>
      <trkpt lat="44.49071" lon="6.20056">
        <ele>1334</ele>
        <time>2025-11-21T12:10:07.000Z</time>
      </trkpt>
      <trkpt lat="44.49072" lon="6.20058">
        <ele>1334</ele>
        <time>2025-11-21T12:10:08.000Z</time>
      </trkpt>
      <trkpt lat="44.49072" lon="6.2006">
        <ele>1334</ele>
        <time>2025-11-21T12:10:09.000Z</time>
      </trkpt>
      <trkpt lat="44.49073" lon="6.20061">
        <ele>1334</ele>
        <time>2025-11-21T12:10:10.000Z</time>
      </trkpt>
      <trkpt lat="44.49073" lon="6.20063">
        <ele>1334</ele>
        <time>2025-11-21T12:10:11.000Z</time>
      </trkpt>
      <trkpt lat="44.49074" lon="6.20065">
        <ele>1334</ele>
        <time>2025-11-21T12:10:12.000Z</time>
      </trkpt>
      <trkpt lat="44.49075" lon="6.20066">
        <ele>1334</ele>
        <time>2025-11-21T12:10:13.000Z</time>
      </trkpt>
      <trkpt lat="44.49075" lon="6.20067">
        <ele>1334</ele>
        <time>2025-11-21T12:10:14.000Z</time>
      </trkpt>
      <trkpt lat="44.49076" lon="6.20068">
        <ele>1334</ele>
        <time>2025-11-21T12:10:15.000Z</time>
      </trkpt>
      <trkpt lat="44.49077" lon="6.20069">
        <ele>1333</ele>
        <time>2025-11-21T12:10:16.000Z</time>
      </trkpt>
      <trkpt lat="44.49078" lon="6.20071">
        <ele>1333</ele>
        <time>2025-11-21T12:10:17.000Z</time>
      </trkpt>
      <trkpt lat="44.49078" lon="6.20073">
        <ele>1333</ele>
        <time>2025-11-21T12:10:18.000Z</time>
      </trkpt>
      <trkpt lat="44.49079" lon="6.20074">
        <ele>1333</ele>
        <time>2025-11-21T12:10:19.000Z</time>
      </trkpt>
      <trkpt lat="44.4908" lon="6.20076">
        <ele>1333</ele>
        <time>2025-11-21T12:10:20.000Z</time>
      </trkpt>
      <trkpt lat="44.49081" lon="6.20077">
        <ele>1333</ele>
        <time>2025-11-21T12:10:21.000Z</time>
      </trkpt>
      <trkpt lat="44.49081" lon="6.20077">
        <ele>1334</ele>
        <time>2025-11-21T12:10:22.000Z</time>
      </trkpt>
      <trkpt lat="44.49082" lon="6.20078">
        <ele>1335</ele>
        <time>2025-11-21T12:10:23.000Z</time>
      </trkpt>
      <trkpt lat="44.49083" lon="6.2008">
        <ele>1335</ele>
        <time>2025-11-21T12:10:24.000Z</time>
      </trkpt>
      <trkpt lat="44.49084" lon="6.20081">
        <ele>1335</ele>
        <time>2025-11-21T12:10:25.000Z</time>
      </trkpt>
      <trkpt lat="44.49085" lon="6.2008">
        <ele>1335</ele>
        <time>2025-11-21T12:10:26.000Z</time>
      </trkpt>
      <trkpt lat="44.49086" lon="6.20081">
        <ele>1335</ele>
        <time>2025-11-21T12:10:27.000Z</time>
      </trkpt>
      <trkpt lat="44.49087" lon="6.20082">
        <ele>1335</ele>
        <time>2025-11-21T12:10:28.000Z</time>
      </trkpt>
      <trkpt lat="44.49087" lon="6.20084">
        <ele>1335</ele>
        <time>2025-11-21T12:10:29.000Z</time>
      </trkpt>
      <trkpt lat="44.49087" lon="6.20085">
        <ele>1335</ele>
        <time>2025-11-21T12:10:30.000Z</time>
      </trkpt>
      <trkpt lat="44.49087" lon="6.20086">
        <ele>1335</ele>
        <time>2025-11-21T12:10:31.000Z</time>
      </trkpt>
      <trkpt lat="44.49087" lon="6.20088">
        <ele>1335</ele>
        <time>2025-11-21T12:10:32.000Z</time>
      </trkpt>
      <trkpt lat="44.49087" lon="6.2009">
        <ele>1335</ele>
        <time>2025-11-21T12:10:33.000Z</time>
      </trkpt>
      <trkpt lat="44.49088" lon="6.20091">
        <ele>1335</ele>
        <time>2025-11-21T12:10:34.000Z</time>
      </trkpt>
      <trkpt lat="44.49089" lon="6.20093">
        <ele>1336</ele>
        <time>2025-11-21T12:10:35.000Z</time>
      </trkpt>
      <trkpt lat="44.49088" lon="6.20092">
        <ele>1336</ele>
        <time>2025-11-21T12:10:36.000Z</time>
      </trkpt>
      <trkpt lat="44.49088" lon="6.20093">
        <ele>1336</ele>
        <time>2025-11-21T12:10:37.000Z</time>
      </trkpt>
      <trkpt lat="44.49089" lon="6.20094">
        <ele>1336</ele>
        <time>2025-11-21T12:10:38.000Z</time>
      </trkpt>
      <trkpt lat="44.49089" lon="6.20095">
        <ele>1337</ele>
        <time>2025-11-21T12:10:39.000Z</time>
      </trkpt>
      <trkpt lat="44.4909" lon="6.20096">
        <ele>1336</ele>
        <time>2025-11-21T12:10:40.000Z</time>
      </trkpt>
      <trkpt lat="44.49091" lon="6.20097">
        <ele>1336</ele>
        <time>2025-11-21T12:10:41.000Z</time>
      </trkpt>
      <trkpt lat="44.49091" lon="6.20098">
        <ele>1336</ele>
        <time>2025-11-21T12:10:42.000Z</time>
      </trkpt>
      <trkpt lat="44.49091" lon="6.20099">
        <ele>1336</ele>
        <time>2025-11-21T12:10:43.000Z</time>
      </trkpt>
      <trkpt lat="44.49092" lon="6.20101">
        <ele>1337</ele>
        <time>2025-11-21T12:10:44.000Z</time>
      </trkpt>
      <trkpt lat="44.49093" lon="6.20103">
        <ele>1337</ele>
        <time>2025-11-21T12:10:45.000Z</time>
      </trkpt>
      <trkpt lat="44.49094" lon="6.20104">
        <ele>1336</ele>
        <time>2025-11-21T12:10:46.000Z</time>
      </trkpt>
      <trkpt lat="44.49095" lon="6.20106">
        <ele>1335</ele>
        <time>2025-11-21T12:10:47.000Z</time>
      </trkpt>
      <trkpt lat="44.49095" lon="6.20107">
        <ele>1335</ele>
        <time>2025-11-21T12:10:48.000Z</time>
      </trkpt>
      <trkpt lat="44.49096" lon="6.20109">
        <ele>1335</ele>
        <time>2025-11-21T12:10:49.000Z</time>
      </trkpt>
      <trkpt lat="44.49098" lon="6.2011">
        <ele>1334</ele>
        <time>2025-11-21T12:10:50.000Z</time>
      </trkpt>
      <trkpt lat="44.49098" lon="6.20111">
        <ele>1334</ele>
        <time>2025-11-21T12:10:51.000Z</time>
      </trkpt>
      <trkpt lat="44.49099" lon="6.20112">
        <ele>1334</ele>
        <time>2025-11-21T12:10:52.000Z</time>
      </trkpt>
      <trkpt lat="44.49101" lon="6.20114">
        <ele>1334</ele>
        <time>2025-11-21T12:10:53.000Z</time>
      </trkpt>
      <trkpt lat="44.49101" lon="6.20116">
        <ele>1334</ele>
        <time>2025-11-21T12:10:54.000Z</time>
      </trkpt>
      <trkpt lat="44.49102" lon="6.20118">
        <ele>1334</ele>
        <time>2025-11-21T12:10:55.000Z</time>
      </trkpt>
      <trkpt lat="44.49102" lon="6.2012">
        <ele>1334</ele>
        <time>2025-11-21T12:10:56.000Z</time>
      </trkpt>
      <trkpt lat="44.49103" lon="6.20122">
        <ele>1335</ele>
        <time>2025-11-21T12:10:57.000Z</time>
      </trkpt>
      <trkpt lat="44.49103" lon="6.20122">
        <ele>1335</ele>
        <time>2025-11-21T12:10:58.000Z</time>
      </trkpt>
      <trkpt lat="44.49104" lon="6.20123">
        <ele>1335</ele>
        <time>2025-11-21T12:10:59.000Z</time>
      </trkpt>
      <trkpt lat="44.49104" lon="6.20124">
        <ele>1335</ele>
        <time>2025-11-21T12:11:00.000Z</time>
      </trkpt>
      <trkpt lat="44.49104" lon="6.20126">
        <ele>1335</ele>
        <time>2025-11-21T12:11:01.000Z</time>
      </trkpt>
      <trkpt lat="44.49105" lon="6.20128">
        <ele>1335</ele>
        <time>2025-11-21T12:11:02.000Z</time>
      </trkpt>
      <trkpt lat="44.49106" lon="6.2013">
        <ele>1335</ele>
        <time>2025-11-21T12:11:03.000Z</time>
      </trkpt>
      <trkpt lat="44.49106" lon="6.20131">
        <ele>1335</ele>
        <time>2025-11-21T12:11:04.000Z</time>
      </trkpt>
      <trkpt lat="44.49107" lon="6.20133">
        <ele>1335</ele>
        <time>2025-11-21T12:11:05.000Z</time>
      </trkpt>
      <trkpt lat="44.49107" lon="6.20135">
        <ele>1335</ele>
        <time>2025-11-21T12:11:06.000Z</time>
      </trkpt>
      <trkpt lat="44.49108" lon="6.20136">
        <ele>1335</ele>
        <time>2025-11-21T12:11:07.000Z</time>
      </trkpt>
      <trkpt lat="44.49109" lon="6.20136">
        <ele>1336</ele>
        <time>2025-11-21T12:11:08.000Z</time>
      </trkpt>
      <trkpt lat="44.49109" lon="6.20137">
        <ele>1336</ele>
        <time>2025-11-21T12:11:09.000Z</time>
      </trkpt>
      <trkpt lat="44.4911" lon="6.20139">
        <ele>1336</ele>
        <time>2025-11-21T12:11:10.000Z</time>
      </trkpt>
      <trkpt lat="44.49111" lon="6.2014">
        <ele>1337</ele>
        <time>2025-11-21T12:11:11.000Z</time>
      </trkpt>
      <trkpt lat="44.49111" lon="6.20141">
        <ele>1337</ele>
        <time>2025-11-21T12:11:12.000Z</time>
      </trkpt>
      <trkpt lat="44.49112" lon="6.20142">
        <ele>1337</ele>
        <time>2025-11-21T12:11:13.000Z</time>
      </trkpt>
      <trkpt lat="44.49112" lon="6.20144">
        <ele>1336</ele>
        <time>2025-11-21T12:11:14.000Z</time>
      </trkpt>
      <trkpt lat="44.49113" lon="6.20144">
        <ele>1336</ele>
        <time>2025-11-21T12:11:15.000Z</time>
      </trkpt>
      <trkpt lat="44.49114" lon="6.20146">
        <ele>1335</ele>
        <time>2025-11-21T12:11:16.000Z</time>
      </trkpt>
      <trkpt lat="44.49115" lon="6.20147">
        <ele>1335</ele>
        <time>2025-11-21T12:11:17.000Z</time>
      </trkpt>
      <trkpt lat="44.49116" lon="6.20148">
        <ele>1335</ele>
        <time>2025-11-21T12:11:18.000Z</time>
      </trkpt>
      <trkpt lat="44.49117" lon="6.2015">
        <ele>1335</ele>
        <time>2025-11-21T12:11:19.000Z</time>
      </trkpt>
      <trkpt lat="44.49118" lon="6.20152">
        <ele>1335</ele>
        <time>2025-11-21T12:11:20.000Z</time>
      </trkpt>
      <trkpt lat="44.49118" lon="6.20154">
        <ele>1335</ele>
        <time>2025-11-21T12:11:21.000Z</time>
      </trkpt>
      <trkpt lat="44.49118" lon="6.20156">
        <ele>1335</ele>
        <time>2025-11-21T12:11:22.000Z</time>
      </trkpt>
      <trkpt lat="44.49119" lon="6.20158">
        <ele>1336</ele>
        <time>2025-11-21T12:11:23.000Z</time>
      </trkpt>
      <trkpt lat="44.4912" lon="6.2016">
        <ele>1336</ele>
        <time>2025-11-21T12:11:24.000Z</time>
      </trkpt>
      <trkpt lat="44.4912" lon="6.20161">
        <ele>1336</ele>
        <time>2025-11-21T12:11:25.000Z</time>
      </trkpt>
      <trkpt lat="44.49122" lon="6.20163">
        <ele>1336</ele>
        <time>2025-11-21T12:11:26.000Z</time>
      </trkpt>
      <trkpt lat="44.49123" lon="6.20164">
        <ele>1336</ele>
        <time>2025-11-21T12:11:27.000Z</time>
      </trkpt>
      <trkpt lat="44.49123" lon="6.20165">
        <ele>1336</ele>
        <time>2025-11-21T12:11:28.000Z</time>
      </trkpt>
      <trkpt lat="44.49124" lon="6.20167">
        <ele>1337</ele>
        <time>2025-11-21T12:11:29.000Z</time>
      </trkpt>
      <trkpt lat="44.49124" lon="6.20169">
        <ele>1337</ele>
        <time>2025-11-21T12:11:30.000Z</time>
      </trkpt>
      <trkpt lat="44.49125" lon="6.2017">
        <ele>1337</ele>
        <time>2025-11-21T12:11:31.000Z</time>
      </trkpt>
      <trkpt lat="44.49124" lon="6.20171">
        <ele>1337</ele>
        <time>2025-11-21T12:11:32.000Z</time>
      </trkpt>
      <trkpt lat="44.49125" lon="6.20172">
        <ele>1337</ele>
        <time>2025-11-21T12:11:33.000Z</time>
      </trkpt>
      <trkpt lat="44.49124" lon="6.20172">
        <ele>1337</ele>
        <time>2025-11-21T12:11:34.000Z</time>
      </trkpt>
      <trkpt lat="44.49123" lon="6.20173">
        <ele>1338</ele>
        <time>2025-11-21T12:11:35.000Z</time>
      </trkpt>
      <trkpt lat="44.49124" lon="6.20174">
        <ele>1338</ele>
        <time>2025-11-21T12:11:36.000Z</time>
      </trkpt>
      <trkpt lat="44.49124" lon="6.20176">
        <ele>1338</ele>
        <time>2025-11-21T12:11:37.000Z</time>
      </trkpt>
      <trkpt lat="44.49125" lon="6.20177">
        <ele>1338</ele>
        <time>2025-11-21T12:11:38.000Z</time>
      </trkpt>
      <trkpt lat="44.49126" lon="6.20178">
        <ele>1338</ele>
        <time>2025-11-21T12:11:39.000Z</time>
      </trkpt>
      <trkpt lat="44.49126" lon="6.2018">
        <ele>1339</ele>
        <time>2025-11-21T12:11:40.000Z</time>
      </trkpt>
      <trkpt lat="44.49127" lon="6.20181">
        <ele>1338</ele>
        <time>2025-11-21T12:11:41.000Z</time>
      </trkpt>
      <trkpt lat="44.49127" lon="6.20182">
        <ele>1338</ele>
        <time>2025-11-21T12:11:42.000Z</time>
      </trkpt>
      <trkpt lat="44.49128" lon="6.20184">
        <ele>1337</ele>
        <time>2025-11-21T12:11:43.000Z</time>
      </trkpt>
      <trkpt lat="44.49128" lon="6.20185">
        <ele>1337</ele>
        <time>2025-11-21T12:11:44.000Z</time>
      </trkpt>
      <trkpt lat="44.49128" lon="6.20185">
        <ele>1337</ele>
        <time>2025-11-21T12:11:45.000Z</time>
      </trkpt>
      <trkpt lat="44.49129" lon="6.20187">
        <ele>1336</ele>
        <time>2025-11-21T12:11:46.000Z</time>
      </trkpt>
      <trkpt lat="44.49129" lon="6.20188">
        <ele>1336</ele>
        <time>2025-11-21T12:11:47.000Z</time>
      </trkpt>
      <trkpt lat="44.49129" lon="6.20188">
        <ele>1336</ele>
        <time>2025-11-21T12:11:48.000Z</time>
      </trkpt>
      <trkpt lat="44.4913" lon="6.2019">
        <ele>1337</ele>
        <time>2025-11-21T12:11:49.000Z</time>
      </trkpt>
      <trkpt lat="44.4913" lon="6.20191">
        <ele>1337</ele>
        <time>2025-11-21T12:11:50.000Z</time>
      </trkpt>
      <trkpt lat="44.49131" lon="6.20192">
        <ele>1338</ele>
        <time>2025-11-21T12:11:51.000Z</time>
      </trkpt>
      <trkpt lat="44.49131" lon="6.20193">
        <ele>1338</ele>
        <time>2025-11-21T12:11:52.000Z</time>
      </trkpt>
      <trkpt lat="44.49132" lon="6.20195">
        <ele>1338</ele>
        <time>2025-11-21T12:11:53.000Z</time>
      </trkpt>
      <trkpt lat="44.49133" lon="6.20197">
        <ele>1338</ele>
        <time>2025-11-21T12:11:54.000Z</time>
      </trkpt>
      <trkpt lat="44.49133" lon="6.20199">
        <ele>1338</ele>
        <time>2025-11-21T12:11:55.000Z</time>
      </trkpt>
      <trkpt lat="44.49133" lon="6.20201">
        <ele>1338</ele>
        <time>2025-11-21T12:11:56.000Z</time>
      </trkpt>
      <trkpt lat="44.49134" lon="6.20202">
        <ele>1338</ele>
        <time>2025-11-21T12:11:57.000Z</time>
      </trkpt>
      <trkpt lat="44.49134" lon="6.20203">
        <ele>1338</ele>
        <time>2025-11-21T12:11:58.000Z</time>
      </trkpt>
      <trkpt lat="44.49134" lon="6.20205">
        <ele>1339</ele>
        <time>2025-11-21T12:11:59.000Z</time>
      </trkpt>
      <trkpt lat="44.49134" lon="6.20206">
        <ele>1340</ele>
        <time>2025-11-21T12:12:00.000Z</time>
      </trkpt>
      <trkpt lat="44.49135" lon="6.20208">
        <ele>1340</ele>
        <time>2025-11-21T12:12:01.000Z</time>
      </trkpt>
      <trkpt lat="44.49135" lon="6.2021">
        <ele>1340</ele>
        <time>2025-11-21T12:12:02.000Z</time>
      </trkpt>
      <trkpt lat="44.49136" lon="6.20213">
        <ele>1340</ele>
        <time>2025-11-21T12:12:03.000Z</time>
      </trkpt>
      <trkpt lat="44.49136" lon="6.20214">
        <ele>1340</ele>
        <time>2025-11-21T12:12:04.000Z</time>
      </trkpt>
      <trkpt lat="44.49137" lon="6.20215">
        <ele>1340</ele>
        <time>2025-11-21T12:12:05.000Z</time>
      </trkpt>
      <trkpt lat="44.49138" lon="6.20216">
        <ele>1340</ele>
        <time>2025-11-21T12:12:06.000Z</time>
      </trkpt>
      <trkpt lat="44.49138" lon="6.20217">
        <ele>1340</ele>
        <time>2025-11-21T12:12:07.000Z</time>
      </trkpt>
      <trkpt lat="44.49138" lon="6.20218">
        <ele>1340</ele>
        <time>2025-11-21T12:12:08.000Z</time>
      </trkpt>
      <trkpt lat="44.49139" lon="6.20219">
        <ele>1341</ele>
        <time>2025-11-21T12:12:09.000Z</time>
      </trkpt>
      <trkpt lat="44.49139" lon="6.2022">
        <ele>1340</ele>
        <time>2025-11-21T12:12:10.000Z</time>
      </trkpt>
      <trkpt lat="44.4914" lon="6.20223">
        <ele>1341</ele>
        <time>2025-11-21T12:12:11.000Z</time>
      </trkpt>
      <trkpt lat="44.49141" lon="6.20224">
        <ele>1341</ele>
        <time>2025-11-21T12:12:12.000Z</time>
      </trkpt>
      <trkpt lat="44.49141" lon="6.20225">
        <ele>1343</ele>
        <time>2025-11-21T12:12:13.000Z</time>
      </trkpt>
      <trkpt lat="44.49142" lon="6.20226">
        <ele>1343</ele>
        <time>2025-11-21T12:12:14.000Z</time>
      </trkpt>
      <trkpt lat="44.49143" lon="6.20226">
        <ele>1343</ele>
        <time>2025-11-21T12:12:15.000Z</time>
      </trkpt>
      <trkpt lat="44.49143" lon="6.20228">
        <ele>1343</ele>
        <time>2025-11-21T12:12:16.000Z</time>
      </trkpt>
      <trkpt lat="44.49144" lon="6.20228">
        <ele>1343</ele>
        <time>2025-11-21T12:12:17.000Z</time>
      </trkpt>
      <trkpt lat="44.49144" lon="6.2023">
        <ele>1342</ele>
        <time>2025-11-21T12:12:18.000Z</time>
      </trkpt>
      <trkpt lat="44.49145" lon="6.20232">
        <ele>1343</ele>
        <time>2025-11-21T12:12:19.000Z</time>
      </trkpt>
      <trkpt lat="44.49145" lon="6.20233">
        <ele>1343</ele>
        <time>2025-11-21T12:12:20.000Z</time>
      </trkpt>
      <trkpt lat="44.49146" lon="6.20234">
        <ele>1343</ele>
        <time>2025-11-21T12:12:21.000Z</time>
      </trkpt>
      <trkpt lat="44.49147" lon="6.20234">
        <ele>1343</ele>
        <time>2025-11-21T12:12:22.000Z</time>
      </trkpt>
      <trkpt lat="44.49147" lon="6.20235">
        <ele>1343</ele>
        <time>2025-11-21T12:12:23.000Z</time>
      </trkpt>
      <trkpt lat="44.49148" lon="6.20236">
        <ele>1343</ele>
        <time>2025-11-21T12:12:24.000Z</time>
      </trkpt>
      <trkpt lat="44.49149" lon="6.20239">
        <ele>1343</ele>
        <time>2025-11-21T12:12:25.000Z</time>
      </trkpt>
      <trkpt lat="44.49149" lon="6.20241">
        <ele>1343</ele>
        <time>2025-11-21T12:12:26.000Z</time>
      </trkpt>
      <trkpt lat="44.4915" lon="6.20242">
        <ele>1343</ele>
        <time>2025-11-21T12:12:27.000Z</time>
      </trkpt>
      <trkpt lat="44.4915" lon="6.20243">
        <ele>1343</ele>
        <time>2025-11-21T12:12:28.000Z</time>
      </trkpt>
      <trkpt lat="44.49151" lon="6.20245">
        <ele>1343</ele>
        <time>2025-11-21T12:12:29.000Z</time>
      </trkpt>
      <trkpt lat="44.49152" lon="6.20246">
        <ele>1344</ele>
        <time>2025-11-21T12:12:30.000Z</time>
      </trkpt>
      <trkpt lat="44.49152" lon="6.20247">
        <ele>1344</ele>
        <time>2025-11-21T12:12:31.000Z</time>
      </trkpt>
      <trkpt lat="44.49153" lon="6.20248">
        <ele>1345</ele>
        <time>2025-11-21T12:12:32.000Z</time>
      </trkpt>
      <trkpt lat="44.49154" lon="6.20249">
        <ele>1345</ele>
        <time>2025-11-21T12:12:33.000Z</time>
      </trkpt>
      <trkpt lat="44.49155" lon="6.20249">
        <ele>1344</ele>
        <time>2025-11-21T12:12:34.000Z</time>
      </trkpt>
      <trkpt lat="44.49156" lon="6.2025">
        <ele>1343</ele>
        <time>2025-11-21T12:12:35.000Z</time>
      </trkpt>
      <trkpt lat="44.49156" lon="6.20251">
        <ele>1343</ele>
        <time>2025-11-21T12:12:36.000Z</time>
      </trkpt>
      <trkpt lat="44.49157" lon="6.20253">
        <ele>1343</ele>
        <time>2025-11-21T12:12:37.000Z</time>
      </trkpt>
      <trkpt lat="44.49158" lon="6.20254">
        <ele>1343</ele>
        <time>2025-11-21T12:12:38.000Z</time>
      </trkpt>
      <trkpt lat="44.49159" lon="6.20255">
        <ele>1344</ele>
        <time>2025-11-21T12:12:39.000Z</time>
      </trkpt>
      <trkpt lat="44.49159" lon="6.20256">
        <ele>1344</ele>
        <time>2025-11-21T12:12:40.000Z</time>
      </trkpt>
      <trkpt lat="44.49159" lon="6.20257">
        <ele>1345</ele>
        <time>2025-11-21T12:12:41.000Z</time>
      </trkpt>
      <trkpt lat="44.4916" lon="6.20257">
        <ele>1345</ele>
        <time>2025-11-21T12:12:42.000Z</time>
      </trkpt>
      <trkpt lat="44.49161" lon="6.20257">
        <ele>1345</ele>
        <time>2025-11-21T12:12:43.000Z</time>
      </trkpt>
      <trkpt lat="44.49162" lon="6.20258">
        <ele>1345</ele>
        <time>2025-11-21T12:12:44.000Z</time>
      </trkpt>
      <trkpt lat="44.49163" lon="6.20259">
        <ele>1345</ele>
        <time>2025-11-21T12:12:45.000Z</time>
      </trkpt>
      <trkpt lat="44.49164" lon="6.20261">
        <ele>1346</ele>
        <time>2025-11-21T12:12:46.000Z</time>
      </trkpt>
      <trkpt lat="44.49165" lon="6.20262">
        <ele>1346</ele>
        <time>2025-11-21T12:12:47.000Z</time>
      </trkpt>
      <trkpt lat="44.49166" lon="6.20263">
        <ele>1346</ele>
        <time>2025-11-21T12:12:48.000Z</time>
      </trkpt>
      <trkpt lat="44.49167" lon="6.20263">
        <ele>1346</ele>
        <time>2025-11-21T12:12:49.000Z</time>
      </trkpt>
      <trkpt lat="44.49168" lon="6.20263">
        <ele>1346</ele>
        <time>2025-11-21T12:12:50.000Z</time>
      </trkpt>
      <trkpt lat="44.49168" lon="6.20264">
        <ele>1346</ele>
        <time>2025-11-21T12:12:51.000Z</time>
      </trkpt>
      <trkpt lat="44.49169" lon="6.20265">
        <ele>1346</ele>
        <time>2025-11-21T12:12:52.000Z</time>
      </trkpt>
      <trkpt lat="44.49169" lon="6.20267">
        <ele>1347</ele>
        <time>2025-11-21T12:12:53.000Z</time>
      </trkpt>
      <trkpt lat="44.4917" lon="6.20268">
        <ele>1348</ele>
        <time>2025-11-21T12:12:54.000Z</time>
      </trkpt>
      <trkpt lat="44.49171" lon="6.20268">
        <ele>1347</ele>
        <time>2025-11-21T12:12:55.000Z</time>
      </trkpt>
      <trkpt lat="44.49172" lon="6.2027">
        <ele>1348</ele>
        <time>2025-11-21T12:12:56.000Z</time>
      </trkpt>
      <trkpt lat="44.49173" lon="6.20271">
        <ele>1348</ele>
        <time>2025-11-21T12:12:57.000Z</time>
      </trkpt>
      <trkpt lat="44.49174" lon="6.20272">
        <ele>1348</ele>
        <time>2025-11-21T12:12:58.000Z</time>
      </trkpt>
      <trkpt lat="44.49175" lon="6.20273">
        <ele>1348</ele>
        <time>2025-11-21T12:12:59.000Z</time>
      </trkpt>
      <trkpt lat="44.49177" lon="6.20274">
        <ele>1348</ele>
        <time>2025-11-21T12:13:00.000Z</time>
      </trkpt>
      <trkpt lat="44.49178" lon="6.20274">
        <ele>1348</ele>
        <time>2025-11-21T12:13:01.000Z</time>
      </trkpt>
      <trkpt lat="44.49179" lon="6.20275">
        <ele>1348</ele>
        <time>2025-11-21T12:13:02.000Z</time>
      </trkpt>
      <trkpt lat="44.49179" lon="6.20277">
        <ele>1348</ele>
        <time>2025-11-21T12:13:03.000Z</time>
      </trkpt>
      <trkpt lat="44.49179" lon="6.20278">
        <ele>1348</ele>
        <time>2025-11-21T12:13:04.000Z</time>
      </trkpt>
      <trkpt lat="44.4918" lon="6.2028">
        <ele>1349</ele>
        <time>2025-11-21T12:13:05.000Z</time>
      </trkpt>
      <trkpt lat="44.49181" lon="6.20281">
        <ele>1350</ele>
        <time>2025-11-21T12:13:06.000Z</time>
      </trkpt>
      <trkpt lat="44.49182" lon="6.20282">
        <ele>1350</ele>
        <time>2025-11-21T12:13:07.000Z</time>
      </trkpt>
      <trkpt lat="44.49183" lon="6.20282">
        <ele>1349</ele>
        <time>2025-11-21T12:13:08.000Z</time>
      </trkpt>
      <trkpt lat="44.49184" lon="6.20284">
        <ele>1349</ele>
        <time>2025-11-21T12:13:09.000Z</time>
      </trkpt>
      <trkpt lat="44.49184" lon="6.20285">
        <ele>1349</ele>
        <time>2025-11-21T12:13:10.000Z</time>
      </trkpt>
      <trkpt lat="44.49186" lon="6.20286">
        <ele>1350</ele>
        <time>2025-11-21T12:13:11.000Z</time>
      </trkpt>
      <trkpt lat="44.49186" lon="6.20287">
        <ele>1350</ele>
        <time>2025-11-21T12:13:12.000Z</time>
      </trkpt>
      <trkpt lat="44.49187" lon="6.20288">
        <ele>1350</ele>
        <time>2025-11-21T12:13:13.000Z</time>
      </trkpt>
      <trkpt lat="44.49188" lon="6.20289">
        <ele>1350</ele>
        <time>2025-11-21T12:13:14.000Z</time>
      </trkpt>
      <trkpt lat="44.49188" lon="6.20291">
        <ele>1350</ele>
        <time>2025-11-21T12:13:15.000Z</time>
      </trkpt>
      <trkpt lat="44.49189" lon="6.20292">
        <ele>1351</ele>
        <time>2025-11-21T12:13:16.000Z</time>
      </trkpt>
      <trkpt lat="44.4919" lon="6.20293">
        <ele>1350</ele>
        <time>2025-11-21T12:13:17.000Z</time>
      </trkpt>
      <trkpt lat="44.49191" lon="6.20294">
        <ele>1350</ele>
        <time>2025-11-21T12:13:18.000Z</time>
      </trkpt>
      <trkpt lat="44.49191" lon="6.20295">
        <ele>1349</ele>
        <time>2025-11-21T12:13:19.000Z</time>
      </trkpt>
      <trkpt lat="44.49192" lon="6.20296">
        <ele>1349</ele>
        <time>2025-11-21T12:13:20.000Z</time>
      </trkpt>
      <trkpt lat="44.49194" lon="6.20297">
        <ele>1350</ele>
        <time>2025-11-21T12:13:21.000Z</time>
      </trkpt>
      <trkpt lat="44.49194" lon="6.20299">
        <ele>1350</ele>
        <time>2025-11-21T12:13:22.000Z</time>
      </trkpt>
      <trkpt lat="44.49195" lon="6.203">
        <ele>1350</ele>
        <time>2025-11-21T12:13:23.000Z</time>
      </trkpt>
      <trkpt lat="44.49195" lon="6.20302">
        <ele>1350</ele>
        <time>2025-11-21T12:13:24.000Z</time>
      </trkpt>
      <trkpt lat="44.49196" lon="6.20304">
        <ele>1351</ele>
        <time>2025-11-21T12:13:25.000Z</time>
      </trkpt>
      <trkpt lat="44.49196" lon="6.20305">
        <ele>1351</ele>
        <time>2025-11-21T12:13:26.000Z</time>
      </trkpt>
      <trkpt lat="44.49197" lon="6.20306">
        <ele>1351</ele>
        <time>2025-11-21T12:13:27.000Z</time>
      </trkpt>
      <trkpt lat="44.49198" lon="6.20307">
        <ele>1351</ele>
        <time>2025-11-21T12:13:28.000Z</time>
      </trkpt>
      <trkpt lat="44.49199" lon="6.20308">
        <ele>1351</ele>
        <time>2025-11-21T12:13:29.000Z</time>
      </trkpt>
      <trkpt lat="44.492" lon="6.20309">
        <ele>1351</ele>
        <time>2025-11-21T12:13:30.000Z</time>
      </trkpt>
      <trkpt lat="44.492" lon="6.20311">
        <ele>1351</ele>
        <time>2025-11-21T12:13:31.000Z</time>
      </trkpt>
      <trkpt lat="44.49201" lon="6.20313">
        <ele>1351</ele>
        <time>2025-11-21T12:13:32.000Z</time>
      </trkpt>
      <trkpt lat="44.49202" lon="6.20314">
        <ele>1353</ele>
        <time>2025-11-21T12:13:33.000Z</time>
      </trkpt>
      <trkpt lat="44.49202" lon="6.20315">
        <ele>1353</ele>
        <time>2025-11-21T12:13:34.000Z</time>
      </trkpt>
      <trkpt lat="44.49202" lon="6.20316">
        <ele>1354</ele>
        <time>2025-11-21T12:13:35.000Z</time>
      </trkpt>
      <trkpt lat="44.49202" lon="6.20317">
        <ele>1355</ele>
        <time>2025-11-21T12:13:36.000Z</time>
      </trkpt>
      <trkpt lat="44.49202" lon="6.20317">
        <ele>1357</ele>
        <time>2025-11-21T12:13:37.000Z</time>
      </trkpt>
      <trkpt lat="44.49202" lon="6.20316">
        <ele>1357</ele>
        <time>2025-11-21T12:13:38.000Z</time>
      </trkpt>
      <trkpt lat="44.49203" lon="6.20316">
        <ele>1357</ele>
        <time>2025-11-21T12:13:39.000Z</time>
      </trkpt>
      <trkpt lat="44.49204" lon="6.20315">
        <ele>1357</ele>
        <time>2025-11-21T12:14:47.000Z</time>
      </trkpt>
      <trkpt lat="44.49205" lon="6.20315">
        <ele>1357</ele>
        <time>2025-11-21T12:14:48.000Z</time>
      </trkpt>
      <trkpt lat="44.49206" lon="6.20316">
        <ele>1358</ele>
        <time>2025-11-21T12:14:49.000Z</time>
      </trkpt>
      <trkpt lat="44.49207" lon="6.20317">
        <ele>1357</ele>
        <time>2025-11-21T12:14:50.000Z</time>
      </trkpt>
      <trkpt lat="44.49207" lon="6.20317">
        <ele>1358</ele>
        <time>2025-11-21T12:14:51.000Z</time>
      </trkpt>
      <trkpt lat="44.49208" lon="6.20318">
        <ele>1358</ele>
        <time>2025-11-21T12:14:52.000Z</time>
      </trkpt>
      <trkpt lat="44.4921" lon="6.20318">
        <ele>1357</ele>
        <time>2025-11-21T12:14:53.000Z</time>
      </trkpt>
      <trkpt lat="44.49211" lon="6.20319">
        <ele>1358</ele>
        <time>2025-11-21T12:14:54.000Z</time>
      </trkpt>
      <trkpt lat="44.49212" lon="6.20319">
        <ele>1358</ele>
        <time>2025-11-21T12:14:55.000Z</time>
      </trkpt>
      <trkpt lat="44.49214" lon="6.20319">
        <ele>1358</ele>
        <time>2025-11-21T12:14:56.000Z</time>
      </trkpt>
      <trkpt lat="44.49215" lon="6.20319">
        <ele>1359</ele>
        <time>2025-11-21T12:14:57.000Z</time>
      </trkpt>
      <trkpt lat="44.49217" lon="6.2032">
        <ele>1359</ele>
        <time>2025-11-21T12:14:58.000Z</time>
      </trkpt>
      <trkpt lat="44.49219" lon="6.20321">
        <ele>1358</ele>
        <time>2025-11-21T12:14:59.000Z</time>
      </trkpt>
      <trkpt lat="44.4922" lon="6.20321">
        <ele>1359</ele>
        <time>2025-11-21T12:15:00.000Z</time>
      </trkpt>
      <trkpt lat="44.49221" lon="6.20322">
        <ele>1359</ele>
        <time>2025-11-21T12:15:01.000Z</time>
      </trkpt>
      <trkpt lat="44.49223" lon="6.20322">
        <ele>1358</ele>
        <time>2025-11-21T12:15:02.000Z</time>
      </trkpt>
      <trkpt lat="44.49224" lon="6.20322">
        <ele>1358</ele>
        <time>2025-11-21T12:15:03.000Z</time>
      </trkpt>
      <trkpt lat="44.49225" lon="6.20322">
        <ele>1357</ele>
        <time>2025-11-21T12:15:04.000Z</time>
      </trkpt>
      <trkpt lat="44.49225" lon="6.20322">
        <ele>1358</ele>
        <time>2025-11-21T12:15:05.000Z</time>
      </trkpt>
      <trkpt lat="44.49226" lon="6.20322">
        <ele>1358</ele>
        <time>2025-11-21T12:15:06.000Z</time>
      </trkpt>
      <trkpt lat="44.49228" lon="6.20323">
        <ele>1357</ele>
        <time>2025-11-21T12:15:07.000Z</time>
      </trkpt>
      <trkpt lat="44.49229" lon="6.20323">
        <ele>1357</ele>
        <time>2025-11-21T12:15:08.000Z</time>
      </trkpt>
      <trkpt lat="44.4923" lon="6.20324">
        <ele>1357</ele>
        <time>2025-11-21T12:15:09.000Z</time>
      </trkpt>
      <trkpt lat="44.49231" lon="6.20325">
        <ele>1358</ele>
        <time>2025-11-21T12:15:10.000Z</time>
      </trkpt>
      <trkpt lat="44.49232" lon="6.20326">
        <ele>1358</ele>
        <time>2025-11-21T12:15:11.000Z</time>
      </trkpt>
      <trkpt lat="44.49233" lon="6.20328">
        <ele>1358</ele>
        <time>2025-11-21T12:15:12.000Z</time>
      </trkpt>
      <trkpt lat="44.49235" lon="6.20328">
        <ele>1358</ele>
        <time>2025-11-21T12:15:13.000Z</time>
      </trkpt>
      <trkpt lat="44.49235" lon="6.20329">
        <ele>1358</ele>
        <time>2025-11-21T12:15:14.000Z</time>
      </trkpt>
      <trkpt lat="44.49236" lon="6.2033">
        <ele>1357</ele>
        <time>2025-11-21T12:15:15.000Z</time>
      </trkpt>
      <trkpt lat="44.49237" lon="6.2033">
        <ele>1357</ele>
        <time>2025-11-21T12:15:16.000Z</time>
      </trkpt>
      <trkpt lat="44.49239" lon="6.2033">
        <ele>1357</ele>
        <time>2025-11-21T12:15:17.000Z</time>
      </trkpt>
      <trkpt lat="44.49239" lon="6.20331">
        <ele>1357</ele>
        <time>2025-11-21T12:15:18.000Z</time>
      </trkpt>
      <trkpt lat="44.4924" lon="6.20332">
        <ele>1357</ele>
        <time>2025-11-21T12:15:19.000Z</time>
      </trkpt>
      <trkpt lat="44.49241" lon="6.20333">
        <ele>1357</ele>
        <time>2025-11-21T12:15:20.000Z</time>
      </trkpt>
      <trkpt lat="44.49242" lon="6.20334">
        <ele>1357</ele>
        <time>2025-11-21T12:15:21.000Z</time>
      </trkpt>
      <trkpt lat="44.49242" lon="6.20335">
        <ele>1358</ele>
        <time>2025-11-21T12:15:22.000Z</time>
      </trkpt>
      <trkpt lat="44.49243" lon="6.20336">
        <ele>1358</ele>
        <time>2025-11-21T12:15:23.000Z</time>
      </trkpt>
      <trkpt lat="44.49243" lon="6.20336">
        <ele>1358</ele>
        <time>2025-11-21T12:15:24.000Z</time>
      </trkpt>
      <trkpt lat="44.49245" lon="6.20338">
        <ele>1358</ele>
        <time>2025-11-21T12:15:25.000Z</time>
      </trkpt>
      <trkpt lat="44.49246" lon="6.20339">
        <ele>1358</ele>
        <time>2025-11-21T12:15:26.000Z</time>
      </trkpt>
      <trkpt lat="44.49248" lon="6.20339">
        <ele>1358</ele>
        <time>2025-11-21T12:15:27.000Z</time>
      </trkpt>
      <trkpt lat="44.49249" lon="6.2034">
        <ele>1359</ele>
        <time>2025-11-21T12:15:28.000Z</time>
      </trkpt>
      <trkpt lat="44.49251" lon="6.2034">
        <ele>1359</ele>
        <time>2025-11-21T12:15:29.000Z</time>
      </trkpt>
      <trkpt lat="44.49252" lon="6.2034">
        <ele>1359</ele>
        <time>2025-11-21T12:15:30.000Z</time>
      </trkpt>
      <trkpt lat="44.49253" lon="6.20341">
        <ele>1359</ele>
        <time>2025-11-21T12:15:31.000Z</time>
      </trkpt>
      <trkpt lat="44.49254" lon="6.20342">
        <ele>1359</ele>
        <time>2025-11-21T12:15:32.000Z</time>
      </trkpt>
      <trkpt lat="44.49255" lon="6.20343">
        <ele>1359</ele>
        <time>2025-11-21T12:15:33.000Z</time>
      </trkpt>
      <trkpt lat="44.49256" lon="6.20344">
        <ele>1359</ele>
        <time>2025-11-21T12:15:34.000Z</time>
      </trkpt>
      <trkpt lat="44.49258" lon="6.20345">
        <ele>1358</ele>
        <time>2025-11-21T12:15:35.000Z</time>
      </trkpt>
      <trkpt lat="44.49259" lon="6.20346">
        <ele>1357</ele>
        <time>2025-11-21T12:15:36.000Z</time>
      </trkpt>
      <trkpt lat="44.4926" lon="6.20346">
        <ele>1357</ele>
        <time>2025-11-21T12:15:37.000Z</time>
      </trkpt>
      <trkpt lat="44.49261" lon="6.20347">
        <ele>1357</ele>
        <time>2025-11-21T12:15:38.000Z</time>
      </trkpt>
      <trkpt lat="44.49262" lon="6.20349">
        <ele>1358</ele>
        <time>2025-11-21T12:15:39.000Z</time>
      </trkpt>
      <trkpt lat="44.49263" lon="6.20349">
        <ele>1358</ele>
        <time>2025-11-21T12:15:40.000Z</time>
      </trkpt>
      <trkpt lat="44.49264" lon="6.20349">
        <ele>1358</ele>
        <time>2025-11-21T12:15:41.000Z</time>
      </trkpt>
      <trkpt lat="44.49265" lon="6.20349">
        <ele>1358</ele>
        <time>2025-11-21T12:15:42.000Z</time>
      </trkpt>
      <trkpt lat="44.49266" lon="6.20349">
        <ele>1359</ele>
        <time>2025-11-21T12:15:43.000Z</time>
      </trkpt>
      <trkpt lat="44.49268" lon="6.20351">
        <ele>1359</ele>
        <time>2025-11-21T12:15:44.000Z</time>
      </trkpt>
      <trkpt lat="44.49269" lon="6.20351">
        <ele>1359</ele>
        <time>2025-11-21T12:15:45.000Z</time>
      </trkpt>
      <trkpt lat="44.4927" lon="6.20353">
        <ele>1360</ele>
        <time>2025-11-21T12:15:46.000Z</time>
      </trkpt>
      <trkpt lat="44.49271" lon="6.20355">
        <ele>1360</ele>
        <time>2025-11-21T12:15:47.000Z</time>
      </trkpt>
      <trkpt lat="44.49271" lon="6.20355">
        <ele>1360</ele>
        <time>2025-11-21T12:15:48.000Z</time>
      </trkpt>
      <trkpt lat="44.49272" lon="6.20357">
        <ele>1360</ele>
        <time>2025-11-21T12:15:49.000Z</time>
      </trkpt>
      <trkpt lat="44.49273" lon="6.20358">
        <ele>1360</ele>
        <time>2025-11-21T12:15:50.000Z</time>
      </trkpt>
      <trkpt lat="44.49274" lon="6.20359">
        <ele>1360</ele>
        <time>2025-11-21T12:15:51.000Z</time>
      </trkpt>
      <trkpt lat="44.49275" lon="6.20358">
        <ele>1360</ele>
        <time>2025-11-21T12:15:52.000Z</time>
      </trkpt>
      <trkpt lat="44.49276" lon="6.20358">
        <ele>1360</ele>
        <time>2025-11-21T12:15:53.000Z</time>
      </trkpt>
      <trkpt lat="44.49279" lon="6.20358">
        <ele>1361</ele>
        <time>2025-11-21T12:15:54.000Z</time>
      </trkpt>
      <trkpt lat="44.4928" lon="6.20359">
        <ele>1361</ele>
        <time>2025-11-21T12:15:55.000Z</time>
      </trkpt>
      <trkpt lat="44.49281" lon="6.20359">
        <ele>1361</ele>
        <time>2025-11-21T12:15:56.000Z</time>
      </trkpt>
      <trkpt lat="44.49283" lon="6.20359">
        <ele>1362</ele>
        <time>2025-11-21T12:15:57.000Z</time>
      </trkpt>
      <trkpt lat="44.49284" lon="6.20359">
        <ele>1362</ele>
        <time>2025-11-21T12:15:58.000Z</time>
      </trkpt>
      <trkpt lat="44.49285" lon="6.2036">
        <ele>1363</ele>
        <time>2025-11-21T12:15:59.000Z</time>
      </trkpt>
      <trkpt lat="44.49286" lon="6.20361">
        <ele>1363</ele>
        <time>2025-11-21T12:16:00.000Z</time>
      </trkpt>
      <trkpt lat="44.49286" lon="6.20361">
        <ele>1363</ele>
        <time>2025-11-21T12:16:01.000Z</time>
      </trkpt>
      <trkpt lat="44.49287" lon="6.20361">
        <ele>1363</ele>
        <time>2025-11-21T12:16:02.000Z</time>
      </trkpt>
      <trkpt lat="44.49288" lon="6.20362">
        <ele>1363</ele>
        <time>2025-11-21T12:16:03.000Z</time>
      </trkpt>
      <trkpt lat="44.49289" lon="6.20363">
        <ele>1363</ele>
        <time>2025-11-21T12:16:04.000Z</time>
      </trkpt>
      <trkpt lat="44.4929" lon="6.20364">
        <ele>1363</ele>
        <time>2025-11-21T12:16:05.000Z</time>
      </trkpt>
      <trkpt lat="44.49292" lon="6.20365">
        <ele>1362</ele>
        <time>2025-11-21T12:16:06.000Z</time>
      </trkpt>
      <trkpt lat="44.49293" lon="6.20366">
        <ele>1362</ele>
        <time>2025-11-21T12:16:07.000Z</time>
      </trkpt>
      <trkpt lat="44.49294" lon="6.20367">
        <ele>1362</ele>
        <time>2025-11-21T12:16:08.000Z</time>
      </trkpt>
      <trkpt lat="44.49295" lon="6.20369">
        <ele>1362</ele>
        <time>2025-11-21T12:16:09.000Z</time>
      </trkpt>
      <trkpt lat="44.49296" lon="6.20371">
        <ele>1362</ele>
        <time>2025-11-21T12:16:10.000Z</time>
      </trkpt>
      <trkpt lat="44.49295" lon="6.20373">
        <ele>1362</ele>
        <time>2025-11-21T12:16:11.000Z</time>
      </trkpt>
      <trkpt lat="44.49295" lon="6.20374">
        <ele>1362</ele>
        <time>2025-11-21T12:16:12.000Z</time>
      </trkpt>
      <trkpt lat="44.49296" lon="6.20375">
        <ele>1362</ele>
        <time>2025-11-21T12:16:13.000Z</time>
      </trkpt>
      <trkpt lat="44.49297" lon="6.20376">
        <ele>1363</ele>
        <time>2025-11-21T12:16:14.000Z</time>
      </trkpt>
      <trkpt lat="44.49297" lon="6.20377">
        <ele>1362</ele>
        <time>2025-11-21T12:16:15.000Z</time>
      </trkpt>
      <trkpt lat="44.49297" lon="6.2038">
        <ele>1363</ele>
        <time>2025-11-21T12:16:16.000Z</time>
      </trkpt>
      <trkpt lat="44.49298" lon="6.20381">
        <ele>1363</ele>
        <time>2025-11-21T12:16:17.000Z</time>
      </trkpt>
      <trkpt lat="44.49298" lon="6.20383">
        <ele>1363</ele>
        <time>2025-11-21T12:16:18.000Z</time>
      </trkpt>
      <trkpt lat="44.49299" lon="6.20385">
        <ele>1364</ele>
        <time>2025-11-21T12:16:19.000Z</time>
      </trkpt>
      <trkpt lat="44.493" lon="6.20387">
        <ele>1365</ele>
        <time>2025-11-21T12:16:20.000Z</time>
      </trkpt>
      <trkpt lat="44.493" lon="6.20389">
        <ele>1365</ele>
        <time>2025-11-21T12:16:21.000Z</time>
      </trkpt>
      <trkpt lat="44.493" lon="6.2039">
        <ele>1365</ele>
        <time>2025-11-21T12:16:22.000Z</time>
      </trkpt>
      <trkpt lat="44.49301" lon="6.20391">
        <ele>1365</ele>
        <time>2025-11-21T12:16:23.000Z</time>
      </trkpt>
      <trkpt lat="44.49302" lon="6.20392">
        <ele>1364</ele>
        <time>2025-11-21T12:16:24.000Z</time>
      </trkpt>
      <trkpt lat="44.49302" lon="6.20393">
        <ele>1364</ele>
        <time>2025-11-21T12:16:25.000Z</time>
      </trkpt>
      <trkpt lat="44.49303" lon="6.20394">
        <ele>1365</ele>
        <time>2025-11-21T12:16:26.000Z</time>
      </trkpt>
      <trkpt lat="44.49303" lon="6.20395">
        <ele>1365</ele>
        <time>2025-11-21T12:16:27.000Z</time>
      </trkpt>
      <trkpt lat="44.49304" lon="6.20396">
        <ele>1365</ele>
        <time>2025-11-21T12:16:28.000Z</time>
      </trkpt>
      <trkpt lat="44.49305" lon="6.20398">
        <ele>1366</ele>
        <time>2025-11-21T12:16:29.000Z</time>
      </trkpt>
      <trkpt lat="44.49306" lon="6.20398">
        <ele>1365</ele>
        <time>2025-11-21T12:16:30.000Z</time>
      </trkpt>
      <trkpt lat="44.49306" lon="6.20398">
        <ele>1365</ele>
        <time>2025-11-21T12:16:31.000Z</time>
      </trkpt>
      <trkpt lat="44.49306" lon="6.204">
        <ele>1365</ele>
        <time>2025-11-21T12:16:32.000Z</time>
      </trkpt>
      <trkpt lat="44.49307" lon="6.20401">
        <ele>1365</ele>
        <time>2025-11-21T12:16:33.000Z</time>
      </trkpt>
      <trkpt lat="44.49307" lon="6.20402">
        <ele>1365</ele>
        <time>2025-11-21T12:16:34.000Z</time>
      </trkpt>
      <trkpt lat="44.49307" lon="6.20404">
        <ele>1366</ele>
        <time>2025-11-21T12:16:35.000Z</time>
      </trkpt>
      <trkpt lat="44.49307" lon="6.20405">
        <ele>1366</ele>
        <time>2025-11-21T12:16:36.000Z</time>
      </trkpt>
      <trkpt lat="44.49307" lon="6.20406">
        <ele>1366</ele>
        <time>2025-11-21T12:16:37.000Z</time>
      </trkpt>
      <trkpt lat="44.49308" lon="6.20408">
        <ele>1366</ele>
        <time>2025-11-21T12:16:38.000Z</time>
      </trkpt>
      <trkpt lat="44.49308" lon="6.20409">
        <ele>1366</ele>
        <time>2025-11-21T12:16:39.000Z</time>
      </trkpt>
      <trkpt lat="44.49308" lon="6.2041">
        <ele>1366</ele>
        <time>2025-11-21T12:16:40.000Z</time>
      </trkpt>
      <trkpt lat="44.49309" lon="6.20412">
        <ele>1366</ele>
        <time>2025-11-21T12:16:41.000Z</time>
      </trkpt>
      <trkpt lat="44.49308" lon="6.20414">
        <ele>1366</ele>
        <time>2025-11-21T12:16:42.000Z</time>
      </trkpt>
      <trkpt lat="44.49308" lon="6.20415">
        <ele>1366</ele>
        <time>2025-11-21T12:16:43.000Z</time>
      </trkpt>
      <trkpt lat="44.49308" lon="6.20417">
        <ele>1366</ele>
        <time>2025-11-21T12:16:44.000Z</time>
      </trkpt>
      <trkpt lat="44.49309" lon="6.20418">
        <ele>1367</ele>
        <time>2025-11-21T12:16:45.000Z</time>
      </trkpt>
      <trkpt lat="44.49308" lon="6.2042">
        <ele>1367</ele>
        <time>2025-11-21T12:16:46.000Z</time>
      </trkpt>
      <trkpt lat="44.49309" lon="6.20422">
        <ele>1367</ele>
        <time>2025-11-21T12:16:47.000Z</time>
      </trkpt>
      <trkpt lat="44.49309" lon="6.20424">
        <ele>1367</ele>
        <time>2025-11-21T12:16:48.000Z</time>
      </trkpt>
      <trkpt lat="44.4931" lon="6.20425">
        <ele>1367</ele>
        <time>2025-11-21T12:16:49.000Z</time>
      </trkpt>
      <trkpt lat="44.4931" lon="6.20426">
        <ele>1367</ele>
        <time>2025-11-21T12:16:50.000Z</time>
      </trkpt>
      <trkpt lat="44.4931" lon="6.20427">
        <ele>1367</ele>
        <time>2025-11-21T12:16:51.000Z</time>
      </trkpt>
      <trkpt lat="44.4931" lon="6.20428">
        <ele>1367</ele>
        <time>2025-11-21T12:16:52.000Z</time>
      </trkpt>
      <trkpt lat="44.49311" lon="6.20428">
        <ele>1367</ele>
        <time>2025-11-21T12:16:53.000Z</time>
      </trkpt>
      <trkpt lat="44.49311" lon="6.20429">
        <ele>1367</ele>
        <time>2025-11-21T12:16:54.000Z</time>
      </trkpt>
      <trkpt lat="44.49311" lon="6.20431">
        <ele>1367</ele>
        <time>2025-11-21T12:16:55.000Z</time>
      </trkpt>
      <trkpt lat="44.49312" lon="6.20432">
        <ele>1367</ele>
        <time>2025-11-21T12:16:56.000Z</time>
      </trkpt>
      <trkpt lat="44.49312" lon="6.20433">
        <ele>1366</ele>
        <time>2025-11-21T12:16:57.000Z</time>
      </trkpt>
      <trkpt lat="44.49312" lon="6.20435">
        <ele>1367</ele>
        <time>2025-11-21T12:16:58.000Z</time>
      </trkpt>
      <trkpt lat="44.49312" lon="6.20437">
        <ele>1367</ele>
        <time>2025-11-21T12:16:59.000Z</time>
      </trkpt>
      <trkpt lat="44.49312" lon="6.20439">
        <ele>1367</ele>
        <time>2025-11-21T12:17:00.000Z</time>
      </trkpt>
      <trkpt lat="44.49312" lon="6.2044">
        <ele>1367</ele>
        <time>2025-11-21T12:17:01.000Z</time>
      </trkpt>
      <trkpt lat="44.49313" lon="6.20442">
        <ele>1367</ele>
        <time>2025-11-21T12:17:02.000Z</time>
      </trkpt>
      <trkpt lat="44.49314" lon="6.20444">
        <ele>1367</ele>
        <time>2025-11-21T12:17:03.000Z</time>
      </trkpt>
      <trkpt lat="44.49314" lon="6.20446">
        <ele>1367</ele>
        <time>2025-11-21T12:17:04.000Z</time>
      </trkpt>
      <trkpt lat="44.49315" lon="6.20447">
        <ele>1368</ele>
        <time>2025-11-21T12:17:05.000Z</time>
      </trkpt>
      <trkpt lat="44.49316" lon="6.20448">
        <ele>1368</ele>
        <time>2025-11-21T12:17:06.000Z</time>
      </trkpt>
      <trkpt lat="44.49316" lon="6.2045">
        <ele>1368</ele>
        <time>2025-11-21T12:17:07.000Z</time>
      </trkpt>
      <trkpt lat="44.49316" lon="6.2045">
        <ele>1367</ele>
        <time>2025-11-21T12:17:08.000Z</time>
      </trkpt>
      <trkpt lat="44.49317" lon="6.20451">
        <ele>1368</ele>
        <time>2025-11-21T12:17:09.000Z</time>
      </trkpt>
      <trkpt lat="44.49317" lon="6.20451">
        <ele>1369</ele>
        <time>2025-11-21T12:17:10.000Z</time>
      </trkpt>
      <trkpt lat="44.49317" lon="6.20452">
        <ele>1369</ele>
        <time>2025-11-21T12:17:11.000Z</time>
      </trkpt>
      <trkpt lat="44.49317" lon="6.20454">
        <ele>1369</ele>
        <time>2025-11-21T12:17:12.000Z</time>
      </trkpt>
      <trkpt lat="44.49318" lon="6.20457">
        <ele>1369</ele>
        <time>2025-11-21T12:17:13.000Z</time>
      </trkpt>
      <trkpt lat="44.49318" lon="6.20458">
        <ele>1368</ele>
        <time>2025-11-21T12:17:14.000Z</time>
      </trkpt>
      <trkpt lat="44.49319" lon="6.20458">
        <ele>1367</ele>
        <time>2025-11-21T12:17:15.000Z</time>
      </trkpt>
      <trkpt lat="44.4932" lon="6.20459">
        <ele>1367</ele>
        <time>2025-11-21T12:17:16.000Z</time>
      </trkpt>
      <trkpt lat="44.49321" lon="6.2046">
        <ele>1368</ele>
        <time>2025-11-21T12:17:17.000Z</time>
      </trkpt>
      <trkpt lat="44.49322" lon="6.20462">
        <ele>1368</ele>
        <time>2025-11-21T12:17:18.000Z</time>
      </trkpt>
      <trkpt lat="44.49323" lon="6.20463">
        <ele>1368</ele>
        <time>2025-11-21T12:17:19.000Z</time>
      </trkpt>
      <trkpt lat="44.49323" lon="6.20465">
        <ele>1367</ele>
        <time>2025-11-21T12:17:20.000Z</time>
      </trkpt>
      <trkpt lat="44.49324" lon="6.20466">
        <ele>1367</ele>
        <time>2025-11-21T12:17:21.000Z</time>
      </trkpt>
      <trkpt lat="44.49325" lon="6.20469">
        <ele>1367</ele>
        <time>2025-11-21T12:17:22.000Z</time>
      </trkpt>
      <trkpt lat="44.49326" lon="6.2047">
        <ele>1367</ele>
        <time>2025-11-21T12:17:23.000Z</time>
      </trkpt>
      <trkpt lat="44.49327" lon="6.20472">
        <ele>1368</ele>
        <time>2025-11-21T12:17:24.000Z</time>
      </trkpt>
      <trkpt lat="44.49327" lon="6.20472">
        <ele>1368</ele>
        <time>2025-11-21T12:17:25.000Z</time>
      </trkpt>
      <trkpt lat="44.49328" lon="6.20473">
        <ele>1368</ele>
        <time>2025-11-21T12:17:26.000Z</time>
      </trkpt>
      <trkpt lat="44.49328" lon="6.20474">
        <ele>1368</ele>
        <time>2025-11-21T12:17:27.000Z</time>
      </trkpt>
      <trkpt lat="44.49329" lon="6.20475">
        <ele>1368</ele>
        <time>2025-11-21T12:17:28.000Z</time>
      </trkpt>
      <trkpt lat="44.49329" lon="6.20475">
        <ele>1368</ele>
        <time>2025-11-21T12:17:29.000Z</time>
      </trkpt>
      <trkpt lat="44.49329" lon="6.20477">
        <ele>1369</ele>
        <time>2025-11-21T12:17:30.000Z</time>
      </trkpt>
      <trkpt lat="44.4933" lon="6.20479">
        <ele>1369</ele>
        <time>2025-11-21T12:17:31.000Z</time>
      </trkpt>
      <trkpt lat="44.4933" lon="6.20481">
        <ele>1369</ele>
        <time>2025-11-21T12:17:32.000Z</time>
      </trkpt>
      <trkpt lat="44.49331" lon="6.20483">
        <ele>1369</ele>
        <time>2025-11-21T12:17:33.000Z</time>
      </trkpt>
      <trkpt lat="44.49331" lon="6.20486">
        <ele>1369</ele>
        <time>2025-11-21T12:17:34.000Z</time>
      </trkpt>
      <trkpt lat="44.49331" lon="6.20487">
        <ele>1370</ele>
        <time>2025-11-21T12:17:35.000Z</time>
      </trkpt>
      <trkpt lat="44.49331" lon="6.20488">
        <ele>1370</ele>
        <time>2025-11-21T12:17:36.000Z</time>
      </trkpt>
      <trkpt lat="44.49332" lon="6.20489">
        <ele>1371</ele>
        <time>2025-11-21T12:17:37.000Z</time>
      </trkpt>
      <trkpt lat="44.49333" lon="6.2049">
        <ele>1371</ele>
        <time>2025-11-21T12:17:38.000Z</time>
      </trkpt>
      <trkpt lat="44.49334" lon="6.20492">
        <ele>1372</ele>
        <time>2025-11-21T12:17:39.000Z</time>
      </trkpt>
      <trkpt lat="44.49334" lon="6.20494">
        <ele>1372</ele>
        <time>2025-11-21T12:17:40.000Z</time>
      </trkpt>
      <trkpt lat="44.49335" lon="6.20496">
        <ele>1372</ele>
        <time>2025-11-21T12:17:41.000Z</time>
      </trkpt>
      <trkpt lat="44.49335" lon="6.20498">
        <ele>1373</ele>
        <time>2025-11-21T12:17:42.000Z</time>
      </trkpt>
      <trkpt lat="44.49335" lon="6.205">
        <ele>1373</ele>
        <time>2025-11-21T12:17:43.000Z</time>
      </trkpt>
      <trkpt lat="44.49336" lon="6.20501">
        <ele>1374</ele>
        <time>2025-11-21T12:17:44.000Z</time>
      </trkpt>
      <trkpt lat="44.49337" lon="6.20501">
        <ele>1374</ele>
        <time>2025-11-21T12:17:45.000Z</time>
      </trkpt>
      <trkpt lat="44.49338" lon="6.20502">
        <ele>1374</ele>
        <time>2025-11-21T12:17:46.000Z</time>
      </trkpt>
      <trkpt lat="44.49339" lon="6.20503">
        <ele>1374</ele>
        <time>2025-11-21T12:17:47.000Z</time>
      </trkpt>
      <trkpt lat="44.4934" lon="6.20504">
        <ele>1375</ele>
        <time>2025-11-21T12:17:48.000Z</time>
      </trkpt>
      <trkpt lat="44.49341" lon="6.20506">
        <ele>1374</ele>
        <time>2025-11-21T12:17:49.000Z</time>
      </trkpt>
      <trkpt lat="44.49341" lon="6.20507">
        <ele>1374</ele>
        <time>2025-11-21T12:17:50.000Z</time>
      </trkpt>
      <trkpt lat="44.49341" lon="6.20509">
        <ele>1375</ele>
        <time>2025-11-21T12:17:51.000Z</time>
      </trkpt>
      <trkpt lat="44.4934" lon="6.2051">
        <ele>1375</ele>
        <time>2025-11-21T12:17:52.000Z</time>
      </trkpt>
      <trkpt lat="44.4934" lon="6.20511">
        <ele>1374</ele>
        <time>2025-11-21T12:17:53.000Z</time>
      </trkpt>
      <trkpt lat="44.49341" lon="6.20512">
        <ele>1374</ele>
        <time>2025-11-21T12:17:54.000Z</time>
      </trkpt>
      <trkpt lat="44.49341" lon="6.20514">
        <ele>1375</ele>
        <time>2025-11-21T12:17:55.000Z</time>
      </trkpt>
      <trkpt lat="44.49341" lon="6.20515">
        <ele>1375</ele>
        <time>2025-11-21T12:17:56.000Z</time>
      </trkpt>
      <trkpt lat="44.49342" lon="6.20515">
        <ele>1375</ele>
        <time>2025-11-21T12:17:57.000Z</time>
      </trkpt>
      <trkpt lat="44.49342" lon="6.20515">
        <ele>1375</ele>
        <time>2025-11-21T12:17:58.000Z</time>
      </trkpt>
      <trkpt lat="44.49342" lon="6.20517">
        <ele>1375</ele>
        <time>2025-11-21T12:17:59.000Z</time>
      </trkpt>
      <trkpt lat="44.49342" lon="6.20519">
        <ele>1375</ele>
        <time>2025-11-21T12:18:00.000Z</time>
      </trkpt>
      <trkpt lat="44.49342" lon="6.20521">
        <ele>1375</ele>
        <time>2025-11-21T12:18:01.000Z</time>
      </trkpt>
      <trkpt lat="44.49342" lon="6.20523">
        <ele>1375</ele>
        <time>2025-11-21T12:18:02.000Z</time>
      </trkpt>
      <trkpt lat="44.49342" lon="6.20524">
        <ele>1374</ele>
        <time>2025-11-21T12:18:03.000Z</time>
      </trkpt>
      <trkpt lat="44.49343" lon="6.20527">
        <ele>1374</ele>
        <time>2025-11-21T12:18:04.000Z</time>
      </trkpt>
      <trkpt lat="44.49343" lon="6.20529">
        <ele>1373</ele>
        <time>2025-11-21T12:18:05.000Z</time>
      </trkpt>
      <trkpt lat="44.49344" lon="6.20531">
        <ele>1374</ele>
        <time>2025-11-21T12:18:06.000Z</time>
      </trkpt>
      <trkpt lat="44.49344" lon="6.20533">
        <ele>1373</ele>
        <time>2025-11-21T12:18:07.000Z</time>
      </trkpt>
      <trkpt lat="44.49344" lon="6.20535">
        <ele>1374</ele>
        <time>2025-11-21T12:18:08.000Z</time>
      </trkpt>
      <trkpt lat="44.49344" lon="6.20537">
        <ele>1374</ele>
        <time>2025-11-21T12:18:09.000Z</time>
      </trkpt>
      <trkpt lat="44.49345" lon="6.20539">
        <ele>1373</ele>
        <time>2025-11-21T12:18:10.000Z</time>
      </trkpt>
      <trkpt lat="44.49345" lon="6.2054">
        <ele>1373</ele>
        <time>2025-11-21T12:18:11.000Z</time>
      </trkpt>
      <trkpt lat="44.49345" lon="6.20542">
        <ele>1373</ele>
        <time>2025-11-21T12:18:12.000Z</time>
      </trkpt>
      <trkpt lat="44.49346" lon="6.20544">
        <ele>1373</ele>
        <time>2025-11-21T12:18:13.000Z</time>
      </trkpt>
      <trkpt lat="44.49347" lon="6.20545">
        <ele>1373</ele>
        <time>2025-11-21T12:18:14.000Z</time>
      </trkpt>
      <trkpt lat="44.49347" lon="6.20546">
        <ele>1372</ele>
        <time>2025-11-21T12:18:15.000Z</time>
      </trkpt>
      <trkpt lat="44.49347" lon="6.20547">
        <ele>1372</ele>
        <time>2025-11-21T12:18:16.000Z</time>
      </trkpt>
      <trkpt lat="44.49347" lon="6.2055">
        <ele>1372</ele>
        <time>2025-11-21T12:18:17.000Z</time>
      </trkpt>
      <trkpt lat="44.49346" lon="6.20551">
        <ele>1372</ele>
        <time>2025-11-21T12:18:18.000Z</time>
      </trkpt>
      <trkpt lat="44.49345" lon="6.20553">
        <ele>1373</ele>
        <time>2025-11-21T12:18:19.000Z</time>
      </trkpt>
      <trkpt lat="44.49346" lon="6.20553">
        <ele>1372</ele>
        <time>2025-11-21T12:18:20.000Z</time>
      </trkpt>
      <trkpt lat="44.49346" lon="6.20553">
        <ele>1372</ele>
        <time>2025-11-21T12:18:21.000Z</time>
      </trkpt>
      <trkpt lat="44.49347" lon="6.20554">
        <ele>1372</ele>
        <time>2025-11-21T12:18:22.000Z</time>
      </trkpt>
      <trkpt lat="44.49347" lon="6.20554">
        <ele>1372</ele>
        <time>2025-11-21T12:18:23.000Z</time>
      </trkpt>
      <trkpt lat="44.49347" lon="6.20556">
        <ele>1372</ele>
        <time>2025-11-21T12:18:24.000Z</time>
      </trkpt>
      <trkpt lat="44.49347" lon="6.20556">
        <ele>1371</ele>
        <time>2025-11-21T12:18:25.000Z</time>
      </trkpt>
      <trkpt lat="44.49348" lon="6.20556">
        <ele>1371</ele>
        <time>2025-11-21T12:18:26.000Z</time>
      </trkpt>
      <trkpt lat="44.49348" lon="6.20556">
        <ele>1371</ele>
        <time>2025-11-21T12:18:27.000Z</time>
      </trkpt>
      <trkpt lat="44.49348" lon="6.20556">
        <ele>1371</ele>
        <time>2025-11-21T12:18:28.000Z</time>
      </trkpt>
      <trkpt lat="44.49348" lon="6.20556">
        <ele>1371</ele>
        <time>2025-11-21T12:18:29.000Z</time>
      </trkpt>
      <trkpt lat="44.49348" lon="6.20556">
        <ele>1371</ele>
        <time>2025-11-21T12:18:30.000Z</time>
      </trkpt>
      <trkpt lat="44.49348" lon="6.20556">
        <ele>1371</ele>
        <time>2025-11-21T12:18:31.000Z</time>
      </trkpt>
      <trkpt lat="44.49348" lon="6.20556">
        <ele>1371</ele>
        <time>2025-11-21T12:18:32.000Z</time>
      </trkpt>
      <trkpt lat="44.49348" lon="6.20556">
        <ele>1371</ele>
        <time>2025-11-21T12:18:33.000Z</time>
      </trkpt>
      <trkpt lat="44.4935" lon="6.20557">
        <ele>1375</ele>
        <time>2025-11-21T12:18:34.000Z</time>
      </trkpt>
      <trkpt lat="44.4935" lon="6.20557">
        <ele>1375</ele>
        <time>2025-11-21T12:18:35.000Z</time>
      </trkpt>
      <trkpt lat="44.4935" lon="6.20558">
        <ele>1376</ele>
        <time>2025-11-21T12:18:36.000Z</time>
      </trkpt>
      <trkpt lat="44.4935" lon="6.20559">
        <ele>1375</ele>
        <time>2025-11-21T12:18:37.000Z</time>
      </trkpt>
      <trkpt lat="44.4935" lon="6.20559">
        <ele>1376</ele>
        <time>2025-11-21T12:18:38.000Z</time>
      </trkpt>
      <trkpt lat="44.49351" lon="6.2056">
        <ele>1377</ele>
        <time>2025-11-21T12:18:39.000Z</time>
      </trkpt>
      <trkpt lat="44.49351" lon="6.2056">
        <ele>1377</ele>
        <time>2025-11-21T12:18:40.000Z</time>
      </trkpt>
      <trkpt lat="44.49351" lon="6.20561">
        <ele>1377</ele>
        <time>2025-11-21T12:18:41.000Z</time>
      </trkpt>
      <trkpt lat="44.49352" lon="6.20563">
        <ele>1377</ele>
        <time>2025-11-21T12:18:42.000Z</time>
      </trkpt>
      <trkpt lat="44.49352" lon="6.20563">
        <ele>1377</ele>
        <time>2025-11-21T12:18:43.000Z</time>
      </trkpt>
      <trkpt lat="44.49352" lon="6.20564">
        <ele>1378</ele>
        <time>2025-11-21T12:18:44.000Z</time>
      </trkpt>
      <trkpt lat="44.49352" lon="6.20565">
        <ele>1379</ele>
        <time>2025-11-21T12:18:45.000Z</time>
      </trkpt>
      <trkpt lat="44.49352" lon="6.20565">
        <ele>1379</ele>
        <time>2025-11-21T12:18:46.000Z</time>
      </trkpt>
      <trkpt lat="44.49352" lon="6.20565">
        <ele>1378</ele>
        <time>2025-11-21T12:18:47.000Z</time>
      </trkpt>
      <trkpt lat="44.49353" lon="6.20564">
        <ele>1378</ele>
        <time>2025-11-21T12:18:48.000Z</time>
      </trkpt>
      <trkpt lat="44.49353" lon="6.20564">
        <ele>1379</ele>
        <time>2025-11-21T12:18:49.000Z</time>
      </trkpt>
      <trkpt lat="44.49353" lon="6.20564">
        <ele>1379</ele>
        <time>2025-11-21T12:18:50.000Z</time>
      </trkpt>
      <trkpt lat="44.49353" lon="6.20564">
        <ele>1379</ele>
        <time>2025-11-21T12:18:51.000Z</time>
      </trkpt>
      <trkpt lat="44.49353" lon="6.20564">
        <ele>1379</ele>
        <time>2025-11-21T12:18:52.000Z</time>
      </trkpt>
      <trkpt lat="44.49353" lon="6.20563">
        <ele>1378</ele>
        <time>2025-11-21T12:18:53.000Z</time>
      </trkpt>
      <trkpt lat="44.49353" lon="6.2056">
        <ele>1378</ele>
        <time>2025-11-21T12:18:54.000Z</time>
      </trkpt>
      <trkpt lat="44.49353" lon="6.20559">
        <ele>1378</ele>
        <time>2025-11-21T12:18:55.000Z</time>
      </trkpt>
      <trkpt lat="44.49353" lon="6.20557">
        <ele>1378</ele>
        <time>2025-11-21T12:18:56.000Z</time>
      </trkpt>
      <trkpt lat="44.49353" lon="6.20555">
        <ele>1378</ele>
        <time>2025-11-21T12:18:57.000Z</time>
      </trkpt>
      <trkpt lat="44.49354" lon="6.20554">
        <ele>1378</ele>
        <time>2025-11-21T12:18:58.000Z</time>
      </trkpt>
      <trkpt lat="44.49354" lon="6.20552">
        <ele>1379</ele>
        <time>2025-11-21T12:18:59.000Z</time>
      </trkpt>
      <trkpt lat="44.49355" lon="6.20551">
        <ele>1378</ele>
        <time>2025-11-21T12:19:00.000Z</time>
      </trkpt>
      <trkpt lat="44.49355" lon="6.20549">
        <ele>1378</ele>
        <time>2025-11-21T12:19:01.000Z</time>
      </trkpt>
      <trkpt lat="44.49356" lon="6.20549">
        <ele>1379</ele>
        <time>2025-11-21T12:19:02.000Z</time>
      </trkpt>
      <trkpt lat="44.49357" lon="6.20547">
        <ele>1379</ele>
        <time>2025-11-21T12:19:03.000Z</time>
      </trkpt>
      <trkpt lat="44.49357" lon="6.20546">
        <ele>1379</ele>
        <time>2025-11-21T12:19:04.000Z</time>
      </trkpt>
      <trkpt lat="44.49357" lon="6.20545">
        <ele>1378</ele>
        <time>2025-11-21T12:19:05.000Z</time>
      </trkpt>
      <trkpt lat="44.49357" lon="6.20544">
        <ele>1378</ele>
        <time>2025-11-21T12:19:06.000Z</time>
      </trkpt>
      <trkpt lat="44.49357" lon="6.20544">
        <ele>1378</ele>
        <time>2025-11-21T12:19:07.000Z</time>
      </trkpt>
      <trkpt lat="44.49356" lon="6.20543">
        <ele>1378</ele>
        <time>2025-11-21T12:19:08.000Z</time>
      </trkpt>
      <trkpt lat="44.49356" lon="6.20545">
        <ele>1378</ele>
        <time>2025-11-21T12:19:09.000Z</time>
      </trkpt>
      <trkpt lat="44.49355" lon="6.20546">
        <ele>1379</ele>
        <time>2025-11-21T12:19:10.000Z</time>
      </trkpt>
      <trkpt lat="44.49355" lon="6.20546">
        <ele>1379</ele>
        <time>2025-11-21T12:19:11.000Z</time>
      </trkpt>
      <trkpt lat="44.49355" lon="6.20546">
        <ele>1379</ele>
        <time>2025-11-21T12:19:12.000Z</time>
      </trkpt>
      <trkpt lat="44.49355" lon="6.20548">
        <ele>1378</ele>
        <time>2025-11-21T12:19:13.000Z</time>
      </trkpt>
      <trkpt lat="44.49354" lon="6.20549">
        <ele>1379</ele>
        <time>2025-11-21T12:19:14.000Z</time>
      </trkpt>
      <trkpt lat="44.49354" lon="6.20551">
        <ele>1379</ele>
        <time>2025-11-21T12:19:15.000Z</time>
      </trkpt>
      <trkpt lat="44.49355" lon="6.20553">
        <ele>1379</ele>
        <time>2025-11-21T12:19:16.000Z</time>
      </trkpt>
      <trkpt lat="44.49356" lon="6.20554">
        <ele>1379</ele>
        <time>2025-11-21T12:19:17.000Z</time>
      </trkpt>
      <trkpt lat="44.49356" lon="6.20556">
        <ele>1380</ele>
        <time>2025-11-21T12:19:18.000Z</time>
      </trkpt>
      <trkpt lat="44.49356" lon="6.20558">
        <ele>1380</ele>
        <time>2025-11-21T12:19:19.000Z</time>
      </trkpt>
      <trkpt lat="44.49356" lon="6.20559">
        <ele>1380</ele>
        <time>2025-11-21T12:19:20.000Z</time>
      </trkpt>
      <trkpt lat="44.49356" lon="6.20561">
        <ele>1380</ele>
        <time>2025-11-21T12:19:21.000Z</time>
      </trkpt>
      <trkpt lat="44.49357" lon="6.20562">
        <ele>1380</ele>
        <time>2025-11-21T12:19:22.000Z</time>
      </trkpt>
      <trkpt lat="44.49358" lon="6.20564">
        <ele>1380</ele>
        <time>2025-11-21T12:19:23.000Z</time>
      </trkpt>
      <trkpt lat="44.49359" lon="6.20566">
        <ele>1380</ele>
        <time>2025-11-21T12:19:24.000Z</time>
      </trkpt>
      <trkpt lat="44.49359" lon="6.20567">
        <ele>1380</ele>
        <time>2025-11-21T12:19:25.000Z</time>
      </trkpt>
      <trkpt lat="44.49359" lon="6.20568">
        <ele>1380</ele>
        <time>2025-11-21T12:19:26.000Z</time>
      </trkpt>
      <trkpt lat="44.49361" lon="6.20569">
        <ele>1380</ele>
        <time>2025-11-21T12:19:27.000Z</time>
      </trkpt>
      <trkpt lat="44.49362" lon="6.2057">
        <ele>1379</ele>
        <time>2025-11-21T12:19:28.000Z</time>
      </trkpt>
      <trkpt lat="44.49362" lon="6.20572">
        <ele>1379</ele>
        <time>2025-11-21T12:19:29.000Z</time>
      </trkpt>
      <trkpt lat="44.49363" lon="6.20573">
        <ele>1379</ele>
        <time>2025-11-21T12:19:30.000Z</time>
      </trkpt>
      <trkpt lat="44.49364" lon="6.20574">
        <ele>1379</ele>
        <time>2025-11-21T12:19:31.000Z</time>
      </trkpt>
      <trkpt lat="44.49365" lon="6.20573">
        <ele>1379</ele>
        <time>2025-11-21T12:19:32.000Z</time>
      </trkpt>
      <trkpt lat="44.49365" lon="6.20573">
        <ele>1379</ele>
        <time>2025-11-21T12:19:33.000Z</time>
      </trkpt>
      <trkpt lat="44.49365" lon="6.20573">
        <ele>1379</ele>
        <time>2025-11-21T12:19:34.000Z</time>
      </trkpt>
      <trkpt lat="44.49366" lon="6.20575">
        <ele>1378</ele>
        <time>2025-11-21T12:19:35.000Z</time>
      </trkpt>
      <trkpt lat="44.49367" lon="6.20576">
        <ele>1378</ele>
        <time>2025-11-21T12:19:36.000Z</time>
      </trkpt>
      <trkpt lat="44.49369" lon="6.20577">
        <ele>1377</ele>
        <time>2025-11-21T12:19:37.000Z</time>
      </trkpt>
      <trkpt lat="44.4937" lon="6.20578">
        <ele>1378</ele>
        <time>2025-11-21T12:19:38.000Z</time>
      </trkpt>
      <trkpt lat="44.49371" lon="6.20579">
        <ele>1377</ele>
        <time>2025-11-21T12:19:39.000Z</time>
      </trkpt>
      <trkpt lat="44.49372" lon="6.2058">
        <ele>1377</ele>
        <time>2025-11-21T12:19:40.000Z</time>
      </trkpt>
      <trkpt lat="44.49372" lon="6.20582">
        <ele>1377</ele>
        <time>2025-11-21T12:19:41.000Z</time>
      </trkpt>
      <trkpt lat="44.49374" lon="6.20583">
        <ele>1378</ele>
        <time>2025-11-21T12:19:42.000Z</time>
      </trkpt>
      <trkpt lat="44.49375" lon="6.20583">
        <ele>1377</ele>
        <time>2025-11-21T12:19:43.000Z</time>
      </trkpt>
      <trkpt lat="44.49376" lon="6.20584">
        <ele>1378</ele>
        <time>2025-11-21T12:19:44.000Z</time>
      </trkpt>
      <trkpt lat="44.49376" lon="6.20585">
        <ele>1377</ele>
        <time>2025-11-21T12:19:45.000Z</time>
      </trkpt>
      <trkpt lat="44.49377" lon="6.20586">
        <ele>1378</ele>
        <time>2025-11-21T12:19:46.000Z</time>
      </trkpt>
      <trkpt lat="44.49378" lon="6.20585">
        <ele>1378</ele>
        <time>2025-11-21T12:19:47.000Z</time>
      </trkpt>
      <trkpt lat="44.49379" lon="6.20586">
        <ele>1378</ele>
        <time>2025-11-21T12:19:48.000Z</time>
      </trkpt>
      <trkpt lat="44.49381" lon="6.20586">
        <ele>1378</ele>
        <time>2025-11-21T12:19:49.000Z</time>
      </trkpt>
      <trkpt lat="44.49382" lon="6.20586">
        <ele>1377</ele>
        <time>2025-11-21T12:19:50.000Z</time>
      </trkpt>
      <trkpt lat="44.49384" lon="6.20587">
        <ele>1377</ele>
        <time>2025-11-21T12:19:51.000Z</time>
      </trkpt>
      <trkpt lat="44.49385" lon="6.20588">
        <ele>1377</ele>
        <time>2025-11-21T12:19:52.000Z</time>
      </trkpt>
      <trkpt lat="44.49386" lon="6.20588">
        <ele>1377</ele>
        <time>2025-11-21T12:19:53.000Z</time>
      </trkpt>
      <trkpt lat="44.49387" lon="6.20589">
        <ele>1377</ele>
        <time>2025-11-21T12:19:54.000Z</time>
      </trkpt>
      <trkpt lat="44.49388" lon="6.20589">
        <ele>1377</ele>
        <time>2025-11-21T12:19:55.000Z</time>
      </trkpt>
      <trkpt lat="44.4939" lon="6.20591">
        <ele>1378</ele>
        <time>2025-11-21T12:19:56.000Z</time>
      </trkpt>
      <trkpt lat="44.49391" lon="6.20592">
        <ele>1377</ele>
        <time>2025-11-21T12:19:57.000Z</time>
      </trkpt>
      <trkpt lat="44.49392" lon="6.20593">
        <ele>1377</ele>
        <time>2025-11-21T12:19:58.000Z</time>
      </trkpt>
      <trkpt lat="44.49392" lon="6.20594">
        <ele>1377</ele>
        <time>2025-11-21T12:19:59.000Z</time>
      </trkpt>
      <trkpt lat="44.49393" lon="6.20595">
        <ele>1376</ele>
        <time>2025-11-21T12:20:00.000Z</time>
      </trkpt>
      <trkpt lat="44.49393" lon="6.20595">
        <ele>1376</ele>
        <time>2025-11-21T12:20:01.000Z</time>
      </trkpt>
      <trkpt lat="44.49396" lon="6.20596">
        <ele>1377</ele>
        <time>2025-11-21T12:20:02.000Z</time>
      </trkpt>
      <trkpt lat="44.49397" lon="6.20597">
        <ele>1377</ele>
        <time>2025-11-21T12:20:03.000Z</time>
      </trkpt>
      <trkpt lat="44.49399" lon="6.20598">
        <ele>1377</ele>
        <time>2025-11-21T12:20:04.000Z</time>
      </trkpt>
      <trkpt lat="44.494" lon="6.20599">
        <ele>1378</ele>
        <time>2025-11-21T12:20:05.000Z</time>
      </trkpt>
      <trkpt lat="44.494" lon="6.206">
        <ele>1379</ele>
        <time>2025-11-21T12:20:06.000Z</time>
      </trkpt>
      <trkpt lat="44.49402" lon="6.206">
        <ele>1379</ele>
        <time>2025-11-21T12:20:07.000Z</time>
      </trkpt>
      <trkpt lat="44.49403" lon="6.206">
        <ele>1380</ele>
        <time>2025-11-21T12:20:08.000Z</time>
      </trkpt>
      <trkpt lat="44.49403" lon="6.20602">
        <ele>1380</ele>
        <time>2025-11-21T12:20:09.000Z</time>
      </trkpt>
      <trkpt lat="44.49404" lon="6.20602">
        <ele>1380</ele>
        <time>2025-11-21T12:20:10.000Z</time>
      </trkpt>
      <trkpt lat="44.49404" lon="6.20603">
        <ele>1380</ele>
        <time>2025-11-21T12:20:11.000Z</time>
      </trkpt>
      <trkpt lat="44.49405" lon="6.20604">
        <ele>1380</ele>
        <time>2025-11-21T12:20:12.000Z</time>
      </trkpt>
      <trkpt lat="44.49407" lon="6.20605">
        <ele>1380</ele>
        <time>2025-11-21T12:20:13.000Z</time>
      </trkpt>
      <trkpt lat="44.49408" lon="6.20605">
        <ele>1380</ele>
        <time>2025-11-21T12:20:14.000Z</time>
      </trkpt>
      <trkpt lat="44.49409" lon="6.20605">
        <ele>1380</ele>
        <time>2025-11-21T12:20:15.000Z</time>
      </trkpt>
      <trkpt lat="44.49409" lon="6.20605">
        <ele>1380</ele>
        <time>2025-11-21T12:20:16.000Z</time>
      </trkpt>
      <trkpt lat="44.4941" lon="6.20606">
        <ele>1381</ele>
        <time>2025-11-21T12:20:17.000Z</time>
      </trkpt>
      <trkpt lat="44.49411" lon="6.20606">
        <ele>1381</ele>
        <time>2025-11-21T12:20:18.000Z</time>
      </trkpt>
      <trkpt lat="44.49413" lon="6.20605">
        <ele>1382</ele>
        <time>2025-11-21T12:20:19.000Z</time>
      </trkpt>
      <trkpt lat="44.49415" lon="6.20605">
        <ele>1381</ele>
        <time>2025-11-21T12:20:20.000Z</time>
      </trkpt>
      <trkpt lat="44.49417" lon="6.20605">
        <ele>1381</ele>
        <time>2025-11-21T12:20:21.000Z</time>
      </trkpt>
      <trkpt lat="44.49418" lon="6.20606">
        <ele>1381</ele>
        <time>2025-11-21T12:20:22.000Z</time>
      </trkpt>
      <trkpt lat="44.49418" lon="6.20607">
        <ele>1380</ele>
        <time>2025-11-21T12:20:23.000Z</time>
      </trkpt>
      <trkpt lat="44.4942" lon="6.20608">
        <ele>1380</ele>
        <time>2025-11-21T12:20:24.000Z</time>
      </trkpt>
      <trkpt lat="44.49421" lon="6.20609">
        <ele>1380</ele>
        <time>2025-11-21T12:20:25.000Z</time>
      </trkpt>
      <trkpt lat="44.49422" lon="6.20611">
        <ele>1380</ele>
        <time>2025-11-21T12:20:26.000Z</time>
      </trkpt>
      <trkpt lat="44.49424" lon="6.20613">
        <ele>1380</ele>
        <time>2025-11-21T12:20:27.000Z</time>
      </trkpt>
      <trkpt lat="44.49426" lon="6.20613">
        <ele>1380</ele>
        <time>2025-11-21T12:20:28.000Z</time>
      </trkpt>
      <trkpt lat="44.49426" lon="6.20614">
        <ele>1380</ele>
        <time>2025-11-21T12:20:29.000Z</time>
      </trkpt>
      <trkpt lat="44.49427" lon="6.20615">
        <ele>1380</ele>
        <time>2025-11-21T12:20:30.000Z</time>
      </trkpt>
      <trkpt lat="44.49427" lon="6.20615">
        <ele>1379</ele>
        <time>2025-11-21T12:20:31.000Z</time>
      </trkpt>
      <trkpt lat="44.49429" lon="6.20617">
        <ele>1379</ele>
        <time>2025-11-21T12:20:32.000Z</time>
      </trkpt>
      <trkpt lat="44.49429" lon="6.20617">
        <ele>1379</ele>
        <time>2025-11-21T12:20:33.000Z</time>
      </trkpt>
      <trkpt lat="44.49429" lon="6.20619">
        <ele>1379</ele>
        <time>2025-11-21T12:20:34.000Z</time>
      </trkpt>
      <trkpt lat="44.49429" lon="6.2062">
        <ele>1379</ele>
        <time>2025-11-21T12:20:35.000Z</time>
      </trkpt>
      <trkpt lat="44.49428" lon="6.20622">
        <ele>1378</ele>
        <time>2025-11-21T12:20:36.000Z</time>
      </trkpt>
      <trkpt lat="44.49428" lon="6.20623">
        <ele>1379</ele>
        <time>2025-11-21T12:20:37.000Z</time>
      </trkpt>
      <trkpt lat="44.49427" lon="6.20624">
        <ele>1380</ele>
        <time>2025-11-21T12:20:38.000Z</time>
      </trkpt>
      <trkpt lat="44.49426" lon="6.20625">
        <ele>1381</ele>
        <time>2025-11-21T12:20:39.000Z</time>
      </trkpt>
      <trkpt lat="44.49425" lon="6.20627">
        <ele>1380</ele>
        <time>2025-11-21T12:20:40.000Z</time>
      </trkpt>
      <trkpt lat="44.49424" lon="6.20627">
        <ele>1380</ele>
        <time>2025-11-21T12:20:41.000Z</time>
      </trkpt>
      <trkpt lat="44.49423" lon="6.20627">
        <ele>1380</ele>
        <time>2025-11-21T12:20:42.000Z</time>
      </trkpt>
      <trkpt lat="44.49422" lon="6.20627">
        <ele>1380</ele>
        <time>2025-11-21T12:20:43.000Z</time>
      </trkpt>
      <trkpt lat="44.49421" lon="6.20627">
        <ele>1380</ele>
        <time>2025-11-21T12:20:44.000Z</time>
      </trkpt>
      <trkpt lat="44.4942" lon="6.20627">
        <ele>1380</ele>
        <time>2025-11-21T12:20:45.000Z</time>
      </trkpt>
      <trkpt lat="44.49418" lon="6.20627">
        <ele>1380</ele>
        <time>2025-11-21T12:20:46.000Z</time>
      </trkpt>
      <trkpt lat="44.49417" lon="6.20627">
        <ele>1380</ele>
        <time>2025-11-21T12:20:47.000Z</time>
      </trkpt>
      <trkpt lat="44.49416" lon="6.20626">
        <ele>1380</ele>
        <time>2025-11-21T12:20:48.000Z</time>
      </trkpt>
      <trkpt lat="44.49416" lon="6.20625">
        <ele>1379</ele>
        <time>2025-11-21T12:20:49.000Z</time>
      </trkpt>
      <trkpt lat="44.49416" lon="6.20624">
        <ele>1380</ele>
        <time>2025-11-21T12:20:50.000Z</time>
      </trkpt>
      <trkpt lat="44.49415" lon="6.20624">
        <ele>1380</ele>
        <time>2025-11-21T12:20:51.000Z</time>
      </trkpt>
      <trkpt lat="44.49413" lon="6.20624">
        <ele>1380</ele>
        <time>2025-11-21T12:20:52.000Z</time>
      </trkpt>
      <trkpt lat="44.49412" lon="6.20623">
        <ele>1380</ele>
        <time>2025-11-21T12:20:53.000Z</time>
      </trkpt>
      <trkpt lat="44.49412" lon="6.20623">
        <ele>1380</ele>
        <time>2025-11-21T12:20:54.000Z</time>
      </trkpt>
      <trkpt lat="44.4941" lon="6.20623">
        <ele>1380</ele>
        <time>2025-11-21T12:20:55.000Z</time>
      </trkpt>
      <trkpt lat="44.49409" lon="6.20623">
        <ele>1380</ele>
        <time>2025-11-21T12:20:56.000Z</time>
      </trkpt>
      <trkpt lat="44.49407" lon="6.20623">
        <ele>1380</ele>
        <time>2025-11-21T12:20:57.000Z</time>
      </trkpt>
      <trkpt lat="44.49406" lon="6.20624">
        <ele>1380</ele>
        <time>2025-11-21T12:20:58.000Z</time>
      </trkpt>
      <trkpt lat="44.49406" lon="6.20625">
        <ele>1381</ele>
        <time>2025-11-21T12:20:59.000Z</time>
      </trkpt>
      <trkpt lat="44.49405" lon="6.20625">
        <ele>1380</ele>
        <time>2025-11-21T12:21:00.000Z</time>
      </trkpt>
      <trkpt lat="44.49404" lon="6.20625">
        <ele>1380</ele>
        <time>2025-11-21T12:21:01.000Z</time>
      </trkpt>
      <trkpt lat="44.49404" lon="6.20625">
        <ele>1380</ele>
        <time>2025-11-21T12:21:02.000Z</time>
      </trkpt>
      <trkpt lat="44.49402" lon="6.20626">
        <ele>1379</ele>
        <time>2025-11-21T12:21:03.000Z</time>
      </trkpt>
      <trkpt lat="44.49401" lon="6.20626">
        <ele>1379</ele>
        <time>2025-11-21T12:21:04.000Z</time>
      </trkpt>
      <trkpt lat="44.494" lon="6.20626">
        <ele>1380</ele>
        <time>2025-11-21T12:21:05.000Z</time>
      </trkpt>
      <trkpt lat="44.49399" lon="6.20625">
        <ele>1380</ele>
        <time>2025-11-21T12:21:06.000Z</time>
      </trkpt>
      <trkpt lat="44.49397" lon="6.20625">
        <ele>1379</ele>
        <time>2025-11-21T12:21:07.000Z</time>
      </trkpt>
      <trkpt lat="44.49396" lon="6.20626">
        <ele>1379</ele>
        <time>2025-11-21T12:21:08.000Z</time>
      </trkpt>
      <trkpt lat="44.49395" lon="6.20626">
        <ele>1379</ele>
        <time>2025-11-21T12:21:09.000Z</time>
      </trkpt>
      <trkpt lat="44.49394" lon="6.20626">
        <ele>1379</ele>
        <time>2025-11-21T12:21:10.000Z</time>
      </trkpt>
      <trkpt lat="44.49392" lon="6.20626">
        <ele>1378</ele>
        <time>2025-11-21T12:21:11.000Z</time>
      </trkpt>
      <trkpt lat="44.49391" lon="6.20626">
        <ele>1378</ele>
        <time>2025-11-21T12:21:12.000Z</time>
      </trkpt>
      <trkpt lat="44.49389" lon="6.20627">
        <ele>1379</ele>
        <time>2025-11-21T12:21:13.000Z</time>
      </trkpt>
      <trkpt lat="44.49388" lon="6.20627">
        <ele>1378</ele>
        <time>2025-11-21T12:21:14.000Z</time>
      </trkpt>
      <trkpt lat="44.49386" lon="6.20627">
        <ele>1378</ele>
        <time>2025-11-21T12:21:15.000Z</time>
      </trkpt>
      <trkpt lat="44.49385" lon="6.20627">
        <ele>1379</ele>
        <time>2025-11-21T12:21:16.000Z</time>
      </trkpt>
      <trkpt lat="44.49384" lon="6.20628">
        <ele>1378</ele>
        <time>2025-11-21T12:21:17.000Z</time>
      </trkpt>
      <trkpt lat="44.49383" lon="6.20628">
        <ele>1378</ele>
        <time>2025-11-21T12:21:18.000Z</time>
      </trkpt>
      <trkpt lat="44.49382" lon="6.20628">
        <ele>1378</ele>
        <time>2025-11-21T12:21:19.000Z</time>
      </trkpt>
      <trkpt lat="44.49381" lon="6.20628">
        <ele>1378</ele>
        <time>2025-11-21T12:21:20.000Z</time>
      </trkpt>
      <trkpt lat="44.4938" lon="6.20627">
        <ele>1378</ele>
        <time>2025-11-21T12:21:21.000Z</time>
      </trkpt>
      <trkpt lat="44.4938" lon="6.20627">
        <ele>1378</ele>
        <time>2025-11-21T12:21:22.000Z</time>
      </trkpt>
      <trkpt lat="44.4938" lon="6.20627">
        <ele>1378</ele>
        <time>2025-11-21T12:21:23.000Z</time>
      </trkpt>
      <trkpt lat="44.4938" lon="6.20627">
        <ele>1378</ele>
        <time>2025-11-21T12:21:24.000Z</time>
      </trkpt>
      <trkpt lat="44.49377" lon="6.20625">
        <ele>1377</ele>
        <time>2025-11-21T12:21:25.000Z</time>
      </trkpt>
      <trkpt lat="44.49376" lon="6.20625">
        <ele>1378</ele>
        <time>2025-11-21T12:21:26.000Z</time>
      </trkpt>
      <trkpt lat="44.49375" lon="6.20624">
        <ele>1377</ele>
        <time>2025-11-21T12:21:27.000Z</time>
      </trkpt>
      <trkpt lat="44.49374" lon="6.20624">
        <ele>1377</ele>
        <time>2025-11-21T12:21:28.000Z</time>
      </trkpt>
      <trkpt lat="44.49373" lon="6.20624">
        <ele>1377</ele>
        <time>2025-11-21T12:21:29.000Z</time>
      </trkpt>
      <trkpt lat="44.49372" lon="6.20624">
        <ele>1378</ele>
        <time>2025-11-21T12:21:30.000Z</time>
      </trkpt>
      <trkpt lat="44.49371" lon="6.20624">
        <ele>1378</ele>
        <time>2025-11-21T12:21:31.000Z</time>
      </trkpt>
      <trkpt lat="44.49369" lon="6.20624">
        <ele>1378</ele>
        <time>2025-11-21T12:21:32.000Z</time>
      </trkpt>
      <trkpt lat="44.49369" lon="6.20625">
        <ele>1379</ele>
        <time>2025-11-21T12:21:33.000Z</time>
      </trkpt>
      <trkpt lat="44.49367" lon="6.20625">
        <ele>1379</ele>
        <time>2025-11-21T12:21:34.000Z</time>
      </trkpt>
      <trkpt lat="44.49366" lon="6.20625">
        <ele>1379</ele>
        <time>2025-11-21T12:21:35.000Z</time>
      </trkpt>
      <trkpt lat="44.49365" lon="6.20625">
        <ele>1378</ele>
        <time>2025-11-21T12:21:36.000Z</time>
      </trkpt>
      <trkpt lat="44.49365" lon="6.20625">
        <ele>1378</ele>
        <time>2025-11-21T12:21:37.000Z</time>
      </trkpt>
      <trkpt lat="44.49365" lon="6.20625">
        <ele>1378</ele>
        <time>2025-11-21T12:21:38.000Z</time>
      </trkpt>
      <trkpt lat="44.49363" lon="6.20626">
        <ele>1379</ele>
        <time>2025-11-21T12:21:39.000Z</time>
      </trkpt>
      <trkpt lat="44.49361" lon="6.20626">
        <ele>1380</ele>
        <time>2025-11-21T12:21:40.000Z</time>
      </trkpt>
      <trkpt lat="44.4936" lon="6.20626">
        <ele>1380</ele>
        <time>2025-11-21T12:21:41.000Z</time>
      </trkpt>
      <trkpt lat="44.49359" lon="6.20626">
        <ele>1379</ele>
        <time>2025-11-21T12:21:42.000Z</time>
      </trkpt>
      <trkpt lat="44.49358" lon="6.20627">
        <ele>1379</ele>
        <time>2025-11-21T12:21:43.000Z</time>
      </trkpt>
      <trkpt lat="44.49357" lon="6.20628">
        <ele>1379</ele>
        <time>2025-11-21T12:21:44.000Z</time>
      </trkpt>
      <trkpt lat="44.49356" lon="6.20629">
        <ele>1379</ele>
        <time>2025-11-21T12:21:45.000Z</time>
      </trkpt>
      <trkpt lat="44.49354" lon="6.20629">
        <ele>1379</ele>
        <time>2025-11-21T12:21:46.000Z</time>
      </trkpt>
      <trkpt lat="44.49353" lon="6.2063">
        <ele>1379</ele>
        <time>2025-11-21T12:21:47.000Z</time>
      </trkpt>
      <trkpt lat="44.49352" lon="6.2063">
        <ele>1378</ele>
        <time>2025-11-21T12:21:48.000Z</time>
      </trkpt>
      <trkpt lat="44.49351" lon="6.20632">
        <ele>1377</ele>
        <time>2025-11-21T12:21:49.000Z</time>
      </trkpt>
      <trkpt lat="44.49351" lon="6.20632">
        <ele>1377</ele>
        <time>2025-11-21T12:21:50.000Z</time>
      </trkpt>
      <trkpt lat="44.49349" lon="6.20634">
        <ele>1377</ele>
        <time>2025-11-21T12:21:51.000Z</time>
      </trkpt>
      <trkpt lat="44.49348" lon="6.20635">
        <ele>1376</ele>
        <time>2025-11-21T12:21:52.000Z</time>
      </trkpt>
      <trkpt lat="44.49347" lon="6.20637">
        <ele>1376</ele>
        <time>2025-11-21T12:21:53.000Z</time>
      </trkpt>
      <trkpt lat="44.49346" lon="6.20638">
        <ele>1376</ele>
        <time>2025-11-21T12:21:54.000Z</time>
      </trkpt>
      <trkpt lat="44.49345" lon="6.20638">
        <ele>1375</ele>
        <time>2025-11-21T12:21:55.000Z</time>
      </trkpt>
      <trkpt lat="44.49344" lon="6.20637">
        <ele>1375</ele>
        <time>2025-11-21T12:21:56.000Z</time>
      </trkpt>
      <trkpt lat="44.49343" lon="6.20638">
        <ele>1375</ele>
        <time>2025-11-21T12:21:57.000Z</time>
      </trkpt>
      <trkpt lat="44.49342" lon="6.20639">
        <ele>1375</ele>
        <time>2025-11-21T12:21:58.000Z</time>
      </trkpt>
      <trkpt lat="44.49341" lon="6.2064">
        <ele>1376</ele>
        <time>2025-11-21T12:21:59.000Z</time>
      </trkpt>
      <trkpt lat="44.49339" lon="6.20641">
        <ele>1377</ele>
        <time>2025-11-21T12:22:00.000Z</time>
      </trkpt>
      <trkpt lat="44.49338" lon="6.20642">
        <ele>1376</ele>
        <time>2025-11-21T12:22:01.000Z</time>
      </trkpt>
      <trkpt lat="44.49336" lon="6.20644">
        <ele>1376</ele>
        <time>2025-11-21T12:22:02.000Z</time>
      </trkpt>
      <trkpt lat="44.49335" lon="6.20645">
        <ele>1377</ele>
        <time>2025-11-21T12:22:03.000Z</time>
      </trkpt>
      <trkpt lat="44.49335" lon="6.20645">
        <ele>1378</ele>
        <time>2025-11-21T12:22:04.000Z</time>
      </trkpt>
      <trkpt lat="44.49334" lon="6.20647">
        <ele>1377</ele>
        <time>2025-11-21T12:22:05.000Z</time>
      </trkpt>
      <trkpt lat="44.49333" lon="6.20647">
        <ele>1377</ele>
        <time>2025-11-21T12:22:06.000Z</time>
      </trkpt>
      <trkpt lat="44.49332" lon="6.20647">
        <ele>1377</ele>
        <time>2025-11-21T12:22:07.000Z</time>
      </trkpt>
      <trkpt lat="44.4933" lon="6.20647">
        <ele>1377</ele>
        <time>2025-11-21T12:22:08.000Z</time>
      </trkpt>
      <trkpt lat="44.49329" lon="6.20649">
        <ele>1378</ele>
        <time>2025-11-21T12:22:09.000Z</time>
      </trkpt>
      <trkpt lat="44.49329" lon="6.2065">
        <ele>1378</ele>
        <time>2025-11-21T12:22:10.000Z</time>
      </trkpt>
      <trkpt lat="44.49328" lon="6.2065">
        <ele>1378</ele>
        <time>2025-11-21T12:22:11.000Z</time>
      </trkpt>
      <trkpt lat="44.49327" lon="6.20651">
        <ele>1378</ele>
        <time>2025-11-21T12:22:12.000Z</time>
      </trkpt>
      <trkpt lat="44.49326" lon="6.20651">
        <ele>1379</ele>
        <time>2025-11-21T12:22:13.000Z</time>
      </trkpt>
      <trkpt lat="44.49325" lon="6.20652">
        <ele>1379</ele>
        <time>2025-11-21T12:22:14.000Z</time>
      </trkpt>
      <trkpt lat="44.49323" lon="6.20653">
        <ele>1380</ele>
        <time>2025-11-21T12:22:15.000Z</time>
      </trkpt>
      <trkpt lat="44.49321" lon="6.20653">
        <ele>1380</ele>
        <time>2025-11-21T12:22:16.000Z</time>
      </trkpt>
      <trkpt lat="44.49319" lon="6.20654">
        <ele>1381</ele>
        <time>2025-11-21T12:22:17.000Z</time>
      </trkpt>
      <trkpt lat="44.49318" lon="6.20653">
        <ele>1381</ele>
        <time>2025-11-21T12:22:18.000Z</time>
      </trkpt>
      <trkpt lat="44.49316" lon="6.20654">
        <ele>1381</ele>
        <time>2025-11-21T12:22:19.000Z</time>
      </trkpt>
      <trkpt lat="44.49315" lon="6.20655">
        <ele>1380</ele>
        <time>2025-11-21T12:22:20.000Z</time>
      </trkpt>
      <trkpt lat="44.49315" lon="6.20656">
        <ele>1380</ele>
        <time>2025-11-21T12:22:21.000Z</time>
      </trkpt>
      <trkpt lat="44.49314" lon="6.20657">
        <ele>1380</ele>
        <time>2025-11-21T12:22:22.000Z</time>
      </trkpt>
      <trkpt lat="44.49313" lon="6.20657">
        <ele>1380</ele>
        <time>2025-11-21T12:22:23.000Z</time>
      </trkpt>
      <trkpt lat="44.49312" lon="6.20656">
        <ele>1380</ele>
        <time>2025-11-21T12:22:24.000Z</time>
      </trkpt>
      <trkpt lat="44.49312" lon="6.20656">
        <ele>1380</ele>
        <time>2025-11-21T12:22:25.000Z</time>
      </trkpt>
      <trkpt lat="44.49311" lon="6.20658">
        <ele>1380</ele>
        <time>2025-11-21T12:22:26.000Z</time>
      </trkpt>
      <trkpt lat="44.4931" lon="6.20658">
        <ele>1380</ele>
        <time>2025-11-21T12:22:27.000Z</time>
      </trkpt>
      <trkpt lat="44.49309" lon="6.20659">
        <ele>1380</ele>
        <time>2025-11-21T12:22:28.000Z</time>
      </trkpt>
      <trkpt lat="44.49308" lon="6.20659">
        <ele>1380</ele>
        <time>2025-11-21T12:22:29.000Z</time>
      </trkpt>
      <trkpt lat="44.49308" lon="6.2066">
        <ele>1380</ele>
        <time>2025-11-21T12:22:30.000Z</time>
      </trkpt>
      <trkpt lat="44.49307" lon="6.20662">
        <ele>1380</ele>
        <time>2025-11-21T12:22:31.000Z</time>
      </trkpt>
      <trkpt lat="44.49307" lon="6.20663">
        <ele>1381</ele>
        <time>2025-11-21T12:22:32.000Z</time>
      </trkpt>
      <trkpt lat="44.49306" lon="6.20663">
        <ele>1382</ele>
        <time>2025-11-21T12:22:33.000Z</time>
      </trkpt>
      <trkpt lat="44.49305" lon="6.20662">
        <ele>1382</ele>
        <time>2025-11-21T12:22:34.000Z</time>
      </trkpt>
      <trkpt lat="44.49303" lon="6.20661">
        <ele>1382</ele>
        <time>2025-11-21T12:22:35.000Z</time>
      </trkpt>
      <trkpt lat="44.49303" lon="6.2066">
        <ele>1384</ele>
        <time>2025-11-21T12:22:36.000Z</time>
      </trkpt>
      <trkpt lat="44.49302" lon="6.20659">
        <ele>1384</ele>
        <time>2025-11-21T12:22:37.000Z</time>
      </trkpt>
      <trkpt lat="44.49301" lon="6.20657">
        <ele>1384</ele>
        <time>2025-11-21T12:22:38.000Z</time>
      </trkpt>
      <trkpt lat="44.49301" lon="6.20656">
        <ele>1385</ele>
        <time>2025-11-21T12:22:39.000Z</time>
      </trkpt>
      <trkpt lat="44.49299" lon="6.20655">
        <ele>1384</ele>
        <time>2025-11-21T12:22:40.000Z</time>
      </trkpt>
      <trkpt lat="44.49298" lon="6.20654">
        <ele>1384</ele>
        <time>2025-11-21T12:22:41.000Z</time>
      </trkpt>
      <trkpt lat="44.49297" lon="6.20652">
        <ele>1384</ele>
        <time>2025-11-21T12:22:42.000Z</time>
      </trkpt>
      <trkpt lat="44.49296" lon="6.20651">
        <ele>1383</ele>
        <time>2025-11-21T12:22:43.000Z</time>
      </trkpt>
      <trkpt lat="44.49295" lon="6.2065">
        <ele>1383</ele>
        <time>2025-11-21T12:22:44.000Z</time>
      </trkpt>
      <trkpt lat="44.49295" lon="6.20649">
        <ele>1384</ele>
        <time>2025-11-21T12:22:45.000Z</time>
      </trkpt>
      <trkpt lat="44.49294" lon="6.20647">
        <ele>1383</ele>
        <time>2025-11-21T12:22:46.000Z</time>
      </trkpt>
      <trkpt lat="44.49293" lon="6.20646">
        <ele>1383</ele>
        <time>2025-11-21T12:22:47.000Z</time>
      </trkpt>
      <trkpt lat="44.49292" lon="6.20645">
        <ele>1383</ele>
        <time>2025-11-21T12:22:48.000Z</time>
      </trkpt>
      <trkpt lat="44.49292" lon="6.20644">
        <ele>1382</ele>
        <time>2025-11-21T12:22:49.000Z</time>
      </trkpt>
      <trkpt lat="44.49292" lon="6.20643">
        <ele>1382</ele>
        <time>2025-11-21T12:22:50.000Z</time>
      </trkpt>
      <trkpt lat="44.49291" lon="6.20641">
        <ele>1381</ele>
        <time>2025-11-21T12:22:51.000Z</time>
      </trkpt>
      <trkpt lat="44.4929" lon="6.2064">
        <ele>1381</ele>
        <time>2025-11-21T12:22:52.000Z</time>
      </trkpt>
      <trkpt lat="44.4929" lon="6.20639">
        <ele>1381</ele>
        <time>2025-11-21T12:22:53.000Z</time>
      </trkpt>
      <trkpt lat="44.4929" lon="6.20637">
        <ele>1381</ele>
        <time>2025-11-21T12:22:54.000Z</time>
      </trkpt>
      <trkpt lat="44.49289" lon="6.20636">
        <ele>1381</ele>
        <time>2025-11-21T12:22:55.000Z</time>
      </trkpt>
      <trkpt lat="44.49288" lon="6.20634">
        <ele>1380</ele>
        <time>2025-11-21T12:22:56.000Z</time>
      </trkpt>
      <trkpt lat="44.49287" lon="6.20633">
        <ele>1379</ele>
        <time>2025-11-21T12:22:57.000Z</time>
      </trkpt>
      <trkpt lat="44.49287" lon="6.20632">
        <ele>1379</ele>
        <time>2025-11-21T12:22:58.000Z</time>
      </trkpt>
      <trkpt lat="44.49286" lon="6.2063">
        <ele>1378</ele>
        <time>2025-11-21T12:22:59.000Z</time>
      </trkpt>
      <trkpt lat="44.49286" lon="6.20629">
        <ele>1379</ele>
        <time>2025-11-21T12:23:00.000Z</time>
      </trkpt>
      <trkpt lat="44.49285" lon="6.20628">
        <ele>1379</ele>
        <time>2025-11-21T12:23:01.000Z</time>
      </trkpt>
      <trkpt lat="44.49283" lon="6.20627">
        <ele>1378</ele>
        <time>2025-11-21T12:23:02.000Z</time>
      </trkpt>
      <trkpt lat="44.49283" lon="6.20626">
        <ele>1378</ele>
        <time>2025-11-21T12:23:03.000Z</time>
      </trkpt>
      <trkpt lat="44.49282" lon="6.20624">
        <ele>1379</ele>
        <time>2025-11-21T12:23:04.000Z</time>
      </trkpt>
      <trkpt lat="44.49281" lon="6.20623">
        <ele>1379</ele>
        <time>2025-11-21T12:23:05.000Z</time>
      </trkpt>
      <trkpt lat="44.4928" lon="6.20622">
        <ele>1380</ele>
        <time>2025-11-21T12:23:06.000Z</time>
      </trkpt>
      <trkpt lat="44.49279" lon="6.20622">
        <ele>1379</ele>
        <time>2025-11-21T12:23:07.000Z</time>
      </trkpt>
      <trkpt lat="44.49277" lon="6.2062">
        <ele>1380</ele>
        <time>2025-11-21T12:23:08.000Z</time>
      </trkpt>
      <trkpt lat="44.49275" lon="6.20619">
        <ele>1379</ele>
        <time>2025-11-21T12:23:09.000Z</time>
      </trkpt>
      <trkpt lat="44.49275" lon="6.2062">
        <ele>1379</ele>
        <time>2025-11-21T12:23:10.000Z</time>
      </trkpt>
      <trkpt lat="44.49274" lon="6.20621">
        <ele>1379</ele>
        <time>2025-11-21T12:23:11.000Z</time>
      </trkpt>
      <trkpt lat="44.49275" lon="6.20621">
        <ele>1379</ele>
        <time>2025-11-21T12:23:12.000Z</time>
      </trkpt>
      <trkpt lat="44.49274" lon="6.20621">
        <ele>1379</ele>
        <time>2025-11-21T12:23:13.000Z</time>
      </trkpt>
      <trkpt lat="44.49273" lon="6.2062">
        <ele>1379</ele>
        <time>2025-11-21T12:23:14.000Z</time>
      </trkpt>
      <trkpt lat="44.49272" lon="6.20619">
        <ele>1379</ele>
        <time>2025-11-21T12:23:15.000Z</time>
      </trkpt>
      <trkpt lat="44.4927" lon="6.20619">
        <ele>1378</ele>
        <time>2025-11-21T12:23:16.000Z</time>
      </trkpt>
      <trkpt lat="44.49269" lon="6.20618">
        <ele>1378</ele>
        <time>2025-11-21T12:23:17.000Z</time>
      </trkpt>
      <trkpt lat="44.49268" lon="6.20617">
        <ele>1378</ele>
        <time>2025-11-21T12:23:18.000Z</time>
      </trkpt>
      <trkpt lat="44.49266" lon="6.20617">
        <ele>1378</ele>
        <time>2025-11-21T12:23:19.000Z</time>
      </trkpt>
      <trkpt lat="44.49265" lon="6.20618">
        <ele>1378</ele>
        <time>2025-11-21T12:23:20.000Z</time>
      </trkpt>
      <trkpt lat="44.49263" lon="6.20617">
        <ele>1378</ele>
        <time>2025-11-21T12:23:21.000Z</time>
      </trkpt>
      <trkpt lat="44.49261" lon="6.20618">
        <ele>1377</ele>
        <time>2025-11-21T12:23:22.000Z</time>
      </trkpt>
      <trkpt lat="44.4926" lon="6.20618">
        <ele>1377</ele>
        <time>2025-11-21T12:23:23.000Z</time>
      </trkpt>
      <trkpt lat="44.49259" lon="6.20618">
        <ele>1376</ele>
        <time>2025-11-21T12:23:24.000Z</time>
      </trkpt>
      <trkpt lat="44.49258" lon="6.20618">
        <ele>1377</ele>
        <time>2025-11-21T12:23:25.000Z</time>
      </trkpt>
      <trkpt lat="44.49257" lon="6.20618">
        <ele>1376</ele>
        <time>2025-11-21T12:23:26.000Z</time>
      </trkpt>
      <trkpt lat="44.49256" lon="6.20619">
        <ele>1376</ele>
        <time>2025-11-21T12:23:27.000Z</time>
      </trkpt>
      <trkpt lat="44.49254" lon="6.2062">
        <ele>1376</ele>
        <time>2025-11-21T12:23:28.000Z</time>
      </trkpt>
      <trkpt lat="44.49254" lon="6.2062">
        <ele>1377</ele>
        <time>2025-11-21T12:23:29.000Z</time>
      </trkpt>
      <trkpt lat="44.49253" lon="6.20621">
        <ele>1377</ele>
        <time>2025-11-21T12:23:30.000Z</time>
      </trkpt>
      <trkpt lat="44.49252" lon="6.20621">
        <ele>1377</ele>
        <time>2025-11-21T12:23:31.000Z</time>
      </trkpt>
      <trkpt lat="44.49251" lon="6.2062">
        <ele>1377</ele>
        <time>2025-11-21T12:23:32.000Z</time>
      </trkpt>
      <trkpt lat="44.4925" lon="6.20621">
        <ele>1377</ele>
        <time>2025-11-21T12:23:33.000Z</time>
      </trkpt>
      <trkpt lat="44.49249" lon="6.20622">
        <ele>1376</ele>
        <time>2025-11-21T12:23:34.000Z</time>
      </trkpt>
      <trkpt lat="44.49247" lon="6.20623">
        <ele>1377</ele>
        <time>2025-11-21T12:23:35.000Z</time>
      </trkpt>
      <trkpt lat="44.49246" lon="6.20623">
        <ele>1377</ele>
        <time>2025-11-21T12:23:36.000Z</time>
      </trkpt>
      <trkpt lat="44.49245" lon="6.20623">
        <ele>1376</ele>
        <time>2025-11-21T12:23:37.000Z</time>
      </trkpt>
      <trkpt lat="44.49245" lon="6.20624">
        <ele>1376</ele>
        <time>2025-11-21T12:23:38.000Z</time>
      </trkpt>
      <trkpt lat="44.49243" lon="6.20624">
        <ele>1377</ele>
        <time>2025-11-21T12:23:39.000Z</time>
      </trkpt>
      <trkpt lat="44.49242" lon="6.20625">
        <ele>1377</ele>
        <time>2025-11-21T12:23:40.000Z</time>
      </trkpt>
      <trkpt lat="44.49241" lon="6.20626">
        <ele>1377</ele>
        <time>2025-11-21T12:23:41.000Z</time>
      </trkpt>
      <trkpt lat="44.4924" lon="6.20626">
        <ele>1378</ele>
        <time>2025-11-21T12:23:42.000Z</time>
      </trkpt>
      <trkpt lat="44.49239" lon="6.20626">
        <ele>1377</ele>
        <time>2025-11-21T12:23:43.000Z</time>
      </trkpt>
      <trkpt lat="44.49237" lon="6.20626">
        <ele>1377</ele>
        <time>2025-11-21T12:23:44.000Z</time>
      </trkpt>
      <trkpt lat="44.49235" lon="6.20626">
        <ele>1377</ele>
        <time>2025-11-21T12:23:45.000Z</time>
      </trkpt>
      <trkpt lat="44.49234" lon="6.20627">
        <ele>1378</ele>
        <time>2025-11-21T12:23:46.000Z</time>
      </trkpt>
      <trkpt lat="44.49233" lon="6.20627">
        <ele>1377</ele>
        <time>2025-11-21T12:23:47.000Z</time>
      </trkpt>
      <trkpt lat="44.49232" lon="6.20628">
        <ele>1378</ele>
        <time>2025-11-21T12:23:48.000Z</time>
      </trkpt>
      <trkpt lat="44.49231" lon="6.20628">
        <ele>1378</ele>
        <time>2025-11-21T12:23:49.000Z</time>
      </trkpt>
      <trkpt lat="44.49231" lon="6.20629">
        <ele>1378</ele>
        <time>2025-11-21T12:23:50.000Z</time>
      </trkpt>
      <trkpt lat="44.49229" lon="6.20629">
        <ele>1378</ele>
        <time>2025-11-21T12:23:51.000Z</time>
      </trkpt>
      <trkpt lat="44.49228" lon="6.20629">
        <ele>1377</ele>
        <time>2025-11-21T12:23:52.000Z</time>
      </trkpt>
      <trkpt lat="44.49227" lon="6.20629">
        <ele>1377</ele>
        <time>2025-11-21T12:23:53.000Z</time>
      </trkpt>
      <trkpt lat="44.49226" lon="6.20629">
        <ele>1377</ele>
        <time>2025-11-21T12:23:54.000Z</time>
      </trkpt>
      <trkpt lat="44.49224" lon="6.20629">
        <ele>1377</ele>
        <time>2025-11-21T12:23:55.000Z</time>
      </trkpt>
      <trkpt lat="44.49223" lon="6.2063">
        <ele>1377</ele>
        <time>2025-11-21T12:23:56.000Z</time>
      </trkpt>
      <trkpt lat="44.49223" lon="6.2063">
        <ele>1377</ele>
        <time>2025-11-21T12:23:57.000Z</time>
      </trkpt>
      <trkpt lat="44.49221" lon="6.20631">
        <ele>1377</ele>
        <time>2025-11-21T12:23:58.000Z</time>
      </trkpt>
      <trkpt lat="44.49221" lon="6.20632">
        <ele>1377</ele>
        <time>2025-11-21T12:23:59.000Z</time>
      </trkpt>
      <trkpt lat="44.4922" lon="6.20632">
        <ele>1376</ele>
        <time>2025-11-21T12:24:00.000Z</time>
      </trkpt>
      <trkpt lat="44.49219" lon="6.20632">
        <ele>1376</ele>
        <time>2025-11-21T12:24:01.000Z</time>
      </trkpt>
      <trkpt lat="44.49218" lon="6.20632">
        <ele>1376</ele>
        <time>2025-11-21T12:24:02.000Z</time>
      </trkpt>
      <trkpt lat="44.49217" lon="6.20632">
        <ele>1376</ele>
        <time>2025-11-21T12:24:03.000Z</time>
      </trkpt>
      <trkpt lat="44.49216" lon="6.20633">
        <ele>1376</ele>
        <time>2025-11-21T12:24:04.000Z</time>
      </trkpt>
      <trkpt lat="44.49215" lon="6.20633">
        <ele>1377</ele>
        <time>2025-11-21T12:24:05.000Z</time>
      </trkpt>
      <trkpt lat="44.49214" lon="6.20634">
        <ele>1377</ele>
        <time>2025-11-21T12:24:06.000Z</time>
      </trkpt>
      <trkpt lat="44.49213" lon="6.20634">
        <ele>1377</ele>
        <time>2025-11-21T12:24:07.000Z</time>
      </trkpt>
      <trkpt lat="44.49211" lon="6.20635">
        <ele>1377</ele>
        <time>2025-11-21T12:24:08.000Z</time>
      </trkpt>
      <trkpt lat="44.4921" lon="6.20636">
        <ele>1377</ele>
        <time>2025-11-21T12:24:09.000Z</time>
      </trkpt>
      <trkpt lat="44.49209" lon="6.20638">
        <ele>1377</ele>
        <time>2025-11-21T12:24:10.000Z</time>
      </trkpt>
      <trkpt lat="44.49208" lon="6.20638">
        <ele>1377</ele>
        <time>2025-11-21T12:24:11.000Z</time>
      </trkpt>
      <trkpt lat="44.49206" lon="6.20639">
        <ele>1377</ele>
        <time>2025-11-21T12:24:12.000Z</time>
      </trkpt>
      <trkpt lat="44.49206" lon="6.20638">
        <ele>1377</ele>
        <time>2025-11-21T12:24:13.000Z</time>
      </trkpt>
      <trkpt lat="44.49205" lon="6.20638">
        <ele>1377</ele>
        <time>2025-11-21T12:24:14.000Z</time>
      </trkpt>
      <trkpt lat="44.49204" lon="6.20638">
        <ele>1377</ele>
        <time>2025-11-21T12:24:15.000Z</time>
      </trkpt>
      <trkpt lat="44.49203" lon="6.20639">
        <ele>1378</ele>
        <time>2025-11-21T12:24:16.000Z</time>
      </trkpt>
      <trkpt lat="44.49201" lon="6.2064">
        <ele>1377</ele>
        <time>2025-11-21T12:24:17.000Z</time>
      </trkpt>
      <trkpt lat="44.492" lon="6.20641">
        <ele>1377</ele>
        <time>2025-11-21T12:24:18.000Z</time>
      </trkpt>
      <trkpt lat="44.49199" lon="6.20642">
        <ele>1378</ele>
        <time>2025-11-21T12:24:19.000Z</time>
      </trkpt>
      <trkpt lat="44.49198" lon="6.20642">
        <ele>1378</ele>
        <time>2025-11-21T12:24:20.000Z</time>
      </trkpt>
      <trkpt lat="44.49196" lon="6.20644">
        <ele>1379</ele>
        <time>2025-11-21T12:24:21.000Z</time>
      </trkpt>
      <trkpt lat="44.49195" lon="6.20645">
        <ele>1379</ele>
        <time>2025-11-21T12:24:22.000Z</time>
      </trkpt>
      <trkpt lat="44.49194" lon="6.20646">
        <ele>1379</ele>
        <time>2025-11-21T12:24:23.000Z</time>
      </trkpt>
      <trkpt lat="44.49194" lon="6.20647">
        <ele>1379</ele>
        <time>2025-11-21T12:24:24.000Z</time>
      </trkpt>
      <trkpt lat="44.49193" lon="6.20647">
        <ele>1379</ele>
        <time>2025-11-21T12:24:25.000Z</time>
      </trkpt>
      <trkpt lat="44.49192" lon="6.20648">
        <ele>1379</ele>
        <time>2025-11-21T12:24:26.000Z</time>
      </trkpt>
      <trkpt lat="44.49191" lon="6.2065">
        <ele>1379</ele>
        <time>2025-11-21T12:24:27.000Z</time>
      </trkpt>
      <trkpt lat="44.49189" lon="6.20651">
        <ele>1378</ele>
        <time>2025-11-21T12:24:28.000Z</time>
      </trkpt>
      <trkpt lat="44.49188" lon="6.20652">
        <ele>1378</ele>
        <time>2025-11-21T12:24:29.000Z</time>
      </trkpt>
      <trkpt lat="44.49187" lon="6.20653">
        <ele>1378</ele>
        <time>2025-11-21T12:24:30.000Z</time>
      </trkpt>
      <trkpt lat="44.49186" lon="6.20654">
        <ele>1378</ele>
        <time>2025-11-21T12:24:31.000Z</time>
      </trkpt>
      <trkpt lat="44.49185" lon="6.20654">
        <ele>1377</ele>
        <time>2025-11-21T12:24:32.000Z</time>
      </trkpt>
      <trkpt lat="44.49185" lon="6.20655">
        <ele>1378</ele>
        <time>2025-11-21T12:24:33.000Z</time>
      </trkpt>
      <trkpt lat="44.49184" lon="6.20656">
        <ele>1378</ele>
        <time>2025-11-21T12:24:34.000Z</time>
      </trkpt>
      <trkpt lat="44.49183" lon="6.20657">
        <ele>1378</ele>
        <time>2025-11-21T12:24:35.000Z</time>
      </trkpt>
      <trkpt lat="44.49181" lon="6.20657">
        <ele>1378</ele>
        <time>2025-11-21T12:24:36.000Z</time>
      </trkpt>
      <trkpt lat="44.4918" lon="6.20658">
        <ele>1378</ele>
        <time>2025-11-21T12:24:37.000Z</time>
      </trkpt>
      <trkpt lat="44.49179" lon="6.20658">
        <ele>1378</ele>
        <time>2025-11-21T12:24:38.000Z</time>
      </trkpt>
      <trkpt lat="44.49178" lon="6.20659">
        <ele>1378</ele>
        <time>2025-11-21T12:24:39.000Z</time>
      </trkpt>
      <trkpt lat="44.49177" lon="6.20658">
        <ele>1378</ele>
        <time>2025-11-21T12:24:40.000Z</time>
      </trkpt>
      <trkpt lat="44.49176" lon="6.20659">
        <ele>1378</ele>
        <time>2025-11-21T12:24:41.000Z</time>
      </trkpt>
      <trkpt lat="44.49175" lon="6.20659">
        <ele>1378</ele>
        <time>2025-11-21T12:24:42.000Z</time>
      </trkpt>
      <trkpt lat="44.49173" lon="6.20659">
        <ele>1379</ele>
        <time>2025-11-21T12:24:43.000Z</time>
      </trkpt>
      <trkpt lat="44.49172" lon="6.20659">
        <ele>1379</ele>
        <time>2025-11-21T12:24:44.000Z</time>
      </trkpt>
      <trkpt lat="44.49171" lon="6.20659">
        <ele>1380</ele>
        <time>2025-11-21T12:24:45.000Z</time>
      </trkpt>
      <trkpt lat="44.49169" lon="6.20659">
        <ele>1379</ele>
        <time>2025-11-21T12:24:46.000Z</time>
      </trkpt>
      <trkpt lat="44.49168" lon="6.20659">
        <ele>1379</ele>
        <time>2025-11-21T12:24:47.000Z</time>
      </trkpt>
      <trkpt lat="44.49166" lon="6.2066">
        <ele>1379</ele>
        <time>2025-11-21T12:24:48.000Z</time>
      </trkpt>
      <trkpt lat="44.49165" lon="6.2066">
        <ele>1378</ele>
        <time>2025-11-21T12:24:49.000Z</time>
      </trkpt>
      <trkpt lat="44.49163" lon="6.2066">
        <ele>1378</ele>
        <time>2025-11-21T12:24:50.000Z</time>
      </trkpt>
      <trkpt lat="44.49162" lon="6.2066">
        <ele>1378</ele>
        <time>2025-11-21T12:24:51.000Z</time>
      </trkpt>
      <trkpt lat="44.4916" lon="6.2066">
        <ele>1377</ele>
        <time>2025-11-21T12:24:52.000Z</time>
      </trkpt>
      <trkpt lat="44.49159" lon="6.20659">
        <ele>1376</ele>
        <time>2025-11-21T12:24:53.000Z</time>
      </trkpt>
      <trkpt lat="44.49159" lon="6.20659">
        <ele>1377</ele>
        <time>2025-11-21T12:24:54.000Z</time>
      </trkpt>
      <trkpt lat="44.49158" lon="6.20657">
        <ele>1377</ele>
        <time>2025-11-21T12:24:55.000Z</time>
      </trkpt>
      <trkpt lat="44.49158" lon="6.20657">
        <ele>1378</ele>
        <time>2025-11-21T12:24:56.000Z</time>
      </trkpt>
      <trkpt lat="44.49157" lon="6.20657">
        <ele>1378</ele>
        <time>2025-11-21T12:24:57.000Z</time>
      </trkpt>
      <trkpt lat="44.49156" lon="6.20657">
        <ele>1379</ele>
        <time>2025-11-21T12:24:58.000Z</time>
      </trkpt>
      <trkpt lat="44.49155" lon="6.20656">
        <ele>1378</ele>
        <time>2025-11-21T12:24:59.000Z</time>
      </trkpt>
      <trkpt lat="44.49154" lon="6.20656">
        <ele>1379</ele>
        <time>2025-11-21T12:25:00.000Z</time>
      </trkpt>
      <trkpt lat="44.49153" lon="6.20656">
        <ele>1379</ele>
        <time>2025-11-21T12:25:01.000Z</time>
      </trkpt>
      <trkpt lat="44.49151" lon="6.20656">
        <ele>1379</ele>
        <time>2025-11-21T12:25:02.000Z</time>
      </trkpt>
      <trkpt lat="44.4915" lon="6.20655">
        <ele>1378</ele>
        <time>2025-11-21T12:25:03.000Z</time>
      </trkpt>
      <trkpt lat="44.4915" lon="6.20654">
        <ele>1378</ele>
        <time>2025-11-21T12:25:04.000Z</time>
      </trkpt>
      <trkpt lat="44.49149" lon="6.20654">
        <ele>1378</ele>
        <time>2025-11-21T12:25:05.000Z</time>
      </trkpt>
      <trkpt lat="44.49148" lon="6.20654">
        <ele>1379</ele>
        <time>2025-11-21T12:25:06.000Z</time>
      </trkpt>
      <trkpt lat="44.49147" lon="6.20654">
        <ele>1378</ele>
        <time>2025-11-21T12:25:07.000Z</time>
      </trkpt>
      <trkpt lat="44.49146" lon="6.20653">
        <ele>1378</ele>
        <time>2025-11-21T12:25:08.000Z</time>
      </trkpt>
      <trkpt lat="44.49145" lon="6.20653">
        <ele>1377</ele>
        <time>2025-11-21T12:25:09.000Z</time>
      </trkpt>
      <trkpt lat="44.49143" lon="6.20652">
        <ele>1377</ele>
        <time>2025-11-21T12:25:10.000Z</time>
      </trkpt>
      <trkpt lat="44.49142" lon="6.20651">
        <ele>1377</ele>
        <time>2025-11-21T12:25:11.000Z</time>
      </trkpt>
      <trkpt lat="44.49141" lon="6.2065">
        <ele>1377</ele>
        <time>2025-11-21T12:25:12.000Z</time>
      </trkpt>
      <trkpt lat="44.4914" lon="6.2065">
        <ele>1377</ele>
        <time>2025-11-21T12:25:13.000Z</time>
      </trkpt>
      <trkpt lat="44.49138" lon="6.2065">
        <ele>1376</ele>
        <time>2025-11-21T12:25:14.000Z</time>
      </trkpt>
      <trkpt lat="44.49138" lon="6.20651">
        <ele>1376</ele>
        <time>2025-11-21T12:25:15.000Z</time>
      </trkpt>
      <trkpt lat="44.49137" lon="6.20651">
        <ele>1375</ele>
        <time>2025-11-21T12:25:16.000Z</time>
      </trkpt>
      <trkpt lat="44.49136" lon="6.20651">
        <ele>1375</ele>
        <time>2025-11-21T12:25:17.000Z</time>
      </trkpt>
      <trkpt lat="44.49135" lon="6.20651">
        <ele>1374</ele>
        <time>2025-11-21T12:25:18.000Z</time>
      </trkpt>
      <trkpt lat="44.49134" lon="6.2065">
        <ele>1373</ele>
        <time>2025-11-21T12:25:19.000Z</time>
      </trkpt>
      <trkpt lat="44.49133" lon="6.20651">
        <ele>1373</ele>
        <time>2025-11-21T12:25:20.000Z</time>
      </trkpt>
      <trkpt lat="44.49132" lon="6.2065">
        <ele>1372</ele>
        <time>2025-11-21T12:25:21.000Z</time>
      </trkpt>
      <trkpt lat="44.49131" lon="6.20649">
        <ele>1372</ele>
        <time>2025-11-21T12:25:22.000Z</time>
      </trkpt>
      <trkpt lat="44.49129" lon="6.20648">
        <ele>1372</ele>
        <time>2025-11-21T12:25:23.000Z</time>
      </trkpt>
      <trkpt lat="44.49129" lon="6.20648">
        <ele>1372</ele>
        <time>2025-11-21T12:25:24.000Z</time>
      </trkpt>
      <trkpt lat="44.49128" lon="6.20648">
        <ele>1372</ele>
        <time>2025-11-21T12:25:25.000Z</time>
      </trkpt>
      <trkpt lat="44.49127" lon="6.20648">
        <ele>1372</ele>
        <time>2025-11-21T12:25:26.000Z</time>
      </trkpt>
      <trkpt lat="44.49126" lon="6.20648">
        <ele>1371</ele>
        <time>2025-11-21T12:25:27.000Z</time>
      </trkpt>
      <trkpt lat="44.49125" lon="6.20648">
        <ele>1371</ele>
        <time>2025-11-21T12:25:28.000Z</time>
      </trkpt>
      <trkpt lat="44.49124" lon="6.20648">
        <ele>1371</ele>
        <time>2025-11-21T12:25:29.000Z</time>
      </trkpt>
      <trkpt lat="44.49123" lon="6.20648">
        <ele>1370</ele>
        <time>2025-11-21T12:25:30.000Z</time>
      </trkpt>
      <trkpt lat="44.49121" lon="6.20647">
        <ele>1370</ele>
        <time>2025-11-21T12:25:31.000Z</time>
      </trkpt>
      <trkpt lat="44.4912" lon="6.20647">
        <ele>1370</ele>
        <time>2025-11-21T12:25:32.000Z</time>
      </trkpt>
      <trkpt lat="44.49119" lon="6.20646">
        <ele>1370</ele>
        <time>2025-11-21T12:25:33.000Z</time>
      </trkpt>
      <trkpt lat="44.49118" lon="6.20645">
        <ele>1369</ele>
        <time>2025-11-21T12:25:34.000Z</time>
      </trkpt>
      <trkpt lat="44.49116" lon="6.20645">
        <ele>1369</ele>
        <time>2025-11-21T12:25:35.000Z</time>
      </trkpt>
      <trkpt lat="44.49115" lon="6.20644">
        <ele>1369</ele>
        <time>2025-11-21T12:25:36.000Z</time>
      </trkpt>
      <trkpt lat="44.49114" lon="6.20644">
        <ele>1369</ele>
        <time>2025-11-21T12:25:37.000Z</time>
      </trkpt>
      <trkpt lat="44.49112" lon="6.20644">
        <ele>1369</ele>
        <time>2025-11-21T12:25:38.000Z</time>
      </trkpt>
      <trkpt lat="44.49112" lon="6.20643">
        <ele>1369</ele>
        <time>2025-11-21T12:25:39.000Z</time>
      </trkpt>
      <trkpt lat="44.49111" lon="6.20643">
        <ele>1368</ele>
        <time>2025-11-21T12:25:40.000Z</time>
      </trkpt>
      <trkpt lat="44.4911" lon="6.20644">
        <ele>1367</ele>
        <time>2025-11-21T12:25:41.000Z</time>
      </trkpt>
      <trkpt lat="44.49109" lon="6.20643">
        <ele>1367</ele>
        <time>2025-11-21T12:25:42.000Z</time>
      </trkpt>
      <trkpt lat="44.49108" lon="6.20644">
        <ele>1367</ele>
        <time>2025-11-21T12:25:43.000Z</time>
      </trkpt>
      <trkpt lat="44.49107" lon="6.20644">
        <ele>1366</ele>
        <time>2025-11-21T12:25:44.000Z</time>
      </trkpt>
      <trkpt lat="44.49106" lon="6.20644">
        <ele>1366</ele>
        <time>2025-11-21T12:25:45.000Z</time>
      </trkpt>
      <trkpt lat="44.49105" lon="6.20643">
        <ele>1366</ele>
        <time>2025-11-21T12:25:46.000Z</time>
      </trkpt>
      <trkpt lat="44.49105" lon="6.20642">
        <ele>1367</ele>
        <time>2025-11-21T12:25:47.000Z</time>
      </trkpt>
      <trkpt lat="44.49106" lon="6.20642">
        <ele>1367</ele>
        <time>2025-11-21T12:25:48.000Z</time>
      </trkpt>
      <trkpt lat="44.49106" lon="6.20642">
        <ele>1366</ele>
        <time>2025-11-21T12:25:49.000Z</time>
      </trkpt>
      <trkpt lat="44.49105" lon="6.20641">
        <ele>1365</ele>
        <time>2025-11-21T12:25:50.000Z</time>
      </trkpt>
      <trkpt lat="44.49105" lon="6.2064">
        <ele>1366</ele>
        <time>2025-11-21T12:25:51.000Z</time>
      </trkpt>
      <trkpt lat="44.49105" lon="6.2064">
        <ele>1366</ele>
        <time>2025-11-21T12:25:52.000Z</time>
      </trkpt>
      <trkpt lat="44.49105" lon="6.20639">
        <ele>1366</ele>
        <time>2025-11-21T12:25:53.000Z</time>
      </trkpt>
      <trkpt lat="44.49104" lon="6.20637">
        <ele>1366</ele>
        <time>2025-11-21T12:25:54.000Z</time>
      </trkpt>
      <trkpt lat="44.49104" lon="6.20636">
        <ele>1365</ele>
        <time>2025-11-21T12:25:55.000Z</time>
      </trkpt>
      <trkpt lat="44.49103" lon="6.20635">
        <ele>1365</ele>
        <time>2025-11-21T12:25:56.000Z</time>
      </trkpt>
      <trkpt lat="44.49103" lon="6.20634">
        <ele>1365</ele>
        <time>2025-11-21T12:25:57.000Z</time>
      </trkpt>
      <trkpt lat="44.49103" lon="6.20634">
        <ele>1365</ele>
        <time>2025-11-21T12:25:58.000Z</time>
      </trkpt>
      <trkpt lat="44.49104" lon="6.20633">
        <ele>1364</ele>
        <time>2025-11-21T12:25:59.000Z</time>
      </trkpt>
      <trkpt lat="44.49105" lon="6.20633">
        <ele>1363</ele>
        <time>2025-11-21T12:26:00.000Z</time>
      </trkpt>
      <trkpt lat="44.49105" lon="6.20632">
        <ele>1363</ele>
        <time>2025-11-21T12:26:01.000Z</time>
      </trkpt>
      <trkpt lat="44.49105" lon="6.20631">
        <ele>1363</ele>
        <time>2025-11-21T12:26:02.000Z</time>
      </trkpt>
      <trkpt lat="44.49105" lon="6.2063">
        <ele>1363</ele>
        <time>2025-11-21T12:26:03.000Z</time>
      </trkpt>
      <trkpt lat="44.49104" lon="6.20629">
        <ele>1363</ele>
        <time>2025-11-21T12:26:04.000Z</time>
      </trkpt>
      <trkpt lat="44.49103" lon="6.20629">
        <ele>1363</ele>
        <time>2025-11-21T12:26:05.000Z</time>
      </trkpt>
      <trkpt lat="44.49104" lon="6.20628">
        <ele>1363</ele>
        <time>2025-11-21T12:26:06.000Z</time>
      </trkpt>
      <trkpt lat="44.49104" lon="6.20627">
        <ele>1362</ele>
        <time>2025-11-21T12:26:07.000Z</time>
      </trkpt>
      <trkpt lat="44.49104" lon="6.20627">
        <ele>1362</ele>
        <time>2025-11-21T12:26:08.000Z</time>
      </trkpt>
      <trkpt lat="44.49103" lon="6.20627">
        <ele>1362</ele>
        <time>2025-11-21T12:26:09.000Z</time>
      </trkpt>
      <trkpt lat="44.49103" lon="6.20627">
        <ele>1362</ele>
        <time>2025-11-21T12:26:10.000Z</time>
      </trkpt>
      <trkpt lat="44.49103" lon="6.20626">
        <ele>1362</ele>
        <time>2025-11-21T12:26:11.000Z</time>
      </trkpt>
      <trkpt lat="44.49103" lon="6.20626">
        <ele>1364</ele>
        <time>2025-11-21T12:26:12.000Z</time>
      </trkpt>
      <trkpt lat="44.49103" lon="6.20627">
        <ele>1364</ele>
        <time>2025-11-21T12:26:13.000Z</time>
      </trkpt>
      <trkpt lat="44.49103" lon="6.20628">
        <ele>1365</ele>
        <time>2025-11-21T12:26:14.000Z</time>
      </trkpt>
      <trkpt lat="44.49102" lon="6.20627">
        <ele>1365</ele>
        <time>2025-11-21T12:26:15.000Z</time>
      </trkpt>
      <trkpt lat="44.49102" lon="6.20627">
        <ele>1364</ele>
        <time>2025-11-21T12:26:16.000Z</time>
      </trkpt>
      <trkpt lat="44.49102" lon="6.20627">
        <ele>1363</ele>
        <time>2025-11-21T12:26:17.000Z</time>
      </trkpt>
      <trkpt lat="44.49103" lon="6.20624">
        <ele>1363</ele>
        <time>2025-11-21T12:26:42.000Z</time>
      </trkpt>
      <trkpt lat="44.49103" lon="6.20623">
        <ele>1363</ele>
        <time>2025-11-21T12:26:43.000Z</time>
      </trkpt>
      <trkpt lat="44.49104" lon="6.20621">
        <ele>1364</ele>
        <time>2025-11-21T12:26:44.000Z</time>
      </trkpt>
      <trkpt lat="44.49104" lon="6.20621">
        <ele>1364</ele>
        <time>2025-11-21T12:26:45.000Z</time>
      </trkpt>
      <trkpt lat="44.49104" lon="6.20621">
        <ele>1364</ele>
        <time>2025-11-21T12:26:46.000Z</time>
      </trkpt>
      <trkpt lat="44.49104" lon="6.20621">
        <ele>1364</ele>
        <time>2025-11-21T12:26:47.000Z</time>
      </trkpt>
      <trkpt lat="44.49104" lon="6.20621">
        <ele>1363</ele>
        <time>2025-11-21T12:26:48.000Z</time>
      </trkpt>
      <trkpt lat="44.49102" lon="6.20623">
        <ele>1361</ele>
        <time>2025-11-21T12:26:49.000Z</time>
      </trkpt>
      <trkpt lat="44.49102" lon="6.20622">
        <ele>1359</ele>
        <time>2025-11-21T12:26:50.000Z</time>
      </trkpt>
      <trkpt lat="44.49101" lon="6.20622">
        <ele>1357</ele>
        <time>2025-11-21T12:26:51.000Z</time>
      </trkpt>
      <trkpt lat="44.49103" lon="6.20625">
        <ele>1359</ele>
        <time>2025-11-21T12:27:46.000Z</time>
      </trkpt>
      <trkpt lat="44.49104" lon="6.20624">
        <ele>1359</ele>
        <time>2025-11-21T12:27:47.000Z</time>
      </trkpt>
      <trkpt lat="44.49105" lon="6.20623">
        <ele>1358</ele>
        <time>2025-11-21T12:27:48.000Z</time>
      </trkpt>
      <trkpt lat="44.49104" lon="6.20627">
        <ele>1358</ele>
        <time>2025-11-21T12:28:08.000Z</time>
      </trkpt>
      <trkpt lat="44.49103" lon="6.20628">
        <ele>1357</ele>
        <time>2025-11-21T12:28:09.000Z</time>
      </trkpt>
      <trkpt lat="44.49103" lon="6.2063">
        <ele>1357</ele>
        <time>2025-11-21T12:28:10.000Z</time>
      </trkpt>
      <trkpt lat="44.49102" lon="6.20631">
        <ele>1356</ele>
        <time>2025-11-21T12:28:11.000Z</time>
      </trkpt>
      <trkpt lat="44.49102" lon="6.20632">
        <ele>1356</ele>
        <time>2025-11-21T12:28:12.000Z</time>
      </trkpt>
      <trkpt lat="44.49102" lon="6.20634">
        <ele>1357</ele>
        <time>2025-11-21T12:28:13.000Z</time>
      </trkpt>
      <trkpt lat="44.49102" lon="6.20636">
        <ele>1358</ele>
        <time>2025-11-21T12:28:14.000Z</time>
      </trkpt>
      <trkpt lat="44.49101" lon="6.20637">
        <ele>1358</ele>
        <time>2025-11-21T12:28:15.000Z</time>
      </trkpt>
      <trkpt lat="44.491" lon="6.20639">
        <ele>1360</ele>
        <time>2025-11-21T12:28:16.000Z</time>
      </trkpt>
      <trkpt lat="44.491" lon="6.20641">
        <ele>1360</ele>
        <time>2025-11-21T12:28:17.000Z</time>
      </trkpt>
      <trkpt lat="44.49099" lon="6.20642">
        <ele>1361</ele>
        <time>2025-11-21T12:28:18.000Z</time>
      </trkpt>
      <trkpt lat="44.49099" lon="6.20643">
        <ele>1361</ele>
        <time>2025-11-21T12:28:19.000Z</time>
      </trkpt>
      <trkpt lat="44.49098" lon="6.20645">
        <ele>1361</ele>
        <time>2025-11-21T12:28:20.000Z</time>
      </trkpt>
      <trkpt lat="44.49098" lon="6.20646">
        <ele>1361</ele>
        <time>2025-11-21T12:28:21.000Z</time>
      </trkpt>
      <trkpt lat="44.49097" lon="6.20646">
        <ele>1361</ele>
        <time>2025-11-21T12:28:22.000Z</time>
      </trkpt>
      <trkpt lat="44.49096" lon="6.20646">
        <ele>1362</ele>
        <time>2025-11-21T12:28:23.000Z</time>
      </trkpt>
      <trkpt lat="44.49095" lon="6.20647">
        <ele>1362</ele>
        <time>2025-11-21T12:28:24.000Z</time>
      </trkpt>
      <trkpt lat="44.49094" lon="6.20648">
        <ele>1362</ele>
        <time>2025-11-21T12:28:25.000Z</time>
      </trkpt>
      <trkpt lat="44.49093" lon="6.20648">
        <ele>1362</ele>
        <time>2025-11-21T12:28:26.000Z</time>
      </trkpt>
      <trkpt lat="44.49092" lon="6.2065">
        <ele>1362</ele>
        <time>2025-11-21T12:28:27.000Z</time>
      </trkpt>
      <trkpt lat="44.49091" lon="6.20652">
        <ele>1362</ele>
        <time>2025-11-21T12:28:28.000Z</time>
      </trkpt>
      <trkpt lat="44.4909" lon="6.20653">
        <ele>1362</ele>
        <time>2025-11-21T12:28:29.000Z</time>
      </trkpt>
      <trkpt lat="44.49089" lon="6.20653">
        <ele>1362</ele>
        <time>2025-11-21T12:28:30.000Z</time>
      </trkpt>
      <trkpt lat="44.49088" lon="6.20654">
        <ele>1363</ele>
        <time>2025-11-21T12:28:31.000Z</time>
      </trkpt>
      <trkpt lat="44.49087" lon="6.20655">
        <ele>1363</ele>
        <time>2025-11-21T12:28:32.000Z</time>
      </trkpt>
      <trkpt lat="44.49086" lon="6.20656">
        <ele>1363</ele>
        <time>2025-11-21T12:28:33.000Z</time>
      </trkpt>
      <trkpt lat="44.49084" lon="6.20657">
        <ele>1363</ele>
        <time>2025-11-21T12:28:34.000Z</time>
      </trkpt>
      <trkpt lat="44.49084" lon="6.20657">
        <ele>1363</ele>
        <time>2025-11-21T12:28:35.000Z</time>
      </trkpt>
      <trkpt lat="44.49083" lon="6.20658">
        <ele>1363</ele>
        <time>2025-11-21T12:28:36.000Z</time>
      </trkpt>
      <trkpt lat="44.49082" lon="6.20658">
        <ele>1363</ele>
        <time>2025-11-21T12:28:37.000Z</time>
      </trkpt>
      <trkpt lat="44.4908" lon="6.20659">
        <ele>1363</ele>
        <time>2025-11-21T12:28:38.000Z</time>
      </trkpt>
      <trkpt lat="44.4908" lon="6.2066">
        <ele>1363</ele>
        <time>2025-11-21T12:28:39.000Z</time>
      </trkpt>
      <trkpt lat="44.49079" lon="6.20661">
        <ele>1363</ele>
        <time>2025-11-21T12:28:40.000Z</time>
      </trkpt>
      <trkpt lat="44.49077" lon="6.20662">
        <ele>1363</ele>
        <time>2025-11-21T12:28:41.000Z</time>
      </trkpt>
      <trkpt lat="44.49076" lon="6.20663">
        <ele>1363</ele>
        <time>2025-11-21T12:28:42.000Z</time>
      </trkpt>
      <trkpt lat="44.49075" lon="6.20663">
        <ele>1363</ele>
        <time>2025-11-21T12:28:43.000Z</time>
      </trkpt>
      <trkpt lat="44.49074" lon="6.20664">
        <ele>1363</ele>
        <time>2025-11-21T12:28:44.000Z</time>
      </trkpt>
      <trkpt lat="44.49073" lon="6.20665">
        <ele>1363</ele>
        <time>2025-11-21T12:28:45.000Z</time>
      </trkpt>
      <trkpt lat="44.49072" lon="6.20666">
        <ele>1362</ele>
        <time>2025-11-21T12:28:46.000Z</time>
      </trkpt>
      <trkpt lat="44.4907" lon="6.20667">
        <ele>1362</ele>
        <time>2025-11-21T12:28:47.000Z</time>
      </trkpt>
      <trkpt lat="44.49069" lon="6.20668">
        <ele>1362</ele>
        <time>2025-11-21T12:28:48.000Z</time>
      </trkpt>
      <trkpt lat="44.49068" lon="6.20669">
        <ele>1362</ele>
        <time>2025-11-21T12:28:49.000Z</time>
      </trkpt>
      <trkpt lat="44.49066" lon="6.20669">
        <ele>1362</ele>
        <time>2025-11-21T12:28:50.000Z</time>
      </trkpt>
      <trkpt lat="44.49065" lon="6.2067">
        <ele>1362</ele>
        <time>2025-11-21T12:28:51.000Z</time>
      </trkpt>
      <trkpt lat="44.49063" lon="6.2067">
        <ele>1362</ele>
        <time>2025-11-21T12:28:52.000Z</time>
      </trkpt>
      <trkpt lat="44.49062" lon="6.20671">
        <ele>1362</ele>
        <time>2025-11-21T12:28:53.000Z</time>
      </trkpt>
      <trkpt lat="44.49061" lon="6.20672">
        <ele>1361</ele>
        <time>2025-11-21T12:28:54.000Z</time>
      </trkpt>
      <trkpt lat="44.49059" lon="6.20672">
        <ele>1361</ele>
        <time>2025-11-21T12:28:55.000Z</time>
      </trkpt>
      <trkpt lat="44.49058" lon="6.20673">
        <ele>1361</ele>
        <time>2025-11-21T12:28:56.000Z</time>
      </trkpt>
      <trkpt lat="44.49057" lon="6.20673">
        <ele>1361</ele>
        <time>2025-11-21T12:28:57.000Z</time>
      </trkpt>
      <trkpt lat="44.49056" lon="6.20673">
        <ele>1360</ele>
        <time>2025-11-21T12:28:58.000Z</time>
      </trkpt>
      <trkpt lat="44.49055" lon="6.20674">
        <ele>1360</ele>
        <time>2025-11-21T12:28:59.000Z</time>
      </trkpt>
      <trkpt lat="44.49054" lon="6.20675">
        <ele>1360</ele>
        <time>2025-11-21T12:29:00.000Z</time>
      </trkpt>
      <trkpt lat="44.49052" lon="6.20675">
        <ele>1360</ele>
        <time>2025-11-21T12:29:01.000Z</time>
      </trkpt>
      <trkpt lat="44.49051" lon="6.20675">
        <ele>1359</ele>
        <time>2025-11-21T12:29:02.000Z</time>
      </trkpt>
      <trkpt lat="44.4905" lon="6.20676">
        <ele>1359</ele>
        <time>2025-11-21T12:29:03.000Z</time>
      </trkpt>
      <trkpt lat="44.49049" lon="6.20676">
        <ele>1358</ele>
        <time>2025-11-21T12:29:04.000Z</time>
      </trkpt>
      <trkpt lat="44.49047" lon="6.20677">
        <ele>1358</ele>
        <time>2025-11-21T12:29:05.000Z</time>
      </trkpt>
      <trkpt lat="44.49046" lon="6.20678">
        <ele>1358</ele>
        <time>2025-11-21T12:29:06.000Z</time>
      </trkpt>
      <trkpt lat="44.49045" lon="6.20678">
        <ele>1358</ele>
        <time>2025-11-21T12:29:07.000Z</time>
      </trkpt>
      <trkpt lat="44.49044" lon="6.20679">
        <ele>1358</ele>
        <time>2025-11-21T12:29:08.000Z</time>
      </trkpt>
      <trkpt lat="44.49043" lon="6.20679">
        <ele>1357</ele>
        <time>2025-11-21T12:29:09.000Z</time>
      </trkpt>
      <trkpt lat="44.49042" lon="6.2068">
        <ele>1357</ele>
        <time>2025-11-21T12:29:10.000Z</time>
      </trkpt>
      <trkpt lat="44.49041" lon="6.20681">
        <ele>1356</ele>
        <time>2025-11-21T12:29:11.000Z</time>
      </trkpt>
      <trkpt lat="44.49039" lon="6.20681">
        <ele>1356</ele>
        <time>2025-11-21T12:29:12.000Z</time>
      </trkpt>
      <trkpt lat="44.49038" lon="6.20681">
        <ele>1356</ele>
        <time>2025-11-21T12:29:13.000Z</time>
      </trkpt>
      <trkpt lat="44.49036" lon="6.20681">
        <ele>1356</ele>
        <time>2025-11-21T12:29:14.000Z</time>
      </trkpt>
      <trkpt lat="44.49035" lon="6.20682">
        <ele>1355</ele>
        <time>2025-11-21T12:29:15.000Z</time>
      </trkpt>
      <trkpt lat="44.49033" lon="6.20682">
        <ele>1355</ele>
        <time>2025-11-21T12:29:16.000Z</time>
      </trkpt>
      <trkpt lat="44.49032" lon="6.20683">
        <ele>1355</ele>
        <time>2025-11-21T12:29:17.000Z</time>
      </trkpt>
      <trkpt lat="44.4903" lon="6.20684">
        <ele>1355</ele>
        <time>2025-11-21T12:29:18.000Z</time>
      </trkpt>
      <trkpt lat="44.49029" lon="6.20685">
        <ele>1355</ele>
        <time>2025-11-21T12:29:19.000Z</time>
      </trkpt>
      <trkpt lat="44.49027" lon="6.20686">
        <ele>1355</ele>
        <time>2025-11-21T12:29:20.000Z</time>
      </trkpt>
      <trkpt lat="44.49025" lon="6.20687">
        <ele>1355</ele>
        <time>2025-11-21T12:29:21.000Z</time>
      </trkpt>
      <trkpt lat="44.49024" lon="6.20687">
        <ele>1355</ele>
        <time>2025-11-21T12:29:22.000Z</time>
      </trkpt>
      <trkpt lat="44.49023" lon="6.20688">
        <ele>1355</ele>
        <time>2025-11-21T12:29:23.000Z</time>
      </trkpt>
      <trkpt lat="44.49022" lon="6.20689">
        <ele>1355</ele>
        <time>2025-11-21T12:29:24.000Z</time>
      </trkpt>
      <trkpt lat="44.49021" lon="6.20689">
        <ele>1355</ele>
        <time>2025-11-21T12:29:25.000Z</time>
      </trkpt>
      <trkpt lat="44.4902" lon="6.20689">
        <ele>1355</ele>
        <time>2025-11-21T12:29:26.000Z</time>
      </trkpt>
      <trkpt lat="44.49019" lon="6.20689">
        <ele>1356</ele>
        <time>2025-11-21T12:29:27.000Z</time>
      </trkpt>
      <trkpt lat="44.49018" lon="6.20689">
        <ele>1356</ele>
        <time>2025-11-21T12:29:28.000Z</time>
      </trkpt>
      <trkpt lat="44.49016" lon="6.2069">
        <ele>1356</ele>
        <time>2025-11-21T12:29:29.000Z</time>
      </trkpt>
      <trkpt lat="44.49015" lon="6.2069">
        <ele>1356</ele>
        <time>2025-11-21T12:29:30.000Z</time>
      </trkpt>
      <trkpt lat="44.49014" lon="6.20691">
        <ele>1356</ele>
        <time>2025-11-21T12:29:31.000Z</time>
      </trkpt>
      <trkpt lat="44.49012" lon="6.20691">
        <ele>1357</ele>
        <time>2025-11-21T12:29:32.000Z</time>
      </trkpt>
      <trkpt lat="44.49011" lon="6.20692">
        <ele>1357</ele>
        <time>2025-11-21T12:29:33.000Z</time>
      </trkpt>
      <trkpt lat="44.4901" lon="6.20692">
        <ele>1358</ele>
        <time>2025-11-21T12:29:34.000Z</time>
      </trkpt>
      <trkpt lat="44.49009" lon="6.20692">
        <ele>1357</ele>
        <time>2025-11-21T12:29:35.000Z</time>
      </trkpt>
      <trkpt lat="44.49008" lon="6.20692">
        <ele>1357</ele>
        <time>2025-11-21T12:29:36.000Z</time>
      </trkpt>
      <trkpt lat="44.49007" lon="6.20693">
        <ele>1357</ele>
        <time>2025-11-21T12:29:37.000Z</time>
      </trkpt>
      <trkpt lat="44.49006" lon="6.20693">
        <ele>1357</ele>
        <time>2025-11-21T12:29:38.000Z</time>
      </trkpt>
      <trkpt lat="44.49004" lon="6.20693">
        <ele>1358</ele>
        <time>2025-11-21T12:29:39.000Z</time>
      </trkpt>
      <trkpt lat="44.49004" lon="6.20694">
        <ele>1358</ele>
        <time>2025-11-21T12:29:40.000Z</time>
      </trkpt>
      <trkpt lat="44.49002" lon="6.20694">
        <ele>1357</ele>
        <time>2025-11-21T12:29:41.000Z</time>
      </trkpt>
      <trkpt lat="44.49001" lon="6.20695">
        <ele>1356</ele>
        <time>2025-11-21T12:29:42.000Z</time>
      </trkpt>
      <trkpt lat="44.49" lon="6.20695">
        <ele>1356</ele>
        <time>2025-11-21T12:29:43.000Z</time>
      </trkpt>
      <trkpt lat="44.48999" lon="6.20696">
        <ele>1356</ele>
        <time>2025-11-21T12:29:44.000Z</time>
      </trkpt>
      <trkpt lat="44.48997" lon="6.20696">
        <ele>1356</ele>
        <time>2025-11-21T12:29:45.000Z</time>
      </trkpt>
      <trkpt lat="44.48996" lon="6.20696">
        <ele>1357</ele>
        <time>2025-11-21T12:29:46.000Z</time>
      </trkpt>
      <trkpt lat="44.48995" lon="6.20697">
        <ele>1356</ele>
        <time>2025-11-21T12:29:47.000Z</time>
      </trkpt>
      <trkpt lat="44.48993" lon="6.20697">
        <ele>1356</ele>
        <time>2025-11-21T12:29:48.000Z</time>
      </trkpt>
      <trkpt lat="44.48992" lon="6.20698">
        <ele>1356</ele>
        <time>2025-11-21T12:29:49.000Z</time>
      </trkpt>
      <trkpt lat="44.48992" lon="6.20698">
        <ele>1356</ele>
        <time>2025-11-21T12:29:50.000Z</time>
      </trkpt>
      <trkpt lat="44.4899" lon="6.20699">
        <ele>1355</ele>
        <time>2025-11-21T12:29:51.000Z</time>
      </trkpt>
      <trkpt lat="44.4899" lon="6.207">
        <ele>1355</ele>
        <time>2025-11-21T12:29:52.000Z</time>
      </trkpt>
      <trkpt lat="44.48988" lon="6.207">
        <ele>1355</ele>
        <time>2025-11-21T12:29:53.000Z</time>
      </trkpt>
      <trkpt lat="44.48987" lon="6.207">
        <ele>1355</ele>
        <time>2025-11-21T12:29:54.000Z</time>
      </trkpt>
      <trkpt lat="44.48985" lon="6.207">
        <ele>1355</ele>
        <time>2025-11-21T12:29:55.000Z</time>
      </trkpt>
      <trkpt lat="44.48984" lon="6.20701">
        <ele>1355</ele>
        <time>2025-11-21T12:29:56.000Z</time>
      </trkpt>
      <trkpt lat="44.48983" lon="6.20702">
        <ele>1355</ele>
        <time>2025-11-21T12:29:57.000Z</time>
      </trkpt>
      <trkpt lat="44.48982" lon="6.20702">
        <ele>1355</ele>
        <time>2025-11-21T12:29:58.000Z</time>
      </trkpt>
      <trkpt lat="44.48981" lon="6.20702">
        <ele>1355</ele>
        <time>2025-11-21T12:29:59.000Z</time>
      </trkpt>
      <trkpt lat="44.4898" lon="6.20703">
        <ele>1356</ele>
        <time>2025-11-21T12:30:00.000Z</time>
      </trkpt>
      <trkpt lat="44.48978" lon="6.20704">
        <ele>1356</ele>
        <time>2025-11-21T12:30:01.000Z</time>
      </trkpt>
      <trkpt lat="44.48977" lon="6.20705">
        <ele>1357</ele>
        <time>2025-11-21T12:30:02.000Z</time>
      </trkpt>
      <trkpt lat="44.48976" lon="6.20706">
        <ele>1357</ele>
        <time>2025-11-21T12:30:03.000Z</time>
      </trkpt>
      <trkpt lat="44.48975" lon="6.20707">
        <ele>1357</ele>
        <time>2025-11-21T12:30:04.000Z</time>
      </trkpt>
      <trkpt lat="44.48973" lon="6.20707">
        <ele>1357</ele>
        <time>2025-11-21T12:30:05.000Z</time>
      </trkpt>
      <trkpt lat="44.48972" lon="6.20708">
        <ele>1356</ele>
        <time>2025-11-21T12:30:06.000Z</time>
      </trkpt>
      <trkpt lat="44.48971" lon="6.20709">
        <ele>1356</ele>
        <time>2025-11-21T12:30:07.000Z</time>
      </trkpt>
      <trkpt lat="44.4897" lon="6.2071">
        <ele>1357</ele>
        <time>2025-11-21T12:30:08.000Z</time>
      </trkpt>
      <trkpt lat="44.48969" lon="6.2071">
        <ele>1357</ele>
        <time>2025-11-21T12:30:09.000Z</time>
      </trkpt>
      <trkpt lat="44.48968" lon="6.2071">
        <ele>1357</ele>
        <time>2025-11-21T12:30:10.000Z</time>
      </trkpt>
      <trkpt lat="44.48966" lon="6.2071">
        <ele>1357</ele>
        <time>2025-11-21T12:30:11.000Z</time>
      </trkpt>
      <trkpt lat="44.48965" lon="6.20711">
        <ele>1357</ele>
        <time>2025-11-21T12:30:12.000Z</time>
      </trkpt>
      <trkpt lat="44.48964" lon="6.20711">
        <ele>1357</ele>
        <time>2025-11-21T12:30:13.000Z</time>
      </trkpt>
      <trkpt lat="44.48963" lon="6.20712">
        <ele>1358</ele>
        <time>2025-11-21T12:30:14.000Z</time>
      </trkpt>
      <trkpt lat="44.48962" lon="6.20712">
        <ele>1358</ele>
        <time>2025-11-21T12:30:15.000Z</time>
      </trkpt>
      <trkpt lat="44.48962" lon="6.20712">
        <ele>1358</ele>
        <time>2025-11-21T12:30:16.000Z</time>
      </trkpt>
      <trkpt lat="44.48962" lon="6.20712">
        <ele>1358</ele>
        <time>2025-11-21T12:30:17.000Z</time>
      </trkpt>
      <trkpt lat="44.4896" lon="6.20712">
        <ele>1358</ele>
        <time>2025-11-21T12:30:18.000Z</time>
      </trkpt>
      <trkpt lat="44.48959" lon="6.20712">
        <ele>1358</ele>
        <time>2025-11-21T12:30:19.000Z</time>
      </trkpt>
      <trkpt lat="44.48958" lon="6.20712">
        <ele>1358</ele>
        <time>2025-11-21T12:30:20.000Z</time>
      </trkpt>
      <trkpt lat="44.48957" lon="6.20713">
        <ele>1358</ele>
        <time>2025-11-21T12:30:21.000Z</time>
      </trkpt>
      <trkpt lat="44.48955" lon="6.20713">
        <ele>1358</ele>
        <time>2025-11-21T12:30:22.000Z</time>
      </trkpt>
      <trkpt lat="44.48953" lon="6.20713">
        <ele>1358</ele>
        <time>2025-11-21T12:30:23.000Z</time>
      </trkpt>
      <trkpt lat="44.48953" lon="6.20714">
        <ele>1358</ele>
        <time>2025-11-21T12:30:24.000Z</time>
      </trkpt>
      <trkpt lat="44.48952" lon="6.20715">
        <ele>1359</ele>
        <time>2025-11-21T12:30:25.000Z</time>
      </trkpt>
      <trkpt lat="44.48951" lon="6.20715">
        <ele>1359</ele>
        <time>2025-11-21T12:30:26.000Z</time>
      </trkpt>
      <trkpt lat="44.4895" lon="6.20716">
        <ele>1359</ele>
        <time>2025-11-21T12:30:27.000Z</time>
      </trkpt>
      <trkpt lat="44.4895" lon="6.20716">
        <ele>1358</ele>
        <time>2025-11-21T12:30:28.000Z</time>
      </trkpt>
      <trkpt lat="44.48949" lon="6.20717">
        <ele>1358</ele>
        <time>2025-11-21T12:30:29.000Z</time>
      </trkpt>
      <trkpt lat="44.48948" lon="6.20718">
        <ele>1358</ele>
        <time>2025-11-21T12:30:30.000Z</time>
      </trkpt>
      <trkpt lat="44.48947" lon="6.20719">
        <ele>1359</ele>
        <time>2025-11-21T12:30:31.000Z</time>
      </trkpt>
      <trkpt lat="44.48947" lon="6.20719">
        <ele>1358</ele>
        <time>2025-11-21T12:30:32.000Z</time>
      </trkpt>
      <trkpt lat="44.48946" lon="6.20719">
        <ele>1358</ele>
        <time>2025-11-21T12:30:33.000Z</time>
      </trkpt>
      <trkpt lat="44.48945" lon="6.20719">
        <ele>1358</ele>
        <time>2025-11-21T12:30:34.000Z</time>
      </trkpt>
      <trkpt lat="44.48944" lon="6.2072">
        <ele>1357</ele>
        <time>2025-11-21T12:30:35.000Z</time>
      </trkpt>
      <trkpt lat="44.48943" lon="6.2072">
        <ele>1357</ele>
        <time>2025-11-21T12:30:36.000Z</time>
      </trkpt>
      <trkpt lat="44.48941" lon="6.20721">
        <ele>1356</ele>
        <time>2025-11-21T12:30:37.000Z</time>
      </trkpt>
      <trkpt lat="44.4894" lon="6.20721">
        <ele>1356</ele>
        <time>2025-11-21T12:30:38.000Z</time>
      </trkpt>
      <trkpt lat="44.4894" lon="6.20722">
        <ele>1356</ele>
        <time>2025-11-21T12:30:39.000Z</time>
      </trkpt>
      <trkpt lat="44.48938" lon="6.20723">
        <ele>1356</ele>
        <time>2025-11-21T12:30:40.000Z</time>
      </trkpt>
      <trkpt lat="44.48937" lon="6.20723">
        <ele>1356</ele>
        <time>2025-11-21T12:30:41.000Z</time>
      </trkpt>
      <trkpt lat="44.48936" lon="6.20724">
        <ele>1356</ele>
        <time>2025-11-21T12:30:42.000Z</time>
      </trkpt>
      <trkpt lat="44.48935" lon="6.20724">
        <ele>1355</ele>
        <time>2025-11-21T12:30:43.000Z</time>
      </trkpt>
      <trkpt lat="44.48934" lon="6.20724">
        <ele>1355</ele>
        <time>2025-11-21T12:30:44.000Z</time>
      </trkpt>
      <trkpt lat="44.48932" lon="6.20724">
        <ele>1356</ele>
        <time>2025-11-21T12:30:45.000Z</time>
      </trkpt>
      <trkpt lat="44.48931" lon="6.20724">
        <ele>1355</ele>
        <time>2025-11-21T12:30:46.000Z</time>
      </trkpt>
      <trkpt lat="44.48929" lon="6.20723">
        <ele>1355</ele>
        <time>2025-11-21T12:30:47.000Z</time>
      </trkpt>
      <trkpt lat="44.48928" lon="6.20723">
        <ele>1356</ele>
        <time>2025-11-21T12:30:48.000Z</time>
      </trkpt>
      <trkpt lat="44.48927" lon="6.20723">
        <ele>1355</ele>
        <time>2025-11-21T12:30:49.000Z</time>
      </trkpt>
      <trkpt lat="44.48926" lon="6.20724">
        <ele>1355</ele>
        <time>2025-11-21T12:30:50.000Z</time>
      </trkpt>
      <trkpt lat="44.48924" lon="6.20723">
        <ele>1355</ele>
        <time>2025-11-21T12:30:51.000Z</time>
      </trkpt>
      <trkpt lat="44.48923" lon="6.20723">
        <ele>1355</ele>
        <time>2025-11-21T12:30:52.000Z</time>
      </trkpt>
      <trkpt lat="44.48922" lon="6.20724">
        <ele>1355</ele>
        <time>2025-11-21T12:30:53.000Z</time>
      </trkpt>
      <trkpt lat="44.4892" lon="6.20724">
        <ele>1355</ele>
        <time>2025-11-21T12:30:54.000Z</time>
      </trkpt>
      <trkpt lat="44.48918" lon="6.20723">
        <ele>1355</ele>
        <time>2025-11-21T12:30:55.000Z</time>
      </trkpt>
      <trkpt lat="44.48917" lon="6.20724">
        <ele>1355</ele>
        <time>2025-11-21T12:30:56.000Z</time>
      </trkpt>
      <trkpt lat="44.48916" lon="6.20724">
        <ele>1355</ele>
        <time>2025-11-21T12:30:57.000Z</time>
      </trkpt>
      <trkpt lat="44.48915" lon="6.20724">
        <ele>1355</ele>
        <time>2025-11-21T12:30:58.000Z</time>
      </trkpt>
      <trkpt lat="44.48915" lon="6.20725">
        <ele>1355</ele>
        <time>2025-11-21T12:30:59.000Z</time>
      </trkpt>
      <trkpt lat="44.48914" lon="6.20726">
        <ele>1356</ele>
        <time>2025-11-21T12:31:00.000Z</time>
      </trkpt>
      <trkpt lat="44.48913" lon="6.20726">
        <ele>1355</ele>
        <time>2025-11-21T12:31:01.000Z</time>
      </trkpt>
      <trkpt lat="44.48912" lon="6.20726">
        <ele>1355</ele>
        <time>2025-11-21T12:31:02.000Z</time>
      </trkpt>
      <trkpt lat="44.48911" lon="6.20727">
        <ele>1356</ele>
        <time>2025-11-21T12:31:03.000Z</time>
      </trkpt>
      <trkpt lat="44.4891" lon="6.20727">
        <ele>1355</ele>
        <time>2025-11-21T12:31:04.000Z</time>
      </trkpt>
      <trkpt lat="44.48909" lon="6.20727">
        <ele>1355</ele>
        <time>2025-11-21T12:31:05.000Z</time>
      </trkpt>
      <trkpt lat="44.48908" lon="6.20727">
        <ele>1355</ele>
        <time>2025-11-21T12:31:06.000Z</time>
      </trkpt>
      <trkpt lat="44.48907" lon="6.20727">
        <ele>1355</ele>
        <time>2025-11-21T12:31:07.000Z</time>
      </trkpt>
      <trkpt lat="44.48906" lon="6.20727">
        <ele>1355</ele>
        <time>2025-11-21T12:31:08.000Z</time>
      </trkpt>
      <trkpt lat="44.48904" lon="6.20727">
        <ele>1355</ele>
        <time>2025-11-21T12:31:09.000Z</time>
      </trkpt>
      <trkpt lat="44.48903" lon="6.20727">
        <ele>1355</ele>
        <time>2025-11-21T12:31:10.000Z</time>
      </trkpt>
      <trkpt lat="44.48902" lon="6.20727">
        <ele>1355</ele>
        <time>2025-11-21T12:31:11.000Z</time>
      </trkpt>
      <trkpt lat="44.489" lon="6.20727">
        <ele>1355</ele>
        <time>2025-11-21T12:31:12.000Z</time>
      </trkpt>
      <trkpt lat="44.48899" lon="6.20728">
        <ele>1354</ele>
        <time>2025-11-21T12:31:13.000Z</time>
      </trkpt>
      <trkpt lat="44.48897" lon="6.20728">
        <ele>1354</ele>
        <time>2025-11-21T12:31:14.000Z</time>
      </trkpt>
      <trkpt lat="44.48896" lon="6.20728">
        <ele>1354</ele>
        <time>2025-11-21T12:31:15.000Z</time>
      </trkpt>
      <trkpt lat="44.48895" lon="6.20728">
        <ele>1354</ele>
        <time>2025-11-21T12:31:16.000Z</time>
      </trkpt>
      <trkpt lat="44.48895" lon="6.20728">
        <ele>1354</ele>
        <time>2025-11-21T12:31:17.000Z</time>
      </trkpt>
      <trkpt lat="44.48894" lon="6.20728">
        <ele>1354</ele>
        <time>2025-11-21T12:31:18.000Z</time>
      </trkpt>
      <trkpt lat="44.48893" lon="6.20728">
        <ele>1354</ele>
        <time>2025-11-21T12:31:19.000Z</time>
      </trkpt>
      <trkpt lat="44.48891" lon="6.20728">
        <ele>1354</ele>
        <time>2025-11-21T12:31:20.000Z</time>
      </trkpt>
      <trkpt lat="44.4889" lon="6.20729">
        <ele>1354</ele>
        <time>2025-11-21T12:31:21.000Z</time>
      </trkpt>
      <trkpt lat="44.48888" lon="6.20729">
        <ele>1353</ele>
        <time>2025-11-21T12:31:22.000Z</time>
      </trkpt>
      <trkpt lat="44.48887" lon="6.20729">
        <ele>1353</ele>
        <time>2025-11-21T12:31:23.000Z</time>
      </trkpt>
      <trkpt lat="44.48887" lon="6.20729">
        <ele>1353</ele>
        <time>2025-11-21T12:31:24.000Z</time>
      </trkpt>
      <trkpt lat="44.48886" lon="6.20729">
        <ele>1352</ele>
        <time>2025-11-21T12:31:25.000Z</time>
      </trkpt>
      <trkpt lat="44.48885" lon="6.2073">
        <ele>1352</ele>
        <time>2025-11-21T12:31:26.000Z</time>
      </trkpt>
      <trkpt lat="44.48884" lon="6.2073">
        <ele>1352</ele>
        <time>2025-11-21T12:31:27.000Z</time>
      </trkpt>
      <trkpt lat="44.48882" lon="6.2073">
        <ele>1352</ele>
        <time>2025-11-21T12:31:28.000Z</time>
      </trkpt>
      <trkpt lat="44.48881" lon="6.20728">
        <ele>1352</ele>
        <time>2025-11-21T12:31:29.000Z</time>
      </trkpt>
      <trkpt lat="44.4888" lon="6.20728">
        <ele>1352</ele>
        <time>2025-11-21T12:31:30.000Z</time>
      </trkpt>
      <trkpt lat="44.48879" lon="6.20728">
        <ele>1351</ele>
        <time>2025-11-21T12:31:31.000Z</time>
      </trkpt>
      <trkpt lat="44.48878" lon="6.20728">
        <ele>1352</ele>
        <time>2025-11-21T12:31:32.000Z</time>
      </trkpt>
      <trkpt lat="44.48876" lon="6.20729">
        <ele>1352</ele>
        <time>2025-11-21T12:31:33.000Z</time>
      </trkpt>
      <trkpt lat="44.48875" lon="6.20728">
        <ele>1352</ele>
        <time>2025-11-21T12:31:34.000Z</time>
      </trkpt>
      <trkpt lat="44.48873" lon="6.20728">
        <ele>1351</ele>
        <time>2025-11-21T12:31:35.000Z</time>
      </trkpt>
      <trkpt lat="44.48872" lon="6.20729">
        <ele>1351</ele>
        <time>2025-11-21T12:31:36.000Z</time>
      </trkpt>
      <trkpt lat="44.48871" lon="6.20729">
        <ele>1351</ele>
        <time>2025-11-21T12:31:37.000Z</time>
      </trkpt>
      <trkpt lat="44.48871" lon="6.2073">
        <ele>1351</ele>
        <time>2025-11-21T12:31:38.000Z</time>
      </trkpt>
      <trkpt lat="44.4887" lon="6.20731">
        <ele>1351</ele>
        <time>2025-11-21T12:31:39.000Z</time>
      </trkpt>
      <trkpt lat="44.48868" lon="6.2073">
        <ele>1350</ele>
        <time>2025-11-21T12:31:40.000Z</time>
      </trkpt>
      <trkpt lat="44.48867" lon="6.20731">
        <ele>1350</ele>
        <time>2025-11-21T12:31:41.000Z</time>
      </trkpt>
      <trkpt lat="44.48866" lon="6.2073">
        <ele>1350</ele>
        <time>2025-11-21T12:31:42.000Z</time>
      </trkpt>
      <trkpt lat="44.48865" lon="6.2073">
        <ele>1350</ele>
        <time>2025-11-21T12:31:43.000Z</time>
      </trkpt>
      <trkpt lat="44.48864" lon="6.2073">
        <ele>1350</ele>
        <time>2025-11-21T12:31:44.000Z</time>
      </trkpt>
      <trkpt lat="44.48863" lon="6.2073">
        <ele>1349</ele>
        <time>2025-11-21T12:31:45.000Z</time>
      </trkpt>
      <trkpt lat="44.48861" lon="6.20729">
        <ele>1349</ele>
        <time>2025-11-21T12:31:46.000Z</time>
      </trkpt>
      <trkpt lat="44.4886" lon="6.20729">
        <ele>1349</ele>
        <time>2025-11-21T12:31:47.000Z</time>
      </trkpt>
      <trkpt lat="44.48859" lon="6.20729">
        <ele>1350</ele>
        <time>2025-11-21T12:31:48.000Z</time>
      </trkpt>
      <trkpt lat="44.48857" lon="6.20729">
        <ele>1350</ele>
        <time>2025-11-21T12:31:49.000Z</time>
      </trkpt>
      <trkpt lat="44.48857" lon="6.2073">
        <ele>1349</ele>
        <time>2025-11-21T12:31:50.000Z</time>
      </trkpt>
      <trkpt lat="44.48857" lon="6.20729">
        <ele>1350</ele>
        <time>2025-11-21T12:31:51.000Z</time>
      </trkpt>
      <trkpt lat="44.48857" lon="6.20729">
        <ele>1350</ele>
        <time>2025-11-21T12:31:52.000Z</time>
      </trkpt>
      <trkpt lat="44.48857" lon="6.20729">
        <ele>1351</ele>
        <time>2025-11-21T12:31:53.000Z</time>
      </trkpt>
      <trkpt lat="44.48857" lon="6.20729">
        <ele>1351</ele>
        <time>2025-11-21T12:31:54.000Z</time>
      </trkpt>
      <trkpt lat="44.48856" lon="6.20729">
        <ele>1351</ele>
        <time>2025-11-21T12:31:55.000Z</time>
      </trkpt>
      <trkpt lat="44.48855" lon="6.20729">
        <ele>1351</ele>
        <time>2025-11-21T12:31:56.000Z</time>
      </trkpt>
      <trkpt lat="44.48853" lon="6.20729">
        <ele>1352</ele>
        <time>2025-11-21T12:31:57.000Z</time>
      </trkpt>
      <trkpt lat="44.48852" lon="6.20729">
        <ele>1352</ele>
        <time>2025-11-21T12:31:58.000Z</time>
      </trkpt>
      <trkpt lat="44.48851" lon="6.20729">
        <ele>1351</ele>
        <time>2025-11-21T12:31:59.000Z</time>
      </trkpt>
      <trkpt lat="44.4885" lon="6.20729">
        <ele>1351</ele>
        <time>2025-11-21T12:32:00.000Z</time>
      </trkpt>
      <trkpt lat="44.48849" lon="6.2073">
        <ele>1351</ele>
        <time>2025-11-21T12:32:01.000Z</time>
      </trkpt>
      <trkpt lat="44.48849" lon="6.2073">
        <ele>1351</ele>
        <time>2025-11-21T12:32:02.000Z</time>
      </trkpt>
      <trkpt lat="44.48848" lon="6.20729">
        <ele>1351</ele>
        <time>2025-11-21T12:32:03.000Z</time>
      </trkpt>
      <trkpt lat="44.48847" lon="6.2073">
        <ele>1352</ele>
        <time>2025-11-21T12:32:04.000Z</time>
      </trkpt>
      <trkpt lat="44.48846" lon="6.20729">
        <ele>1352</ele>
        <time>2025-11-21T12:32:05.000Z</time>
      </trkpt>
      <trkpt lat="44.48845" lon="6.2073">
        <ele>1353</ele>
        <time>2025-11-21T12:32:06.000Z</time>
      </trkpt>
      <trkpt lat="44.48844" lon="6.2073">
        <ele>1352</ele>
        <time>2025-11-21T12:32:07.000Z</time>
      </trkpt>
      <trkpt lat="44.48843" lon="6.2073">
        <ele>1352</ele>
        <time>2025-11-21T12:32:08.000Z</time>
      </trkpt>
      <trkpt lat="44.48841" lon="6.20729">
        <ele>1352</ele>
        <time>2025-11-21T12:32:09.000Z</time>
      </trkpt>
      <trkpt lat="44.48841" lon="6.20728">
        <ele>1352</ele>
        <time>2025-11-21T12:32:10.000Z</time>
      </trkpt>
      <trkpt lat="44.4884" lon="6.20728">
        <ele>1352</ele>
        <time>2025-11-21T12:32:11.000Z</time>
      </trkpt>
      <trkpt lat="44.48839" lon="6.20728">
        <ele>1353</ele>
        <time>2025-11-21T12:32:12.000Z</time>
      </trkpt>
      <trkpt lat="44.48838" lon="6.20728">
        <ele>1352</ele>
        <time>2025-11-21T12:32:13.000Z</time>
      </trkpt>
      <trkpt lat="44.48837" lon="6.20728">
        <ele>1353</ele>
        <time>2025-11-21T12:32:14.000Z</time>
      </trkpt>
      <trkpt lat="44.48836" lon="6.20728">
        <ele>1353</ele>
        <time>2025-11-21T12:32:15.000Z</time>
      </trkpt>
      <trkpt lat="44.48835" lon="6.20727">
        <ele>1353</ele>
        <time>2025-11-21T12:32:16.000Z</time>
      </trkpt>
      <trkpt lat="44.48833" lon="6.20726">
        <ele>1354</ele>
        <time>2025-11-21T12:32:17.000Z</time>
      </trkpt>
      <trkpt lat="44.48833" lon="6.20727">
        <ele>1354</ele>
        <time>2025-11-21T12:32:18.000Z</time>
      </trkpt>
      <trkpt lat="44.48832" lon="6.20727">
        <ele>1354</ele>
        <time>2025-11-21T12:32:19.000Z</time>
      </trkpt>
      <trkpt lat="44.48831" lon="6.20727">
        <ele>1354</ele>
        <time>2025-11-21T12:32:20.000Z</time>
      </trkpt>
      <trkpt lat="44.4883" lon="6.20727">
        <ele>1354</ele>
        <time>2025-11-21T12:32:21.000Z</time>
      </trkpt>
      <trkpt lat="44.48829" lon="6.20727">
        <ele>1354</ele>
        <time>2025-11-21T12:32:22.000Z</time>
      </trkpt>
      <trkpt lat="44.48828" lon="6.20726">
        <ele>1354</ele>
        <time>2025-11-21T12:32:23.000Z</time>
      </trkpt>
      <trkpt lat="44.48826" lon="6.20726">
        <ele>1355</ele>
        <time>2025-11-21T12:32:24.000Z</time>
      </trkpt>
      <trkpt lat="44.48825" lon="6.20725">
        <ele>1354</ele>
        <time>2025-11-21T12:32:25.000Z</time>
      </trkpt>
      <trkpt lat="44.48823" lon="6.20724">
        <ele>1354</ele>
        <time>2025-11-21T12:32:26.000Z</time>
      </trkpt>
      <trkpt lat="44.48822" lon="6.20723">
        <ele>1354</ele>
        <time>2025-11-21T12:32:27.000Z</time>
      </trkpt>
      <trkpt lat="44.48821" lon="6.20723">
        <ele>1354</ele>
        <time>2025-11-21T12:32:28.000Z</time>
      </trkpt>
      <trkpt lat="44.4882" lon="6.20722">
        <ele>1354</ele>
        <time>2025-11-21T12:32:29.000Z</time>
      </trkpt>
      <trkpt lat="44.48818" lon="6.20722">
        <ele>1354</ele>
        <time>2025-11-21T12:32:30.000Z</time>
      </trkpt>
      <trkpt lat="44.48817" lon="6.20722">
        <ele>1354</ele>
        <time>2025-11-21T12:32:31.000Z</time>
      </trkpt>
      <trkpt lat="44.48816" lon="6.20722">
        <ele>1354</ele>
        <time>2025-11-21T12:32:32.000Z</time>
      </trkpt>
      <trkpt lat="44.48814" lon="6.20722">
        <ele>1354</ele>
        <time>2025-11-21T12:32:33.000Z</time>
      </trkpt>
      <trkpt lat="44.48813" lon="6.20721">
        <ele>1354</ele>
        <time>2025-11-21T12:32:34.000Z</time>
      </trkpt>
      <trkpt lat="44.48812" lon="6.20721">
        <ele>1354</ele>
        <time>2025-11-21T12:32:35.000Z</time>
      </trkpt>
      <trkpt lat="44.48812" lon="6.20722">
        <ele>1355</ele>
        <time>2025-11-21T12:32:36.000Z</time>
      </trkpt>
      <trkpt lat="44.48811" lon="6.20721">
        <ele>1355</ele>
        <time>2025-11-21T12:32:37.000Z</time>
      </trkpt>
      <trkpt lat="44.4881" lon="6.20721">
        <ele>1356</ele>
        <time>2025-11-21T12:32:38.000Z</time>
      </trkpt>
      <trkpt lat="44.48809" lon="6.20721">
        <ele>1356</ele>
        <time>2025-11-21T12:32:39.000Z</time>
      </trkpt>
      <trkpt lat="44.48808" lon="6.20721">
        <ele>1357</ele>
        <time>2025-11-21T12:32:40.000Z</time>
      </trkpt>
      <trkpt lat="44.48807" lon="6.20721">
        <ele>1357</ele>
        <time>2025-11-21T12:32:41.000Z</time>
      </trkpt>
      <trkpt lat="44.48806" lon="6.2072">
        <ele>1357</ele>
        <time>2025-11-21T12:32:42.000Z</time>
      </trkpt>
      <trkpt lat="44.48804" lon="6.20719">
        <ele>1356</ele>
        <time>2025-11-21T12:32:43.000Z</time>
      </trkpt>
      <trkpt lat="44.48803" lon="6.20719">
        <ele>1356</ele>
        <time>2025-11-21T12:32:44.000Z</time>
      </trkpt>
      <trkpt lat="44.48803" lon="6.20719">
        <ele>1356</ele>
        <time>2025-11-21T12:32:45.000Z</time>
      </trkpt>
      <trkpt lat="44.48803" lon="6.2072">
        <ele>1356</ele>
        <time>2025-11-21T12:32:46.000Z</time>
      </trkpt>
      <trkpt lat="44.48803" lon="6.20719">
        <ele>1356</ele>
        <time>2025-11-21T12:32:47.000Z</time>
      </trkpt>
      <trkpt lat="44.48802" lon="6.20719">
        <ele>1355</ele>
        <time>2025-11-21T12:32:48.000Z</time>
      </trkpt>
      <trkpt lat="44.48802" lon="6.20719">
        <ele>1355</ele>
        <time>2025-11-21T12:32:49.000Z</time>
      </trkpt>
      <trkpt lat="44.48802" lon="6.20719">
        <ele>1355</ele>
        <time>2025-11-21T12:32:50.000Z</time>
      </trkpt>
      <trkpt lat="44.488" lon="6.20717">
        <ele>1354</ele>
        <time>2025-11-21T12:32:51.000Z</time>
      </trkpt>
      <trkpt lat="44.48799" lon="6.20716">
        <ele>1354</ele>
        <time>2025-11-21T12:32:52.000Z</time>
      </trkpt>
      <trkpt lat="44.48797" lon="6.20716">
        <ele>1353</ele>
        <time>2025-11-21T12:32:53.000Z</time>
      </trkpt>
      <trkpt lat="44.48796" lon="6.20715">
        <ele>1353</ele>
        <time>2025-11-21T12:32:54.000Z</time>
      </trkpt>
      <trkpt lat="44.48795" lon="6.20714">
        <ele>1352</ele>
        <time>2025-11-21T12:32:55.000Z</time>
      </trkpt>
      <trkpt lat="44.48793" lon="6.20713">
        <ele>1352</ele>
        <time>2025-11-21T12:32:56.000Z</time>
      </trkpt>
      <trkpt lat="44.48792" lon="6.20712">
        <ele>1352</ele>
        <time>2025-11-21T12:32:57.000Z</time>
      </trkpt>
      <trkpt lat="44.48791" lon="6.20711">
        <ele>1352</ele>
        <time>2025-11-21T12:32:58.000Z</time>
      </trkpt>
      <trkpt lat="44.4879" lon="6.20711">
        <ele>1352</ele>
        <time>2025-11-21T12:32:59.000Z</time>
      </trkpt>
      <trkpt lat="44.48789" lon="6.2071">
        <ele>1352</ele>
        <time>2025-11-21T12:33:00.000Z</time>
      </trkpt>
      <trkpt lat="44.48788" lon="6.20709">
        <ele>1352</ele>
        <time>2025-11-21T12:33:01.000Z</time>
      </trkpt>
      <trkpt lat="44.48787" lon="6.20708">
        <ele>1352</ele>
        <time>2025-11-21T12:33:02.000Z</time>
      </trkpt>
      <trkpt lat="44.48786" lon="6.20707">
        <ele>1351</ele>
        <time>2025-11-21T12:33:03.000Z</time>
      </trkpt>
      <trkpt lat="44.48786" lon="6.20706">
        <ele>1352</ele>
        <time>2025-11-21T12:33:04.000Z</time>
      </trkpt>
      <trkpt lat="44.48785" lon="6.20705">
        <ele>1352</ele>
        <time>2025-11-21T12:33:05.000Z</time>
      </trkpt>
      <trkpt lat="44.48783" lon="6.20704">
        <ele>1352</ele>
        <time>2025-11-21T12:33:06.000Z</time>
      </trkpt>
      <trkpt lat="44.48782" lon="6.20703">
        <ele>1351</ele>
        <time>2025-11-21T12:33:07.000Z</time>
      </trkpt>
      <trkpt lat="44.48782" lon="6.20703">
        <ele>1351</ele>
        <time>2025-11-21T12:33:08.000Z</time>
      </trkpt>
      <trkpt lat="44.4878" lon="6.20701">
        <ele>1351</ele>
        <time>2025-11-21T12:33:09.000Z</time>
      </trkpt>
      <trkpt lat="44.48779" lon="6.20701">
        <ele>1351</ele>
        <time>2025-11-21T12:33:10.000Z</time>
      </trkpt>
      <trkpt lat="44.48778" lon="6.20701">
        <ele>1350</ele>
        <time>2025-11-21T12:33:11.000Z</time>
      </trkpt>
      <trkpt lat="44.48776" lon="6.20701">
        <ele>1350</ele>
        <time>2025-11-21T12:33:12.000Z</time>
      </trkpt>
      <trkpt lat="44.48775" lon="6.207">
        <ele>1349</ele>
        <time>2025-11-21T12:33:13.000Z</time>
      </trkpt>
      <trkpt lat="44.48773" lon="6.207">
        <ele>1350</ele>
        <time>2025-11-21T12:33:14.000Z</time>
      </trkpt>
      <trkpt lat="44.48772" lon="6.20699">
        <ele>1350</ele>
        <time>2025-11-21T12:33:15.000Z</time>
      </trkpt>
      <trkpt lat="44.48771" lon="6.20698">
        <ele>1351</ele>
        <time>2025-11-21T12:33:16.000Z</time>
      </trkpt>
      <trkpt lat="44.4877" lon="6.20697">
        <ele>1351</ele>
        <time>2025-11-21T12:33:17.000Z</time>
      </trkpt>
      <trkpt lat="44.4877" lon="6.20697">
        <ele>1351</ele>
        <time>2025-11-21T12:33:18.000Z</time>
      </trkpt>
      <trkpt lat="44.48769" lon="6.20696">
        <ele>1351</ele>
        <time>2025-11-21T12:33:19.000Z</time>
      </trkpt>
      <trkpt lat="44.48768" lon="6.20696">
        <ele>1351</ele>
        <time>2025-11-21T12:33:20.000Z</time>
      </trkpt>
      <trkpt lat="44.48766" lon="6.20695">
        <ele>1351</ele>
        <time>2025-11-21T12:33:21.000Z</time>
      </trkpt>
      <trkpt lat="44.48766" lon="6.20696">
        <ele>1350</ele>
        <time>2025-11-21T12:33:22.000Z</time>
      </trkpt>
      <trkpt lat="44.48765" lon="6.20696">
        <ele>1349</ele>
        <time>2025-11-21T12:33:23.000Z</time>
      </trkpt>
      <trkpt lat="44.48763" lon="6.20696">
        <ele>1349</ele>
        <time>2025-11-21T12:33:24.000Z</time>
      </trkpt>
      <trkpt lat="44.48762" lon="6.20696">
        <ele>1349</ele>
        <time>2025-11-21T12:33:25.000Z</time>
      </trkpt>
      <trkpt lat="44.48761" lon="6.20695">
        <ele>1349</ele>
        <time>2025-11-21T12:33:26.000Z</time>
      </trkpt>
      <trkpt lat="44.4876" lon="6.20694">
        <ele>1349</ele>
        <time>2025-11-21T12:33:27.000Z</time>
      </trkpt>
      <trkpt lat="44.48758" lon="6.20693">
        <ele>1348</ele>
        <time>2025-11-21T12:33:28.000Z</time>
      </trkpt>
      <trkpt lat="44.48757" lon="6.20693">
        <ele>1348</ele>
        <time>2025-11-21T12:33:29.000Z</time>
      </trkpt>
      <trkpt lat="44.48756" lon="6.20692">
        <ele>1348</ele>
        <time>2025-11-21T12:33:30.000Z</time>
      </trkpt>
      <trkpt lat="44.48754" lon="6.20692">
        <ele>1347</ele>
        <time>2025-11-21T12:33:31.000Z</time>
      </trkpt>
      <trkpt lat="44.48753" lon="6.20691">
        <ele>1347</ele>
        <time>2025-11-21T12:33:32.000Z</time>
      </trkpt>
      <trkpt lat="44.48752" lon="6.20691">
        <ele>1347</ele>
        <time>2025-11-21T12:33:33.000Z</time>
      </trkpt>
      <trkpt lat="44.48751" lon="6.2069">
        <ele>1347</ele>
        <time>2025-11-21T12:33:34.000Z</time>
      </trkpt>
      <trkpt lat="44.48749" lon="6.2069">
        <ele>1347</ele>
        <time>2025-11-21T12:33:35.000Z</time>
      </trkpt>
      <trkpt lat="44.48748" lon="6.2069">
        <ele>1347</ele>
        <time>2025-11-21T12:33:36.000Z</time>
      </trkpt>
      <trkpt lat="44.48747" lon="6.20689">
        <ele>1347</ele>
        <time>2025-11-21T12:33:37.000Z</time>
      </trkpt>
      <trkpt lat="44.48745" lon="6.20689">
        <ele>1347</ele>
        <time>2025-11-21T12:33:38.000Z</time>
      </trkpt>
      <trkpt lat="44.48744" lon="6.20689">
        <ele>1347</ele>
        <time>2025-11-21T12:33:39.000Z</time>
      </trkpt>
      <trkpt lat="44.48743" lon="6.20688">
        <ele>1347</ele>
        <time>2025-11-21T12:33:40.000Z</time>
      </trkpt>
      <trkpt lat="44.48742" lon="6.20689">
        <ele>1347</ele>
        <time>2025-11-21T12:33:41.000Z</time>
      </trkpt>
      <trkpt lat="44.48742" lon="6.20689">
        <ele>1346</ele>
        <time>2025-11-21T12:33:42.000Z</time>
      </trkpt>
      <trkpt lat="44.4874" lon="6.20688">
        <ele>1347</ele>
        <time>2025-11-21T12:33:43.000Z</time>
      </trkpt>
      <trkpt lat="44.48739" lon="6.20688">
        <ele>1347</ele>
        <time>2025-11-21T12:33:44.000Z</time>
      </trkpt>
      <trkpt lat="44.48739" lon="6.20688">
        <ele>1347</ele>
        <time>2025-11-21T12:33:45.000Z</time>
      </trkpt>
      <trkpt lat="44.48738" lon="6.20688">
        <ele>1348</ele>
        <time>2025-11-21T12:33:46.000Z</time>
      </trkpt>
      <trkpt lat="44.48737" lon="6.20689">
        <ele>1347</ele>
        <time>2025-11-21T12:33:47.000Z</time>
      </trkpt>
      <trkpt lat="44.48736" lon="6.20688">
        <ele>1347</ele>
        <time>2025-11-21T12:33:48.000Z</time>
      </trkpt>
      <trkpt lat="44.48734" lon="6.20688">
        <ele>1347</ele>
        <time>2025-11-21T12:33:49.000Z</time>
      </trkpt>
      <trkpt lat="44.48733" lon="6.20688">
        <ele>1347</ele>
        <time>2025-11-21T12:33:50.000Z</time>
      </trkpt>
      <trkpt lat="44.48731" lon="6.20688">
        <ele>1347</ele>
        <time>2025-11-21T12:33:51.000Z</time>
      </trkpt>
      <trkpt lat="44.4873" lon="6.20688">
        <ele>1347</ele>
        <time>2025-11-21T12:33:52.000Z</time>
      </trkpt>
      <trkpt lat="44.48729" lon="6.20688">
        <ele>1348</ele>
        <time>2025-11-21T12:33:53.000Z</time>
      </trkpt>
      <trkpt lat="44.48729" lon="6.20688">
        <ele>1348</ele>
        <time>2025-11-21T12:33:54.000Z</time>
      </trkpt>
      <trkpt lat="44.48728" lon="6.20688">
        <ele>1348</ele>
        <time>2025-11-21T12:33:55.000Z</time>
      </trkpt>
      <trkpt lat="44.48727" lon="6.20688">
        <ele>1348</ele>
        <time>2025-11-21T12:33:56.000Z</time>
      </trkpt>
      <trkpt lat="44.48726" lon="6.20688">
        <ele>1348</ele>
        <time>2025-11-21T12:33:57.000Z</time>
      </trkpt>
      <trkpt lat="44.48725" lon="6.20687">
        <ele>1348</ele>
        <time>2025-11-21T12:33:58.000Z</time>
      </trkpt>
      <trkpt lat="44.48724" lon="6.20686">
        <ele>1349</ele>
        <time>2025-11-21T12:33:59.000Z</time>
      </trkpt>
      <trkpt lat="44.48723" lon="6.20685">
        <ele>1349</ele>
        <time>2025-11-21T12:34:00.000Z</time>
      </trkpt>
      <trkpt lat="44.48721" lon="6.20684">
        <ele>1349</ele>
        <time>2025-11-21T12:34:01.000Z</time>
      </trkpt>
      <trkpt lat="44.4872" lon="6.20683">
        <ele>1348</ele>
        <time>2025-11-21T12:34:02.000Z</time>
      </trkpt>
      <trkpt lat="44.48718" lon="6.20682">
        <ele>1348</ele>
        <time>2025-11-21T12:34:03.000Z</time>
      </trkpt>
      <trkpt lat="44.48717" lon="6.20682">
        <ele>1348</ele>
        <time>2025-11-21T12:34:04.000Z</time>
      </trkpt>
      <trkpt lat="44.48716" lon="6.20682">
        <ele>1348</ele>
        <time>2025-11-21T12:34:05.000Z</time>
      </trkpt>
      <trkpt lat="44.48715" lon="6.20681">
        <ele>1349</ele>
        <time>2025-11-21T12:34:06.000Z</time>
      </trkpt>
      <trkpt lat="44.48714" lon="6.20681">
        <ele>1349</ele>
        <time>2025-11-21T12:34:07.000Z</time>
      </trkpt>
      <trkpt lat="44.48713" lon="6.20681">
        <ele>1349</ele>
        <time>2025-11-21T12:34:08.000Z</time>
      </trkpt>
      <trkpt lat="44.48712" lon="6.20682">
        <ele>1350</ele>
        <time>2025-11-21T12:34:09.000Z</time>
      </trkpt>
      <trkpt lat="44.4871" lon="6.20681">
        <ele>1350</ele>
        <time>2025-11-21T12:34:10.000Z</time>
      </trkpt>
      <trkpt lat="44.48709" lon="6.2068">
        <ele>1350</ele>
        <time>2025-11-21T12:34:11.000Z</time>
      </trkpt>
      <trkpt lat="44.48707" lon="6.2068">
        <ele>1350</ele>
        <time>2025-11-21T12:34:12.000Z</time>
      </trkpt>
      <trkpt lat="44.48705" lon="6.2068">
        <ele>1350</ele>
        <time>2025-11-21T12:34:13.000Z</time>
      </trkpt>
      <trkpt lat="44.48703" lon="6.2068">
        <ele>1349</ele>
        <time>2025-11-21T12:34:14.000Z</time>
      </trkpt>
      <trkpt lat="44.48702" lon="6.20679">
        <ele>1348</ele>
        <time>2025-11-21T12:34:15.000Z</time>
      </trkpt>
      <trkpt lat="44.48701" lon="6.20679">
        <ele>1349</ele>
        <time>2025-11-21T12:34:16.000Z</time>
      </trkpt>
      <trkpt lat="44.487" lon="6.20679">
        <ele>1349</ele>
        <time>2025-11-21T12:34:17.000Z</time>
      </trkpt>
      <trkpt lat="44.48698" lon="6.20679">
        <ele>1348</ele>
        <time>2025-11-21T12:34:18.000Z</time>
      </trkpt>
      <trkpt lat="44.48697" lon="6.20678">
        <ele>1348</ele>
        <time>2025-11-21T12:34:19.000Z</time>
      </trkpt>
      <trkpt lat="44.48695" lon="6.20677">
        <ele>1348</ele>
        <time>2025-11-21T12:34:20.000Z</time>
      </trkpt>
      <trkpt lat="44.48694" lon="6.20678">
        <ele>1349</ele>
        <time>2025-11-21T12:34:21.000Z</time>
      </trkpt>
      <trkpt lat="44.48692" lon="6.20677">
        <ele>1348</ele>
        <time>2025-11-21T12:34:22.000Z</time>
      </trkpt>
      <trkpt lat="44.4869" lon="6.20677">
        <ele>1348</ele>
        <time>2025-11-21T12:34:23.000Z</time>
      </trkpt>
      <trkpt lat="44.4869" lon="6.20678">
        <ele>1348</ele>
        <time>2025-11-21T12:34:24.000Z</time>
      </trkpt>
      <trkpt lat="44.48689" lon="6.20678">
        <ele>1348</ele>
        <time>2025-11-21T12:34:25.000Z</time>
      </trkpt>
      <trkpt lat="44.48688" lon="6.20677">
        <ele>1349</ele>
        <time>2025-11-21T12:34:26.000Z</time>
      </trkpt>
      <trkpt lat="44.48686" lon="6.20676">
        <ele>1349</ele>
        <time>2025-11-21T12:34:27.000Z</time>
      </trkpt>
      <trkpt lat="44.48685" lon="6.20675">
        <ele>1349</ele>
        <time>2025-11-21T12:34:28.000Z</time>
      </trkpt>
      <trkpt lat="44.48684" lon="6.20674">
        <ele>1349</ele>
        <time>2025-11-21T12:34:29.000Z</time>
      </trkpt>
      <trkpt lat="44.48683" lon="6.20673">
        <ele>1350</ele>
        <time>2025-11-21T12:34:30.000Z</time>
      </trkpt>
      <trkpt lat="44.48683" lon="6.20673">
        <ele>1349</ele>
        <time>2025-11-21T12:34:31.000Z</time>
      </trkpt>
      <trkpt lat="44.48682" lon="6.20672">
        <ele>1349</ele>
        <time>2025-11-21T12:34:32.000Z</time>
      </trkpt>
      <trkpt lat="44.48681" lon="6.20672">
        <ele>1349</ele>
        <time>2025-11-21T12:34:33.000Z</time>
      </trkpt>
      <trkpt lat="44.48681" lon="6.20671">
        <ele>1348</ele>
        <time>2025-11-21T12:34:34.000Z</time>
      </trkpt>
      <trkpt lat="44.4868" lon="6.2067">
        <ele>1348</ele>
        <time>2025-11-21T12:34:35.000Z</time>
      </trkpt>
      <trkpt lat="44.4868" lon="6.2067">
        <ele>1347</ele>
        <time>2025-11-21T12:34:36.000Z</time>
      </trkpt>
      <trkpt lat="44.4868" lon="6.2067">
        <ele>1347</ele>
        <time>2025-11-21T12:34:37.000Z</time>
      </trkpt>
      <trkpt lat="44.4868" lon="6.2067">
        <ele>1347</ele>
        <time>2025-11-21T12:34:38.000Z</time>
      </trkpt>
      <trkpt lat="44.48678" lon="6.20669">
        <ele>1346</ele>
        <time>2025-11-21T12:34:39.000Z</time>
      </trkpt>
      <trkpt lat="44.48676" lon="6.20668">
        <ele>1346</ele>
        <time>2025-11-21T12:34:40.000Z</time>
      </trkpt>
      <trkpt lat="44.48675" lon="6.20667">
        <ele>1345</ele>
        <time>2025-11-21T12:34:41.000Z</time>
      </trkpt>
      <trkpt lat="44.48673" lon="6.20666">
        <ele>1345</ele>
        <time>2025-11-21T12:34:42.000Z</time>
      </trkpt>
      <trkpt lat="44.48673" lon="6.20667">
        <ele>1345</ele>
        <time>2025-11-21T12:34:43.000Z</time>
      </trkpt>
      <trkpt lat="44.48671" lon="6.20666">
        <ele>1345</ele>
        <time>2025-11-21T12:34:44.000Z</time>
      </trkpt>
      <trkpt lat="44.48671" lon="6.20665">
        <ele>1345</ele>
        <time>2025-11-21T12:34:45.000Z</time>
      </trkpt>
      <trkpt lat="44.4867" lon="6.20665">
        <ele>1345</ele>
        <time>2025-11-21T12:34:46.000Z</time>
      </trkpt>
      <trkpt lat="44.48669" lon="6.20665">
        <ele>1345</ele>
        <time>2025-11-21T12:34:47.000Z</time>
      </trkpt>
      <trkpt lat="44.48668" lon="6.20664">
        <ele>1345</ele>
        <time>2025-11-21T12:34:48.000Z</time>
      </trkpt>
      <trkpt lat="44.48668" lon="6.20664">
        <ele>1344</ele>
        <time>2025-11-21T12:34:49.000Z</time>
      </trkpt>
      <trkpt lat="44.48666" lon="6.20665">
        <ele>1343</ele>
        <time>2025-11-21T12:34:50.000Z</time>
      </trkpt>
      <trkpt lat="44.48665" lon="6.20665">
        <ele>1343</ele>
        <time>2025-11-21T12:34:51.000Z</time>
      </trkpt>
      <trkpt lat="44.48665" lon="6.20665">
        <ele>1342</ele>
        <time>2025-11-21T12:34:52.000Z</time>
      </trkpt>
      <trkpt lat="44.48665" lon="6.20665">
        <ele>1342</ele>
        <time>2025-11-21T12:34:53.000Z</time>
      </trkpt>
      <trkpt lat="44.48665" lon="6.20665">
        <ele>1342</ele>
        <time>2025-11-21T12:34:54.000Z</time>
      </trkpt>
      <trkpt lat="44.48662" lon="6.20663">
        <ele>1342</ele>
        <time>2025-11-21T12:34:55.000Z</time>
      </trkpt>
      <trkpt lat="44.48661" lon="6.20663">
        <ele>1341</ele>
        <time>2025-11-21T12:34:56.000Z</time>
      </trkpt>
      <trkpt lat="44.4866" lon="6.20662">
        <ele>1341</ele>
        <time>2025-11-21T12:34:57.000Z</time>
      </trkpt>
      <trkpt lat="44.48659" lon="6.20662">
        <ele>1340</ele>
        <time>2025-11-21T12:34:58.000Z</time>
      </trkpt>
      <trkpt lat="44.48658" lon="6.20661">
        <ele>1340</ele>
        <time>2025-11-21T12:34:59.000Z</time>
      </trkpt>
      <trkpt lat="44.48658" lon="6.20661">
        <ele>1339</ele>
        <time>2025-11-21T12:35:00.000Z</time>
      </trkpt>
      <trkpt lat="44.48656" lon="6.2066">
        <ele>1339</ele>
        <time>2025-11-21T12:35:01.000Z</time>
      </trkpt>
      <trkpt lat="44.48655" lon="6.2066">
        <ele>1339</ele>
        <time>2025-11-21T12:35:02.000Z</time>
      </trkpt>
      <trkpt lat="44.48654" lon="6.20659">
        <ele>1339</ele>
        <time>2025-11-21T12:35:03.000Z</time>
      </trkpt>
      <trkpt lat="44.48653" lon="6.20659">
        <ele>1339</ele>
        <time>2025-11-21T12:35:04.000Z</time>
      </trkpt>
      <trkpt lat="44.48652" lon="6.20658">
        <ele>1339</ele>
        <time>2025-11-21T12:35:05.000Z</time>
      </trkpt>
      <trkpt lat="44.48651" lon="6.20657">
        <ele>1338</ele>
        <time>2025-11-21T12:35:06.000Z</time>
      </trkpt>
      <trkpt lat="44.4865" lon="6.20656">
        <ele>1338</ele>
        <time>2025-11-21T12:35:07.000Z</time>
      </trkpt>
      <trkpt lat="44.48649" lon="6.20655">
        <ele>1339</ele>
        <time>2025-11-21T12:35:08.000Z</time>
      </trkpt>
      <trkpt lat="44.48648" lon="6.20655">
        <ele>1338</ele>
        <time>2025-11-21T12:35:09.000Z</time>
      </trkpt>
      <trkpt lat="44.48647" lon="6.20654">
        <ele>1339</ele>
        <time>2025-11-21T12:35:10.000Z</time>
      </trkpt>
      <trkpt lat="44.48646" lon="6.20653">
        <ele>1339</ele>
        <time>2025-11-21T12:35:11.000Z</time>
      </trkpt>
      <trkpt lat="44.48645" lon="6.20653">
        <ele>1338</ele>
        <time>2025-11-21T12:35:12.000Z</time>
      </trkpt>
      <trkpt lat="44.48644" lon="6.20652">
        <ele>1338</ele>
        <time>2025-11-21T12:35:13.000Z</time>
      </trkpt>
      <trkpt lat="44.48643" lon="6.20651">
        <ele>1338</ele>
        <time>2025-11-21T12:35:14.000Z</time>
      </trkpt>
      <trkpt lat="44.48642" lon="6.2065">
        <ele>1338</ele>
        <time>2025-11-21T12:35:15.000Z</time>
      </trkpt>
      <trkpt lat="44.48641" lon="6.2065">
        <ele>1337</ele>
        <time>2025-11-21T12:35:16.000Z</time>
      </trkpt>
      <trkpt lat="44.4864" lon="6.2065">
        <ele>1338</ele>
        <time>2025-11-21T12:35:17.000Z</time>
      </trkpt>
      <trkpt lat="44.48639" lon="6.2065">
        <ele>1337</ele>
        <time>2025-11-21T12:35:18.000Z</time>
      </trkpt>
      <trkpt lat="44.48638" lon="6.20649">
        <ele>1337</ele>
        <time>2025-11-21T12:35:19.000Z</time>
      </trkpt>
      <trkpt lat="44.48637" lon="6.20648">
        <ele>1336</ele>
        <time>2025-11-21T12:35:20.000Z</time>
      </trkpt>
      <trkpt lat="44.48636" lon="6.20647">
        <ele>1337</ele>
        <time>2025-11-21T12:35:21.000Z</time>
      </trkpt>
      <trkpt lat="44.48636" lon="6.20647">
        <ele>1337</ele>
        <time>2025-11-21T12:35:22.000Z</time>
      </trkpt>
      <trkpt lat="44.48636" lon="6.20647">
        <ele>1337</ele>
        <time>2025-11-21T12:35:23.000Z</time>
      </trkpt>
      <trkpt lat="44.48636" lon="6.20647">
        <ele>1337</ele>
        <time>2025-11-21T12:35:24.000Z</time>
      </trkpt>
      <trkpt lat="44.48632" lon="6.20645">
        <ele>1336</ele>
        <time>2025-11-21T12:35:25.000Z</time>
      </trkpt>
      <trkpt lat="44.48631" lon="6.20644">
        <ele>1335</ele>
        <time>2025-11-21T12:35:26.000Z</time>
      </trkpt>
      <trkpt lat="44.48631" lon="6.20643">
        <ele>1335</ele>
        <time>2025-11-21T12:35:27.000Z</time>
      </trkpt>
      <trkpt lat="44.48629" lon="6.20642">
        <ele>1335</ele>
        <time>2025-11-21T12:35:28.000Z</time>
      </trkpt>
      <trkpt lat="44.48629" lon="6.20642">
        <ele>1335</ele>
        <time>2025-11-21T12:35:29.000Z</time>
      </trkpt>
      <trkpt lat="44.48628" lon="6.20642">
        <ele>1334</ele>
        <time>2025-11-21T12:35:30.000Z</time>
      </trkpt>
      <trkpt lat="44.48627" lon="6.20642">
        <ele>1334</ele>
        <time>2025-11-21T12:35:31.000Z</time>
      </trkpt>
      <trkpt lat="44.48626" lon="6.20641">
        <ele>1334</ele>
        <time>2025-11-21T12:35:32.000Z</time>
      </trkpt>
      <trkpt lat="44.48625" lon="6.20641">
        <ele>1334</ele>
        <time>2025-11-21T12:35:33.000Z</time>
      </trkpt>
      <trkpt lat="44.48624" lon="6.2064">
        <ele>1334</ele>
        <time>2025-11-21T12:35:34.000Z</time>
      </trkpt>
      <trkpt lat="44.48623" lon="6.20639">
        <ele>1334</ele>
        <time>2025-11-21T12:35:35.000Z</time>
      </trkpt>
      <trkpt lat="44.48621" lon="6.20639">
        <ele>1333</ele>
        <time>2025-11-21T12:35:36.000Z</time>
      </trkpt>
      <trkpt lat="44.4862" lon="6.20639">
        <ele>1333</ele>
        <time>2025-11-21T12:35:37.000Z</time>
      </trkpt>
      <trkpt lat="44.48619" lon="6.2064">
        <ele>1332</ele>
        <time>2025-11-21T12:35:38.000Z</time>
      </trkpt>
      <trkpt lat="44.48618" lon="6.2064">
        <ele>1332</ele>
        <time>2025-11-21T12:35:39.000Z</time>
      </trkpt>
      <trkpt lat="44.48617" lon="6.2064">
        <ele>1332</ele>
        <time>2025-11-21T12:35:40.000Z</time>
      </trkpt>
      <trkpt lat="44.48616" lon="6.2064">
        <ele>1332</ele>
        <time>2025-11-21T12:35:41.000Z</time>
      </trkpt>
      <trkpt lat="44.48616" lon="6.2064">
        <ele>1332</ele>
        <time>2025-11-21T12:35:42.000Z</time>
      </trkpt>
      <trkpt lat="44.48615" lon="6.2064">
        <ele>1332</ele>
        <time>2025-11-21T12:35:43.000Z</time>
      </trkpt>
      <trkpt lat="44.48613" lon="6.2064">
        <ele>1331</ele>
        <time>2025-11-21T12:35:44.000Z</time>
      </trkpt>
      <trkpt lat="44.48611" lon="6.20639">
        <ele>1331</ele>
        <time>2025-11-21T12:35:45.000Z</time>
      </trkpt>
      <trkpt lat="44.4861" lon="6.20638">
        <ele>1331</ele>
        <time>2025-11-21T12:35:46.000Z</time>
      </trkpt>
      <trkpt lat="44.48609" lon="6.20637">
        <ele>1331</ele>
        <time>2025-11-21T12:35:47.000Z</time>
      </trkpt>
      <trkpt lat="44.48608" lon="6.20636">
        <ele>1330</ele>
        <time>2025-11-21T12:35:48.000Z</time>
      </trkpt>
      <trkpt lat="44.48607" lon="6.20635">
        <ele>1330</ele>
        <time>2025-11-21T12:35:49.000Z</time>
      </trkpt>
      <trkpt lat="44.48606" lon="6.20635">
        <ele>1330</ele>
        <time>2025-11-21T12:35:50.000Z</time>
      </trkpt>
      <trkpt lat="44.48605" lon="6.20635">
        <ele>1331</ele>
        <time>2025-11-21T12:35:51.000Z</time>
      </trkpt>
      <trkpt lat="44.48604" lon="6.20635">
        <ele>1330</ele>
        <time>2025-11-21T12:35:52.000Z</time>
      </trkpt>
      <trkpt lat="44.48603" lon="6.20634">
        <ele>1331</ele>
        <time>2025-11-21T12:35:53.000Z</time>
      </trkpt>
      <trkpt lat="44.48601" lon="6.20633">
        <ele>1331</ele>
        <time>2025-11-21T12:35:54.000Z</time>
      </trkpt>
      <trkpt lat="44.486" lon="6.20633">
        <ele>1330</ele>
        <time>2025-11-21T12:35:55.000Z</time>
      </trkpt>
      <trkpt lat="44.48599" lon="6.20633">
        <ele>1330</ele>
        <time>2025-11-21T12:35:56.000Z</time>
      </trkpt>
      <trkpt lat="44.48599" lon="6.20633">
        <ele>1330</ele>
        <time>2025-11-21T12:35:57.000Z</time>
      </trkpt>
      <trkpt lat="44.48598" lon="6.20633">
        <ele>1330</ele>
        <time>2025-11-21T12:35:58.000Z</time>
      </trkpt>
      <trkpt lat="44.48597" lon="6.20634">
        <ele>1330</ele>
        <time>2025-11-21T12:35:59.000Z</time>
      </trkpt>
      <trkpt lat="44.48596" lon="6.20634">
        <ele>1329</ele>
        <time>2025-11-21T12:36:00.000Z</time>
      </trkpt>
      <trkpt lat="44.48595" lon="6.20634">
        <ele>1330</ele>
        <time>2025-11-21T12:36:01.000Z</time>
      </trkpt>
      <trkpt lat="44.48594" lon="6.20634">
        <ele>1330</ele>
        <time>2025-11-21T12:36:02.000Z</time>
      </trkpt>
      <trkpt lat="44.48593" lon="6.20634">
        <ele>1329</ele>
        <time>2025-11-21T12:36:03.000Z</time>
      </trkpt>
      <trkpt lat="44.48592" lon="6.20633">
        <ele>1330</ele>
        <time>2025-11-21T12:36:04.000Z</time>
      </trkpt>
      <trkpt lat="44.48591" lon="6.20634">
        <ele>1329</ele>
        <time>2025-11-21T12:36:05.000Z</time>
      </trkpt>
      <trkpt lat="44.48591" lon="6.20633">
        <ele>1329</ele>
        <time>2025-11-21T12:36:06.000Z</time>
      </trkpt>
      <trkpt lat="44.4859" lon="6.20633">
        <ele>1329</ele>
        <time>2025-11-21T12:36:07.000Z</time>
      </trkpt>
      <trkpt lat="44.4859" lon="6.20633">
        <ele>1329</ele>
        <time>2025-11-21T12:36:08.000Z</time>
      </trkpt>
      <trkpt lat="44.48589" lon="6.20633">
        <ele>1328</ele>
        <time>2025-11-21T12:36:09.000Z</time>
      </trkpt>
      <trkpt lat="44.48588" lon="6.20633">
        <ele>1328</ele>
        <time>2025-11-21T12:36:10.000Z</time>
      </trkpt>
      <trkpt lat="44.48587" lon="6.20633">
        <ele>1328</ele>
        <time>2025-11-21T12:36:11.000Z</time>
      </trkpt>
      <trkpt lat="44.48586" lon="6.20633">
        <ele>1328</ele>
        <time>2025-11-21T12:36:12.000Z</time>
      </trkpt>
      <trkpt lat="44.48585" lon="6.20633">
        <ele>1327</ele>
        <time>2025-11-21T12:36:13.000Z</time>
      </trkpt>
      <trkpt lat="44.48584" lon="6.20633">
        <ele>1327</ele>
        <time>2025-11-21T12:36:14.000Z</time>
      </trkpt>
      <trkpt lat="44.48582" lon="6.20633">
        <ele>1327</ele>
        <time>2025-11-21T12:36:15.000Z</time>
      </trkpt>
      <trkpt lat="44.4858" lon="6.20633">
        <ele>1326</ele>
        <time>2025-11-21T12:36:16.000Z</time>
      </trkpt>
      <trkpt lat="44.48579" lon="6.20632">
        <ele>1325</ele>
        <time>2025-11-21T12:36:17.000Z</time>
      </trkpt>
      <trkpt lat="44.48578" lon="6.20631">
        <ele>1325</ele>
        <time>2025-11-21T12:36:18.000Z</time>
      </trkpt>
      <trkpt lat="44.48576" lon="6.20631">
        <ele>1325</ele>
        <time>2025-11-21T12:36:19.000Z</time>
      </trkpt>
      <trkpt lat="44.48574" lon="6.20631">
        <ele>1325</ele>
        <time>2025-11-21T12:36:20.000Z</time>
      </trkpt>
      <trkpt lat="44.48573" lon="6.20631">
        <ele>1325</ele>
        <time>2025-11-21T12:36:21.000Z</time>
      </trkpt>
      <trkpt lat="44.48572" lon="6.20631">
        <ele>1325</ele>
        <time>2025-11-21T12:36:22.000Z</time>
      </trkpt>
      <trkpt lat="44.48571" lon="6.20631">
        <ele>1325</ele>
        <time>2025-11-21T12:36:23.000Z</time>
      </trkpt>
      <trkpt lat="44.4857" lon="6.20631">
        <ele>1325</ele>
        <time>2025-11-21T12:36:24.000Z</time>
      </trkpt>
      <trkpt lat="44.48568" lon="6.2063">
        <ele>1325</ele>
        <time>2025-11-21T12:36:25.000Z</time>
      </trkpt>
      <trkpt lat="44.48567" lon="6.20629">
        <ele>1325</ele>
        <time>2025-11-21T12:36:26.000Z</time>
      </trkpt>
      <trkpt lat="44.48566" lon="6.20629">
        <ele>1325</ele>
        <time>2025-11-21T12:36:27.000Z</time>
      </trkpt>
      <trkpt lat="44.48564" lon="6.20629">
        <ele>1324</ele>
        <time>2025-11-21T12:36:28.000Z</time>
      </trkpt>
      <trkpt lat="44.48563" lon="6.20629">
        <ele>1324</ele>
        <time>2025-11-21T12:36:29.000Z</time>
      </trkpt>
      <trkpt lat="44.48562" lon="6.20629">
        <ele>1323</ele>
        <time>2025-11-21T12:36:30.000Z</time>
      </trkpt>
      <trkpt lat="44.48561" lon="6.2063">
        <ele>1323</ele>
        <time>2025-11-21T12:36:31.000Z</time>
      </trkpt>
      <trkpt lat="44.4856" lon="6.20631">
        <ele>1323</ele>
        <time>2025-11-21T12:36:32.000Z</time>
      </trkpt>
      <trkpt lat="44.48559" lon="6.20631">
        <ele>1323</ele>
        <time>2025-11-21T12:36:33.000Z</time>
      </trkpt>
      <trkpt lat="44.48558" lon="6.20631">
        <ele>1322</ele>
        <time>2025-11-21T12:36:34.000Z</time>
      </trkpt>
      <trkpt lat="44.48557" lon="6.2063">
        <ele>1322</ele>
        <time>2025-11-21T12:36:35.000Z</time>
      </trkpt>
      <trkpt lat="44.48556" lon="6.20631">
        <ele>1322</ele>
        <time>2025-11-21T12:36:36.000Z</time>
      </trkpt>
      <trkpt lat="44.48555" lon="6.20631">
        <ele>1322</ele>
        <time>2025-11-21T12:36:37.000Z</time>
      </trkpt>
      <trkpt lat="44.48555" lon="6.20631">
        <ele>1322</ele>
        <time>2025-11-21T12:36:38.000Z</time>
      </trkpt>
      <trkpt lat="44.48552" lon="6.20632">
        <ele>1323</ele>
        <time>2025-11-21T12:36:39.000Z</time>
      </trkpt>
      <trkpt lat="44.4855" lon="6.20633">
        <ele>1323</ele>
        <time>2025-11-21T12:36:40.000Z</time>
      </trkpt>
      <trkpt lat="44.48549" lon="6.20633">
        <ele>1323</ele>
        <time>2025-11-21T12:36:41.000Z</time>
      </trkpt>
      <trkpt lat="44.48547" lon="6.20632">
        <ele>1323</ele>
        <time>2025-11-21T12:36:42.000Z</time>
      </trkpt>
      <trkpt lat="44.48545" lon="6.20632">
        <ele>1323</ele>
        <time>2025-11-21T12:36:43.000Z</time>
      </trkpt>
      <trkpt lat="44.48544" lon="6.20632">
        <ele>1323</ele>
        <time>2025-11-21T12:36:44.000Z</time>
      </trkpt>
      <trkpt lat="44.48543" lon="6.20632">
        <ele>1323</ele>
        <time>2025-11-21T12:36:45.000Z</time>
      </trkpt>
      <trkpt lat="44.48542" lon="6.20632">
        <ele>1323</ele>
        <time>2025-11-21T12:36:46.000Z</time>
      </trkpt>
      <trkpt lat="44.48541" lon="6.20632">
        <ele>1323</ele>
        <time>2025-11-21T12:36:47.000Z</time>
      </trkpt>
      <trkpt lat="44.4854" lon="6.20632">
        <ele>1322</ele>
        <time>2025-11-21T12:36:48.000Z</time>
      </trkpt>
      <trkpt lat="44.48539" lon="6.20633">
        <ele>1323</ele>
        <time>2025-11-21T12:36:49.000Z</time>
      </trkpt>
      <trkpt lat="44.48538" lon="6.20632">
        <ele>1323</ele>
        <time>2025-11-21T12:36:50.000Z</time>
      </trkpt>
      <trkpt lat="44.48537" lon="6.20631">
        <ele>1323</ele>
        <time>2025-11-21T12:36:51.000Z</time>
      </trkpt>
      <trkpt lat="44.48535" lon="6.2063">
        <ele>1322</ele>
        <time>2025-11-21T12:36:52.000Z</time>
      </trkpt>
      <trkpt lat="44.48534" lon="6.2063">
        <ele>1322</ele>
        <time>2025-11-21T12:36:53.000Z</time>
      </trkpt>
      <trkpt lat="44.48533" lon="6.2063">
        <ele>1322</ele>
        <time>2025-11-21T12:36:54.000Z</time>
      </trkpt>
      <trkpt lat="44.48532" lon="6.2063">
        <ele>1322</ele>
        <time>2025-11-21T12:36:55.000Z</time>
      </trkpt>
      <trkpt lat="44.48531" lon="6.20629">
        <ele>1322</ele>
        <time>2025-11-21T12:36:56.000Z</time>
      </trkpt>
      <trkpt lat="44.4853" lon="6.20629">
        <ele>1323</ele>
        <time>2025-11-21T12:36:57.000Z</time>
      </trkpt>
      <trkpt lat="44.48529" lon="6.20629">
        <ele>1323</ele>
        <time>2025-11-21T12:36:58.000Z</time>
      </trkpt>
      <trkpt lat="44.48528" lon="6.20629">
        <ele>1322</ele>
        <time>2025-11-21T12:36:59.000Z</time>
      </trkpt>
      <trkpt lat="44.48526" lon="6.20628">
        <ele>1322</ele>
        <time>2025-11-21T12:37:00.000Z</time>
      </trkpt>
      <trkpt lat="44.48525" lon="6.20628">
        <ele>1322</ele>
        <time>2025-11-21T12:37:01.000Z</time>
      </trkpt>
      <trkpt lat="44.48524" lon="6.20629">
        <ele>1322</ele>
        <time>2025-11-21T12:37:02.000Z</time>
      </trkpt>
      <trkpt lat="44.48522" lon="6.20628">
        <ele>1322</ele>
        <time>2025-11-21T12:37:03.000Z</time>
      </trkpt>
      <trkpt lat="44.4852" lon="6.20627">
        <ele>1322</ele>
        <time>2025-11-21T12:37:04.000Z</time>
      </trkpt>
      <trkpt lat="44.48519" lon="6.20627">
        <ele>1322</ele>
        <time>2025-11-21T12:37:05.000Z</time>
      </trkpt>
      <trkpt lat="44.48518" lon="6.20627">
        <ele>1322</ele>
        <time>2025-11-21T12:37:06.000Z</time>
      </trkpt>
      <trkpt lat="44.48516" lon="6.20627">
        <ele>1322</ele>
        <time>2025-11-21T12:37:07.000Z</time>
      </trkpt>
      <trkpt lat="44.48515" lon="6.20626">
        <ele>1322</ele>
        <time>2025-11-21T12:37:08.000Z</time>
      </trkpt>
      <trkpt lat="44.48514" lon="6.20626">
        <ele>1322</ele>
        <time>2025-11-21T12:37:09.000Z</time>
      </trkpt>
      <trkpt lat="44.48513" lon="6.20625">
        <ele>1323</ele>
        <time>2025-11-21T12:37:10.000Z</time>
      </trkpt>
      <trkpt lat="44.48512" lon="6.20624">
        <ele>1323</ele>
        <time>2025-11-21T12:37:11.000Z</time>
      </trkpt>
      <trkpt lat="44.4851" lon="6.20623">
        <ele>1323</ele>
        <time>2025-11-21T12:37:12.000Z</time>
      </trkpt>
      <trkpt lat="44.48509" lon="6.20623">
        <ele>1323</ele>
        <time>2025-11-21T12:37:13.000Z</time>
      </trkpt>
      <trkpt lat="44.48508" lon="6.20623">
        <ele>1323</ele>
        <time>2025-11-21T12:37:14.000Z</time>
      </trkpt>
      <trkpt lat="44.48506" lon="6.20623">
        <ele>1323</ele>
        <time>2025-11-21T12:37:15.000Z</time>
      </trkpt>
      <trkpt lat="44.48505" lon="6.20622">
        <ele>1323</ele>
        <time>2025-11-21T12:37:16.000Z</time>
      </trkpt>
      <trkpt lat="44.48505" lon="6.20621">
        <ele>1323</ele>
        <time>2025-11-21T12:37:17.000Z</time>
      </trkpt>
      <trkpt lat="44.48504" lon="6.20621">
        <ele>1323</ele>
        <time>2025-11-21T12:37:18.000Z</time>
      </trkpt>
      <trkpt lat="44.48504" lon="6.2062">
        <ele>1323</ele>
        <time>2025-11-21T12:37:19.000Z</time>
      </trkpt>
      <trkpt lat="44.48503" lon="6.20621">
        <ele>1323</ele>
        <time>2025-11-21T12:37:20.000Z</time>
      </trkpt>
      <trkpt lat="44.48502" lon="6.20621">
        <ele>1323</ele>
        <time>2025-11-21T12:37:21.000Z</time>
      </trkpt>
      <trkpt lat="44.48502" lon="6.20621">
        <ele>1323</ele>
        <time>2025-11-21T12:37:22.000Z</time>
      </trkpt>
      <trkpt lat="44.485" lon="6.2062">
        <ele>1322</ele>
        <time>2025-11-21T12:37:23.000Z</time>
      </trkpt>
      <trkpt lat="44.485" lon="6.20619">
        <ele>1322</ele>
        <time>2025-11-21T12:37:24.000Z</time>
      </trkpt>
      <trkpt lat="44.48499" lon="6.20618">
        <ele>1322</ele>
        <time>2025-11-21T12:37:25.000Z</time>
      </trkpt>
      <trkpt lat="44.48498" lon="6.20618">
        <ele>1322</ele>
        <time>2025-11-21T12:37:26.000Z</time>
      </trkpt>
      <trkpt lat="44.48497" lon="6.20618">
        <ele>1321</ele>
        <time>2025-11-21T12:37:27.000Z</time>
      </trkpt>
      <trkpt lat="44.48495" lon="6.20618">
        <ele>1321</ele>
        <time>2025-11-21T12:37:28.000Z</time>
      </trkpt>
      <trkpt lat="44.48494" lon="6.20617">
        <ele>1321</ele>
        <time>2025-11-21T12:37:29.000Z</time>
      </trkpt>
      <trkpt lat="44.48493" lon="6.20617">
        <ele>1321</ele>
        <time>2025-11-21T12:37:30.000Z</time>
      </trkpt>
      <trkpt lat="44.48492" lon="6.20616">
        <ele>1320</ele>
        <time>2025-11-21T12:37:31.000Z</time>
      </trkpt>
      <trkpt lat="44.48491" lon="6.20616">
        <ele>1320</ele>
        <time>2025-11-21T12:37:32.000Z</time>
      </trkpt>
      <trkpt lat="44.4849" lon="6.20616">
        <ele>1319</ele>
        <time>2025-11-21T12:37:33.000Z</time>
      </trkpt>
      <trkpt lat="44.48488" lon="6.20615">
        <ele>1319</ele>
        <time>2025-11-21T12:37:34.000Z</time>
      </trkpt>
      <trkpt lat="44.48487" lon="6.20614">
        <ele>1319</ele>
        <time>2025-11-21T12:37:35.000Z</time>
      </trkpt>
      <trkpt lat="44.48486" lon="6.20614">
        <ele>1319</ele>
        <time>2025-11-21T12:37:36.000Z</time>
      </trkpt>
      <trkpt lat="44.48486" lon="6.20613">
        <ele>1319</ele>
        <time>2025-11-21T12:37:37.000Z</time>
      </trkpt>
      <trkpt lat="44.48485" lon="6.20613">
        <ele>1319</ele>
        <time>2025-11-21T12:37:38.000Z</time>
      </trkpt>
      <trkpt lat="44.48484" lon="6.20613">
        <ele>1318</ele>
        <time>2025-11-21T12:37:39.000Z</time>
      </trkpt>
      <trkpt lat="44.48483" lon="6.20613">
        <ele>1318</ele>
        <time>2025-11-21T12:37:40.000Z</time>
      </trkpt>
      <trkpt lat="44.48482" lon="6.20613">
        <ele>1318</ele>
        <time>2025-11-21T12:37:41.000Z</time>
      </trkpt>
      <trkpt lat="44.48481" lon="6.20612">
        <ele>1318</ele>
        <time>2025-11-21T12:37:42.000Z</time>
      </trkpt>
      <trkpt lat="44.4848" lon="6.20612">
        <ele>1318</ele>
        <time>2025-11-21T12:37:43.000Z</time>
      </trkpt>
      <trkpt lat="44.48479" lon="6.20611">
        <ele>1317</ele>
        <time>2025-11-21T12:37:44.000Z</time>
      </trkpt>
      <trkpt lat="44.48478" lon="6.20611">
        <ele>1318</ele>
        <time>2025-11-21T12:37:45.000Z</time>
      </trkpt>
      <trkpt lat="44.48478" lon="6.2061">
        <ele>1318</ele>
        <time>2025-11-21T12:37:46.000Z</time>
      </trkpt>
      <trkpt lat="44.48477" lon="6.2061">
        <ele>1318</ele>
        <time>2025-11-21T12:37:47.000Z</time>
      </trkpt>
      <trkpt lat="44.48476" lon="6.2061">
        <ele>1318</ele>
        <time>2025-11-21T12:37:48.000Z</time>
      </trkpt>
      <trkpt lat="44.48474" lon="6.2061">
        <ele>1318</ele>
        <time>2025-11-21T12:37:49.000Z</time>
      </trkpt>
      <trkpt lat="44.48473" lon="6.2061">
        <ele>1317</ele>
        <time>2025-11-21T12:37:50.000Z</time>
      </trkpt>
      <trkpt lat="44.48472" lon="6.20609">
        <ele>1318</ele>
        <time>2025-11-21T12:37:51.000Z</time>
      </trkpt>
      <trkpt lat="44.48471" lon="6.20609">
        <ele>1317</ele>
        <time>2025-11-21T12:37:52.000Z</time>
      </trkpt>
      <trkpt lat="44.4847" lon="6.20609">
        <ele>1317</ele>
        <time>2025-11-21T12:37:53.000Z</time>
      </trkpt>
      <trkpt lat="44.48469" lon="6.20608">
        <ele>1316</ele>
        <time>2025-11-21T12:37:54.000Z</time>
      </trkpt>
      <trkpt lat="44.48467" lon="6.20608">
        <ele>1316</ele>
        <time>2025-11-21T12:37:55.000Z</time>
      </trkpt>
      <trkpt lat="44.48466" lon="6.20607">
        <ele>1316</ele>
        <time>2025-11-21T12:37:56.000Z</time>
      </trkpt>
      <trkpt lat="44.48464" lon="6.20607">
        <ele>1317</ele>
        <time>2025-11-21T12:37:57.000Z</time>
      </trkpt>
      <trkpt lat="44.48463" lon="6.20606">
        <ele>1317</ele>
        <time>2025-11-21T12:37:58.000Z</time>
      </trkpt>
      <trkpt lat="44.48462" lon="6.20605">
        <ele>1317</ele>
        <time>2025-11-21T12:37:59.000Z</time>
      </trkpt>
      <trkpt lat="44.48461" lon="6.20605">
        <ele>1317</ele>
        <time>2025-11-21T12:38:00.000Z</time>
      </trkpt>
      <trkpt lat="44.48459" lon="6.20604">
        <ele>1316</ele>
        <time>2025-11-21T12:38:01.000Z</time>
      </trkpt>
      <trkpt lat="44.48458" lon="6.20603">
        <ele>1316</ele>
        <time>2025-11-21T12:38:02.000Z</time>
      </trkpt>
      <trkpt lat="44.48456" lon="6.20603">
        <ele>1316</ele>
        <time>2025-11-21T12:38:03.000Z</time>
      </trkpt>
      <trkpt lat="44.48455" lon="6.20602">
        <ele>1316</ele>
        <time>2025-11-21T12:38:04.000Z</time>
      </trkpt>
      <trkpt lat="44.48454" lon="6.20601">
        <ele>1316</ele>
        <time>2025-11-21T12:38:05.000Z</time>
      </trkpt>
      <trkpt lat="44.48454" lon="6.20601">
        <ele>1316</ele>
        <time>2025-11-21T12:38:06.000Z</time>
      </trkpt>
      <trkpt lat="44.48453" lon="6.206">
        <ele>1316</ele>
        <time>2025-11-21T12:38:07.000Z</time>
      </trkpt>
      <trkpt lat="44.48452" lon="6.20599">
        <ele>1315</ele>
        <time>2025-11-21T12:38:08.000Z</time>
      </trkpt>
      <trkpt lat="44.4845" lon="6.20598">
        <ele>1315</ele>
        <time>2025-11-21T12:38:09.000Z</time>
      </trkpt>
      <trkpt lat="44.4845" lon="6.20597">
        <ele>1315</ele>
        <time>2025-11-21T12:38:10.000Z</time>
      </trkpt>
      <trkpt lat="44.48448" lon="6.20596">
        <ele>1314</ele>
        <time>2025-11-21T12:38:11.000Z</time>
      </trkpt>
      <trkpt lat="44.48448" lon="6.20595">
        <ele>1314</ele>
        <time>2025-11-21T12:38:12.000Z</time>
      </trkpt>
      <trkpt lat="44.48447" lon="6.20595">
        <ele>1313</ele>
        <time>2025-11-21T12:38:13.000Z</time>
      </trkpt>
      <trkpt lat="44.48445" lon="6.20594">
        <ele>1313</ele>
        <time>2025-11-21T12:38:14.000Z</time>
      </trkpt>
      <trkpt lat="44.48444" lon="6.20594">
        <ele>1313</ele>
        <time>2025-11-21T12:38:15.000Z</time>
      </trkpt>
      <trkpt lat="44.48443" lon="6.20592">
        <ele>1312</ele>
        <time>2025-11-21T12:38:16.000Z</time>
      </trkpt>
      <trkpt lat="44.48442" lon="6.20592">
        <ele>1312</ele>
        <time>2025-11-21T12:38:17.000Z</time>
      </trkpt>
      <trkpt lat="44.48441" lon="6.20591">
        <ele>1312</ele>
        <time>2025-11-21T12:38:18.000Z</time>
      </trkpt>
      <trkpt lat="44.4844" lon="6.2059">
        <ele>1312</ele>
        <time>2025-11-21T12:38:19.000Z</time>
      </trkpt>
      <trkpt lat="44.48439" lon="6.2059">
        <ele>1311</ele>
        <time>2025-11-21T12:38:20.000Z</time>
      </trkpt>
      <trkpt lat="44.48438" lon="6.2059">
        <ele>1311</ele>
        <time>2025-11-21T12:38:21.000Z</time>
      </trkpt>
      <trkpt lat="44.48437" lon="6.20589">
        <ele>1312</ele>
        <time>2025-11-21T12:38:22.000Z</time>
      </trkpt>
      <trkpt lat="44.48436" lon="6.20589">
        <ele>1311</ele>
        <time>2025-11-21T12:38:23.000Z</time>
      </trkpt>
      <trkpt lat="44.48434" lon="6.20589">
        <ele>1311</ele>
        <time>2025-11-21T12:38:24.000Z</time>
      </trkpt>
      <trkpt lat="44.48433" lon="6.20588">
        <ele>1311</ele>
        <time>2025-11-21T12:38:25.000Z</time>
      </trkpt>
      <trkpt lat="44.48433" lon="6.20588">
        <ele>1311</ele>
        <time>2025-11-21T12:38:26.000Z</time>
      </trkpt>
      <trkpt lat="44.48432" lon="6.20588">
        <ele>1311</ele>
        <time>2025-11-21T12:38:27.000Z</time>
      </trkpt>
      <trkpt lat="44.48431" lon="6.20588">
        <ele>1311</ele>
        <time>2025-11-21T12:38:28.000Z</time>
      </trkpt>
      <trkpt lat="44.4843" lon="6.20588">
        <ele>1311</ele>
        <time>2025-11-21T12:38:29.000Z</time>
      </trkpt>
      <trkpt lat="44.48429" lon="6.20587">
        <ele>1311</ele>
        <time>2025-11-21T12:38:30.000Z</time>
      </trkpt>
      <trkpt lat="44.48427" lon="6.20587">
        <ele>1311</ele>
        <time>2025-11-21T12:38:31.000Z</time>
      </trkpt>
      <trkpt lat="44.48426" lon="6.20586">
        <ele>1310</ele>
        <time>2025-11-21T12:38:32.000Z</time>
      </trkpt>
      <trkpt lat="44.48425" lon="6.20586">
        <ele>1310</ele>
        <time>2025-11-21T12:38:33.000Z</time>
      </trkpt>
      <trkpt lat="44.48424" lon="6.20586">
        <ele>1311</ele>
        <time>2025-11-21T12:38:34.000Z</time>
      </trkpt>
      <trkpt lat="44.48423" lon="6.20586">
        <ele>1311</ele>
        <time>2025-11-21T12:38:35.000Z</time>
      </trkpt>
      <trkpt lat="44.48421" lon="6.20585">
        <ele>1311</ele>
        <time>2025-11-21T12:38:36.000Z</time>
      </trkpt>
      <trkpt lat="44.4842" lon="6.20585">
        <ele>1311</ele>
        <time>2025-11-21T12:38:37.000Z</time>
      </trkpt>
      <trkpt lat="44.48418" lon="6.20585">
        <ele>1311</ele>
        <time>2025-11-21T12:38:38.000Z</time>
      </trkpt>
      <trkpt lat="44.48417" lon="6.20585">
        <ele>1311</ele>
        <time>2025-11-21T12:38:39.000Z</time>
      </trkpt>
      <trkpt lat="44.48415" lon="6.20585">
        <ele>1311</ele>
        <time>2025-11-21T12:38:40.000Z</time>
      </trkpt>
      <trkpt lat="44.48414" lon="6.20584">
        <ele>1311</ele>
        <time>2025-11-21T12:38:41.000Z</time>
      </trkpt>
      <trkpt lat="44.48412" lon="6.20584">
        <ele>1311</ele>
        <time>2025-11-21T12:38:42.000Z</time>
      </trkpt>
      <trkpt lat="44.48411" lon="6.20584">
        <ele>1311</ele>
        <time>2025-11-21T12:38:43.000Z</time>
      </trkpt>
      <trkpt lat="44.4841" lon="6.20584">
        <ele>1310</ele>
        <time>2025-11-21T12:38:44.000Z</time>
      </trkpt>
      <trkpt lat="44.4841" lon="6.20585">
        <ele>1311</ele>
        <time>2025-11-21T12:38:45.000Z</time>
      </trkpt>
      <trkpt lat="44.48409" lon="6.20585">
        <ele>1310</ele>
        <time>2025-11-21T12:38:46.000Z</time>
      </trkpt>
      <trkpt lat="44.48408" lon="6.20585">
        <ele>1311</ele>
        <time>2025-11-21T12:38:47.000Z</time>
      </trkpt>
      <trkpt lat="44.48408" lon="6.20585">
        <ele>1311</ele>
        <time>2025-11-21T12:38:48.000Z</time>
      </trkpt>
      <trkpt lat="44.48407" lon="6.20586">
        <ele>1311</ele>
        <time>2025-11-21T12:38:49.000Z</time>
      </trkpt>
      <trkpt lat="44.48405" lon="6.20585">
        <ele>1311</ele>
        <time>2025-11-21T12:38:50.000Z</time>
      </trkpt>
      <trkpt lat="44.48404" lon="6.20585">
        <ele>1311</ele>
        <time>2025-11-21T12:38:51.000Z</time>
      </trkpt>
      <trkpt lat="44.48403" lon="6.20584">
        <ele>1311</ele>
        <time>2025-11-21T12:38:52.000Z</time>
      </trkpt>
      <trkpt lat="44.48401" lon="6.20583">
        <ele>1311</ele>
        <time>2025-11-21T12:38:53.000Z</time>
      </trkpt>
      <trkpt lat="44.484" lon="6.20583">
        <ele>1310</ele>
        <time>2025-11-21T12:38:54.000Z</time>
      </trkpt>
      <trkpt lat="44.48399" lon="6.20583">
        <ele>1310</ele>
        <time>2025-11-21T12:38:55.000Z</time>
      </trkpt>
      <trkpt lat="44.48397" lon="6.20583">
        <ele>1310</ele>
        <time>2025-11-21T12:38:56.000Z</time>
      </trkpt>
      <trkpt lat="44.48396" lon="6.20583">
        <ele>1310</ele>
        <time>2025-11-21T12:38:57.000Z</time>
      </trkpt>
      <trkpt lat="44.48395" lon="6.20584">
        <ele>1310</ele>
        <time>2025-11-21T12:38:58.000Z</time>
      </trkpt>
      <trkpt lat="44.48394" lon="6.20585">
        <ele>1310</ele>
        <time>2025-11-21T12:38:59.000Z</time>
      </trkpt>
      <trkpt lat="44.48392" lon="6.20585">
        <ele>1310</ele>
        <time>2025-11-21T12:39:00.000Z</time>
      </trkpt>
      <trkpt lat="44.48391" lon="6.20586">
        <ele>1310</ele>
        <time>2025-11-21T12:39:01.000Z</time>
      </trkpt>
      <trkpt lat="44.4839" lon="6.20586">
        <ele>1309</ele>
        <time>2025-11-21T12:39:02.000Z</time>
      </trkpt>
      <trkpt lat="44.48388" lon="6.20586">
        <ele>1309</ele>
        <time>2025-11-21T12:39:03.000Z</time>
      </trkpt>
      <trkpt lat="44.48387" lon="6.20586">
        <ele>1309</ele>
        <time>2025-11-21T12:39:04.000Z</time>
      </trkpt>
      <trkpt lat="44.48386" lon="6.20585">
        <ele>1308</ele>
        <time>2025-11-21T12:39:05.000Z</time>
      </trkpt>
      <trkpt lat="44.48384" lon="6.20585">
        <ele>1308</ele>
        <time>2025-11-21T12:39:06.000Z</time>
      </trkpt>
      <trkpt lat="44.48383" lon="6.20585">
        <ele>1309</ele>
        <time>2025-11-21T12:39:07.000Z</time>
      </trkpt>
      <trkpt lat="44.48382" lon="6.20586">
        <ele>1309</ele>
        <time>2025-11-21T12:39:08.000Z</time>
      </trkpt>
      <trkpt lat="44.4838" lon="6.20586">
        <ele>1309</ele>
        <time>2025-11-21T12:39:09.000Z</time>
      </trkpt>
      <trkpt lat="44.48379" lon="6.20586">
        <ele>1309</ele>
        <time>2025-11-21T12:39:10.000Z</time>
      </trkpt>
      <trkpt lat="44.48377" lon="6.20586">
        <ele>1309</ele>
        <time>2025-11-21T12:39:11.000Z</time>
      </trkpt>
      <trkpt lat="44.48376" lon="6.20586">
        <ele>1309</ele>
        <time>2025-11-21T12:39:12.000Z</time>
      </trkpt>
      <trkpt lat="44.48375" lon="6.20586">
        <ele>1309</ele>
        <time>2025-11-21T12:39:13.000Z</time>
      </trkpt>
      <trkpt lat="44.48373" lon="6.20586">
        <ele>1309</ele>
        <time>2025-11-21T12:39:14.000Z</time>
      </trkpt>
      <trkpt lat="44.48372" lon="6.20586">
        <ele>1309</ele>
        <time>2025-11-21T12:39:15.000Z</time>
      </trkpt>
      <trkpt lat="44.48371" lon="6.20586">
        <ele>1309</ele>
        <time>2025-11-21T12:39:16.000Z</time>
      </trkpt>
      <trkpt lat="44.4837" lon="6.20586">
        <ele>1309</ele>
        <time>2025-11-21T12:39:17.000Z</time>
      </trkpt>
      <trkpt lat="44.48369" lon="6.20586">
        <ele>1309</ele>
        <time>2025-11-21T12:39:18.000Z</time>
      </trkpt>
      <trkpt lat="44.48367" lon="6.20586">
        <ele>1309</ele>
        <time>2025-11-21T12:39:19.000Z</time>
      </trkpt>
      <trkpt lat="44.48366" lon="6.20586">
        <ele>1310</ele>
        <time>2025-11-21T12:39:20.000Z</time>
      </trkpt>
      <trkpt lat="44.48365" lon="6.20586">
        <ele>1309</ele>
        <time>2025-11-21T12:39:21.000Z</time>
      </trkpt>
      <trkpt lat="44.48363" lon="6.20585">
        <ele>1310</ele>
        <time>2025-11-21T12:39:22.000Z</time>
      </trkpt>
      <trkpt lat="44.48362" lon="6.20585">
        <ele>1309</ele>
        <time>2025-11-21T12:39:23.000Z</time>
      </trkpt>
      <trkpt lat="44.48361" lon="6.20584">
        <ele>1308</ele>
        <time>2025-11-21T12:39:24.000Z</time>
      </trkpt>
      <trkpt lat="44.48359" lon="6.20584">
        <ele>1308</ele>
        <time>2025-11-21T12:39:25.000Z</time>
      </trkpt>
      <trkpt lat="44.48358" lon="6.20585">
        <ele>1308</ele>
        <time>2025-11-21T12:39:26.000Z</time>
      </trkpt>
      <trkpt lat="44.48357" lon="6.20585">
        <ele>1308</ele>
        <time>2025-11-21T12:39:27.000Z</time>
      </trkpt>
      <trkpt lat="44.48356" lon="6.20585">
        <ele>1308</ele>
        <time>2025-11-21T12:39:28.000Z</time>
      </trkpt>
      <trkpt lat="44.48354" lon="6.20584">
        <ele>1308</ele>
        <time>2025-11-21T12:39:29.000Z</time>
      </trkpt>
      <trkpt lat="44.48353" lon="6.20584">
        <ele>1308</ele>
        <time>2025-11-21T12:39:30.000Z</time>
      </trkpt>
      <trkpt lat="44.48351" lon="6.20584">
        <ele>1307</ele>
        <time>2025-11-21T12:39:31.000Z</time>
      </trkpt>
      <trkpt lat="44.4835" lon="6.20584">
        <ele>1307</ele>
        <time>2025-11-21T12:39:32.000Z</time>
      </trkpt>
      <trkpt lat="44.48348" lon="6.20584">
        <ele>1307</ele>
        <time>2025-11-21T12:39:33.000Z</time>
      </trkpt>
      <trkpt lat="44.48347" lon="6.20584">
        <ele>1306</ele>
        <time>2025-11-21T12:39:34.000Z</time>
      </trkpt>
      <trkpt lat="44.48345" lon="6.20584">
        <ele>1306</ele>
        <time>2025-11-21T12:39:35.000Z</time>
      </trkpt>
      <trkpt lat="44.48344" lon="6.20584">
        <ele>1306</ele>
        <time>2025-11-21T12:39:36.000Z</time>
      </trkpt>
      <trkpt lat="44.48343" lon="6.20583">
        <ele>1306</ele>
        <time>2025-11-21T12:39:37.000Z</time>
      </trkpt>
      <trkpt lat="44.48342" lon="6.20583">
        <ele>1306</ele>
        <time>2025-11-21T12:39:38.000Z</time>
      </trkpt>
      <trkpt lat="44.4834" lon="6.20582">
        <ele>1306</ele>
        <time>2025-11-21T12:39:39.000Z</time>
      </trkpt>
      <trkpt lat="44.48339" lon="6.20583">
        <ele>1306</ele>
        <time>2025-11-21T12:39:40.000Z</time>
      </trkpt>
      <trkpt lat="44.48337" lon="6.20583">
        <ele>1306</ele>
        <time>2025-11-21T12:39:41.000Z</time>
      </trkpt>
      <trkpt lat="44.48336" lon="6.20583">
        <ele>1306</ele>
        <time>2025-11-21T12:39:42.000Z</time>
      </trkpt>
      <trkpt lat="44.48335" lon="6.20583">
        <ele>1306</ele>
        <time>2025-11-21T12:39:43.000Z</time>
      </trkpt>
      <trkpt lat="44.48334" lon="6.20583">
        <ele>1307</ele>
        <time>2025-11-21T12:39:44.000Z</time>
      </trkpt>
      <trkpt lat="44.48332" lon="6.20582">
        <ele>1307</ele>
        <time>2025-11-21T12:39:45.000Z</time>
      </trkpt>
      <trkpt lat="44.48331" lon="6.20582">
        <ele>1307</ele>
        <time>2025-11-21T12:39:46.000Z</time>
      </trkpt>
      <trkpt lat="44.4833" lon="6.20582">
        <ele>1307</ele>
        <time>2025-11-21T12:39:47.000Z</time>
      </trkpt>
      <trkpt lat="44.48329" lon="6.20582">
        <ele>1308</ele>
        <time>2025-11-21T12:39:48.000Z</time>
      </trkpt>
      <trkpt lat="44.48327" lon="6.20582">
        <ele>1308</ele>
        <time>2025-11-21T12:39:49.000Z</time>
      </trkpt>
      <trkpt lat="44.48326" lon="6.20582">
        <ele>1308</ele>
        <time>2025-11-21T12:39:50.000Z</time>
      </trkpt>
      <trkpt lat="44.48324" lon="6.20581">
        <ele>1307</ele>
        <time>2025-11-21T12:39:51.000Z</time>
      </trkpt>
      <trkpt lat="44.48323" lon="6.20581">
        <ele>1307</ele>
        <time>2025-11-21T12:39:52.000Z</time>
      </trkpt>
      <trkpt lat="44.48322" lon="6.20581">
        <ele>1308</ele>
        <time>2025-11-21T12:39:53.000Z</time>
      </trkpt>
      <trkpt lat="44.48321" lon="6.2058">
        <ele>1308</ele>
        <time>2025-11-21T12:39:54.000Z</time>
      </trkpt>
      <trkpt lat="44.48319" lon="6.20579">
        <ele>1308</ele>
        <time>2025-11-21T12:39:55.000Z</time>
      </trkpt>
      <trkpt lat="44.48318" lon="6.20579">
        <ele>1308</ele>
        <time>2025-11-21T12:39:56.000Z</time>
      </trkpt>
      <trkpt lat="44.48316" lon="6.20579">
        <ele>1308</ele>
        <time>2025-11-21T12:39:57.000Z</time>
      </trkpt>
      <trkpt lat="44.48315" lon="6.20579">
        <ele>1308</ele>
        <time>2025-11-21T12:39:58.000Z</time>
      </trkpt>
      <trkpt lat="44.48314" lon="6.20578">
        <ele>1308</ele>
        <time>2025-11-21T12:39:59.000Z</time>
      </trkpt>
      <trkpt lat="44.48312" lon="6.20578">
        <ele>1308</ele>
        <time>2025-11-21T12:40:00.000Z</time>
      </trkpt>
      <trkpt lat="44.48311" lon="6.20577">
        <ele>1308</ele>
        <time>2025-11-21T12:40:01.000Z</time>
      </trkpt>
      <trkpt lat="44.4831" lon="6.20577">
        <ele>1307</ele>
        <time>2025-11-21T12:40:02.000Z</time>
      </trkpt>
      <trkpt lat="44.48309" lon="6.20577">
        <ele>1307</ele>
        <time>2025-11-21T12:40:03.000Z</time>
      </trkpt>
      <trkpt lat="44.48308" lon="6.20577">
        <ele>1307</ele>
        <time>2025-11-21T12:40:04.000Z</time>
      </trkpt>
      <trkpt lat="44.48307" lon="6.20577">
        <ele>1306</ele>
        <time>2025-11-21T12:40:05.000Z</time>
      </trkpt>
      <trkpt lat="44.48306" lon="6.20577">
        <ele>1307</ele>
        <time>2025-11-21T12:40:06.000Z</time>
      </trkpt>
      <trkpt lat="44.48305" lon="6.20576">
        <ele>1307</ele>
        <time>2025-11-21T12:40:07.000Z</time>
      </trkpt>
      <trkpt lat="44.48304" lon="6.20576">
        <ele>1307</ele>
        <time>2025-11-21T12:40:08.000Z</time>
      </trkpt>
      <trkpt lat="44.48304" lon="6.20575">
        <ele>1307</ele>
        <time>2025-11-21T12:40:09.000Z</time>
      </trkpt>
      <trkpt lat="44.48303" lon="6.20576">
        <ele>1307</ele>
        <time>2025-11-21T12:40:10.000Z</time>
      </trkpt>
      <trkpt lat="44.48302" lon="6.20575">
        <ele>1307</ele>
        <time>2025-11-21T12:40:11.000Z</time>
      </trkpt>
      <trkpt lat="44.483" lon="6.20576">
        <ele>1306</ele>
        <time>2025-11-21T12:40:12.000Z</time>
      </trkpt>
      <trkpt lat="44.48299" lon="6.20576">
        <ele>1307</ele>
        <time>2025-11-21T12:40:13.000Z</time>
      </trkpt>
      <trkpt lat="44.48297" lon="6.20576">
        <ele>1307</ele>
        <time>2025-11-21T12:40:14.000Z</time>
      </trkpt>
      <trkpt lat="44.48296" lon="6.20576">
        <ele>1306</ele>
        <time>2025-11-21T12:40:15.000Z</time>
      </trkpt>
      <trkpt lat="44.48294" lon="6.20576">
        <ele>1306</ele>
        <time>2025-11-21T12:40:16.000Z</time>
      </trkpt>
      <trkpt lat="44.48292" lon="6.20575">
        <ele>1307</ele>
        <time>2025-11-21T12:40:17.000Z</time>
      </trkpt>
      <trkpt lat="44.48291" lon="6.20575">
        <ele>1307</ele>
        <time>2025-11-21T12:40:18.000Z</time>
      </trkpt>
      <trkpt lat="44.4829" lon="6.20573">
        <ele>1307</ele>
        <time>2025-11-21T12:40:19.000Z</time>
      </trkpt>
      <trkpt lat="44.48288" lon="6.20573">
        <ele>1306</ele>
        <time>2025-11-21T12:40:20.000Z</time>
      </trkpt>
      <trkpt lat="44.48287" lon="6.20572">
        <ele>1306</ele>
        <time>2025-11-21T12:40:21.000Z</time>
      </trkpt>
      <trkpt lat="44.48286" lon="6.20571">
        <ele>1306</ele>
        <time>2025-11-21T12:40:22.000Z</time>
      </trkpt>
      <trkpt lat="44.48285" lon="6.2057">
        <ele>1305</ele>
        <time>2025-11-21T12:40:23.000Z</time>
      </trkpt>
      <trkpt lat="44.48283" lon="6.2057">
        <ele>1305</ele>
        <time>2025-11-21T12:40:24.000Z</time>
      </trkpt>
      <trkpt lat="44.48282" lon="6.20569">
        <ele>1305</ele>
        <time>2025-11-21T12:40:25.000Z</time>
      </trkpt>
      <trkpt lat="44.48281" lon="6.20569">
        <ele>1305</ele>
        <time>2025-11-21T12:40:26.000Z</time>
      </trkpt>
      <trkpt lat="44.4828" lon="6.20568">
        <ele>1305</ele>
        <time>2025-11-21T12:40:27.000Z</time>
      </trkpt>
      <trkpt lat="44.48279" lon="6.20568">
        <ele>1305</ele>
        <time>2025-11-21T12:40:28.000Z</time>
      </trkpt>
      <trkpt lat="44.48278" lon="6.20568">
        <ele>1305</ele>
        <time>2025-11-21T12:40:29.000Z</time>
      </trkpt>
      <trkpt lat="44.48276" lon="6.20568">
        <ele>1304</ele>
        <time>2025-11-21T12:40:30.000Z</time>
      </trkpt>
      <trkpt lat="44.48274" lon="6.20568">
        <ele>1304</ele>
        <time>2025-11-21T12:40:31.000Z</time>
      </trkpt>
      <trkpt lat="44.48273" lon="6.20568">
        <ele>1303</ele>
        <time>2025-11-21T12:40:32.000Z</time>
      </trkpt>
      <trkpt lat="44.48272" lon="6.20568">
        <ele>1302</ele>
        <time>2025-11-21T12:40:33.000Z</time>
      </trkpt>
      <trkpt lat="44.48271" lon="6.20568">
        <ele>1302</ele>
        <time>2025-11-21T12:40:34.000Z</time>
      </trkpt>
      <trkpt lat="44.4827" lon="6.20567">
        <ele>1302</ele>
        <time>2025-11-21T12:40:35.000Z</time>
      </trkpt>
      <trkpt lat="44.48269" lon="6.20566">
        <ele>1302</ele>
        <time>2025-11-21T12:40:36.000Z</time>
      </trkpt>
      <trkpt lat="44.48268" lon="6.20565">
        <ele>1302</ele>
        <time>2025-11-21T12:40:37.000Z</time>
      </trkpt>
      <trkpt lat="44.48267" lon="6.20564">
        <ele>1302</ele>
        <time>2025-11-21T12:40:38.000Z</time>
      </trkpt>
      <trkpt lat="44.48265" lon="6.20564">
        <ele>1302</ele>
        <time>2025-11-21T12:40:39.000Z</time>
      </trkpt>
      <trkpt lat="44.48263" lon="6.20564">
        <ele>1302</ele>
        <time>2025-11-21T12:40:40.000Z</time>
      </trkpt>
      <trkpt lat="44.48262" lon="6.20564">
        <ele>1301</ele>
        <time>2025-11-21T12:40:41.000Z</time>
      </trkpt>
      <trkpt lat="44.48261" lon="6.20564">
        <ele>1301</ele>
        <time>2025-11-21T12:40:42.000Z</time>
      </trkpt>
      <trkpt lat="44.4826" lon="6.20564">
        <ele>1301</ele>
        <time>2025-11-21T12:40:43.000Z</time>
      </trkpt>
      <trkpt lat="44.48259" lon="6.20564">
        <ele>1301</ele>
        <time>2025-11-21T12:40:44.000Z</time>
      </trkpt>
      <trkpt lat="44.48258" lon="6.20564">
        <ele>1302</ele>
        <time>2025-11-21T12:40:45.000Z</time>
      </trkpt>
      <trkpt lat="44.48256" lon="6.20564">
        <ele>1302</ele>
        <time>2025-11-21T12:40:46.000Z</time>
      </trkpt>
      <trkpt lat="44.48255" lon="6.20563">
        <ele>1301</ele>
        <time>2025-11-21T12:40:47.000Z</time>
      </trkpt>
      <trkpt lat="44.48254" lon="6.20562">
        <ele>1301</ele>
        <time>2025-11-21T12:40:48.000Z</time>
      </trkpt>
      <trkpt lat="44.48253" lon="6.20562">
        <ele>1301</ele>
        <time>2025-11-21T12:40:49.000Z</time>
      </trkpt>
      <trkpt lat="44.48251" lon="6.20561">
        <ele>1301</ele>
        <time>2025-11-21T12:40:50.000Z</time>
      </trkpt>
      <trkpt lat="44.48251" lon="6.2056">
        <ele>1302</ele>
        <time>2025-11-21T12:40:51.000Z</time>
      </trkpt>
      <trkpt lat="44.48249" lon="6.2056">
        <ele>1302</ele>
        <time>2025-11-21T12:40:52.000Z</time>
      </trkpt>
      <trkpt lat="44.48248" lon="6.20559">
        <ele>1302</ele>
        <time>2025-11-21T12:40:53.000Z</time>
      </trkpt>
      <trkpt lat="44.48246" lon="6.20559">
        <ele>1302</ele>
        <time>2025-11-21T12:40:54.000Z</time>
      </trkpt>
      <trkpt lat="44.48245" lon="6.20559">
        <ele>1302</ele>
        <time>2025-11-21T12:40:55.000Z</time>
      </trkpt>
      <trkpt lat="44.48244" lon="6.20558">
        <ele>1302</ele>
        <time>2025-11-21T12:40:56.000Z</time>
      </trkpt>
      <trkpt lat="44.48243" lon="6.20558">
        <ele>1302</ele>
        <time>2025-11-21T12:40:57.000Z</time>
      </trkpt>
      <trkpt lat="44.48241" lon="6.20558">
        <ele>1302</ele>
        <time>2025-11-21T12:40:58.000Z</time>
      </trkpt>
      <trkpt lat="44.4824" lon="6.20557">
        <ele>1301</ele>
        <time>2025-11-21T12:40:59.000Z</time>
      </trkpt>
      <trkpt lat="44.48239" lon="6.20557">
        <ele>1301</ele>
        <time>2025-11-21T12:41:00.000Z</time>
      </trkpt>
      <trkpt lat="44.48238" lon="6.20555">
        <ele>1301</ele>
        <time>2025-11-21T12:41:01.000Z</time>
      </trkpt>
      <trkpt lat="44.48237" lon="6.20554">
        <ele>1301</ele>
        <time>2025-11-21T12:41:02.000Z</time>
      </trkpt>
      <trkpt lat="44.48236" lon="6.20554">
        <ele>1302</ele>
        <time>2025-11-21T12:41:03.000Z</time>
      </trkpt>
      <trkpt lat="44.48236" lon="6.20552">
        <ele>1301</ele>
        <time>2025-11-21T12:41:04.000Z</time>
      </trkpt>
      <trkpt lat="44.48235" lon="6.20551">
        <ele>1301</ele>
        <time>2025-11-21T12:41:05.000Z</time>
      </trkpt>
      <trkpt lat="44.48234" lon="6.2055">
        <ele>1301</ele>
        <time>2025-11-21T12:41:06.000Z</time>
      </trkpt>
      <trkpt lat="44.48233" lon="6.2055">
        <ele>1300</ele>
        <time>2025-11-21T12:41:07.000Z</time>
      </trkpt>
      <trkpt lat="44.48231" lon="6.20549">
        <ele>1300</ele>
        <time>2025-11-21T12:41:08.000Z</time>
      </trkpt>
      <trkpt lat="44.4823" lon="6.20548">
        <ele>1299</ele>
        <time>2025-11-21T12:41:09.000Z</time>
      </trkpt>
      <trkpt lat="44.48229" lon="6.20547">
        <ele>1299</ele>
        <time>2025-11-21T12:41:10.000Z</time>
      </trkpt>
      <trkpt lat="44.48228" lon="6.20547">
        <ele>1299</ele>
        <time>2025-11-21T12:41:11.000Z</time>
      </trkpt>
      <trkpt lat="44.48227" lon="6.20546">
        <ele>1300</ele>
        <time>2025-11-21T12:41:12.000Z</time>
      </trkpt>
      <trkpt lat="44.48226" lon="6.20545">
        <ele>1299</ele>
        <time>2025-11-21T12:41:13.000Z</time>
      </trkpt>
      <trkpt lat="44.48226" lon="6.20544">
        <ele>1299</ele>
        <time>2025-11-21T12:41:14.000Z</time>
      </trkpt>
      <trkpt lat="44.48224" lon="6.20543">
        <ele>1298</ele>
        <time>2025-11-21T12:41:15.000Z</time>
      </trkpt>
      <trkpt lat="44.48222" lon="6.20543">
        <ele>1298</ele>
        <time>2025-11-21T12:41:16.000Z</time>
      </trkpt>
      <trkpt lat="44.48221" lon="6.20543">
        <ele>1297</ele>
        <time>2025-11-21T12:41:17.000Z</time>
      </trkpt>
      <trkpt lat="44.4822" lon="6.20543">
        <ele>1297</ele>
        <time>2025-11-21T12:41:18.000Z</time>
      </trkpt>
      <trkpt lat="44.48219" lon="6.20542">
        <ele>1297</ele>
        <time>2025-11-21T12:41:19.000Z</time>
      </trkpt>
      <trkpt lat="44.48218" lon="6.20542">
        <ele>1296</ele>
        <time>2025-11-21T12:41:20.000Z</time>
      </trkpt>
      <trkpt lat="44.48216" lon="6.20541">
        <ele>1296</ele>
        <time>2025-11-21T12:41:21.000Z</time>
      </trkpt>
      <trkpt lat="44.48215" lon="6.20541">
        <ele>1296</ele>
        <time>2025-11-21T12:41:22.000Z</time>
      </trkpt>
      <trkpt lat="44.48214" lon="6.2054">
        <ele>1295</ele>
        <time>2025-11-21T12:41:23.000Z</time>
      </trkpt>
      <trkpt lat="44.48212" lon="6.2054">
        <ele>1295</ele>
        <time>2025-11-21T12:41:24.000Z</time>
      </trkpt>
      <trkpt lat="44.48211" lon="6.20539">
        <ele>1295</ele>
        <time>2025-11-21T12:41:25.000Z</time>
      </trkpt>
      <trkpt lat="44.48209" lon="6.20539">
        <ele>1294</ele>
        <time>2025-11-21T12:41:26.000Z</time>
      </trkpt>
      <trkpt lat="44.48209" lon="6.20538">
        <ele>1295</ele>
        <time>2025-11-21T12:41:27.000Z</time>
      </trkpt>
      <trkpt lat="44.48208" lon="6.20537">
        <ele>1295</ele>
        <time>2025-11-21T12:41:28.000Z</time>
      </trkpt>
      <trkpt lat="44.48208" lon="6.20537">
        <ele>1296</ele>
        <time>2025-11-21T12:41:29.000Z</time>
      </trkpt>
      <trkpt lat="44.48207" lon="6.20537">
        <ele>1296</ele>
        <time>2025-11-21T12:41:30.000Z</time>
      </trkpt>
      <trkpt lat="44.48206" lon="6.20537">
        <ele>1296</ele>
        <time>2025-11-21T12:41:31.000Z</time>
      </trkpt>
      <trkpt lat="44.48205" lon="6.20536">
        <ele>1296</ele>
        <time>2025-11-21T12:41:32.000Z</time>
      </trkpt>
      <trkpt lat="44.48204" lon="6.20535">
        <ele>1296</ele>
        <time>2025-11-21T12:41:33.000Z</time>
      </trkpt>
      <trkpt lat="44.48203" lon="6.20534">
        <ele>1296</ele>
        <time>2025-11-21T12:41:34.000Z</time>
      </trkpt>
      <trkpt lat="44.48201" lon="6.20533">
        <ele>1296</ele>
        <time>2025-11-21T12:41:35.000Z</time>
      </trkpt>
      <trkpt lat="44.48201" lon="6.20532">
        <ele>1296</ele>
        <time>2025-11-21T12:41:36.000Z</time>
      </trkpt>
      <trkpt lat="44.482" lon="6.20532">
        <ele>1296</ele>
        <time>2025-11-21T12:41:37.000Z</time>
      </trkpt>
      <trkpt lat="44.48198" lon="6.20532">
        <ele>1296</ele>
        <time>2025-11-21T12:41:38.000Z</time>
      </trkpt>
      <trkpt lat="44.48197" lon="6.20531">
        <ele>1296</ele>
        <time>2025-11-21T12:41:39.000Z</time>
      </trkpt>
      <trkpt lat="44.48196" lon="6.20531">
        <ele>1295</ele>
        <time>2025-11-21T12:41:40.000Z</time>
      </trkpt>
      <trkpt lat="44.48195" lon="6.2053">
        <ele>1296</ele>
        <time>2025-11-21T12:41:41.000Z</time>
      </trkpt>
      <trkpt lat="44.48193" lon="6.2053">
        <ele>1296</ele>
        <time>2025-11-21T12:41:42.000Z</time>
      </trkpt>
      <trkpt lat="44.48192" lon="6.20529">
        <ele>1295</ele>
        <time>2025-11-21T12:41:43.000Z</time>
      </trkpt>
      <trkpt lat="44.48191" lon="6.20529">
        <ele>1295</ele>
        <time>2025-11-21T12:41:44.000Z</time>
      </trkpt>
      <trkpt lat="44.4819" lon="6.20528">
        <ele>1295</ele>
        <time>2025-11-21T12:41:45.000Z</time>
      </trkpt>
      <trkpt lat="44.48189" lon="6.20528">
        <ele>1295</ele>
        <time>2025-11-21T12:41:46.000Z</time>
      </trkpt>
      <trkpt lat="44.48188" lon="6.20526">
        <ele>1295</ele>
        <time>2025-11-21T12:41:47.000Z</time>
      </trkpt>
      <trkpt lat="44.48187" lon="6.20526">
        <ele>1295</ele>
        <time>2025-11-21T12:41:48.000Z</time>
      </trkpt>
      <trkpt lat="44.48185" lon="6.20526">
        <ele>1295</ele>
        <time>2025-11-21T12:41:49.000Z</time>
      </trkpt>
      <trkpt lat="44.48184" lon="6.20525">
        <ele>1294</ele>
        <time>2025-11-21T12:41:50.000Z</time>
      </trkpt>
      <trkpt lat="44.48183" lon="6.20524">
        <ele>1294</ele>
        <time>2025-11-21T12:41:51.000Z</time>
      </trkpt>
      <trkpt lat="44.48182" lon="6.20524">
        <ele>1294</ele>
        <time>2025-11-21T12:41:52.000Z</time>
      </trkpt>
      <trkpt lat="44.48181" lon="6.20524">
        <ele>1294</ele>
        <time>2025-11-21T12:41:53.000Z</time>
      </trkpt>
      <trkpt lat="44.4818" lon="6.20523">
        <ele>1294</ele>
        <time>2025-11-21T12:41:54.000Z</time>
      </trkpt>
      <trkpt lat="44.48179" lon="6.20523">
        <ele>1294</ele>
        <time>2025-11-21T12:41:55.000Z</time>
      </trkpt>
      <trkpt lat="44.48178" lon="6.20523">
        <ele>1294</ele>
        <time>2025-11-21T12:41:56.000Z</time>
      </trkpt>
      <trkpt lat="44.48177" lon="6.20523">
        <ele>1294</ele>
        <time>2025-11-21T12:41:57.000Z</time>
      </trkpt>
      <trkpt lat="44.48175" lon="6.20522">
        <ele>1293</ele>
        <time>2025-11-21T12:41:58.000Z</time>
      </trkpt>
      <trkpt lat="44.48174" lon="6.20522">
        <ele>1293</ele>
        <time>2025-11-21T12:41:59.000Z</time>
      </trkpt>
      <trkpt lat="44.48173" lon="6.20522">
        <ele>1293</ele>
        <time>2025-11-21T12:42:00.000Z</time>
      </trkpt>
      <trkpt lat="44.48172" lon="6.20522">
        <ele>1292</ele>
        <time>2025-11-21T12:42:01.000Z</time>
      </trkpt>
      <trkpt lat="44.48171" lon="6.20521">
        <ele>1292</ele>
        <time>2025-11-21T12:42:02.000Z</time>
      </trkpt>
      <trkpt lat="44.4817" lon="6.20521">
        <ele>1292</ele>
        <time>2025-11-21T12:42:03.000Z</time>
      </trkpt>
      <trkpt lat="44.48169" lon="6.20521">
        <ele>1291</ele>
        <time>2025-11-21T12:42:04.000Z</time>
      </trkpt>
      <trkpt lat="44.48168" lon="6.2052">
        <ele>1291</ele>
        <time>2025-11-21T12:42:05.000Z</time>
      </trkpt>
      <trkpt lat="44.48167" lon="6.2052">
        <ele>1292</ele>
        <time>2025-11-21T12:42:06.000Z</time>
      </trkpt>
      <trkpt lat="44.48166" lon="6.20519">
        <ele>1292</ele>
        <time>2025-11-21T12:42:07.000Z</time>
      </trkpt>
      <trkpt lat="44.48165" lon="6.20519">
        <ele>1292</ele>
        <time>2025-11-21T12:42:08.000Z</time>
      </trkpt>
      <trkpt lat="44.48163" lon="6.20518">
        <ele>1292</ele>
        <time>2025-11-21T12:42:09.000Z</time>
      </trkpt>
      <trkpt lat="44.48162" lon="6.20518">
        <ele>1292</ele>
        <time>2025-11-21T12:42:10.000Z</time>
      </trkpt>
      <trkpt lat="44.48161" lon="6.20518">
        <ele>1292</ele>
        <time>2025-11-21T12:42:11.000Z</time>
      </trkpt>
      <trkpt lat="44.48159" lon="6.20518">
        <ele>1292</ele>
        <time>2025-11-21T12:42:12.000Z</time>
      </trkpt>
      <trkpt lat="44.48158" lon="6.20518">
        <ele>1291</ele>
        <time>2025-11-21T12:42:13.000Z</time>
      </trkpt>
      <trkpt lat="44.48157" lon="6.20518">
        <ele>1291</ele>
        <time>2025-11-21T12:42:14.000Z</time>
      </trkpt>
      <trkpt lat="44.48155" lon="6.20517">
        <ele>1290</ele>
        <time>2025-11-21T12:42:15.000Z</time>
      </trkpt>
      <trkpt lat="44.48155" lon="6.20517">
        <ele>1290</ele>
        <time>2025-11-21T12:42:16.000Z</time>
      </trkpt>
      <trkpt lat="44.48154" lon="6.20516">
        <ele>1290</ele>
        <time>2025-11-21T12:42:17.000Z</time>
      </trkpt>
      <trkpt lat="44.48154" lon="6.20516">
        <ele>1290</ele>
        <time>2025-11-21T12:42:18.000Z</time>
      </trkpt>
      <trkpt lat="44.48153" lon="6.20515">
        <ele>1290</ele>
        <time>2025-11-21T12:42:19.000Z</time>
      </trkpt>
      <trkpt lat="44.48151" lon="6.20514">
        <ele>1290</ele>
        <time>2025-11-21T12:42:20.000Z</time>
      </trkpt>
      <trkpt lat="44.4815" lon="6.20513">
        <ele>1290</ele>
        <time>2025-11-21T12:42:21.000Z</time>
      </trkpt>
      <trkpt lat="44.48148" lon="6.20513">
        <ele>1290</ele>
        <time>2025-11-21T12:42:22.000Z</time>
      </trkpt>
      <trkpt lat="44.48147" lon="6.20512">
        <ele>1289</ele>
        <time>2025-11-21T12:42:23.000Z</time>
      </trkpt>
      <trkpt lat="44.48146" lon="6.20513">
        <ele>1290</ele>
        <time>2025-11-21T12:42:24.000Z</time>
      </trkpt>
      <trkpt lat="44.48146" lon="6.20512">
        <ele>1290</ele>
        <time>2025-11-21T12:42:25.000Z</time>
      </trkpt>
      <trkpt lat="44.48146" lon="6.20511">
        <ele>1290</ele>
        <time>2025-11-21T12:42:26.000Z</time>
      </trkpt>
      <trkpt lat="44.48145" lon="6.2051">
        <ele>1290</ele>
        <time>2025-11-21T12:42:27.000Z</time>
      </trkpt>
      <trkpt lat="44.48145" lon="6.20509">
        <ele>1291</ele>
        <time>2025-11-21T12:42:28.000Z</time>
      </trkpt>
      <trkpt lat="44.48145" lon="6.20508">
        <ele>1292</ele>
        <time>2025-11-21T12:42:29.000Z</time>
      </trkpt>
      <trkpt lat="44.48145" lon="6.20508">
        <ele>1292</ele>
        <time>2025-11-21T12:42:30.000Z</time>
      </trkpt>
      <trkpt lat="44.48145" lon="6.20508">
        <ele>1292</ele>
        <time>2025-11-21T12:42:31.000Z</time>
      </trkpt>
      <trkpt lat="44.48145" lon="6.20508">
        <ele>1293</ele>
        <time>2025-11-21T12:42:32.000Z</time>
      </trkpt>
      <trkpt lat="44.48145" lon="6.20506">
        <ele>1293</ele>
        <time>2025-11-21T12:42:33.000Z</time>
      </trkpt>
      <trkpt lat="44.48145" lon="6.20506">
        <ele>1292</ele>
        <time>2025-11-21T12:42:34.000Z</time>
      </trkpt>
      <trkpt lat="44.48145" lon="6.20506">
        <ele>1292</ele>
        <time>2025-11-21T12:42:35.000Z</time>
      </trkpt>
      <trkpt lat="44.48145" lon="6.20506">
        <ele>1292</ele>
        <time>2025-11-21T12:42:36.000Z</time>
      </trkpt>
      <trkpt lat="44.48146" lon="6.20507">
        <ele>1291</ele>
        <time>2025-11-21T12:42:37.000Z</time>
      </trkpt>
      <trkpt lat="44.48146" lon="6.20508">
        <ele>1291</ele>
        <time>2025-11-21T12:42:38.000Z</time>
      </trkpt>
      <trkpt lat="44.48146" lon="6.20509">
        <ele>1291</ele>
        <time>2025-11-21T12:42:39.000Z</time>
      </trkpt>
      <trkpt lat="44.48146" lon="6.20509">
        <ele>1291</ele>
        <time>2025-11-21T12:42:40.000Z</time>
      </trkpt>
      <trkpt lat="44.48146" lon="6.20509">
        <ele>1290</ele>
        <time>2025-11-21T12:42:41.000Z</time>
      </trkpt>
      <trkpt lat="44.48146" lon="6.20509">
        <ele>1290</ele>
        <time>2025-11-21T12:42:42.000Z</time>
      </trkpt>
      <trkpt lat="44.48146" lon="6.20509">
        <ele>1290</ele>
        <time>2025-11-21T12:42:43.000Z</time>
      </trkpt>
      <trkpt lat="44.48146" lon="6.20509">
        <ele>1290</ele>
        <time>2025-11-21T12:42:44.000Z</time>
      </trkpt>
      <trkpt lat="44.48146" lon="6.20509">
        <ele>1290</ele>
        <time>2025-11-21T12:42:45.000Z</time>
      </trkpt>
      <trkpt lat="44.48146" lon="6.20511">
        <ele>1292</ele>
        <time>2025-11-21T12:42:46.000Z</time>
      </trkpt>
      <trkpt lat="44.48145" lon="6.20511">
        <ele>1292</ele>
        <time>2025-11-21T12:42:47.000Z</time>
      </trkpt>
      <trkpt lat="44.48144" lon="6.20511">
        <ele>1292</ele>
        <time>2025-11-21T12:42:48.000Z</time>
      </trkpt>
      <trkpt lat="44.48143" lon="6.20511">
        <ele>1291</ele>
        <time>2025-11-21T12:42:49.000Z</time>
      </trkpt>
      <trkpt lat="44.48143" lon="6.20511">
        <ele>1292</ele>
        <time>2025-11-21T12:42:50.000Z</time>
      </trkpt>
      <trkpt lat="44.48142" lon="6.20511">
        <ele>1292</ele>
        <time>2025-11-21T12:42:51.000Z</time>
      </trkpt>
      <trkpt lat="44.48141" lon="6.20511">
        <ele>1293</ele>
        <time>2025-11-21T12:42:52.000Z</time>
      </trkpt>
      <trkpt lat="44.4814" lon="6.20511">
        <ele>1293</ele>
        <time>2025-11-21T12:42:53.000Z</time>
      </trkpt>
      <trkpt lat="44.48139" lon="6.20511">
        <ele>1292</ele>
        <time>2025-11-21T12:42:54.000Z</time>
      </trkpt>
      <trkpt lat="44.48139" lon="6.20511">
        <ele>1292</ele>
        <time>2025-11-21T12:42:55.000Z</time>
      </trkpt>
      <trkpt lat="44.48138" lon="6.20511">
        <ele>1291</ele>
        <time>2025-11-21T12:42:56.000Z</time>
      </trkpt>
      <trkpt lat="44.48137" lon="6.2051">
        <ele>1291</ele>
        <time>2025-11-21T12:42:57.000Z</time>
      </trkpt>
      <trkpt lat="44.48136" lon="6.2051">
        <ele>1291</ele>
        <time>2025-11-21T12:42:58.000Z</time>
      </trkpt>
      <trkpt lat="44.48135" lon="6.20509">
        <ele>1290</ele>
        <time>2025-11-21T12:42:59.000Z</time>
      </trkpt>
      <trkpt lat="44.48134" lon="6.20509">
        <ele>1290</ele>
        <time>2025-11-21T12:43:00.000Z</time>
      </trkpt>
      <trkpt lat="44.48132" lon="6.20509">
        <ele>1290</ele>
        <time>2025-11-21T12:43:01.000Z</time>
      </trkpt>
      <trkpt lat="44.4813" lon="6.20508">
        <ele>1289</ele>
        <time>2025-11-21T12:43:02.000Z</time>
      </trkpt>
      <trkpt lat="44.48129" lon="6.20508">
        <ele>1289</ele>
        <time>2025-11-21T12:43:03.000Z</time>
      </trkpt>
      <trkpt lat="44.48128" lon="6.20508">
        <ele>1289</ele>
        <time>2025-11-21T12:43:04.000Z</time>
      </trkpt>
      <trkpt lat="44.48127" lon="6.20507">
        <ele>1290</ele>
        <time>2025-11-21T12:43:05.000Z</time>
      </trkpt>
      <trkpt lat="44.48126" lon="6.20507">
        <ele>1289</ele>
        <time>2025-11-21T12:43:06.000Z</time>
      </trkpt>
      <trkpt lat="44.48124" lon="6.20507">
        <ele>1289</ele>
        <time>2025-11-21T12:43:07.000Z</time>
      </trkpt>
      <trkpt lat="44.48123" lon="6.20507">
        <ele>1289</ele>
        <time>2025-11-21T12:43:08.000Z</time>
      </trkpt>
      <trkpt lat="44.48122" lon="6.20507">
        <ele>1288</ele>
        <time>2025-11-21T12:43:09.000Z</time>
      </trkpt>
      <trkpt lat="44.4812" lon="6.20507">
        <ele>1287</ele>
        <time>2025-11-21T12:43:10.000Z</time>
      </trkpt>
      <trkpt lat="44.48119" lon="6.20506">
        <ele>1287</ele>
        <time>2025-11-21T12:43:11.000Z</time>
      </trkpt>
      <trkpt lat="44.48118" lon="6.20506">
        <ele>1287</ele>
        <time>2025-11-21T12:43:12.000Z</time>
      </trkpt>
      <trkpt lat="44.48117" lon="6.20506">
        <ele>1286</ele>
        <time>2025-11-21T12:43:13.000Z</time>
      </trkpt>
      <trkpt lat="44.48115" lon="6.20506">
        <ele>1286</ele>
        <time>2025-11-21T12:43:14.000Z</time>
      </trkpt>
      <trkpt lat="44.48114" lon="6.20506">
        <ele>1286</ele>
        <time>2025-11-21T12:43:15.000Z</time>
      </trkpt>
      <trkpt lat="44.48113" lon="6.20505">
        <ele>1286</ele>
        <time>2025-11-21T12:43:16.000Z</time>
      </trkpt>
      <trkpt lat="44.48111" lon="6.20505">
        <ele>1286</ele>
        <time>2025-11-21T12:43:17.000Z</time>
      </trkpt>
      <trkpt lat="44.4811" lon="6.20506">
        <ele>1285</ele>
        <time>2025-11-21T12:43:18.000Z</time>
      </trkpt>
      <trkpt lat="44.48108" lon="6.20505">
        <ele>1285</ele>
        <time>2025-11-21T12:43:19.000Z</time>
      </trkpt>
      <trkpt lat="44.48107" lon="6.20505">
        <ele>1285</ele>
        <time>2025-11-21T12:43:20.000Z</time>
      </trkpt>
      <trkpt lat="44.48105" lon="6.20505">
        <ele>1285</ele>
        <time>2025-11-21T12:43:21.000Z</time>
      </trkpt>
      <trkpt lat="44.48105" lon="6.20506">
        <ele>1284</ele>
        <time>2025-11-21T12:43:22.000Z</time>
      </trkpt>
      <trkpt lat="44.48104" lon="6.20506">
        <ele>1284</ele>
        <time>2025-11-21T12:43:23.000Z</time>
      </trkpt>
      <trkpt lat="44.48103" lon="6.20506">
        <ele>1284</ele>
        <time>2025-11-21T12:43:24.000Z</time>
      </trkpt>
      <trkpt lat="44.48102" lon="6.20505">
        <ele>1285</ele>
        <time>2025-11-21T12:43:25.000Z</time>
      </trkpt>
      <trkpt lat="44.48101" lon="6.20505">
        <ele>1284</ele>
        <time>2025-11-21T12:43:26.000Z</time>
      </trkpt>
      <trkpt lat="44.481" lon="6.20504">
        <ele>1285</ele>
        <time>2025-11-21T12:43:27.000Z</time>
      </trkpt>
      <trkpt lat="44.48099" lon="6.20505">
        <ele>1285</ele>
        <time>2025-11-21T12:43:28.000Z</time>
      </trkpt>
      <trkpt lat="44.48098" lon="6.20505">
        <ele>1284</ele>
        <time>2025-11-21T12:43:29.000Z</time>
      </trkpt>
      <trkpt lat="44.48097" lon="6.20505">
        <ele>1284</ele>
        <time>2025-11-21T12:43:30.000Z</time>
      </trkpt>
      <trkpt lat="44.48095" lon="6.20505">
        <ele>1285</ele>
        <time>2025-11-21T12:43:31.000Z</time>
      </trkpt>
      <trkpt lat="44.48094" lon="6.20504">
        <ele>1285</ele>
        <time>2025-11-21T12:43:32.000Z</time>
      </trkpt>
      <trkpt lat="44.48092" lon="6.20504">
        <ele>1285</ele>
        <time>2025-11-21T12:43:33.000Z</time>
      </trkpt>
      <trkpt lat="44.48091" lon="6.20504">
        <ele>1285</ele>
        <time>2025-11-21T12:43:34.000Z</time>
      </trkpt>
      <trkpt lat="44.4809" lon="6.20504">
        <ele>1286</ele>
        <time>2025-11-21T12:43:35.000Z</time>
      </trkpt>
      <trkpt lat="44.48088" lon="6.20504">
        <ele>1286</ele>
        <time>2025-11-21T12:43:36.000Z</time>
      </trkpt>
      <trkpt lat="44.48087" lon="6.20504">
        <ele>1285</ele>
        <time>2025-11-21T12:43:37.000Z</time>
      </trkpt>
      <trkpt lat="44.48086" lon="6.20504">
        <ele>1285</ele>
        <time>2025-11-21T12:43:38.000Z</time>
      </trkpt>
      <trkpt lat="44.48084" lon="6.20503">
        <ele>1285</ele>
        <time>2025-11-21T12:43:39.000Z</time>
      </trkpt>
      <trkpt lat="44.48083" lon="6.20503">
        <ele>1286</ele>
        <time>2025-11-21T12:43:40.000Z</time>
      </trkpt>
      <trkpt lat="44.48082" lon="6.20503">
        <ele>1286</ele>
        <time>2025-11-21T12:43:41.000Z</time>
      </trkpt>
      <trkpt lat="44.48081" lon="6.20504">
        <ele>1285</ele>
        <time>2025-11-21T12:43:42.000Z</time>
      </trkpt>
      <trkpt lat="44.4808" lon="6.20504">
        <ele>1285</ele>
        <time>2025-11-21T12:43:43.000Z</time>
      </trkpt>
      <trkpt lat="44.48079" lon="6.20504">
        <ele>1285</ele>
        <time>2025-11-21T12:43:44.000Z</time>
      </trkpt>
      <trkpt lat="44.48078" lon="6.20503">
        <ele>1285</ele>
        <time>2025-11-21T12:43:45.000Z</time>
      </trkpt>
      <trkpt lat="44.48077" lon="6.20502">
        <ele>1285</ele>
        <time>2025-11-21T12:43:46.000Z</time>
      </trkpt>
      <trkpt lat="44.48075" lon="6.20502">
        <ele>1285</ele>
        <time>2025-11-21T12:43:47.000Z</time>
      </trkpt>
      <trkpt lat="44.48074" lon="6.20502">
        <ele>1285</ele>
        <time>2025-11-21T12:43:48.000Z</time>
      </trkpt>
      <trkpt lat="44.48073" lon="6.20501">
        <ele>1285</ele>
        <time>2025-11-21T12:43:49.000Z</time>
      </trkpt>
      <trkpt lat="44.48072" lon="6.20501">
        <ele>1284</ele>
        <time>2025-11-21T12:43:50.000Z</time>
      </trkpt>
      <trkpt lat="44.4807" lon="6.205">
        <ele>1284</ele>
        <time>2025-11-21T12:43:51.000Z</time>
      </trkpt>
      <trkpt lat="44.48069" lon="6.20499">
        <ele>1284</ele>
        <time>2025-11-21T12:43:52.000Z</time>
      </trkpt>
      <trkpt lat="44.48068" lon="6.20499">
        <ele>1285</ele>
        <time>2025-11-21T12:43:53.000Z</time>
      </trkpt>
      <trkpt lat="44.48067" lon="6.205">
        <ele>1285</ele>
        <time>2025-11-21T12:43:54.000Z</time>
      </trkpt>
      <trkpt lat="44.48066" lon="6.20499">
        <ele>1285</ele>
        <time>2025-11-21T12:43:55.000Z</time>
      </trkpt>
      <trkpt lat="44.48065" lon="6.20499">
        <ele>1285</ele>
        <time>2025-11-21T12:43:56.000Z</time>
      </trkpt>
      <trkpt lat="44.48064" lon="6.20499">
        <ele>1285</ele>
        <time>2025-11-21T12:43:57.000Z</time>
      </trkpt>
      <trkpt lat="44.48063" lon="6.205">
        <ele>1285</ele>
        <time>2025-11-21T12:43:58.000Z</time>
      </trkpt>
      <trkpt lat="44.48062" lon="6.205">
        <ele>1285</ele>
        <time>2025-11-21T12:43:59.000Z</time>
      </trkpt>
      <trkpt lat="44.48061" lon="6.205">
        <ele>1285</ele>
        <time>2025-11-21T12:44:00.000Z</time>
      </trkpt>
      <trkpt lat="44.48059" lon="6.205">
        <ele>1286</ele>
        <time>2025-11-21T12:44:01.000Z</time>
      </trkpt>
      <trkpt lat="44.48057" lon="6.205">
        <ele>1285</ele>
        <time>2025-11-21T12:44:02.000Z</time>
      </trkpt>
      <trkpt lat="44.48056" lon="6.205">
        <ele>1285</ele>
        <time>2025-11-21T12:44:03.000Z</time>
      </trkpt>
      <trkpt lat="44.48054" lon="6.20499">
        <ele>1285</ele>
        <time>2025-11-21T12:44:04.000Z</time>
      </trkpt>
      <trkpt lat="44.48052" lon="6.20498">
        <ele>1285</ele>
        <time>2025-11-21T12:44:05.000Z</time>
      </trkpt>
      <trkpt lat="44.48051" lon="6.20497">
        <ele>1284</ele>
        <time>2025-11-21T12:44:06.000Z</time>
      </trkpt>
      <trkpt lat="44.4805" lon="6.20497">
        <ele>1284</ele>
        <time>2025-11-21T12:44:07.000Z</time>
      </trkpt>
      <trkpt lat="44.48049" lon="6.20496">
        <ele>1284</ele>
        <time>2025-11-21T12:44:08.000Z</time>
      </trkpt>
      <trkpt lat="44.48047" lon="6.20496">
        <ele>1284</ele>
        <time>2025-11-21T12:44:09.000Z</time>
      </trkpt>
      <trkpt lat="44.48046" lon="6.20496">
        <ele>1284</ele>
        <time>2025-11-21T12:44:10.000Z</time>
      </trkpt>
      <trkpt lat="44.48045" lon="6.20496">
        <ele>1284</ele>
        <time>2025-11-21T12:44:11.000Z</time>
      </trkpt>
      <trkpt lat="44.48044" lon="6.20497">
        <ele>1283</ele>
        <time>2025-11-21T12:44:12.000Z</time>
      </trkpt>
      <trkpt lat="44.48043" lon="6.20497">
        <ele>1282</ele>
        <time>2025-11-21T12:44:13.000Z</time>
      </trkpt>
      <trkpt lat="44.48042" lon="6.20498">
        <ele>1282</ele>
        <time>2025-11-21T12:44:14.000Z</time>
      </trkpt>
      <trkpt lat="44.4804" lon="6.20497">
        <ele>1281</ele>
        <time>2025-11-21T12:44:15.000Z</time>
      </trkpt>
      <trkpt lat="44.48039" lon="6.20497">
        <ele>1281</ele>
        <time>2025-11-21T12:44:16.000Z</time>
      </trkpt>
      <trkpt lat="44.48037" lon="6.20497">
        <ele>1281</ele>
        <time>2025-11-21T12:44:17.000Z</time>
      </trkpt>
      <trkpt lat="44.48035" lon="6.20497">
        <ele>1281</ele>
        <time>2025-11-21T12:44:18.000Z</time>
      </trkpt>
      <trkpt lat="44.48034" lon="6.20496">
        <ele>1280</ele>
        <time>2025-11-21T12:44:19.000Z</time>
      </trkpt>
      <trkpt lat="44.48033" lon="6.20496">
        <ele>1280</ele>
        <time>2025-11-21T12:44:20.000Z</time>
      </trkpt>
      <trkpt lat="44.48032" lon="6.20495">
        <ele>1280</ele>
        <time>2025-11-21T12:44:21.000Z</time>
      </trkpt>
      <trkpt lat="44.48032" lon="6.20495">
        <ele>1280</ele>
        <time>2025-11-21T12:44:22.000Z</time>
      </trkpt>
      <trkpt lat="44.48031" lon="6.20495">
        <ele>1280</ele>
        <time>2025-11-21T12:44:23.000Z</time>
      </trkpt>
      <trkpt lat="44.4803" lon="6.20494">
        <ele>1280</ele>
        <time>2025-11-21T12:44:24.000Z</time>
      </trkpt>
      <trkpt lat="44.48028" lon="6.20494">
        <ele>1279</ele>
        <time>2025-11-21T12:44:25.000Z</time>
      </trkpt>
      <trkpt lat="44.48027" lon="6.20493">
        <ele>1279</ele>
        <time>2025-11-21T12:44:26.000Z</time>
      </trkpt>
      <trkpt lat="44.48026" lon="6.20493">
        <ele>1278</ele>
        <time>2025-11-21T12:44:27.000Z</time>
      </trkpt>
      <trkpt lat="44.48024" lon="6.20493">
        <ele>1278</ele>
        <time>2025-11-21T12:44:28.000Z</time>
      </trkpt>
      <trkpt lat="44.48023" lon="6.20492">
        <ele>1278</ele>
        <time>2025-11-21T12:44:29.000Z</time>
      </trkpt>
      <trkpt lat="44.48021" lon="6.20492">
        <ele>1278</ele>
        <time>2025-11-21T12:44:30.000Z</time>
      </trkpt>
      <trkpt lat="44.4802" lon="6.20491">
        <ele>1278</ele>
        <time>2025-11-21T12:44:31.000Z</time>
      </trkpt>
      <trkpt lat="44.48019" lon="6.20491">
        <ele>1278</ele>
        <time>2025-11-21T12:44:32.000Z</time>
      </trkpt>
      <trkpt lat="44.48018" lon="6.20491">
        <ele>1277</ele>
        <time>2025-11-21T12:44:33.000Z</time>
      </trkpt>
      <trkpt lat="44.48016" lon="6.20491">
        <ele>1278</ele>
        <time>2025-11-21T12:44:34.000Z</time>
      </trkpt>
      <trkpt lat="44.48015" lon="6.20491">
        <ele>1277</ele>
        <time>2025-11-21T12:44:35.000Z</time>
      </trkpt>
      <trkpt lat="44.48014" lon="6.2049">
        <ele>1278</ele>
        <time>2025-11-21T12:44:36.000Z</time>
      </trkpt>
      <trkpt lat="44.48013" lon="6.2049">
        <ele>1277</ele>
        <time>2025-11-21T12:44:37.000Z</time>
      </trkpt>
      <trkpt lat="44.48011" lon="6.2049">
        <ele>1278</ele>
        <time>2025-11-21T12:44:38.000Z</time>
      </trkpt>
      <trkpt lat="44.4801" lon="6.2049">
        <ele>1278</ele>
        <time>2025-11-21T12:44:39.000Z</time>
      </trkpt>
      <trkpt lat="44.48008" lon="6.2049">
        <ele>1278</ele>
        <time>2025-11-21T12:44:40.000Z</time>
      </trkpt>
      <trkpt lat="44.48006" lon="6.20489">
        <ele>1278</ele>
        <time>2025-11-21T12:44:41.000Z</time>
      </trkpt>
      <trkpt lat="44.48006" lon="6.2049">
        <ele>1278</ele>
        <time>2025-11-21T12:44:42.000Z</time>
      </trkpt>
      <trkpt lat="44.48005" lon="6.2049">
        <ele>1278</ele>
        <time>2025-11-21T12:44:43.000Z</time>
      </trkpt>
      <trkpt lat="44.48004" lon="6.2049">
        <ele>1277</ele>
        <time>2025-11-21T12:44:44.000Z</time>
      </trkpt>
      <trkpt lat="44.48003" lon="6.2049">
        <ele>1277</ele>
        <time>2025-11-21T12:44:45.000Z</time>
      </trkpt>
      <trkpt lat="44.48001" lon="6.2049">
        <ele>1276</ele>
        <time>2025-11-21T12:44:46.000Z</time>
      </trkpt>
      <trkpt lat="44.48" lon="6.2049">
        <ele>1277</ele>
        <time>2025-11-21T12:44:47.000Z</time>
      </trkpt>
      <trkpt lat="44.47999" lon="6.2049">
        <ele>1277</ele>
        <time>2025-11-21T12:44:48.000Z</time>
      </trkpt>
      <trkpt lat="44.47998" lon="6.2049">
        <ele>1276</ele>
        <time>2025-11-21T12:44:49.000Z</time>
      </trkpt>
      <trkpt lat="44.47996" lon="6.2049">
        <ele>1276</ele>
        <time>2025-11-21T12:44:50.000Z</time>
      </trkpt>
      <trkpt lat="44.47995" lon="6.2049">
        <ele>1275</ele>
        <time>2025-11-21T12:44:51.000Z</time>
      </trkpt>
      <trkpt lat="44.47993" lon="6.20489">
        <ele>1275</ele>
        <time>2025-11-21T12:44:52.000Z</time>
      </trkpt>
      <trkpt lat="44.47992" lon="6.2049">
        <ele>1275</ele>
        <time>2025-11-21T12:44:53.000Z</time>
      </trkpt>
      <trkpt lat="44.47991" lon="6.20489">
        <ele>1275</ele>
        <time>2025-11-21T12:44:54.000Z</time>
      </trkpt>
      <trkpt lat="44.47989" lon="6.2049">
        <ele>1275</ele>
        <time>2025-11-21T12:44:55.000Z</time>
      </trkpt>
      <trkpt lat="44.47988" lon="6.2049">
        <ele>1275</ele>
        <time>2025-11-21T12:44:56.000Z</time>
      </trkpt>
      <trkpt lat="44.47987" lon="6.20491">
        <ele>1275</ele>
        <time>2025-11-21T12:44:57.000Z</time>
      </trkpt>
      <trkpt lat="44.47987" lon="6.20491">
        <ele>1275</ele>
        <time>2025-11-21T12:44:58.000Z</time>
      </trkpt>
      <trkpt lat="44.47986" lon="6.20491">
        <ele>1275</ele>
        <time>2025-11-21T12:44:59.000Z</time>
      </trkpt>
      <trkpt lat="44.47984" lon="6.20491">
        <ele>1275</ele>
        <time>2025-11-21T12:45:00.000Z</time>
      </trkpt>
      <trkpt lat="44.47983" lon="6.20491">
        <ele>1275</ele>
        <time>2025-11-21T12:45:01.000Z</time>
      </trkpt>
      <trkpt lat="44.47982" lon="6.20491">
        <ele>1275</ele>
        <time>2025-11-21T12:45:02.000Z</time>
      </trkpt>
      <trkpt lat="44.4798" lon="6.2049">
        <ele>1275</ele>
        <time>2025-11-21T12:45:03.000Z</time>
      </trkpt>
      <trkpt lat="44.47979" lon="6.20489">
        <ele>1274</ele>
        <time>2025-11-21T12:45:04.000Z</time>
      </trkpt>
      <trkpt lat="44.47978" lon="6.20489">
        <ele>1274</ele>
        <time>2025-11-21T12:45:05.000Z</time>
      </trkpt>
      <trkpt lat="44.47977" lon="6.20488">
        <ele>1274</ele>
        <time>2025-11-21T12:45:06.000Z</time>
      </trkpt>
      <trkpt lat="44.47976" lon="6.20489">
        <ele>1274</ele>
        <time>2025-11-21T12:45:07.000Z</time>
      </trkpt>
      <trkpt lat="44.47974" lon="6.20489">
        <ele>1274</ele>
        <time>2025-11-21T12:45:08.000Z</time>
      </trkpt>
      <trkpt lat="44.47973" lon="6.20488">
        <ele>1274</ele>
        <time>2025-11-21T12:45:09.000Z</time>
      </trkpt>
      <trkpt lat="44.47971" lon="6.20488">
        <ele>1274</ele>
        <time>2025-11-21T12:45:10.000Z</time>
      </trkpt>
      <trkpt lat="44.4797" lon="6.20489">
        <ele>1274</ele>
        <time>2025-11-21T12:45:11.000Z</time>
      </trkpt>
      <trkpt lat="44.47969" lon="6.20489">
        <ele>1274</ele>
        <time>2025-11-21T12:45:12.000Z</time>
      </trkpt>
      <trkpt lat="44.47968" lon="6.2049">
        <ele>1273</ele>
        <time>2025-11-21T12:45:13.000Z</time>
      </trkpt>
      <trkpt lat="44.47967" lon="6.20489">
        <ele>1273</ele>
        <time>2025-11-21T12:45:14.000Z</time>
      </trkpt>
      <trkpt lat="44.47966" lon="6.2049">
        <ele>1273</ele>
        <time>2025-11-21T12:45:15.000Z</time>
      </trkpt>
      <trkpt lat="44.47964" lon="6.2049">
        <ele>1273</ele>
        <time>2025-11-21T12:45:16.000Z</time>
      </trkpt>
      <trkpt lat="44.47963" lon="6.2049">
        <ele>1273</ele>
        <time>2025-11-21T12:45:17.000Z</time>
      </trkpt>
      <trkpt lat="44.47962" lon="6.2049">
        <ele>1273</ele>
        <time>2025-11-21T12:45:18.000Z</time>
      </trkpt>
      <trkpt lat="44.4796" lon="6.2049">
        <ele>1274</ele>
        <time>2025-11-21T12:45:19.000Z</time>
      </trkpt>
      <trkpt lat="44.47959" lon="6.2049">
        <ele>1274</ele>
        <time>2025-11-21T12:45:20.000Z</time>
      </trkpt>
      <trkpt lat="44.47958" lon="6.2049">
        <ele>1274</ele>
        <time>2025-11-21T12:45:21.000Z</time>
      </trkpt>
      <trkpt lat="44.47956" lon="6.2049">
        <ele>1274</ele>
        <time>2025-11-21T12:45:22.000Z</time>
      </trkpt>
      <trkpt lat="44.47955" lon="6.2049">
        <ele>1274</ele>
        <time>2025-11-21T12:45:23.000Z</time>
      </trkpt>
      <trkpt lat="44.47953" lon="6.20491">
        <ele>1275</ele>
        <time>2025-11-21T12:45:24.000Z</time>
      </trkpt>
      <trkpt lat="44.47952" lon="6.2049">
        <ele>1275</ele>
        <time>2025-11-21T12:45:25.000Z</time>
      </trkpt>
      <trkpt lat="44.47951" lon="6.2049">
        <ele>1276</ele>
        <time>2025-11-21T12:45:26.000Z</time>
      </trkpt>
      <trkpt lat="44.4795" lon="6.20489">
        <ele>1276</ele>
        <time>2025-11-21T12:45:27.000Z</time>
      </trkpt>
      <trkpt lat="44.47948" lon="6.20489">
        <ele>1276</ele>
        <time>2025-11-21T12:45:28.000Z</time>
      </trkpt>
      <trkpt lat="44.47947" lon="6.2049">
        <ele>1275</ele>
        <time>2025-11-21T12:45:29.000Z</time>
      </trkpt>
      <trkpt lat="44.47945" lon="6.20489">
        <ele>1275</ele>
        <time>2025-11-21T12:45:30.000Z</time>
      </trkpt>
      <trkpt lat="44.47944" lon="6.2049">
        <ele>1274</ele>
        <time>2025-11-21T12:45:31.000Z</time>
      </trkpt>
      <trkpt lat="44.47943" lon="6.2049">
        <ele>1273</ele>
        <time>2025-11-21T12:45:32.000Z</time>
      </trkpt>
      <trkpt lat="44.47942" lon="6.20491">
        <ele>1274</ele>
        <time>2025-11-21T12:45:33.000Z</time>
      </trkpt>
      <trkpt lat="44.47941" lon="6.20491">
        <ele>1274</ele>
        <time>2025-11-21T12:45:34.000Z</time>
      </trkpt>
      <trkpt lat="44.4794" lon="6.20492">
        <ele>1274</ele>
        <time>2025-11-21T12:45:35.000Z</time>
      </trkpt>
      <trkpt lat="44.47938" lon="6.20491">
        <ele>1274</ele>
        <time>2025-11-21T12:45:36.000Z</time>
      </trkpt>
      <trkpt lat="44.47937" lon="6.20491">
        <ele>1275</ele>
        <time>2025-11-21T12:45:37.000Z</time>
      </trkpt>
      <trkpt lat="44.47935" lon="6.20491">
        <ele>1275</ele>
        <time>2025-11-21T12:45:38.000Z</time>
      </trkpt>
      <trkpt lat="44.47934" lon="6.2049">
        <ele>1274</ele>
        <time>2025-11-21T12:45:39.000Z</time>
      </trkpt>
      <trkpt lat="44.47933" lon="6.2049">
        <ele>1274</ele>
        <time>2025-11-21T12:45:40.000Z</time>
      </trkpt>
      <trkpt lat="44.47931" lon="6.2049">
        <ele>1274</ele>
        <time>2025-11-21T12:45:41.000Z</time>
      </trkpt>
      <trkpt lat="44.47929" lon="6.20489">
        <ele>1273</ele>
        <time>2025-11-21T12:45:42.000Z</time>
      </trkpt>
      <trkpt lat="44.47928" lon="6.20489">
        <ele>1273</ele>
        <time>2025-11-21T12:45:43.000Z</time>
      </trkpt>
      <trkpt lat="44.47927" lon="6.20489">
        <ele>1273</ele>
        <time>2025-11-21T12:45:44.000Z</time>
      </trkpt>
      <trkpt lat="44.47926" lon="6.20489">
        <ele>1273</ele>
        <time>2025-11-21T12:45:45.000Z</time>
      </trkpt>
      <trkpt lat="44.47924" lon="6.20488">
        <ele>1273</ele>
        <time>2025-11-21T12:45:46.000Z</time>
      </trkpt>
      <trkpt lat="44.47923" lon="6.20487">
        <ele>1272</ele>
        <time>2025-11-21T12:45:47.000Z</time>
      </trkpt>
      <trkpt lat="44.47922" lon="6.20486">
        <ele>1272</ele>
        <time>2025-11-21T12:45:48.000Z</time>
      </trkpt>
      <trkpt lat="44.4792" lon="6.20486">
        <ele>1272</ele>
        <time>2025-11-21T12:45:49.000Z</time>
      </trkpt>
      <trkpt lat="44.47919" lon="6.20485">
        <ele>1273</ele>
        <time>2025-11-21T12:45:50.000Z</time>
      </trkpt>
      <trkpt lat="44.47918" lon="6.20486">
        <ele>1272</ele>
        <time>2025-11-21T12:45:51.000Z</time>
      </trkpt>
      <trkpt lat="44.47917" lon="6.20486">
        <ele>1272</ele>
        <time>2025-11-21T12:45:52.000Z</time>
      </trkpt>
      <trkpt lat="44.47916" lon="6.20486">
        <ele>1272</ele>
        <time>2025-11-21T12:45:53.000Z</time>
      </trkpt>
      <trkpt lat="44.47915" lon="6.20485">
        <ele>1272</ele>
        <time>2025-11-21T12:45:54.000Z</time>
      </trkpt>
      <trkpt lat="44.47913" lon="6.20485">
        <ele>1272</ele>
        <time>2025-11-21T12:45:55.000Z</time>
      </trkpt>
      <trkpt lat="44.47912" lon="6.20485">
        <ele>1272</ele>
        <time>2025-11-21T12:45:56.000Z</time>
      </trkpt>
      <trkpt lat="44.4791" lon="6.20485">
        <ele>1272</ele>
        <time>2025-11-21T12:45:57.000Z</time>
      </trkpt>
      <trkpt lat="44.47909" lon="6.20484">
        <ele>1272</ele>
        <time>2025-11-21T12:45:58.000Z</time>
      </trkpt>
      <trkpt lat="44.47907" lon="6.20483">
        <ele>1272</ele>
        <time>2025-11-21T12:45:59.000Z</time>
      </trkpt>
      <trkpt lat="44.47906" lon="6.20483">
        <ele>1272</ele>
        <time>2025-11-21T12:46:00.000Z</time>
      </trkpt>
      <trkpt lat="44.47904" lon="6.20483">
        <ele>1272</ele>
        <time>2025-11-21T12:46:01.000Z</time>
      </trkpt>
      <trkpt lat="44.47903" lon="6.20483">
        <ele>1272</ele>
        <time>2025-11-21T12:46:02.000Z</time>
      </trkpt>
      <trkpt lat="44.47902" lon="6.20483">
        <ele>1271</ele>
        <time>2025-11-21T12:46:03.000Z</time>
      </trkpt>
      <trkpt lat="44.479" lon="6.20483">
        <ele>1271</ele>
        <time>2025-11-21T12:46:04.000Z</time>
      </trkpt>
      <trkpt lat="44.47899" lon="6.20482">
        <ele>1272</ele>
        <time>2025-11-21T12:46:05.000Z</time>
      </trkpt>
      <trkpt lat="44.47897" lon="6.20481">
        <ele>1272</ele>
        <time>2025-11-21T12:46:06.000Z</time>
      </trkpt>
      <trkpt lat="44.47896" lon="6.20481">
        <ele>1272</ele>
        <time>2025-11-21T12:46:07.000Z</time>
      </trkpt>
      <trkpt lat="44.47894" lon="6.20481">
        <ele>1272</ele>
        <time>2025-11-21T12:46:08.000Z</time>
      </trkpt>
      <trkpt lat="44.47893" lon="6.2048">
        <ele>1272</ele>
        <time>2025-11-21T12:46:09.000Z</time>
      </trkpt>
      <trkpt lat="44.47891" lon="6.2048">
        <ele>1272</ele>
        <time>2025-11-21T12:46:10.000Z</time>
      </trkpt>
      <trkpt lat="44.4789" lon="6.2048">
        <ele>1273</ele>
        <time>2025-11-21T12:46:11.000Z</time>
      </trkpt>
      <trkpt lat="44.47889" lon="6.2048">
        <ele>1272</ele>
        <time>2025-11-21T12:46:12.000Z</time>
      </trkpt>
      <trkpt lat="44.47887" lon="6.2048">
        <ele>1272</ele>
        <time>2025-11-21T12:46:13.000Z</time>
      </trkpt>
      <trkpt lat="44.47886" lon="6.20479">
        <ele>1271</ele>
        <time>2025-11-21T12:46:14.000Z</time>
      </trkpt>
      <trkpt lat="44.47885" lon="6.20479">
        <ele>1271</ele>
        <time>2025-11-21T12:46:15.000Z</time>
      </trkpt>
      <trkpt lat="44.47883" lon="6.20478">
        <ele>1272</ele>
        <time>2025-11-21T12:46:16.000Z</time>
      </trkpt>
      <trkpt lat="44.47882" lon="6.20479">
        <ele>1272</ele>
        <time>2025-11-21T12:46:17.000Z</time>
      </trkpt>
      <trkpt lat="44.47881" lon="6.20479">
        <ele>1271</ele>
        <time>2025-11-21T12:46:18.000Z</time>
      </trkpt>
      <trkpt lat="44.4788" lon="6.20479">
        <ele>1271</ele>
        <time>2025-11-21T12:46:19.000Z</time>
      </trkpt>
      <trkpt lat="44.47879" lon="6.20479">
        <ele>1271</ele>
        <time>2025-11-21T12:46:20.000Z</time>
      </trkpt>
      <trkpt lat="44.47878" lon="6.20479">
        <ele>1271</ele>
        <time>2025-11-21T12:46:21.000Z</time>
      </trkpt>
      <trkpt lat="44.47877" lon="6.20478">
        <ele>1272</ele>
        <time>2025-11-21T12:46:22.000Z</time>
      </trkpt>
      <trkpt lat="44.47876" lon="6.20478">
        <ele>1271</ele>
        <time>2025-11-21T12:46:23.000Z</time>
      </trkpt>
      <trkpt lat="44.47874" lon="6.20477">
        <ele>1270</ele>
        <time>2025-11-21T12:46:24.000Z</time>
      </trkpt>
      <trkpt lat="44.47873" lon="6.20476">
        <ele>1271</ele>
        <time>2025-11-21T12:46:25.000Z</time>
      </trkpt>
      <trkpt lat="44.47872" lon="6.20476">
        <ele>1270</ele>
        <time>2025-11-21T12:46:26.000Z</time>
      </trkpt>
      <trkpt lat="44.47871" lon="6.20476">
        <ele>1270</ele>
        <time>2025-11-21T12:46:27.000Z</time>
      </trkpt>
      <trkpt lat="44.4787" lon="6.20475">
        <ele>1270</ele>
        <time>2025-11-21T12:46:28.000Z</time>
      </trkpt>
      <trkpt lat="44.47869" lon="6.20475">
        <ele>1270</ele>
        <time>2025-11-21T12:46:29.000Z</time>
      </trkpt>
      <trkpt lat="44.47867" lon="6.20475">
        <ele>1270</ele>
        <time>2025-11-21T12:46:30.000Z</time>
      </trkpt>
      <trkpt lat="44.47867" lon="6.20474">
        <ele>1270</ele>
        <time>2025-11-21T12:46:31.000Z</time>
      </trkpt>
      <trkpt lat="44.47865" lon="6.20473">
        <ele>1270</ele>
        <time>2025-11-21T12:46:32.000Z</time>
      </trkpt>
      <trkpt lat="44.47863" lon="6.20473">
        <ele>1270</ele>
        <time>2025-11-21T12:46:33.000Z</time>
      </trkpt>
      <trkpt lat="44.47862" lon="6.20472">
        <ele>1270</ele>
        <time>2025-11-21T12:46:34.000Z</time>
      </trkpt>
      <trkpt lat="44.4786" lon="6.20472">
        <ele>1271</ele>
        <time>2025-11-21T12:46:35.000Z</time>
      </trkpt>
      <trkpt lat="44.47858" lon="6.20471">
        <ele>1271</ele>
        <time>2025-11-21T12:46:36.000Z</time>
      </trkpt>
      <trkpt lat="44.47857" lon="6.20469">
        <ele>1271</ele>
        <time>2025-11-21T12:46:37.000Z</time>
      </trkpt>
      <trkpt lat="44.47856" lon="6.20469">
        <ele>1271</ele>
        <time>2025-11-21T12:46:38.000Z</time>
      </trkpt>
      <trkpt lat="44.47854" lon="6.20469">
        <ele>1270</ele>
        <time>2025-11-21T12:46:39.000Z</time>
      </trkpt>
      <trkpt lat="44.47853" lon="6.20469">
        <ele>1270</ele>
        <time>2025-11-21T12:46:40.000Z</time>
      </trkpt>
      <trkpt lat="44.47852" lon="6.20468">
        <ele>1270</ele>
        <time>2025-11-21T12:46:41.000Z</time>
      </trkpt>
      <trkpt lat="44.47851" lon="6.20468">
        <ele>1270</ele>
        <time>2025-11-21T12:46:42.000Z</time>
      </trkpt>
      <trkpt lat="44.4785" lon="6.20467">
        <ele>1270</ele>
        <time>2025-11-21T12:46:43.000Z</time>
      </trkpt>
      <trkpt lat="44.47849" lon="6.20467">
        <ele>1270</ele>
        <time>2025-11-21T12:46:44.000Z</time>
      </trkpt>
      <trkpt lat="44.47847" lon="6.20467">
        <ele>1271</ele>
        <time>2025-11-21T12:46:45.000Z</time>
      </trkpt>
      <trkpt lat="44.47846" lon="6.20467">
        <ele>1270</ele>
        <time>2025-11-21T12:46:46.000Z</time>
      </trkpt>
      <trkpt lat="44.47845" lon="6.20467">
        <ele>1270</ele>
        <time>2025-11-21T12:46:47.000Z</time>
      </trkpt>
      <trkpt lat="44.47843" lon="6.20467">
        <ele>1269</ele>
        <time>2025-11-21T12:46:48.000Z</time>
      </trkpt>
      <trkpt lat="44.47843" lon="6.20466">
        <ele>1269</ele>
        <time>2025-11-21T12:46:49.000Z</time>
      </trkpt>
      <trkpt lat="44.47842" lon="6.20466">
        <ele>1269</ele>
        <time>2025-11-21T12:46:50.000Z</time>
      </trkpt>
      <trkpt lat="44.47841" lon="6.20465">
        <ele>1268</ele>
        <time>2025-11-21T12:46:51.000Z</time>
      </trkpt>
      <trkpt lat="44.4784" lon="6.20465">
        <ele>1268</ele>
        <time>2025-11-21T12:46:52.000Z</time>
      </trkpt>
      <trkpt lat="44.47839" lon="6.20465">
        <ele>1268</ele>
        <time>2025-11-21T12:46:53.000Z</time>
      </trkpt>
      <trkpt lat="44.47838" lon="6.20464">
        <ele>1268</ele>
        <time>2025-11-21T12:46:54.000Z</time>
      </trkpt>
      <trkpt lat="44.47837" lon="6.20463">
        <ele>1268</ele>
        <time>2025-11-21T12:46:55.000Z</time>
      </trkpt>
      <trkpt lat="44.47836" lon="6.20464">
        <ele>1267</ele>
        <time>2025-11-21T12:46:56.000Z</time>
      </trkpt>
      <trkpt lat="44.47836" lon="6.20463">
        <ele>1267</ele>
        <time>2025-11-21T12:46:57.000Z</time>
      </trkpt>
      <trkpt lat="44.47835" lon="6.20464">
        <ele>1267</ele>
        <time>2025-11-21T12:46:58.000Z</time>
      </trkpt>
      <trkpt lat="44.47834" lon="6.20464">
        <ele>1267</ele>
        <time>2025-11-21T12:46:59.000Z</time>
      </trkpt>
      <trkpt lat="44.47834" lon="6.20463">
        <ele>1267</ele>
        <time>2025-11-21T12:47:00.000Z</time>
      </trkpt>
      <trkpt lat="44.47834" lon="6.20463">
        <ele>1267</ele>
        <time>2025-11-21T12:47:01.000Z</time>
      </trkpt>
      <trkpt lat="44.47832" lon="6.20462">
        <ele>1267</ele>
        <time>2025-11-21T12:47:02.000Z</time>
      </trkpt>
      <trkpt lat="44.4783" lon="6.20462">
        <ele>1266</ele>
        <time>2025-11-21T12:47:03.000Z</time>
      </trkpt>
      <trkpt lat="44.47829" lon="6.20462">
        <ele>1266</ele>
        <time>2025-11-21T12:47:04.000Z</time>
      </trkpt>
      <trkpt lat="44.47828" lon="6.20462">
        <ele>1266</ele>
        <time>2025-11-21T12:47:05.000Z</time>
      </trkpt>
      <trkpt lat="44.47827" lon="6.20461">
        <ele>1265</ele>
        <time>2025-11-21T12:47:06.000Z</time>
      </trkpt>
      <trkpt lat="44.47826" lon="6.2046">
        <ele>1265</ele>
        <time>2025-11-21T12:47:07.000Z</time>
      </trkpt>
      <trkpt lat="44.47825" lon="6.2046">
        <ele>1264</ele>
        <time>2025-11-21T12:47:08.000Z</time>
      </trkpt>
      <trkpt lat="44.47824" lon="6.2046">
        <ele>1264</ele>
        <time>2025-11-21T12:47:09.000Z</time>
      </trkpt>
      <trkpt lat="44.47824" lon="6.2046">
        <ele>1264</ele>
        <time>2025-11-21T12:47:10.000Z</time>
      </trkpt>
      <trkpt lat="44.47824" lon="6.2046">
        <ele>1264</ele>
        <time>2025-11-21T12:47:11.000Z</time>
      </trkpt>
      <trkpt lat="44.47822" lon="6.20458">
        <ele>1263</ele>
        <time>2025-11-21T12:47:12.000Z</time>
      </trkpt>
      <trkpt lat="44.47821" lon="6.20457">
        <ele>1263</ele>
        <time>2025-11-21T12:47:13.000Z</time>
      </trkpt>
      <trkpt lat="44.4782" lon="6.20457">
        <ele>1263</ele>
        <time>2025-11-21T12:47:14.000Z</time>
      </trkpt>
      <trkpt lat="44.47819" lon="6.20457">
        <ele>1262</ele>
        <time>2025-11-21T12:47:15.000Z</time>
      </trkpt>
      <trkpt lat="44.47817" lon="6.20456">
        <ele>1261</ele>
        <time>2025-11-21T12:47:16.000Z</time>
      </trkpt>
      <trkpt lat="44.47816" lon="6.20456">
        <ele>1261</ele>
        <time>2025-11-21T12:47:17.000Z</time>
      </trkpt>
      <trkpt lat="44.47815" lon="6.20455">
        <ele>1261</ele>
        <time>2025-11-21T12:47:18.000Z</time>
      </trkpt>
      <trkpt lat="44.47815" lon="6.20455">
        <ele>1261</ele>
        <time>2025-11-21T12:47:19.000Z</time>
      </trkpt>
      <trkpt lat="44.47814" lon="6.20454">
        <ele>1260</ele>
        <time>2025-11-21T12:47:20.000Z</time>
      </trkpt>
      <trkpt lat="44.47813" lon="6.20454">
        <ele>1259</ele>
        <time>2025-11-21T12:47:21.000Z</time>
      </trkpt>
      <trkpt lat="44.47812" lon="6.20453">
        <ele>1259</ele>
        <time>2025-11-21T12:47:22.000Z</time>
      </trkpt>
      <trkpt lat="44.47811" lon="6.20452">
        <ele>1259</ele>
        <time>2025-11-21T12:47:23.000Z</time>
      </trkpt>
      <trkpt lat="44.47811" lon="6.20451">
        <ele>1259</ele>
        <time>2025-11-21T12:47:24.000Z</time>
      </trkpt>
      <trkpt lat="44.4781" lon="6.2045">
        <ele>1259</ele>
        <time>2025-11-21T12:47:25.000Z</time>
      </trkpt>
      <trkpt lat="44.47808" lon="6.20448">
        <ele>1258</ele>
        <time>2025-11-21T12:47:26.000Z</time>
      </trkpt>
      <trkpt lat="44.47807" lon="6.20447">
        <ele>1258</ele>
        <time>2025-11-21T12:47:27.000Z</time>
      </trkpt>
      <trkpt lat="44.47806" lon="6.20447">
        <ele>1258</ele>
        <time>2025-11-21T12:47:28.000Z</time>
      </trkpt>
      <trkpt lat="44.47804" lon="6.20446">
        <ele>1258</ele>
        <time>2025-11-21T12:47:29.000Z</time>
      </trkpt>
      <trkpt lat="44.47804" lon="6.20446">
        <ele>1257</ele>
        <time>2025-11-21T12:47:30.000Z</time>
      </trkpt>
      <trkpt lat="44.47803" lon="6.20445">
        <ele>1258</ele>
        <time>2025-11-21T12:47:31.000Z</time>
      </trkpt>
      <trkpt lat="44.47801" lon="6.20444">
        <ele>1257</ele>
        <time>2025-11-21T12:47:32.000Z</time>
      </trkpt>
      <trkpt lat="44.478" lon="6.20444">
        <ele>1257</ele>
        <time>2025-11-21T12:47:33.000Z</time>
      </trkpt>
      <trkpt lat="44.478" lon="6.20443">
        <ele>1257</ele>
        <time>2025-11-21T12:47:34.000Z</time>
      </trkpt>
      <trkpt lat="44.47798" lon="6.20443">
        <ele>1257</ele>
        <time>2025-11-21T12:47:35.000Z</time>
      </trkpt>
      <trkpt lat="44.47797" lon="6.20441">
        <ele>1256</ele>
        <time>2025-11-21T12:47:36.000Z</time>
      </trkpt>
      <trkpt lat="44.47796" lon="6.2044">
        <ele>1256</ele>
        <time>2025-11-21T12:47:37.000Z</time>
      </trkpt>
      <trkpt lat="44.47794" lon="6.2044">
        <ele>1256</ele>
        <time>2025-11-21T12:47:38.000Z</time>
      </trkpt>
      <trkpt lat="44.47793" lon="6.20441">
        <ele>1256</ele>
        <time>2025-11-21T12:47:39.000Z</time>
      </trkpt>
      <trkpt lat="44.47792" lon="6.20441">
        <ele>1255</ele>
        <time>2025-11-21T12:47:40.000Z</time>
      </trkpt>
      <trkpt lat="44.47791" lon="6.20441">
        <ele>1255</ele>
        <time>2025-11-21T12:47:41.000Z</time>
      </trkpt>
      <trkpt lat="44.4779" lon="6.2044">
        <ele>1255</ele>
        <time>2025-11-21T12:47:42.000Z</time>
      </trkpt>
      <trkpt lat="44.47788" lon="6.20439">
        <ele>1254</ele>
        <time>2025-11-21T12:47:43.000Z</time>
      </trkpt>
      <trkpt lat="44.47786" lon="6.20438">
        <ele>1254</ele>
        <time>2025-11-21T12:47:44.000Z</time>
      </trkpt>
      <trkpt lat="44.47785" lon="6.20437">
        <ele>1254</ele>
        <time>2025-11-21T12:47:45.000Z</time>
      </trkpt>
      <trkpt lat="44.47783" lon="6.20438">
        <ele>1254</ele>
        <time>2025-11-21T12:47:46.000Z</time>
      </trkpt>
      <trkpt lat="44.47782" lon="6.20437">
        <ele>1253</ele>
        <time>2025-11-21T12:47:47.000Z</time>
      </trkpt>
      <trkpt lat="44.47781" lon="6.20437">
        <ele>1254</ele>
        <time>2025-11-21T12:47:48.000Z</time>
      </trkpt>
      <trkpt lat="44.4778" lon="6.20437">
        <ele>1254</ele>
        <time>2025-11-21T12:47:49.000Z</time>
      </trkpt>
      <trkpt lat="44.47778" lon="6.20437">
        <ele>1254</ele>
        <time>2025-11-21T12:47:50.000Z</time>
      </trkpt>
      <trkpt lat="44.47777" lon="6.20436">
        <ele>1255</ele>
        <time>2025-11-21T12:47:51.000Z</time>
      </trkpt>
      <trkpt lat="44.47775" lon="6.20436">
        <ele>1255</ele>
        <time>2025-11-21T12:47:52.000Z</time>
      </trkpt>
      <trkpt lat="44.47773" lon="6.20436">
        <ele>1256</ele>
        <time>2025-11-21T12:47:53.000Z</time>
      </trkpt>
      <trkpt lat="44.47772" lon="6.20436">
        <ele>1256</ele>
        <time>2025-11-21T12:47:54.000Z</time>
      </trkpt>
      <trkpt lat="44.4777" lon="6.20438">
        <ele>1256</ele>
        <time>2025-11-21T12:47:55.000Z</time>
      </trkpt>
      <trkpt lat="44.47768" lon="6.20439">
        <ele>1257</ele>
        <time>2025-11-21T12:47:56.000Z</time>
      </trkpt>
      <trkpt lat="44.47766" lon="6.2044">
        <ele>1257</ele>
        <time>2025-11-21T12:47:57.000Z</time>
      </trkpt>
      <trkpt lat="44.47764" lon="6.2044">
        <ele>1257</ele>
        <time>2025-11-21T12:47:58.000Z</time>
      </trkpt>
      <trkpt lat="44.47763" lon="6.20441">
        <ele>1257</ele>
        <time>2025-11-21T12:47:59.000Z</time>
      </trkpt>
      <trkpt lat="44.47762" lon="6.20442">
        <ele>1258</ele>
        <time>2025-11-21T12:48:00.000Z</time>
      </trkpt>
      <trkpt lat="44.47761" lon="6.20443">
        <ele>1257</ele>
        <time>2025-11-21T12:48:01.000Z</time>
      </trkpt>
      <trkpt lat="44.47759" lon="6.20443">
        <ele>1257</ele>
        <time>2025-11-21T12:48:02.000Z</time>
      </trkpt>
      <trkpt lat="44.47757" lon="6.20444">
        <ele>1257</ele>
        <time>2025-11-21T12:48:03.000Z</time>
      </trkpt>
      <trkpt lat="44.47756" lon="6.20444">
        <ele>1258</ele>
        <time>2025-11-21T12:48:04.000Z</time>
      </trkpt>
      <trkpt lat="44.47754" lon="6.20445">
        <ele>1258</ele>
        <time>2025-11-21T12:48:05.000Z</time>
      </trkpt>
      <trkpt lat="44.47753" lon="6.20445">
        <ele>1258</ele>
        <time>2025-11-21T12:48:06.000Z</time>
      </trkpt>
      <trkpt lat="44.47752" lon="6.20446">
        <ele>1258</ele>
        <time>2025-11-21T12:48:07.000Z</time>
      </trkpt>
      <trkpt lat="44.47752" lon="6.20446">
        <ele>1258</ele>
        <time>2025-11-21T12:48:08.000Z</time>
      </trkpt>
      <trkpt lat="44.4775" lon="6.20447">
        <ele>1258</ele>
        <time>2025-11-21T12:48:09.000Z</time>
      </trkpt>
      <trkpt lat="44.47749" lon="6.20447">
        <ele>1258</ele>
        <time>2025-11-21T12:48:10.000Z</time>
      </trkpt>
      <trkpt lat="44.47747" lon="6.20448">
        <ele>1257</ele>
        <time>2025-11-21T12:48:11.000Z</time>
      </trkpt>
      <trkpt lat="44.47746" lon="6.20449">
        <ele>1257</ele>
        <time>2025-11-21T12:48:12.000Z</time>
      </trkpt>
      <trkpt lat="44.47745" lon="6.20449">
        <ele>1256</ele>
        <time>2025-11-21T12:48:13.000Z</time>
      </trkpt>
      <trkpt lat="44.47744" lon="6.20449">
        <ele>1256</ele>
        <time>2025-11-21T12:48:14.000Z</time>
      </trkpt>
      <trkpt lat="44.47743" lon="6.20449">
        <ele>1256</ele>
        <time>2025-11-21T12:48:15.000Z</time>
      </trkpt>
      <trkpt lat="44.47742" lon="6.20449">
        <ele>1256</ele>
        <time>2025-11-21T12:48:16.000Z</time>
      </trkpt>
      <trkpt lat="44.47741" lon="6.2045">
        <ele>1256</ele>
        <time>2025-11-21T12:48:17.000Z</time>
      </trkpt>
      <trkpt lat="44.4774" lon="6.2045">
        <ele>1256</ele>
        <time>2025-11-21T12:48:18.000Z</time>
      </trkpt>
      <trkpt lat="44.47738" lon="6.2045">
        <ele>1256</ele>
        <time>2025-11-21T12:48:19.000Z</time>
      </trkpt>
      <trkpt lat="44.47737" lon="6.20449">
        <ele>1256</ele>
        <time>2025-11-21T12:48:20.000Z</time>
      </trkpt>
      <trkpt lat="44.47735" lon="6.20449">
        <ele>1256</ele>
        <time>2025-11-21T12:48:21.000Z</time>
      </trkpt>
      <trkpt lat="44.47734" lon="6.20449">
        <ele>1257</ele>
        <time>2025-11-21T12:48:22.000Z</time>
      </trkpt>
      <trkpt lat="44.47733" lon="6.20449">
        <ele>1256</ele>
        <time>2025-11-21T12:48:23.000Z</time>
      </trkpt>
      <trkpt lat="44.47732" lon="6.20449">
        <ele>1257</ele>
        <time>2025-11-21T12:48:24.000Z</time>
      </trkpt>
      <trkpt lat="44.47731" lon="6.2045">
        <ele>1257</ele>
        <time>2025-11-21T12:48:25.000Z</time>
      </trkpt>
      <trkpt lat="44.4773" lon="6.20449">
        <ele>1257</ele>
        <time>2025-11-21T12:48:26.000Z</time>
      </trkpt>
      <trkpt lat="44.47728" lon="6.20448">
        <ele>1257</ele>
        <time>2025-11-21T12:48:27.000Z</time>
      </trkpt>
      <trkpt lat="44.47727" lon="6.20448">
        <ele>1257</ele>
        <time>2025-11-21T12:48:28.000Z</time>
      </trkpt>
      <trkpt lat="44.47725" lon="6.20448">
        <ele>1257</ele>
        <time>2025-11-21T12:48:29.000Z</time>
      </trkpt>
      <trkpt lat="44.47724" lon="6.20448">
        <ele>1256</ele>
        <time>2025-11-21T12:48:30.000Z</time>
      </trkpt>
      <trkpt lat="44.47723" lon="6.20448">
        <ele>1255</ele>
        <time>2025-11-21T12:48:31.000Z</time>
      </trkpt>
      <trkpt lat="44.47721" lon="6.20448">
        <ele>1255</ele>
        <time>2025-11-21T12:48:32.000Z</time>
      </trkpt>
      <trkpt lat="44.4772" lon="6.20448">
        <ele>1255</ele>
        <time>2025-11-21T12:48:33.000Z</time>
      </trkpt>
      <trkpt lat="44.47718" lon="6.20447">
        <ele>1255</ele>
        <time>2025-11-21T12:48:34.000Z</time>
      </trkpt>
      <trkpt lat="44.47717" lon="6.20445">
        <ele>1255</ele>
        <time>2025-11-21T12:48:35.000Z</time>
      </trkpt>
      <trkpt lat="44.47717" lon="6.20444">
        <ele>1255</ele>
        <time>2025-11-21T12:48:36.000Z</time>
      </trkpt>
      <trkpt lat="44.47716" lon="6.20443">
        <ele>1255</ele>
        <time>2025-11-21T12:48:37.000Z</time>
      </trkpt>
      <trkpt lat="44.47715" lon="6.20443">
        <ele>1255</ele>
        <time>2025-11-21T12:48:38.000Z</time>
      </trkpt>
      <trkpt lat="44.47713" lon="6.20442">
        <ele>1255</ele>
        <time>2025-11-21T12:48:39.000Z</time>
      </trkpt>
      <trkpt lat="44.47712" lon="6.20441">
        <ele>1255</ele>
        <time>2025-11-21T12:48:40.000Z</time>
      </trkpt>
      <trkpt lat="44.47711" lon="6.20441">
        <ele>1255</ele>
        <time>2025-11-21T12:48:41.000Z</time>
      </trkpt>
      <trkpt lat="44.47711" lon="6.20439">
        <ele>1256</ele>
        <time>2025-11-21T12:48:42.000Z</time>
      </trkpt>
      <trkpt lat="44.47709" lon="6.20438">
        <ele>1255</ele>
        <time>2025-11-21T12:48:43.000Z</time>
      </trkpt>
      <trkpt lat="44.47707" lon="6.20437">
        <ele>1255</ele>
        <time>2025-11-21T12:48:44.000Z</time>
      </trkpt>
      <trkpt lat="44.47707" lon="6.20436">
        <ele>1255</ele>
        <time>2025-11-21T12:48:45.000Z</time>
      </trkpt>
      <trkpt lat="44.47706" lon="6.20434">
        <ele>1255</ele>
        <time>2025-11-21T12:48:46.000Z</time>
      </trkpt>
      <trkpt lat="44.47705" lon="6.20433">
        <ele>1256</ele>
        <time>2025-11-21T12:48:47.000Z</time>
      </trkpt>
      <trkpt lat="44.47705" lon="6.20432">
        <ele>1256</ele>
        <time>2025-11-21T12:48:48.000Z</time>
      </trkpt>
      <trkpt lat="44.47704" lon="6.20432">
        <ele>1256</ele>
        <time>2025-11-21T12:48:49.000Z</time>
      </trkpt>
      <trkpt lat="44.47703" lon="6.20431">
        <ele>1256</ele>
        <time>2025-11-21T12:48:50.000Z</time>
      </trkpt>
      <trkpt lat="44.47702" lon="6.2043">
        <ele>1255</ele>
        <time>2025-11-21T12:48:51.000Z</time>
      </trkpt>
      <trkpt lat="44.47702" lon="6.20429">
        <ele>1256</ele>
        <time>2025-11-21T12:48:52.000Z</time>
      </trkpt>
      <trkpt lat="44.47701" lon="6.20428">
        <ele>1255</ele>
        <time>2025-11-21T12:48:53.000Z</time>
      </trkpt>
      <trkpt lat="44.477" lon="6.20427">
        <ele>1256</ele>
        <time>2025-11-21T12:48:54.000Z</time>
      </trkpt>
      <trkpt lat="44.47699" lon="6.20426">
        <ele>1256</ele>
        <time>2025-11-21T12:48:55.000Z</time>
      </trkpt>
      <trkpt lat="44.47699" lon="6.20426">
        <ele>1255</ele>
        <time>2025-11-21T12:48:56.000Z</time>
      </trkpt>
      <trkpt lat="44.47698" lon="6.20425">
        <ele>1255</ele>
        <time>2025-11-21T12:48:57.000Z</time>
      </trkpt>
      <trkpt lat="44.47697" lon="6.20424">
        <ele>1255</ele>
        <time>2025-11-21T12:48:58.000Z</time>
      </trkpt>
      <trkpt lat="44.47697" lon="6.20423">
        <ele>1255</ele>
        <time>2025-11-21T12:48:59.000Z</time>
      </trkpt>
      <trkpt lat="44.47696" lon="6.20422">
        <ele>1255</ele>
        <time>2025-11-21T12:49:00.000Z</time>
      </trkpt>
      <trkpt lat="44.47696" lon="6.20422">
        <ele>1254</ele>
        <time>2025-11-21T12:49:01.000Z</time>
      </trkpt>
      <trkpt lat="44.47695" lon="6.20422">
        <ele>1254</ele>
        <time>2025-11-21T12:49:02.000Z</time>
      </trkpt>
      <trkpt lat="44.47695" lon="6.20421">
        <ele>1254</ele>
        <time>2025-11-21T12:49:03.000Z</time>
      </trkpt>
      <trkpt lat="44.47695" lon="6.20421">
        <ele>1254</ele>
        <time>2025-11-21T12:49:04.000Z</time>
      </trkpt>
      <trkpt lat="44.47695" lon="6.20421">
        <ele>1254</ele>
        <time>2025-11-21T12:49:05.000Z</time>
      </trkpt>
      <trkpt lat="44.47694" lon="6.2042">
        <ele>1256</ele>
        <time>2025-11-21T12:49:26.000Z</time>
      </trkpt>
      <trkpt lat="44.47694" lon="6.20419">
        <ele>1255</ele>
        <time>2025-11-21T12:49:27.000Z</time>
      </trkpt>
      <trkpt lat="44.47693" lon="6.20419">
        <ele>1254</ele>
        <time>2025-11-21T12:49:28.000Z</time>
      </trkpt>
      <trkpt lat="44.47695" lon="6.2042">
        <ele>1255</ele>
        <time>2025-11-21T12:50:51.000Z</time>
      </trkpt>
      <trkpt lat="44.47695" lon="6.2042">
        <ele>1255</ele>
        <time>2025-11-21T12:50:52.000Z</time>
      </trkpt>
      <trkpt lat="44.47695" lon="6.2042">
        <ele>1255</ele>
        <time>2025-11-21T12:50:53.000Z</time>
      </trkpt>
      <trkpt lat="44.47695" lon="6.20413">
        <ele>1257</ele>
        <time>2025-11-21T12:51:39.000Z</time>
      </trkpt>
      <trkpt lat="44.47695" lon="6.20413">
        <ele>1257</ele>
        <time>2025-11-21T12:51:40.000Z</time>
      </trkpt>
      <trkpt lat="44.47695" lon="6.20412">
        <ele>1258</ele>
        <time>2025-11-21T12:51:41.000Z</time>
      </trkpt>
      <trkpt lat="44.47696" lon="6.20418">
        <ele>1256</ele>
        <time>2025-11-21T12:52:13.000Z</time>
      </trkpt>
      <trkpt lat="44.47696" lon="6.2042">
        <ele>1256</ele>
        <time>2025-11-21T12:52:14.000Z</time>
      </trkpt>
      <trkpt lat="44.47696" lon="6.2042">
        <ele>1255</ele>
        <time>2025-11-21T12:52:15.000Z</time>
      </trkpt>
      <trkpt lat="44.47695" lon="6.2042">
        <ele>1255</ele>
        <time>2025-11-21T12:52:16.000Z</time>
      </trkpt>
      <trkpt lat="44.47696" lon="6.20421">
        <ele>1255</ele>
        <time>2025-11-21T12:52:17.000Z</time>
      </trkpt>
      <trkpt lat="44.47696" lon="6.2042">
        <ele>1256</ele>
        <time>2025-11-21T12:52:18.000Z</time>
      </trkpt>
      <trkpt lat="44.47696" lon="6.2042">
        <ele>1256</ele>
        <time>2025-11-21T12:52:19.000Z</time>
      </trkpt>
      <trkpt lat="44.47696" lon="6.20419">
        <ele>1255</ele>
        <time>2025-11-21T12:52:20.000Z</time>
      </trkpt>
      <trkpt lat="44.47695" lon="6.2042">
        <ele>1256</ele>
        <time>2025-11-21T12:52:37.000Z</time>
      </trkpt>
      <trkpt lat="44.47695" lon="6.2042">
        <ele>1255</ele>
        <time>2025-11-21T12:52:38.000Z</time>
      </trkpt>
      <trkpt lat="44.47695" lon="6.2042">
        <ele>1255</ele>
        <time>2025-11-21T12:52:39.000Z</time>
      </trkpt>
      <trkpt lat="44.47695" lon="6.2042">
        <ele>1255</ele>
        <time>2025-11-21T12:52:40.000Z</time>
      </trkpt>
      <trkpt lat="44.47695" lon="6.2042">
        <ele>1256</ele>
        <time>2025-11-21T12:52:41.000Z</time>
      </trkpt>
      <trkpt lat="44.47696" lon="6.2042">
        <ele>1256</ele>
        <time>2025-11-21T12:52:42.000Z</time>
      </trkpt>
      <trkpt lat="44.47696" lon="6.2042">
        <ele>1255</ele>
        <time>2025-11-21T12:52:43.000Z</time>
      </trkpt>
      <trkpt lat="44.47697" lon="6.20421">
        <ele>1254</ele>
        <time>2025-11-21T12:52:44.000Z</time>
      </trkpt>
      <trkpt lat="44.47696" lon="6.20421">
        <ele>1254</ele>
        <time>2025-11-21T12:52:45.000Z</time>
      </trkpt>
      <trkpt lat="44.47696" lon="6.20421">
        <ele>1254</ele>
        <time>2025-11-21T12:52:46.000Z</time>
      </trkpt>
      <trkpt lat="44.47696" lon="6.20422">
        <ele>1255</ele>
        <time>2025-11-21T12:52:47.000Z</time>
      </trkpt>
      <trkpt lat="44.47695" lon="6.20423">
        <ele>1254</ele>
        <time>2025-11-21T12:52:48.000Z</time>
      </trkpt>
      <trkpt lat="44.47695" lon="6.20422">
        <ele>1254</ele>
        <time>2025-11-21T12:52:49.000Z</time>
      </trkpt>
      <trkpt lat="44.47694" lon="6.20422">
        <ele>1254</ele>
        <time>2025-11-21T12:52:50.000Z</time>
      </trkpt>
      <trkpt lat="44.47694" lon="6.20422">
        <ele>1254</ele>
        <time>2025-11-21T12:52:51.000Z</time>
      </trkpt>
      <trkpt lat="44.47693" lon="6.20422">
        <ele>1253</ele>
        <time>2025-11-21T12:52:52.000Z</time>
      </trkpt>
      <trkpt lat="44.47693" lon="6.20422">
        <ele>1252</ele>
        <time>2025-11-21T12:52:53.000Z</time>
      </trkpt>
      <trkpt lat="44.47693" lon="6.20422">
        <ele>1252</ele>
        <time>2025-11-21T12:52:54.000Z</time>
      </trkpt>
      <trkpt lat="44.47693" lon="6.20422">
        <ele>1252</ele>
        <time>2025-11-21T12:52:55.000Z</time>
      </trkpt>
      <trkpt lat="44.47693" lon="6.20422">
        <ele>1253</ele>
        <time>2025-11-21T12:52:56.000Z</time>
      </trkpt>
      <trkpt lat="44.47692" lon="6.2042">
        <ele>1253</ele>
        <time>2025-11-21T12:52:57.000Z</time>
      </trkpt>
      <trkpt lat="44.47692" lon="6.20418">
        <ele>1253</ele>
        <time>2025-11-21T12:52:58.000Z</time>
      </trkpt>
      <trkpt lat="44.47692" lon="6.20416">
        <ele>1252</ele>
        <time>2025-11-21T12:52:59.000Z</time>
      </trkpt>
      <trkpt lat="44.47692" lon="6.20415">
        <ele>1252</ele>
        <time>2025-11-21T12:53:00.000Z</time>
      </trkpt>
      <trkpt lat="44.47691" lon="6.20414">
        <ele>1252</ele>
        <time>2025-11-21T12:53:01.000Z</time>
      </trkpt>
      <trkpt lat="44.47691" lon="6.20413">
        <ele>1252</ele>
        <time>2025-11-21T12:53:02.000Z</time>
      </trkpt>
      <trkpt lat="44.47691" lon="6.20412">
        <ele>1252</ele>
        <time>2025-11-21T12:53:03.000Z</time>
      </trkpt>
      <trkpt lat="44.4769" lon="6.20411">
        <ele>1251</ele>
        <time>2025-11-21T12:53:04.000Z</time>
      </trkpt>
      <trkpt lat="44.4769" lon="6.2041">
        <ele>1251</ele>
        <time>2025-11-21T12:53:05.000Z</time>
      </trkpt>
      <trkpt lat="44.47688" lon="6.2041">
        <ele>1251</ele>
        <time>2025-11-21T12:53:06.000Z</time>
      </trkpt>
      <trkpt lat="44.47688" lon="6.20409">
        <ele>1250</ele>
        <time>2025-11-21T12:53:07.000Z</time>
      </trkpt>
      <trkpt lat="44.47687" lon="6.20407">
        <ele>1250</ele>
        <time>2025-11-21T12:53:08.000Z</time>
      </trkpt>
      <trkpt lat="44.47686" lon="6.20407">
        <ele>1249</ele>
        <time>2025-11-21T12:53:09.000Z</time>
      </trkpt>
      <trkpt lat="44.47685" lon="6.20406">
        <ele>1249</ele>
        <time>2025-11-21T12:53:10.000Z</time>
      </trkpt>
      <trkpt lat="44.47685" lon="6.20406">
        <ele>1249</ele>
        <time>2025-11-21T12:53:11.000Z</time>
      </trkpt>
      <trkpt lat="44.47684" lon="6.20405">
        <ele>1248</ele>
        <time>2025-11-21T12:53:12.000Z</time>
      </trkpt>
      <trkpt lat="44.47684" lon="6.20405">
        <ele>1248</ele>
        <time>2025-11-21T12:53:13.000Z</time>
      </trkpt>
      <trkpt lat="44.47684" lon="6.20405">
        <ele>1248</ele>
        <time>2025-11-21T12:53:14.000Z</time>
      </trkpt>
      <trkpt lat="44.47683" lon="6.20404">
        <ele>1247</ele>
        <time>2025-11-21T12:53:15.000Z</time>
      </trkpt>
      <trkpt lat="44.47682" lon="6.20404">
        <ele>1247</ele>
        <time>2025-11-21T12:53:16.000Z</time>
      </trkpt>
      <trkpt lat="44.47681" lon="6.20403">
        <ele>1247</ele>
        <time>2025-11-21T12:53:17.000Z</time>
      </trkpt>
      <trkpt lat="44.4768" lon="6.20402">
        <ele>1246</ele>
        <time>2025-11-21T12:53:18.000Z</time>
      </trkpt>
      <trkpt lat="44.47679" lon="6.20402">
        <ele>1245</ele>
        <time>2025-11-21T12:53:19.000Z</time>
      </trkpt>
      <trkpt lat="44.47678" lon="6.20402">
        <ele>1245</ele>
        <time>2025-11-21T12:53:20.000Z</time>
      </trkpt>
      <trkpt lat="44.47678" lon="6.20402">
        <ele>1245</ele>
        <time>2025-11-21T12:53:21.000Z</time>
      </trkpt>
      <trkpt lat="44.47677" lon="6.20402">
        <ele>1245</ele>
        <time>2025-11-21T12:53:22.000Z</time>
      </trkpt>
      <trkpt lat="44.47676" lon="6.20402">
        <ele>1244</ele>
        <time>2025-11-21T12:53:23.000Z</time>
      </trkpt>
      <trkpt lat="44.47676" lon="6.20402">
        <ele>1244</ele>
        <time>2025-11-21T12:53:24.000Z</time>
      </trkpt>
      <trkpt lat="44.47675" lon="6.20402">
        <ele>1244</ele>
        <time>2025-11-21T12:53:25.000Z</time>
      </trkpt>
      <trkpt lat="44.47674" lon="6.20402">
        <ele>1243</ele>
        <time>2025-11-21T12:53:26.000Z</time>
      </trkpt>
      <trkpt lat="44.47673" lon="6.20401">
        <ele>1243</ele>
        <time>2025-11-21T12:53:27.000Z</time>
      </trkpt>
      <trkpt lat="44.47671" lon="6.20401">
        <ele>1243</ele>
        <time>2025-11-21T12:53:28.000Z</time>
      </trkpt>
      <trkpt lat="44.47671" lon="6.20401">
        <ele>1243</ele>
        <time>2025-11-21T12:53:29.000Z</time>
      </trkpt>
      <trkpt lat="44.4767" lon="6.20401">
        <ele>1242</ele>
        <time>2025-11-21T12:53:30.000Z</time>
      </trkpt>
      <trkpt lat="44.47669" lon="6.20401">
        <ele>1242</ele>
        <time>2025-11-21T12:53:31.000Z</time>
      </trkpt>
      <trkpt lat="44.47668" lon="6.20402">
        <ele>1242</ele>
        <time>2025-11-21T12:53:32.000Z</time>
      </trkpt>
      <trkpt lat="44.47666" lon="6.20402">
        <ele>1241</ele>
        <time>2025-11-21T12:53:33.000Z</time>
      </trkpt>
      <trkpt lat="44.47665" lon="6.20402">
        <ele>1241</ele>
        <time>2025-11-21T12:53:34.000Z</time>
      </trkpt>
      <trkpt lat="44.47664" lon="6.20401">
        <ele>1241</ele>
        <time>2025-11-21T12:53:35.000Z</time>
      </trkpt>
      <trkpt lat="44.47663" lon="6.20402">
        <ele>1240</ele>
        <time>2025-11-21T12:53:36.000Z</time>
      </trkpt>
      <trkpt lat="44.47662" lon="6.20403">
        <ele>1240</ele>
        <time>2025-11-21T12:53:37.000Z</time>
      </trkpt>
      <trkpt lat="44.47662" lon="6.20403">
        <ele>1240</ele>
        <time>2025-11-21T12:53:38.000Z</time>
      </trkpt>
      <trkpt lat="44.47661" lon="6.20403">
        <ele>1240</ele>
        <time>2025-11-21T12:53:39.000Z</time>
      </trkpt>
      <trkpt lat="44.4766" lon="6.20404">
        <ele>1239</ele>
        <time>2025-11-21T12:53:40.000Z</time>
      </trkpt>
      <trkpt lat="44.4766" lon="6.20404">
        <ele>1239</ele>
        <time>2025-11-21T12:53:41.000Z</time>
      </trkpt>
      <trkpt lat="44.47658" lon="6.20402">
        <ele>1239</ele>
        <time>2025-11-21T12:53:42.000Z</time>
      </trkpt>
      <trkpt lat="44.47657" lon="6.20402">
        <ele>1239</ele>
        <time>2025-11-21T12:53:43.000Z</time>
      </trkpt>
      <trkpt lat="44.47657" lon="6.20402">
        <ele>1240</ele>
        <time>2025-11-21T12:53:44.000Z</time>
      </trkpt>
      <trkpt lat="44.47655" lon="6.20401">
        <ele>1240</ele>
        <time>2025-11-21T12:53:45.000Z</time>
      </trkpt>
      <trkpt lat="44.47654" lon="6.20401">
        <ele>1240</ele>
        <time>2025-11-21T12:53:46.000Z</time>
      </trkpt>
      <trkpt lat="44.47653" lon="6.20401">
        <ele>1239</ele>
        <time>2025-11-21T12:53:47.000Z</time>
      </trkpt>
      <trkpt lat="44.47652" lon="6.20401">
        <ele>1239</ele>
        <time>2025-11-21T12:53:48.000Z</time>
      </trkpt>
      <trkpt lat="44.4765" lon="6.20402">
        <ele>1239</ele>
        <time>2025-11-21T12:53:49.000Z</time>
      </trkpt>
      <trkpt lat="44.47649" lon="6.20403">
        <ele>1239</ele>
        <time>2025-11-21T12:53:50.000Z</time>
      </trkpt>
      <trkpt lat="44.47648" lon="6.20404">
        <ele>1239</ele>
        <time>2025-11-21T12:53:51.000Z</time>
      </trkpt>
      <trkpt lat="44.47647" lon="6.20406">
        <ele>1239</ele>
        <time>2025-11-21T12:53:52.000Z</time>
      </trkpt>
      <trkpt lat="44.47647" lon="6.20406">
        <ele>1239</ele>
        <time>2025-11-21T12:53:53.000Z</time>
      </trkpt>
      <trkpt lat="44.47646" lon="6.20406">
        <ele>1239</ele>
        <time>2025-11-21T12:53:54.000Z</time>
      </trkpt>
      <trkpt lat="44.47645" lon="6.20407">
        <ele>1237</ele>
        <time>2025-11-21T12:53:55.000Z</time>
      </trkpt>
      <trkpt lat="44.47644" lon="6.20407">
        <ele>1237</ele>
        <time>2025-11-21T12:53:56.000Z</time>
      </trkpt>
      <trkpt lat="44.47644" lon="6.20407">
        <ele>1237</ele>
        <time>2025-11-21T12:53:57.000Z</time>
      </trkpt>
      <trkpt lat="44.47643" lon="6.20409">
        <ele>1237</ele>
        <time>2025-11-21T12:53:58.000Z</time>
      </trkpt>
      <trkpt lat="44.47641" lon="6.20409">
        <ele>1236</ele>
        <time>2025-11-21T12:53:59.000Z</time>
      </trkpt>
      <trkpt lat="44.4764" lon="6.20409">
        <ele>1236</ele>
        <time>2025-11-21T12:54:00.000Z</time>
      </trkpt>
      <trkpt lat="44.4764" lon="6.2041">
        <ele>1236</ele>
        <time>2025-11-21T12:54:01.000Z</time>
      </trkpt>
      <trkpt lat="44.47639" lon="6.2041">
        <ele>1236</ele>
        <time>2025-11-21T12:54:02.000Z</time>
      </trkpt>
      <trkpt lat="44.47639" lon="6.2041">
        <ele>1236</ele>
        <time>2025-11-21T12:54:03.000Z</time>
      </trkpt>
      <trkpt lat="44.47639" lon="6.2041">
        <ele>1236</ele>
        <time>2025-11-21T12:54:04.000Z</time>
      </trkpt>
      <trkpt lat="44.47637" lon="6.20411">
        <ele>1235</ele>
        <time>2025-11-21T12:54:05.000Z</time>
      </trkpt>
      <trkpt lat="44.47636" lon="6.20412">
        <ele>1235</ele>
        <time>2025-11-21T12:54:06.000Z</time>
      </trkpt>
      <trkpt lat="44.47634" lon="6.20412">
        <ele>1235</ele>
        <time>2025-11-21T12:54:07.000Z</time>
      </trkpt>
      <trkpt lat="44.47634" lon="6.20412">
        <ele>1235</ele>
        <time>2025-11-21T12:54:08.000Z</time>
      </trkpt>
      <trkpt lat="44.47633" lon="6.20413">
        <ele>1234</ele>
        <time>2025-11-21T12:54:09.000Z</time>
      </trkpt>
      <trkpt lat="44.47633" lon="6.20413">
        <ele>1234</ele>
        <time>2025-11-21T12:54:10.000Z</time>
      </trkpt>
      <trkpt lat="44.47632" lon="6.20414">
        <ele>1233</ele>
        <time>2025-11-21T12:54:11.000Z</time>
      </trkpt>
      <trkpt lat="44.47631" lon="6.20414">
        <ele>1232</ele>
        <time>2025-11-21T12:54:12.000Z</time>
      </trkpt>
      <trkpt lat="44.4763" lon="6.20415">
        <ele>1232</ele>
        <time>2025-11-21T12:54:13.000Z</time>
      </trkpt>
      <trkpt lat="44.47629" lon="6.20415">
        <ele>1232</ele>
        <time>2025-11-21T12:54:14.000Z</time>
      </trkpt>
      <trkpt lat="44.47628" lon="6.20415">
        <ele>1232</ele>
        <time>2025-11-21T12:54:15.000Z</time>
      </trkpt>
      <trkpt lat="44.47627" lon="6.20415">
        <ele>1231</ele>
        <time>2025-11-21T12:54:16.000Z</time>
      </trkpt>
      <trkpt lat="44.47626" lon="6.20415">
        <ele>1231</ele>
        <time>2025-11-21T12:54:17.000Z</time>
      </trkpt>
      <trkpt lat="44.47625" lon="6.20415">
        <ele>1231</ele>
        <time>2025-11-21T12:54:18.000Z</time>
      </trkpt>
      <trkpt lat="44.47624" lon="6.20415">
        <ele>1231</ele>
        <time>2025-11-21T12:54:19.000Z</time>
      </trkpt>
      <trkpt lat="44.47623" lon="6.20415">
        <ele>1230</ele>
        <time>2025-11-21T12:54:20.000Z</time>
      </trkpt>
      <trkpt lat="44.47623" lon="6.20415">
        <ele>1230</ele>
        <time>2025-11-21T12:54:21.000Z</time>
      </trkpt>
      <trkpt lat="44.47622" lon="6.20415">
        <ele>1229</ele>
        <time>2025-11-21T12:54:22.000Z</time>
      </trkpt>
      <trkpt lat="44.47621" lon="6.20415">
        <ele>1229</ele>
        <time>2025-11-21T12:54:23.000Z</time>
      </trkpt>
      <trkpt lat="44.4762" lon="6.20415">
        <ele>1228</ele>
        <time>2025-11-21T12:54:24.000Z</time>
      </trkpt>
      <trkpt lat="44.47619" lon="6.20415">
        <ele>1228</ele>
        <time>2025-11-21T12:54:25.000Z</time>
      </trkpt>
      <trkpt lat="44.47618" lon="6.20416">
        <ele>1228</ele>
        <time>2025-11-21T12:54:26.000Z</time>
      </trkpt>
      <trkpt lat="44.47618" lon="6.20416">
        <ele>1228</ele>
        <time>2025-11-21T12:54:27.000Z</time>
      </trkpt>
      <trkpt lat="44.47618" lon="6.20416">
        <ele>1228</ele>
        <time>2025-11-21T12:54:28.000Z</time>
      </trkpt>
      <trkpt lat="44.47615" lon="6.20416">
        <ele>1227</ele>
        <time>2025-11-21T12:54:29.000Z</time>
      </trkpt>
      <trkpt lat="44.47614" lon="6.20415">
        <ele>1226</ele>
        <time>2025-11-21T12:54:30.000Z</time>
      </trkpt>
      <trkpt lat="44.47613" lon="6.20415">
        <ele>1226</ele>
        <time>2025-11-21T12:54:31.000Z</time>
      </trkpt>
      <trkpt lat="44.47611" lon="6.20415">
        <ele>1225</ele>
        <time>2025-11-21T12:54:32.000Z</time>
      </trkpt>
      <trkpt lat="44.47611" lon="6.20414">
        <ele>1225</ele>
        <time>2025-11-21T12:54:33.000Z</time>
      </trkpt>
      <trkpt lat="44.47609" lon="6.20413">
        <ele>1224</ele>
        <time>2025-11-21T12:54:34.000Z</time>
      </trkpt>
      <trkpt lat="44.47608" lon="6.20413">
        <ele>1224</ele>
        <time>2025-11-21T12:54:35.000Z</time>
      </trkpt>
      <trkpt lat="44.47607" lon="6.20413">
        <ele>1222</ele>
        <time>2025-11-21T12:54:36.000Z</time>
      </trkpt>
      <trkpt lat="44.47606" lon="6.20413">
        <ele>1222</ele>
        <time>2025-11-21T12:54:37.000Z</time>
      </trkpt>
      <trkpt lat="44.47604" lon="6.20413">
        <ele>1221</ele>
        <time>2025-11-21T12:54:38.000Z</time>
      </trkpt>
      <trkpt lat="44.47603" lon="6.20413">
        <ele>1221</ele>
        <time>2025-11-21T12:54:39.000Z</time>
      </trkpt>
      <trkpt lat="44.47602" lon="6.20412">
        <ele>1221</ele>
        <time>2025-11-21T12:54:40.000Z</time>
      </trkpt>
      <trkpt lat="44.47601" lon="6.20412">
        <ele>1221</ele>
        <time>2025-11-21T12:54:41.000Z</time>
      </trkpt>
      <trkpt lat="44.476" lon="6.20412">
        <ele>1220</ele>
        <time>2025-11-21T12:54:42.000Z</time>
      </trkpt>
      <trkpt lat="44.476" lon="6.20412">
        <ele>1220</ele>
        <time>2025-11-21T12:54:43.000Z</time>
      </trkpt>
      <trkpt lat="44.47599" lon="6.20412">
        <ele>1220</ele>
        <time>2025-11-21T12:54:44.000Z</time>
      </trkpt>
      <trkpt lat="44.47598" lon="6.20411">
        <ele>1220</ele>
        <time>2025-11-21T12:54:45.000Z</time>
      </trkpt>
      <trkpt lat="44.47597" lon="6.20411">
        <ele>1219</ele>
        <time>2025-11-21T12:54:46.000Z</time>
      </trkpt>
      <trkpt lat="44.47596" lon="6.2041">
        <ele>1219</ele>
        <time>2025-11-21T12:54:47.000Z</time>
      </trkpt>
      <trkpt lat="44.47596" lon="6.2041">
        <ele>1220</ele>
        <time>2025-11-21T12:54:48.000Z</time>
      </trkpt>
      <trkpt lat="44.47595" lon="6.2041">
        <ele>1219</ele>
        <time>2025-11-21T12:54:49.000Z</time>
      </trkpt>
      <trkpt lat="44.47594" lon="6.20409">
        <ele>1219</ele>
        <time>2025-11-21T12:54:50.000Z</time>
      </trkpt>
      <trkpt lat="44.47593" lon="6.20409">
        <ele>1219</ele>
        <time>2025-11-21T12:54:51.000Z</time>
      </trkpt>
      <trkpt lat="44.47592" lon="6.20409">
        <ele>1220</ele>
        <time>2025-11-21T12:54:52.000Z</time>
      </trkpt>
      <trkpt lat="44.47591" lon="6.20408">
        <ele>1218</ele>
        <time>2025-11-21T12:54:53.000Z</time>
      </trkpt>
      <trkpt lat="44.4759" lon="6.20408">
        <ele>1218</ele>
        <time>2025-11-21T12:54:54.000Z</time>
      </trkpt>
      <trkpt lat="44.47589" lon="6.20407">
        <ele>1218</ele>
        <time>2025-11-21T12:54:55.000Z</time>
      </trkpt>
      <trkpt lat="44.47588" lon="6.20406">
        <ele>1218</ele>
        <time>2025-11-21T12:54:56.000Z</time>
      </trkpt>
      <trkpt lat="44.47586" lon="6.20405">
        <ele>1217</ele>
        <time>2025-11-21T12:54:57.000Z</time>
      </trkpt>
      <trkpt lat="44.47585" lon="6.20404">
        <ele>1217</ele>
        <time>2025-11-21T12:54:58.000Z</time>
      </trkpt>
      <trkpt lat="44.47584" lon="6.20403">
        <ele>1216</ele>
        <time>2025-11-21T12:54:59.000Z</time>
      </trkpt>
      <trkpt lat="44.47583" lon="6.20402">
        <ele>1216</ele>
        <time>2025-11-21T12:55:00.000Z</time>
      </trkpt>
      <trkpt lat="44.47581" lon="6.20401">
        <ele>1216</ele>
        <time>2025-11-21T12:55:01.000Z</time>
      </trkpt>
      <trkpt lat="44.4758" lon="6.204">
        <ele>1216</ele>
        <time>2025-11-21T12:55:02.000Z</time>
      </trkpt>
      <trkpt lat="44.47579" lon="6.20399">
        <ele>1215</ele>
        <time>2025-11-21T12:55:03.000Z</time>
      </trkpt>
      <trkpt lat="44.47578" lon="6.20397">
        <ele>1214</ele>
        <time>2025-11-21T12:55:04.000Z</time>
      </trkpt>
      <trkpt lat="44.47577" lon="6.20395">
        <ele>1214</ele>
        <time>2025-11-21T12:55:05.000Z</time>
      </trkpt>
      <trkpt lat="44.47576" lon="6.20393">
        <ele>1214</ele>
        <time>2025-11-21T12:55:06.000Z</time>
      </trkpt>
      <trkpt lat="44.47575" lon="6.20392">
        <ele>1214</ele>
        <time>2025-11-21T12:55:07.000Z</time>
      </trkpt>
      <trkpt lat="44.47574" lon="6.20391">
        <ele>1214</ele>
        <time>2025-11-21T12:55:08.000Z</time>
      </trkpt>
      <trkpt lat="44.47574" lon="6.2039">
        <ele>1214</ele>
        <time>2025-11-21T12:55:09.000Z</time>
      </trkpt>
      <trkpt lat="44.47573" lon="6.20388">
        <ele>1214</ele>
        <time>2025-11-21T12:55:10.000Z</time>
      </trkpt>
      <trkpt lat="44.47572" lon="6.20388">
        <ele>1214</ele>
        <time>2025-11-21T12:55:11.000Z</time>
      </trkpt>
      <trkpt lat="44.47572" lon="6.20387">
        <ele>1214</ele>
        <time>2025-11-21T12:55:12.000Z</time>
      </trkpt>
      <trkpt lat="44.47571" lon="6.20385">
        <ele>1213</ele>
        <time>2025-11-21T12:55:13.000Z</time>
      </trkpt>
      <trkpt lat="44.4757" lon="6.20384">
        <ele>1213</ele>
        <time>2025-11-21T12:55:14.000Z</time>
      </trkpt>
      <trkpt lat="44.4757" lon="6.20383">
        <ele>1213</ele>
        <time>2025-11-21T12:55:15.000Z</time>
      </trkpt>
      <trkpt lat="44.4757" lon="6.20381">
        <ele>1213</ele>
        <time>2025-11-21T12:55:16.000Z</time>
      </trkpt>
      <trkpt lat="44.47569" lon="6.2038">
        <ele>1213</ele>
        <time>2025-11-21T12:55:17.000Z</time>
      </trkpt>
      <trkpt lat="44.47568" lon="6.20378">
        <ele>1213</ele>
        <time>2025-11-21T12:55:18.000Z</time>
      </trkpt>
      <trkpt lat="44.47567" lon="6.20376">
        <ele>1213</ele>
        <time>2025-11-21T12:55:19.000Z</time>
      </trkpt>
      <trkpt lat="44.47567" lon="6.20375">
        <ele>1214</ele>
        <time>2025-11-21T12:55:20.000Z</time>
      </trkpt>
      <trkpt lat="44.47566" lon="6.20373">
        <ele>1215</ele>
        <time>2025-11-21T12:55:21.000Z</time>
      </trkpt>
      <trkpt lat="44.47564" lon="6.20373">
        <ele>1215</ele>
        <time>2025-11-21T12:55:22.000Z</time>
      </trkpt>
      <trkpt lat="44.47563" lon="6.20373">
        <ele>1214</ele>
        <time>2025-11-21T12:55:23.000Z</time>
      </trkpt>
      <trkpt lat="44.47562" lon="6.20372">
        <ele>1214</ele>
        <time>2025-11-21T12:55:24.000Z</time>
      </trkpt>
      <trkpt lat="44.47561" lon="6.20371">
        <ele>1214</ele>
        <time>2025-11-21T12:55:25.000Z</time>
      </trkpt>
      <trkpt lat="44.4756" lon="6.20371">
        <ele>1214</ele>
        <time>2025-11-21T12:55:26.000Z</time>
      </trkpt>
      <trkpt lat="44.47558" lon="6.2037">
        <ele>1214</ele>
        <time>2025-11-21T12:55:27.000Z</time>
      </trkpt>
      <trkpt lat="44.47557" lon="6.20368">
        <ele>1214</ele>
        <time>2025-11-21T12:55:28.000Z</time>
      </trkpt>
      <trkpt lat="44.47556" lon="6.20367">
        <ele>1215</ele>
        <time>2025-11-21T12:55:29.000Z</time>
      </trkpt>
      <trkpt lat="44.47554" lon="6.20367">
        <ele>1215</ele>
        <time>2025-11-21T12:55:30.000Z</time>
      </trkpt>
      <trkpt lat="44.47553" lon="6.20366">
        <ele>1215</ele>
        <time>2025-11-21T12:55:31.000Z</time>
      </trkpt>
      <trkpt lat="44.47552" lon="6.20364">
        <ele>1215</ele>
        <time>2025-11-21T12:55:32.000Z</time>
      </trkpt>
      <trkpt lat="44.47551" lon="6.20364">
        <ele>1215</ele>
        <time>2025-11-21T12:55:33.000Z</time>
      </trkpt>
      <trkpt lat="44.4755" lon="6.20363">
        <ele>1215</ele>
        <time>2025-11-21T12:55:34.000Z</time>
      </trkpt>
      <trkpt lat="44.47548" lon="6.20362">
        <ele>1215</ele>
        <time>2025-11-21T12:55:35.000Z</time>
      </trkpt>
      <trkpt lat="44.47547" lon="6.20361">
        <ele>1215</ele>
        <time>2025-11-21T12:55:36.000Z</time>
      </trkpt>
      <trkpt lat="44.47546" lon="6.2036">
        <ele>1215</ele>
        <time>2025-11-21T12:55:37.000Z</time>
      </trkpt>
      <trkpt lat="44.47546" lon="6.2036">
        <ele>1215</ele>
        <time>2025-11-21T12:55:38.000Z</time>
      </trkpt>
      <trkpt lat="44.47545" lon="6.2036">
        <ele>1215</ele>
        <time>2025-11-21T12:55:39.000Z</time>
      </trkpt>
      <trkpt lat="44.47544" lon="6.2036">
        <ele>1215</ele>
        <time>2025-11-21T12:55:40.000Z</time>
      </trkpt>
      <trkpt lat="44.47544" lon="6.2036">
        <ele>1215</ele>
        <time>2025-11-21T12:55:41.000Z</time>
      </trkpt>
      <trkpt lat="44.47544" lon="6.2036">
        <ele>1215</ele>
        <time>2025-11-21T12:55:42.000Z</time>
      </trkpt>
      <trkpt lat="44.47544" lon="6.2036">
        <ele>1215</ele>
        <time>2025-11-21T12:55:43.000Z</time>
      </trkpt>
      <trkpt lat="44.47544" lon="6.2036">
        <ele>1215</ele>
        <time>2025-11-21T12:55:44.000Z</time>
      </trkpt>
      <trkpt lat="44.47543" lon="6.20358">
        <ele>1216</ele>
        <time>2025-11-21T12:55:45.000Z</time>
      </trkpt>
      <trkpt lat="44.47543" lon="6.20358">
        <ele>1215</ele>
        <time>2025-11-21T12:55:46.000Z</time>
      </trkpt>
      <trkpt lat="44.47542" lon="6.20359">
        <ele>1214</ele>
        <time>2025-11-21T12:55:47.000Z</time>
      </trkpt>
      <trkpt lat="44.47542" lon="6.20359">
        <ele>1213</ele>
        <time>2025-11-21T12:55:48.000Z</time>
      </trkpt>
      <trkpt lat="44.47542" lon="6.20359">
        <ele>1214</ele>
        <time>2025-11-21T12:55:49.000Z</time>
      </trkpt>
      <trkpt lat="44.47541" lon="6.20358">
        <ele>1214</ele>
        <time>2025-11-21T12:55:50.000Z</time>
      </trkpt>
      <trkpt lat="44.47541" lon="6.20358">
        <ele>1214</ele>
        <time>2025-11-21T12:55:51.000Z</time>
      </trkpt>
      <trkpt lat="44.47541" lon="6.20357">
        <ele>1214</ele>
        <time>2025-11-21T12:55:52.000Z</time>
      </trkpt>
      <trkpt lat="44.47541" lon="6.20357">
        <ele>1214</ele>
        <time>2025-11-21T12:55:53.000Z</time>
      </trkpt>
      <trkpt lat="44.4754" lon="6.20356">
        <ele>1214</ele>
        <time>2025-11-21T12:55:54.000Z</time>
      </trkpt>
      <trkpt lat="44.4754" lon="6.20357">
        <ele>1214</ele>
        <time>2025-11-21T12:55:55.000Z</time>
      </trkpt>
      <trkpt lat="44.4754" lon="6.20357">
        <ele>1214</ele>
        <time>2025-11-21T12:55:56.000Z</time>
      </trkpt>
      <trkpt lat="44.47539" lon="6.20357">
        <ele>1214</ele>
        <time>2025-11-21T12:55:57.000Z</time>
      </trkpt>
      <trkpt lat="44.47539" lon="6.20357">
        <ele>1214</ele>
        <time>2025-11-21T12:55:58.000Z</time>
      </trkpt>
      <trkpt lat="44.47539" lon="6.20357">
        <ele>1214</ele>
        <time>2025-11-21T12:55:59.000Z</time>
      </trkpt>
      <trkpt lat="44.47539" lon="6.20357">
        <ele>1214</ele>
        <time>2025-11-21T12:56:00.000Z</time>
      </trkpt>
      <trkpt lat="44.47539" lon="6.20357">
        <ele>1214</ele>
        <time>2025-11-21T12:56:01.000Z</time>
      </trkpt>
      <trkpt lat="44.47538" lon="6.20356">
        <ele>1214</ele>
        <time>2025-11-21T12:56:02.000Z</time>
      </trkpt>
      <trkpt lat="44.47537" lon="6.20356">
        <ele>1214</ele>
        <time>2025-11-21T12:56:03.000Z</time>
      </trkpt>
      <trkpt lat="44.47537" lon="6.20355">
        <ele>1214</ele>
        <time>2025-11-21T12:56:04.000Z</time>
      </trkpt>
      <trkpt lat="44.47536" lon="6.20355">
        <ele>1213</ele>
        <time>2025-11-21T12:56:05.000Z</time>
      </trkpt>
      <trkpt lat="44.47536" lon="6.20354">
        <ele>1213</ele>
        <time>2025-11-21T12:56:06.000Z</time>
      </trkpt>
      <trkpt lat="44.47536" lon="6.20354">
        <ele>1215</ele>
        <time>2025-11-21T12:56:07.000Z</time>
      </trkpt>
      <trkpt lat="44.47534" lon="6.2035">
        <ele>1215</ele>
        <time>2025-11-21T12:56:28.000Z</time>
      </trkpt>
      <trkpt lat="44.47533" lon="6.2035">
        <ele>1214</ele>
        <time>2025-11-21T12:56:29.000Z</time>
      </trkpt>
      <trkpt lat="44.47532" lon="6.20349">
        <ele>1213</ele>
        <time>2025-11-21T12:56:30.000Z</time>
      </trkpt>
      <trkpt lat="44.47532" lon="6.20349">
        <ele>1213</ele>
        <time>2025-11-21T12:56:31.000Z</time>
      </trkpt>
      <trkpt lat="44.47532" lon="6.2035">
        <ele>1212</ele>
        <time>2025-11-21T12:56:32.000Z</time>
      </trkpt>
      <trkpt lat="44.47529" lon="6.20349">
        <ele>1213</ele>
        <time>2025-11-21T12:57:00.000Z</time>
      </trkpt>
      <trkpt lat="44.47529" lon="6.20348">
        <ele>1214</ele>
        <time>2025-11-21T12:57:01.000Z</time>
      </trkpt>
      <trkpt lat="44.47529" lon="6.20349">
        <ele>1214</ele>
        <time>2025-11-21T12:57:02.000Z</time>
      </trkpt>
      <trkpt lat="44.47528" lon="6.20348">
        <ele>1214</ele>
        <time>2025-11-21T12:57:03.000Z</time>
      </trkpt>
      <trkpt lat="44.47527" lon="6.20348">
        <ele>1214</ele>
        <time>2025-11-21T12:57:04.000Z</time>
      </trkpt>
      <trkpt lat="44.47527" lon="6.20348">
        <ele>1214</ele>
        <time>2025-11-21T12:57:05.000Z</time>
      </trkpt>
      <trkpt lat="44.47527" lon="6.20347">
        <ele>1213</ele>
        <time>2025-11-21T12:57:06.000Z</time>
      </trkpt>
      <trkpt lat="44.47526" lon="6.20346">
        <ele>1213</ele>
        <time>2025-11-21T12:57:07.000Z</time>
      </trkpt>
      <trkpt lat="44.47525" lon="6.20346">
        <ele>1213</ele>
        <time>2025-11-21T12:57:08.000Z</time>
      </trkpt>
      <trkpt lat="44.47524" lon="6.20345">
        <ele>1213</ele>
        <time>2025-11-21T12:57:09.000Z</time>
      </trkpt>
      <trkpt lat="44.47523" lon="6.20344">
        <ele>1213</ele>
        <time>2025-11-21T12:57:10.000Z</time>
      </trkpt>
      <trkpt lat="44.47522" lon="6.20344">
        <ele>1213</ele>
        <time>2025-11-21T12:57:11.000Z</time>
      </trkpt>
      <trkpt lat="44.47521" lon="6.20344">
        <ele>1213</ele>
        <time>2025-11-21T12:57:12.000Z</time>
      </trkpt>
      <trkpt lat="44.47521" lon="6.20343">
        <ele>1212</ele>
        <time>2025-11-21T12:57:13.000Z</time>
      </trkpt>
      <trkpt lat="44.4752" lon="6.20344">
        <ele>1212</ele>
        <time>2025-11-21T12:57:14.000Z</time>
      </trkpt>
      <trkpt lat="44.47519" lon="6.20344">
        <ele>1211</ele>
        <time>2025-11-21T12:57:15.000Z</time>
      </trkpt>
      <trkpt lat="44.47519" lon="6.20345">
        <ele>1211</ele>
        <time>2025-11-21T12:57:16.000Z</time>
      </trkpt>
      <trkpt lat="44.47518" lon="6.20344">
        <ele>1210</ele>
        <time>2025-11-21T12:57:17.000Z</time>
      </trkpt>
      <trkpt lat="44.47518" lon="6.20344">
        <ele>1210</ele>
        <time>2025-11-21T12:57:18.000Z</time>
      </trkpt>
      <trkpt lat="44.47517" lon="6.20344">
        <ele>1210</ele>
        <time>2025-11-21T12:57:19.000Z</time>
      </trkpt>
      <trkpt lat="44.47515" lon="6.20343">
        <ele>1209</ele>
        <time>2025-11-21T12:57:20.000Z</time>
      </trkpt>
      <trkpt lat="44.47514" lon="6.20343">
        <ele>1208</ele>
        <time>2025-11-21T12:57:21.000Z</time>
      </trkpt>
      <trkpt lat="44.47514" lon="6.20343">
        <ele>1208</ele>
        <time>2025-11-21T12:57:22.000Z</time>
      </trkpt>
      <trkpt lat="44.47512" lon="6.20343">
        <ele>1208</ele>
        <time>2025-11-21T12:57:23.000Z</time>
      </trkpt>
      <trkpt lat="44.47511" lon="6.20343">
        <ele>1207</ele>
        <time>2025-11-21T12:57:24.000Z</time>
      </trkpt>
      <trkpt lat="44.4751" lon="6.20343">
        <ele>1207</ele>
        <time>2025-11-21T12:57:25.000Z</time>
      </trkpt>
      <trkpt lat="44.47509" lon="6.20343">
        <ele>1207</ele>
        <time>2025-11-21T12:57:26.000Z</time>
      </trkpt>
      <trkpt lat="44.47509" lon="6.20343">
        <ele>1207</ele>
        <time>2025-11-21T12:57:27.000Z</time>
      </trkpt>
      <trkpt lat="44.47508" lon="6.20343">
        <ele>1206</ele>
        <time>2025-11-21T12:57:28.000Z</time>
      </trkpt>
      <trkpt lat="44.47507" lon="6.20342">
        <ele>1205</ele>
        <time>2025-11-21T12:57:29.000Z</time>
      </trkpt>
      <trkpt lat="44.47507" lon="6.20342">
        <ele>1205</ele>
        <time>2025-11-21T12:57:30.000Z</time>
      </trkpt>
      <trkpt lat="44.47507" lon="6.20342">
        <ele>1205</ele>
        <time>2025-11-21T12:57:31.000Z</time>
      </trkpt>
      <trkpt lat="44.47506" lon="6.20341">
        <ele>1204</ele>
        <time>2025-11-21T12:57:32.000Z</time>
      </trkpt>
      <trkpt lat="44.47505" lon="6.20341">
        <ele>1204</ele>
        <time>2025-11-21T12:57:33.000Z</time>
      </trkpt>
      <trkpt lat="44.47505" lon="6.2034">
        <ele>1203</ele>
        <time>2025-11-21T12:57:34.000Z</time>
      </trkpt>
      <trkpt lat="44.47504" lon="6.20339">
        <ele>1203</ele>
        <time>2025-11-21T12:57:35.000Z</time>
      </trkpt>
      <trkpt lat="44.47504" lon="6.20338">
        <ele>1203</ele>
        <time>2025-11-21T12:57:36.000Z</time>
      </trkpt>
      <trkpt lat="44.47503" lon="6.20337">
        <ele>1203</ele>
        <time>2025-11-21T12:57:37.000Z</time>
      </trkpt>
      <trkpt lat="44.47502" lon="6.20337">
        <ele>1202</ele>
        <time>2025-11-21T12:57:38.000Z</time>
      </trkpt>
      <trkpt lat="44.47501" lon="6.20336">
        <ele>1202</ele>
        <time>2025-11-21T12:57:39.000Z</time>
      </trkpt>
      <trkpt lat="44.47501" lon="6.20336">
        <ele>1202</ele>
        <time>2025-11-21T12:57:40.000Z</time>
      </trkpt>
      <trkpt lat="44.47501" lon="6.20336">
        <ele>1202</ele>
        <time>2025-11-21T12:57:41.000Z</time>
      </trkpt>
      <trkpt lat="44.475" lon="6.20335">
        <ele>1202</ele>
        <time>2025-11-21T12:57:42.000Z</time>
      </trkpt>
      <trkpt lat="44.475" lon="6.20335">
        <ele>1202</ele>
        <time>2025-11-21T12:57:43.000Z</time>
      </trkpt>
      <trkpt lat="44.475" lon="6.20335">
        <ele>1202</ele>
        <time>2025-11-21T12:57:44.000Z</time>
      </trkpt>
      <trkpt lat="44.47499" lon="6.20334">
        <ele>1202</ele>
        <time>2025-11-21T12:57:45.000Z</time>
      </trkpt>
      <trkpt lat="44.47499" lon="6.20334">
        <ele>1202</ele>
        <time>2025-11-21T12:57:46.000Z</time>
      </trkpt>
      <trkpt lat="44.47497" lon="6.20334">
        <ele>1201</ele>
        <time>2025-11-21T12:57:47.000Z</time>
      </trkpt>
      <trkpt lat="44.47496" lon="6.20335">
        <ele>1200</ele>
        <time>2025-11-21T12:57:48.000Z</time>
      </trkpt>
      <trkpt lat="44.47495" lon="6.20335">
        <ele>1201</ele>
        <time>2025-11-21T12:57:49.000Z</time>
      </trkpt>
      <trkpt lat="44.47494" lon="6.20336">
        <ele>1200</ele>
        <time>2025-11-21T12:57:50.000Z</time>
      </trkpt>
      <trkpt lat="44.47495" lon="6.20338">
        <ele>1200</ele>
        <time>2025-11-21T12:57:51.000Z</time>
      </trkpt>
      <trkpt lat="44.47495" lon="6.20339">
        <ele>1200</ele>
        <time>2025-11-21T12:57:52.000Z</time>
      </trkpt>
      <trkpt lat="44.47495" lon="6.20339">
        <ele>1200</ele>
        <time>2025-11-21T12:57:53.000Z</time>
      </trkpt>
      <trkpt lat="44.47495" lon="6.2034">
        <ele>1200</ele>
        <time>2025-11-21T12:57:54.000Z</time>
      </trkpt>
      <trkpt lat="44.47495" lon="6.20341">
        <ele>1199</ele>
        <time>2025-11-21T12:57:55.000Z</time>
      </trkpt>
      <trkpt lat="44.47496" lon="6.20342">
        <ele>1199</ele>
        <time>2025-11-21T12:57:56.000Z</time>
      </trkpt>
      <trkpt lat="44.47497" lon="6.20342">
        <ele>1199</ele>
        <time>2025-11-21T12:57:57.000Z</time>
      </trkpt>
      <trkpt lat="44.47497" lon="6.20343">
        <ele>1199</ele>
        <time>2025-11-21T12:57:58.000Z</time>
      </trkpt>
      <trkpt lat="44.47498" lon="6.20344">
        <ele>1199</ele>
        <time>2025-11-21T12:57:59.000Z</time>
      </trkpt>
      <trkpt lat="44.47499" lon="6.20345">
        <ele>1198</ele>
        <time>2025-11-21T12:58:00.000Z</time>
      </trkpt>
      <trkpt lat="44.475" lon="6.20346">
        <ele>1198</ele>
        <time>2025-11-21T12:58:01.000Z</time>
      </trkpt>
      <trkpt lat="44.47501" lon="6.20348">
        <ele>1197</ele>
        <time>2025-11-21T12:58:02.000Z</time>
      </trkpt>
      <trkpt lat="44.47501" lon="6.20349">
        <ele>1197</ele>
        <time>2025-11-21T12:58:03.000Z</time>
      </trkpt>
      <trkpt lat="44.47501" lon="6.20351">
        <ele>1198</ele>
        <time>2025-11-21T12:58:04.000Z</time>
      </trkpt>
      <trkpt lat="44.47501" lon="6.20353">
        <ele>1197</ele>
        <time>2025-11-21T12:58:05.000Z</time>
      </trkpt>
      <trkpt lat="44.47501" lon="6.20355">
        <ele>1197</ele>
        <time>2025-11-21T12:58:06.000Z</time>
      </trkpt>
      <trkpt lat="44.47501" lon="6.20356">
        <ele>1196</ele>
        <time>2025-11-21T12:58:07.000Z</time>
      </trkpt>
      <trkpt lat="44.47501" lon="6.20358">
        <ele>1196</ele>
        <time>2025-11-21T12:58:08.000Z</time>
      </trkpt>
      <trkpt lat="44.47502" lon="6.20359">
        <ele>1196</ele>
        <time>2025-11-21T12:58:09.000Z</time>
      </trkpt>
      <trkpt lat="44.47502" lon="6.20361">
        <ele>1195</ele>
        <time>2025-11-21T12:58:10.000Z</time>
      </trkpt>
      <trkpt lat="44.47502" lon="6.20363">
        <ele>1195</ele>
        <time>2025-11-21T12:58:11.000Z</time>
      </trkpt>
      <trkpt lat="44.47501" lon="6.20365">
        <ele>1194</ele>
        <time>2025-11-21T12:58:12.000Z</time>
      </trkpt>
      <trkpt lat="44.47501" lon="6.20366">
        <ele>1194</ele>
        <time>2025-11-21T12:58:13.000Z</time>
      </trkpt>
      <trkpt lat="44.47501" lon="6.20367">
        <ele>1194</ele>
        <time>2025-11-21T12:58:14.000Z</time>
      </trkpt>
      <trkpt lat="44.47501" lon="6.20369">
        <ele>1194</ele>
        <time>2025-11-21T12:58:15.000Z</time>
      </trkpt>
      <trkpt lat="44.47501" lon="6.20371">
        <ele>1193</ele>
        <time>2025-11-21T12:58:16.000Z</time>
      </trkpt>
      <trkpt lat="44.475" lon="6.20372">
        <ele>1193</ele>
        <time>2025-11-21T12:58:17.000Z</time>
      </trkpt>
      <trkpt lat="44.475" lon="6.20373">
        <ele>1193</ele>
        <time>2025-11-21T12:58:18.000Z</time>
      </trkpt>
      <trkpt lat="44.47499" lon="6.20375">
        <ele>1193</ele>
        <time>2025-11-21T12:58:19.000Z</time>
      </trkpt>
      <trkpt lat="44.47499" lon="6.20377">
        <ele>1193</ele>
        <time>2025-11-21T12:58:20.000Z</time>
      </trkpt>
      <trkpt lat="44.47498" lon="6.20379">
        <ele>1193</ele>
        <time>2025-11-21T12:58:21.000Z</time>
      </trkpt>
      <trkpt lat="44.47498" lon="6.2038">
        <ele>1193</ele>
        <time>2025-11-21T12:58:22.000Z</time>
      </trkpt>
      <trkpt lat="44.47498" lon="6.20381">
        <ele>1192</ele>
        <time>2025-11-21T12:58:23.000Z</time>
      </trkpt>
      <trkpt lat="44.47497" lon="6.20382">
        <ele>1191</ele>
        <time>2025-11-21T12:58:24.000Z</time>
      </trkpt>
      <trkpt lat="44.47498" lon="6.20384">
        <ele>1191</ele>
        <time>2025-11-21T12:58:25.000Z</time>
      </trkpt>
      <trkpt lat="44.47498" lon="6.20385">
        <ele>1190</ele>
        <time>2025-11-21T12:58:26.000Z</time>
      </trkpt>
      <trkpt lat="44.47498" lon="6.20386">
        <ele>1190</ele>
        <time>2025-11-21T12:58:27.000Z</time>
      </trkpt>
      <trkpt lat="44.47499" lon="6.20387">
        <ele>1190</ele>
        <time>2025-11-21T12:58:28.000Z</time>
      </trkpt>
      <trkpt lat="44.47498" lon="6.20389">
        <ele>1190</ele>
        <time>2025-11-21T12:58:29.000Z</time>
      </trkpt>
      <trkpt lat="44.47497" lon="6.20391">
        <ele>1190</ele>
        <time>2025-11-21T12:58:30.000Z</time>
      </trkpt>
      <trkpt lat="44.47496" lon="6.20393">
        <ele>1189</ele>
        <time>2025-11-21T12:58:31.000Z</time>
      </trkpt>
      <trkpt lat="44.47496" lon="6.20394">
        <ele>1188</ele>
        <time>2025-11-21T12:58:32.000Z</time>
      </trkpt>
      <trkpt lat="44.47495" lon="6.20395">
        <ele>1188</ele>
        <time>2025-11-21T12:58:33.000Z</time>
      </trkpt>
      <trkpt lat="44.47495" lon="6.20396">
        <ele>1187</ele>
        <time>2025-11-21T12:58:34.000Z</time>
      </trkpt>
      <trkpt lat="44.47495" lon="6.20397">
        <ele>1187</ele>
        <time>2025-11-21T12:58:35.000Z</time>
      </trkpt>
      <trkpt lat="44.47495" lon="6.20398">
        <ele>1187</ele>
        <time>2025-11-21T12:58:36.000Z</time>
      </trkpt>
      <trkpt lat="44.47495" lon="6.20399">
        <ele>1187</ele>
        <time>2025-11-21T12:58:37.000Z</time>
      </trkpt>
      <trkpt lat="44.47495" lon="6.204">
        <ele>1186</ele>
        <time>2025-11-21T12:58:38.000Z</time>
      </trkpt>
      <trkpt lat="44.47495" lon="6.20402">
        <ele>1186</ele>
        <time>2025-11-21T12:58:39.000Z</time>
      </trkpt>
      <trkpt lat="44.47494" lon="6.20403">
        <ele>1185</ele>
        <time>2025-11-21T12:58:40.000Z</time>
      </trkpt>
      <trkpt lat="44.47494" lon="6.20404">
        <ele>1183</ele>
        <time>2025-11-21T12:58:41.000Z</time>
      </trkpt>
      <trkpt lat="44.47494" lon="6.20405">
        <ele>1183</ele>
        <time>2025-11-21T12:58:42.000Z</time>
      </trkpt>
      <trkpt lat="44.47493" lon="6.20407">
        <ele>1182</ele>
        <time>2025-11-21T12:58:43.000Z</time>
      </trkpt>
      <trkpt lat="44.47492" lon="6.20408">
        <ele>1182</ele>
        <time>2025-11-21T12:58:44.000Z</time>
      </trkpt>
      <trkpt lat="44.47491" lon="6.20409">
        <ele>1182</ele>
        <time>2025-11-21T12:58:45.000Z</time>
      </trkpt>
      <trkpt lat="44.47491" lon="6.20411">
        <ele>1181</ele>
        <time>2025-11-21T12:58:46.000Z</time>
      </trkpt>
      <trkpt lat="44.4749" lon="6.20412">
        <ele>1180</ele>
        <time>2025-11-21T12:58:47.000Z</time>
      </trkpt>
      <trkpt lat="44.47489" lon="6.20414">
        <ele>1180</ele>
        <time>2025-11-21T12:58:48.000Z</time>
      </trkpt>
      <trkpt lat="44.47489" lon="6.20415">
        <ele>1179</ele>
        <time>2025-11-21T12:58:49.000Z</time>
      </trkpt>
      <trkpt lat="44.47489" lon="6.20416">
        <ele>1178</ele>
        <time>2025-11-21T12:58:50.000Z</time>
      </trkpt>
      <trkpt lat="44.47488" lon="6.20418">
        <ele>1177</ele>
        <time>2025-11-21T12:58:51.000Z</time>
      </trkpt>
      <trkpt lat="44.47488" lon="6.20419">
        <ele>1177</ele>
        <time>2025-11-21T12:58:52.000Z</time>
      </trkpt>
      <trkpt lat="44.47487" lon="6.2042">
        <ele>1177</ele>
        <time>2025-11-21T12:58:53.000Z</time>
      </trkpt>
      <trkpt lat="44.47487" lon="6.20422">
        <ele>1177</ele>
        <time>2025-11-21T12:58:54.000Z</time>
      </trkpt>
      <trkpt lat="44.47487" lon="6.20424">
        <ele>1176</ele>
        <time>2025-11-21T12:58:55.000Z</time>
      </trkpt>
      <trkpt lat="44.47487" lon="6.20425">
        <ele>1177</ele>
        <time>2025-11-21T12:58:56.000Z</time>
      </trkpt>
      <trkpt lat="44.47487" lon="6.20427">
        <ele>1176</ele>
        <time>2025-11-21T12:58:57.000Z</time>
      </trkpt>
      <trkpt lat="44.47487" lon="6.20428">
        <ele>1176</ele>
        <time>2025-11-21T12:58:58.000Z</time>
      </trkpt>
      <trkpt lat="44.47487" lon="6.20429">
        <ele>1175</ele>
        <time>2025-11-21T12:58:59.000Z</time>
      </trkpt>
      <trkpt lat="44.47487" lon="6.20431">
        <ele>1174</ele>
        <time>2025-11-21T12:59:00.000Z</time>
      </trkpt>
      <trkpt lat="44.47487" lon="6.20433">
        <ele>1173</ele>
        <time>2025-11-21T12:59:01.000Z</time>
      </trkpt>
      <trkpt lat="44.47486" lon="6.20436">
        <ele>1173</ele>
        <time>2025-11-21T12:59:02.000Z</time>
      </trkpt>
      <trkpt lat="44.47485" lon="6.20438">
        <ele>1174</ele>
        <time>2025-11-21T12:59:03.000Z</time>
      </trkpt>
      <trkpt lat="44.47484" lon="6.20439">
        <ele>1174</ele>
        <time>2025-11-21T12:59:04.000Z</time>
      </trkpt>
      <trkpt lat="44.47483" lon="6.2044">
        <ele>1174</ele>
        <time>2025-11-21T12:59:05.000Z</time>
      </trkpt>
      <trkpt lat="44.47482" lon="6.20441">
        <ele>1174</ele>
        <time>2025-11-21T12:59:06.000Z</time>
      </trkpt>
      <trkpt lat="44.47481" lon="6.20441">
        <ele>1174</ele>
        <time>2025-11-21T12:59:07.000Z</time>
      </trkpt>
      <trkpt lat="44.4748" lon="6.20442">
        <ele>1174</ele>
        <time>2025-11-21T12:59:08.000Z</time>
      </trkpt>
      <trkpt lat="44.47479" lon="6.20443">
        <ele>1174</ele>
        <time>2025-11-21T12:59:09.000Z</time>
      </trkpt>
      <trkpt lat="44.47478" lon="6.20443">
        <ele>1173</ele>
        <time>2025-11-21T12:59:10.000Z</time>
      </trkpt>
      <trkpt lat="44.47477" lon="6.20444">
        <ele>1173</ele>
        <time>2025-11-21T12:59:11.000Z</time>
      </trkpt>
      <trkpt lat="44.47476" lon="6.20444">
        <ele>1173</ele>
        <time>2025-11-21T12:59:12.000Z</time>
      </trkpt>
      <trkpt lat="44.47475" lon="6.20445">
        <ele>1173</ele>
        <time>2025-11-21T12:59:13.000Z</time>
      </trkpt>
      <trkpt lat="44.47474" lon="6.20445">
        <ele>1173</ele>
        <time>2025-11-21T12:59:14.000Z</time>
      </trkpt>
      <trkpt lat="44.47472" lon="6.20445">
        <ele>1173</ele>
        <time>2025-11-21T12:59:15.000Z</time>
      </trkpt>
      <trkpt lat="44.47471" lon="6.20446">
        <ele>1173</ele>
        <time>2025-11-21T12:59:16.000Z</time>
      </trkpt>
      <trkpt lat="44.4747" lon="6.20445">
        <ele>1172</ele>
        <time>2025-11-21T12:59:17.000Z</time>
      </trkpt>
      <trkpt lat="44.47469" lon="6.20445">
        <ele>1172</ele>
        <time>2025-11-21T12:59:18.000Z</time>
      </trkpt>
      <trkpt lat="44.47468" lon="6.20445">
        <ele>1172</ele>
        <time>2025-11-21T12:59:19.000Z</time>
      </trkpt>
      <trkpt lat="44.47467" lon="6.20445">
        <ele>1171</ele>
        <time>2025-11-21T12:59:20.000Z</time>
      </trkpt>
      <trkpt lat="44.47467" lon="6.20445">
        <ele>1171</ele>
        <time>2025-11-21T12:59:21.000Z</time>
      </trkpt>
      <trkpt lat="44.47465" lon="6.20446">
        <ele>1172</ele>
        <time>2025-11-21T12:59:22.000Z</time>
      </trkpt>
      <trkpt lat="44.47464" lon="6.20446">
        <ele>1171</ele>
        <time>2025-11-21T12:59:23.000Z</time>
      </trkpt>
      <trkpt lat="44.47463" lon="6.20446">
        <ele>1171</ele>
        <time>2025-11-21T12:59:24.000Z</time>
      </trkpt>
      <trkpt lat="44.47462" lon="6.20446">
        <ele>1171</ele>
        <time>2025-11-21T12:59:25.000Z</time>
      </trkpt>
      <trkpt lat="44.4746" lon="6.20446">
        <ele>1171</ele>
        <time>2025-11-21T12:59:26.000Z</time>
      </trkpt>
      <trkpt lat="44.47459" lon="6.20447">
        <ele>1170</ele>
        <time>2025-11-21T12:59:27.000Z</time>
      </trkpt>
      <trkpt lat="44.47458" lon="6.20447">
        <ele>1170</ele>
        <time>2025-11-21T12:59:28.000Z</time>
      </trkpt>
      <trkpt lat="44.47457" lon="6.20448">
        <ele>1170</ele>
        <time>2025-11-21T12:59:29.000Z</time>
      </trkpt>
      <trkpt lat="44.47455" lon="6.20448">
        <ele>1170</ele>
        <time>2025-11-21T12:59:30.000Z</time>
      </trkpt>
      <trkpt lat="44.47454" lon="6.20449">
        <ele>1170</ele>
        <time>2025-11-21T12:59:31.000Z</time>
      </trkpt>
      <trkpt lat="44.47453" lon="6.20449">
        <ele>1170</ele>
        <time>2025-11-21T12:59:32.000Z</time>
      </trkpt>
      <trkpt lat="44.47451" lon="6.2045">
        <ele>1170</ele>
        <time>2025-11-21T12:59:33.000Z</time>
      </trkpt>
      <trkpt lat="44.4745" lon="6.2045">
        <ele>1170</ele>
        <time>2025-11-21T12:59:34.000Z</time>
      </trkpt>
      <trkpt lat="44.47448" lon="6.20451">
        <ele>1170</ele>
        <time>2025-11-21T12:59:35.000Z</time>
      </trkpt>
      <trkpt lat="44.47447" lon="6.20451">
        <ele>1169</ele>
        <time>2025-11-21T12:59:36.000Z</time>
      </trkpt>
      <trkpt lat="44.47446" lon="6.20453">
        <ele>1169</ele>
        <time>2025-11-21T12:59:37.000Z</time>
      </trkpt>
      <trkpt lat="44.47445" lon="6.20453">
        <ele>1169</ele>
        <time>2025-11-21T12:59:38.000Z</time>
      </trkpt>
      <trkpt lat="44.47444" lon="6.20453">
        <ele>1168</ele>
        <time>2025-11-21T12:59:39.000Z</time>
      </trkpt>
      <trkpt lat="44.47443" lon="6.20453">
        <ele>1169</ele>
        <time>2025-11-21T12:59:40.000Z</time>
      </trkpt>
      <trkpt lat="44.47441" lon="6.20453">
        <ele>1169</ele>
        <time>2025-11-21T12:59:41.000Z</time>
      </trkpt>
      <trkpt lat="44.4744" lon="6.20454">
        <ele>1169</ele>
        <time>2025-11-21T12:59:42.000Z</time>
      </trkpt>
      <trkpt lat="44.47439" lon="6.20454">
        <ele>1169</ele>
        <time>2025-11-21T12:59:43.000Z</time>
      </trkpt>
      <trkpt lat="44.47438" lon="6.20455">
        <ele>1169</ele>
        <time>2025-11-21T12:59:44.000Z</time>
      </trkpt>
      <trkpt lat="44.47437" lon="6.20456">
        <ele>1168</ele>
        <time>2025-11-21T12:59:45.000Z</time>
      </trkpt>
      <trkpt lat="44.47436" lon="6.20456">
        <ele>1168</ele>
        <time>2025-11-21T12:59:46.000Z</time>
      </trkpt>
      <trkpt lat="44.47435" lon="6.20457">
        <ele>1168</ele>
        <time>2025-11-21T12:59:47.000Z</time>
      </trkpt>
      <trkpt lat="44.47434" lon="6.20457">
        <ele>1168</ele>
        <time>2025-11-21T12:59:48.000Z</time>
      </trkpt>
      <trkpt lat="44.47434" lon="6.20457">
        <ele>1168</ele>
        <time>2025-11-21T12:59:49.000Z</time>
      </trkpt>
      <trkpt lat="44.47434" lon="6.20457">
        <ele>1168</ele>
        <time>2025-11-21T12:59:50.000Z</time>
      </trkpt>
      <trkpt lat="44.47432" lon="6.20458">
        <ele>1166</ele>
        <time>2025-11-21T12:59:51.000Z</time>
      </trkpt>
      <trkpt lat="44.4743" lon="6.20459">
        <ele>1166</ele>
        <time>2025-11-21T12:59:52.000Z</time>
      </trkpt>
      <trkpt lat="44.47429" lon="6.2046">
        <ele>1167</ele>
        <time>2025-11-21T12:59:53.000Z</time>
      </trkpt>
      <trkpt lat="44.47428" lon="6.2046">
        <ele>1166</ele>
        <time>2025-11-21T12:59:54.000Z</time>
      </trkpt>
      <trkpt lat="44.47427" lon="6.20461">
        <ele>1166</ele>
        <time>2025-11-21T12:59:55.000Z</time>
      </trkpt>
      <trkpt lat="44.47425" lon="6.20462">
        <ele>1166</ele>
        <time>2025-11-21T12:59:56.000Z</time>
      </trkpt>
      <trkpt lat="44.47424" lon="6.20462">
        <ele>1165</ele>
        <time>2025-11-21T12:59:57.000Z</time>
      </trkpt>
      <trkpt lat="44.47424" lon="6.20462">
        <ele>1164</ele>
        <time>2025-11-21T12:59:58.000Z</time>
      </trkpt>
      <trkpt lat="44.47422" lon="6.20462">
        <ele>1164</ele>
        <time>2025-11-21T12:59:59.000Z</time>
      </trkpt>
      <trkpt lat="44.47421" lon="6.20462">
        <ele>1164</ele>
        <time>2025-11-21T13:00:00.000Z</time>
      </trkpt>
      <trkpt lat="44.47419" lon="6.20462">
        <ele>1163</ele>
        <time>2025-11-21T13:00:01.000Z</time>
      </trkpt>
      <trkpt lat="44.47418" lon="6.20461">
        <ele>1163</ele>
        <time>2025-11-21T13:00:02.000Z</time>
      </trkpt>
      <trkpt lat="44.47416" lon="6.20462">
        <ele>1163</ele>
        <time>2025-11-21T13:00:03.000Z</time>
      </trkpt>
      <trkpt lat="44.47415" lon="6.20462">
        <ele>1162</ele>
        <time>2025-11-21T13:00:04.000Z</time>
      </trkpt>
      <trkpt lat="44.47414" lon="6.20463">
        <ele>1163</ele>
        <time>2025-11-21T13:00:05.000Z</time>
      </trkpt>
      <trkpt lat="44.47412" lon="6.20463">
        <ele>1162</ele>
        <time>2025-11-21T13:00:06.000Z</time>
      </trkpt>
      <trkpt lat="44.47411" lon="6.20463">
        <ele>1162</ele>
        <time>2025-11-21T13:00:07.000Z</time>
      </trkpt>
      <trkpt lat="44.4741" lon="6.20463">
        <ele>1161</ele>
        <time>2025-11-21T13:00:08.000Z</time>
      </trkpt>
      <trkpt lat="44.47409" lon="6.20463">
        <ele>1161</ele>
        <time>2025-11-21T13:00:09.000Z</time>
      </trkpt>
      <trkpt lat="44.47407" lon="6.20463">
        <ele>1161</ele>
        <time>2025-11-21T13:00:10.000Z</time>
      </trkpt>
      <trkpt lat="44.47406" lon="6.20463">
        <ele>1160</ele>
        <time>2025-11-21T13:00:11.000Z</time>
      </trkpt>
      <trkpt lat="44.47404" lon="6.20463">
        <ele>1161</ele>
        <time>2025-11-21T13:00:12.000Z</time>
      </trkpt>
      <trkpt lat="44.47403" lon="6.20463">
        <ele>1160</ele>
        <time>2025-11-21T13:00:13.000Z</time>
      </trkpt>
      <trkpt lat="44.47402" lon="6.20464">
        <ele>1159</ele>
        <time>2025-11-21T13:00:14.000Z</time>
      </trkpt>
      <trkpt lat="44.474" lon="6.20465">
        <ele>1159</ele>
        <time>2025-11-21T13:00:15.000Z</time>
      </trkpt>
      <trkpt lat="44.47399" lon="6.20465">
        <ele>1160</ele>
        <time>2025-11-21T13:00:16.000Z</time>
      </trkpt>
      <trkpt lat="44.47398" lon="6.20465">
        <ele>1159</ele>
        <time>2025-11-21T13:00:17.000Z</time>
      </trkpt>
      <trkpt lat="44.47397" lon="6.20465">
        <ele>1159</ele>
        <time>2025-11-21T13:00:18.000Z</time>
      </trkpt>
      <trkpt lat="44.47396" lon="6.20464">
        <ele>1158</ele>
        <time>2025-11-21T13:00:19.000Z</time>
      </trkpt>
      <trkpt lat="44.47394" lon="6.20464">
        <ele>1159</ele>
        <time>2025-11-21T13:00:20.000Z</time>
      </trkpt>
      <trkpt lat="44.47394" lon="6.20464">
        <ele>1159</ele>
        <time>2025-11-21T13:00:21.000Z</time>
      </trkpt>
      <trkpt lat="44.47394" lon="6.20464">
        <ele>1159</ele>
        <time>2025-11-21T13:00:22.000Z</time>
      </trkpt>
      <trkpt lat="44.47392" lon="6.20462">
        <ele>1158</ele>
        <time>2025-11-21T13:00:23.000Z</time>
      </trkpt>
      <trkpt lat="44.47391" lon="6.20462">
        <ele>1158</ele>
        <time>2025-11-21T13:00:24.000Z</time>
      </trkpt>
      <trkpt lat="44.4739" lon="6.20462">
        <ele>1157</ele>
        <time>2025-11-21T13:00:25.000Z</time>
      </trkpt>
      <trkpt lat="44.47389" lon="6.20461">
        <ele>1157</ele>
        <time>2025-11-21T13:00:26.000Z</time>
      </trkpt>
      <trkpt lat="44.47388" lon="6.2046">
        <ele>1157</ele>
        <time>2025-11-21T13:00:27.000Z</time>
      </trkpt>
      <trkpt lat="44.47387" lon="6.2046">
        <ele>1156</ele>
        <time>2025-11-21T13:00:28.000Z</time>
      </trkpt>
      <trkpt lat="44.47386" lon="6.20459">
        <ele>1157</ele>
        <time>2025-11-21T13:00:29.000Z</time>
      </trkpt>
      <trkpt lat="44.47384" lon="6.20459">
        <ele>1156</ele>
        <time>2025-11-21T13:00:30.000Z</time>
      </trkpt>
      <trkpt lat="44.47383" lon="6.20458">
        <ele>1155</ele>
        <time>2025-11-21T13:00:31.000Z</time>
      </trkpt>
      <trkpt lat="44.47382" lon="6.20458">
        <ele>1155</ele>
        <time>2025-11-21T13:00:32.000Z</time>
      </trkpt>
      <trkpt lat="44.47381" lon="6.20458">
        <ele>1155</ele>
        <time>2025-11-21T13:00:33.000Z</time>
      </trkpt>
      <trkpt lat="44.47379" lon="6.20458">
        <ele>1155</ele>
        <time>2025-11-21T13:00:34.000Z</time>
      </trkpt>
      <trkpt lat="44.47378" lon="6.20459">
        <ele>1154</ele>
        <time>2025-11-21T13:00:35.000Z</time>
      </trkpt>
      <trkpt lat="44.47377" lon="6.20459">
        <ele>1154</ele>
        <time>2025-11-21T13:00:36.000Z</time>
      </trkpt>
      <trkpt lat="44.47377" lon="6.20459">
        <ele>1154</ele>
        <time>2025-11-21T13:00:37.000Z</time>
      </trkpt>
      <trkpt lat="44.47377" lon="6.20459">
        <ele>1154</ele>
        <time>2025-11-21T13:00:38.000Z</time>
      </trkpt>
      <trkpt lat="44.47377" lon="6.20459">
        <ele>1154</ele>
        <time>2025-11-21T13:00:39.000Z</time>
      </trkpt>
      <trkpt lat="44.47377" lon="6.20459">
        <ele>1154</ele>
        <time>2025-11-21T13:00:40.000Z</time>
      </trkpt>
      <trkpt lat="44.47376" lon="6.20458">
        <ele>1155</ele>
        <time>2025-11-21T13:00:41.000Z</time>
      </trkpt>
      <trkpt lat="44.47376" lon="6.20458">
        <ele>1155</ele>
        <time>2025-11-21T13:00:42.000Z</time>
      </trkpt>
      <trkpt lat="44.47375" lon="6.20457">
        <ele>1156</ele>
        <time>2025-11-21T13:00:43.000Z</time>
      </trkpt>
      <trkpt lat="44.47374" lon="6.20457">
        <ele>1156</ele>
        <time>2025-11-21T13:00:44.000Z</time>
      </trkpt>
      <trkpt lat="44.47373" lon="6.20457">
        <ele>1156</ele>
        <time>2025-11-21T13:00:45.000Z</time>
      </trkpt>
      <trkpt lat="44.47373" lon="6.20456">
        <ele>1156</ele>
        <time>2025-11-21T13:00:46.000Z</time>
      </trkpt>
      <trkpt lat="44.47367" lon="6.20456">
        <ele>1156</ele>
        <time>2025-11-21T13:01:20.000Z</time>
      </trkpt>
      <trkpt lat="44.47366" lon="6.20456">
        <ele>1155</ele>
        <time>2025-11-21T13:01:21.000Z</time>
      </trkpt>
      <trkpt lat="44.47365" lon="6.20457">
        <ele>1155</ele>
        <time>2025-11-21T13:01:22.000Z</time>
      </trkpt>
      <trkpt lat="44.47363" lon="6.20457">
        <ele>1155</ele>
        <time>2025-11-21T13:01:23.000Z</time>
      </trkpt>
      <trkpt lat="44.47363" lon="6.20457">
        <ele>1155</ele>
        <time>2025-11-21T13:01:24.000Z</time>
      </trkpt>
      <trkpt lat="44.47362" lon="6.20458">
        <ele>1155</ele>
        <time>2025-11-21T13:01:25.000Z</time>
      </trkpt>
      <trkpt lat="44.47361" lon="6.20458">
        <ele>1155</ele>
        <time>2025-11-21T13:01:26.000Z</time>
      </trkpt>
      <trkpt lat="44.4736" lon="6.20458">
        <ele>1155</ele>
        <time>2025-11-21T13:01:27.000Z</time>
      </trkpt>
      <trkpt lat="44.47359" lon="6.20459">
        <ele>1155</ele>
        <time>2025-11-21T13:01:28.000Z</time>
      </trkpt>
      <trkpt lat="44.47358" lon="6.2046">
        <ele>1155</ele>
        <time>2025-11-21T13:01:29.000Z</time>
      </trkpt>
      <trkpt lat="44.47357" lon="6.2046">
        <ele>1155</ele>
        <time>2025-11-21T13:01:30.000Z</time>
      </trkpt>
      <trkpt lat="44.47356" lon="6.20461">
        <ele>1155</ele>
        <time>2025-11-21T13:01:31.000Z</time>
      </trkpt>
      <trkpt lat="44.47355" lon="6.20462">
        <ele>1155</ele>
        <time>2025-11-21T13:01:32.000Z</time>
      </trkpt>
      <trkpt lat="44.47353" lon="6.20463">
        <ele>1155</ele>
        <time>2025-11-21T13:01:33.000Z</time>
      </trkpt>
      <trkpt lat="44.47353" lon="6.20464">
        <ele>1155</ele>
        <time>2025-11-21T13:01:34.000Z</time>
      </trkpt>
      <trkpt lat="44.47351" lon="6.20464">
        <ele>1154</ele>
        <time>2025-11-21T13:01:35.000Z</time>
      </trkpt>
      <trkpt lat="44.4735" lon="6.20465">
        <ele>1154</ele>
        <time>2025-11-21T13:01:36.000Z</time>
      </trkpt>
      <trkpt lat="44.47349" lon="6.20466">
        <ele>1154</ele>
        <time>2025-11-21T13:01:37.000Z</time>
      </trkpt>
      <trkpt lat="44.47348" lon="6.20466">
        <ele>1154</ele>
        <time>2025-11-21T13:01:38.000Z</time>
      </trkpt>
      <trkpt lat="44.47347" lon="6.20467">
        <ele>1154</ele>
        <time>2025-11-21T13:01:39.000Z</time>
      </trkpt>
      <trkpt lat="44.47346" lon="6.20467">
        <ele>1154</ele>
        <time>2025-11-21T13:01:40.000Z</time>
      </trkpt>
      <trkpt lat="44.47345" lon="6.20467">
        <ele>1154</ele>
        <time>2025-11-21T13:01:41.000Z</time>
      </trkpt>
      <trkpt lat="44.47344" lon="6.20468">
        <ele>1154</ele>
        <time>2025-11-21T13:01:42.000Z</time>
      </trkpt>
      <trkpt lat="44.47343" lon="6.20468">
        <ele>1154</ele>
        <time>2025-11-21T13:01:43.000Z</time>
      </trkpt>
      <trkpt lat="44.47342" lon="6.20468">
        <ele>1154</ele>
        <time>2025-11-21T13:01:44.000Z</time>
      </trkpt>
      <trkpt lat="44.47341" lon="6.20468">
        <ele>1154</ele>
        <time>2025-11-21T13:01:45.000Z</time>
      </trkpt>
      <trkpt lat="44.4734" lon="6.20468">
        <ele>1155</ele>
        <time>2025-11-21T13:01:46.000Z</time>
      </trkpt>
      <trkpt lat="44.47339" lon="6.20469">
        <ele>1154</ele>
        <time>2025-11-21T13:01:47.000Z</time>
      </trkpt>
      <trkpt lat="44.47337" lon="6.20469">
        <ele>1154</ele>
        <time>2025-11-21T13:01:48.000Z</time>
      </trkpt>
      <trkpt lat="44.47336" lon="6.2047">
        <ele>1154</ele>
        <time>2025-11-21T13:01:49.000Z</time>
      </trkpt>
      <trkpt lat="44.47335" lon="6.20471">
        <ele>1154</ele>
        <time>2025-11-21T13:01:50.000Z</time>
      </trkpt>
      <trkpt lat="44.47335" lon="6.20472">
        <ele>1154</ele>
        <time>2025-11-21T13:01:51.000Z</time>
      </trkpt>
      <trkpt lat="44.47335" lon="6.20473">
        <ele>1154</ele>
        <time>2025-11-21T13:01:52.000Z</time>
      </trkpt>
      <trkpt lat="44.47334" lon="6.20474">
        <ele>1153</ele>
        <time>2025-11-21T13:01:53.000Z</time>
      </trkpt>
      <trkpt lat="44.47333" lon="6.20474">
        <ele>1153</ele>
        <time>2025-11-21T13:01:54.000Z</time>
      </trkpt>
      <trkpt lat="44.47333" lon="6.20475">
        <ele>1152</ele>
        <time>2025-11-21T13:01:55.000Z</time>
      </trkpt>
      <trkpt lat="44.47332" lon="6.20475">
        <ele>1152</ele>
        <time>2025-11-21T13:01:56.000Z</time>
      </trkpt>
      <trkpt lat="44.47331" lon="6.20476">
        <ele>1151</ele>
        <time>2025-11-21T13:01:57.000Z</time>
      </trkpt>
      <trkpt lat="44.4733" lon="6.20476">
        <ele>1151</ele>
        <time>2025-11-21T13:01:58.000Z</time>
      </trkpt>
      <trkpt lat="44.47329" lon="6.20476">
        <ele>1151</ele>
        <time>2025-11-21T13:01:59.000Z</time>
      </trkpt>
      <trkpt lat="44.47329" lon="6.20476">
        <ele>1151</ele>
        <time>2025-11-21T13:02:00.000Z</time>
      </trkpt>
      <trkpt lat="44.47328" lon="6.20477">
        <ele>1150</ele>
        <time>2025-11-21T13:02:01.000Z</time>
      </trkpt>
      <trkpt lat="44.47327" lon="6.20477">
        <ele>1149</ele>
        <time>2025-11-21T13:02:02.000Z</time>
      </trkpt>
      <trkpt lat="44.47326" lon="6.20478">
        <ele>1149</ele>
        <time>2025-11-21T13:02:03.000Z</time>
      </trkpt>
      <trkpt lat="44.47324" lon="6.20479">
        <ele>1148</ele>
        <time>2025-11-21T13:02:04.000Z</time>
      </trkpt>
      <trkpt lat="44.47323" lon="6.2048">
        <ele>1148</ele>
        <time>2025-11-21T13:02:05.000Z</time>
      </trkpt>
      <trkpt lat="44.47322" lon="6.20481">
        <ele>1147</ele>
        <time>2025-11-21T13:02:06.000Z</time>
      </trkpt>
      <trkpt lat="44.47322" lon="6.20482">
        <ele>1147</ele>
        <time>2025-11-21T13:02:07.000Z</time>
      </trkpt>
      <trkpt lat="44.47321" lon="6.20482">
        <ele>1147</ele>
        <time>2025-11-21T13:02:08.000Z</time>
      </trkpt>
      <trkpt lat="44.47321" lon="6.20483">
        <ele>1147</ele>
        <time>2025-11-21T13:02:09.000Z</time>
      </trkpt>
      <trkpt lat="44.4732" lon="6.20483">
        <ele>1147</ele>
        <time>2025-11-21T13:02:10.000Z</time>
      </trkpt>
      <trkpt lat="44.47319" lon="6.20484">
        <ele>1147</ele>
        <time>2025-11-21T13:02:11.000Z</time>
      </trkpt>
      <trkpt lat="44.47318" lon="6.20484">
        <ele>1146</ele>
        <time>2025-11-21T13:02:12.000Z</time>
      </trkpt>
      <trkpt lat="44.47317" lon="6.20485">
        <ele>1146</ele>
        <time>2025-11-21T13:02:13.000Z</time>
      </trkpt>
      <trkpt lat="44.47316" lon="6.20485">
        <ele>1145</ele>
        <time>2025-11-21T13:02:14.000Z</time>
      </trkpt>
      <trkpt lat="44.47314" lon="6.20485">
        <ele>1145</ele>
        <time>2025-11-21T13:02:15.000Z</time>
      </trkpt>
      <trkpt lat="44.47313" lon="6.20486">
        <ele>1145</ele>
        <time>2025-11-21T13:02:16.000Z</time>
      </trkpt>
      <trkpt lat="44.47312" lon="6.20486">
        <ele>1145</ele>
        <time>2025-11-21T13:02:17.000Z</time>
      </trkpt>
      <trkpt lat="44.4731" lon="6.20487">
        <ele>1144</ele>
        <time>2025-11-21T13:02:18.000Z</time>
      </trkpt>
      <trkpt lat="44.47309" lon="6.20487">
        <ele>1144</ele>
        <time>2025-11-21T13:02:19.000Z</time>
      </trkpt>
      <trkpt lat="44.47307" lon="6.20487">
        <ele>1144</ele>
        <time>2025-11-21T13:02:20.000Z</time>
      </trkpt>
      <trkpt lat="44.47306" lon="6.20488">
        <ele>1145</ele>
        <time>2025-11-21T13:02:21.000Z</time>
      </trkpt>
      <trkpt lat="44.47305" lon="6.20488">
        <ele>1145</ele>
        <time>2025-11-21T13:02:22.000Z</time>
      </trkpt>
      <trkpt lat="44.47303" lon="6.20488">
        <ele>1144</ele>
        <time>2025-11-21T13:02:23.000Z</time>
      </trkpt>
      <trkpt lat="44.47302" lon="6.20489">
        <ele>1144</ele>
        <time>2025-11-21T13:02:24.000Z</time>
      </trkpt>
      <trkpt lat="44.47301" lon="6.20489">
        <ele>1144</ele>
        <time>2025-11-21T13:02:25.000Z</time>
      </trkpt>
      <trkpt lat="44.47299" lon="6.20489">
        <ele>1143</ele>
        <time>2025-11-21T13:02:26.000Z</time>
      </trkpt>
      <trkpt lat="44.47298" lon="6.20489">
        <ele>1142</ele>
        <time>2025-11-21T13:02:27.000Z</time>
      </trkpt>
      <trkpt lat="44.47297" lon="6.20489">
        <ele>1142</ele>
        <time>2025-11-21T13:02:28.000Z</time>
      </trkpt>
      <trkpt lat="44.47296" lon="6.20489">
        <ele>1142</ele>
        <time>2025-11-21T13:02:29.000Z</time>
      </trkpt>
      <trkpt lat="44.47295" lon="6.20489">
        <ele>1142</ele>
        <time>2025-11-21T13:02:30.000Z</time>
      </trkpt>
      <trkpt lat="44.47294" lon="6.20488">
        <ele>1141</ele>
        <time>2025-11-21T13:02:31.000Z</time>
      </trkpt>
      <trkpt lat="44.47294" lon="6.20488">
        <ele>1141</ele>
        <time>2025-11-21T13:02:32.000Z</time>
      </trkpt>
      <trkpt lat="44.47293" lon="6.20487">
        <ele>1140</ele>
        <time>2025-11-21T13:02:33.000Z</time>
      </trkpt>
      <trkpt lat="44.47292" lon="6.20487">
        <ele>1141</ele>
        <time>2025-11-21T13:02:34.000Z</time>
      </trkpt>
      <trkpt lat="44.47291" lon="6.20486">
        <ele>1140</ele>
        <time>2025-11-21T13:02:35.000Z</time>
      </trkpt>
      <trkpt lat="44.47291" lon="6.20485">
        <ele>1140</ele>
        <time>2025-11-21T13:02:36.000Z</time>
      </trkpt>
      <trkpt lat="44.4729" lon="6.20484">
        <ele>1139</ele>
        <time>2025-11-21T13:02:37.000Z</time>
      </trkpt>
      <trkpt lat="44.47288" lon="6.20484">
        <ele>1139</ele>
        <time>2025-11-21T13:02:38.000Z</time>
      </trkpt>
      <trkpt lat="44.47287" lon="6.20485">
        <ele>1139</ele>
        <time>2025-11-21T13:02:39.000Z</time>
      </trkpt>
      <trkpt lat="44.47286" lon="6.20485">
        <ele>1139</ele>
        <time>2025-11-21T13:02:40.000Z</time>
      </trkpt>
      <trkpt lat="44.47285" lon="6.20485">
        <ele>1139</ele>
        <time>2025-11-21T13:02:41.000Z</time>
      </trkpt>
      <trkpt lat="44.47284" lon="6.20486">
        <ele>1140</ele>
        <time>2025-11-21T13:02:42.000Z</time>
      </trkpt>
      <trkpt lat="44.47284" lon="6.20486">
        <ele>1140</ele>
        <time>2025-11-21T13:02:43.000Z</time>
      </trkpt>
      <trkpt lat="44.47284" lon="6.20486">
        <ele>1140</ele>
        <time>2025-11-21T13:02:44.000Z</time>
      </trkpt>
      <trkpt lat="44.47285" lon="6.20487">
        <ele>1140</ele>
        <time>2025-11-21T13:02:45.000Z</time>
      </trkpt>
      <trkpt lat="44.47285" lon="6.20488">
        <ele>1140</ele>
        <time>2025-11-21T13:02:46.000Z</time>
      </trkpt>
      <trkpt lat="44.47285" lon="6.20489">
        <ele>1140</ele>
        <time>2025-11-21T13:02:47.000Z</time>
      </trkpt>
      <trkpt lat="44.47285" lon="6.2049">
        <ele>1140</ele>
        <time>2025-11-21T13:02:48.000Z</time>
      </trkpt>
      <trkpt lat="44.47285" lon="6.2049">
        <ele>1140</ele>
        <time>2025-11-21T13:02:49.000Z</time>
      </trkpt>
      <trkpt lat="44.47285" lon="6.2049">
        <ele>1141</ele>
        <time>2025-11-21T13:02:50.000Z</time>
      </trkpt>
      <trkpt lat="44.47285" lon="6.20491">
        <ele>1141</ele>
        <time>2025-11-21T13:02:51.000Z</time>
      </trkpt>
      <trkpt lat="44.47285" lon="6.20492">
        <ele>1141</ele>
        <time>2025-11-21T13:02:52.000Z</time>
      </trkpt>
      <trkpt lat="44.47286" lon="6.20491">
        <ele>1142</ele>
        <time>2025-11-21T13:02:53.000Z</time>
      </trkpt>
      <trkpt lat="44.47286" lon="6.20492">
        <ele>1142</ele>
        <time>2025-11-21T13:02:54.000Z</time>
      </trkpt>
      <trkpt lat="44.47287" lon="6.20493">
        <ele>1141</ele>
        <time>2025-11-21T13:02:55.000Z</time>
      </trkpt>
      <trkpt lat="44.47287" lon="6.20495">
        <ele>1142</ele>
        <time>2025-11-21T13:02:56.000Z</time>
      </trkpt>
      <trkpt lat="44.47288" lon="6.20496">
        <ele>1142</ele>
        <time>2025-11-21T13:02:57.000Z</time>
      </trkpt>
      <trkpt lat="44.47288" lon="6.20496">
        <ele>1142</ele>
        <time>2025-11-21T13:02:58.000Z</time>
      </trkpt>
      <trkpt lat="44.47289" lon="6.20497">
        <ele>1142</ele>
        <time>2025-11-21T13:02:59.000Z</time>
      </trkpt>
      <trkpt lat="44.4729" lon="6.20497">
        <ele>1144</ele>
        <time>2025-11-21T13:03:00.000Z</time>
      </trkpt>
      <trkpt lat="44.47291" lon="6.20497">
        <ele>1143</ele>
        <time>2025-11-21T13:03:01.000Z</time>
      </trkpt>
      <trkpt lat="44.47292" lon="6.20498">
        <ele>1144</ele>
        <time>2025-11-21T13:03:02.000Z</time>
      </trkpt>
      <trkpt lat="44.47293" lon="6.20499">
        <ele>1144</ele>
        <time>2025-11-21T13:03:03.000Z</time>
      </trkpt>
      <trkpt lat="44.47294" lon="6.205">
        <ele>1143</ele>
        <time>2025-11-21T13:03:04.000Z</time>
      </trkpt>
      <trkpt lat="44.47295" lon="6.20501">
        <ele>1143</ele>
        <time>2025-11-21T13:03:05.000Z</time>
      </trkpt>
      <trkpt lat="44.47296" lon="6.20502">
        <ele>1143</ele>
        <time>2025-11-21T13:03:06.000Z</time>
      </trkpt>
      <trkpt lat="44.47297" lon="6.20501">
        <ele>1142</ele>
        <time>2025-11-21T13:03:07.000Z</time>
      </trkpt>
      <trkpt lat="44.47297" lon="6.20502">
        <ele>1142</ele>
        <time>2025-11-21T13:03:08.000Z</time>
      </trkpt>
      <trkpt lat="44.47298" lon="6.20503">
        <ele>1141</ele>
        <time>2025-11-21T13:03:09.000Z</time>
      </trkpt>
      <trkpt lat="44.47299" lon="6.20504">
        <ele>1140</ele>
        <time>2025-11-21T13:03:10.000Z</time>
      </trkpt>
      <trkpt lat="44.473" lon="6.20505">
        <ele>1141</ele>
        <time>2025-11-21T13:03:11.000Z</time>
      </trkpt>
      <trkpt lat="44.47301" lon="6.20506">
        <ele>1141</ele>
        <time>2025-11-21T13:03:12.000Z</time>
      </trkpt>
      <trkpt lat="44.47302" lon="6.20507">
        <ele>1141</ele>
        <time>2025-11-21T13:03:13.000Z</time>
      </trkpt>
      <trkpt lat="44.47303" lon="6.20507">
        <ele>1141</ele>
        <time>2025-11-21T13:03:14.000Z</time>
      </trkpt>
      <trkpt lat="44.47305" lon="6.20508">
        <ele>1141</ele>
        <time>2025-11-21T13:03:15.000Z</time>
      </trkpt>
      <trkpt lat="44.47306" lon="6.20508">
        <ele>1141</ele>
        <time>2025-11-21T13:03:16.000Z</time>
      </trkpt>
      <trkpt lat="44.47307" lon="6.20508">
        <ele>1141</ele>
        <time>2025-11-21T13:03:17.000Z</time>
      </trkpt>
      <trkpt lat="44.47307" lon="6.20508">
        <ele>1141</ele>
        <time>2025-11-21T13:03:18.000Z</time>
      </trkpt>
      <trkpt lat="44.47308" lon="6.20509">
        <ele>1140</ele>
        <time>2025-11-21T13:03:19.000Z</time>
      </trkpt>
      <trkpt lat="44.47309" lon="6.2051">
        <ele>1140</ele>
        <time>2025-11-21T13:03:20.000Z</time>
      </trkpt>
      <trkpt lat="44.4731" lon="6.2051">
        <ele>1140</ele>
        <time>2025-11-21T13:03:21.000Z</time>
      </trkpt>
      <trkpt lat="44.47311" lon="6.20511">
        <ele>1140</ele>
        <time>2025-11-21T13:03:22.000Z</time>
      </trkpt>
      <trkpt lat="44.47311" lon="6.20513">
        <ele>1139</ele>
        <time>2025-11-21T13:03:23.000Z</time>
      </trkpt>
      <trkpt lat="44.47312" lon="6.20514">
        <ele>1139</ele>
        <time>2025-11-21T13:03:24.000Z</time>
      </trkpt>
      <trkpt lat="44.47312" lon="6.20515">
        <ele>1139</ele>
        <time>2025-11-21T13:03:25.000Z</time>
      </trkpt>
      <trkpt lat="44.47314" lon="6.20516">
        <ele>1139</ele>
        <time>2025-11-21T13:03:26.000Z</time>
      </trkpt>
      <trkpt lat="44.47314" lon="6.20518">
        <ele>1139</ele>
        <time>2025-11-21T13:03:27.000Z</time>
      </trkpt>
      <trkpt lat="44.47314" lon="6.20519">
        <ele>1139</ele>
        <time>2025-11-21T13:03:28.000Z</time>
      </trkpt>
      <trkpt lat="44.47315" lon="6.2052">
        <ele>1139</ele>
        <time>2025-11-21T13:03:29.000Z</time>
      </trkpt>
      <trkpt lat="44.47317" lon="6.2052">
        <ele>1139</ele>
        <time>2025-11-21T13:03:30.000Z</time>
      </trkpt>
      <trkpt lat="44.47317" lon="6.20521">
        <ele>1138</ele>
        <time>2025-11-21T13:03:31.000Z</time>
      </trkpt>
      <trkpt lat="44.47319" lon="6.20522">
        <ele>1139</ele>
        <time>2025-11-21T13:03:32.000Z</time>
      </trkpt>
      <trkpt lat="44.4732" lon="6.20523">
        <ele>1139</ele>
        <time>2025-11-21T13:03:33.000Z</time>
      </trkpt>
      <trkpt lat="44.47321" lon="6.20523">
        <ele>1139</ele>
        <time>2025-11-21T13:03:34.000Z</time>
      </trkpt>
      <trkpt lat="44.47323" lon="6.20524">
        <ele>1138</ele>
        <time>2025-11-21T13:03:35.000Z</time>
      </trkpt>
      <trkpt lat="44.47324" lon="6.20525">
        <ele>1138</ele>
        <time>2025-11-21T13:03:36.000Z</time>
      </trkpt>
      <trkpt lat="44.47324" lon="6.20525">
        <ele>1139</ele>
        <time>2025-11-21T13:03:37.000Z</time>
      </trkpt>
      <trkpt lat="44.47325" lon="6.20527">
        <ele>1138</ele>
        <time>2025-11-21T13:03:38.000Z</time>
      </trkpt>
      <trkpt lat="44.47326" lon="6.20527">
        <ele>1138</ele>
        <time>2025-11-21T13:03:39.000Z</time>
      </trkpt>
      <trkpt lat="44.47326" lon="6.20528">
        <ele>1137</ele>
        <time>2025-11-21T13:03:40.000Z</time>
      </trkpt>
      <trkpt lat="44.47327" lon="6.20527">
        <ele>1136</ele>
        <time>2025-11-21T13:03:41.000Z</time>
      </trkpt>
      <trkpt lat="44.47328" lon="6.20527">
        <ele>1136</ele>
        <time>2025-11-21T13:03:42.000Z</time>
      </trkpt>
      <trkpt lat="44.47329" lon="6.20527">
        <ele>1135</ele>
        <time>2025-11-21T13:03:43.000Z</time>
      </trkpt>
      <trkpt lat="44.4733" lon="6.20527">
        <ele>1134</ele>
        <time>2025-11-21T13:03:44.000Z</time>
      </trkpt>
      <trkpt lat="44.47331" lon="6.20528">
        <ele>1134</ele>
        <time>2025-11-21T13:03:45.000Z</time>
      </trkpt>
      <trkpt lat="44.47332" lon="6.20529">
        <ele>1134</ele>
        <time>2025-11-21T13:03:46.000Z</time>
      </trkpt>
      <trkpt lat="44.47332" lon="6.20529">
        <ele>1134</ele>
        <time>2025-11-21T13:03:47.000Z</time>
      </trkpt>
      <trkpt lat="44.47333" lon="6.20529">
        <ele>1134</ele>
        <time>2025-11-21T13:03:48.000Z</time>
      </trkpt>
      <trkpt lat="44.47334" lon="6.2053">
        <ele>1134</ele>
        <time>2025-11-21T13:03:49.000Z</time>
      </trkpt>
      <trkpt lat="44.47334" lon="6.2053">
        <ele>1134</ele>
        <time>2025-11-21T13:03:50.000Z</time>
      </trkpt>
      <trkpt lat="44.47336" lon="6.2053">
        <ele>1134</ele>
        <time>2025-11-21T13:03:51.000Z</time>
      </trkpt>
      <trkpt lat="44.47338" lon="6.2053">
        <ele>1134</ele>
        <time>2025-11-21T13:03:52.000Z</time>
      </trkpt>
      <trkpt lat="44.47339" lon="6.20531">
        <ele>1134</ele>
        <time>2025-11-21T13:03:53.000Z</time>
      </trkpt>
      <trkpt lat="44.4734" lon="6.20532">
        <ele>1134</ele>
        <time>2025-11-21T13:03:54.000Z</time>
      </trkpt>
      <trkpt lat="44.47341" lon="6.20532">
        <ele>1134</ele>
        <time>2025-11-21T13:03:55.000Z</time>
      </trkpt>
      <trkpt lat="44.47342" lon="6.20533">
        <ele>1134</ele>
        <time>2025-11-21T13:03:56.000Z</time>
      </trkpt>
      <trkpt lat="44.47343" lon="6.20533">
        <ele>1134</ele>
        <time>2025-11-21T13:03:57.000Z</time>
      </trkpt>
      <trkpt lat="44.47345" lon="6.20533">
        <ele>1133</ele>
        <time>2025-11-21T13:03:58.000Z</time>
      </trkpt>
      <trkpt lat="44.47346" lon="6.20534">
        <ele>1133</ele>
        <time>2025-11-21T13:03:59.000Z</time>
      </trkpt>
      <trkpt lat="44.47347" lon="6.20534">
        <ele>1133</ele>
        <time>2025-11-21T13:04:00.000Z</time>
      </trkpt>
      <trkpt lat="44.47348" lon="6.20534">
        <ele>1132</ele>
        <time>2025-11-21T13:04:01.000Z</time>
      </trkpt>
      <trkpt lat="44.47349" lon="6.20535">
        <ele>1132</ele>
        <time>2025-11-21T13:04:02.000Z</time>
      </trkpt>
      <trkpt lat="44.47351" lon="6.20535">
        <ele>1132</ele>
        <time>2025-11-21T13:04:03.000Z</time>
      </trkpt>
      <trkpt lat="44.47352" lon="6.20536">
        <ele>1132</ele>
        <time>2025-11-21T13:04:04.000Z</time>
      </trkpt>
      <trkpt lat="44.47353" lon="6.20536">
        <ele>1132</ele>
        <time>2025-11-21T13:04:05.000Z</time>
      </trkpt>
      <trkpt lat="44.47354" lon="6.20537">
        <ele>1133</ele>
        <time>2025-11-21T13:04:06.000Z</time>
      </trkpt>
      <trkpt lat="44.47354" lon="6.20537">
        <ele>1133</ele>
        <time>2025-11-21T13:04:07.000Z</time>
      </trkpt>
      <trkpt lat="44.47354" lon="6.20537">
        <ele>1133</ele>
        <time>2025-11-21T13:04:08.000Z</time>
      </trkpt>
      <trkpt lat="44.47354" lon="6.20537">
        <ele>1133</ele>
        <time>2025-11-21T13:04:09.000Z</time>
      </trkpt>
      <trkpt lat="44.47356" lon="6.20538">
        <ele>1132</ele>
        <time>2025-11-21T13:04:10.000Z</time>
      </trkpt>
      <trkpt lat="44.47357" lon="6.20539">
        <ele>1131</ele>
        <time>2025-11-21T13:04:11.000Z</time>
      </trkpt>
      <trkpt lat="44.47358" lon="6.2054">
        <ele>1131</ele>
        <time>2025-11-21T13:04:12.000Z</time>
      </trkpt>
      <trkpt lat="44.47359" lon="6.20541">
        <ele>1131</ele>
        <time>2025-11-21T13:04:13.000Z</time>
      </trkpt>
      <trkpt lat="44.47361" lon="6.20541">
        <ele>1131</ele>
        <time>2025-11-21T13:04:14.000Z</time>
      </trkpt>
      <trkpt lat="44.47362" lon="6.20542">
        <ele>1131</ele>
        <time>2025-11-21T13:04:15.000Z</time>
      </trkpt>
      <trkpt lat="44.47363" lon="6.20542">
        <ele>1130</ele>
        <time>2025-11-21T13:04:16.000Z</time>
      </trkpt>
      <trkpt lat="44.47365" lon="6.20542">
        <ele>1130</ele>
        <time>2025-11-21T13:04:17.000Z</time>
      </trkpt>
      <trkpt lat="44.47366" lon="6.20542">
        <ele>1130</ele>
        <time>2025-11-21T13:04:18.000Z</time>
      </trkpt>
      <trkpt lat="44.47368" lon="6.20542">
        <ele>1130</ele>
        <time>2025-11-21T13:04:19.000Z</time>
      </trkpt>
      <trkpt lat="44.47369" lon="6.20541">
        <ele>1129</ele>
        <time>2025-11-21T13:04:20.000Z</time>
      </trkpt>
      <trkpt lat="44.4737" lon="6.20541">
        <ele>1129</ele>
        <time>2025-11-21T13:04:21.000Z</time>
      </trkpt>
      <trkpt lat="44.47371" lon="6.20541">
        <ele>1129</ele>
        <time>2025-11-21T13:04:22.000Z</time>
      </trkpt>
      <trkpt lat="44.47372" lon="6.20541">
        <ele>1128</ele>
        <time>2025-11-21T13:04:23.000Z</time>
      </trkpt>
      <trkpt lat="44.47373" lon="6.2054">
        <ele>1128</ele>
        <time>2025-11-21T13:04:24.000Z</time>
      </trkpt>
      <trkpt lat="44.47374" lon="6.20541">
        <ele>1127</ele>
        <time>2025-11-21T13:04:25.000Z</time>
      </trkpt>
      <trkpt lat="44.47375" lon="6.20542">
        <ele>1127</ele>
        <time>2025-11-21T13:04:26.000Z</time>
      </trkpt>
      <trkpt lat="44.47376" lon="6.20542">
        <ele>1127</ele>
        <time>2025-11-21T13:04:27.000Z</time>
      </trkpt>
      <trkpt lat="44.47377" lon="6.20542">
        <ele>1127</ele>
        <time>2025-11-21T13:04:28.000Z</time>
      </trkpt>
      <trkpt lat="44.47378" lon="6.20542">
        <ele>1127</ele>
        <time>2025-11-21T13:04:29.000Z</time>
      </trkpt>
      <trkpt lat="44.47379" lon="6.20542">
        <ele>1127</ele>
        <time>2025-11-21T13:04:30.000Z</time>
      </trkpt>
      <trkpt lat="44.47381" lon="6.20541">
        <ele>1126</ele>
        <time>2025-11-21T13:04:31.000Z</time>
      </trkpt>
      <trkpt lat="44.47383" lon="6.20541">
        <ele>1126</ele>
        <time>2025-11-21T13:04:32.000Z</time>
      </trkpt>
      <trkpt lat="44.47384" lon="6.20542">
        <ele>1126</ele>
        <time>2025-11-21T13:04:33.000Z</time>
      </trkpt>
      <trkpt lat="44.47385" lon="6.20542">
        <ele>1126</ele>
        <time>2025-11-21T13:04:34.000Z</time>
      </trkpt>
      <trkpt lat="44.47386" lon="6.20543">
        <ele>1126</ele>
        <time>2025-11-21T13:04:35.000Z</time>
      </trkpt>
      <trkpt lat="44.47387" lon="6.20544">
        <ele>1125</ele>
        <time>2025-11-21T13:04:36.000Z</time>
      </trkpt>
      <trkpt lat="44.47388" lon="6.20545">
        <ele>1125</ele>
        <time>2025-11-21T13:04:37.000Z</time>
      </trkpt>
      <trkpt lat="44.47389" lon="6.20546">
        <ele>1124</ele>
        <time>2025-11-21T13:04:38.000Z</time>
      </trkpt>
      <trkpt lat="44.4739" lon="6.20547">
        <ele>1124</ele>
        <time>2025-11-21T13:04:39.000Z</time>
      </trkpt>
      <trkpt lat="44.47391" lon="6.20548">
        <ele>1124</ele>
        <time>2025-11-21T13:04:40.000Z</time>
      </trkpt>
      <trkpt lat="44.47392" lon="6.20549">
        <ele>1123</ele>
        <time>2025-11-21T13:04:41.000Z</time>
      </trkpt>
      <trkpt lat="44.47393" lon="6.2055">
        <ele>1123</ele>
        <time>2025-11-21T13:04:42.000Z</time>
      </trkpt>
      <trkpt lat="44.47394" lon="6.2055">
        <ele>1123</ele>
        <time>2025-11-21T13:04:43.000Z</time>
      </trkpt>
      <trkpt lat="44.47395" lon="6.20551">
        <ele>1123</ele>
        <time>2025-11-21T13:04:44.000Z</time>
      </trkpt>
      <trkpt lat="44.47396" lon="6.20551">
        <ele>1122</ele>
        <time>2025-11-21T13:04:45.000Z</time>
      </trkpt>
      <trkpt lat="44.47396" lon="6.20551">
        <ele>1122</ele>
        <time>2025-11-21T13:04:46.000Z</time>
      </trkpt>
      <trkpt lat="44.47397" lon="6.20551">
        <ele>1122</ele>
        <time>2025-11-21T13:04:47.000Z</time>
      </trkpt>
      <trkpt lat="44.47397" lon="6.20552">
        <ele>1122</ele>
        <time>2025-11-21T13:04:48.000Z</time>
      </trkpt>
      <trkpt lat="44.47398" lon="6.20553">
        <ele>1122</ele>
        <time>2025-11-21T13:04:49.000Z</time>
      </trkpt>
      <trkpt lat="44.47399" lon="6.20553">
        <ele>1122</ele>
        <time>2025-11-21T13:04:50.000Z</time>
      </trkpt>
      <trkpt lat="44.47399" lon="6.20555">
        <ele>1121</ele>
        <time>2025-11-21T13:04:51.000Z</time>
      </trkpt>
      <trkpt lat="44.47401" lon="6.20556">
        <ele>1121</ele>
        <time>2025-11-21T13:04:52.000Z</time>
      </trkpt>
      <trkpt lat="44.47402" lon="6.20557">
        <ele>1121</ele>
        <time>2025-11-21T13:04:53.000Z</time>
      </trkpt>
      <trkpt lat="44.47402" lon="6.20557">
        <ele>1120</ele>
        <time>2025-11-21T13:04:54.000Z</time>
      </trkpt>
      <trkpt lat="44.47403" lon="6.20559">
        <ele>1120</ele>
        <time>2025-11-21T13:04:55.000Z</time>
      </trkpt>
      <trkpt lat="44.47405" lon="6.2056">
        <ele>1120</ele>
        <time>2025-11-21T13:04:56.000Z</time>
      </trkpt>
      <trkpt lat="44.47405" lon="6.2056">
        <ele>1120</ele>
        <time>2025-11-21T13:04:57.000Z</time>
      </trkpt>
      <trkpt lat="44.47407" lon="6.20561">
        <ele>1120</ele>
        <time>2025-11-21T13:04:58.000Z</time>
      </trkpt>
      <trkpt lat="44.47407" lon="6.20561">
        <ele>1120</ele>
        <time>2025-11-21T13:04:59.000Z</time>
      </trkpt>
      <trkpt lat="44.47408" lon="6.20564">
        <ele>1119</ele>
        <time>2025-11-21T13:05:00.000Z</time>
      </trkpt>
      <trkpt lat="44.47409" lon="6.20564">
        <ele>1119</ele>
        <time>2025-11-21T13:05:01.000Z</time>
      </trkpt>
      <trkpt lat="44.47409" lon="6.20564">
        <ele>1120</ele>
        <time>2025-11-21T13:05:02.000Z</time>
      </trkpt>
      <trkpt lat="44.4741" lon="6.20565">
        <ele>1120</ele>
        <time>2025-11-21T13:05:03.000Z</time>
      </trkpt>
      <trkpt lat="44.4741" lon="6.20565">
        <ele>1120</ele>
        <time>2025-11-21T13:05:04.000Z</time>
      </trkpt>
      <trkpt lat="44.47412" lon="6.20564">
        <ele>1119</ele>
        <time>2025-11-21T13:05:05.000Z</time>
      </trkpt>
      <trkpt lat="44.47413" lon="6.20564">
        <ele>1120</ele>
        <time>2025-11-21T13:05:06.000Z</time>
      </trkpt>
      <trkpt lat="44.47415" lon="6.20564">
        <ele>1120</ele>
        <time>2025-11-21T13:05:07.000Z</time>
      </trkpt>
      <trkpt lat="44.47417" lon="6.20563">
        <ele>1120</ele>
        <time>2025-11-21T13:05:08.000Z</time>
      </trkpt>
      <trkpt lat="44.47419" lon="6.20564">
        <ele>1120</ele>
        <time>2025-11-21T13:05:09.000Z</time>
      </trkpt>
      <trkpt lat="44.4742" lon="6.20564">
        <ele>1119</ele>
        <time>2025-11-21T13:05:10.000Z</time>
      </trkpt>
      <trkpt lat="44.47421" lon="6.20565">
        <ele>1119</ele>
        <time>2025-11-21T13:05:11.000Z</time>
      </trkpt>
      <trkpt lat="44.47422" lon="6.20566">
        <ele>1119</ele>
        <time>2025-11-21T13:05:12.000Z</time>
      </trkpt>
      <trkpt lat="44.47423" lon="6.20567">
        <ele>1118</ele>
        <time>2025-11-21T13:05:13.000Z</time>
      </trkpt>
      <trkpt lat="44.47424" lon="6.20568">
        <ele>1118</ele>
        <time>2025-11-21T13:05:14.000Z</time>
      </trkpt>
      <trkpt lat="44.47425" lon="6.20569">
        <ele>1118</ele>
        <time>2025-11-21T13:05:15.000Z</time>
      </trkpt>
      <trkpt lat="44.47426" lon="6.2057">
        <ele>1119</ele>
        <time>2025-11-21T13:05:16.000Z</time>
      </trkpt>
      <trkpt lat="44.47427" lon="6.20571">
        <ele>1119</ele>
        <time>2025-11-21T13:05:17.000Z</time>
      </trkpt>
      <trkpt lat="44.47427" lon="6.20571">
        <ele>1119</ele>
        <time>2025-11-21T13:05:18.000Z</time>
      </trkpt>
      <trkpt lat="44.47427" lon="6.20572">
        <ele>1119</ele>
        <time>2025-11-21T13:05:19.000Z</time>
      </trkpt>
      <trkpt lat="44.47427" lon="6.20572">
        <ele>1119</ele>
        <time>2025-11-21T13:05:20.000Z</time>
      </trkpt>
      <trkpt lat="44.47427" lon="6.20574">
        <ele>1119</ele>
        <time>2025-11-21T13:05:21.000Z</time>
      </trkpt>
      <trkpt lat="44.47428" lon="6.20575">
        <ele>1120</ele>
        <time>2025-11-21T13:05:22.000Z</time>
      </trkpt>
      <trkpt lat="44.47428" lon="6.20576">
        <ele>1120</ele>
        <time>2025-11-21T13:05:23.000Z</time>
      </trkpt>
      <trkpt lat="44.47428" lon="6.20577">
        <ele>1121</ele>
        <time>2025-11-21T13:05:24.000Z</time>
      </trkpt>
      <trkpt lat="44.47428" lon="6.20578">
        <ele>1120</ele>
        <time>2025-11-21T13:05:25.000Z</time>
      </trkpt>
      <trkpt lat="44.47428" lon="6.20578">
        <ele>1121</ele>
        <time>2025-11-21T13:05:26.000Z</time>
      </trkpt>
      <trkpt lat="44.47428" lon="6.2058">
        <ele>1121</ele>
        <time>2025-11-21T13:05:27.000Z</time>
      </trkpt>
      <trkpt lat="44.47428" lon="6.20582">
        <ele>1122</ele>
        <time>2025-11-21T13:05:28.000Z</time>
      </trkpt>
      <trkpt lat="44.47429" lon="6.20583">
        <ele>1122</ele>
        <time>2025-11-21T13:05:29.000Z</time>
      </trkpt>
      <trkpt lat="44.47429" lon="6.20584">
        <ele>1122</ele>
        <time>2025-11-21T13:05:30.000Z</time>
      </trkpt>
      <trkpt lat="44.47429" lon="6.20586">
        <ele>1121</ele>
        <time>2025-11-21T13:05:31.000Z</time>
      </trkpt>
      <trkpt lat="44.47429" lon="6.20587">
        <ele>1121</ele>
        <time>2025-11-21T13:05:32.000Z</time>
      </trkpt>
      <trkpt lat="44.47429" lon="6.20589">
        <ele>1121</ele>
        <time>2025-11-21T13:05:33.000Z</time>
      </trkpt>
      <trkpt lat="44.47429" lon="6.2059">
        <ele>1122</ele>
        <time>2025-11-21T13:05:34.000Z</time>
      </trkpt>
      <trkpt lat="44.47429" lon="6.20591">
        <ele>1121</ele>
        <time>2025-11-21T13:05:35.000Z</time>
      </trkpt>
      <trkpt lat="44.47429" lon="6.20592">
        <ele>1121</ele>
        <time>2025-11-21T13:05:36.000Z</time>
      </trkpt>
      <trkpt lat="44.47429" lon="6.20593">
        <ele>1122</ele>
        <time>2025-11-21T13:05:37.000Z</time>
      </trkpt>
      <trkpt lat="44.47429" lon="6.20595">
        <ele>1123</ele>
        <time>2025-11-21T13:05:38.000Z</time>
      </trkpt>
      <trkpt lat="44.47428" lon="6.20596">
        <ele>1122</ele>
        <time>2025-11-21T13:05:39.000Z</time>
      </trkpt>
      <trkpt lat="44.47428" lon="6.20597">
        <ele>1123</ele>
        <time>2025-11-21T13:05:40.000Z</time>
      </trkpt>
      <trkpt lat="44.47427" lon="6.20598">
        <ele>1122</ele>
        <time>2025-11-21T13:05:41.000Z</time>
      </trkpt>
      <trkpt lat="44.47427" lon="6.206">
        <ele>1121</ele>
        <time>2025-11-21T13:05:42.000Z</time>
      </trkpt>
      <trkpt lat="44.47426" lon="6.20601">
        <ele>1121</ele>
        <time>2025-11-21T13:05:43.000Z</time>
      </trkpt>
      <trkpt lat="44.47426" lon="6.20603">
        <ele>1121</ele>
        <time>2025-11-21T13:05:44.000Z</time>
      </trkpt>
      <trkpt lat="44.47425" lon="6.20604">
        <ele>1121</ele>
        <time>2025-11-21T13:05:45.000Z</time>
      </trkpt>
      <trkpt lat="44.47425" lon="6.20605">
        <ele>1120</ele>
        <time>2025-11-21T13:05:46.000Z</time>
      </trkpt>
      <trkpt lat="44.47424" lon="6.20607">
        <ele>1120</ele>
        <time>2025-11-21T13:05:47.000Z</time>
      </trkpt>
      <trkpt lat="44.47423" lon="6.20608">
        <ele>1120</ele>
        <time>2025-11-21T13:05:48.000Z</time>
      </trkpt>
      <trkpt lat="44.47423" lon="6.20609">
        <ele>1120</ele>
        <time>2025-11-21T13:05:49.000Z</time>
      </trkpt>
      <trkpt lat="44.47422" lon="6.20611">
        <ele>1120</ele>
        <time>2025-11-21T13:05:50.000Z</time>
      </trkpt>
      <trkpt lat="44.47421" lon="6.20613">
        <ele>1119</ele>
        <time>2025-11-21T13:05:51.000Z</time>
      </trkpt>
      <trkpt lat="44.47421" lon="6.20614">
        <ele>1119</ele>
        <time>2025-11-21T13:05:52.000Z</time>
      </trkpt>
      <trkpt lat="44.47421" lon="6.20615">
        <ele>1118</ele>
        <time>2025-11-21T13:05:53.000Z</time>
      </trkpt>
      <trkpt lat="44.4742" lon="6.20617">
        <ele>1118</ele>
        <time>2025-11-21T13:05:54.000Z</time>
      </trkpt>
      <trkpt lat="44.4742" lon="6.20619">
        <ele>1118</ele>
        <time>2025-11-21T13:05:55.000Z</time>
      </trkpt>
      <trkpt lat="44.47419" lon="6.2062">
        <ele>1118</ele>
        <time>2025-11-21T13:05:56.000Z</time>
      </trkpt>
      <trkpt lat="44.47418" lon="6.20621">
        <ele>1118</ele>
        <time>2025-11-21T13:05:57.000Z</time>
      </trkpt>
      <trkpt lat="44.47417" lon="6.20623">
        <ele>1118</ele>
        <time>2025-11-21T13:05:58.000Z</time>
      </trkpt>
      <trkpt lat="44.47416" lon="6.20624">
        <ele>1118</ele>
        <time>2025-11-21T13:05:59.000Z</time>
      </trkpt>
      <trkpt lat="44.47416" lon="6.20625">
        <ele>1118</ele>
        <time>2025-11-21T13:06:00.000Z</time>
      </trkpt>
      <trkpt lat="44.47416" lon="6.20627">
        <ele>1117</ele>
        <time>2025-11-21T13:06:01.000Z</time>
      </trkpt>
      <trkpt lat="44.47416" lon="6.20628">
        <ele>1116</ele>
        <time>2025-11-21T13:06:02.000Z</time>
      </trkpt>
      <trkpt lat="44.47416" lon="6.2063">
        <ele>1116</ele>
        <time>2025-11-21T13:06:03.000Z</time>
      </trkpt>
      <trkpt lat="44.47416" lon="6.20632">
        <ele>1116</ele>
        <time>2025-11-21T13:06:04.000Z</time>
      </trkpt>
      <trkpt lat="44.47415" lon="6.20634">
        <ele>1116</ele>
        <time>2025-11-21T13:06:05.000Z</time>
      </trkpt>
      <trkpt lat="44.47415" lon="6.20636">
        <ele>1116</ele>
        <time>2025-11-21T13:06:06.000Z</time>
      </trkpt>
      <trkpt lat="44.47415" lon="6.20637">
        <ele>1116</ele>
        <time>2025-11-21T13:06:07.000Z</time>
      </trkpt>
      <trkpt lat="44.47414" lon="6.20639">
        <ele>1115</ele>
        <time>2025-11-21T13:06:08.000Z</time>
      </trkpt>
      <trkpt lat="44.47415" lon="6.2064">
        <ele>1114</ele>
        <time>2025-11-21T13:06:09.000Z</time>
      </trkpt>
      <trkpt lat="44.47414" lon="6.20641">
        <ele>1114</ele>
        <time>2025-11-21T13:06:10.000Z</time>
      </trkpt>
      <trkpt lat="44.47415" lon="6.20643">
        <ele>1113</ele>
        <time>2025-11-21T13:06:11.000Z</time>
      </trkpt>
      <trkpt lat="44.47415" lon="6.20644">
        <ele>1112</ele>
        <time>2025-11-21T13:06:12.000Z</time>
      </trkpt>
      <trkpt lat="44.47416" lon="6.20645">
        <ele>1111</ele>
        <time>2025-11-21T13:06:13.000Z</time>
      </trkpt>
      <trkpt lat="44.47416" lon="6.20647">
        <ele>1110</ele>
        <time>2025-11-21T13:06:14.000Z</time>
      </trkpt>
      <trkpt lat="44.47416" lon="6.20648">
        <ele>1109</ele>
        <time>2025-11-21T13:06:15.000Z</time>
      </trkpt>
      <trkpt lat="44.47417" lon="6.2065">
        <ele>1109</ele>
        <time>2025-11-21T13:06:16.000Z</time>
      </trkpt>
      <trkpt lat="44.47418" lon="6.20653">
        <ele>1108</ele>
        <time>2025-11-21T13:06:17.000Z</time>
      </trkpt>
      <trkpt lat="44.47418" lon="6.20655">
        <ele>1107</ele>
        <time>2025-11-21T13:06:18.000Z</time>
      </trkpt>
      <trkpt lat="44.47418" lon="6.20657">
        <ele>1107</ele>
        <time>2025-11-21T13:06:19.000Z</time>
      </trkpt>
      <trkpt lat="44.47418" lon="6.20659">
        <ele>1107</ele>
        <time>2025-11-21T13:06:20.000Z</time>
      </trkpt>
      <trkpt lat="44.47418" lon="6.2066">
        <ele>1107</ele>
        <time>2025-11-21T13:06:21.000Z</time>
      </trkpt>
      <trkpt lat="44.47418" lon="6.20661">
        <ele>1107</ele>
        <time>2025-11-21T13:06:22.000Z</time>
      </trkpt>
      <trkpt lat="44.47419" lon="6.20662">
        <ele>1106</ele>
        <time>2025-11-21T13:06:23.000Z</time>
      </trkpt>
      <trkpt lat="44.47419" lon="6.20663">
        <ele>1106</ele>
        <time>2025-11-21T13:06:24.000Z</time>
      </trkpt>
      <trkpt lat="44.4742" lon="6.20665">
        <ele>1106</ele>
        <time>2025-11-21T13:06:25.000Z</time>
      </trkpt>
      <trkpt lat="44.47421" lon="6.20667">
        <ele>1106</ele>
        <time>2025-11-21T13:06:26.000Z</time>
      </trkpt>
      <trkpt lat="44.47422" lon="6.20668">
        <ele>1105</ele>
        <time>2025-11-21T13:06:27.000Z</time>
      </trkpt>
      <trkpt lat="44.47422" lon="6.2067">
        <ele>1105</ele>
        <time>2025-11-21T13:06:28.000Z</time>
      </trkpt>
      <trkpt lat="44.47423" lon="6.20672">
        <ele>1105</ele>
        <time>2025-11-21T13:06:29.000Z</time>
      </trkpt>
      <trkpt lat="44.47424" lon="6.20675">
        <ele>1105</ele>
        <time>2025-11-21T13:06:30.000Z</time>
      </trkpt>
      <trkpt lat="44.47425" lon="6.20677">
        <ele>1105</ele>
        <time>2025-11-21T13:06:31.000Z</time>
      </trkpt>
      <trkpt lat="44.47425" lon="6.20679">
        <ele>1105</ele>
        <time>2025-11-21T13:06:32.000Z</time>
      </trkpt>
      <trkpt lat="44.47425" lon="6.20681">
        <ele>1105</ele>
        <time>2025-11-21T13:06:33.000Z</time>
      </trkpt>
      <trkpt lat="44.47425" lon="6.20682">
        <ele>1105</ele>
        <time>2025-11-21T13:06:34.000Z</time>
      </trkpt>
      <trkpt lat="44.47425" lon="6.20684">
        <ele>1105</ele>
        <time>2025-11-21T13:06:35.000Z</time>
      </trkpt>
      <trkpt lat="44.47426" lon="6.20686">
        <ele>1105</ele>
        <time>2025-11-21T13:06:36.000Z</time>
      </trkpt>
      <trkpt lat="44.47426" lon="6.20688">
        <ele>1105</ele>
        <time>2025-11-21T13:06:37.000Z</time>
      </trkpt>
      <trkpt lat="44.47427" lon="6.20689">
        <ele>1105</ele>
        <time>2025-11-21T13:06:38.000Z</time>
      </trkpt>
      <trkpt lat="44.47428" lon="6.2069">
        <ele>1105</ele>
        <time>2025-11-21T13:06:39.000Z</time>
      </trkpt>
      <trkpt lat="44.47428" lon="6.20692">
        <ele>1105</ele>
        <time>2025-11-21T13:06:40.000Z</time>
      </trkpt>
      <trkpt lat="44.47428" lon="6.20693">
        <ele>1105</ele>
        <time>2025-11-21T13:06:41.000Z</time>
      </trkpt>
      <trkpt lat="44.47428" lon="6.20695">
        <ele>1105</ele>
        <time>2025-11-21T13:06:42.000Z</time>
      </trkpt>
      <trkpt lat="44.47428" lon="6.20698">
        <ele>1105</ele>
        <time>2025-11-21T13:06:43.000Z</time>
      </trkpt>
      <trkpt lat="44.47429" lon="6.20699">
        <ele>1104</ele>
        <time>2025-11-21T13:06:44.000Z</time>
      </trkpt>
      <trkpt lat="44.47429" lon="6.20701">
        <ele>1104</ele>
        <time>2025-11-21T13:06:45.000Z</time>
      </trkpt>
      <trkpt lat="44.47429" lon="6.20701">
        <ele>1104</ele>
        <time>2025-11-21T13:06:46.000Z</time>
      </trkpt>
      <trkpt lat="44.4743" lon="6.20701">
        <ele>1103</ele>
        <time>2025-11-21T13:06:47.000Z</time>
      </trkpt>
      <trkpt lat="44.4743" lon="6.20701">
        <ele>1102</ele>
        <time>2025-11-21T13:06:48.000Z</time>
      </trkpt>
      <trkpt lat="44.4743" lon="6.20703">
        <ele>1102</ele>
        <time>2025-11-21T13:06:49.000Z</time>
      </trkpt>
      <trkpt lat="44.47431" lon="6.20703">
        <ele>1102</ele>
        <time>2025-11-21T13:06:50.000Z</time>
      </trkpt>
      <trkpt lat="44.47431" lon="6.20704">
        <ele>1102</ele>
        <time>2025-11-21T13:06:51.000Z</time>
      </trkpt>
      <trkpt lat="44.47432" lon="6.20706">
        <ele>1102</ele>
        <time>2025-11-21T13:06:52.000Z</time>
      </trkpt>
      <trkpt lat="44.47433" lon="6.20707">
        <ele>1102</ele>
        <time>2025-11-21T13:06:53.000Z</time>
      </trkpt>
      <trkpt lat="44.47435" lon="6.20707">
        <ele>1102</ele>
        <time>2025-11-21T13:06:54.000Z</time>
      </trkpt>
      <trkpt lat="44.47436" lon="6.20707">
        <ele>1102</ele>
        <time>2025-11-21T13:06:55.000Z</time>
      </trkpt>
      <trkpt lat="44.47437" lon="6.20708">
        <ele>1103</ele>
        <time>2025-11-21T13:06:56.000Z</time>
      </trkpt>
      <trkpt lat="44.47438" lon="6.20709">
        <ele>1103</ele>
        <time>2025-11-21T13:06:57.000Z</time>
      </trkpt>
      <trkpt lat="44.47439" lon="6.2071">
        <ele>1102</ele>
        <time>2025-11-21T13:06:58.000Z</time>
      </trkpt>
      <trkpt lat="44.47439" lon="6.2071">
        <ele>1103</ele>
        <time>2025-11-21T13:06:59.000Z</time>
      </trkpt>
      <trkpt lat="44.4744" lon="6.20711">
        <ele>1103</ele>
        <time>2025-11-21T13:07:00.000Z</time>
      </trkpt>
      <trkpt lat="44.47441" lon="6.20712">
        <ele>1103</ele>
        <time>2025-11-21T13:07:01.000Z</time>
      </trkpt>
      <trkpt lat="44.47441" lon="6.20713">
        <ele>1103</ele>
        <time>2025-11-21T13:07:02.000Z</time>
      </trkpt>
      <trkpt lat="44.47442" lon="6.20714">
        <ele>1102</ele>
        <time>2025-11-21T13:07:03.000Z</time>
      </trkpt>
      <trkpt lat="44.47442" lon="6.20714">
        <ele>1102</ele>
        <time>2025-11-21T13:07:04.000Z</time>
      </trkpt>
      <trkpt lat="44.47442" lon="6.20714">
        <ele>1102</ele>
        <time>2025-11-21T13:07:05.000Z</time>
      </trkpt>
      <trkpt lat="44.47443" lon="6.20717">
        <ele>1102</ele>
        <time>2025-11-21T13:07:06.000Z</time>
      </trkpt>
      <trkpt lat="44.47443" lon="6.20717">
        <ele>1102</ele>
        <time>2025-11-21T13:07:07.000Z</time>
      </trkpt>
      <trkpt lat="44.47444" lon="6.20718">
        <ele>1102</ele>
        <time>2025-11-21T13:07:08.000Z</time>
      </trkpt>
      <trkpt lat="44.47444" lon="6.20719">
        <ele>1103</ele>
        <time>2025-11-21T13:07:09.000Z</time>
      </trkpt>
      <trkpt lat="44.47444" lon="6.2072">
        <ele>1102</ele>
        <time>2025-11-21T13:07:10.000Z</time>
      </trkpt>
      <trkpt lat="44.47446" lon="6.20721">
        <ele>1102</ele>
        <time>2025-11-21T13:07:11.000Z</time>
      </trkpt>
      <trkpt lat="44.47447" lon="6.20721">
        <ele>1101</ele>
        <time>2025-11-21T13:07:12.000Z</time>
      </trkpt>
      <trkpt lat="44.47448" lon="6.20722">
        <ele>1101</ele>
        <time>2025-11-21T13:07:13.000Z</time>
      </trkpt>
      <trkpt lat="44.47449" lon="6.20723">
        <ele>1101</ele>
        <time>2025-11-21T13:07:14.000Z</time>
      </trkpt>
      <trkpt lat="44.4745" lon="6.20724">
        <ele>1101</ele>
        <time>2025-11-21T13:07:15.000Z</time>
      </trkpt>
      <trkpt lat="44.4745" lon="6.20726">
        <ele>1101</ele>
        <time>2025-11-21T13:07:16.000Z</time>
      </trkpt>
      <trkpt lat="44.47451" lon="6.20727">
        <ele>1101</ele>
        <time>2025-11-21T13:07:17.000Z</time>
      </trkpt>
      <trkpt lat="44.47452" lon="6.20727">
        <ele>1101</ele>
        <time>2025-11-21T13:07:18.000Z</time>
      </trkpt>
      <trkpt lat="44.47452" lon="6.20728">
        <ele>1101</ele>
        <time>2025-11-21T13:07:19.000Z</time>
      </trkpt>
      <trkpt lat="44.47453" lon="6.20729">
        <ele>1101</ele>
        <time>2025-11-21T13:07:20.000Z</time>
      </trkpt>
      <trkpt lat="44.47455" lon="6.2073">
        <ele>1100</ele>
        <time>2025-11-21T13:07:21.000Z</time>
      </trkpt>
      <trkpt lat="44.47456" lon="6.2073">
        <ele>1100</ele>
        <time>2025-11-21T13:07:22.000Z</time>
      </trkpt>
      <trkpt lat="44.47457" lon="6.20731">
        <ele>1100</ele>
        <time>2025-11-21T13:07:23.000Z</time>
      </trkpt>
      <trkpt lat="44.47458" lon="6.20732">
        <ele>1100</ele>
        <time>2025-11-21T13:07:24.000Z</time>
      </trkpt>
      <trkpt lat="44.47458" lon="6.20733">
        <ele>1100</ele>
        <time>2025-11-21T13:07:25.000Z</time>
      </trkpt>
      <trkpt lat="44.47459" lon="6.20734">
        <ele>1100</ele>
        <time>2025-11-21T13:07:26.000Z</time>
      </trkpt>
      <trkpt lat="44.4746" lon="6.20736">
        <ele>1100</ele>
        <time>2025-11-21T13:07:27.000Z</time>
      </trkpt>
      <trkpt lat="44.4746" lon="6.20737">
        <ele>1100</ele>
        <time>2025-11-21T13:07:28.000Z</time>
      </trkpt>
      <trkpt lat="44.47461" lon="6.20739">
        <ele>1101</ele>
        <time>2025-11-21T13:07:29.000Z</time>
      </trkpt>
      <trkpt lat="44.47461" lon="6.2074">
        <ele>1101</ele>
        <time>2025-11-21T13:07:30.000Z</time>
      </trkpt>
      <trkpt lat="44.47461" lon="6.20741">
        <ele>1101</ele>
        <time>2025-11-21T13:07:31.000Z</time>
      </trkpt>
      <trkpt lat="44.47462" lon="6.20742">
        <ele>1101</ele>
        <time>2025-11-21T13:07:32.000Z</time>
      </trkpt>
      <trkpt lat="44.47462" lon="6.20742">
        <ele>1101</ele>
        <time>2025-11-21T13:07:33.000Z</time>
      </trkpt>
      <trkpt lat="44.47462" lon="6.20742">
        <ele>1101</ele>
        <time>2025-11-21T13:07:34.000Z</time>
      </trkpt>
      <trkpt lat="44.47462" lon="6.20742">
        <ele>1101</ele>
        <time>2025-11-21T13:07:35.000Z</time>
      </trkpt>
      <trkpt lat="44.47463" lon="6.20747">
        <ele>1100</ele>
        <time>2025-11-21T13:07:36.000Z</time>
      </trkpt>
      <trkpt lat="44.47464" lon="6.20748">
        <ele>1099</ele>
        <time>2025-11-21T13:07:37.000Z</time>
      </trkpt>
      <trkpt lat="44.47464" lon="6.20749">
        <ele>1099</ele>
        <time>2025-11-21T13:07:38.000Z</time>
      </trkpt>
      <trkpt lat="44.47465" lon="6.2075">
        <ele>1098</ele>
        <time>2025-11-21T13:07:39.000Z</time>
      </trkpt>
      <trkpt lat="44.47466" lon="6.2075">
        <ele>1097</ele>
        <time>2025-11-21T13:07:40.000Z</time>
      </trkpt>
      <trkpt lat="44.47466" lon="6.20751">
        <ele>1096</ele>
        <time>2025-11-21T13:07:41.000Z</time>
      </trkpt>
      <trkpt lat="44.47467" lon="6.20751">
        <ele>1095</ele>
        <time>2025-11-21T13:07:42.000Z</time>
      </trkpt>
      <trkpt lat="44.47467" lon="6.20751">
        <ele>1095</ele>
        <time>2025-11-21T13:07:43.000Z</time>
      </trkpt>
      <trkpt lat="44.47467" lon="6.20752">
        <ele>1095</ele>
        <time>2025-11-21T13:07:44.000Z</time>
      </trkpt>
      <trkpt lat="44.47468" lon="6.20753">
        <ele>1096</ele>
        <time>2025-11-21T13:07:45.000Z</time>
      </trkpt>
      <trkpt lat="44.47469" lon="6.20754">
        <ele>1095</ele>
        <time>2025-11-21T13:07:46.000Z</time>
      </trkpt>
      <trkpt lat="44.4747" lon="6.20754">
        <ele>1094</ele>
        <time>2025-11-21T13:07:47.000Z</time>
      </trkpt>
      <trkpt lat="44.4747" lon="6.20754">
        <ele>1094</ele>
        <time>2025-11-21T13:07:48.000Z</time>
      </trkpt>
      <trkpt lat="44.4747" lon="6.20755">
        <ele>1095</ele>
        <time>2025-11-21T13:07:49.000Z</time>
      </trkpt>
      <trkpt lat="44.47471" lon="6.20755">
        <ele>1094</ele>
        <time>2025-11-21T13:07:50.000Z</time>
      </trkpt>
      <trkpt lat="44.47471" lon="6.20755">
        <ele>1094</ele>
        <time>2025-11-21T13:07:51.000Z</time>
      </trkpt>
      <trkpt lat="44.47472" lon="6.20756">
        <ele>1094</ele>
        <time>2025-11-21T13:07:52.000Z</time>
      </trkpt>
      <trkpt lat="44.47473" lon="6.20756">
        <ele>1094</ele>
        <time>2025-11-21T13:07:53.000Z</time>
      </trkpt>
      <trkpt lat="44.47474" lon="6.20756">
        <ele>1095</ele>
        <time>2025-11-21T13:07:54.000Z</time>
      </trkpt>
      <trkpt lat="44.47474" lon="6.20757">
        <ele>1095</ele>
        <time>2025-11-21T13:07:55.000Z</time>
      </trkpt>
      <trkpt lat="44.47475" lon="6.20757">
        <ele>1095</ele>
        <time>2025-11-21T13:07:56.000Z</time>
      </trkpt>
      <trkpt lat="44.47476" lon="6.20757">
        <ele>1094</ele>
        <time>2025-11-21T13:07:57.000Z</time>
      </trkpt>
      <trkpt lat="44.47477" lon="6.20757">
        <ele>1094</ele>
        <time>2025-11-21T13:07:58.000Z</time>
      </trkpt>
      <trkpt lat="44.47477" lon="6.20758">
        <ele>1094</ele>
        <time>2025-11-21T13:07:59.000Z</time>
      </trkpt>
      <trkpt lat="44.47477" lon="6.20759">
        <ele>1094</ele>
        <time>2025-11-21T13:08:00.000Z</time>
      </trkpt>
      <trkpt lat="44.47478" lon="6.20759">
        <ele>1095</ele>
        <time>2025-11-21T13:08:01.000Z</time>
      </trkpt>
      <trkpt lat="44.47478" lon="6.2076">
        <ele>1095</ele>
        <time>2025-11-21T13:08:02.000Z</time>
      </trkpt>
      <trkpt lat="44.47477" lon="6.2076">
        <ele>1096</ele>
        <time>2025-11-21T13:08:03.000Z</time>
      </trkpt>
      <trkpt lat="44.47477" lon="6.20761">
        <ele>1095</ele>
        <time>2025-11-21T13:08:04.000Z</time>
      </trkpt>
      <trkpt lat="44.47477" lon="6.20761">
        <ele>1095</ele>
        <time>2025-11-21T13:08:05.000Z</time>
      </trkpt>
      <trkpt lat="44.47476" lon="6.20762">
        <ele>1095</ele>
        <time>2025-11-21T13:08:06.000Z</time>
      </trkpt>
      <trkpt lat="44.47475" lon="6.20763">
        <ele>1095</ele>
        <time>2025-11-21T13:08:07.000Z</time>
      </trkpt>
      <trkpt lat="44.47474" lon="6.20763">
        <ele>1096</ele>
        <time>2025-11-21T13:08:08.000Z</time>
      </trkpt>
      <trkpt lat="44.47474" lon="6.20764">
        <ele>1096</ele>
        <time>2025-11-21T13:08:09.000Z</time>
      </trkpt>
      <trkpt lat="44.47474" lon="6.20765">
        <ele>1095</ele>
        <time>2025-11-21T13:08:10.000Z</time>
      </trkpt>
      <trkpt lat="44.47475" lon="6.20764">
        <ele>1095</ele>
        <time>2025-11-21T13:08:11.000Z</time>
      </trkpt>
      <trkpt lat="44.47475" lon="6.20764">
        <ele>1095</ele>
        <time>2025-11-21T13:08:12.000Z</time>
      </trkpt>
      <trkpt lat="44.47476" lon="6.20764">
        <ele>1096</ele>
        <time>2025-11-21T13:08:13.000Z</time>
      </trkpt>
      <trkpt lat="44.47476" lon="6.20764">
        <ele>1096</ele>
        <time>2025-11-21T13:08:14.000Z</time>
      </trkpt>
      <trkpt lat="44.47477" lon="6.20764">
        <ele>1096</ele>
        <time>2025-11-21T13:08:15.000Z</time>
      </trkpt>
      <trkpt lat="44.47476" lon="6.20764">
        <ele>1096</ele>
        <time>2025-11-21T13:08:16.000Z</time>
      </trkpt>
      <trkpt lat="44.47476" lon="6.20765">
        <ele>1096</ele>
        <time>2025-11-21T13:08:17.000Z</time>
      </trkpt>
      <trkpt lat="44.47475" lon="6.20765">
        <ele>1096</ele>
        <time>2025-11-21T13:08:18.000Z</time>
      </trkpt>
      <trkpt lat="44.47474" lon="6.20765">
        <ele>1095</ele>
        <time>2025-11-21T13:08:19.000Z</time>
      </trkpt>
      <trkpt lat="44.47474" lon="6.20765">
        <ele>1095</ele>
        <time>2025-11-21T13:08:20.000Z</time>
      </trkpt>
      <trkpt lat="44.47473" lon="6.20766">
        <ele>1095</ele>
        <time>2025-11-21T13:08:21.000Z</time>
      </trkpt>
      <trkpt lat="44.47472" lon="6.20766">
        <ele>1096</ele>
        <time>2025-11-21T13:08:22.000Z</time>
      </trkpt>
      <trkpt lat="44.47471" lon="6.20767">
        <ele>1096</ele>
        <time>2025-11-21T13:08:23.000Z</time>
      </trkpt>
      <trkpt lat="44.4747" lon="6.20767">
        <ele>1094</ele>
        <time>2025-11-21T13:08:24.000Z</time>
      </trkpt>
      <trkpt lat="44.4747" lon="6.20767">
        <ele>1094</ele>
        <time>2025-11-21T13:08:25.000Z</time>
      </trkpt>
      <trkpt lat="44.47468" lon="6.20767">
        <ele>1094</ele>
        <time>2025-11-21T13:08:26.000Z</time>
      </trkpt>
      <trkpt lat="44.47467" lon="6.20767">
        <ele>1093</ele>
        <time>2025-11-21T13:08:27.000Z</time>
      </trkpt>
      <trkpt lat="44.47467" lon="6.20767">
        <ele>1092</ele>
        <time>2025-11-21T13:08:28.000Z</time>
      </trkpt>
      <trkpt lat="44.47466" lon="6.20766">
        <ele>1092</ele>
        <time>2025-11-21T13:08:29.000Z</time>
      </trkpt>
      <trkpt lat="44.47465" lon="6.20765">
        <ele>1091</ele>
        <time>2025-11-21T13:08:30.000Z</time>
      </trkpt>
      <trkpt lat="44.47464" lon="6.20764">
        <ele>1091</ele>
        <time>2025-11-21T13:08:31.000Z</time>
      </trkpt>
      <trkpt lat="44.47463" lon="6.20763">
        <ele>1090</ele>
        <time>2025-11-21T13:08:32.000Z</time>
      </trkpt>
      <trkpt lat="44.47462" lon="6.20762">
        <ele>1090</ele>
        <time>2025-11-21T13:08:33.000Z</time>
      </trkpt>
      <trkpt lat="44.47461" lon="6.20762">
        <ele>1089</ele>
        <time>2025-11-21T13:08:34.000Z</time>
      </trkpt>
      <trkpt lat="44.47461" lon="6.20761">
        <ele>1089</ele>
        <time>2025-11-21T13:08:35.000Z</time>
      </trkpt>
      <trkpt lat="44.47461" lon="6.20761">
        <ele>1088</ele>
        <time>2025-11-21T13:08:36.000Z</time>
      </trkpt>
      <trkpt lat="44.47461" lon="6.20759">
        <ele>1088</ele>
        <time>2025-11-21T13:08:37.000Z</time>
      </trkpt>
      <trkpt lat="44.47461" lon="6.20758">
        <ele>1089</ele>
        <time>2025-11-21T13:08:38.000Z</time>
      </trkpt>
      <trkpt lat="44.47461" lon="6.20756">
        <ele>1088</ele>
        <time>2025-11-21T13:08:39.000Z</time>
      </trkpt>
      <trkpt lat="44.47461" lon="6.20756">
        <ele>1089</ele>
        <time>2025-11-21T13:08:40.000Z</time>
      </trkpt>
      <trkpt lat="44.4746" lon="6.20755">
        <ele>1088</ele>
        <time>2025-11-21T13:08:41.000Z</time>
      </trkpt>
      <trkpt lat="44.4746" lon="6.20755">
        <ele>1088</ele>
        <time>2025-11-21T13:08:42.000Z</time>
      </trkpt>
      <trkpt lat="44.4746" lon="6.20755">
        <ele>1088</ele>
        <time>2025-11-21T13:08:43.000Z</time>
      </trkpt>
      <trkpt lat="44.47458" lon="6.20754">
        <ele>1088</ele>
        <time>2025-11-21T13:08:44.000Z</time>
      </trkpt>
      <trkpt lat="44.47457" lon="6.20754">
        <ele>1087</ele>
        <time>2025-11-21T13:08:45.000Z</time>
      </trkpt>
      <trkpt lat="44.47456" lon="6.20754">
        <ele>1087</ele>
        <time>2025-11-21T13:08:46.000Z</time>
      </trkpt>
      <trkpt lat="44.47455" lon="6.20755">
        <ele>1087</ele>
        <time>2025-11-21T13:08:47.000Z</time>
      </trkpt>
      <trkpt lat="44.47454" lon="6.20755">
        <ele>1087</ele>
        <time>2025-11-21T13:08:48.000Z</time>
      </trkpt>
      <trkpt lat="44.47453" lon="6.20756">
        <ele>1087</ele>
        <time>2025-11-21T13:08:49.000Z</time>
      </trkpt>
      <trkpt lat="44.47451" lon="6.20757">
        <ele>1087</ele>
        <time>2025-11-21T13:08:50.000Z</time>
      </trkpt>
      <trkpt lat="44.4745" lon="6.20757">
        <ele>1086</ele>
        <time>2025-11-21T13:08:51.000Z</time>
      </trkpt>
      <trkpt lat="44.47449" lon="6.20756">
        <ele>1085</ele>
        <time>2025-11-21T13:08:52.000Z</time>
      </trkpt>
      <trkpt lat="44.47448" lon="6.20756">
        <ele>1085</ele>
        <time>2025-11-21T13:08:53.000Z</time>
      </trkpt>
      <trkpt lat="44.47447" lon="6.20756">
        <ele>1085</ele>
        <time>2025-11-21T13:08:54.000Z</time>
      </trkpt>
      <trkpt lat="44.47445" lon="6.20757">
        <ele>1085</ele>
        <time>2025-11-21T13:08:55.000Z</time>
      </trkpt>
      <trkpt lat="44.47444" lon="6.20758">
        <ele>1085</ele>
        <time>2025-11-21T13:08:56.000Z</time>
      </trkpt>
      <trkpt lat="44.47442" lon="6.20759">
        <ele>1085</ele>
        <time>2025-11-21T13:08:57.000Z</time>
      </trkpt>
      <trkpt lat="44.47441" lon="6.20759">
        <ele>1085</ele>
        <time>2025-11-21T13:08:58.000Z</time>
      </trkpt>
      <trkpt lat="44.4744" lon="6.20759">
        <ele>1084</ele>
        <time>2025-11-21T13:08:59.000Z</time>
      </trkpt>
      <trkpt lat="44.47439" lon="6.20759">
        <ele>1084</ele>
        <time>2025-11-21T13:09:00.000Z</time>
      </trkpt>
      <trkpt lat="44.47438" lon="6.20758">
        <ele>1082</ele>
        <time>2025-11-21T13:09:01.000Z</time>
      </trkpt>
      <trkpt lat="44.47437" lon="6.20758">
        <ele>1081</ele>
        <time>2025-11-21T13:09:02.000Z</time>
      </trkpt>
      <trkpt lat="44.47436" lon="6.20758">
        <ele>1081</ele>
        <time>2025-11-21T13:09:03.000Z</time>
      </trkpt>
      <trkpt lat="44.47435" lon="6.20759">
        <ele>1081</ele>
        <time>2025-11-21T13:09:04.000Z</time>
      </trkpt>
      <trkpt lat="44.47434" lon="6.20759">
        <ele>1081</ele>
        <time>2025-11-21T13:09:05.000Z</time>
      </trkpt>
      <trkpt lat="44.47433" lon="6.20759">
        <ele>1081</ele>
        <time>2025-11-21T13:09:06.000Z</time>
      </trkpt>
      <trkpt lat="44.47432" lon="6.20758">
        <ele>1080</ele>
        <time>2025-11-21T13:09:07.000Z</time>
      </trkpt>
      <trkpt lat="44.47431" lon="6.20758">
        <ele>1080</ele>
        <time>2025-11-21T13:09:08.000Z</time>
      </trkpt>
      <trkpt lat="44.4743" lon="6.20757">
        <ele>1080</ele>
        <time>2025-11-21T13:09:09.000Z</time>
      </trkpt>
      <trkpt lat="44.47429" lon="6.20756">
        <ele>1079</ele>
        <time>2025-11-21T13:09:10.000Z</time>
      </trkpt>
      <trkpt lat="44.47428" lon="6.20755">
        <ele>1078</ele>
        <time>2025-11-21T13:09:11.000Z</time>
      </trkpt>
      <trkpt lat="44.47427" lon="6.20753">
        <ele>1078</ele>
        <time>2025-11-21T13:09:12.000Z</time>
      </trkpt>
      <trkpt lat="44.47426" lon="6.20752">
        <ele>1077</ele>
        <time>2025-11-21T13:09:13.000Z</time>
      </trkpt>
      <trkpt lat="44.47425" lon="6.20751">
        <ele>1077</ele>
        <time>2025-11-21T13:09:14.000Z</time>
      </trkpt>
      <trkpt lat="44.47423" lon="6.20749">
        <ele>1076</ele>
        <time>2025-11-21T13:09:15.000Z</time>
      </trkpt>
      <trkpt lat="44.47422" lon="6.20748">
        <ele>1076</ele>
        <time>2025-11-21T13:09:16.000Z</time>
      </trkpt>
      <trkpt lat="44.47421" lon="6.20748">
        <ele>1075</ele>
        <time>2025-11-21T13:09:17.000Z</time>
      </trkpt>
      <trkpt lat="44.4742" lon="6.20748">
        <ele>1075</ele>
        <time>2025-11-21T13:09:18.000Z</time>
      </trkpt>
      <trkpt lat="44.47418" lon="6.20747">
        <ele>1074</ele>
        <time>2025-11-21T13:09:19.000Z</time>
      </trkpt>
      <trkpt lat="44.47417" lon="6.20748">
        <ele>1074</ele>
        <time>2025-11-21T13:09:20.000Z</time>
      </trkpt>
      <trkpt lat="44.47415" lon="6.20748">
        <ele>1074</ele>
        <time>2025-11-21T13:09:21.000Z</time>
      </trkpt>
      <trkpt lat="44.47414" lon="6.20747">
        <ele>1073</ele>
        <time>2025-11-21T13:09:22.000Z</time>
      </trkpt>
      <trkpt lat="44.47413" lon="6.20748">
        <ele>1073</ele>
        <time>2025-11-21T13:09:23.000Z</time>
      </trkpt>
      <trkpt lat="44.47412" lon="6.20748">
        <ele>1073</ele>
        <time>2025-11-21T13:09:24.000Z</time>
      </trkpt>
      <trkpt lat="44.47411" lon="6.20748">
        <ele>1073</ele>
        <time>2025-11-21T13:09:25.000Z</time>
      </trkpt>
      <trkpt lat="44.47409" lon="6.20748">
        <ele>1073</ele>
        <time>2025-11-21T13:09:26.000Z</time>
      </trkpt>
      <trkpt lat="44.47408" lon="6.20748">
        <ele>1073</ele>
        <time>2025-11-21T13:09:27.000Z</time>
      </trkpt>
      <trkpt lat="44.47406" lon="6.20748">
        <ele>1073</ele>
        <time>2025-11-21T13:09:28.000Z</time>
      </trkpt>
      <trkpt lat="44.47405" lon="6.20748">
        <ele>1074</ele>
        <time>2025-11-21T13:09:29.000Z</time>
      </trkpt>
      <trkpt lat="44.47404" lon="6.20748">
        <ele>1074</ele>
        <time>2025-11-21T13:09:30.000Z</time>
      </trkpt>
      <trkpt lat="44.47403" lon="6.20747">
        <ele>1074</ele>
        <time>2025-11-21T13:09:31.000Z</time>
      </trkpt>
      <trkpt lat="44.47402" lon="6.20747">
        <ele>1074</ele>
        <time>2025-11-21T13:09:32.000Z</time>
      </trkpt>
      <trkpt lat="44.474" lon="6.20746">
        <ele>1074</ele>
        <time>2025-11-21T13:09:33.000Z</time>
      </trkpt>
      <trkpt lat="44.47399" lon="6.20745">
        <ele>1074</ele>
        <time>2025-11-21T13:09:34.000Z</time>
      </trkpt>
      <trkpt lat="44.47398" lon="6.20744">
        <ele>1073</ele>
        <time>2025-11-21T13:09:35.000Z</time>
      </trkpt>
      <trkpt lat="44.47396" lon="6.20744">
        <ele>1074</ele>
        <time>2025-11-21T13:09:36.000Z</time>
      </trkpt>
      <trkpt lat="44.47395" lon="6.20743">
        <ele>1073</ele>
        <time>2025-11-21T13:09:37.000Z</time>
      </trkpt>
      <trkpt lat="44.47394" lon="6.20742">
        <ele>1073</ele>
        <time>2025-11-21T13:09:38.000Z</time>
      </trkpt>
      <trkpt lat="44.47392" lon="6.20742">
        <ele>1073</ele>
        <time>2025-11-21T13:09:39.000Z</time>
      </trkpt>
      <trkpt lat="44.47391" lon="6.20742">
        <ele>1073</ele>
        <time>2025-11-21T13:09:40.000Z</time>
      </trkpt>
      <trkpt lat="44.4739" lon="6.20742">
        <ele>1072</ele>
        <time>2025-11-21T13:09:41.000Z</time>
      </trkpt>
      <trkpt lat="44.4739" lon="6.20742">
        <ele>1072</ele>
        <time>2025-11-21T13:09:42.000Z</time>
      </trkpt>
      <trkpt lat="44.47388" lon="6.20741">
        <ele>1071</ele>
        <time>2025-11-21T13:09:43.000Z</time>
      </trkpt>
      <trkpt lat="44.47388" lon="6.2074">
        <ele>1071</ele>
        <time>2025-11-21T13:09:44.000Z</time>
      </trkpt>
      <trkpt lat="44.47387" lon="6.2074">
        <ele>1071</ele>
        <time>2025-11-21T13:09:45.000Z</time>
      </trkpt>
      <trkpt lat="44.47386" lon="6.2074">
        <ele>1071</ele>
        <time>2025-11-21T13:09:46.000Z</time>
      </trkpt>
      <trkpt lat="44.47386" lon="6.20739">
        <ele>1070</ele>
        <time>2025-11-21T13:09:47.000Z</time>
      </trkpt>
      <trkpt lat="44.47386" lon="6.20739">
        <ele>1070</ele>
        <time>2025-11-21T13:09:48.000Z</time>
      </trkpt>
      <trkpt lat="44.47385" lon="6.20738">
        <ele>1069</ele>
        <time>2025-11-21T13:09:49.000Z</time>
      </trkpt>
      <trkpt lat="44.47385" lon="6.20737">
        <ele>1068</ele>
        <time>2025-11-21T13:09:50.000Z</time>
      </trkpt>
      <trkpt lat="44.47384" lon="6.20736">
        <ele>1067</ele>
        <time>2025-11-21T13:09:51.000Z</time>
      </trkpt>
      <trkpt lat="44.47383" lon="6.20736">
        <ele>1068</ele>
        <time>2025-11-21T13:09:52.000Z</time>
      </trkpt>
      <trkpt lat="44.47383" lon="6.20736">
        <ele>1068</ele>
        <time>2025-11-21T13:09:53.000Z</time>
      </trkpt>
      <trkpt lat="44.47383" lon="6.20736">
        <ele>1068</ele>
        <time>2025-11-21T13:09:54.000Z</time>
      </trkpt>
      <trkpt lat="44.47381" lon="6.20734">
        <ele>1068</ele>
        <time>2025-11-21T13:09:55.000Z</time>
      </trkpt>
      <trkpt lat="44.4738" lon="6.20733">
        <ele>1068</ele>
        <time>2025-11-21T13:09:56.000Z</time>
      </trkpt>
      <trkpt lat="44.47379" lon="6.20733">
        <ele>1067</ele>
        <time>2025-11-21T13:09:57.000Z</time>
      </trkpt>
      <trkpt lat="44.47378" lon="6.20732">
        <ele>1068</ele>
        <time>2025-11-21T13:09:58.000Z</time>
      </trkpt>
      <trkpt lat="44.47377" lon="6.20731">
        <ele>1067</ele>
        <time>2025-11-21T13:09:59.000Z</time>
      </trkpt>
      <trkpt lat="44.47376" lon="6.2073">
        <ele>1068</ele>
        <time>2025-11-21T13:10:00.000Z</time>
      </trkpt>
      <trkpt lat="44.47375" lon="6.20728">
        <ele>1067</ele>
        <time>2025-11-21T13:10:01.000Z</time>
      </trkpt>
      <trkpt lat="44.47373" lon="6.20727">
        <ele>1068</ele>
        <time>2025-11-21T13:10:02.000Z</time>
      </trkpt>
      <trkpt lat="44.47372" lon="6.20726">
        <ele>1068</ele>
        <time>2025-11-21T13:10:03.000Z</time>
      </trkpt>
      <trkpt lat="44.47371" lon="6.20725">
        <ele>1068</ele>
        <time>2025-11-21T13:10:04.000Z</time>
      </trkpt>
      <trkpt lat="44.4737" lon="6.20724">
        <ele>1067</ele>
        <time>2025-11-21T13:10:05.000Z</time>
      </trkpt>
      <trkpt lat="44.47369" lon="6.20722">
        <ele>1067</ele>
        <time>2025-11-21T13:10:06.000Z</time>
      </trkpt>
      <trkpt lat="44.47368" lon="6.2072">
        <ele>1067</ele>
        <time>2025-11-21T13:10:07.000Z</time>
      </trkpt>
      <trkpt lat="44.47367" lon="6.20718">
        <ele>1067</ele>
        <time>2025-11-21T13:10:08.000Z</time>
      </trkpt>
      <trkpt lat="44.47366" lon="6.20716">
        <ele>1067</ele>
        <time>2025-11-21T13:10:09.000Z</time>
      </trkpt>
      <trkpt lat="44.47366" lon="6.20714">
        <ele>1066</ele>
        <time>2025-11-21T13:10:10.000Z</time>
      </trkpt>
      <trkpt lat="44.47365" lon="6.20713">
        <ele>1065</ele>
        <time>2025-11-21T13:10:11.000Z</time>
      </trkpt>
      <trkpt lat="44.47365" lon="6.20712">
        <ele>1065</ele>
        <time>2025-11-21T13:10:12.000Z</time>
      </trkpt>
      <trkpt lat="44.47364" lon="6.20711">
        <ele>1065</ele>
        <time>2025-11-21T13:10:13.000Z</time>
      </trkpt>
      <trkpt lat="44.47363" lon="6.2071">
        <ele>1066</ele>
        <time>2025-11-21T13:10:14.000Z</time>
      </trkpt>
      <trkpt lat="44.47362" lon="6.20709">
        <ele>1066</ele>
        <time>2025-11-21T13:10:15.000Z</time>
      </trkpt>
      <trkpt lat="44.47362" lon="6.20706">
        <ele>1066</ele>
        <time>2025-11-21T13:10:16.000Z</time>
      </trkpt>
      <trkpt lat="44.47361" lon="6.20704">
        <ele>1066</ele>
        <time>2025-11-21T13:10:17.000Z</time>
      </trkpt>
      <trkpt lat="44.47361" lon="6.20701">
        <ele>1065</ele>
        <time>2025-11-21T13:10:18.000Z</time>
      </trkpt>
      <trkpt lat="44.4736" lon="6.20701">
        <ele>1065</ele>
        <time>2025-11-21T13:10:19.000Z</time>
      </trkpt>
      <trkpt lat="44.4736" lon="6.207">
        <ele>1065</ele>
        <time>2025-11-21T13:10:20.000Z</time>
      </trkpt>
      <trkpt lat="44.4736" lon="6.207">
        <ele>1065</ele>
        <time>2025-11-21T13:10:21.000Z</time>
      </trkpt>
      <trkpt lat="44.47359" lon="6.207">
        <ele>1065</ele>
        <time>2025-11-21T13:10:22.000Z</time>
      </trkpt>
      <trkpt lat="44.47358" lon="6.207">
        <ele>1065</ele>
        <time>2025-11-21T13:10:23.000Z</time>
      </trkpt>
      <trkpt lat="44.47358" lon="6.207">
        <ele>1065</ele>
        <time>2025-11-21T13:10:24.000Z</time>
      </trkpt>
      <trkpt lat="44.47358" lon="6.207">
        <ele>1066</ele>
        <time>2025-11-21T13:10:25.000Z</time>
      </trkpt>
      <trkpt lat="44.47357" lon="6.20699">
        <ele>1066</ele>
        <time>2025-11-21T13:10:26.000Z</time>
      </trkpt>
      <trkpt lat="44.47356" lon="6.20698">
        <ele>1066</ele>
        <time>2025-11-21T13:10:27.000Z</time>
      </trkpt>
      <trkpt lat="44.47356" lon="6.20698">
        <ele>1066</ele>
        <time>2025-11-21T13:10:28.000Z</time>
      </trkpt>
      <trkpt lat="44.47356" lon="6.20698">
        <ele>1066</ele>
        <time>2025-11-21T13:10:29.000Z</time>
      </trkpt>
      <trkpt lat="44.47356" lon="6.20697">
        <ele>1066</ele>
        <time>2025-11-21T13:10:30.000Z</time>
      </trkpt>
      <trkpt lat="44.47355" lon="6.20697">
        <ele>1066</ele>
        <time>2025-11-21T13:10:31.000Z</time>
      </trkpt>
      <trkpt lat="44.47355" lon="6.20697">
        <ele>1066</ele>
        <time>2025-11-21T13:10:32.000Z</time>
      </trkpt>
      <trkpt lat="44.47354" lon="6.20694">
        <ele>1067</ele>
        <time>2025-11-21T13:11:09.000Z</time>
      </trkpt>
      <trkpt lat="44.47354" lon="6.20693">
        <ele>1066</ele>
        <time>2025-11-21T13:11:10.000Z</time>
      </trkpt>
      <trkpt lat="44.47354" lon="6.20693">
        <ele>1066</ele>
        <time>2025-11-21T13:11:11.000Z</time>
      </trkpt>
      <trkpt lat="44.47354" lon="6.20693">
        <ele>1066</ele>
        <time>2025-11-21T13:11:12.000Z</time>
      </trkpt>
      <trkpt lat="44.47353" lon="6.20693">
        <ele>1066</ele>
        <time>2025-11-21T13:11:13.000Z</time>
      </trkpt>
      <trkpt lat="44.47352" lon="6.20696">
        <ele>1067</ele>
        <time>2025-11-21T13:11:34.000Z</time>
      </trkpt>
      <trkpt lat="44.47351" lon="6.20695">
        <ele>1067</ele>
        <time>2025-11-21T13:11:35.000Z</time>
      </trkpt>
      <trkpt lat="44.4735" lon="6.20695">
        <ele>1068</ele>
        <time>2025-11-21T13:11:36.000Z</time>
      </trkpt>
      <trkpt lat="44.4735" lon="6.20695">
        <ele>1068</ele>
        <time>2025-11-21T13:11:37.000Z</time>
      </trkpt>
      <trkpt lat="44.47352" lon="6.20693">
        <ele>1069</ele>
        <time>2025-11-21T13:12:14.000Z</time>
      </trkpt>
      <trkpt lat="44.47353" lon="6.20693">
        <ele>1069</ele>
        <time>2025-11-21T13:12:15.000Z</time>
      </trkpt>
      <trkpt lat="44.47353" lon="6.20693">
        <ele>1069</ele>
        <time>2025-11-21T13:12:16.000Z</time>
      </trkpt>
      <trkpt lat="44.47353" lon="6.20693">
        <ele>1069</ele>
        <time>2025-11-21T13:12:17.000Z</time>
      </trkpt>
      <trkpt lat="44.47353" lon="6.20693">
        <ele>1068</ele>
        <time>2025-11-21T13:12:18.000Z</time>
      </trkpt>
      <trkpt lat="44.47353" lon="6.20693">
        <ele>1068</ele>
        <time>2025-11-21T13:12:19.000Z</time>
      </trkpt>
      <trkpt lat="44.47353" lon="6.20694">
        <ele>1068</ele>
        <time>2025-11-21T13:12:20.000Z</time>
      </trkpt>
      <trkpt lat="44.47353" lon="6.20695">
        <ele>1070</ele>
        <time>2025-11-21T13:12:21.000Z</time>
      </trkpt>
      <trkpt lat="44.47353" lon="6.20696">
        <ele>1072</ele>
        <time>2025-11-21T13:12:22.000Z</time>
      </trkpt>
      <trkpt lat="44.47353" lon="6.20695">
        <ele>1072</ele>
        <time>2025-11-21T13:12:23.000Z</time>
      </trkpt>
      <trkpt lat="44.47353" lon="6.20695">
        <ele>1072</ele>
        <time>2025-11-21T13:12:24.000Z</time>
      </trkpt>
      <trkpt lat="44.47352" lon="6.20696">
        <ele>1074</ele>
        <time>2025-11-21T13:12:25.000Z</time>
      </trkpt>
      <trkpt lat="44.47351" lon="6.20696">
        <ele>1076</ele>
        <time>2025-11-21T13:12:26.000Z</time>
      </trkpt>
      <trkpt lat="44.47351" lon="6.20696">
        <ele>1075</ele>
        <time>2025-11-21T13:12:27.000Z</time>
      </trkpt>
      <trkpt lat="44.47351" lon="6.20696">
        <ele>1075</ele>
        <time>2025-11-21T13:12:28.000Z</time>
      </trkpt>
      <trkpt lat="44.4735" lon="6.20696">
        <ele>1071</ele>
        <time>2025-11-21T13:13:00.000Z</time>
      </trkpt>
      <trkpt lat="44.4735" lon="6.20697">
        <ele>1070</ele>
        <time>2025-11-21T13:13:01.000Z</time>
      </trkpt>
      <trkpt lat="44.4735" lon="6.20698">
        <ele>1070</ele>
        <time>2025-11-21T13:13:02.000Z</time>
      </trkpt>
      <trkpt lat="44.4735" lon="6.20699">
        <ele>1069</ele>
        <time>2025-11-21T13:13:03.000Z</time>
      </trkpt>
      <trkpt lat="44.47349" lon="6.20701">
        <ele>1069</ele>
        <time>2025-11-21T13:13:04.000Z</time>
      </trkpt>
      <trkpt lat="44.47349" lon="6.20703">
        <ele>1069</ele>
        <time>2025-11-21T13:13:05.000Z</time>
      </trkpt>
      <trkpt lat="44.4735" lon="6.20705">
        <ele>1069</ele>
        <time>2025-11-21T13:13:06.000Z</time>
      </trkpt>
      <trkpt lat="44.4735" lon="6.20707">
        <ele>1068</ele>
        <time>2025-11-21T13:13:07.000Z</time>
      </trkpt>
      <trkpt lat="44.4735" lon="6.20708">
        <ele>1067</ele>
        <time>2025-11-21T13:13:08.000Z</time>
      </trkpt>
      <trkpt lat="44.4735" lon="6.2071">
        <ele>1067</ele>
        <time>2025-11-21T13:13:09.000Z</time>
      </trkpt>
      <trkpt lat="44.47351" lon="6.20711">
        <ele>1066</ele>
        <time>2025-11-21T13:13:10.000Z</time>
      </trkpt>
      <trkpt lat="44.47351" lon="6.20711">
        <ele>1066</ele>
        <time>2025-11-21T13:13:11.000Z</time>
      </trkpt>
      <trkpt lat="44.47351" lon="6.20711">
        <ele>1066</ele>
        <time>2025-11-21T13:13:12.000Z</time>
      </trkpt>
      <trkpt lat="44.47353" lon="6.20715">
        <ele>1066</ele>
        <time>2025-11-21T13:13:13.000Z</time>
      </trkpt>
      <trkpt lat="44.47353" lon="6.20716">
        <ele>1066</ele>
        <time>2025-11-21T13:13:14.000Z</time>
      </trkpt>
      <trkpt lat="44.47353" lon="6.20717">
        <ele>1065</ele>
        <time>2025-11-21T13:13:15.000Z</time>
      </trkpt>
      <trkpt lat="44.47354" lon="6.20718">
        <ele>1065</ele>
        <time>2025-11-21T13:13:16.000Z</time>
      </trkpt>
      <trkpt lat="44.47354" lon="6.2072">
        <ele>1066</ele>
        <time>2025-11-21T13:13:17.000Z</time>
      </trkpt>
      <trkpt lat="44.47354" lon="6.20721">
        <ele>1065</ele>
        <time>2025-11-21T13:13:18.000Z</time>
      </trkpt>
      <trkpt lat="44.47355" lon="6.20722">
        <ele>1065</ele>
        <time>2025-11-21T13:13:19.000Z</time>
      </trkpt>
      <trkpt lat="44.47355" lon="6.20724">
        <ele>1065</ele>
        <time>2025-11-21T13:13:20.000Z</time>
      </trkpt>
      <trkpt lat="44.47355" lon="6.20726">
        <ele>1065</ele>
        <time>2025-11-21T13:13:21.000Z</time>
      </trkpt>
      <trkpt lat="44.47355" lon="6.20728">
        <ele>1064</ele>
        <time>2025-11-21T13:13:22.000Z</time>
      </trkpt>
      <trkpt lat="44.47355" lon="6.20729">
        <ele>1065</ele>
        <time>2025-11-21T13:13:23.000Z</time>
      </trkpt>
      <trkpt lat="44.47355" lon="6.20731">
        <ele>1066</ele>
        <time>2025-11-21T13:13:24.000Z</time>
      </trkpt>
      <trkpt lat="44.47355" lon="6.20734">
        <ele>1066</ele>
        <time>2025-11-21T13:13:25.000Z</time>
      </trkpt>
      <trkpt lat="44.47355" lon="6.20736">
        <ele>1065</ele>
        <time>2025-11-21T13:13:26.000Z</time>
      </trkpt>
      <trkpt lat="44.47356" lon="6.20737">
        <ele>1065</ele>
        <time>2025-11-21T13:13:27.000Z</time>
      </trkpt>
      <trkpt lat="44.47356" lon="6.20738">
        <ele>1064</ele>
        <time>2025-11-21T13:13:28.000Z</time>
      </trkpt>
      <trkpt lat="44.47357" lon="6.20739">
        <ele>1064</ele>
        <time>2025-11-21T13:13:29.000Z</time>
      </trkpt>
      <trkpt lat="44.47357" lon="6.20741">
        <ele>1063</ele>
        <time>2025-11-21T13:13:30.000Z</time>
      </trkpt>
      <trkpt lat="44.47357" lon="6.20743">
        <ele>1063</ele>
        <time>2025-11-21T13:13:31.000Z</time>
      </trkpt>
      <trkpt lat="44.47358" lon="6.20745">
        <ele>1063</ele>
        <time>2025-11-21T13:13:32.000Z</time>
      </trkpt>
      <trkpt lat="44.47358" lon="6.20746">
        <ele>1063</ele>
        <time>2025-11-21T13:13:33.000Z</time>
      </trkpt>
      <trkpt lat="44.47358" lon="6.20748">
        <ele>1063</ele>
        <time>2025-11-21T13:13:34.000Z</time>
      </trkpt>
      <trkpt lat="44.47359" lon="6.20749">
        <ele>1062</ele>
        <time>2025-11-21T13:13:35.000Z</time>
      </trkpt>
      <trkpt lat="44.47359" lon="6.20751">
        <ele>1063</ele>
        <time>2025-11-21T13:13:36.000Z</time>
      </trkpt>
      <trkpt lat="44.47359" lon="6.20753">
        <ele>1063</ele>
        <time>2025-11-21T13:13:37.000Z</time>
      </trkpt>
      <trkpt lat="44.47359" lon="6.20754">
        <ele>1063</ele>
        <time>2025-11-21T13:13:38.000Z</time>
      </trkpt>
      <trkpt lat="44.4736" lon="6.20754">
        <ele>1062</ele>
        <time>2025-11-21T13:13:39.000Z</time>
      </trkpt>
      <trkpt lat="44.47361" lon="6.20756">
        <ele>1062</ele>
        <time>2025-11-21T13:13:40.000Z</time>
      </trkpt>
      <trkpt lat="44.47362" lon="6.20758">
        <ele>1062</ele>
        <time>2025-11-21T13:13:41.000Z</time>
      </trkpt>
      <trkpt lat="44.47363" lon="6.20759">
        <ele>1061</ele>
        <time>2025-11-21T13:13:42.000Z</time>
      </trkpt>
      <trkpt lat="44.47363" lon="6.2076">
        <ele>1061</ele>
        <time>2025-11-21T13:13:43.000Z</time>
      </trkpt>
      <trkpt lat="44.47364" lon="6.20762">
        <ele>1061</ele>
        <time>2025-11-21T13:13:44.000Z</time>
      </trkpt>
      <trkpt lat="44.47365" lon="6.20764">
        <ele>1060</ele>
        <time>2025-11-21T13:13:45.000Z</time>
      </trkpt>
      <trkpt lat="44.47366" lon="6.20765">
        <ele>1060</ele>
        <time>2025-11-21T13:13:46.000Z</time>
      </trkpt>
      <trkpt lat="44.47367" lon="6.20766">
        <ele>1060</ele>
        <time>2025-11-21T13:13:47.000Z</time>
      </trkpt>
      <trkpt lat="44.47368" lon="6.20767">
        <ele>1061</ele>
        <time>2025-11-21T13:13:48.000Z</time>
      </trkpt>
      <trkpt lat="44.47369" lon="6.20768">
        <ele>1061</ele>
        <time>2025-11-21T13:13:49.000Z</time>
      </trkpt>
      <trkpt lat="44.4737" lon="6.20768">
        <ele>1061</ele>
        <time>2025-11-21T13:13:50.000Z</time>
      </trkpt>
      <trkpt lat="44.47371" lon="6.2077">
        <ele>1062</ele>
        <time>2025-11-21T13:13:51.000Z</time>
      </trkpt>
      <trkpt lat="44.47372" lon="6.2077">
        <ele>1062</ele>
        <time>2025-11-21T13:13:52.000Z</time>
      </trkpt>
      <trkpt lat="44.47373" lon="6.20771">
        <ele>1062</ele>
        <time>2025-11-21T13:13:53.000Z</time>
      </trkpt>
      <trkpt lat="44.47374" lon="6.20773">
        <ele>1062</ele>
        <time>2025-11-21T13:13:54.000Z</time>
      </trkpt>
      <trkpt lat="44.47374" lon="6.20774">
        <ele>1062</ele>
        <time>2025-11-21T13:13:55.000Z</time>
      </trkpt>
      <trkpt lat="44.47375" lon="6.20774">
        <ele>1061</ele>
        <time>2025-11-21T13:13:56.000Z</time>
      </trkpt>
      <trkpt lat="44.47376" lon="6.20775">
        <ele>1061</ele>
        <time>2025-11-21T13:13:57.000Z</time>
      </trkpt>
      <trkpt lat="44.47376" lon="6.20775">
        <ele>1061</ele>
        <time>2025-11-21T13:13:58.000Z</time>
      </trkpt>
      <trkpt lat="44.47376" lon="6.20775">
        <ele>1061</ele>
        <time>2025-11-21T13:13:59.000Z</time>
      </trkpt>
      <trkpt lat="44.47378" lon="6.20777">
        <ele>1059</ele>
        <time>2025-11-21T13:14:00.000Z</time>
      </trkpt>
      <trkpt lat="44.47379" lon="6.20778">
        <ele>1058</ele>
        <time>2025-11-21T13:14:01.000Z</time>
      </trkpt>
      <trkpt lat="44.4738" lon="6.20779">
        <ele>1058</ele>
        <time>2025-11-21T13:14:02.000Z</time>
      </trkpt>
      <trkpt lat="44.47381" lon="6.20781">
        <ele>1059</ele>
        <time>2025-11-21T13:14:03.000Z</time>
      </trkpt>
      <trkpt lat="44.47382" lon="6.20783">
        <ele>1059</ele>
        <time>2025-11-21T13:14:04.000Z</time>
      </trkpt>
      <trkpt lat="44.47383" lon="6.20784">
        <ele>1058</ele>
        <time>2025-11-21T13:14:05.000Z</time>
      </trkpt>
      <trkpt lat="44.47383" lon="6.20785">
        <ele>1059</ele>
        <time>2025-11-21T13:14:06.000Z</time>
      </trkpt>
      <trkpt lat="44.47384" lon="6.20787">
        <ele>1058</ele>
        <time>2025-11-21T13:14:07.000Z</time>
      </trkpt>
      <trkpt lat="44.47385" lon="6.20787">
        <ele>1058</ele>
        <time>2025-11-21T13:14:08.000Z</time>
      </trkpt>
      <trkpt lat="44.47386" lon="6.20787">
        <ele>1058</ele>
        <time>2025-11-21T13:14:09.000Z</time>
      </trkpt>
      <trkpt lat="44.47387" lon="6.20786">
        <ele>1058</ele>
        <time>2025-11-21T13:14:10.000Z</time>
      </trkpt>
      <trkpt lat="44.47388" lon="6.20786">
        <ele>1057</ele>
        <time>2025-11-21T13:14:11.000Z</time>
      </trkpt>
      <trkpt lat="44.47389" lon="6.20786">
        <ele>1057</ele>
        <time>2025-11-21T13:14:12.000Z</time>
      </trkpt>
      <trkpt lat="44.47389" lon="6.20786">
        <ele>1057</ele>
        <time>2025-11-21T13:14:13.000Z</time>
      </trkpt>
      <trkpt lat="44.4739" lon="6.20787">
        <ele>1057</ele>
        <time>2025-11-21T13:14:14.000Z</time>
      </trkpt>
      <trkpt lat="44.47391" lon="6.20788">
        <ele>1056</ele>
        <time>2025-11-21T13:14:15.000Z</time>
      </trkpt>
      <trkpt lat="44.47392" lon="6.20789">
        <ele>1056</ele>
        <time>2025-11-21T13:14:16.000Z</time>
      </trkpt>
      <trkpt lat="44.47393" lon="6.20789">
        <ele>1056</ele>
        <time>2025-11-21T13:14:17.000Z</time>
      </trkpt>
      <trkpt lat="44.47394" lon="6.2079">
        <ele>1056</ele>
        <time>2025-11-21T13:14:18.000Z</time>
      </trkpt>
      <trkpt lat="44.47395" lon="6.20791">
        <ele>1055</ele>
        <time>2025-11-21T13:14:19.000Z</time>
      </trkpt>
      <trkpt lat="44.47396" lon="6.20792">
        <ele>1055</ele>
        <time>2025-11-21T13:14:20.000Z</time>
      </trkpt>
      <trkpt lat="44.47397" lon="6.20793">
        <ele>1055</ele>
        <time>2025-11-21T13:14:21.000Z</time>
      </trkpt>
      <trkpt lat="44.47397" lon="6.20794">
        <ele>1054</ele>
        <time>2025-11-21T13:14:22.000Z</time>
      </trkpt>
      <trkpt lat="44.47398" lon="6.20795">
        <ele>1054</ele>
        <time>2025-11-21T13:14:23.000Z</time>
      </trkpt>
      <trkpt lat="44.47399" lon="6.20795">
        <ele>1054</ele>
        <time>2025-11-21T13:14:24.000Z</time>
      </trkpt>
      <trkpt lat="44.47399" lon="6.20797">
        <ele>1054</ele>
        <time>2025-11-21T13:14:25.000Z</time>
      </trkpt>
      <trkpt lat="44.47399" lon="6.20798">
        <ele>1054</ele>
        <time>2025-11-21T13:14:26.000Z</time>
      </trkpt>
      <trkpt lat="44.474" lon="6.20799">
        <ele>1054</ele>
        <time>2025-11-21T13:14:27.000Z</time>
      </trkpt>
      <trkpt lat="44.47401" lon="6.208">
        <ele>1054</ele>
        <time>2025-11-21T13:14:28.000Z</time>
      </trkpt>
      <trkpt lat="44.47401" lon="6.208">
        <ele>1054</ele>
        <time>2025-11-21T13:14:29.000Z</time>
      </trkpt>
      <trkpt lat="44.47401" lon="6.208">
        <ele>1054</ele>
        <time>2025-11-21T13:14:30.000Z</time>
      </trkpt>
      <trkpt lat="44.47401" lon="6.20803">
        <ele>1055</ele>
        <time>2025-11-21T13:14:31.000Z</time>
      </trkpt>
      <trkpt lat="44.47402" lon="6.20805">
        <ele>1056</ele>
        <time>2025-11-21T13:14:32.000Z</time>
      </trkpt>
      <trkpt lat="44.47402" lon="6.20808">
        <ele>1056</ele>
        <time>2025-11-21T13:14:33.000Z</time>
      </trkpt>
      <trkpt lat="44.47402" lon="6.20809">
        <ele>1056</ele>
        <time>2025-11-21T13:14:34.000Z</time>
      </trkpt>
      <trkpt lat="44.47402" lon="6.20811">
        <ele>1056</ele>
        <time>2025-11-21T13:14:35.000Z</time>
      </trkpt>
      <trkpt lat="44.47402" lon="6.20812">
        <ele>1055</ele>
        <time>2025-11-21T13:14:36.000Z</time>
      </trkpt>
      <trkpt lat="44.47402" lon="6.20812">
        <ele>1054</ele>
        <time>2025-11-21T13:14:37.000Z</time>
      </trkpt>
      <trkpt lat="44.47401" lon="6.20813">
        <ele>1054</ele>
        <time>2025-11-21T13:14:38.000Z</time>
      </trkpt>
      <trkpt lat="44.47401" lon="6.20815">
        <ele>1054</ele>
        <time>2025-11-21T13:14:39.000Z</time>
      </trkpt>
      <trkpt lat="44.47401" lon="6.20817">
        <ele>1053</ele>
        <time>2025-11-21T13:14:40.000Z</time>
      </trkpt>
      <trkpt lat="44.47401" lon="6.20819">
        <ele>1053</ele>
        <time>2025-11-21T13:14:41.000Z</time>
      </trkpt>
      <trkpt lat="44.47402" lon="6.20821">
        <ele>1052</ele>
        <time>2025-11-21T13:14:42.000Z</time>
      </trkpt>
      <trkpt lat="44.47402" lon="6.20823">
        <ele>1051</ele>
        <time>2025-11-21T13:14:43.000Z</time>
      </trkpt>
      <trkpt lat="44.47402" lon="6.20825">
        <ele>1051</ele>
        <time>2025-11-21T13:14:44.000Z</time>
      </trkpt>
      <trkpt lat="44.47403" lon="6.20827">
        <ele>1051</ele>
        <time>2025-11-21T13:14:45.000Z</time>
      </trkpt>
      <trkpt lat="44.47403" lon="6.20829">
        <ele>1051</ele>
        <time>2025-11-21T13:14:46.000Z</time>
      </trkpt>
      <trkpt lat="44.47404" lon="6.2083">
        <ele>1050</ele>
        <time>2025-11-21T13:14:47.000Z</time>
      </trkpt>
      <trkpt lat="44.47405" lon="6.20831">
        <ele>1050</ele>
        <time>2025-11-21T13:14:48.000Z</time>
      </trkpt>
      <trkpt lat="44.47405" lon="6.20832">
        <ele>1049</ele>
        <time>2025-11-21T13:14:49.000Z</time>
      </trkpt>
      <trkpt lat="44.47406" lon="6.20833">
        <ele>1048</ele>
        <time>2025-11-21T13:14:50.000Z</time>
      </trkpt>
      <trkpt lat="44.47406" lon="6.20834">
        <ele>1047</ele>
        <time>2025-11-21T13:14:51.000Z</time>
      </trkpt>
      <trkpt lat="44.47407" lon="6.20835">
        <ele>1047</ele>
        <time>2025-11-21T13:14:52.000Z</time>
      </trkpt>
      <trkpt lat="44.47408" lon="6.20835">
        <ele>1047</ele>
        <time>2025-11-21T13:14:53.000Z</time>
      </trkpt>
      <trkpt lat="44.47409" lon="6.20836">
        <ele>1046</ele>
        <time>2025-11-21T13:14:54.000Z</time>
      </trkpt>
      <trkpt lat="44.47409" lon="6.20837">
        <ele>1046</ele>
        <time>2025-11-21T13:14:55.000Z</time>
      </trkpt>
      <trkpt lat="44.4741" lon="6.20839">
        <ele>1046</ele>
        <time>2025-11-21T13:14:56.000Z</time>
      </trkpt>
      <trkpt lat="44.47411" lon="6.20841">
        <ele>1045</ele>
        <time>2025-11-21T13:14:57.000Z</time>
      </trkpt>
      <trkpt lat="44.47411" lon="6.20842">
        <ele>1045</ele>
        <time>2025-11-21T13:14:58.000Z</time>
      </trkpt>
      <trkpt lat="44.47412" lon="6.20843">
        <ele>1045</ele>
        <time>2025-11-21T13:14:59.000Z</time>
      </trkpt>
      <trkpt lat="44.47412" lon="6.20844">
        <ele>1045</ele>
        <time>2025-11-21T13:15:00.000Z</time>
      </trkpt>
      <trkpt lat="44.47413" lon="6.20845">
        <ele>1044</ele>
        <time>2025-11-21T13:15:01.000Z</time>
      </trkpt>
      <trkpt lat="44.47413" lon="6.20846">
        <ele>1044</ele>
        <time>2025-11-21T13:15:02.000Z</time>
      </trkpt>
      <trkpt lat="44.47414" lon="6.20847">
        <ele>1043</ele>
        <time>2025-11-21T13:15:03.000Z</time>
      </trkpt>
      <trkpt lat="44.47415" lon="6.20848">
        <ele>1043</ele>
        <time>2025-11-21T13:15:04.000Z</time>
      </trkpt>
      <trkpt lat="44.47416" lon="6.20849">
        <ele>1043</ele>
        <time>2025-11-21T13:15:05.000Z</time>
      </trkpt>
      <trkpt lat="44.47417" lon="6.2085">
        <ele>1042</ele>
        <time>2025-11-21T13:15:06.000Z</time>
      </trkpt>
      <trkpt lat="44.47418" lon="6.20851">
        <ele>1042</ele>
        <time>2025-11-21T13:15:07.000Z</time>
      </trkpt>
      <trkpt lat="44.47418" lon="6.20853">
        <ele>1041</ele>
        <time>2025-11-21T13:15:08.000Z</time>
      </trkpt>
      <trkpt lat="44.47419" lon="6.20855">
        <ele>1041</ele>
        <time>2025-11-21T13:15:09.000Z</time>
      </trkpt>
      <trkpt lat="44.47419" lon="6.20857">
        <ele>1040</ele>
        <time>2025-11-21T13:15:10.000Z</time>
      </trkpt>
      <trkpt lat="44.4742" lon="6.20859">
        <ele>1040</ele>
        <time>2025-11-21T13:15:11.000Z</time>
      </trkpt>
      <trkpt lat="44.4742" lon="6.2086">
        <ele>1040</ele>
        <time>2025-11-21T13:15:12.000Z</time>
      </trkpt>
      <trkpt lat="44.4742" lon="6.20862">
        <ele>1040</ele>
        <time>2025-11-21T13:15:13.000Z</time>
      </trkpt>
      <trkpt lat="44.4742" lon="6.20863">
        <ele>1041</ele>
        <time>2025-11-21T13:15:14.000Z</time>
      </trkpt>
      <trkpt lat="44.47419" lon="6.20862">
        <ele>1040</ele>
        <time>2025-11-21T13:15:15.000Z</time>
      </trkpt>
      <trkpt lat="44.47419" lon="6.20861">
        <ele>1039</ele>
        <time>2025-11-21T13:15:16.000Z</time>
      </trkpt>
      <trkpt lat="44.47418" lon="6.2086">
        <ele>1038</ele>
        <time>2025-11-21T13:15:17.000Z</time>
      </trkpt>
      <trkpt lat="44.47417" lon="6.2086">
        <ele>1039</ele>
        <time>2025-11-21T13:15:18.000Z</time>
      </trkpt>
      <trkpt lat="44.47416" lon="6.20861">
        <ele>1039</ele>
        <time>2025-11-21T13:15:19.000Z</time>
      </trkpt>
      <trkpt lat="44.47416" lon="6.20861">
        <ele>1039</ele>
        <time>2025-11-21T13:15:20.000Z</time>
      </trkpt>
      <trkpt lat="44.47415" lon="6.20862">
        <ele>1038</ele>
        <time>2025-11-21T13:15:21.000Z</time>
      </trkpt>
      <trkpt lat="44.47414" lon="6.20863">
        <ele>1039</ele>
        <time>2025-11-21T13:15:22.000Z</time>
      </trkpt>
      <trkpt lat="44.47413" lon="6.20864">
        <ele>1039</ele>
        <time>2025-11-21T13:15:23.000Z</time>
      </trkpt>
      <trkpt lat="44.47413" lon="6.20863">
        <ele>1039</ele>
        <time>2025-11-21T13:15:24.000Z</time>
      </trkpt>
      <trkpt lat="44.47412" lon="6.20863">
        <ele>1039</ele>
        <time>2025-11-21T13:15:25.000Z</time>
      </trkpt>
      <trkpt lat="44.47412" lon="6.20863">
        <ele>1039</ele>
        <time>2025-11-21T13:15:26.000Z</time>
      </trkpt>
      <trkpt lat="44.47412" lon="6.20863">
        <ele>1039</ele>
        <time>2025-11-21T13:15:27.000Z</time>
      </trkpt>
      <trkpt lat="44.47411" lon="6.20862">
        <ele>1039</ele>
        <time>2025-11-21T13:15:28.000Z</time>
      </trkpt>
      <trkpt lat="44.4741" lon="6.20862">
        <ele>1039</ele>
        <time>2025-11-21T13:15:29.000Z</time>
      </trkpt>
      <trkpt lat="44.47409" lon="6.20862">
        <ele>1039</ele>
        <time>2025-11-21T13:15:30.000Z</time>
      </trkpt>
      <trkpt lat="44.47409" lon="6.20862">
        <ele>1038</ele>
        <time>2025-11-21T13:15:31.000Z</time>
      </trkpt>
      <trkpt lat="44.47407" lon="6.20862">
        <ele>1039</ele>
        <time>2025-11-21T13:15:32.000Z</time>
      </trkpt>
      <trkpt lat="44.47406" lon="6.20862">
        <ele>1039</ele>
        <time>2025-11-21T13:15:33.000Z</time>
      </trkpt>
      <trkpt lat="44.47405" lon="6.20861">
        <ele>1039</ele>
        <time>2025-11-21T13:15:34.000Z</time>
      </trkpt>
      <trkpt lat="44.47404" lon="6.20861">
        <ele>1038</ele>
        <time>2025-11-21T13:15:35.000Z</time>
      </trkpt>
      <trkpt lat="44.47403" lon="6.20861">
        <ele>1039</ele>
        <time>2025-11-21T13:15:36.000Z</time>
      </trkpt>
      <trkpt lat="44.47402" lon="6.20862">
        <ele>1039</ele>
        <time>2025-11-21T13:15:37.000Z</time>
      </trkpt>
      <trkpt lat="44.47401" lon="6.20863">
        <ele>1039</ele>
        <time>2025-11-21T13:15:38.000Z</time>
      </trkpt>
      <trkpt lat="44.47399" lon="6.20863">
        <ele>1038</ele>
        <time>2025-11-21T13:15:39.000Z</time>
      </trkpt>
      <trkpt lat="44.47398" lon="6.20863">
        <ele>1038</ele>
        <time>2025-11-21T13:15:40.000Z</time>
      </trkpt>
      <trkpt lat="44.47397" lon="6.20863">
        <ele>1037</ele>
        <time>2025-11-21T13:15:41.000Z</time>
      </trkpt>
      <trkpt lat="44.47396" lon="6.20863">
        <ele>1037</ele>
        <time>2025-11-21T13:15:42.000Z</time>
      </trkpt>
      <trkpt lat="44.47395" lon="6.20862">
        <ele>1037</ele>
        <time>2025-11-21T13:15:43.000Z</time>
      </trkpt>
      <trkpt lat="44.47395" lon="6.20862">
        <ele>1036</ele>
        <time>2025-11-21T13:15:44.000Z</time>
      </trkpt>
      <trkpt lat="44.47393" lon="6.20861">
        <ele>1035</ele>
        <time>2025-11-21T13:15:45.000Z</time>
      </trkpt>
      <trkpt lat="44.47392" lon="6.20861">
        <ele>1034</ele>
        <time>2025-11-21T13:15:46.000Z</time>
      </trkpt>
      <trkpt lat="44.47391" lon="6.2086">
        <ele>1033</ele>
        <time>2025-11-21T13:15:47.000Z</time>
      </trkpt>
      <trkpt lat="44.47389" lon="6.2086">
        <ele>1032</ele>
        <time>2025-11-21T13:15:48.000Z</time>
      </trkpt>
      <trkpt lat="44.47388" lon="6.20859">
        <ele>1031</ele>
        <time>2025-11-21T13:15:49.000Z</time>
      </trkpt>
      <trkpt lat="44.47387" lon="6.20859">
        <ele>1030</ele>
        <time>2025-11-21T13:15:50.000Z</time>
      </trkpt>
      <trkpt lat="44.47386" lon="6.20858">
        <ele>1028</ele>
        <time>2025-11-21T13:15:51.000Z</time>
      </trkpt>
      <trkpt lat="44.47385" lon="6.20857">
        <ele>1028</ele>
        <time>2025-11-21T13:15:52.000Z</time>
      </trkpt>
      <trkpt lat="44.47384" lon="6.20853">
        <ele>1027</ele>
        <time>2025-11-21T13:15:53.000Z</time>
      </trkpt>
      <trkpt lat="44.47383" lon="6.20852">
        <ele>1028</ele>
        <time>2025-11-21T13:15:54.000Z</time>
      </trkpt>
      <trkpt lat="44.47382" lon="6.20851">
        <ele>1028</ele>
        <time>2025-11-21T13:15:55.000Z</time>
      </trkpt>
      <trkpt lat="44.47382" lon="6.2085">
        <ele>1029</ele>
        <time>2025-11-21T13:15:56.000Z</time>
      </trkpt>
      <trkpt lat="44.47381" lon="6.20849">
        <ele>1029</ele>
        <time>2025-11-21T13:15:57.000Z</time>
      </trkpt>
      <trkpt lat="44.4738" lon="6.20847">
        <ele>1029</ele>
        <time>2025-11-21T13:15:58.000Z</time>
      </trkpt>
      <trkpt lat="44.4738" lon="6.20845">
        <ele>1029</ele>
        <time>2025-11-21T13:15:59.000Z</time>
      </trkpt>
      <trkpt lat="44.4738" lon="6.20845">
        <ele>1030</ele>
        <time>2025-11-21T13:16:00.000Z</time>
      </trkpt>
      <trkpt lat="44.47379" lon="6.20843">
        <ele>1030</ele>
        <time>2025-11-21T13:16:01.000Z</time>
      </trkpt>
      <trkpt lat="44.47379" lon="6.20842">
        <ele>1030</ele>
        <time>2025-11-21T13:16:02.000Z</time>
      </trkpt>
      <trkpt lat="44.47379" lon="6.20841">
        <ele>1030</ele>
        <time>2025-11-21T13:16:03.000Z</time>
      </trkpt>
      <trkpt lat="44.47379" lon="6.2084">
        <ele>1030</ele>
        <time>2025-11-21T13:16:04.000Z</time>
      </trkpt>
      <trkpt lat="44.47379" lon="6.20839">
        <ele>1031</ele>
        <time>2025-11-21T13:16:05.000Z</time>
      </trkpt>
      <trkpt lat="44.4738" lon="6.20837">
        <ele>1030</ele>
        <time>2025-11-21T13:16:06.000Z</time>
      </trkpt>
      <trkpt lat="44.47381" lon="6.20836">
        <ele>1030</ele>
        <time>2025-11-21T13:16:07.000Z</time>
      </trkpt>
      <trkpt lat="44.47381" lon="6.20834">
        <ele>1030</ele>
        <time>2025-11-21T13:16:08.000Z</time>
      </trkpt>
      <trkpt lat="44.47382" lon="6.20834">
        <ele>1030</ele>
        <time>2025-11-21T13:16:09.000Z</time>
      </trkpt>
      <trkpt lat="44.47382" lon="6.20832">
        <ele>1030</ele>
        <time>2025-11-21T13:16:10.000Z</time>
      </trkpt>
      <trkpt lat="44.47382" lon="6.20831">
        <ele>1030</ele>
        <time>2025-11-21T13:16:11.000Z</time>
      </trkpt>
      <trkpt lat="44.47382" lon="6.2083">
        <ele>1029</ele>
        <time>2025-11-21T13:16:12.000Z</time>
      </trkpt>
      <trkpt lat="44.47381" lon="6.2083">
        <ele>1029</ele>
        <time>2025-11-21T13:16:13.000Z</time>
      </trkpt>
      <trkpt lat="44.4738" lon="6.20829">
        <ele>1029</ele>
        <time>2025-11-21T13:16:14.000Z</time>
      </trkpt>
      <trkpt lat="44.47379" lon="6.20828">
        <ele>1029</ele>
        <time>2025-11-21T13:16:15.000Z</time>
      </trkpt>
      <trkpt lat="44.47378" lon="6.20828">
        <ele>1028</ele>
        <time>2025-11-21T13:16:16.000Z</time>
      </trkpt>
      <trkpt lat="44.47378" lon="6.20828">
        <ele>1028</ele>
        <time>2025-11-21T13:16:17.000Z</time>
      </trkpt>
      <trkpt lat="44.47377" lon="6.20827">
        <ele>1028</ele>
        <time>2025-11-21T13:16:18.000Z</time>
      </trkpt>
      <trkpt lat="44.47375" lon="6.20827">
        <ele>1028</ele>
        <time>2025-11-21T13:16:19.000Z</time>
      </trkpt>
      <trkpt lat="44.47375" lon="6.20826">
        <ele>1028</ele>
        <time>2025-11-21T13:16:20.000Z</time>
      </trkpt>
      <trkpt lat="44.47373" lon="6.20825">
        <ele>1028</ele>
        <time>2025-11-21T13:16:21.000Z</time>
      </trkpt>
      <trkpt lat="44.47372" lon="6.20825">
        <ele>1028</ele>
        <time>2025-11-21T13:16:22.000Z</time>
      </trkpt>
      <trkpt lat="44.47371" lon="6.20824">
        <ele>1027</ele>
        <time>2025-11-21T13:16:23.000Z</time>
      </trkpt>
      <trkpt lat="44.4737" lon="6.20824">
        <ele>1026</ele>
        <time>2025-11-21T13:16:24.000Z</time>
      </trkpt>
      <trkpt lat="44.47369" lon="6.20823">
        <ele>1027</ele>
        <time>2025-11-21T13:16:25.000Z</time>
      </trkpt>
      <trkpt lat="44.47368" lon="6.20822">
        <ele>1027</ele>
        <time>2025-11-21T13:16:26.000Z</time>
      </trkpt>
      <trkpt lat="44.47368" lon="6.20822">
        <ele>1027</ele>
        <time>2025-11-21T13:16:27.000Z</time>
      </trkpt>
      <trkpt lat="44.47368" lon="6.20821">
        <ele>1027</ele>
        <time>2025-11-21T13:16:28.000Z</time>
      </trkpt>
      <trkpt lat="44.47366" lon="6.20819">
        <ele>1027</ele>
        <time>2025-11-21T13:16:29.000Z</time>
      </trkpt>
      <trkpt lat="44.47365" lon="6.20819">
        <ele>1027</ele>
        <time>2025-11-21T13:16:30.000Z</time>
      </trkpt>
      <trkpt lat="44.47364" lon="6.20819">
        <ele>1027</ele>
        <time>2025-11-21T13:16:31.000Z</time>
      </trkpt>
      <trkpt lat="44.47364" lon="6.20818">
        <ele>1027</ele>
        <time>2025-11-21T13:16:32.000Z</time>
      </trkpt>
      <trkpt lat="44.47363" lon="6.20818">
        <ele>1027</ele>
        <time>2025-11-21T13:16:33.000Z</time>
      </trkpt>
      <trkpt lat="44.47361" lon="6.20818">
        <ele>1026</ele>
        <time>2025-11-21T13:16:34.000Z</time>
      </trkpt>
      <trkpt lat="44.4736" lon="6.20818">
        <ele>1027</ele>
        <time>2025-11-21T13:16:35.000Z</time>
      </trkpt>
      <trkpt lat="44.47358" lon="6.20818">
        <ele>1026</ele>
        <time>2025-11-21T13:16:36.000Z</time>
      </trkpt>
      <trkpt lat="44.47357" lon="6.20817">
        <ele>1026</ele>
        <time>2025-11-21T13:16:37.000Z</time>
      </trkpt>
      <trkpt lat="44.47356" lon="6.20817">
        <ele>1025</ele>
        <time>2025-11-21T13:16:38.000Z</time>
      </trkpt>
      <trkpt lat="44.47354" lon="6.20816">
        <ele>1025</ele>
        <time>2025-11-21T13:16:39.000Z</time>
      </trkpt>
      <trkpt lat="44.47352" lon="6.20815">
        <ele>1025</ele>
        <time>2025-11-21T13:16:40.000Z</time>
      </trkpt>
      <trkpt lat="44.47351" lon="6.20815">
        <ele>1024</ele>
        <time>2025-11-21T13:16:41.000Z</time>
      </trkpt>
      <trkpt lat="44.4735" lon="6.20814">
        <ele>1024</ele>
        <time>2025-11-21T13:16:42.000Z</time>
      </trkpt>
      <trkpt lat="44.47348" lon="6.20813">
        <ele>1024</ele>
        <time>2025-11-21T13:16:43.000Z</time>
      </trkpt>
      <trkpt lat="44.47347" lon="6.20812">
        <ele>1023</ele>
        <time>2025-11-21T13:16:44.000Z</time>
      </trkpt>
      <trkpt lat="44.47346" lon="6.20811">
        <ele>1023</ele>
        <time>2025-11-21T13:16:45.000Z</time>
      </trkpt>
      <trkpt lat="44.47345" lon="6.2081">
        <ele>1023</ele>
        <time>2025-11-21T13:16:46.000Z</time>
      </trkpt>
      <trkpt lat="44.47344" lon="6.20809">
        <ele>1022</ele>
        <time>2025-11-21T13:16:47.000Z</time>
      </trkpt>
      <trkpt lat="44.47343" lon="6.20807">
        <ele>1022</ele>
        <time>2025-11-21T13:16:48.000Z</time>
      </trkpt>
      <trkpt lat="44.47342" lon="6.20806">
        <ele>1021</ele>
        <time>2025-11-21T13:16:49.000Z</time>
      </trkpt>
      <trkpt lat="44.47342" lon="6.20804">
        <ele>1021</ele>
        <time>2025-11-21T13:16:50.000Z</time>
      </trkpt>
      <trkpt lat="44.47341" lon="6.20803">
        <ele>1021</ele>
        <time>2025-11-21T13:16:51.000Z</time>
      </trkpt>
      <trkpt lat="44.4734" lon="6.20802">
        <ele>1020</ele>
        <time>2025-11-21T13:16:52.000Z</time>
      </trkpt>
      <trkpt lat="44.47339" lon="6.20802">
        <ele>1021</ele>
        <time>2025-11-21T13:16:53.000Z</time>
      </trkpt>
      <trkpt lat="44.47338" lon="6.20802">
        <ele>1020</ele>
        <time>2025-11-21T13:16:54.000Z</time>
      </trkpt>
      <trkpt lat="44.47337" lon="6.20801">
        <ele>1020</ele>
        <time>2025-11-21T13:16:55.000Z</time>
      </trkpt>
      <trkpt lat="44.47335" lon="6.20801">
        <ele>1019</ele>
        <time>2025-11-21T13:16:56.000Z</time>
      </trkpt>
      <trkpt lat="44.47335" lon="6.208">
        <ele>1018</ele>
        <time>2025-11-21T13:16:57.000Z</time>
      </trkpt>
      <trkpt lat="44.47334" lon="6.208">
        <ele>1018</ele>
        <time>2025-11-21T13:16:58.000Z</time>
      </trkpt>
      <trkpt lat="44.47333" lon="6.20801">
        <ele>1018</ele>
        <time>2025-11-21T13:16:59.000Z</time>
      </trkpt>
      <trkpt lat="44.47333" lon="6.20801">
        <ele>1019</ele>
        <time>2025-11-21T13:17:00.000Z</time>
      </trkpt>
      <trkpt lat="44.47333" lon="6.20802">
        <ele>1019</ele>
        <time>2025-11-21T13:17:01.000Z</time>
      </trkpt>
      <trkpt lat="44.47334" lon="6.20802">
        <ele>1020</ele>
        <time>2025-11-21T13:17:02.000Z</time>
      </trkpt>
      <trkpt lat="44.47335" lon="6.20803">
        <ele>1020</ele>
        <time>2025-11-21T13:17:03.000Z</time>
      </trkpt>
      <trkpt lat="44.47335" lon="6.20804">
        <ele>1021</ele>
        <time>2025-11-21T13:17:04.000Z</time>
      </trkpt>
      <trkpt lat="44.47336" lon="6.20804">
        <ele>1021</ele>
        <time>2025-11-21T13:17:05.000Z</time>
      </trkpt>
      <trkpt lat="44.47336" lon="6.20806">
        <ele>1020</ele>
        <time>2025-11-21T13:17:06.000Z</time>
      </trkpt>
      <trkpt lat="44.47336" lon="6.20807">
        <ele>1020</ele>
        <time>2025-11-21T13:17:07.000Z</time>
      </trkpt>
      <trkpt lat="44.47336" lon="6.20808">
        <ele>1021</ele>
        <time>2025-11-21T13:17:08.000Z</time>
      </trkpt>
      <trkpt lat="44.47336" lon="6.2081">
        <ele>1020</ele>
        <time>2025-11-21T13:17:09.000Z</time>
      </trkpt>
      <trkpt lat="44.47337" lon="6.20811">
        <ele>1020</ele>
        <time>2025-11-21T13:17:10.000Z</time>
      </trkpt>
      <trkpt lat="44.47337" lon="6.20812">
        <ele>1020</ele>
        <time>2025-11-21T13:17:11.000Z</time>
      </trkpt>
      <trkpt lat="44.47338" lon="6.20813">
        <ele>1020</ele>
        <time>2025-11-21T13:17:12.000Z</time>
      </trkpt>
      <trkpt lat="44.47339" lon="6.20815">
        <ele>1020</ele>
        <time>2025-11-21T13:17:13.000Z</time>
      </trkpt>
      <trkpt lat="44.47339" lon="6.20816">
        <ele>1020</ele>
        <time>2025-11-21T13:17:14.000Z</time>
      </trkpt>
      <trkpt lat="44.47341" lon="6.20817">
        <ele>1020</ele>
        <time>2025-11-21T13:17:15.000Z</time>
      </trkpt>
      <trkpt lat="44.47342" lon="6.20818">
        <ele>1019</ele>
        <time>2025-11-21T13:17:16.000Z</time>
      </trkpt>
      <trkpt lat="44.47344" lon="6.20818">
        <ele>1020</ele>
        <time>2025-11-21T13:17:17.000Z</time>
      </trkpt>
      <trkpt lat="44.47345" lon="6.20819">
        <ele>1021</ele>
        <time>2025-11-21T13:17:18.000Z</time>
      </trkpt>
      <trkpt lat="44.47346" lon="6.20819">
        <ele>1020</ele>
        <time>2025-11-21T13:17:19.000Z</time>
      </trkpt>
      <trkpt lat="44.47346" lon="6.20819">
        <ele>1020</ele>
        <time>2025-11-21T13:17:20.000Z</time>
      </trkpt>
      <trkpt lat="44.47346" lon="6.20819">
        <ele>1020</ele>
        <time>2025-11-21T13:17:21.000Z</time>
      </trkpt>
      <trkpt lat="44.47347" lon="6.2082">
        <ele>1020</ele>
        <time>2025-11-21T13:17:22.000Z</time>
      </trkpt>
      <trkpt lat="44.47348" lon="6.20819">
        <ele>1019</ele>
        <time>2025-11-21T13:17:23.000Z</time>
      </trkpt>
      <trkpt lat="44.47348" lon="6.2082">
        <ele>1019</ele>
        <time>2025-11-21T13:17:24.000Z</time>
      </trkpt>
      <trkpt lat="44.47348" lon="6.2082">
        <ele>1019</ele>
        <time>2025-11-21T13:17:25.000Z</time>
      </trkpt>
      <trkpt lat="44.4735" lon="6.20821">
        <ele>1019</ele>
        <time>2025-11-21T13:17:26.000Z</time>
      </trkpt>
      <trkpt lat="44.4735" lon="6.20822">
        <ele>1019</ele>
        <time>2025-11-21T13:17:27.000Z</time>
      </trkpt>
      <trkpt lat="44.47351" lon="6.20822">
        <ele>1019</ele>
        <time>2025-11-21T13:17:28.000Z</time>
      </trkpt>
      <trkpt lat="44.47352" lon="6.20823">
        <ele>1019</ele>
        <time>2025-11-21T13:17:29.000Z</time>
      </trkpt>
      <trkpt lat="44.47353" lon="6.20824">
        <ele>1019</ele>
        <time>2025-11-21T13:17:30.000Z</time>
      </trkpt>
      <trkpt lat="44.47355" lon="6.20826">
        <ele>1019</ele>
        <time>2025-11-21T13:17:31.000Z</time>
      </trkpt>
      <trkpt lat="44.47355" lon="6.20827">
        <ele>1019</ele>
        <time>2025-11-21T13:17:32.000Z</time>
      </trkpt>
      <trkpt lat="44.47356" lon="6.20829">
        <ele>1018</ele>
        <time>2025-11-21T13:17:33.000Z</time>
      </trkpt>
      <trkpt lat="44.47356" lon="6.20831">
        <ele>1018</ele>
        <time>2025-11-21T13:17:34.000Z</time>
      </trkpt>
      <trkpt lat="44.47356" lon="6.20833">
        <ele>1018</ele>
        <time>2025-11-21T13:17:35.000Z</time>
      </trkpt>
      <trkpt lat="44.47356" lon="6.20835">
        <ele>1017</ele>
        <time>2025-11-21T13:17:36.000Z</time>
      </trkpt>
      <trkpt lat="44.47356" lon="6.20837">
        <ele>1018</ele>
        <time>2025-11-21T13:17:37.000Z</time>
      </trkpt>
      <trkpt lat="44.47356" lon="6.20839">
        <ele>1018</ele>
        <time>2025-11-21T13:17:38.000Z</time>
      </trkpt>
      <trkpt lat="44.47356" lon="6.2084">
        <ele>1018</ele>
        <time>2025-11-21T13:17:39.000Z</time>
      </trkpt>
      <trkpt lat="44.47355" lon="6.20842">
        <ele>1018</ele>
        <time>2025-11-21T13:17:40.000Z</time>
      </trkpt>
      <trkpt lat="44.47354" lon="6.20844">
        <ele>1018</ele>
        <time>2025-11-21T13:17:41.000Z</time>
      </trkpt>
      <trkpt lat="44.47353" lon="6.20846">
        <ele>1017</ele>
        <time>2025-11-21T13:17:42.000Z</time>
      </trkpt>
      <trkpt lat="44.47352" lon="6.20847">
        <ele>1017</ele>
        <time>2025-11-21T13:17:43.000Z</time>
      </trkpt>
      <trkpt lat="44.47351" lon="6.20848">
        <ele>1017</ele>
        <time>2025-11-21T13:17:44.000Z</time>
      </trkpt>
      <trkpt lat="44.4735" lon="6.20849">
        <ele>1016</ele>
        <time>2025-11-21T13:17:45.000Z</time>
      </trkpt>
      <trkpt lat="44.4735" lon="6.2085">
        <ele>1016</ele>
        <time>2025-11-21T13:17:46.000Z</time>
      </trkpt>
      <trkpt lat="44.47349" lon="6.20851">
        <ele>1016</ele>
        <time>2025-11-21T13:17:47.000Z</time>
      </trkpt>
      <trkpt lat="44.47347" lon="6.20852">
        <ele>1016</ele>
        <time>2025-11-21T13:17:48.000Z</time>
      </trkpt>
      <trkpt lat="44.47346" lon="6.20854">
        <ele>1016</ele>
        <time>2025-11-21T13:17:49.000Z</time>
      </trkpt>
      <trkpt lat="44.47346" lon="6.20855">
        <ele>1015</ele>
        <time>2025-11-21T13:17:50.000Z</time>
      </trkpt>
      <trkpt lat="44.47345" lon="6.20857">
        <ele>1014</ele>
        <time>2025-11-21T13:17:51.000Z</time>
      </trkpt>
      <trkpt lat="44.47345" lon="6.20858">
        <ele>1014</ele>
        <time>2025-11-21T13:17:52.000Z</time>
      </trkpt>
      <trkpt lat="44.47345" lon="6.2086">
        <ele>1013</ele>
        <time>2025-11-21T13:17:53.000Z</time>
      </trkpt>
      <trkpt lat="44.47344" lon="6.20861">
        <ele>1013</ele>
        <time>2025-11-21T13:17:54.000Z</time>
      </trkpt>
      <trkpt lat="44.47345" lon="6.20862">
        <ele>1013</ele>
        <time>2025-11-21T13:17:55.000Z</time>
      </trkpt>
      <trkpt lat="44.47345" lon="6.20863">
        <ele>1012</ele>
        <time>2025-11-21T13:17:56.000Z</time>
      </trkpt>
      <trkpt lat="44.47346" lon="6.20864">
        <ele>1012</ele>
        <time>2025-11-21T13:17:57.000Z</time>
      </trkpt>
      <trkpt lat="44.47347" lon="6.20865">
        <ele>1012</ele>
        <time>2025-11-21T13:17:58.000Z</time>
      </trkpt>
      <trkpt lat="44.47347" lon="6.20866">
        <ele>1011</ele>
        <time>2025-11-21T13:17:59.000Z</time>
      </trkpt>
      <trkpt lat="44.47347" lon="6.20867">
        <ele>1011</ele>
        <time>2025-11-21T13:18:00.000Z</time>
      </trkpt>
      <trkpt lat="44.47347" lon="6.20868">
        <ele>1011</ele>
        <time>2025-11-21T13:18:01.000Z</time>
      </trkpt>
      <trkpt lat="44.47349" lon="6.20869">
        <ele>1010</ele>
        <time>2025-11-21T13:18:02.000Z</time>
      </trkpt>
      <trkpt lat="44.4735" lon="6.2087">
        <ele>1009</ele>
        <time>2025-11-21T13:18:03.000Z</time>
      </trkpt>
      <trkpt lat="44.47351" lon="6.20872">
        <ele>1008</ele>
        <time>2025-11-21T13:18:04.000Z</time>
      </trkpt>
      <trkpt lat="44.47352" lon="6.20873">
        <ele>1009</ele>
        <time>2025-11-21T13:18:05.000Z</time>
      </trkpt>
      <trkpt lat="44.47353" lon="6.20873">
        <ele>1008</ele>
        <time>2025-11-21T13:18:06.000Z</time>
      </trkpt>
      <trkpt lat="44.47354" lon="6.20875">
        <ele>1008</ele>
        <time>2025-11-21T13:18:07.000Z</time>
      </trkpt>
      <trkpt lat="44.47355" lon="6.20876">
        <ele>1008</ele>
        <time>2025-11-21T13:18:08.000Z</time>
      </trkpt>
      <trkpt lat="44.47355" lon="6.20877">
        <ele>1008</ele>
        <time>2025-11-21T13:18:09.000Z</time>
      </trkpt>
      <trkpt lat="44.47356" lon="6.20878">
        <ele>1008</ele>
        <time>2025-11-21T13:18:10.000Z</time>
      </trkpt>
      <trkpt lat="44.47357" lon="6.20879">
        <ele>1007</ele>
        <time>2025-11-21T13:18:11.000Z</time>
      </trkpt>
      <trkpt lat="44.47358" lon="6.20881">
        <ele>1007</ele>
        <time>2025-11-21T13:18:12.000Z</time>
      </trkpt>
      <trkpt lat="44.47358" lon="6.20883">
        <ele>1007</ele>
        <time>2025-11-21T13:18:13.000Z</time>
      </trkpt>
      <trkpt lat="44.47359" lon="6.20885">
        <ele>1007</ele>
        <time>2025-11-21T13:18:14.000Z</time>
      </trkpt>
      <trkpt lat="44.47359" lon="6.20887">
        <ele>1007</ele>
        <time>2025-11-21T13:18:15.000Z</time>
      </trkpt>
      <trkpt lat="44.4736" lon="6.20888">
        <ele>1006</ele>
        <time>2025-11-21T13:18:16.000Z</time>
      </trkpt>
      <trkpt lat="44.47361" lon="6.20889">
        <ele>1006</ele>
        <time>2025-11-21T13:18:17.000Z</time>
      </trkpt>
      <trkpt lat="44.47362" lon="6.2089">
        <ele>1006</ele>
        <time>2025-11-21T13:18:18.000Z</time>
      </trkpt>
      <trkpt lat="44.47364" lon="6.20891">
        <ele>1006</ele>
        <time>2025-11-21T13:18:19.000Z</time>
      </trkpt>
      <trkpt lat="44.47365" lon="6.20891">
        <ele>1005</ele>
        <time>2025-11-21T13:18:20.000Z</time>
      </trkpt>
      <trkpt lat="44.47366" lon="6.20892">
        <ele>1006</ele>
        <time>2025-11-21T13:18:21.000Z</time>
      </trkpt>
      <trkpt lat="44.47367" lon="6.20893">
        <ele>1006</ele>
        <time>2025-11-21T13:18:22.000Z</time>
      </trkpt>
      <trkpt lat="44.47368" lon="6.20894">
        <ele>1006</ele>
        <time>2025-11-21T13:18:23.000Z</time>
      </trkpt>
      <trkpt lat="44.47368" lon="6.20895">
        <ele>1005</ele>
        <time>2025-11-21T13:18:24.000Z</time>
      </trkpt>
      <trkpt lat="44.47369" lon="6.20897">
        <ele>1004</ele>
        <time>2025-11-21T13:18:25.000Z</time>
      </trkpt>
      <trkpt lat="44.4737" lon="6.20898">
        <ele>1004</ele>
        <time>2025-11-21T13:18:26.000Z</time>
      </trkpt>
      <trkpt lat="44.47372" lon="6.20899">
        <ele>1004</ele>
        <time>2025-11-21T13:18:27.000Z</time>
      </trkpt>
      <trkpt lat="44.47373" lon="6.20901">
        <ele>1005</ele>
        <time>2025-11-21T13:18:28.000Z</time>
      </trkpt>
      <trkpt lat="44.47375" lon="6.20902">
        <ele>1005</ele>
        <time>2025-11-21T13:18:29.000Z</time>
      </trkpt>
      <trkpt lat="44.47376" lon="6.20903">
        <ele>1004</ele>
        <time>2025-11-21T13:18:30.000Z</time>
      </trkpt>
      <trkpt lat="44.47376" lon="6.20905">
        <ele>1004</ele>
        <time>2025-11-21T13:18:31.000Z</time>
      </trkpt>
      <trkpt lat="44.47377" lon="6.20907">
        <ele>1004</ele>
        <time>2025-11-21T13:18:32.000Z</time>
      </trkpt>
      <trkpt lat="44.47378" lon="6.2091">
        <ele>1004</ele>
        <time>2025-11-21T13:18:33.000Z</time>
      </trkpt>
      <trkpt lat="44.47378" lon="6.20913">
        <ele>1004</ele>
        <time>2025-11-21T13:18:34.000Z</time>
      </trkpt>
      <trkpt lat="44.47377" lon="6.20915">
        <ele>1004</ele>
        <time>2025-11-21T13:18:35.000Z</time>
      </trkpt>
      <trkpt lat="44.47378" lon="6.20916">
        <ele>1004</ele>
        <time>2025-11-21T13:18:36.000Z</time>
      </trkpt>
      <trkpt lat="44.47377" lon="6.20917">
        <ele>1004</ele>
        <time>2025-11-21T13:18:37.000Z</time>
      </trkpt>
      <trkpt lat="44.47376" lon="6.20918">
        <ele>1004</ele>
        <time>2025-11-21T13:18:38.000Z</time>
      </trkpt>
      <trkpt lat="44.47376" lon="6.2092">
        <ele>1004</ele>
        <time>2025-11-21T13:18:39.000Z</time>
      </trkpt>
      <trkpt lat="44.47375" lon="6.20922">
        <ele>1003</ele>
        <time>2025-11-21T13:18:40.000Z</time>
      </trkpt>
      <trkpt lat="44.47375" lon="6.20924">
        <ele>1004</ele>
        <time>2025-11-21T13:18:41.000Z</time>
      </trkpt>
      <trkpt lat="44.47374" lon="6.20926">
        <ele>1004</ele>
        <time>2025-11-21T13:18:42.000Z</time>
      </trkpt>
      <trkpt lat="44.47374" lon="6.20928">
        <ele>1003</ele>
        <time>2025-11-21T13:18:43.000Z</time>
      </trkpt>
      <trkpt lat="44.47375" lon="6.2093">
        <ele>1004</ele>
        <time>2025-11-21T13:18:44.000Z</time>
      </trkpt>
      <trkpt lat="44.47376" lon="6.20931">
        <ele>1003</ele>
        <time>2025-11-21T13:18:45.000Z</time>
      </trkpt>
      <trkpt lat="44.47377" lon="6.20932">
        <ele>1003</ele>
        <time>2025-11-21T13:18:46.000Z</time>
      </trkpt>
      <trkpt lat="44.47377" lon="6.20934">
        <ele>1003</ele>
        <time>2025-11-21T13:18:47.000Z</time>
      </trkpt>
      <trkpt lat="44.47377" lon="6.20936">
        <ele>1002</ele>
        <time>2025-11-21T13:18:48.000Z</time>
      </trkpt>
      <trkpt lat="44.47377" lon="6.20939">
        <ele>1002</ele>
        <time>2025-11-21T13:18:49.000Z</time>
      </trkpt>
      <trkpt lat="44.47376" lon="6.20942">
        <ele>1002</ele>
        <time>2025-11-21T13:18:50.000Z</time>
      </trkpt>
      <trkpt lat="44.47376" lon="6.20944">
        <ele>1002</ele>
        <time>2025-11-21T13:18:51.000Z</time>
      </trkpt>
      <trkpt lat="44.47377" lon="6.20946">
        <ele>1002</ele>
        <time>2025-11-21T13:18:52.000Z</time>
      </trkpt>
      <trkpt lat="44.47377" lon="6.20948">
        <ele>1001</ele>
        <time>2025-11-21T13:18:53.000Z</time>
      </trkpt>
      <trkpt lat="44.47377" lon="6.2095">
        <ele>1002</ele>
        <time>2025-11-21T13:18:54.000Z</time>
      </trkpt>
      <trkpt lat="44.47377" lon="6.20952">
        <ele>1002</ele>
        <time>2025-11-21T13:18:55.000Z</time>
      </trkpt>
      <trkpt lat="44.47377" lon="6.20954">
        <ele>1002</ele>
        <time>2025-11-21T13:18:56.000Z</time>
      </trkpt>
      <trkpt lat="44.47378" lon="6.20956">
        <ele>1001</ele>
        <time>2025-11-21T13:18:57.000Z</time>
      </trkpt>
      <trkpt lat="44.47378" lon="6.20958">
        <ele>1001</ele>
        <time>2025-11-21T13:18:58.000Z</time>
      </trkpt>
      <trkpt lat="44.47378" lon="6.2096">
        <ele>1001</ele>
        <time>2025-11-21T13:18:59.000Z</time>
      </trkpt>
      <trkpt lat="44.47378" lon="6.20962">
        <ele>1002</ele>
        <time>2025-11-21T13:19:00.000Z</time>
      </trkpt>
      <trkpt lat="44.47379" lon="6.20964">
        <ele>1002</ele>
        <time>2025-11-21T13:19:01.000Z</time>
      </trkpt>
      <trkpt lat="44.47379" lon="6.20966">
        <ele>1002</ele>
        <time>2025-11-21T13:19:02.000Z</time>
      </trkpt>
      <trkpt lat="44.47379" lon="6.20967">
        <ele>1002</ele>
        <time>2025-11-21T13:19:03.000Z</time>
      </trkpt>
      <trkpt lat="44.47379" lon="6.20968">
        <ele>1002</ele>
        <time>2025-11-21T13:19:04.000Z</time>
      </trkpt>
      <trkpt lat="44.4738" lon="6.20969">
        <ele>1002</ele>
        <time>2025-11-21T13:19:05.000Z</time>
      </trkpt>
      <trkpt lat="44.47379" lon="6.2097">
        <ele>1002</ele>
        <time>2025-11-21T13:19:06.000Z</time>
      </trkpt>
      <trkpt lat="44.47379" lon="6.2097">
        <ele>1001</ele>
        <time>2025-11-21T13:19:07.000Z</time>
      </trkpt>
      <trkpt lat="44.47378" lon="6.20969">
        <ele>1000</ele>
        <time>2025-11-21T13:19:08.000Z</time>
      </trkpt>
      <trkpt lat="44.47377" lon="6.20969">
        <ele>999</ele>
        <time>2025-11-21T13:19:09.000Z</time>
      </trkpt>
      <trkpt lat="44.47376" lon="6.20968">
        <ele>1000</ele>
        <time>2025-11-21T13:19:10.000Z</time>
      </trkpt>
      <trkpt lat="44.47375" lon="6.20967">
        <ele>999</ele>
        <time>2025-11-21T13:19:11.000Z</time>
      </trkpt>
      <trkpt lat="44.47374" lon="6.20966">
        <ele>999</ele>
        <time>2025-11-21T13:19:12.000Z</time>
      </trkpt>
      <trkpt lat="44.47373" lon="6.20965">
        <ele>998</ele>
        <time>2025-11-21T13:19:13.000Z</time>
      </trkpt>
      <trkpt lat="44.47373" lon="6.20963">
        <ele>997</ele>
        <time>2025-11-21T13:19:14.000Z</time>
      </trkpt>
      <trkpt lat="44.47373" lon="6.20962">
        <ele>998</ele>
        <time>2025-11-21T13:19:15.000Z</time>
      </trkpt>
      <trkpt lat="44.47373" lon="6.2096">
        <ele>997</ele>
        <time>2025-11-21T13:19:16.000Z</time>
      </trkpt>
      <trkpt lat="44.47373" lon="6.20959">
        <ele>997</ele>
        <time>2025-11-21T13:19:17.000Z</time>
      </trkpt>
      <trkpt lat="44.47373" lon="6.20957">
        <ele>997</ele>
        <time>2025-11-21T13:19:18.000Z</time>
      </trkpt>
      <trkpt lat="44.47373" lon="6.20956">
        <ele>997</ele>
        <time>2025-11-21T13:19:19.000Z</time>
      </trkpt>
      <trkpt lat="44.47374" lon="6.20955">
        <ele>997</ele>
        <time>2025-11-21T13:19:20.000Z</time>
      </trkpt>
      <trkpt lat="44.47374" lon="6.20954">
        <ele>997</ele>
        <time>2025-11-21T13:19:21.000Z</time>
      </trkpt>
      <trkpt lat="44.47373" lon="6.20954">
        <ele>997</ele>
        <time>2025-11-21T13:19:22.000Z</time>
      </trkpt>
      <trkpt lat="44.47372" lon="6.20953">
        <ele>997</ele>
        <time>2025-11-21T13:19:23.000Z</time>
      </trkpt>
      <trkpt lat="44.47371" lon="6.20953">
        <ele>996</ele>
        <time>2025-11-21T13:19:24.000Z</time>
      </trkpt>
      <trkpt lat="44.47369" lon="6.20953">
        <ele>996</ele>
        <time>2025-11-21T13:19:25.000Z</time>
      </trkpt>
      <trkpt lat="44.47367" lon="6.20954">
        <ele>995</ele>
        <time>2025-11-21T13:19:26.000Z</time>
      </trkpt>
      <trkpt lat="44.47366" lon="6.20954">
        <ele>994</ele>
        <time>2025-11-21T13:19:27.000Z</time>
      </trkpt>
      <trkpt lat="44.47365" lon="6.20954">
        <ele>993</ele>
        <time>2025-11-21T13:19:28.000Z</time>
      </trkpt>
      <trkpt lat="44.47363" lon="6.20953">
        <ele>993</ele>
        <time>2025-11-21T13:19:29.000Z</time>
      </trkpt>
      <trkpt lat="44.47362" lon="6.20952">
        <ele>993</ele>
        <time>2025-11-21T13:19:30.000Z</time>
      </trkpt>
      <trkpt lat="44.47361" lon="6.20951">
        <ele>992</ele>
        <time>2025-11-21T13:19:31.000Z</time>
      </trkpt>
      <trkpt lat="44.4736" lon="6.20949">
        <ele>993</ele>
        <time>2025-11-21T13:19:32.000Z</time>
      </trkpt>
      <trkpt lat="44.47358" lon="6.20949">
        <ele>993</ele>
        <time>2025-11-21T13:19:33.000Z</time>
      </trkpt>
      <trkpt lat="44.47358" lon="6.20951">
        <ele>993</ele>
        <time>2025-11-21T13:19:34.000Z</time>
      </trkpt>
      <trkpt lat="44.47358" lon="6.20954">
        <ele>992</ele>
        <time>2025-11-21T13:19:35.000Z</time>
      </trkpt>
      <trkpt lat="44.47358" lon="6.20955">
        <ele>993</ele>
        <time>2025-11-21T13:19:36.000Z</time>
      </trkpt>
      <trkpt lat="44.47359" lon="6.20956">
        <ele>992</ele>
        <time>2025-11-21T13:19:37.000Z</time>
      </trkpt>
      <trkpt lat="44.4736" lon="6.20957">
        <ele>992</ele>
        <time>2025-11-21T13:19:38.000Z</time>
      </trkpt>
      <trkpt lat="44.47361" lon="6.20957">
        <ele>992</ele>
        <time>2025-11-21T13:19:39.000Z</time>
      </trkpt>
      <trkpt lat="44.47362" lon="6.20958">
        <ele>992</ele>
        <time>2025-11-21T13:19:40.000Z</time>
      </trkpt>
      <trkpt lat="44.47363" lon="6.20958">
        <ele>991</ele>
        <time>2025-11-21T13:19:41.000Z</time>
      </trkpt>
      <trkpt lat="44.47364" lon="6.20958">
        <ele>990</ele>
        <time>2025-11-21T13:19:42.000Z</time>
      </trkpt>
      <trkpt lat="44.47365" lon="6.20958">
        <ele>990</ele>
        <time>2025-11-21T13:19:43.000Z</time>
      </trkpt>
      <trkpt lat="44.47366" lon="6.20959">
        <ele>990</ele>
        <time>2025-11-21T13:19:44.000Z</time>
      </trkpt>
      <trkpt lat="44.47366" lon="6.20959">
        <ele>989</ele>
        <time>2025-11-21T13:19:45.000Z</time>
      </trkpt>
      <trkpt lat="44.47366" lon="6.20961">
        <ele>989</ele>
        <time>2025-11-21T13:19:46.000Z</time>
      </trkpt>
      <trkpt lat="44.47365" lon="6.20963">
        <ele>989</ele>
        <time>2025-11-21T13:19:47.000Z</time>
      </trkpt>
      <trkpt lat="44.47364" lon="6.20964">
        <ele>990</ele>
        <time>2025-11-21T13:19:48.000Z</time>
      </trkpt>
      <trkpt lat="44.47364" lon="6.20966">
        <ele>989</ele>
        <time>2025-11-21T13:19:49.000Z</time>
      </trkpt>
      <trkpt lat="44.47363" lon="6.20967">
        <ele>990</ele>
        <time>2025-11-21T13:19:50.000Z</time>
      </trkpt>
      <trkpt lat="44.47363" lon="6.20968">
        <ele>989</ele>
        <time>2025-11-21T13:19:51.000Z</time>
      </trkpt>
      <trkpt lat="44.47363" lon="6.20969">
        <ele>989</ele>
        <time>2025-11-21T13:19:52.000Z</time>
      </trkpt>
      <trkpt lat="44.47363" lon="6.20971">
        <ele>989</ele>
        <time>2025-11-21T13:19:53.000Z</time>
      </trkpt>
      <trkpt lat="44.47362" lon="6.20973">
        <ele>990</ele>
        <time>2025-11-21T13:19:54.000Z</time>
      </trkpt>
      <trkpt lat="44.47363" lon="6.20974">
        <ele>990</ele>
        <time>2025-11-21T13:19:55.000Z</time>
      </trkpt>
      <trkpt lat="44.47363" lon="6.20974">
        <ele>990</ele>
        <time>2025-11-21T13:19:56.000Z</time>
      </trkpt>
      <trkpt lat="44.47363" lon="6.20976">
        <ele>990</ele>
        <time>2025-11-21T13:19:57.000Z</time>
      </trkpt>
      <trkpt lat="44.47363" lon="6.20976">
        <ele>989</ele>
        <time>2025-11-21T13:19:58.000Z</time>
      </trkpt>
      <trkpt lat="44.47363" lon="6.20978">
        <ele>989</ele>
        <time>2025-11-21T13:19:59.000Z</time>
      </trkpt>
      <trkpt lat="44.47363" lon="6.2098">
        <ele>988</ele>
        <time>2025-11-21T13:20:00.000Z</time>
      </trkpt>
      <trkpt lat="44.47363" lon="6.20981">
        <ele>988</ele>
        <time>2025-11-21T13:20:01.000Z</time>
      </trkpt>
      <trkpt lat="44.47363" lon="6.20984">
        <ele>987</ele>
        <time>2025-11-21T13:20:02.000Z</time>
      </trkpt>
      <trkpt lat="44.47363" lon="6.20986">
        <ele>987</ele>
        <time>2025-11-21T13:20:03.000Z</time>
      </trkpt>
      <trkpt lat="44.47363" lon="6.20988">
        <ele>987</ele>
        <time>2025-11-21T13:20:04.000Z</time>
      </trkpt>
      <trkpt lat="44.47363" lon="6.2099">
        <ele>987</ele>
        <time>2025-11-21T13:20:05.000Z</time>
      </trkpt>
      <trkpt lat="44.47363" lon="6.20993">
        <ele>987</ele>
        <time>2025-11-21T13:20:06.000Z</time>
      </trkpt>
      <trkpt lat="44.47363" lon="6.20995">
        <ele>986</ele>
        <time>2025-11-21T13:20:07.000Z</time>
      </trkpt>
      <trkpt lat="44.47364" lon="6.20997">
        <ele>986</ele>
        <time>2025-11-21T13:20:08.000Z</time>
      </trkpt>
      <trkpt lat="44.47363" lon="6.20996">
        <ele>987</ele>
        <time>2025-11-21T13:20:09.000Z</time>
      </trkpt>
      <trkpt lat="44.47362" lon="6.20995">
        <ele>988</ele>
        <time>2025-11-21T13:20:10.000Z</time>
      </trkpt>
      <trkpt lat="44.47361" lon="6.20994">
        <ele>987</ele>
        <time>2025-11-21T13:20:11.000Z</time>
      </trkpt>
      <trkpt lat="44.47361" lon="6.20993">
        <ele>987</ele>
        <time>2025-11-21T13:20:12.000Z</time>
      </trkpt>
      <trkpt lat="44.4736" lon="6.20994">
        <ele>986</ele>
        <time>2025-11-21T13:20:13.000Z</time>
      </trkpt>
      <trkpt lat="44.47359" lon="6.20996">
        <ele>984</ele>
        <time>2025-11-21T13:20:14.000Z</time>
      </trkpt>
      <trkpt lat="44.47359" lon="6.20997">
        <ele>983</ele>
        <time>2025-11-21T13:20:15.000Z</time>
      </trkpt>
      <trkpt lat="44.47359" lon="6.20999">
        <ele>982</ele>
        <time>2025-11-21T13:20:16.000Z</time>
      </trkpt>
      <trkpt lat="44.47359" lon="6.21001">
        <ele>982</ele>
        <time>2025-11-21T13:20:17.000Z</time>
      </trkpt>
      <trkpt lat="44.47358" lon="6.21002">
        <ele>981</ele>
        <time>2025-11-21T13:20:18.000Z</time>
      </trkpt>
      <trkpt lat="44.47358" lon="6.21002">
        <ele>980</ele>
        <time>2025-11-21T13:20:19.000Z</time>
      </trkpt>
      <trkpt lat="44.47357" lon="6.21002">
        <ele>979</ele>
        <time>2025-11-21T13:20:20.000Z</time>
      </trkpt>
      <trkpt lat="44.47355" lon="6.21002">
        <ele>978</ele>
        <time>2025-11-21T13:20:21.000Z</time>
      </trkpt>
      <trkpt lat="44.47355" lon="6.21002">
        <ele>977</ele>
        <time>2025-11-21T13:20:22.000Z</time>
      </trkpt>
      <trkpt lat="44.47355" lon="6.21003">
        <ele>978</ele>
        <time>2025-11-21T13:20:23.000Z</time>
      </trkpt>
      <trkpt lat="44.47354" lon="6.21003">
        <ele>979</ele>
        <time>2025-11-21T13:20:24.000Z</time>
      </trkpt>
      <trkpt lat="44.47354" lon="6.21004">
        <ele>979</ele>
        <time>2025-11-21T13:20:25.000Z</time>
      </trkpt>
      <trkpt lat="44.47353" lon="6.21004">
        <ele>978</ele>
        <time>2025-11-21T13:20:26.000Z</time>
      </trkpt>
      <trkpt lat="44.47352" lon="6.21005">
        <ele>978</ele>
        <time>2025-11-21T13:20:27.000Z</time>
      </trkpt>
      <trkpt lat="44.47351" lon="6.21006">
        <ele>978</ele>
        <time>2025-11-21T13:20:28.000Z</time>
      </trkpt>
      <trkpt lat="44.47351" lon="6.21008">
        <ele>978</ele>
        <time>2025-11-21T13:20:29.000Z</time>
      </trkpt>
      <trkpt lat="44.4735" lon="6.2101">
        <ele>977</ele>
        <time>2025-11-21T13:20:30.000Z</time>
      </trkpt>
      <trkpt lat="44.4735" lon="6.21012">
        <ele>977</ele>
        <time>2025-11-21T13:20:31.000Z</time>
      </trkpt>
      <trkpt lat="44.4735" lon="6.21014">
        <ele>978</ele>
        <time>2025-11-21T13:20:32.000Z</time>
      </trkpt>
      <trkpt lat="44.4735" lon="6.21015">
        <ele>977</ele>
        <time>2025-11-21T13:20:33.000Z</time>
      </trkpt>
      <trkpt lat="44.47349" lon="6.21017">
        <ele>976</ele>
        <time>2025-11-21T13:20:34.000Z</time>
      </trkpt>
      <trkpt lat="44.47348" lon="6.21019">
        <ele>976</ele>
        <time>2025-11-21T13:20:35.000Z</time>
      </trkpt>
      <trkpt lat="44.47347" lon="6.21022">
        <ele>976</ele>
        <time>2025-11-21T13:20:36.000Z</time>
      </trkpt>
      <trkpt lat="44.47346" lon="6.21024">
        <ele>975</ele>
        <time>2025-11-21T13:20:37.000Z</time>
      </trkpt>
      <trkpt lat="44.47345" lon="6.21026">
        <ele>975</ele>
        <time>2025-11-21T13:20:38.000Z</time>
      </trkpt>
      <trkpt lat="44.47345" lon="6.21027">
        <ele>975</ele>
        <time>2025-11-21T13:20:39.000Z</time>
      </trkpt>
      <trkpt lat="44.47345" lon="6.21029">
        <ele>975</ele>
        <time>2025-11-21T13:20:40.000Z</time>
      </trkpt>
      <trkpt lat="44.47346" lon="6.21031">
        <ele>975</ele>
        <time>2025-11-21T13:20:41.000Z</time>
      </trkpt>
      <trkpt lat="44.47346" lon="6.21032">
        <ele>975</ele>
        <time>2025-11-21T13:20:42.000Z</time>
      </trkpt>
      <trkpt lat="44.47346" lon="6.21033">
        <ele>975</ele>
        <time>2025-11-21T13:20:43.000Z</time>
      </trkpt>
      <trkpt lat="44.47347" lon="6.21033">
        <ele>974</ele>
        <time>2025-11-21T13:20:44.000Z</time>
      </trkpt>
      <trkpt lat="44.47347" lon="6.21034">
        <ele>973</ele>
        <time>2025-11-21T13:20:45.000Z</time>
      </trkpt>
      <trkpt lat="44.47347" lon="6.21034">
        <ele>973</ele>
        <time>2025-11-21T13:20:46.000Z</time>
      </trkpt>
      <trkpt lat="44.47347" lon="6.21034">
        <ele>973</ele>
        <time>2025-11-21T13:20:47.000Z</time>
      </trkpt>
      <trkpt lat="44.47349" lon="6.21037">
        <ele>972</ele>
        <time>2025-11-21T13:20:48.000Z</time>
      </trkpt>
      <trkpt lat="44.4735" lon="6.2104">
        <ele>972</ele>
        <time>2025-11-21T13:20:49.000Z</time>
      </trkpt>
      <trkpt lat="44.4735" lon="6.21042">
        <ele>971</ele>
        <time>2025-11-21T13:20:50.000Z</time>
      </trkpt>
      <trkpt lat="44.4735" lon="6.21044">
        <ele>971</ele>
        <time>2025-11-21T13:20:51.000Z</time>
      </trkpt>
      <trkpt lat="44.47351" lon="6.21046">
        <ele>970</ele>
        <time>2025-11-21T13:20:52.000Z</time>
      </trkpt>
      <trkpt lat="44.47351" lon="6.21048">
        <ele>969</ele>
        <time>2025-11-21T13:20:53.000Z</time>
      </trkpt>
      <trkpt lat="44.47351" lon="6.2105">
        <ele>969</ele>
        <time>2025-11-21T13:20:54.000Z</time>
      </trkpt>
      <trkpt lat="44.47351" lon="6.21051">
        <ele>969</ele>
        <time>2025-11-21T13:20:55.000Z</time>
      </trkpt>
      <trkpt lat="44.47351" lon="6.21052">
        <ele>969</ele>
        <time>2025-11-21T13:20:56.000Z</time>
      </trkpt>
      <trkpt lat="44.47351" lon="6.21053">
        <ele>968</ele>
        <time>2025-11-21T13:20:57.000Z</time>
      </trkpt>
      <trkpt lat="44.47352" lon="6.21055">
        <ele>968</ele>
        <time>2025-11-21T13:20:58.000Z</time>
      </trkpt>
      <trkpt lat="44.47352" lon="6.21056">
        <ele>968</ele>
        <time>2025-11-21T13:20:59.000Z</time>
      </trkpt>
      <trkpt lat="44.47354" lon="6.21057">
        <ele>967</ele>
        <time>2025-11-21T13:21:00.000Z</time>
      </trkpt>
      <trkpt lat="44.47354" lon="6.21057">
        <ele>968</ele>
        <time>2025-11-21T13:21:01.000Z</time>
      </trkpt>
      <trkpt lat="44.47355" lon="6.21059">
        <ele>967</ele>
        <time>2025-11-21T13:21:02.000Z</time>
      </trkpt>
      <trkpt lat="44.47355" lon="6.21061">
        <ele>967</ele>
        <time>2025-11-21T13:21:03.000Z</time>
      </trkpt>
      <trkpt lat="44.47355" lon="6.21062">
        <ele>966</ele>
        <time>2025-11-21T13:21:04.000Z</time>
      </trkpt>
      <trkpt lat="44.47355" lon="6.21063">
        <ele>965</ele>
        <time>2025-11-21T13:21:05.000Z</time>
      </trkpt>
      <trkpt lat="44.47355" lon="6.21064">
        <ele>966</ele>
        <time>2025-11-21T13:21:06.000Z</time>
      </trkpt>
      <trkpt lat="44.47353" lon="6.21064">
        <ele>965</ele>
        <time>2025-11-21T13:21:07.000Z</time>
      </trkpt>
      <trkpt lat="44.47353" lon="6.21065">
        <ele>966</ele>
        <time>2025-11-21T13:21:08.000Z</time>
      </trkpt>
      <trkpt lat="44.47352" lon="6.21065">
        <ele>966</ele>
        <time>2025-11-21T13:21:09.000Z</time>
      </trkpt>
      <trkpt lat="44.47351" lon="6.21065">
        <ele>966</ele>
        <time>2025-11-21T13:21:10.000Z</time>
      </trkpt>
      <trkpt lat="44.47349" lon="6.21065">
        <ele>965</ele>
        <time>2025-11-21T13:21:11.000Z</time>
      </trkpt>
      <trkpt lat="44.47349" lon="6.21065">
        <ele>965</ele>
        <time>2025-11-21T13:21:12.000Z</time>
      </trkpt>
      <trkpt lat="44.47348" lon="6.21064">
        <ele>964</ele>
        <time>2025-11-21T13:21:13.000Z</time>
      </trkpt>
      <trkpt lat="44.47347" lon="6.21063">
        <ele>964</ele>
        <time>2025-11-21T13:21:14.000Z</time>
      </trkpt>
      <trkpt lat="44.47346" lon="6.21063">
        <ele>964</ele>
        <time>2025-11-21T13:21:15.000Z</time>
      </trkpt>
      <trkpt lat="44.47346" lon="6.21062">
        <ele>964</ele>
        <time>2025-11-21T13:21:16.000Z</time>
      </trkpt>
      <trkpt lat="44.47345" lon="6.21062">
        <ele>964</ele>
        <time>2025-11-21T13:21:17.000Z</time>
      </trkpt>
      <trkpt lat="44.47345" lon="6.21062">
        <ele>963</ele>
        <time>2025-11-21T13:21:18.000Z</time>
      </trkpt>
      <trkpt lat="44.47344" lon="6.21061">
        <ele>962</ele>
        <time>2025-11-21T13:21:19.000Z</time>
      </trkpt>
      <trkpt lat="44.47343" lon="6.2106">
        <ele>961</ele>
        <time>2025-11-21T13:21:20.000Z</time>
      </trkpt>
      <trkpt lat="44.47342" lon="6.21059">
        <ele>959</ele>
        <time>2025-11-21T13:21:21.000Z</time>
      </trkpt>
      <trkpt lat="44.4734" lon="6.21058">
        <ele>958</ele>
        <time>2025-11-21T13:21:22.000Z</time>
      </trkpt>
      <trkpt lat="44.47339" lon="6.21057">
        <ele>958</ele>
        <time>2025-11-21T13:21:23.000Z</time>
      </trkpt>
      <trkpt lat="44.47338" lon="6.21057">
        <ele>959</ele>
        <time>2025-11-21T13:21:24.000Z</time>
      </trkpt>
      <trkpt lat="44.47337" lon="6.21056">
        <ele>958</ele>
        <time>2025-11-21T13:21:25.000Z</time>
      </trkpt>
      <trkpt lat="44.47336" lon="6.21055">
        <ele>958</ele>
        <time>2025-11-21T13:21:26.000Z</time>
      </trkpt>
      <trkpt lat="44.47335" lon="6.21054">
        <ele>957</ele>
        <time>2025-11-21T13:21:27.000Z</time>
      </trkpt>
      <trkpt lat="44.47335" lon="6.21053">
        <ele>957</ele>
        <time>2025-11-21T13:21:28.000Z</time>
      </trkpt>
      <trkpt lat="44.47335" lon="6.21053">
        <ele>957</ele>
        <time>2025-11-21T13:21:29.000Z</time>
      </trkpt>
      <trkpt lat="44.47334" lon="6.21052">
        <ele>957</ele>
        <time>2025-11-21T13:21:30.000Z</time>
      </trkpt>
      <trkpt lat="44.47334" lon="6.21051">
        <ele>957</ele>
        <time>2025-11-21T13:21:31.000Z</time>
      </trkpt>
      <trkpt lat="44.47333" lon="6.21051">
        <ele>957</ele>
        <time>2025-11-21T13:21:32.000Z</time>
      </trkpt>
      <trkpt lat="44.47332" lon="6.2105">
        <ele>956</ele>
        <time>2025-11-21T13:21:33.000Z</time>
      </trkpt>
      <trkpt lat="44.47332" lon="6.21049">
        <ele>955</ele>
        <time>2025-11-21T13:21:34.000Z</time>
      </trkpt>
      <trkpt lat="44.47331" lon="6.21049">
        <ele>955</ele>
        <time>2025-11-21T13:21:35.000Z</time>
      </trkpt>
      <trkpt lat="44.4733" lon="6.2105">
        <ele>955</ele>
        <time>2025-11-21T13:21:36.000Z</time>
      </trkpt>
      <trkpt lat="44.4733" lon="6.21051">
        <ele>955</ele>
        <time>2025-11-21T13:21:37.000Z</time>
      </trkpt>
      <trkpt lat="44.4733" lon="6.21053">
        <ele>956</ele>
        <time>2025-11-21T13:21:38.000Z</time>
      </trkpt>
      <trkpt lat="44.4733" lon="6.21053">
        <ele>956</ele>
        <time>2025-11-21T13:21:39.000Z</time>
      </trkpt>
      <trkpt lat="44.47331" lon="6.21054">
        <ele>956</ele>
        <time>2025-11-21T13:21:40.000Z</time>
      </trkpt>
      <trkpt lat="44.4733" lon="6.21055">
        <ele>956</ele>
        <time>2025-11-21T13:21:41.000Z</time>
      </trkpt>
      <trkpt lat="44.47331" lon="6.21056">
        <ele>955</ele>
        <time>2025-11-21T13:21:42.000Z</time>
      </trkpt>
      <trkpt lat="44.47331" lon="6.21055">
        <ele>955</ele>
        <time>2025-11-21T13:21:43.000Z</time>
      </trkpt>
      <trkpt lat="44.47331" lon="6.21056">
        <ele>954</ele>
        <time>2025-11-21T13:21:44.000Z</time>
      </trkpt>
      <trkpt lat="44.47332" lon="6.21056">
        <ele>954</ele>
        <time>2025-11-21T13:21:45.000Z</time>
      </trkpt>
      <trkpt lat="44.47332" lon="6.21057">
        <ele>953</ele>
        <time>2025-11-21T13:21:46.000Z</time>
      </trkpt>
      <trkpt lat="44.47333" lon="6.21058">
        <ele>953</ele>
        <time>2025-11-21T13:21:47.000Z</time>
      </trkpt>
      <trkpt lat="44.47333" lon="6.2106">
        <ele>953</ele>
        <time>2025-11-21T13:21:48.000Z</time>
      </trkpt>
      <trkpt lat="44.47332" lon="6.21061">
        <ele>953</ele>
        <time>2025-11-21T13:21:49.000Z</time>
      </trkpt>
      <trkpt lat="44.47332" lon="6.21063">
        <ele>952</ele>
        <time>2025-11-21T13:21:50.000Z</time>
      </trkpt>
      <trkpt lat="44.47332" lon="6.21064">
        <ele>952</ele>
        <time>2025-11-21T13:21:51.000Z</time>
      </trkpt>
      <trkpt lat="44.47333" lon="6.21065">
        <ele>952</ele>
        <time>2025-11-21T13:21:52.000Z</time>
      </trkpt>
      <trkpt lat="44.47334" lon="6.21066">
        <ele>951</ele>
        <time>2025-11-21T13:21:53.000Z</time>
      </trkpt>
      <trkpt lat="44.47334" lon="6.21068">
        <ele>951</ele>
        <time>2025-11-21T13:21:54.000Z</time>
      </trkpt>
      <trkpt lat="44.47335" lon="6.21069">
        <ele>950</ele>
        <time>2025-11-21T13:21:55.000Z</time>
      </trkpt>
      <trkpt lat="44.47336" lon="6.21071">
        <ele>950</ele>
        <time>2025-11-21T13:21:56.000Z</time>
      </trkpt>
      <trkpt lat="44.47336" lon="6.21072">
        <ele>950</ele>
        <time>2025-11-21T13:21:57.000Z</time>
      </trkpt>
      <trkpt lat="44.47337" lon="6.21073">
        <ele>949</ele>
        <time>2025-11-21T13:21:58.000Z</time>
      </trkpt>
      <trkpt lat="44.47337" lon="6.21076">
        <ele>949</ele>
        <time>2025-11-21T13:21:59.000Z</time>
      </trkpt>
      <trkpt lat="44.47337" lon="6.21078">
        <ele>949</ele>
        <time>2025-11-21T13:22:00.000Z</time>
      </trkpt>
      <trkpt lat="44.47337" lon="6.2108">
        <ele>949</ele>
        <time>2025-11-21T13:22:01.000Z</time>
      </trkpt>
      <trkpt lat="44.47337" lon="6.21082">
        <ele>949</ele>
        <time>2025-11-21T13:22:02.000Z</time>
      </trkpt>
      <trkpt lat="44.47338" lon="6.21082">
        <ele>949</ele>
        <time>2025-11-21T13:22:03.000Z</time>
      </trkpt>
      <trkpt lat="44.47338" lon="6.21084">
        <ele>949</ele>
        <time>2025-11-21T13:22:04.000Z</time>
      </trkpt>
      <trkpt lat="44.47338" lon="6.21085">
        <ele>949</ele>
        <time>2025-11-21T13:22:05.000Z</time>
      </trkpt>
      <trkpt lat="44.47339" lon="6.21086">
        <ele>949</ele>
        <time>2025-11-21T13:22:06.000Z</time>
      </trkpt>
      <trkpt lat="44.47339" lon="6.21088">
        <ele>948</ele>
        <time>2025-11-21T13:22:07.000Z</time>
      </trkpt>
      <trkpt lat="44.4734" lon="6.21089">
        <ele>949</ele>
        <time>2025-11-21T13:22:08.000Z</time>
      </trkpt>
      <trkpt lat="44.47341" lon="6.21091">
        <ele>948</ele>
        <time>2025-11-21T13:22:09.000Z</time>
      </trkpt>
      <trkpt lat="44.47341" lon="6.21093">
        <ele>948</ele>
        <time>2025-11-21T13:22:10.000Z</time>
      </trkpt>
      <trkpt lat="44.47342" lon="6.21095">
        <ele>947</ele>
        <time>2025-11-21T13:22:11.000Z</time>
      </trkpt>
      <trkpt lat="44.47342" lon="6.21098">
        <ele>947</ele>
        <time>2025-11-21T13:22:12.000Z</time>
      </trkpt>
      <trkpt lat="44.47343" lon="6.211">
        <ele>946</ele>
        <time>2025-11-21T13:22:13.000Z</time>
      </trkpt>
      <trkpt lat="44.47343" lon="6.21101">
        <ele>946</ele>
        <time>2025-11-21T13:22:14.000Z</time>
      </trkpt>
      <trkpt lat="44.47342" lon="6.21103">
        <ele>946</ele>
        <time>2025-11-21T13:22:15.000Z</time>
      </trkpt>
      <trkpt lat="44.47342" lon="6.21103">
        <ele>946</ele>
        <time>2025-11-21T13:22:16.000Z</time>
      </trkpt>
      <trkpt lat="44.47341" lon="6.21103">
        <ele>946</ele>
        <time>2025-11-21T13:22:17.000Z</time>
      </trkpt>
      <trkpt lat="44.47339" lon="6.21103">
        <ele>946</ele>
        <time>2025-11-21T13:22:18.000Z</time>
      </trkpt>
      <trkpt lat="44.47339" lon="6.21104">
        <ele>945</ele>
        <time>2025-11-21T13:22:19.000Z</time>
      </trkpt>
      <trkpt lat="44.47338" lon="6.21103">
        <ele>946</ele>
        <time>2025-11-21T13:22:20.000Z</time>
      </trkpt>
      <trkpt lat="44.47338" lon="6.21103">
        <ele>945</ele>
        <time>2025-11-21T13:22:21.000Z</time>
      </trkpt>
      <trkpt lat="44.47337" lon="6.21102">
        <ele>944</ele>
        <time>2025-11-21T13:22:22.000Z</time>
      </trkpt>
      <trkpt lat="44.47336" lon="6.21102">
        <ele>944</ele>
        <time>2025-11-21T13:22:23.000Z</time>
      </trkpt>
      <trkpt lat="44.47335" lon="6.21101">
        <ele>943</ele>
        <time>2025-11-21T13:22:24.000Z</time>
      </trkpt>
      <trkpt lat="44.47335" lon="6.211">
        <ele>943</ele>
        <time>2025-11-21T13:22:25.000Z</time>
      </trkpt>
      <trkpt lat="44.47334" lon="6.21098">
        <ele>942</ele>
        <time>2025-11-21T13:22:26.000Z</time>
      </trkpt>
      <trkpt lat="44.47333" lon="6.21097">
        <ele>941</ele>
        <time>2025-11-21T13:22:27.000Z</time>
      </trkpt>
      <trkpt lat="44.47332" lon="6.21096">
        <ele>941</ele>
        <time>2025-11-21T13:22:28.000Z</time>
      </trkpt>
      <trkpt lat="44.47332" lon="6.21096">
        <ele>941</ele>
        <time>2025-11-21T13:22:29.000Z</time>
      </trkpt>
      <trkpt lat="44.47331" lon="6.21096">
        <ele>941</ele>
        <time>2025-11-21T13:22:30.000Z</time>
      </trkpt>
      <trkpt lat="44.4733" lon="6.21096">
        <ele>941</ele>
        <time>2025-11-21T13:22:31.000Z</time>
      </trkpt>
      <trkpt lat="44.4733" lon="6.21096">
        <ele>940</ele>
        <time>2025-11-21T13:22:32.000Z</time>
      </trkpt>
      <trkpt lat="44.47328" lon="6.21095">
        <ele>940</ele>
        <time>2025-11-21T13:22:33.000Z</time>
      </trkpt>
      <trkpt lat="44.47327" lon="6.21095">
        <ele>939</ele>
        <time>2025-11-21T13:22:34.000Z</time>
      </trkpt>
      <trkpt lat="44.47326" lon="6.21095">
        <ele>939</ele>
        <time>2025-11-21T13:22:35.000Z</time>
      </trkpt>
      <trkpt lat="44.47325" lon="6.21094">
        <ele>939</ele>
        <time>2025-11-21T13:22:36.000Z</time>
      </trkpt>
      <trkpt lat="44.47324" lon="6.21093">
        <ele>938</ele>
        <time>2025-11-21T13:22:37.000Z</time>
      </trkpt>
      <trkpt lat="44.47323" lon="6.21093">
        <ele>938</ele>
        <time>2025-11-21T13:22:38.000Z</time>
      </trkpt>
      <trkpt lat="44.47322" lon="6.21093">
        <ele>938</ele>
        <time>2025-11-21T13:22:39.000Z</time>
      </trkpt>
      <trkpt lat="44.47321" lon="6.21092">
        <ele>937</ele>
        <time>2025-11-21T13:22:40.000Z</time>
      </trkpt>
      <trkpt lat="44.4732" lon="6.21091">
        <ele>937</ele>
        <time>2025-11-21T13:22:41.000Z</time>
      </trkpt>
      <trkpt lat="44.47319" lon="6.21091">
        <ele>937</ele>
        <time>2025-11-21T13:22:42.000Z</time>
      </trkpt>
      <trkpt lat="44.47319" lon="6.21091">
        <ele>937</ele>
        <time>2025-11-21T13:22:43.000Z</time>
      </trkpt>
      <trkpt lat="44.47319" lon="6.21091">
        <ele>937</ele>
        <time>2025-11-21T13:22:44.000Z</time>
      </trkpt>
      <trkpt lat="44.47317" lon="6.21089">
        <ele>935</ele>
        <time>2025-11-21T13:22:45.000Z</time>
      </trkpt>
      <trkpt lat="44.47316" lon="6.21088">
        <ele>935</ele>
        <time>2025-11-21T13:22:46.000Z</time>
      </trkpt>
      <trkpt lat="44.47314" lon="6.21087">
        <ele>935</ele>
        <time>2025-11-21T13:22:47.000Z</time>
      </trkpt>
      <trkpt lat="44.47313" lon="6.21085">
        <ele>934</ele>
        <time>2025-11-21T13:22:48.000Z</time>
      </trkpt>
      <trkpt lat="44.47312" lon="6.21084">
        <ele>934</ele>
        <time>2025-11-21T13:22:49.000Z</time>
      </trkpt>
      <trkpt lat="44.47312" lon="6.21082">
        <ele>934</ele>
        <time>2025-11-21T13:22:50.000Z</time>
      </trkpt>
      <trkpt lat="44.47311" lon="6.2108">
        <ele>934</ele>
        <time>2025-11-21T13:22:51.000Z</time>
      </trkpt>
      <trkpt lat="44.47311" lon="6.21078">
        <ele>933</ele>
        <time>2025-11-21T13:22:52.000Z</time>
      </trkpt>
      <trkpt lat="44.4731" lon="6.21076">
        <ele>932</ele>
        <time>2025-11-21T13:22:53.000Z</time>
      </trkpt>
      <trkpt lat="44.4731" lon="6.21074">
        <ele>932</ele>
        <time>2025-11-21T13:22:54.000Z</time>
      </trkpt>
      <trkpt lat="44.47309" lon="6.21073">
        <ele>932</ele>
        <time>2025-11-21T13:22:55.000Z</time>
      </trkpt>
      <trkpt lat="44.47308" lon="6.21072">
        <ele>931</ele>
        <time>2025-11-21T13:22:56.000Z</time>
      </trkpt>
      <trkpt lat="44.47308" lon="6.2107">
        <ele>930</ele>
        <time>2025-11-21T13:22:57.000Z</time>
      </trkpt>
      <trkpt lat="44.47308" lon="6.21068">
        <ele>930</ele>
        <time>2025-11-21T13:22:58.000Z</time>
      </trkpt>
      <trkpt lat="44.47308" lon="6.21067">
        <ele>929</ele>
        <time>2025-11-21T13:22:59.000Z</time>
      </trkpt>
      <trkpt lat="44.47307" lon="6.21065">
        <ele>929</ele>
        <time>2025-11-21T13:23:00.000Z</time>
      </trkpt>
      <trkpt lat="44.47307" lon="6.21064">
        <ele>930</ele>
        <time>2025-11-21T13:23:01.000Z</time>
      </trkpt>
      <trkpt lat="44.47306" lon="6.21062">
        <ele>929</ele>
        <time>2025-11-21T13:23:02.000Z</time>
      </trkpt>
      <trkpt lat="44.47306" lon="6.2106">
        <ele>929</ele>
        <time>2025-11-21T13:23:03.000Z</time>
      </trkpt>
      <trkpt lat="44.47305" lon="6.21058">
        <ele>929</ele>
        <time>2025-11-21T13:23:04.000Z</time>
      </trkpt>
      <trkpt lat="44.47304" lon="6.21057">
        <ele>929</ele>
        <time>2025-11-21T13:23:05.000Z</time>
      </trkpt>
      <trkpt lat="44.47304" lon="6.21055">
        <ele>929</ele>
        <time>2025-11-21T13:23:06.000Z</time>
      </trkpt>
      <trkpt lat="44.47304" lon="6.21053">
        <ele>928</ele>
        <time>2025-11-21T13:23:07.000Z</time>
      </trkpt>
      <trkpt lat="44.47303" lon="6.21053">
        <ele>928</ele>
        <time>2025-11-21T13:23:08.000Z</time>
      </trkpt>
      <trkpt lat="44.47301" lon="6.21053">
        <ele>929</ele>
        <time>2025-11-21T13:23:09.000Z</time>
      </trkpt>
      <trkpt lat="44.473" lon="6.21055">
        <ele>928</ele>
        <time>2025-11-21T13:23:10.000Z</time>
      </trkpt>
      <trkpt lat="44.47299" lon="6.21055">
        <ele>928</ele>
        <time>2025-11-21T13:23:11.000Z</time>
      </trkpt>
      <trkpt lat="44.47299" lon="6.21056">
        <ele>928</ele>
        <time>2025-11-21T13:23:12.000Z</time>
      </trkpt>
      <trkpt lat="44.47298" lon="6.21057">
        <ele>928</ele>
        <time>2025-11-21T13:23:13.000Z</time>
      </trkpt>
      <trkpt lat="44.47298" lon="6.21058">
        <ele>929</ele>
        <time>2025-11-21T13:23:14.000Z</time>
      </trkpt>
      <trkpt lat="44.47298" lon="6.21059">
        <ele>929</ele>
        <time>2025-11-21T13:23:15.000Z</time>
      </trkpt>
      <trkpt lat="44.47298" lon="6.2106">
        <ele>928</ele>
        <time>2025-11-21T13:23:16.000Z</time>
      </trkpt>
      <trkpt lat="44.47298" lon="6.2106">
        <ele>927</ele>
        <time>2025-11-21T13:23:17.000Z</time>
      </trkpt>
      <trkpt lat="44.47298" lon="6.21062">
        <ele>926</ele>
        <time>2025-11-21T13:23:18.000Z</time>
      </trkpt>
      <trkpt lat="44.47298" lon="6.21064">
        <ele>926</ele>
        <time>2025-11-21T13:23:19.000Z</time>
      </trkpt>
      <trkpt lat="44.47298" lon="6.21065">
        <ele>927</ele>
        <time>2025-11-21T13:23:20.000Z</time>
      </trkpt>
      <trkpt lat="44.47297" lon="6.21066">
        <ele>926</ele>
        <time>2025-11-21T13:23:21.000Z</time>
      </trkpt>
      <trkpt lat="44.47296" lon="6.21068">
        <ele>927</ele>
        <time>2025-11-21T13:23:22.000Z</time>
      </trkpt>
      <trkpt lat="44.47295" lon="6.2107">
        <ele>927</ele>
        <time>2025-11-21T13:23:23.000Z</time>
      </trkpt>
      <trkpt lat="44.47294" lon="6.21071">
        <ele>927</ele>
        <time>2025-11-21T13:23:24.000Z</time>
      </trkpt>
      <trkpt lat="44.47292" lon="6.21073">
        <ele>926</ele>
        <time>2025-11-21T13:23:25.000Z</time>
      </trkpt>
      <trkpt lat="44.47292" lon="6.21075">
        <ele>927</ele>
        <time>2025-11-21T13:23:26.000Z</time>
      </trkpt>
      <trkpt lat="44.47292" lon="6.21077">
        <ele>927</ele>
        <time>2025-11-21T13:23:27.000Z</time>
      </trkpt>
      <trkpt lat="44.47292" lon="6.21079">
        <ele>927</ele>
        <time>2025-11-21T13:23:28.000Z</time>
      </trkpt>
      <trkpt lat="44.47291" lon="6.2108">
        <ele>927</ele>
        <time>2025-11-21T13:23:29.000Z</time>
      </trkpt>
      <trkpt lat="44.47292" lon="6.21082">
        <ele>927</ele>
        <time>2025-11-21T13:23:30.000Z</time>
      </trkpt>
      <trkpt lat="44.47292" lon="6.21084">
        <ele>927</ele>
        <time>2025-11-21T13:23:31.000Z</time>
      </trkpt>
      <trkpt lat="44.47292" lon="6.21085">
        <ele>927</ele>
        <time>2025-11-21T13:23:32.000Z</time>
      </trkpt>
      <trkpt lat="44.47292" lon="6.21087">
        <ele>926</ele>
        <time>2025-11-21T13:23:33.000Z</time>
      </trkpt>
      <trkpt lat="44.47292" lon="6.21089">
        <ele>926</ele>
        <time>2025-11-21T13:23:34.000Z</time>
      </trkpt>
      <trkpt lat="44.47292" lon="6.21092">
        <ele>925</ele>
        <time>2025-11-21T13:23:35.000Z</time>
      </trkpt>
      <trkpt lat="44.47292" lon="6.21094">
        <ele>925</ele>
        <time>2025-11-21T13:23:36.000Z</time>
      </trkpt>
      <trkpt lat="44.47293" lon="6.21096">
        <ele>925</ele>
        <time>2025-11-21T13:23:37.000Z</time>
      </trkpt>
      <trkpt lat="44.47294" lon="6.21097">
        <ele>924</ele>
        <time>2025-11-21T13:23:38.000Z</time>
      </trkpt>
      <trkpt lat="44.47295" lon="6.21098">
        <ele>925</ele>
        <time>2025-11-21T13:23:39.000Z</time>
      </trkpt>
      <trkpt lat="44.47296" lon="6.211">
        <ele>925</ele>
        <time>2025-11-21T13:23:40.000Z</time>
      </trkpt>
      <trkpt lat="44.47297" lon="6.21101">
        <ele>925</ele>
        <time>2025-11-21T13:23:41.000Z</time>
      </trkpt>
      <trkpt lat="44.47298" lon="6.21102">
        <ele>925</ele>
        <time>2025-11-21T13:23:42.000Z</time>
      </trkpt>
      <trkpt lat="44.47299" lon="6.21103">
        <ele>924</ele>
        <time>2025-11-21T13:23:43.000Z</time>
      </trkpt>
      <trkpt lat="44.473" lon="6.21103">
        <ele>924</ele>
        <time>2025-11-21T13:23:44.000Z</time>
      </trkpt>
      <trkpt lat="44.473" lon="6.21104">
        <ele>924</ele>
        <time>2025-11-21T13:23:45.000Z</time>
      </trkpt>
      <trkpt lat="44.47301" lon="6.21105">
        <ele>924</ele>
        <time>2025-11-21T13:23:46.000Z</time>
      </trkpt>
      <trkpt lat="44.47302" lon="6.21106">
        <ele>923</ele>
        <time>2025-11-21T13:23:47.000Z</time>
      </trkpt>
      <trkpt lat="44.47303" lon="6.21107">
        <ele>922</ele>
        <time>2025-11-21T13:23:48.000Z</time>
      </trkpt>
      <trkpt lat="44.47303" lon="6.21109">
        <ele>922</ele>
        <time>2025-11-21T13:23:49.000Z</time>
      </trkpt>
      <trkpt lat="44.47302" lon="6.21112">
        <ele>922</ele>
        <time>2025-11-21T13:23:50.000Z</time>
      </trkpt>
      <trkpt lat="44.47302" lon="6.21114">
        <ele>921</ele>
        <time>2025-11-21T13:23:51.000Z</time>
      </trkpt>
      <trkpt lat="44.47302" lon="6.21117">
        <ele>921</ele>
        <time>2025-11-21T13:23:52.000Z</time>
      </trkpt>
      <trkpt lat="44.47301" lon="6.21121">
        <ele>921</ele>
        <time>2025-11-21T13:23:53.000Z</time>
      </trkpt>
      <trkpt lat="44.47301" lon="6.21123">
        <ele>920</ele>
        <time>2025-11-21T13:23:54.000Z</time>
      </trkpt>
      <trkpt lat="44.473" lon="6.21127">
        <ele>920</ele>
        <time>2025-11-21T13:23:55.000Z</time>
      </trkpt>
      <trkpt lat="44.473" lon="6.2113">
        <ele>919</ele>
        <time>2025-11-21T13:23:56.000Z</time>
      </trkpt>
      <trkpt lat="44.473" lon="6.21133">
        <ele>919</ele>
        <time>2025-11-21T13:23:57.000Z</time>
      </trkpt>
      <trkpt lat="44.473" lon="6.21136">
        <ele>919</ele>
        <time>2025-11-21T13:23:58.000Z</time>
      </trkpt>
      <trkpt lat="44.473" lon="6.21138">
        <ele>919</ele>
        <time>2025-11-21T13:23:59.000Z</time>
      </trkpt>
      <trkpt lat="44.473" lon="6.2114">
        <ele>919</ele>
        <time>2025-11-21T13:24:00.000Z</time>
      </trkpt>
      <trkpt lat="44.473" lon="6.21142">
        <ele>918</ele>
        <time>2025-11-21T13:24:01.000Z</time>
      </trkpt>
      <trkpt lat="44.473" lon="6.21145">
        <ele>918</ele>
        <time>2025-11-21T13:24:02.000Z</time>
      </trkpt>
      <trkpt lat="44.473" lon="6.21147">
        <ele>918</ele>
        <time>2025-11-21T13:24:03.000Z</time>
      </trkpt>
      <trkpt lat="44.473" lon="6.2115">
        <ele>918</ele>
        <time>2025-11-21T13:24:04.000Z</time>
      </trkpt>
      <trkpt lat="44.473" lon="6.21153">
        <ele>918</ele>
        <time>2025-11-21T13:24:05.000Z</time>
      </trkpt>
      <trkpt lat="44.473" lon="6.21155">
        <ele>918</ele>
        <time>2025-11-21T13:24:06.000Z</time>
      </trkpt>
      <trkpt lat="44.47299" lon="6.21157">
        <ele>917</ele>
        <time>2025-11-21T13:24:07.000Z</time>
      </trkpt>
      <trkpt lat="44.47298" lon="6.21157">
        <ele>917</ele>
        <time>2025-11-21T13:24:08.000Z</time>
      </trkpt>
      <trkpt lat="44.47298" lon="6.21156">
        <ele>917</ele>
        <time>2025-11-21T13:24:09.000Z</time>
      </trkpt>
      <trkpt lat="44.47297" lon="6.21154">
        <ele>917</ele>
        <time>2025-11-21T13:24:10.000Z</time>
      </trkpt>
      <trkpt lat="44.47296" lon="6.21154">
        <ele>918</ele>
        <time>2025-11-21T13:24:11.000Z</time>
      </trkpt>
      <trkpt lat="44.47296" lon="6.21153">
        <ele>918</ele>
        <time>2025-11-21T13:24:12.000Z</time>
      </trkpt>
      <trkpt lat="44.47295" lon="6.21151">
        <ele>918</ele>
        <time>2025-11-21T13:24:13.000Z</time>
      </trkpt>
      <trkpt lat="44.47295" lon="6.2115">
        <ele>917</ele>
        <time>2025-11-21T13:24:14.000Z</time>
      </trkpt>
      <trkpt lat="44.47295" lon="6.21148">
        <ele>918</ele>
        <time>2025-11-21T13:24:15.000Z</time>
      </trkpt>
      <trkpt lat="44.47294" lon="6.21147">
        <ele>918</ele>
        <time>2025-11-21T13:24:16.000Z</time>
      </trkpt>
      <trkpt lat="44.47294" lon="6.21146">
        <ele>918</ele>
        <time>2025-11-21T13:24:17.000Z</time>
      </trkpt>
      <trkpt lat="44.47294" lon="6.21144">
        <ele>917</ele>
        <time>2025-11-21T13:24:18.000Z</time>
      </trkpt>
      <trkpt lat="44.47294" lon="6.21142">
        <ele>917</ele>
        <time>2025-11-21T13:24:19.000Z</time>
      </trkpt>
      <trkpt lat="44.47294" lon="6.21141">
        <ele>917</ele>
        <time>2025-11-21T13:24:20.000Z</time>
      </trkpt>
      <trkpt lat="44.47293" lon="6.21139">
        <ele>917</ele>
        <time>2025-11-21T13:24:21.000Z</time>
      </trkpt>
      <trkpt lat="44.47293" lon="6.21138">
        <ele>916</ele>
        <time>2025-11-21T13:24:22.000Z</time>
      </trkpt>
      <trkpt lat="44.47292" lon="6.21137">
        <ele>916</ele>
        <time>2025-11-21T13:24:23.000Z</time>
      </trkpt>
      <trkpt lat="44.47291" lon="6.21136">
        <ele>916</ele>
        <time>2025-11-21T13:24:24.000Z</time>
      </trkpt>
      <trkpt lat="44.47289" lon="6.21136">
        <ele>916</ele>
        <time>2025-11-21T13:24:25.000Z</time>
      </trkpt>
      <trkpt lat="44.47288" lon="6.21136">
        <ele>916</ele>
        <time>2025-11-21T13:24:26.000Z</time>
      </trkpt>
      <trkpt lat="44.47286" lon="6.21135">
        <ele>916</ele>
        <time>2025-11-21T13:24:27.000Z</time>
      </trkpt>
      <trkpt lat="44.47285" lon="6.21134">
        <ele>916</ele>
        <time>2025-11-21T13:24:28.000Z</time>
      </trkpt>
      <trkpt lat="44.47283" lon="6.21135">
        <ele>916</ele>
        <time>2025-11-21T13:24:29.000Z</time>
      </trkpt>
      <trkpt lat="44.47282" lon="6.21135">
        <ele>916</ele>
        <time>2025-11-21T13:24:30.000Z</time>
      </trkpt>
      <trkpt lat="44.47281" lon="6.21135">
        <ele>915</ele>
        <time>2025-11-21T13:24:31.000Z</time>
      </trkpt>
      <trkpt lat="44.4728" lon="6.21136">
        <ele>915</ele>
        <time>2025-11-21T13:24:32.000Z</time>
      </trkpt>
      <trkpt lat="44.47279" lon="6.21135">
        <ele>915</ele>
        <time>2025-11-21T13:24:33.000Z</time>
      </trkpt>
      <trkpt lat="44.47277" lon="6.21135">
        <ele>914</ele>
        <time>2025-11-21T13:24:34.000Z</time>
      </trkpt>
      <trkpt lat="44.47276" lon="6.21135">
        <ele>914</ele>
        <time>2025-11-21T13:24:35.000Z</time>
      </trkpt>
      <trkpt lat="44.47275" lon="6.21135">
        <ele>914</ele>
        <time>2025-11-21T13:24:36.000Z</time>
      </trkpt>
      <trkpt lat="44.47274" lon="6.21135">
        <ele>914</ele>
        <time>2025-11-21T13:24:37.000Z</time>
      </trkpt>
      <trkpt lat="44.47273" lon="6.21134">
        <ele>914</ele>
        <time>2025-11-21T13:24:38.000Z</time>
      </trkpt>
      <trkpt lat="44.47273" lon="6.21134">
        <ele>914</ele>
        <time>2025-11-21T13:24:39.000Z</time>
      </trkpt>
      <trkpt lat="44.47272" lon="6.21133">
        <ele>914</ele>
        <time>2025-11-21T13:24:40.000Z</time>
      </trkpt>
      <trkpt lat="44.47271" lon="6.21133">
        <ele>913</ele>
        <time>2025-11-21T13:24:41.000Z</time>
      </trkpt>
      <trkpt lat="44.4727" lon="6.21133">
        <ele>913</ele>
        <time>2025-11-21T13:24:42.000Z</time>
      </trkpt>
      <trkpt lat="44.47269" lon="6.21132">
        <ele>912</ele>
        <time>2025-11-21T13:24:43.000Z</time>
      </trkpt>
      <trkpt lat="44.47268" lon="6.21132">
        <ele>912</ele>
        <time>2025-11-21T13:24:44.000Z</time>
      </trkpt>
      <trkpt lat="44.47266" lon="6.2113">
        <ele>912</ele>
        <time>2025-11-21T13:24:45.000Z</time>
      </trkpt>
      <trkpt lat="44.47265" lon="6.2113">
        <ele>911</ele>
        <time>2025-11-21T13:24:46.000Z</time>
      </trkpt>
      <trkpt lat="44.47264" lon="6.21129">
        <ele>910</ele>
        <time>2025-11-21T13:24:47.000Z</time>
      </trkpt>
      <trkpt lat="44.47263" lon="6.21128">
        <ele>909</ele>
        <time>2025-11-21T13:24:48.000Z</time>
      </trkpt>
      <trkpt lat="44.47263" lon="6.21127">
        <ele>908</ele>
        <time>2025-11-21T13:24:49.000Z</time>
      </trkpt>
      <trkpt lat="44.47262" lon="6.21126">
        <ele>908</ele>
        <time>2025-11-21T13:24:50.000Z</time>
      </trkpt>
      <trkpt lat="44.47261" lon="6.21125">
        <ele>908</ele>
        <time>2025-11-21T13:24:51.000Z</time>
      </trkpt>
      <trkpt lat="44.47261" lon="6.21123">
        <ele>907</ele>
        <time>2025-11-21T13:24:52.000Z</time>
      </trkpt>
      <trkpt lat="44.47259" lon="6.21122">
        <ele>908</ele>
        <time>2025-11-21T13:24:53.000Z</time>
      </trkpt>
      <trkpt lat="44.47258" lon="6.21121">
        <ele>908</ele>
        <time>2025-11-21T13:24:54.000Z</time>
      </trkpt>
      <trkpt lat="44.47257" lon="6.2112">
        <ele>908</ele>
        <time>2025-11-21T13:24:55.000Z</time>
      </trkpt>
      <trkpt lat="44.47257" lon="6.21119">
        <ele>907</ele>
        <time>2025-11-21T13:24:56.000Z</time>
      </trkpt>
      <trkpt lat="44.47256" lon="6.21117">
        <ele>907</ele>
        <time>2025-11-21T13:24:57.000Z</time>
      </trkpt>
      <trkpt lat="44.47257" lon="6.21115">
        <ele>907</ele>
        <time>2025-11-21T13:24:58.000Z</time>
      </trkpt>
      <trkpt lat="44.47257" lon="6.21114">
        <ele>907</ele>
        <time>2025-11-21T13:24:59.000Z</time>
      </trkpt>
      <trkpt lat="44.47256" lon="6.21112">
        <ele>907</ele>
        <time>2025-11-21T13:25:00.000Z</time>
      </trkpt>
      <trkpt lat="44.47255" lon="6.21112">
        <ele>907</ele>
        <time>2025-11-21T13:25:01.000Z</time>
      </trkpt>
      <trkpt lat="44.47254" lon="6.21113">
        <ele>908</ele>
        <time>2025-11-21T13:25:02.000Z</time>
      </trkpt>
      <trkpt lat="44.47252" lon="6.21113">
        <ele>908</ele>
        <time>2025-11-21T13:25:03.000Z</time>
      </trkpt>
      <trkpt lat="44.47251" lon="6.21114">
        <ele>908</ele>
        <time>2025-11-21T13:25:04.000Z</time>
      </trkpt>
      <trkpt lat="44.4725" lon="6.21115">
        <ele>908</ele>
        <time>2025-11-21T13:25:05.000Z</time>
      </trkpt>
      <trkpt lat="44.47249" lon="6.21116">
        <ele>908</ele>
        <time>2025-11-21T13:25:06.000Z</time>
      </trkpt>
      <trkpt lat="44.47248" lon="6.21118">
        <ele>907</ele>
        <time>2025-11-21T13:25:07.000Z</time>
      </trkpt>
      <trkpt lat="44.47247" lon="6.21119">
        <ele>907</ele>
        <time>2025-11-21T13:25:08.000Z</time>
      </trkpt>
      <trkpt lat="44.47247" lon="6.21121">
        <ele>906</ele>
        <time>2025-11-21T13:25:09.000Z</time>
      </trkpt>
      <trkpt lat="44.47247" lon="6.21121">
        <ele>906</ele>
        <time>2025-11-21T13:25:10.000Z</time>
      </trkpt>
      <trkpt lat="44.47247" lon="6.21123">
        <ele>906</ele>
        <time>2025-11-21T13:25:11.000Z</time>
      </trkpt>
      <trkpt lat="44.47247" lon="6.21124">
        <ele>906</ele>
        <time>2025-11-21T13:25:12.000Z</time>
      </trkpt>
      <trkpt lat="44.47247" lon="6.21126">
        <ele>905</ele>
        <time>2025-11-21T13:25:13.000Z</time>
      </trkpt>
      <trkpt lat="44.47247" lon="6.21127">
        <ele>905</ele>
        <time>2025-11-21T13:25:14.000Z</time>
      </trkpt>
      <trkpt lat="44.47248" lon="6.21129">
        <ele>905</ele>
        <time>2025-11-21T13:25:15.000Z</time>
      </trkpt>
      <trkpt lat="44.47248" lon="6.21131">
        <ele>904</ele>
        <time>2025-11-21T13:25:16.000Z</time>
      </trkpt>
      <trkpt lat="44.47249" lon="6.21132">
        <ele>904</ele>
        <time>2025-11-21T13:25:17.000Z</time>
      </trkpt>
      <trkpt lat="44.47249" lon="6.21133">
        <ele>904</ele>
        <time>2025-11-21T13:25:18.000Z</time>
      </trkpt>
      <trkpt lat="44.4725" lon="6.21134">
        <ele>904</ele>
        <time>2025-11-21T13:25:19.000Z</time>
      </trkpt>
      <trkpt lat="44.4725" lon="6.21135">
        <ele>904</ele>
        <time>2025-11-21T13:25:20.000Z</time>
      </trkpt>
      <trkpt lat="44.47251" lon="6.21137">
        <ele>903</ele>
        <time>2025-11-21T13:25:21.000Z</time>
      </trkpt>
      <trkpt lat="44.47252" lon="6.21138">
        <ele>903</ele>
        <time>2025-11-21T13:25:22.000Z</time>
      </trkpt>
      <trkpt lat="44.47254" lon="6.2114">
        <ele>903</ele>
        <time>2025-11-21T13:25:23.000Z</time>
      </trkpt>
      <trkpt lat="44.47255" lon="6.21141">
        <ele>904</ele>
        <time>2025-11-21T13:25:24.000Z</time>
      </trkpt>
      <trkpt lat="44.47255" lon="6.21142">
        <ele>904</ele>
        <time>2025-11-21T13:25:25.000Z</time>
      </trkpt>
      <trkpt lat="44.47256" lon="6.21143">
        <ele>904</ele>
        <time>2025-11-21T13:25:26.000Z</time>
      </trkpt>
      <trkpt lat="44.47256" lon="6.21145">
        <ele>904</ele>
        <time>2025-11-21T13:25:27.000Z</time>
      </trkpt>
      <trkpt lat="44.47256" lon="6.21146">
        <ele>904</ele>
        <time>2025-11-21T13:25:28.000Z</time>
      </trkpt>
      <trkpt lat="44.47257" lon="6.21148">
        <ele>903</ele>
        <time>2025-11-21T13:25:29.000Z</time>
      </trkpt>
      <trkpt lat="44.47258" lon="6.21148">
        <ele>903</ele>
        <time>2025-11-21T13:25:30.000Z</time>
      </trkpt>
      <trkpt lat="44.47259" lon="6.21149">
        <ele>902</ele>
        <time>2025-11-21T13:25:31.000Z</time>
      </trkpt>
      <trkpt lat="44.4726" lon="6.21149">
        <ele>902</ele>
        <time>2025-11-21T13:25:32.000Z</time>
      </trkpt>
      <trkpt lat="44.47261" lon="6.2115">
        <ele>902</ele>
        <time>2025-11-21T13:25:33.000Z</time>
      </trkpt>
      <trkpt lat="44.47262" lon="6.21151">
        <ele>902</ele>
        <time>2025-11-21T13:25:34.000Z</time>
      </trkpt>
      <trkpt lat="44.47263" lon="6.21151">
        <ele>902</ele>
        <time>2025-11-21T13:25:35.000Z</time>
      </trkpt>
      <trkpt lat="44.47265" lon="6.21152">
        <ele>901</ele>
        <time>2025-11-21T13:25:36.000Z</time>
      </trkpt>
      <trkpt lat="44.47265" lon="6.21152">
        <ele>901</ele>
        <time>2025-11-21T13:25:37.000Z</time>
      </trkpt>
      <trkpt lat="44.47266" lon="6.21152">
        <ele>901</ele>
        <time>2025-11-21T13:25:38.000Z</time>
      </trkpt>
      <trkpt lat="44.47267" lon="6.21152">
        <ele>901</ele>
        <time>2025-11-21T13:25:39.000Z</time>
      </trkpt>
      <trkpt lat="44.47268" lon="6.21153">
        <ele>900</ele>
        <time>2025-11-21T13:25:40.000Z</time>
      </trkpt>
      <trkpt lat="44.47269" lon="6.21153">
        <ele>900</ele>
        <time>2025-11-21T13:25:41.000Z</time>
      </trkpt>
      <trkpt lat="44.47271" lon="6.21154">
        <ele>900</ele>
        <time>2025-11-21T13:25:42.000Z</time>
      </trkpt>
      <trkpt lat="44.47272" lon="6.21155">
        <ele>899</ele>
        <time>2025-11-21T13:25:43.000Z</time>
      </trkpt>
      <trkpt lat="44.47273" lon="6.21156">
        <ele>899</ele>
        <time>2025-11-21T13:25:44.000Z</time>
      </trkpt>
      <trkpt lat="44.47274" lon="6.21158">
        <ele>898</ele>
        <time>2025-11-21T13:25:45.000Z</time>
      </trkpt>
      <trkpt lat="44.47274" lon="6.2116">
        <ele>897</ele>
        <time>2025-11-21T13:25:46.000Z</time>
      </trkpt>
      <trkpt lat="44.47274" lon="6.21164">
        <ele>896</ele>
        <time>2025-11-21T13:25:47.000Z</time>
      </trkpt>
      <trkpt lat="44.47273" lon="6.21166">
        <ele>896</ele>
        <time>2025-11-21T13:25:48.000Z</time>
      </trkpt>
      <trkpt lat="44.47272" lon="6.21168">
        <ele>895</ele>
        <time>2025-11-21T13:25:49.000Z</time>
      </trkpt>
      <trkpt lat="44.47272" lon="6.2117">
        <ele>895</ele>
        <time>2025-11-21T13:25:50.000Z</time>
      </trkpt>
      <trkpt lat="44.47273" lon="6.21172">
        <ele>894</ele>
        <time>2025-11-21T13:25:51.000Z</time>
      </trkpt>
      <trkpt lat="44.47272" lon="6.21173">
        <ele>893</ele>
        <time>2025-11-21T13:25:52.000Z</time>
      </trkpt>
      <trkpt lat="44.47272" lon="6.21176">
        <ele>893</ele>
        <time>2025-11-21T13:25:53.000Z</time>
      </trkpt>
      <trkpt lat="44.47272" lon="6.21178">
        <ele>892</ele>
        <time>2025-11-21T13:25:54.000Z</time>
      </trkpt>
      <trkpt lat="44.47272" lon="6.21181">
        <ele>892</ele>
        <time>2025-11-21T13:25:55.000Z</time>
      </trkpt>
      <trkpt lat="44.47272" lon="6.21182">
        <ele>892</ele>
        <time>2025-11-21T13:25:56.000Z</time>
      </trkpt>
      <trkpt lat="44.47272" lon="6.21184">
        <ele>892</ele>
        <time>2025-11-21T13:25:57.000Z</time>
      </trkpt>
      <trkpt lat="44.47272" lon="6.21186">
        <ele>892</ele>
        <time>2025-11-21T13:25:58.000Z</time>
      </trkpt>
      <trkpt lat="44.47272" lon="6.21188">
        <ele>892</ele>
        <time>2025-11-21T13:25:59.000Z</time>
      </trkpt>
      <trkpt lat="44.47271" lon="6.21189">
        <ele>891</ele>
        <time>2025-11-21T13:26:00.000Z</time>
      </trkpt>
      <trkpt lat="44.47271" lon="6.21191">
        <ele>891</ele>
        <time>2025-11-21T13:26:01.000Z</time>
      </trkpt>
      <trkpt lat="44.4727" lon="6.21193">
        <ele>891</ele>
        <time>2025-11-21T13:26:02.000Z</time>
      </trkpt>
      <trkpt lat="44.47269" lon="6.21193">
        <ele>891</ele>
        <time>2025-11-21T13:26:03.000Z</time>
      </trkpt>
      <trkpt lat="44.47268" lon="6.21192">
        <ele>891</ele>
        <time>2025-11-21T13:26:04.000Z</time>
      </trkpt>
      <trkpt lat="44.47267" lon="6.21192">
        <ele>891</ele>
        <time>2025-11-21T13:26:05.000Z</time>
      </trkpt>
      <trkpt lat="44.47267" lon="6.21191">
        <ele>891</ele>
        <time>2025-11-21T13:26:06.000Z</time>
      </trkpt>
      <trkpt lat="44.47267" lon="6.21189">
        <ele>891</ele>
        <time>2025-11-21T13:26:07.000Z</time>
      </trkpt>
      <trkpt lat="44.47267" lon="6.21189">
        <ele>891</ele>
        <time>2025-11-21T13:26:08.000Z</time>
      </trkpt>
      <trkpt lat="44.47267" lon="6.21187">
        <ele>891</ele>
        <time>2025-11-21T13:26:09.000Z</time>
      </trkpt>
      <trkpt lat="44.47266" lon="6.21185">
        <ele>891</ele>
        <time>2025-11-21T13:26:10.000Z</time>
      </trkpt>
      <trkpt lat="44.47266" lon="6.21184">
        <ele>891</ele>
        <time>2025-11-21T13:26:11.000Z</time>
      </trkpt>
      <trkpt lat="44.47266" lon="6.21181">
        <ele>890</ele>
        <time>2025-11-21T13:26:12.000Z</time>
      </trkpt>
      <trkpt lat="44.47266" lon="6.21179">
        <ele>890</ele>
        <time>2025-11-21T13:26:13.000Z</time>
      </trkpt>
      <trkpt lat="44.47265" lon="6.21178">
        <ele>890</ele>
        <time>2025-11-21T13:26:14.000Z</time>
      </trkpt>
      <trkpt lat="44.47265" lon="6.21178">
        <ele>890</ele>
        <time>2025-11-21T13:26:15.000Z</time>
      </trkpt>
      <trkpt lat="44.47265" lon="6.21177">
        <ele>890</ele>
        <time>2025-11-21T13:26:16.000Z</time>
      </trkpt>
      <trkpt lat="44.47265" lon="6.21176">
        <ele>890</ele>
        <time>2025-11-21T13:26:17.000Z</time>
      </trkpt>
      <trkpt lat="44.47264" lon="6.21174">
        <ele>889</ele>
        <time>2025-11-21T13:26:18.000Z</time>
      </trkpt>
      <trkpt lat="44.47263" lon="6.21173">
        <ele>889</ele>
        <time>2025-11-21T13:26:19.000Z</time>
      </trkpt>
      <trkpt lat="44.47262" lon="6.21172">
        <ele>888</ele>
        <time>2025-11-21T13:26:20.000Z</time>
      </trkpt>
      <trkpt lat="44.47261" lon="6.21172">
        <ele>888</ele>
        <time>2025-11-21T13:26:21.000Z</time>
      </trkpt>
      <trkpt lat="44.4726" lon="6.21171">
        <ele>888</ele>
        <time>2025-11-21T13:26:22.000Z</time>
      </trkpt>
      <trkpt lat="44.47259" lon="6.21171">
        <ele>888</ele>
        <time>2025-11-21T13:26:23.000Z</time>
      </trkpt>
      <trkpt lat="44.47258" lon="6.21171">
        <ele>888</ele>
        <time>2025-11-21T13:26:24.000Z</time>
      </trkpt>
      <trkpt lat="44.47257" lon="6.21171">
        <ele>887</ele>
        <time>2025-11-21T13:26:25.000Z</time>
      </trkpt>
      <trkpt lat="44.47256" lon="6.21171">
        <ele>886</ele>
        <time>2025-11-21T13:26:26.000Z</time>
      </trkpt>
      <trkpt lat="44.47255" lon="6.21171">
        <ele>886</ele>
        <time>2025-11-21T13:26:27.000Z</time>
      </trkpt>
      <trkpt lat="44.47254" lon="6.21171">
        <ele>885</ele>
        <time>2025-11-21T13:26:28.000Z</time>
      </trkpt>
      <trkpt lat="44.47252" lon="6.21171">
        <ele>885</ele>
        <time>2025-11-21T13:26:29.000Z</time>
      </trkpt>
      <trkpt lat="44.47251" lon="6.21171">
        <ele>885</ele>
        <time>2025-11-21T13:26:30.000Z</time>
      </trkpt>
      <trkpt lat="44.4725" lon="6.2117">
        <ele>884</ele>
        <time>2025-11-21T13:26:31.000Z</time>
      </trkpt>
      <trkpt lat="44.47249" lon="6.21169">
        <ele>884</ele>
        <time>2025-11-21T13:26:32.000Z</time>
      </trkpt>
      <trkpt lat="44.47249" lon="6.2117">
        <ele>883</ele>
        <time>2025-11-21T13:26:33.000Z</time>
      </trkpt>
      <trkpt lat="44.47247" lon="6.2117">
        <ele>883</ele>
        <time>2025-11-21T13:26:34.000Z</time>
      </trkpt>
      <trkpt lat="44.47246" lon="6.2117">
        <ele>883</ele>
        <time>2025-11-21T13:26:35.000Z</time>
      </trkpt>
      <trkpt lat="44.47245" lon="6.2117">
        <ele>883</ele>
        <time>2025-11-21T13:26:36.000Z</time>
      </trkpt>
      <trkpt lat="44.47244" lon="6.21169">
        <ele>882</ele>
        <time>2025-11-21T13:26:37.000Z</time>
      </trkpt>
      <trkpt lat="44.47243" lon="6.21169">
        <ele>882</ele>
        <time>2025-11-21T13:26:38.000Z</time>
      </trkpt>
      <trkpt lat="44.47243" lon="6.21168">
        <ele>883</ele>
        <time>2025-11-21T13:26:39.000Z</time>
      </trkpt>
      <trkpt lat="44.47243" lon="6.21167">
        <ele>882</ele>
        <time>2025-11-21T13:26:40.000Z</time>
      </trkpt>
      <trkpt lat="44.47242" lon="6.21166">
        <ele>882</ele>
        <time>2025-11-21T13:26:41.000Z</time>
      </trkpt>
      <trkpt lat="44.4724" lon="6.21166">
        <ele>882</ele>
        <time>2025-11-21T13:26:42.000Z</time>
      </trkpt>
      <trkpt lat="44.4724" lon="6.21165">
        <ele>882</ele>
        <time>2025-11-21T13:26:43.000Z</time>
      </trkpt>
      <trkpt lat="44.47239" lon="6.21165">
        <ele>881</ele>
        <time>2025-11-21T13:26:44.000Z</time>
      </trkpt>
      <trkpt lat="44.47238" lon="6.21164">
        <ele>881</ele>
        <time>2025-11-21T13:26:45.000Z</time>
      </trkpt>
      <trkpt lat="44.47237" lon="6.21164">
        <ele>880</ele>
        <time>2025-11-21T13:26:46.000Z</time>
      </trkpt>
      <trkpt lat="44.47237" lon="6.21163">
        <ele>880</ele>
        <time>2025-11-21T13:26:47.000Z</time>
      </trkpt>
      <trkpt lat="44.47236" lon="6.21162">
        <ele>879</ele>
        <time>2025-11-21T13:26:48.000Z</time>
      </trkpt>
      <trkpt lat="44.47235" lon="6.21161">
        <ele>879</ele>
        <time>2025-11-21T13:26:49.000Z</time>
      </trkpt>
      <trkpt lat="44.47233" lon="6.21161">
        <ele>879</ele>
        <time>2025-11-21T13:26:50.000Z</time>
      </trkpt>
      <trkpt lat="44.47232" lon="6.21161">
        <ele>878</ele>
        <time>2025-11-21T13:26:51.000Z</time>
      </trkpt>
      <trkpt lat="44.47232" lon="6.2116">
        <ele>878</ele>
        <time>2025-11-21T13:26:52.000Z</time>
      </trkpt>
      <trkpt lat="44.47231" lon="6.2116">
        <ele>878</ele>
        <time>2025-11-21T13:26:53.000Z</time>
      </trkpt>
      <trkpt lat="44.47229" lon="6.21159">
        <ele>876</ele>
        <time>2025-11-21T13:26:54.000Z</time>
      </trkpt>
      <trkpt lat="44.47228" lon="6.21158">
        <ele>875</ele>
        <time>2025-11-21T13:26:55.000Z</time>
      </trkpt>
      <trkpt lat="44.47227" lon="6.21156">
        <ele>875</ele>
        <time>2025-11-21T13:26:56.000Z</time>
      </trkpt>
      <trkpt lat="44.47226" lon="6.21156">
        <ele>875</ele>
        <time>2025-11-21T13:26:57.000Z</time>
      </trkpt>
      <trkpt lat="44.47225" lon="6.21155">
        <ele>875</ele>
        <time>2025-11-21T13:26:58.000Z</time>
      </trkpt>
      <trkpt lat="44.47224" lon="6.21155">
        <ele>874</ele>
        <time>2025-11-21T13:26:59.000Z</time>
      </trkpt>
      <trkpt lat="44.47223" lon="6.21154">
        <ele>874</ele>
        <time>2025-11-21T13:27:00.000Z</time>
      </trkpt>
      <trkpt lat="44.47223" lon="6.21153">
        <ele>874</ele>
        <time>2025-11-21T13:27:01.000Z</time>
      </trkpt>
      <trkpt lat="44.47222" lon="6.21152">
        <ele>873</ele>
        <time>2025-11-21T13:27:02.000Z</time>
      </trkpt>
      <trkpt lat="44.47222" lon="6.21151">
        <ele>873</ele>
        <time>2025-11-21T13:27:03.000Z</time>
      </trkpt>
      <trkpt lat="44.47222" lon="6.2115">
        <ele>873</ele>
        <time>2025-11-21T13:27:04.000Z</time>
      </trkpt>
      <trkpt lat="44.47222" lon="6.2115">
        <ele>872</ele>
        <time>2025-11-21T13:27:05.000Z</time>
      </trkpt>
      <trkpt lat="44.4722" lon="6.21147">
        <ele>874</ele>
        <time>2025-11-21T13:27:19.000Z</time>
      </trkpt>
      <trkpt lat="44.4722" lon="6.21146">
        <ele>874</ele>
        <time>2025-11-21T13:27:20.000Z</time>
      </trkpt>
      <trkpt lat="44.4722" lon="6.21146">
        <ele>874</ele>
        <time>2025-11-21T13:27:21.000Z</time>
      </trkpt>
      <trkpt lat="44.4722" lon="6.21145">
        <ele>875</ele>
        <time>2025-11-21T13:27:22.000Z</time>
      </trkpt>
      <trkpt lat="44.47219" lon="6.21145">
        <ele>874</ele>
        <time>2025-11-21T13:27:23.000Z</time>
      </trkpt>
      <trkpt lat="44.47218" lon="6.21144">
        <ele>874</ele>
        <time>2025-11-21T13:27:24.000Z</time>
      </trkpt>
      <trkpt lat="44.47217" lon="6.21144">
        <ele>874</ele>
        <time>2025-11-21T13:27:25.000Z</time>
      </trkpt>
      <trkpt lat="44.47216" lon="6.21144">
        <ele>874</ele>
        <time>2025-11-21T13:27:26.000Z</time>
      </trkpt>
      <trkpt lat="44.47215" lon="6.21143">
        <ele>874</ele>
        <time>2025-11-21T13:27:27.000Z</time>
      </trkpt>
      <trkpt lat="44.47214" lon="6.21142">
        <ele>873</ele>
        <time>2025-11-21T13:27:28.000Z</time>
      </trkpt>
      <trkpt lat="44.47213" lon="6.21141">
        <ele>873</ele>
        <time>2025-11-21T13:27:29.000Z</time>
      </trkpt>
      <trkpt lat="44.47212" lon="6.2114">
        <ele>874</ele>
        <time>2025-11-21T13:27:30.000Z</time>
      </trkpt>
      <trkpt lat="44.47211" lon="6.21138">
        <ele>874</ele>
        <time>2025-11-21T13:27:31.000Z</time>
      </trkpt>
      <trkpt lat="44.4721" lon="6.21136">
        <ele>873</ele>
        <time>2025-11-21T13:27:32.000Z</time>
      </trkpt>
      <trkpt lat="44.47209" lon="6.21135">
        <ele>873</ele>
        <time>2025-11-21T13:27:33.000Z</time>
      </trkpt>
      <trkpt lat="44.47207" lon="6.21134">
        <ele>874</ele>
        <time>2025-11-21T13:27:34.000Z</time>
      </trkpt>
      <trkpt lat="44.47207" lon="6.21132">
        <ele>873</ele>
        <time>2025-11-21T13:27:35.000Z</time>
      </trkpt>
      <trkpt lat="44.47206" lon="6.2113">
        <ele>873</ele>
        <time>2025-11-21T13:27:36.000Z</time>
      </trkpt>
      <trkpt lat="44.47204" lon="6.2113">
        <ele>873</ele>
        <time>2025-11-21T13:27:37.000Z</time>
      </trkpt>
      <trkpt lat="44.47203" lon="6.21131">
        <ele>873</ele>
        <time>2025-11-21T13:27:38.000Z</time>
      </trkpt>
      <trkpt lat="44.47202" lon="6.21132">
        <ele>873</ele>
        <time>2025-11-21T13:27:39.000Z</time>
      </trkpt>
      <trkpt lat="44.47201" lon="6.21133">
        <ele>872</ele>
        <time>2025-11-21T13:27:40.000Z</time>
      </trkpt>
      <trkpt lat="44.47201" lon="6.21135">
        <ele>872</ele>
        <time>2025-11-21T13:27:41.000Z</time>
      </trkpt>
      <trkpt lat="44.47201" lon="6.21136">
        <ele>872</ele>
        <time>2025-11-21T13:27:42.000Z</time>
      </trkpt>
      <trkpt lat="44.47201" lon="6.21137">
        <ele>872</ele>
        <time>2025-11-21T13:27:43.000Z</time>
      </trkpt>
      <trkpt lat="44.47201" lon="6.21139">
        <ele>872</ele>
        <time>2025-11-21T13:27:44.000Z</time>
      </trkpt>
      <trkpt lat="44.47201" lon="6.2114">
        <ele>872</ele>
        <time>2025-11-21T13:27:45.000Z</time>
      </trkpt>
      <trkpt lat="44.47202" lon="6.21142">
        <ele>872</ele>
        <time>2025-11-21T13:27:46.000Z</time>
      </trkpt>
      <trkpt lat="44.47202" lon="6.21144">
        <ele>872</ele>
        <time>2025-11-21T13:27:47.000Z</time>
      </trkpt>
      <trkpt lat="44.47203" lon="6.21146">
        <ele>872</ele>
        <time>2025-11-21T13:27:48.000Z</time>
      </trkpt>
      <trkpt lat="44.47203" lon="6.21148">
        <ele>872</ele>
        <time>2025-11-21T13:27:49.000Z</time>
      </trkpt>
      <trkpt lat="44.47204" lon="6.21149">
        <ele>872</ele>
        <time>2025-11-21T13:27:50.000Z</time>
      </trkpt>
      <trkpt lat="44.47204" lon="6.21151">
        <ele>872</ele>
        <time>2025-11-21T13:27:51.000Z</time>
      </trkpt>
      <trkpt lat="44.47204" lon="6.21152">
        <ele>872</ele>
        <time>2025-11-21T13:27:52.000Z</time>
      </trkpt>
      <trkpt lat="44.47205" lon="6.21153">
        <ele>872</ele>
        <time>2025-11-21T13:27:53.000Z</time>
      </trkpt>
      <trkpt lat="44.47206" lon="6.21154">
        <ele>872</ele>
        <time>2025-11-21T13:27:54.000Z</time>
      </trkpt>
      <trkpt lat="44.47207" lon="6.21155">
        <ele>872</ele>
        <time>2025-11-21T13:27:55.000Z</time>
      </trkpt>
      <trkpt lat="44.47208" lon="6.21155">
        <ele>871</ele>
        <time>2025-11-21T13:27:56.000Z</time>
      </trkpt>
      <trkpt lat="44.4721" lon="6.21157">
        <ele>870</ele>
        <time>2025-11-21T13:27:57.000Z</time>
      </trkpt>
      <trkpt lat="44.47211" lon="6.21159">
        <ele>870</ele>
        <time>2025-11-21T13:27:58.000Z</time>
      </trkpt>
      <trkpt lat="44.47212" lon="6.21161">
        <ele>870</ele>
        <time>2025-11-21T13:27:59.000Z</time>
      </trkpt>
      <trkpt lat="44.47213" lon="6.21163">
        <ele>869</ele>
        <time>2025-11-21T13:28:00.000Z</time>
      </trkpt>
      <trkpt lat="44.47214" lon="6.21165">
        <ele>869</ele>
        <time>2025-11-21T13:28:01.000Z</time>
      </trkpt>
      <trkpt lat="44.47215" lon="6.21166">
        <ele>869</ele>
        <time>2025-11-21T13:28:02.000Z</time>
      </trkpt>
      <trkpt lat="44.47215" lon="6.21167">
        <ele>869</ele>
        <time>2025-11-21T13:28:03.000Z</time>
      </trkpt>
      <trkpt lat="44.47215" lon="6.21169">
        <ele>868</ele>
        <time>2025-11-21T13:28:04.000Z</time>
      </trkpt>
      <trkpt lat="44.47216" lon="6.21169">
        <ele>868</ele>
        <time>2025-11-21T13:28:05.000Z</time>
      </trkpt>
      <trkpt lat="44.47216" lon="6.21171">
        <ele>869</ele>
        <time>2025-11-21T13:28:06.000Z</time>
      </trkpt>
      <trkpt lat="44.47217" lon="6.21172">
        <ele>868</ele>
        <time>2025-11-21T13:28:07.000Z</time>
      </trkpt>
      <trkpt lat="44.47218" lon="6.21172">
        <ele>868</ele>
        <time>2025-11-21T13:28:08.000Z</time>
      </trkpt>
      <trkpt lat="44.47219" lon="6.21173">
        <ele>868</ele>
        <time>2025-11-21T13:28:09.000Z</time>
      </trkpt>
      <trkpt lat="44.47219" lon="6.21175">
        <ele>867</ele>
        <time>2025-11-21T13:28:10.000Z</time>
      </trkpt>
      <trkpt lat="44.4722" lon="6.21177">
        <ele>867</ele>
        <time>2025-11-21T13:28:11.000Z</time>
      </trkpt>
      <trkpt lat="44.4722" lon="6.21179">
        <ele>866</ele>
        <time>2025-11-21T13:28:12.000Z</time>
      </trkpt>
      <trkpt lat="44.4722" lon="6.21181">
        <ele>867</ele>
        <time>2025-11-21T13:28:13.000Z</time>
      </trkpt>
      <trkpt lat="44.4722" lon="6.21183">
        <ele>866</ele>
        <time>2025-11-21T13:28:14.000Z</time>
      </trkpt>
      <trkpt lat="44.47221" lon="6.21186">
        <ele>866</ele>
        <time>2025-11-21T13:28:15.000Z</time>
      </trkpt>
      <trkpt lat="44.47221" lon="6.21188">
        <ele>866</ele>
        <time>2025-11-21T13:28:16.000Z</time>
      </trkpt>
      <trkpt lat="44.47222" lon="6.21189">
        <ele>865</ele>
        <time>2025-11-21T13:28:17.000Z</time>
      </trkpt>
      <trkpt lat="44.47222" lon="6.21191">
        <ele>865</ele>
        <time>2025-11-21T13:28:18.000Z</time>
      </trkpt>
      <trkpt lat="44.47222" lon="6.21192">
        <ele>866</ele>
        <time>2025-11-21T13:28:19.000Z</time>
      </trkpt>
      <trkpt lat="44.47223" lon="6.21193">
        <ele>865</ele>
        <time>2025-11-21T13:28:20.000Z</time>
      </trkpt>
      <trkpt lat="44.47222" lon="6.21195">
        <ele>865</ele>
        <time>2025-11-21T13:28:21.000Z</time>
      </trkpt>
      <trkpt lat="44.47221" lon="6.21195">
        <ele>866</ele>
        <time>2025-11-21T13:28:22.000Z</time>
      </trkpt>
      <trkpt lat="44.47219" lon="6.21195">
        <ele>865</ele>
        <time>2025-11-21T13:28:23.000Z</time>
      </trkpt>
      <trkpt lat="44.47218" lon="6.21195">
        <ele>864</ele>
        <time>2025-11-21T13:28:24.000Z</time>
      </trkpt>
      <trkpt lat="44.47218" lon="6.21193">
        <ele>864</ele>
        <time>2025-11-21T13:28:25.000Z</time>
      </trkpt>
      <trkpt lat="44.47217" lon="6.21192">
        <ele>864</ele>
        <time>2025-11-21T13:28:26.000Z</time>
      </trkpt>
      <trkpt lat="44.47216" lon="6.21192">
        <ele>864</ele>
        <time>2025-11-21T13:28:27.000Z</time>
      </trkpt>
      <trkpt lat="44.47216" lon="6.21192">
        <ele>865</ele>
        <time>2025-11-21T13:28:28.000Z</time>
      </trkpt>
      <trkpt lat="44.47216" lon="6.2119">
        <ele>864</ele>
        <time>2025-11-21T13:28:29.000Z</time>
      </trkpt>
      <trkpt lat="44.47216" lon="6.2119">
        <ele>864</ele>
        <time>2025-11-21T13:28:30.000Z</time>
      </trkpt>
      <trkpt lat="44.47215" lon="6.21189">
        <ele>863</ele>
        <time>2025-11-21T13:28:31.000Z</time>
      </trkpt>
      <trkpt lat="44.47214" lon="6.21188">
        <ele>863</ele>
        <time>2025-11-21T13:28:32.000Z</time>
      </trkpt>
      <trkpt lat="44.47213" lon="6.21188">
        <ele>862</ele>
        <time>2025-11-21T13:28:33.000Z</time>
      </trkpt>
      <trkpt lat="44.47212" lon="6.21187">
        <ele>862</ele>
        <time>2025-11-21T13:28:34.000Z</time>
      </trkpt>
      <trkpt lat="44.47211" lon="6.21187">
        <ele>862</ele>
        <time>2025-11-21T13:28:35.000Z</time>
      </trkpt>
      <trkpt lat="44.47211" lon="6.21186">
        <ele>862</ele>
        <time>2025-11-21T13:28:36.000Z</time>
      </trkpt>
      <trkpt lat="44.4721" lon="6.21186">
        <ele>861</ele>
        <time>2025-11-21T13:28:37.000Z</time>
      </trkpt>
      <trkpt lat="44.47209" lon="6.21184">
        <ele>861</ele>
        <time>2025-11-21T13:28:38.000Z</time>
      </trkpt>
      <trkpt lat="44.47208" lon="6.21184">
        <ele>861</ele>
        <time>2025-11-21T13:28:39.000Z</time>
      </trkpt>
      <trkpt lat="44.47207" lon="6.21183">
        <ele>860</ele>
        <time>2025-11-21T13:28:40.000Z</time>
      </trkpt>
      <trkpt lat="44.47206" lon="6.21182">
        <ele>860</ele>
        <time>2025-11-21T13:28:41.000Z</time>
      </trkpt>
      <trkpt lat="44.47204" lon="6.21181">
        <ele>860</ele>
        <time>2025-11-21T13:28:42.000Z</time>
      </trkpt>
      <trkpt lat="44.47202" lon="6.21181">
        <ele>859</ele>
        <time>2025-11-21T13:28:43.000Z</time>
      </trkpt>
      <trkpt lat="44.47201" lon="6.21181">
        <ele>859</ele>
        <time>2025-11-21T13:28:44.000Z</time>
      </trkpt>
      <trkpt lat="44.472" lon="6.2118">
        <ele>858</ele>
        <time>2025-11-21T13:28:45.000Z</time>
      </trkpt>
      <trkpt lat="44.47199" lon="6.21179">
        <ele>858</ele>
        <time>2025-11-21T13:28:46.000Z</time>
      </trkpt>
      <trkpt lat="44.47199" lon="6.21178">
        <ele>859</ele>
        <time>2025-11-21T13:28:47.000Z</time>
      </trkpt>
      <trkpt lat="44.47199" lon="6.21177">
        <ele>858</ele>
        <time>2025-11-21T13:28:48.000Z</time>
      </trkpt>
      <trkpt lat="44.47198" lon="6.21177">
        <ele>858</ele>
        <time>2025-11-21T13:28:49.000Z</time>
      </trkpt>
      <trkpt lat="44.47197" lon="6.21176">
        <ele>857</ele>
        <time>2025-11-21T13:28:50.000Z</time>
      </trkpt>
      <trkpt lat="44.47196" lon="6.21175">
        <ele>857</ele>
        <time>2025-11-21T13:28:51.000Z</time>
      </trkpt>
      <trkpt lat="44.47195" lon="6.21174">
        <ele>856</ele>
        <time>2025-11-21T13:28:52.000Z</time>
      </trkpt>
      <trkpt lat="44.47193" lon="6.21173">
        <ele>856</ele>
        <time>2025-11-21T13:28:53.000Z</time>
      </trkpt>
      <trkpt lat="44.47192" lon="6.21174">
        <ele>856</ele>
        <time>2025-11-21T13:28:54.000Z</time>
      </trkpt>
      <trkpt lat="44.47191" lon="6.21174">
        <ele>856</ele>
        <time>2025-11-21T13:28:55.000Z</time>
      </trkpt>
      <trkpt lat="44.47189" lon="6.21175">
        <ele>856</ele>
        <time>2025-11-21T13:28:56.000Z</time>
      </trkpt>
      <trkpt lat="44.47187" lon="6.21175">
        <ele>856</ele>
        <time>2025-11-21T13:28:57.000Z</time>
      </trkpt>
      <trkpt lat="44.47185" lon="6.21175">
        <ele>855</ele>
        <time>2025-11-21T13:28:58.000Z</time>
      </trkpt>
      <trkpt lat="44.47184" lon="6.21175">
        <ele>855</ele>
        <time>2025-11-21T13:28:59.000Z</time>
      </trkpt>
      <trkpt lat="44.47183" lon="6.21174">
        <ele>855</ele>
        <time>2025-11-21T13:29:00.000Z</time>
      </trkpt>
      <trkpt lat="44.47182" lon="6.21174">
        <ele>855</ele>
        <time>2025-11-21T13:29:01.000Z</time>
      </trkpt>
      <trkpt lat="44.4718" lon="6.21174">
        <ele>854</ele>
        <time>2025-11-21T13:29:02.000Z</time>
      </trkpt>
      <trkpt lat="44.47179" lon="6.21174">
        <ele>854</ele>
        <time>2025-11-21T13:29:03.000Z</time>
      </trkpt>
      <trkpt lat="44.47178" lon="6.21174">
        <ele>854</ele>
        <time>2025-11-21T13:29:04.000Z</time>
      </trkpt>
      <trkpt lat="44.47176" lon="6.21175">
        <ele>854</ele>
        <time>2025-11-21T13:29:05.000Z</time>
      </trkpt>
      <trkpt lat="44.47175" lon="6.21175">
        <ele>853</ele>
        <time>2025-11-21T13:29:06.000Z</time>
      </trkpt>
      <trkpt lat="44.47174" lon="6.21175">
        <ele>853</ele>
        <time>2025-11-21T13:29:07.000Z</time>
      </trkpt>
      <trkpt lat="44.47172" lon="6.21174">
        <ele>853</ele>
        <time>2025-11-21T13:29:08.000Z</time>
      </trkpt>
      <trkpt lat="44.47171" lon="6.21174">
        <ele>853</ele>
        <time>2025-11-21T13:29:09.000Z</time>
      </trkpt>
      <trkpt lat="44.4717" lon="6.21173">
        <ele>852</ele>
        <time>2025-11-21T13:29:10.000Z</time>
      </trkpt>
      <trkpt lat="44.47169" lon="6.21171">
        <ele>852</ele>
        <time>2025-11-21T13:29:11.000Z</time>
      </trkpt>
      <trkpt lat="44.47169" lon="6.21168">
        <ele>852</ele>
        <time>2025-11-21T13:29:12.000Z</time>
      </trkpt>
      <trkpt lat="44.47168" lon="6.21166">
        <ele>851</ele>
        <time>2025-11-21T13:29:13.000Z</time>
      </trkpt>
      <trkpt lat="44.47168" lon="6.21165">
        <ele>851</ele>
        <time>2025-11-21T13:29:14.000Z</time>
      </trkpt>
      <trkpt lat="44.47168" lon="6.21163">
        <ele>851</ele>
        <time>2025-11-21T13:29:15.000Z</time>
      </trkpt>
      <trkpt lat="44.47168" lon="6.21161">
        <ele>851</ele>
        <time>2025-11-21T13:29:16.000Z</time>
      </trkpt>
      <trkpt lat="44.47168" lon="6.21159">
        <ele>851</ele>
        <time>2025-11-21T13:29:17.000Z</time>
      </trkpt>
      <trkpt lat="44.47167" lon="6.21157">
        <ele>851</ele>
        <time>2025-11-21T13:29:18.000Z</time>
      </trkpt>
      <trkpt lat="44.47167" lon="6.21155">
        <ele>851</ele>
        <time>2025-11-21T13:29:19.000Z</time>
      </trkpt>
      <trkpt lat="44.47166" lon="6.21154">
        <ele>851</ele>
        <time>2025-11-21T13:29:20.000Z</time>
      </trkpt>
      <trkpt lat="44.47166" lon="6.21153">
        <ele>852</ele>
        <time>2025-11-21T13:29:21.000Z</time>
      </trkpt>
      <trkpt lat="44.47166" lon="6.21151">
        <ele>851</ele>
        <time>2025-11-21T13:29:22.000Z</time>
      </trkpt>
      <trkpt lat="44.47165" lon="6.21149">
        <ele>851</ele>
        <time>2025-11-21T13:29:23.000Z</time>
      </trkpt>
      <trkpt lat="44.47165" lon="6.21147">
        <ele>851</ele>
        <time>2025-11-21T13:29:24.000Z</time>
      </trkpt>
      <trkpt lat="44.47165" lon="6.21145">
        <ele>850</ele>
        <time>2025-11-21T13:29:25.000Z</time>
      </trkpt>
      <trkpt lat="44.47164" lon="6.21144">
        <ele>850</ele>
        <time>2025-11-21T13:29:26.000Z</time>
      </trkpt>
      <trkpt lat="44.47163" lon="6.21144">
        <ele>849</ele>
        <time>2025-11-21T13:29:27.000Z</time>
      </trkpt>
      <trkpt lat="44.47162" lon="6.21144">
        <ele>849</ele>
        <time>2025-11-21T13:29:28.000Z</time>
      </trkpt>
      <trkpt lat="44.47162" lon="6.21145">
        <ele>849</ele>
        <time>2025-11-21T13:29:29.000Z</time>
      </trkpt>
      <trkpt lat="44.47161" lon="6.21146">
        <ele>849</ele>
        <time>2025-11-21T13:29:30.000Z</time>
      </trkpt>
      <trkpt lat="44.4716" lon="6.21148">
        <ele>849</ele>
        <time>2025-11-21T13:29:31.000Z</time>
      </trkpt>
      <trkpt lat="44.4716" lon="6.21149">
        <ele>849</ele>
        <time>2025-11-21T13:29:32.000Z</time>
      </trkpt>
      <trkpt lat="44.4716" lon="6.21151">
        <ele>848</ele>
        <time>2025-11-21T13:29:33.000Z</time>
      </trkpt>
      <trkpt lat="44.4716" lon="6.21152">
        <ele>848</ele>
        <time>2025-11-21T13:29:34.000Z</time>
      </trkpt>
      <trkpt lat="44.47159" lon="6.21154">
        <ele>848</ele>
        <time>2025-11-21T13:29:35.000Z</time>
      </trkpt>
      <trkpt lat="44.47157" lon="6.21155">
        <ele>848</ele>
        <time>2025-11-21T13:29:36.000Z</time>
      </trkpt>
      <trkpt lat="44.47156" lon="6.21157">
        <ele>847</ele>
        <time>2025-11-21T13:29:37.000Z</time>
      </trkpt>
      <trkpt lat="44.47156" lon="6.21157">
        <ele>848</ele>
        <time>2025-11-21T13:29:38.000Z</time>
      </trkpt>
      <trkpt lat="44.47155" lon="6.21158">
        <ele>848</ele>
        <time>2025-11-21T13:29:39.000Z</time>
      </trkpt>
      <trkpt lat="44.47154" lon="6.2116">
        <ele>847</ele>
        <time>2025-11-21T13:29:40.000Z</time>
      </trkpt>
      <trkpt lat="44.47153" lon="6.21162">
        <ele>846</ele>
        <time>2025-11-21T13:29:41.000Z</time>
      </trkpt>
      <trkpt lat="44.47152" lon="6.21163">
        <ele>846</ele>
        <time>2025-11-21T13:29:42.000Z</time>
      </trkpt>
      <trkpt lat="44.47151" lon="6.21165">
        <ele>846</ele>
        <time>2025-11-21T13:29:43.000Z</time>
      </trkpt>
      <trkpt lat="44.47151" lon="6.21166">
        <ele>845</ele>
        <time>2025-11-21T13:29:44.000Z</time>
      </trkpt>
      <trkpt lat="44.4715" lon="6.21168">
        <ele>845</ele>
        <time>2025-11-21T13:29:45.000Z</time>
      </trkpt>
      <trkpt lat="44.4715" lon="6.21169">
        <ele>844</ele>
        <time>2025-11-21T13:29:46.000Z</time>
      </trkpt>
      <trkpt lat="44.4715" lon="6.2117">
        <ele>844</ele>
        <time>2025-11-21T13:29:47.000Z</time>
      </trkpt>
      <trkpt lat="44.47149" lon="6.21172">
        <ele>844</ele>
        <time>2025-11-21T13:29:48.000Z</time>
      </trkpt>
      <trkpt lat="44.47149" lon="6.21175">
        <ele>844</ele>
        <time>2025-11-21T13:29:49.000Z</time>
      </trkpt>
      <trkpt lat="44.47148" lon="6.21177">
        <ele>843</ele>
        <time>2025-11-21T13:29:50.000Z</time>
      </trkpt>
      <trkpt lat="44.47148" lon="6.21179">
        <ele>843</ele>
        <time>2025-11-21T13:29:51.000Z</time>
      </trkpt>
      <trkpt lat="44.47148" lon="6.21182">
        <ele>843</ele>
        <time>2025-11-21T13:29:52.000Z</time>
      </trkpt>
      <trkpt lat="44.47148" lon="6.21184">
        <ele>843</ele>
        <time>2025-11-21T13:29:53.000Z</time>
      </trkpt>
      <trkpt lat="44.47148" lon="6.21186">
        <ele>843</ele>
        <time>2025-11-21T13:29:54.000Z</time>
      </trkpt>
      <trkpt lat="44.47148" lon="6.21189">
        <ele>843</ele>
        <time>2025-11-21T13:29:55.000Z</time>
      </trkpt>
      <trkpt lat="44.47149" lon="6.2119">
        <ele>843</ele>
        <time>2025-11-21T13:29:56.000Z</time>
      </trkpt>
      <trkpt lat="44.47149" lon="6.21192">
        <ele>844</ele>
        <time>2025-11-21T13:29:57.000Z</time>
      </trkpt>
      <trkpt lat="44.4715" lon="6.21192">
        <ele>843</ele>
        <time>2025-11-21T13:29:58.000Z</time>
      </trkpt>
      <trkpt lat="44.47151" lon="6.21193">
        <ele>843</ele>
        <time>2025-11-21T13:29:59.000Z</time>
      </trkpt>
      <trkpt lat="44.47153" lon="6.21193">
        <ele>843</ele>
        <time>2025-11-21T13:30:00.000Z</time>
      </trkpt>
      <trkpt lat="44.47154" lon="6.21194">
        <ele>843</ele>
        <time>2025-11-21T13:30:01.000Z</time>
      </trkpt>
      <trkpt lat="44.47155" lon="6.21194">
        <ele>844</ele>
        <time>2025-11-21T13:30:02.000Z</time>
      </trkpt>
      <trkpt lat="44.47156" lon="6.21194">
        <ele>844</ele>
        <time>2025-11-21T13:30:03.000Z</time>
      </trkpt>
      <trkpt lat="44.47157" lon="6.21195">
        <ele>843</ele>
        <time>2025-11-21T13:30:04.000Z</time>
      </trkpt>
      <trkpt lat="44.47158" lon="6.21195">
        <ele>843</ele>
        <time>2025-11-21T13:30:05.000Z</time>
      </trkpt>
      <trkpt lat="44.47158" lon="6.21197">
        <ele>843</ele>
        <time>2025-11-21T13:30:06.000Z</time>
      </trkpt>
      <trkpt lat="44.47158" lon="6.21197">
        <ele>842</ele>
        <time>2025-11-21T13:30:07.000Z</time>
      </trkpt>
      <trkpt lat="44.47159" lon="6.21199">
        <ele>841</ele>
        <time>2025-11-21T13:30:08.000Z</time>
      </trkpt>
      <trkpt lat="44.47159" lon="6.212">
        <ele>841</ele>
        <time>2025-11-21T13:30:09.000Z</time>
      </trkpt>
      <trkpt lat="44.47159" lon="6.21201">
        <ele>840</ele>
        <time>2025-11-21T13:30:10.000Z</time>
      </trkpt>
      <trkpt lat="44.4716" lon="6.21201">
        <ele>840</ele>
        <time>2025-11-21T13:30:11.000Z</time>
      </trkpt>
      <trkpt lat="44.47162" lon="6.21202">
        <ele>840</ele>
        <time>2025-11-21T13:30:12.000Z</time>
      </trkpt>
      <trkpt lat="44.47163" lon="6.21202">
        <ele>840</ele>
        <time>2025-11-21T13:30:13.000Z</time>
      </trkpt>
      <trkpt lat="44.47164" lon="6.21202">
        <ele>838</ele>
        <time>2025-11-21T13:30:14.000Z</time>
      </trkpt>
      <trkpt lat="44.47165" lon="6.21202">
        <ele>837</ele>
        <time>2025-11-21T13:30:15.000Z</time>
      </trkpt>
      <trkpt lat="44.47166" lon="6.21202">
        <ele>836</ele>
        <time>2025-11-21T13:30:16.000Z</time>
      </trkpt>
      <trkpt lat="44.47167" lon="6.21203">
        <ele>836</ele>
        <time>2025-11-21T13:30:17.000Z</time>
      </trkpt>
      <trkpt lat="44.47168" lon="6.21203">
        <ele>836</ele>
        <time>2025-11-21T13:30:18.000Z</time>
      </trkpt>
      <trkpt lat="44.47169" lon="6.21204">
        <ele>836</ele>
        <time>2025-11-21T13:30:19.000Z</time>
      </trkpt>
      <trkpt lat="44.4717" lon="6.21204">
        <ele>835</ele>
        <time>2025-11-21T13:30:20.000Z</time>
      </trkpt>
      <trkpt lat="44.4717" lon="6.21205">
        <ele>835</ele>
        <time>2025-11-21T13:30:21.000Z</time>
      </trkpt>
      <trkpt lat="44.47171" lon="6.21206">
        <ele>836</ele>
        <time>2025-11-21T13:30:22.000Z</time>
      </trkpt>
      <trkpt lat="44.47172" lon="6.21207">
        <ele>836</ele>
        <time>2025-11-21T13:30:23.000Z</time>
      </trkpt>
      <trkpt lat="44.47172" lon="6.21208">
        <ele>836</ele>
        <time>2025-11-21T13:30:24.000Z</time>
      </trkpt>
      <trkpt lat="44.47171" lon="6.21209">
        <ele>835</ele>
        <time>2025-11-21T13:30:25.000Z</time>
      </trkpt>
      <trkpt lat="44.47171" lon="6.21209">
        <ele>835</ele>
        <time>2025-11-21T13:30:26.000Z</time>
      </trkpt>
      <trkpt lat="44.4717" lon="6.2121">
        <ele>834</ele>
        <time>2025-11-21T13:30:27.000Z</time>
      </trkpt>
      <trkpt lat="44.47169" lon="6.2121">
        <ele>834</ele>
        <time>2025-11-21T13:30:28.000Z</time>
      </trkpt>
      <trkpt lat="44.47168" lon="6.2121">
        <ele>834</ele>
        <time>2025-11-21T13:30:29.000Z</time>
      </trkpt>
      <trkpt lat="44.47167" lon="6.21209">
        <ele>834</ele>
        <time>2025-11-21T13:30:30.000Z</time>
      </trkpt>
      <trkpt lat="44.47166" lon="6.2121">
        <ele>834</ele>
        <time>2025-11-21T13:30:31.000Z</time>
      </trkpt>
      <trkpt lat="44.47165" lon="6.2121">
        <ele>834</ele>
        <time>2025-11-21T13:30:32.000Z</time>
      </trkpt>
      <trkpt lat="44.47165" lon="6.21211">
        <ele>833</ele>
        <time>2025-11-21T13:30:33.000Z</time>
      </trkpt>
      <trkpt lat="44.47165" lon="6.2121">
        <ele>832</ele>
        <time>2025-11-21T13:30:34.000Z</time>
      </trkpt>
      <trkpt lat="44.47163" lon="6.2121">
        <ele>832</ele>
        <time>2025-11-21T13:30:35.000Z</time>
      </trkpt>
      <trkpt lat="44.47162" lon="6.2121">
        <ele>832</ele>
        <time>2025-11-21T13:30:36.000Z</time>
      </trkpt>
      <trkpt lat="44.4716" lon="6.2121">
        <ele>832</ele>
        <time>2025-11-21T13:30:37.000Z</time>
      </trkpt>
      <trkpt lat="44.4716" lon="6.21211">
        <ele>832</ele>
        <time>2025-11-21T13:30:38.000Z</time>
      </trkpt>
      <trkpt lat="44.47159" lon="6.21212">
        <ele>831</ele>
        <time>2025-11-21T13:30:39.000Z</time>
      </trkpt>
      <trkpt lat="44.47158" lon="6.21212">
        <ele>831</ele>
        <time>2025-11-21T13:30:40.000Z</time>
      </trkpt>
      <trkpt lat="44.47158" lon="6.21211">
        <ele>830</ele>
        <time>2025-11-21T13:30:41.000Z</time>
      </trkpt>
      <trkpt lat="44.47157" lon="6.21211">
        <ele>830</ele>
        <time>2025-11-21T13:30:42.000Z</time>
      </trkpt>
      <trkpt lat="44.47156" lon="6.21211">
        <ele>830</ele>
        <time>2025-11-21T13:30:43.000Z</time>
      </trkpt>
      <trkpt lat="44.47155" lon="6.21211">
        <ele>830</ele>
        <time>2025-11-21T13:30:44.000Z</time>
      </trkpt>
      <trkpt lat="44.47153" lon="6.21211">
        <ele>829</ele>
        <time>2025-11-21T13:30:45.000Z</time>
      </trkpt>
      <trkpt lat="44.47151" lon="6.21211">
        <ele>828</ele>
        <time>2025-11-21T13:30:46.000Z</time>
      </trkpt>
      <trkpt lat="44.4715" lon="6.21212">
        <ele>828</ele>
        <time>2025-11-21T13:30:47.000Z</time>
      </trkpt>
      <trkpt lat="44.47148" lon="6.21212">
        <ele>828</ele>
        <time>2025-11-21T13:30:48.000Z</time>
      </trkpt>
      <trkpt lat="44.47147" lon="6.21212">
        <ele>828</ele>
        <time>2025-11-21T13:30:49.000Z</time>
      </trkpt>
      <trkpt lat="44.47146" lon="6.21213">
        <ele>828</ele>
        <time>2025-11-21T13:30:50.000Z</time>
      </trkpt>
      <trkpt lat="44.47145" lon="6.21213">
        <ele>829</ele>
        <time>2025-11-21T13:30:51.000Z</time>
      </trkpt>
      <trkpt lat="44.47144" lon="6.21213">
        <ele>829</ele>
        <time>2025-11-21T13:30:52.000Z</time>
      </trkpt>
      <trkpt lat="44.47143" lon="6.21213">
        <ele>828</ele>
        <time>2025-11-21T13:30:53.000Z</time>
      </trkpt>
      <trkpt lat="44.47143" lon="6.21212">
        <ele>828</ele>
        <time>2025-11-21T13:30:54.000Z</time>
      </trkpt>
      <trkpt lat="44.47142" lon="6.21211">
        <ele>827</ele>
        <time>2025-11-21T13:30:55.000Z</time>
      </trkpt>
      <trkpt lat="44.47141" lon="6.2121">
        <ele>826</ele>
        <time>2025-11-21T13:30:56.000Z</time>
      </trkpt>
      <trkpt lat="44.4714" lon="6.2121">
        <ele>826</ele>
        <time>2025-11-21T13:30:57.000Z</time>
      </trkpt>
      <trkpt lat="44.47139" lon="6.21209">
        <ele>825</ele>
        <time>2025-11-21T13:30:58.000Z</time>
      </trkpt>
      <trkpt lat="44.47138" lon="6.21209">
        <ele>826</ele>
        <time>2025-11-21T13:30:59.000Z</time>
      </trkpt>
      <trkpt lat="44.47137" lon="6.21209">
        <ele>826</ele>
        <time>2025-11-21T13:31:00.000Z</time>
      </trkpt>
      <trkpt lat="44.47136" lon="6.21208">
        <ele>827</ele>
        <time>2025-11-21T13:31:01.000Z</time>
      </trkpt>
      <trkpt lat="44.47135" lon="6.21208">
        <ele>826</ele>
        <time>2025-11-21T13:31:02.000Z</time>
      </trkpt>
      <trkpt lat="44.47134" lon="6.21207">
        <ele>825</ele>
        <time>2025-11-21T13:31:03.000Z</time>
      </trkpt>
      <trkpt lat="44.47133" lon="6.21207">
        <ele>824</ele>
        <time>2025-11-21T13:31:04.000Z</time>
      </trkpt>
      <trkpt lat="44.47132" lon="6.21208">
        <ele>824</ele>
        <time>2025-11-21T13:31:05.000Z</time>
      </trkpt>
      <trkpt lat="44.4713" lon="6.21208">
        <ele>823</ele>
        <time>2025-11-21T13:31:06.000Z</time>
      </trkpt>
      <trkpt lat="44.47129" lon="6.21208">
        <ele>823</ele>
        <time>2025-11-21T13:31:07.000Z</time>
      </trkpt>
      <trkpt lat="44.47128" lon="6.21209">
        <ele>823</ele>
        <time>2025-11-21T13:31:08.000Z</time>
      </trkpt>
      <trkpt lat="44.47127" lon="6.21208">
        <ele>822</ele>
        <time>2025-11-21T13:31:09.000Z</time>
      </trkpt>
      <trkpt lat="44.47127" lon="6.21208">
        <ele>822</ele>
        <time>2025-11-21T13:31:10.000Z</time>
      </trkpt>
      <trkpt lat="44.47125" lon="6.21208">
        <ele>821</ele>
        <time>2025-11-21T13:31:11.000Z</time>
      </trkpt>
      <trkpt lat="44.47124" lon="6.21207">
        <ele>820</ele>
        <time>2025-11-21T13:31:12.000Z</time>
      </trkpt>
      <trkpt lat="44.47122" lon="6.21208">
        <ele>821</ele>
        <time>2025-11-21T13:31:13.000Z</time>
      </trkpt>
      <trkpt lat="44.47121" lon="6.21207">
        <ele>820</ele>
        <time>2025-11-21T13:31:14.000Z</time>
      </trkpt>
      <trkpt lat="44.4712" lon="6.21207">
        <ele>819</ele>
        <time>2025-11-21T13:31:15.000Z</time>
      </trkpt>
      <trkpt lat="44.47118" lon="6.21207">
        <ele>820</ele>
        <time>2025-11-21T13:31:16.000Z</time>
      </trkpt>
      <trkpt lat="44.47117" lon="6.21208">
        <ele>819</ele>
        <time>2025-11-21T13:31:17.000Z</time>
      </trkpt>
      <trkpt lat="44.47115" lon="6.21209">
        <ele>820</ele>
        <time>2025-11-21T13:31:18.000Z</time>
      </trkpt>
      <trkpt lat="44.47115" lon="6.21211">
        <ele>820</ele>
        <time>2025-11-21T13:31:19.000Z</time>
      </trkpt>
      <trkpt lat="44.47115" lon="6.21211">
        <ele>820</ele>
        <time>2025-11-21T13:31:20.000Z</time>
      </trkpt>
      <trkpt lat="44.47115" lon="6.21212">
        <ele>821</ele>
        <time>2025-11-21T13:31:21.000Z</time>
      </trkpt>
      <trkpt lat="44.47117" lon="6.21212">
        <ele>821</ele>
        <time>2025-11-21T13:31:22.000Z</time>
      </trkpt>
      <trkpt lat="44.47117" lon="6.21213">
        <ele>822</ele>
        <time>2025-11-21T13:31:23.000Z</time>
      </trkpt>
      <trkpt lat="44.47118" lon="6.21214">
        <ele>821</ele>
        <time>2025-11-21T13:31:24.000Z</time>
      </trkpt>
      <trkpt lat="44.47118" lon="6.21214">
        <ele>822</ele>
        <time>2025-11-21T13:31:25.000Z</time>
      </trkpt>
      <trkpt lat="44.47118" lon="6.21216">
        <ele>822</ele>
        <time>2025-11-21T13:31:26.000Z</time>
      </trkpt>
      <trkpt lat="44.47119" lon="6.21216">
        <ele>822</ele>
        <time>2025-11-21T13:31:27.000Z</time>
      </trkpt>
      <trkpt lat="44.47119" lon="6.21216">
        <ele>822</ele>
        <time>2025-11-21T13:31:28.000Z</time>
      </trkpt>
      <trkpt lat="44.4712" lon="6.21216">
        <ele>821</ele>
        <time>2025-11-21T13:31:29.000Z</time>
      </trkpt>
      <trkpt lat="44.47121" lon="6.21217">
        <ele>820</ele>
        <time>2025-11-21T13:31:30.000Z</time>
      </trkpt>
      <trkpt lat="44.47122" lon="6.21218">
        <ele>820</ele>
        <time>2025-11-21T13:31:31.000Z</time>
      </trkpt>
      <trkpt lat="44.47123" lon="6.21219">
        <ele>819</ele>
        <time>2025-11-21T13:31:32.000Z</time>
      </trkpt>
      <trkpt lat="44.47124" lon="6.2122">
        <ele>818</ele>
        <time>2025-11-21T13:31:33.000Z</time>
      </trkpt>
      <trkpt lat="44.47124" lon="6.21221">
        <ele>818</ele>
        <time>2025-11-21T13:31:34.000Z</time>
      </trkpt>
      <trkpt lat="44.47125" lon="6.21222">
        <ele>818</ele>
        <time>2025-11-21T13:31:35.000Z</time>
      </trkpt>
      <trkpt lat="44.47126" lon="6.21223">
        <ele>817</ele>
        <time>2025-11-21T13:31:36.000Z</time>
      </trkpt>
      <trkpt lat="44.47127" lon="6.21224">
        <ele>817</ele>
        <time>2025-11-21T13:31:37.000Z</time>
      </trkpt>
      <trkpt lat="44.47128" lon="6.21225">
        <ele>816</ele>
        <time>2025-11-21T13:31:38.000Z</time>
      </trkpt>
      <trkpt lat="44.47128" lon="6.21226">
        <ele>816</ele>
        <time>2025-11-21T13:31:39.000Z</time>
      </trkpt>
      <trkpt lat="44.47128" lon="6.21228">
        <ele>815</ele>
        <time>2025-11-21T13:31:40.000Z</time>
      </trkpt>
      <trkpt lat="44.47129" lon="6.21229">
        <ele>815</ele>
        <time>2025-11-21T13:31:41.000Z</time>
      </trkpt>
      <trkpt lat="44.47131" lon="6.2123">
        <ele>815</ele>
        <time>2025-11-21T13:31:42.000Z</time>
      </trkpt>
      <trkpt lat="44.47132" lon="6.21232">
        <ele>815</ele>
        <time>2025-11-21T13:31:43.000Z</time>
      </trkpt>
      <trkpt lat="44.47133" lon="6.21234">
        <ele>814</ele>
        <time>2025-11-21T13:31:44.000Z</time>
      </trkpt>
      <trkpt lat="44.47134" lon="6.21234">
        <ele>814</ele>
        <time>2025-11-21T13:31:45.000Z</time>
      </trkpt>
      <trkpt lat="44.47134" lon="6.21235">
        <ele>814</ele>
        <time>2025-11-21T13:31:46.000Z</time>
      </trkpt>
      <trkpt lat="44.47135" lon="6.21235">
        <ele>814</ele>
        <time>2025-11-21T13:31:47.000Z</time>
      </trkpt>
      <trkpt lat="44.47136" lon="6.21235">
        <ele>813</ele>
        <time>2025-11-21T13:31:48.000Z</time>
      </trkpt>
      <trkpt lat="44.47138" lon="6.21236">
        <ele>813</ele>
        <time>2025-11-21T13:31:49.000Z</time>
      </trkpt>
      <trkpt lat="44.47139" lon="6.21236">
        <ele>812</ele>
        <time>2025-11-21T13:31:50.000Z</time>
      </trkpt>
      <trkpt lat="44.4714" lon="6.21237">
        <ele>812</ele>
        <time>2025-11-21T13:31:51.000Z</time>
      </trkpt>
      <trkpt lat="44.4714" lon="6.21238">
        <ele>812</ele>
        <time>2025-11-21T13:31:52.000Z</time>
      </trkpt>
      <trkpt lat="44.47141" lon="6.21239">
        <ele>811</ele>
        <time>2025-11-21T13:31:53.000Z</time>
      </trkpt>
      <trkpt lat="44.47142" lon="6.2124">
        <ele>811</ele>
        <time>2025-11-21T13:31:54.000Z</time>
      </trkpt>
      <trkpt lat="44.47143" lon="6.21241">
        <ele>811</ele>
        <time>2025-11-21T13:31:55.000Z</time>
      </trkpt>
      <trkpt lat="44.47143" lon="6.21243">
        <ele>810</ele>
        <time>2025-11-21T13:31:56.000Z</time>
      </trkpt>
      <trkpt lat="44.47143" lon="6.21245">
        <ele>810</ele>
        <time>2025-11-21T13:31:57.000Z</time>
      </trkpt>
      <trkpt lat="44.47144" lon="6.21246">
        <ele>810</ele>
        <time>2025-11-21T13:31:58.000Z</time>
      </trkpt>
      <trkpt lat="44.47144" lon="6.21248">
        <ele>810</ele>
        <time>2025-11-21T13:31:59.000Z</time>
      </trkpt>
      <trkpt lat="44.47144" lon="6.2125">
        <ele>810</ele>
        <time>2025-11-21T13:32:00.000Z</time>
      </trkpt>
      <trkpt lat="44.47144" lon="6.21251">
        <ele>809</ele>
        <time>2025-11-21T13:32:01.000Z</time>
      </trkpt>
      <trkpt lat="44.47144" lon="6.21253">
        <ele>809</ele>
        <time>2025-11-21T13:32:02.000Z</time>
      </trkpt>
      <trkpt lat="44.47145" lon="6.21253">
        <ele>808</ele>
        <time>2025-11-21T13:32:03.000Z</time>
      </trkpt>
      <trkpt lat="44.47145" lon="6.21254">
        <ele>808</ele>
        <time>2025-11-21T13:32:04.000Z</time>
      </trkpt>
      <trkpt lat="44.47146" lon="6.21256">
        <ele>808</ele>
        <time>2025-11-21T13:32:05.000Z</time>
      </trkpt>
      <trkpt lat="44.47147" lon="6.21256">
        <ele>808</ele>
        <time>2025-11-21T13:32:06.000Z</time>
      </trkpt>
      <trkpt lat="44.47149" lon="6.21258">
        <ele>808</ele>
        <time>2025-11-21T13:32:07.000Z</time>
      </trkpt>
      <trkpt lat="44.47149" lon="6.21259">
        <ele>808</ele>
        <time>2025-11-21T13:32:08.000Z</time>
      </trkpt>
      <trkpt lat="44.4715" lon="6.2126">
        <ele>809</ele>
        <time>2025-11-21T13:32:09.000Z</time>
      </trkpt>
      <trkpt lat="44.47151" lon="6.21261">
        <ele>808</ele>
        <time>2025-11-21T13:32:11.000Z</time>
      </trkpt>
      <trkpt lat="44.47155" lon="6.21269">
        <ele>806</ele>
        <time>2025-11-21T13:32:16.000Z</time>
      </trkpt>
      <trkpt lat="44.47158" lon="6.21274">
        <ele>804</ele>
        <time>2025-11-21T13:32:19.000Z</time>
      </trkpt>
      <trkpt lat="44.47158" lon="6.21275">
        <ele>804</ele>
        <time>2025-11-21T13:32:20.000Z</time>
      </trkpt>
      <trkpt lat="44.47157" lon="6.21276">
        <ele>804</ele>
        <time>2025-11-21T13:32:21.000Z</time>
      </trkpt>
      <trkpt lat="44.47156" lon="6.21276">
        <ele>805</ele>
        <time>2025-11-21T13:32:22.000Z</time>
      </trkpt>
      <trkpt lat="44.47155" lon="6.21277">
        <ele>805</ele>
        <time>2025-11-21T13:32:24.000Z</time>
      </trkpt>
      <trkpt lat="44.47154" lon="6.21276">
        <ele>805</ele>
        <time>2025-11-21T13:32:25.000Z</time>
      </trkpt>
      <trkpt lat="44.47153" lon="6.21276">
        <ele>805</ele>
        <time>2025-11-21T13:32:26.000Z</time>
      </trkpt>
      <trkpt lat="44.47152" lon="6.21277">
        <ele>804</ele>
        <time>2025-11-21T13:32:27.000Z</time>
      </trkpt>
      <trkpt lat="44.47151" lon="6.21277">
        <ele>805</ele>
        <time>2025-11-21T13:32:28.000Z</time>
      </trkpt>
      <trkpt lat="44.4715" lon="6.21278">
        <ele>804</ele>
        <time>2025-11-21T13:32:29.000Z</time>
      </trkpt>
      <trkpt lat="44.47148" lon="6.21279">
        <ele>804</ele>
        <time>2025-11-21T13:32:30.000Z</time>
      </trkpt>
      <trkpt lat="44.47146" lon="6.21281">
        <ele>805</ele>
        <time>2025-11-21T13:32:31.000Z</time>
      </trkpt>
      <trkpt lat="44.47145" lon="6.21281">
        <ele>805</ele>
        <time>2025-11-21T13:32:32.000Z</time>
      </trkpt>
      <trkpt lat="44.47145" lon="6.21281">
        <ele>805</ele>
        <time>2025-11-21T13:32:33.000Z</time>
      </trkpt>
      <trkpt lat="44.47143" lon="6.21282">
        <ele>804</ele>
        <time>2025-11-21T13:32:34.000Z</time>
      </trkpt>
      <trkpt lat="44.47142" lon="6.21282">
        <ele>804</ele>
        <time>2025-11-21T13:32:35.000Z</time>
      </trkpt>
      <trkpt lat="44.47141" lon="6.21283">
        <ele>803</ele>
        <time>2025-11-21T13:32:36.000Z</time>
      </trkpt>
      <trkpt lat="44.47139" lon="6.21284">
        <ele>803</ele>
        <time>2025-11-21T13:32:37.000Z</time>
      </trkpt>
      <trkpt lat="44.47138" lon="6.21283">
        <ele>802</ele>
        <time>2025-11-21T13:32:38.000Z</time>
      </trkpt>
      <trkpt lat="44.47136" lon="6.21283">
        <ele>802</ele>
        <time>2025-11-21T13:32:39.000Z</time>
      </trkpt>
      <trkpt lat="44.47135" lon="6.21283">
        <ele>802</ele>
        <time>2025-11-21T13:32:40.000Z</time>
      </trkpt>
      <trkpt lat="44.47134" lon="6.21283">
        <ele>802</ele>
        <time>2025-11-21T13:32:41.000Z</time>
      </trkpt>
      <trkpt lat="44.47133" lon="6.21283">
        <ele>802</ele>
        <time>2025-11-21T13:32:42.000Z</time>
      </trkpt>
      <trkpt lat="44.47133" lon="6.21282">
        <ele>802</ele>
        <time>2025-11-21T13:32:43.000Z</time>
      </trkpt>
      <trkpt lat="44.47132" lon="6.2128">
        <ele>802</ele>
        <time>2025-11-21T13:32:44.000Z</time>
      </trkpt>
      <trkpt lat="44.47131" lon="6.2128">
        <ele>802</ele>
        <time>2025-11-21T13:32:45.000Z</time>
      </trkpt>
      <trkpt lat="44.4713" lon="6.2128">
        <ele>802</ele>
        <time>2025-11-21T13:32:46.000Z</time>
      </trkpt>
      <trkpt lat="44.47129" lon="6.2128">
        <ele>802</ele>
        <time>2025-11-21T13:32:47.000Z</time>
      </trkpt>
      <trkpt lat="44.47128" lon="6.2128">
        <ele>802</ele>
        <time>2025-11-21T13:32:48.000Z</time>
      </trkpt>
      <trkpt lat="44.47126" lon="6.21279">
        <ele>802</ele>
        <time>2025-11-21T13:32:49.000Z</time>
      </trkpt>
      <trkpt lat="44.47125" lon="6.21276">
        <ele>801</ele>
        <time>2025-11-21T13:32:50.000Z</time>
      </trkpt>
      <trkpt lat="44.47124" lon="6.21274">
        <ele>802</ele>
        <time>2025-11-21T13:32:51.000Z</time>
      </trkpt>
      <trkpt lat="44.47124" lon="6.21274">
        <ele>803</ele>
        <time>2025-11-21T13:32:52.000Z</time>
      </trkpt>
      <trkpt lat="44.47123" lon="6.21274">
        <ele>802</ele>
        <time>2025-11-21T13:32:53.000Z</time>
      </trkpt>
      <trkpt lat="44.47122" lon="6.21273">
        <ele>802</ele>
        <time>2025-11-21T13:32:54.000Z</time>
      </trkpt>
      <trkpt lat="44.47121" lon="6.21272">
        <ele>802</ele>
        <time>2025-11-21T13:32:55.000Z</time>
      </trkpt>
      <trkpt lat="44.47119" lon="6.21272">
        <ele>802</ele>
        <time>2025-11-21T13:32:56.000Z</time>
      </trkpt>
      <trkpt lat="44.47117" lon="6.21272">
        <ele>802</ele>
        <time>2025-11-21T13:32:57.000Z</time>
      </trkpt>
      <trkpt lat="44.47115" lon="6.21273">
        <ele>801</ele>
        <time>2025-11-21T13:32:58.000Z</time>
      </trkpt>
      <trkpt lat="44.47114" lon="6.21273">
        <ele>801</ele>
        <time>2025-11-21T13:32:59.000Z</time>
      </trkpt>
      <trkpt lat="44.47112" lon="6.21274">
        <ele>800</ele>
        <time>2025-11-21T13:33:00.000Z</time>
      </trkpt>
      <trkpt lat="44.4711" lon="6.21276">
        <ele>800</ele>
        <time>2025-11-21T13:33:01.000Z</time>
      </trkpt>
      <trkpt lat="44.47108" lon="6.21277">
        <ele>800</ele>
        <time>2025-11-21T13:33:02.000Z</time>
      </trkpt>
      <trkpt lat="44.47106" lon="6.21277">
        <ele>800</ele>
        <time>2025-11-21T13:33:03.000Z</time>
      </trkpt>
      <trkpt lat="44.47104" lon="6.21278">
        <ele>800</ele>
        <time>2025-11-21T13:33:04.000Z</time>
      </trkpt>
      <trkpt lat="44.47103" lon="6.21279">
        <ele>800</ele>
        <time>2025-11-21T13:33:05.000Z</time>
      </trkpt>
      <trkpt lat="44.47101" lon="6.21279">
        <ele>800</ele>
        <time>2025-11-21T13:33:06.000Z</time>
      </trkpt>
      <trkpt lat="44.47099" lon="6.2128">
        <ele>799</ele>
        <time>2025-11-21T13:33:07.000Z</time>
      </trkpt>
      <trkpt lat="44.47097" lon="6.21281">
        <ele>799</ele>
        <time>2025-11-21T13:33:08.000Z</time>
      </trkpt>
      <trkpt lat="44.47095" lon="6.21281">
        <ele>798</ele>
        <time>2025-11-21T13:33:09.000Z</time>
      </trkpt>
      <trkpt lat="44.47093" lon="6.21282">
        <ele>798</ele>
        <time>2025-11-21T13:33:10.000Z</time>
      </trkpt>
      <trkpt lat="44.47092" lon="6.21283">
        <ele>798</ele>
        <time>2025-11-21T13:33:11.000Z</time>
      </trkpt>
      <trkpt lat="44.4709" lon="6.21284">
        <ele>797</ele>
        <time>2025-11-21T13:33:12.000Z</time>
      </trkpt>
      <trkpt lat="44.47089" lon="6.21285">
        <ele>797</ele>
        <time>2025-11-21T13:33:13.000Z</time>
      </trkpt>
      <trkpt lat="44.47088" lon="6.21285">
        <ele>796</ele>
        <time>2025-11-21T13:33:14.000Z</time>
      </trkpt>
      <trkpt lat="44.47087" lon="6.21287">
        <ele>797</ele>
        <time>2025-11-21T13:33:15.000Z</time>
      </trkpt>
      <trkpt lat="44.47086" lon="6.21288">
        <ele>797</ele>
        <time>2025-11-21T13:33:16.000Z</time>
      </trkpt>
      <trkpt lat="44.47085" lon="6.21289">
        <ele>797</ele>
        <time>2025-11-21T13:33:17.000Z</time>
      </trkpt>
      <trkpt lat="44.47084" lon="6.2129">
        <ele>798</ele>
        <time>2025-11-21T13:33:18.000Z</time>
      </trkpt>
      <trkpt lat="44.47082" lon="6.21292">
        <ele>798</ele>
        <time>2025-11-21T13:33:19.000Z</time>
      </trkpt>
      <trkpt lat="44.4708" lon="6.21293">
        <ele>798</ele>
        <time>2025-11-21T13:33:20.000Z</time>
      </trkpt>
      <trkpt lat="44.47078" lon="6.21294">
        <ele>798</ele>
        <time>2025-11-21T13:33:21.000Z</time>
      </trkpt>
      <trkpt lat="44.47077" lon="6.21296">
        <ele>800</ele>
        <time>2025-11-21T13:33:22.000Z</time>
      </trkpt>
      <trkpt lat="44.47078" lon="6.21296">
        <ele>800</ele>
        <time>2025-11-21T13:33:23.000Z</time>
      </trkpt>
      <trkpt lat="44.47077" lon="6.21295">
        <ele>800</ele>
        <time>2025-11-21T13:33:24.000Z</time>
      </trkpt>
      <trkpt lat="44.47077" lon="6.21294">
        <ele>800</ele>
        <time>2025-11-21T13:33:25.000Z</time>
      </trkpt>
      <trkpt lat="44.47076" lon="6.21296">
        <ele>800</ele>
        <time>2025-11-21T13:33:26.000Z</time>
      </trkpt>
      <trkpt lat="44.47075" lon="6.21296">
        <ele>799</ele>
        <time>2025-11-21T13:33:27.000Z</time>
      </trkpt>
      <trkpt lat="44.47075" lon="6.21297">
        <ele>798</ele>
        <time>2025-11-21T13:33:28.000Z</time>
      </trkpt>
      <trkpt lat="44.47074" lon="6.21296">
        <ele>798</ele>
        <time>2025-11-21T13:33:29.000Z</time>
      </trkpt>
      <trkpt lat="44.47073" lon="6.21296">
        <ele>798</ele>
        <time>2025-11-21T13:33:30.000Z</time>
      </trkpt>
      <trkpt lat="44.47071" lon="6.21296">
        <ele>798</ele>
        <time>2025-11-21T13:33:31.000Z</time>
      </trkpt>
      <trkpt lat="44.47069" lon="6.21295">
        <ele>798</ele>
        <time>2025-11-21T13:33:32.000Z</time>
      </trkpt>
      <trkpt lat="44.47068" lon="6.21294">
        <ele>797</ele>
        <time>2025-11-21T13:33:33.000Z</time>
      </trkpt>
      <trkpt lat="44.47067" lon="6.21295">
        <ele>796</ele>
        <time>2025-11-21T13:33:34.000Z</time>
      </trkpt>
      <trkpt lat="44.47067" lon="6.21296">
        <ele>795</ele>
        <time>2025-11-21T13:33:35.000Z</time>
      </trkpt>
      <trkpt lat="44.47065" lon="6.21296">
        <ele>796</ele>
        <time>2025-11-21T13:33:36.000Z</time>
      </trkpt>
      <trkpt lat="44.47063" lon="6.21297">
        <ele>796</ele>
        <time>2025-11-21T13:33:37.000Z</time>
      </trkpt>
      <trkpt lat="44.47062" lon="6.21297">
        <ele>796</ele>
        <time>2025-11-21T13:33:38.000Z</time>
      </trkpt>
      <trkpt lat="44.47061" lon="6.21298">
        <ele>795</ele>
        <time>2025-11-21T13:33:39.000Z</time>
      </trkpt>
      <trkpt lat="44.47059" lon="6.21299">
        <ele>796</ele>
        <time>2025-11-21T13:33:40.000Z</time>
      </trkpt>
      <trkpt lat="44.47058" lon="6.21298">
        <ele>796</ele>
        <time>2025-11-21T13:33:41.000Z</time>
      </trkpt>
      <trkpt lat="44.47057" lon="6.21298">
        <ele>796</ele>
        <time>2025-11-21T13:33:42.000Z</time>
      </trkpt>
      <trkpt lat="44.47056" lon="6.21298">
        <ele>797</ele>
        <time>2025-11-21T13:33:43.000Z</time>
      </trkpt>
      <trkpt lat="44.47055" lon="6.21298">
        <ele>797</ele>
        <time>2025-11-21T13:33:44.000Z</time>
      </trkpt>
      <trkpt lat="44.47055" lon="6.21299">
        <ele>797</ele>
        <time>2025-11-21T13:33:45.000Z</time>
      </trkpt>
      <trkpt lat="44.47055" lon="6.213">
        <ele>797</ele>
        <time>2025-11-21T13:33:46.000Z</time>
      </trkpt>
      <trkpt lat="44.47054" lon="6.21301">
        <ele>797</ele>
        <time>2025-11-21T13:35:13.000Z</time>
      </trkpt>
      <trkpt lat="44.47053" lon="6.21301">
        <ele>797</ele>
        <time>2025-11-21T13:35:14.000Z</time>
      </trkpt>
      <trkpt lat="44.47054" lon="6.21298">
        <ele>800</ele>
        <time>2025-11-21T13:35:15.000Z</time>
      </trkpt>
      <trkpt lat="44.47054" lon="6.21298">
        <ele>800</ele>
        <time>2025-11-21T13:35:16.000Z</time>
      </trkpt>
      <trkpt lat="44.47054" lon="6.21298">
        <ele>799</ele>
        <time>2025-11-21T13:35:17.000Z</time>
      </trkpt>
      <trkpt lat="44.47055" lon="6.21298">
        <ele>800</ele>
        <time>2025-11-21T13:35:18.000Z</time>
      </trkpt>
      <trkpt lat="44.47054" lon="6.21298">
        <ele>801</ele>
        <time>2025-11-21T13:35:19.000Z</time>
      </trkpt>
      <trkpt lat="44.47054" lon="6.21297">
        <ele>801</ele>
        <time>2025-11-21T13:35:20.000Z</time>
      </trkpt>
      <trkpt lat="44.47053" lon="6.21298">
        <ele>802</ele>
        <time>2025-11-21T13:35:21.000Z</time>
      </trkpt>
      <trkpt lat="44.47053" lon="6.21298">
        <ele>802</ele>
        <time>2025-11-21T13:35:22.000Z</time>
      </trkpt>
      <trkpt lat="44.47053" lon="6.21298">
        <ele>802</ele>
        <time>2025-11-21T13:35:23.000Z</time>
      </trkpt>
      <trkpt lat="44.47053" lon="6.21298">
        <ele>802</ele>
        <time>2025-11-21T13:35:24.000Z</time>
      </trkpt>
      <trkpt lat="44.47053" lon="6.21298">
        <ele>802</ele>
        <time>2025-11-21T13:35:25.000Z</time>
      </trkpt>
      <trkpt lat="44.47052" lon="6.21296">
        <ele>803</ele>
        <time>2025-11-21T13:35:26.000Z</time>
      </trkpt>
      <trkpt lat="44.47053" lon="6.21296">
        <ele>802</ele>
        <time>2025-11-21T13:35:27.000Z</time>
      </trkpt>
      <trkpt lat="44.47054" lon="6.21298">
        <ele>802</ele>
        <time>2025-11-21T13:35:28.000Z</time>
      </trkpt>
      <trkpt lat="44.47053" lon="6.21298">
        <ele>803</ele>
        <time>2025-11-21T13:35:29.000Z</time>
      </trkpt>
      <trkpt lat="44.47053" lon="6.21297">
        <ele>802</ele>
        <time>2025-11-21T13:35:30.000Z</time>
      </trkpt>
      <trkpt lat="44.47053" lon="6.21297">
        <ele>802</ele>
        <time>2025-11-21T13:35:31.000Z</time>
      </trkpt>
      <trkpt lat="44.47053" lon="6.21297">
        <ele>802</ele>
        <time>2025-11-21T13:35:32.000Z</time>
      </trkpt>
      <trkpt lat="44.47053" lon="6.21297">
        <ele>802</ele>
        <time>2025-11-21T13:35:33.000Z</time>
      </trkpt>
      <trkpt lat="44.47053" lon="6.21297">
        <ele>802</ele>
        <time>2025-11-21T13:35:34.000Z</time>
      </trkpt>
      <trkpt lat="44.47053" lon="6.21297">
        <ele>802</ele>
        <time>2025-11-21T13:35:35.000Z</time>
      </trkpt>
      <trkpt lat="44.47054" lon="6.21297">
        <ele>802</ele>
        <time>2025-11-21T13:35:36.000Z</time>
      </trkpt>
      <trkpt lat="44.47054" lon="6.21297">
        <ele>802</ele>
        <time>2025-11-21T13:35:37.000Z</time>
      </trkpt>
      <trkpt lat="44.47054" lon="6.21297">
        <ele>802</ele>
        <time>2025-11-21T13:35:38.000Z</time>
      </trkpt>
      <trkpt lat="44.47055" lon="6.21296">
        <ele>801</ele>
        <time>2025-11-21T13:35:39.000Z</time>
      </trkpt>
      <trkpt lat="44.47055" lon="6.21294">
        <ele>801</ele>
        <time>2025-11-21T13:35:40.000Z</time>
      </trkpt>
      <trkpt lat="44.47055" lon="6.21293">
        <ele>801</ele>
        <time>2025-11-21T13:35:41.000Z</time>
      </trkpt>
      <trkpt lat="44.47054" lon="6.21292">
        <ele>802</ele>
        <time>2025-11-21T13:35:42.000Z</time>
      </trkpt>
      <trkpt lat="44.47053" lon="6.21293">
        <ele>800</ele>
        <time>2025-11-21T13:35:43.000Z</time>
      </trkpt>
      <trkpt lat="44.47052" lon="6.21293">
        <ele>800</ele>
        <time>2025-11-21T13:35:44.000Z</time>
      </trkpt>
      <trkpt lat="44.4705" lon="6.21293">
        <ele>801</ele>
        <time>2025-11-21T13:35:45.000Z</time>
      </trkpt>
      <trkpt lat="44.47049" lon="6.21293">
        <ele>801</ele>
        <time>2025-11-21T13:35:46.000Z</time>
      </trkpt>
      <trkpt lat="44.47048" lon="6.21294">
        <ele>801</ele>
        <time>2025-11-21T13:35:47.000Z</time>
      </trkpt>
      <trkpt lat="44.47047" lon="6.21294">
        <ele>801</ele>
        <time>2025-11-21T13:35:48.000Z</time>
      </trkpt>
      <trkpt lat="44.47046" lon="6.21295">
        <ele>801</ele>
        <time>2025-11-21T13:35:49.000Z</time>
      </trkpt>
      <trkpt lat="44.47046" lon="6.21296">
        <ele>801</ele>
        <time>2025-11-21T13:35:50.000Z</time>
      </trkpt>
      <trkpt lat="44.47045" lon="6.21297">
        <ele>801</ele>
        <time>2025-11-21T13:35:51.000Z</time>
      </trkpt>
      <trkpt lat="44.47044" lon="6.21296">
        <ele>802</ele>
        <time>2025-11-21T13:35:52.000Z</time>
      </trkpt>
      <trkpt lat="44.47043" lon="6.21297">
        <ele>801</ele>
        <time>2025-11-21T13:35:53.000Z</time>
      </trkpt>
      <trkpt lat="44.47042" lon="6.21298">
        <ele>801</ele>
        <time>2025-11-21T13:35:54.000Z</time>
      </trkpt>
      <trkpt lat="44.47041" lon="6.21299">
        <ele>801</ele>
        <time>2025-11-21T13:35:55.000Z</time>
      </trkpt>
      <trkpt lat="44.47039" lon="6.21299">
        <ele>801</ele>
        <time>2025-11-21T13:35:56.000Z</time>
      </trkpt>
      <trkpt lat="44.47038" lon="6.213">
        <ele>801</ele>
        <time>2025-11-21T13:35:57.000Z</time>
      </trkpt>
      <trkpt lat="44.47037" lon="6.21299">
        <ele>802</ele>
        <time>2025-11-21T13:35:58.000Z</time>
      </trkpt>
      <trkpt lat="44.47036" lon="6.213">
        <ele>802</ele>
        <time>2025-11-21T13:35:59.000Z</time>
      </trkpt>
      <trkpt lat="44.47035" lon="6.21299">
        <ele>801</ele>
        <time>2025-11-21T13:36:00.000Z</time>
      </trkpt>
      <trkpt lat="44.47035" lon="6.213">
        <ele>801</ele>
        <time>2025-11-21T13:36:01.000Z</time>
      </trkpt>
      <trkpt lat="44.47034" lon="6.213">
        <ele>801</ele>
        <time>2025-11-21T13:36:02.000Z</time>
      </trkpt>
      <trkpt lat="44.47033" lon="6.213">
        <ele>801</ele>
        <time>2025-11-21T13:36:03.000Z</time>
      </trkpt>
      <trkpt lat="44.47032" lon="6.21297">
        <ele>799</ele>
        <time>2025-11-21T13:37:15.000Z</time>
      </trkpt>
      <trkpt lat="44.47031" lon="6.21298">
        <ele>799</ele>
        <time>2025-11-21T13:37:16.000Z</time>
      </trkpt>
      <trkpt lat="44.47031" lon="6.21299">
        <ele>799</ele>
        <time>2025-11-21T13:37:17.000Z</time>
      </trkpt>
      <trkpt lat="44.47029" lon="6.21303">
        <ele>796</ele>
        <time>2025-11-21T13:37:49.000Z</time>
      </trkpt>
      <trkpt lat="44.47028" lon="6.21303">
        <ele>796</ele>
        <time>2025-11-21T13:37:50.000Z</time>
      </trkpt>
      <trkpt lat="44.47028" lon="6.21303">
        <ele>796</ele>
        <time>2025-11-21T13:37:51.000Z</time>
      </trkpt>
      <trkpt lat="44.47028" lon="6.21302">
        <ele>798</ele>
        <time>2025-11-21T13:38:19.000Z</time>
      </trkpt>
      <trkpt lat="44.47029" lon="6.21302">
        <ele>798</ele>
        <time>2025-11-21T13:38:20.000Z</time>
      </trkpt>
      <trkpt lat="44.47028" lon="6.21301">
        <ele>799</ele>
        <time>2025-11-21T13:38:21.000Z</time>
      </trkpt>
      <trkpt lat="44.47029" lon="6.213">
        <ele>794</ele>
        <time>2025-11-21T13:39:58.000Z</time>
      </trkpt>
      <trkpt lat="44.47029" lon="6.213">
        <ele>794</ele>
        <time>2025-11-21T13:39:59.000Z</time>
      </trkpt>
      <trkpt lat="44.47029" lon="6.213">
        <ele>794</ele>
        <time>2025-11-21T13:40:00.000Z</time>
      </trkpt>
      <trkpt lat="44.4703" lon="6.21302">
        <ele>796</ele>
        <time>2025-11-21T13:41:50.000Z</time>
      </trkpt>
      <trkpt lat="44.47031" lon="6.21302">
        <ele>796</ele>
        <time>2025-11-21T13:41:51.000Z</time>
      </trkpt>
      <trkpt lat="44.4703" lon="6.21302">
        <ele>795</ele>
        <time>2025-11-21T13:41:52.000Z</time>
      </trkpt>
      <trkpt lat="44.4703" lon="6.21302">
        <ele>794</ele>
        <time>2025-11-21T13:41:53.000Z</time>
      </trkpt>
      <trkpt lat="44.4703" lon="6.21303">
        <ele>793</ele>
        <time>2025-11-21T13:41:54.000Z</time>
      </trkpt>
      <trkpt lat="44.47028" lon="6.21308">
        <ele>790</ele>
        <time>2025-11-21T13:44:44.000Z</time>
      </trkpt>
      <trkpt lat="44.47027" lon="6.21308">
        <ele>789</ele>
        <time>2025-11-21T13:44:45.000Z</time>
      </trkpt>
      <trkpt lat="44.47027" lon="6.21307">
        <ele>790</ele>
        <time>2025-11-21T13:44:46.000Z</time>
      </trkpt>
      <trkpt lat="44.47026" lon="6.21306">
        <ele>789</ele>
        <time>2025-11-21T13:44:47.000Z</time>
      </trkpt>
      <trkpt lat="44.47025" lon="6.21307">
        <ele>789</ele>
        <time>2025-11-21T13:44:48.000Z</time>
      </trkpt>
      <trkpt lat="44.47024" lon="6.21307">
        <ele>790</ele>
        <time>2025-11-21T13:44:49.000Z</time>
      </trkpt>
      <trkpt lat="44.47023" lon="6.21306">
        <ele>790</ele>
        <time>2025-11-21T13:44:50.000Z</time>
      </trkpt>
      <trkpt lat="44.47023" lon="6.21306">
        <ele>789</ele>
        <time>2025-11-21T13:44:51.000Z</time>
      </trkpt>
      <trkpt lat="44.47022" lon="6.21306">
        <ele>790</ele>
        <time>2025-11-21T13:44:52.000Z</time>
      </trkpt>
      <trkpt lat="44.47022" lon="6.21306">
        <ele>790</ele>
        <time>2025-11-21T13:44:53.000Z</time>
      </trkpt>
      <trkpt lat="44.47022" lon="6.21305">
        <ele>789</ele>
        <time>2025-11-21T13:44:54.000Z</time>
      </trkpt>
      <trkpt lat="44.47021" lon="6.21305">
        <ele>789</ele>
        <time>2025-11-21T13:44:55.000Z</time>
      </trkpt>
      <trkpt lat="44.4702" lon="6.21306">
        <ele>789</ele>
        <time>2025-11-21T13:44:56.000Z</time>
      </trkpt>
      <trkpt lat="44.47019" lon="6.21306">
        <ele>788</ele>
        <time>2025-11-21T13:44:57.000Z</time>
      </trkpt>
      <trkpt lat="44.47018" lon="6.21307">
        <ele>788</ele>
        <time>2025-11-21T13:44:58.000Z</time>
      </trkpt>
      <trkpt lat="44.47017" lon="6.21308">
        <ele>789</ele>
        <time>2025-11-21T13:44:59.000Z</time>
      </trkpt>
      <trkpt lat="44.47016" lon="6.21308">
        <ele>789</ele>
        <time>2025-11-21T13:45:00.000Z</time>
      </trkpt>
      <trkpt lat="44.47015" lon="6.21309">
        <ele>789</ele>
        <time>2025-11-21T13:45:01.000Z</time>
      </trkpt>
      <trkpt lat="44.47015" lon="6.2131">
        <ele>789</ele>
        <time>2025-11-21T13:45:02.000Z</time>
      </trkpt>
      <trkpt lat="44.47014" lon="6.21311">
        <ele>790</ele>
        <time>2025-11-21T13:45:03.000Z</time>
      </trkpt>
      <trkpt lat="44.47013" lon="6.21312">
        <ele>789</ele>
        <time>2025-11-21T13:45:04.000Z</time>
      </trkpt>
      <trkpt lat="44.47012" lon="6.21313">
        <ele>789</ele>
        <time>2025-11-21T13:45:05.000Z</time>
      </trkpt>
      <trkpt lat="44.47012" lon="6.21315">
        <ele>789</ele>
        <time>2025-11-21T13:45:06.000Z</time>
      </trkpt>
      <trkpt lat="44.47011" lon="6.21317">
        <ele>790</ele>
        <time>2025-11-21T13:45:07.000Z</time>
      </trkpt>
      <trkpt lat="44.4701" lon="6.21319">
        <ele>790</ele>
        <time>2025-11-21T13:45:08.000Z</time>
      </trkpt>
      <trkpt lat="44.47009" lon="6.2132">
        <ele>790</ele>
        <time>2025-11-21T13:45:09.000Z</time>
      </trkpt>
      <trkpt lat="44.47008" lon="6.21322">
        <ele>790</ele>
        <time>2025-11-21T13:45:10.000Z</time>
      </trkpt>
      <trkpt lat="44.47008" lon="6.21325">
        <ele>791</ele>
        <time>2025-11-21T13:45:11.000Z</time>
      </trkpt>
      <trkpt lat="44.47008" lon="6.21326">
        <ele>791</ele>
        <time>2025-11-21T13:45:12.000Z</time>
      </trkpt>
      <trkpt lat="44.47007" lon="6.21329">
        <ele>792</ele>
        <time>2025-11-21T13:45:13.000Z</time>
      </trkpt>
      <trkpt lat="44.47007" lon="6.2133">
        <ele>793</ele>
        <time>2025-11-21T13:45:14.000Z</time>
      </trkpt>
      <trkpt lat="44.47006" lon="6.21331">
        <ele>793</ele>
        <time>2025-11-21T13:45:15.000Z</time>
      </trkpt>
      <trkpt lat="44.47006" lon="6.21332">
        <ele>793</ele>
        <time>2025-11-21T13:45:16.000Z</time>
      </trkpt>
      <trkpt lat="44.47005" lon="6.21332">
        <ele>793</ele>
        <time>2025-11-21T13:45:17.000Z</time>
      </trkpt>
      <trkpt lat="44.47004" lon="6.21333">
        <ele>793</ele>
        <time>2025-11-21T13:45:18.000Z</time>
      </trkpt>
      <trkpt lat="44.47004" lon="6.21335">
        <ele>793</ele>
        <time>2025-11-21T13:45:19.000Z</time>
      </trkpt>
      <trkpt lat="44.47003" lon="6.21335">
        <ele>793</ele>
        <time>2025-11-21T13:45:20.000Z</time>
      </trkpt>
      <trkpt lat="44.47003" lon="6.21336">
        <ele>793</ele>
        <time>2025-11-21T13:45:21.000Z</time>
      </trkpt>
      <trkpt lat="44.47003" lon="6.21337">
        <ele>793</ele>
        <time>2025-11-21T13:45:22.000Z</time>
      </trkpt>
      <trkpt lat="44.47003" lon="6.21339">
        <ele>794</ele>
        <time>2025-11-21T13:45:23.000Z</time>
      </trkpt>
      <trkpt lat="44.47002" lon="6.21339">
        <ele>794</ele>
        <time>2025-11-21T13:45:24.000Z</time>
      </trkpt>
      <trkpt lat="44.47002" lon="6.21341">
        <ele>793</ele>
        <time>2025-11-21T13:45:25.000Z</time>
      </trkpt>
      <trkpt lat="44.47" lon="6.21342">
        <ele>793</ele>
        <time>2025-11-21T13:45:26.000Z</time>
      </trkpt>
      <trkpt lat="44.46998" lon="6.21344">
        <ele>794</ele>
        <time>2025-11-21T13:45:27.000Z</time>
      </trkpt>
      <trkpt lat="44.46998" lon="6.21346">
        <ele>794</ele>
        <time>2025-11-21T13:45:28.000Z</time>
      </trkpt>
      <trkpt lat="44.46997" lon="6.21347">
        <ele>794</ele>
        <time>2025-11-21T13:45:29.000Z</time>
      </trkpt>
      <trkpt lat="44.46996" lon="6.21349">
        <ele>793</ele>
        <time>2025-11-21T13:45:30.000Z</time>
      </trkpt>
      <trkpt lat="44.46996" lon="6.21352">
        <ele>793</ele>
        <time>2025-11-21T13:45:31.000Z</time>
      </trkpt>
      <trkpt lat="44.46995" lon="6.21352">
        <ele>794</ele>
        <time>2025-11-21T13:45:32.000Z</time>
      </trkpt>
      <trkpt lat="44.46996" lon="6.21352">
        <ele>794</ele>
        <time>2025-11-21T13:45:33.000Z</time>
      </trkpt>
      <trkpt lat="44.46995" lon="6.21352">
        <ele>794</ele>
        <time>2025-11-21T13:45:34.000Z</time>
      </trkpt>
      <trkpt lat="44.46995" lon="6.21353">
        <ele>793</ele>
        <time>2025-11-21T13:45:35.000Z</time>
      </trkpt>
      <trkpt lat="44.46995" lon="6.21354">
        <ele>793</ele>
        <time>2025-11-21T13:45:36.000Z</time>
      </trkpt>
      <trkpt lat="44.46995" lon="6.21356">
        <ele>792</ele>
        <time>2025-11-21T13:45:37.000Z</time>
      </trkpt>
      <trkpt lat="44.46995" lon="6.21357">
        <ele>792</ele>
        <time>2025-11-21T13:45:38.000Z</time>
      </trkpt>
      <trkpt lat="44.46993" lon="6.21358">
        <ele>792</ele>
        <time>2025-11-21T13:45:39.000Z</time>
      </trkpt>
      <trkpt lat="44.46993" lon="6.2136">
        <ele>792</ele>
        <time>2025-11-21T13:45:40.000Z</time>
      </trkpt>
      <trkpt lat="44.46992" lon="6.21362">
        <ele>792</ele>
        <time>2025-11-21T13:45:41.000Z</time>
      </trkpt>
      <trkpt lat="44.46992" lon="6.21364">
        <ele>792</ele>
        <time>2025-11-21T13:45:42.000Z</time>
      </trkpt>
      <trkpt lat="44.46991" lon="6.21366">
        <ele>793</ele>
        <time>2025-11-21T13:45:43.000Z</time>
      </trkpt>
      <trkpt lat="44.46991" lon="6.21368">
        <ele>793</ele>
        <time>2025-11-21T13:45:44.000Z</time>
      </trkpt>
      <trkpt lat="44.4699" lon="6.21369">
        <ele>794</ele>
        <time>2025-11-21T13:45:45.000Z</time>
      </trkpt>
      <trkpt lat="44.46989" lon="6.2137">
        <ele>795</ele>
        <time>2025-11-21T13:45:46.000Z</time>
      </trkpt>
      <trkpt lat="44.46988" lon="6.21372">
        <ele>794</ele>
        <time>2025-11-21T13:45:47.000Z</time>
      </trkpt>
      <trkpt lat="44.46988" lon="6.21373">
        <ele>795</ele>
        <time>2025-11-21T13:45:48.000Z</time>
      </trkpt>
      <trkpt lat="44.46987" lon="6.21375">
        <ele>795</ele>
        <time>2025-11-21T13:45:49.000Z</time>
      </trkpt>
      <trkpt lat="44.46987" lon="6.21376">
        <ele>795</ele>
        <time>2025-11-21T13:45:50.000Z</time>
      </trkpt>
      <trkpt lat="44.46986" lon="6.21377">
        <ele>795</ele>
        <time>2025-11-21T13:45:51.000Z</time>
      </trkpt>
      <trkpt lat="44.46985" lon="6.21379">
        <ele>795</ele>
        <time>2025-11-21T13:45:52.000Z</time>
      </trkpt>
      <trkpt lat="44.46984" lon="6.21381">
        <ele>796</ele>
        <time>2025-11-21T13:45:53.000Z</time>
      </trkpt>
      <trkpt lat="44.46983" lon="6.21381">
        <ele>796</ele>
        <time>2025-11-21T13:45:54.000Z</time>
      </trkpt>
      <trkpt lat="44.46983" lon="6.21382">
        <ele>796</ele>
        <time>2025-11-21T13:45:55.000Z</time>
      </trkpt>
      <trkpt lat="44.46982" lon="6.21381">
        <ele>796</ele>
        <time>2025-11-21T13:45:56.000Z</time>
      </trkpt>
      <trkpt lat="44.46981" lon="6.21382">
        <ele>797</ele>
        <time>2025-11-21T13:45:57.000Z</time>
      </trkpt>
      <trkpt lat="44.4698" lon="6.21383">
        <ele>797</ele>
        <time>2025-11-21T13:45:58.000Z</time>
      </trkpt>
      <trkpt lat="44.46979" lon="6.21384">
        <ele>797</ele>
        <time>2025-11-21T13:45:59.000Z</time>
      </trkpt>
      <trkpt lat="44.46978" lon="6.21385">
        <ele>797</ele>
        <time>2025-11-21T13:46:00.000Z</time>
      </trkpt>
      <trkpt lat="44.46976" lon="6.21386">
        <ele>798</ele>
        <time>2025-11-21T13:46:01.000Z</time>
      </trkpt>
      <trkpt lat="44.46976" lon="6.21388">
        <ele>798</ele>
        <time>2025-11-21T13:46:02.000Z</time>
      </trkpt>
      <trkpt lat="44.46976" lon="6.2139">
        <ele>799</ele>
        <time>2025-11-21T13:46:03.000Z</time>
      </trkpt>
      <trkpt lat="44.46975" lon="6.21393">
        <ele>799</ele>
        <time>2025-11-21T13:46:04.000Z</time>
      </trkpt>
      <trkpt lat="44.46973" lon="6.21394">
        <ele>800</ele>
        <time>2025-11-21T13:46:05.000Z</time>
      </trkpt>
      <trkpt lat="44.46972" lon="6.21395">
        <ele>799</ele>
        <time>2025-11-21T13:46:06.000Z</time>
      </trkpt>
      <trkpt lat="44.46971" lon="6.21396">
        <ele>799</ele>
        <time>2025-11-21T13:46:07.000Z</time>
      </trkpt>
      <trkpt lat="44.46969" lon="6.21396">
        <ele>799</ele>
        <time>2025-11-21T13:46:08.000Z</time>
      </trkpt>
      <trkpt lat="44.46968" lon="6.21396">
        <ele>799</ele>
        <time>2025-11-21T13:46:09.000Z</time>
      </trkpt>
      <trkpt lat="44.46966" lon="6.21397">
        <ele>799</ele>
        <time>2025-11-21T13:46:10.000Z</time>
      </trkpt>
      <trkpt lat="44.46965" lon="6.21397">
        <ele>799</ele>
        <time>2025-11-21T13:46:11.000Z</time>
      </trkpt>
      <trkpt lat="44.46963" lon="6.21398">
        <ele>799</ele>
        <time>2025-11-21T13:46:12.000Z</time>
      </trkpt>
      <trkpt lat="44.46962" lon="6.21399">
        <ele>799</ele>
        <time>2025-11-21T13:46:13.000Z</time>
      </trkpt>
      <trkpt lat="44.46961" lon="6.214">
        <ele>800</ele>
        <time>2025-11-21T13:46:14.000Z</time>
      </trkpt>
      <trkpt lat="44.46959" lon="6.21401">
        <ele>800</ele>
        <time>2025-11-21T13:46:15.000Z</time>
      </trkpt>
      <trkpt lat="44.46959" lon="6.21402">
        <ele>800</ele>
        <time>2025-11-21T13:46:16.000Z</time>
      </trkpt>
      <trkpt lat="44.46958" lon="6.21403">
        <ele>800</ele>
        <time>2025-11-21T13:46:17.000Z</time>
      </trkpt>
      <trkpt lat="44.46957" lon="6.21403">
        <ele>800</ele>
        <time>2025-11-21T13:46:18.000Z</time>
      </trkpt>
      <trkpt lat="44.46957" lon="6.21404">
        <ele>800</ele>
        <time>2025-11-21T13:46:19.000Z</time>
      </trkpt>
      <trkpt lat="44.46956" lon="6.21404">
        <ele>800</ele>
        <time>2025-11-21T13:46:20.000Z</time>
      </trkpt>
      <trkpt lat="44.46956" lon="6.21405">
        <ele>800</ele>
        <time>2025-11-21T13:46:21.000Z</time>
      </trkpt>
      <trkpt lat="44.46955" lon="6.21407">
        <ele>800</ele>
        <time>2025-11-21T13:46:22.000Z</time>
      </trkpt>
      <trkpt lat="44.46954" lon="6.21408">
        <ele>800</ele>
        <time>2025-11-21T13:46:23.000Z</time>
      </trkpt>
      <trkpt lat="44.46954" lon="6.2141">
        <ele>799</ele>
        <time>2025-11-21T13:46:24.000Z</time>
      </trkpt>
      <trkpt lat="44.46953" lon="6.21411">
        <ele>799</ele>
        <time>2025-11-21T13:46:25.000Z</time>
      </trkpt>
      <trkpt lat="44.46951" lon="6.21412">
        <ele>799</ele>
        <time>2025-11-21T13:46:26.000Z</time>
      </trkpt>
      <trkpt lat="44.46951" lon="6.21412">
        <ele>799</ele>
        <time>2025-11-21T13:46:27.000Z</time>
      </trkpt>
      <trkpt lat="44.4695" lon="6.21413">
        <ele>799</ele>
        <time>2025-11-21T13:46:28.000Z</time>
      </trkpt>
      <trkpt lat="44.4695" lon="6.21414">
        <ele>799</ele>
        <time>2025-11-21T13:46:29.000Z</time>
      </trkpt>
      <trkpt lat="44.46949" lon="6.21414">
        <ele>799</ele>
        <time>2025-11-21T13:46:30.000Z</time>
      </trkpt>
      <trkpt lat="44.46949" lon="6.21416">
        <ele>800</ele>
        <time>2025-11-21T13:46:31.000Z</time>
      </trkpt>
      <trkpt lat="44.46947" lon="6.21417">
        <ele>800</ele>
        <time>2025-11-21T13:46:32.000Z</time>
      </trkpt>
      <trkpt lat="44.46946" lon="6.21419">
        <ele>800</ele>
        <time>2025-11-21T13:46:33.000Z</time>
      </trkpt>
      <trkpt lat="44.46945" lon="6.21421">
        <ele>801</ele>
        <time>2025-11-21T13:46:34.000Z</time>
      </trkpt>
      <trkpt lat="44.46944" lon="6.21422">
        <ele>801</ele>
        <time>2025-11-21T13:46:35.000Z</time>
      </trkpt>
      <trkpt lat="44.46943" lon="6.21424">
        <ele>802</ele>
        <time>2025-11-21T13:46:36.000Z</time>
      </trkpt>
      <trkpt lat="44.46942" lon="6.21425">
        <ele>803</ele>
        <time>2025-11-21T13:46:37.000Z</time>
      </trkpt>
      <trkpt lat="44.46941" lon="6.21428">
        <ele>803</ele>
        <time>2025-11-21T13:46:38.000Z</time>
      </trkpt>
      <trkpt lat="44.46941" lon="6.21431">
        <ele>803</ele>
        <time>2025-11-21T13:46:39.000Z</time>
      </trkpt>
      <trkpt lat="44.46941" lon="6.21432">
        <ele>803</ele>
        <time>2025-11-21T13:46:40.000Z</time>
      </trkpt>
      <trkpt lat="44.4694" lon="6.21434">
        <ele>803</ele>
        <time>2025-11-21T13:46:41.000Z</time>
      </trkpt>
      <trkpt lat="44.46939" lon="6.21435">
        <ele>803</ele>
        <time>2025-11-21T13:46:42.000Z</time>
      </trkpt>
      <trkpt lat="44.46939" lon="6.21436">
        <ele>803</ele>
        <time>2025-11-21T13:46:43.000Z</time>
      </trkpt>
      <trkpt lat="44.46939" lon="6.21437">
        <ele>803</ele>
        <time>2025-11-21T13:46:44.000Z</time>
      </trkpt>
      <trkpt lat="44.46939" lon="6.21439">
        <ele>802</ele>
        <time>2025-11-21T13:46:45.000Z</time>
      </trkpt>
      <trkpt lat="44.4694" lon="6.2144">
        <ele>803</ele>
        <time>2025-11-21T13:46:46.000Z</time>
      </trkpt>
      <trkpt lat="44.4694" lon="6.21441">
        <ele>804</ele>
        <time>2025-11-21T13:46:47.000Z</time>
      </trkpt>
      <trkpt lat="44.4694" lon="6.21442">
        <ele>804</ele>
        <time>2025-11-21T13:46:48.000Z</time>
      </trkpt>
      <trkpt lat="44.4694" lon="6.21442">
        <ele>804</ele>
        <time>2025-11-21T13:46:49.000Z</time>
      </trkpt>
      <trkpt lat="44.4694" lon="6.21444">
        <ele>804</ele>
        <time>2025-11-21T13:46:50.000Z</time>
      </trkpt>
      <trkpt lat="44.46939" lon="6.21445">
        <ele>805</ele>
        <time>2025-11-21T13:46:51.000Z</time>
      </trkpt>
      <trkpt lat="44.46939" lon="6.21447">
        <ele>804</ele>
        <time>2025-11-21T13:46:52.000Z</time>
      </trkpt>
      <trkpt lat="44.46938" lon="6.21448">
        <ele>805</ele>
        <time>2025-11-21T13:46:53.000Z</time>
      </trkpt>
      <trkpt lat="44.46938" lon="6.2145">
        <ele>806</ele>
        <time>2025-11-21T13:46:54.000Z</time>
      </trkpt>
      <trkpt lat="44.46937" lon="6.21452">
        <ele>807</ele>
        <time>2025-11-21T13:46:55.000Z</time>
      </trkpt>
      <trkpt lat="44.46937" lon="6.21454">
        <ele>807</ele>
        <time>2025-11-21T13:46:56.000Z</time>
      </trkpt>
      <trkpt lat="44.46937" lon="6.21456">
        <ele>807</ele>
        <time>2025-11-21T13:46:57.000Z</time>
      </trkpt>
      <trkpt lat="44.46937" lon="6.21457">
        <ele>808</ele>
        <time>2025-11-21T13:46:58.000Z</time>
      </trkpt>
      <trkpt lat="44.46937" lon="6.21459">
        <ele>808</ele>
        <time>2025-11-21T13:46:59.000Z</time>
      </trkpt>
      <trkpt lat="44.46936" lon="6.21461">
        <ele>809</ele>
        <time>2025-11-21T13:47:00.000Z</time>
      </trkpt>
      <trkpt lat="44.46935" lon="6.21463">
        <ele>809</ele>
        <time>2025-11-21T13:47:01.000Z</time>
      </trkpt>
      <trkpt lat="44.46935" lon="6.21465">
        <ele>810</ele>
        <time>2025-11-21T13:47:02.000Z</time>
      </trkpt>
      <trkpt lat="44.46935" lon="6.21467">
        <ele>810</ele>
        <time>2025-11-21T13:47:03.000Z</time>
      </trkpt>
      <trkpt lat="44.46934" lon="6.21469">
        <ele>810</ele>
        <time>2025-11-21T13:47:04.000Z</time>
      </trkpt>
      <trkpt lat="44.46933" lon="6.21471">
        <ele>810</ele>
        <time>2025-11-21T13:47:05.000Z</time>
      </trkpt>
      <trkpt lat="44.46932" lon="6.21472">
        <ele>810</ele>
        <time>2025-11-21T13:47:06.000Z</time>
      </trkpt>
      <trkpt lat="44.46931" lon="6.21473">
        <ele>810</ele>
        <time>2025-11-21T13:47:07.000Z</time>
      </trkpt>
      <trkpt lat="44.46931" lon="6.21474">
        <ele>810</ele>
        <time>2025-11-21T13:47:08.000Z</time>
      </trkpt>
      <trkpt lat="44.4693" lon="6.21475">
        <ele>810</ele>
        <time>2025-11-21T13:47:09.000Z</time>
      </trkpt>
      <trkpt lat="44.4693" lon="6.21477">
        <ele>810</ele>
        <time>2025-11-21T13:47:10.000Z</time>
      </trkpt>
      <trkpt lat="44.46929" lon="6.21478">
        <ele>811</ele>
        <time>2025-11-21T13:47:11.000Z</time>
      </trkpt>
      <trkpt lat="44.46928" lon="6.21479">
        <ele>811</ele>
        <time>2025-11-21T13:47:12.000Z</time>
      </trkpt>
      <trkpt lat="44.46927" lon="6.21481">
        <ele>811</ele>
        <time>2025-11-21T13:47:13.000Z</time>
      </trkpt>
      <trkpt lat="44.46927" lon="6.21482">
        <ele>811</ele>
        <time>2025-11-21T13:47:14.000Z</time>
      </trkpt>
      <trkpt lat="44.46926" lon="6.21483">
        <ele>810</ele>
        <time>2025-11-21T13:47:15.000Z</time>
      </trkpt>
      <trkpt lat="44.46925" lon="6.21485">
        <ele>810</ele>
        <time>2025-11-21T13:47:16.000Z</time>
      </trkpt>
      <trkpt lat="44.46926" lon="6.21487">
        <ele>810</ele>
        <time>2025-11-21T13:47:17.000Z</time>
      </trkpt>
      <trkpt lat="44.46925" lon="6.21488">
        <ele>811</ele>
        <time>2025-11-21T13:47:18.000Z</time>
      </trkpt>
      <trkpt lat="44.46925" lon="6.21489">
        <ele>811</ele>
        <time>2025-11-21T13:47:19.000Z</time>
      </trkpt>
      <trkpt lat="44.46924" lon="6.2149">
        <ele>811</ele>
        <time>2025-11-21T13:47:20.000Z</time>
      </trkpt>
      <trkpt lat="44.46924" lon="6.21492">
        <ele>812</ele>
        <time>2025-11-21T13:47:21.000Z</time>
      </trkpt>
      <trkpt lat="44.46924" lon="6.21494">
        <ele>812</ele>
        <time>2025-11-21T13:47:22.000Z</time>
      </trkpt>
      <trkpt lat="44.46924" lon="6.21495">
        <ele>811</ele>
        <time>2025-11-21T13:47:23.000Z</time>
      </trkpt>
      <trkpt lat="44.46924" lon="6.21496">
        <ele>811</ele>
        <time>2025-11-21T13:47:24.000Z</time>
      </trkpt>
      <trkpt lat="44.46923" lon="6.21498">
        <ele>811</ele>
        <time>2025-11-21T13:47:25.000Z</time>
      </trkpt>
      <trkpt lat="44.46922" lon="6.215">
        <ele>811</ele>
        <time>2025-11-21T13:47:26.000Z</time>
      </trkpt>
      <trkpt lat="44.46922" lon="6.21502">
        <ele>811</ele>
        <time>2025-11-21T13:47:27.000Z</time>
      </trkpt>
      <trkpt lat="44.46921" lon="6.21504">
        <ele>811</ele>
        <time>2025-11-21T13:47:28.000Z</time>
      </trkpt>
      <trkpt lat="44.46921" lon="6.21506">
        <ele>811</ele>
        <time>2025-11-21T13:47:29.000Z</time>
      </trkpt>
      <trkpt lat="44.4692" lon="6.21508">
        <ele>811</ele>
        <time>2025-11-21T13:47:30.000Z</time>
      </trkpt>
      <trkpt lat="44.46919" lon="6.21509">
        <ele>812</ele>
        <time>2025-11-21T13:47:31.000Z</time>
      </trkpt>
      <trkpt lat="44.46919" lon="6.2151">
        <ele>811</ele>
        <time>2025-11-21T13:47:32.000Z</time>
      </trkpt>
      <trkpt lat="44.46919" lon="6.21512">
        <ele>811</ele>
        <time>2025-11-21T13:47:33.000Z</time>
      </trkpt>
      <trkpt lat="44.46919" lon="6.21513">
        <ele>810</ele>
        <time>2025-11-21T13:47:34.000Z</time>
      </trkpt>
      <trkpt lat="44.46919" lon="6.21515">
        <ele>811</ele>
        <time>2025-11-21T13:47:35.000Z</time>
      </trkpt>
      <trkpt lat="44.46919" lon="6.21517">
        <ele>811</ele>
        <time>2025-11-21T13:47:36.000Z</time>
      </trkpt>
      <trkpt lat="44.46919" lon="6.21518">
        <ele>812</ele>
        <time>2025-11-21T13:47:37.000Z</time>
      </trkpt>
      <trkpt lat="44.46919" lon="6.2152">
        <ele>812</ele>
        <time>2025-11-21T13:47:38.000Z</time>
      </trkpt>
      <trkpt lat="44.46919" lon="6.21522">
        <ele>812</ele>
        <time>2025-11-21T13:47:39.000Z</time>
      </trkpt>
      <trkpt lat="44.46919" lon="6.21524">
        <ele>812</ele>
        <time>2025-11-21T13:47:40.000Z</time>
      </trkpt>
      <trkpt lat="44.4692" lon="6.21526">
        <ele>811</ele>
        <time>2025-11-21T13:47:41.000Z</time>
      </trkpt>
      <trkpt lat="44.4692" lon="6.21527">
        <ele>811</ele>
        <time>2025-11-21T13:47:42.000Z</time>
      </trkpt>
      <trkpt lat="44.46919" lon="6.2153">
        <ele>812</ele>
        <time>2025-11-21T13:47:43.000Z</time>
      </trkpt>
      <trkpt lat="44.46919" lon="6.21532">
        <ele>812</ele>
        <time>2025-11-21T13:47:44.000Z</time>
      </trkpt>
      <trkpt lat="44.46919" lon="6.21534">
        <ele>812</ele>
        <time>2025-11-21T13:47:45.000Z</time>
      </trkpt>
      <trkpt lat="44.4692" lon="6.21536">
        <ele>813</ele>
        <time>2025-11-21T13:47:46.000Z</time>
      </trkpt>
      <trkpt lat="44.4692" lon="6.21537">
        <ele>814</ele>
        <time>2025-11-21T13:47:47.000Z</time>
      </trkpt>
      <trkpt lat="44.46921" lon="6.21539">
        <ele>814</ele>
        <time>2025-11-21T13:47:48.000Z</time>
      </trkpt>
      <trkpt lat="44.46921" lon="6.21541">
        <ele>814</ele>
        <time>2025-11-21T13:47:49.000Z</time>
      </trkpt>
      <trkpt lat="44.46922" lon="6.21542">
        <ele>814</ele>
        <time>2025-11-21T13:47:50.000Z</time>
      </trkpt>
      <trkpt lat="44.46922" lon="6.21544">
        <ele>814</ele>
        <time>2025-11-21T13:47:51.000Z</time>
      </trkpt>
      <trkpt lat="44.46922" lon="6.21546">
        <ele>815</ele>
        <time>2025-11-21T13:47:52.000Z</time>
      </trkpt>
      <trkpt lat="44.46922" lon="6.21547">
        <ele>816</ele>
        <time>2025-11-21T13:47:53.000Z</time>
      </trkpt>
      <trkpt lat="44.46922" lon="6.21549">
        <ele>816</ele>
        <time>2025-11-21T13:47:54.000Z</time>
      </trkpt>
      <trkpt lat="44.46922" lon="6.21551">
        <ele>816</ele>
        <time>2025-11-21T13:47:55.000Z</time>
      </trkpt>
      <trkpt lat="44.46922" lon="6.21553">
        <ele>816</ele>
        <time>2025-11-21T13:47:56.000Z</time>
      </trkpt>
      <trkpt lat="44.46922" lon="6.21554">
        <ele>816</ele>
        <time>2025-11-21T13:47:57.000Z</time>
      </trkpt>
      <trkpt lat="44.46922" lon="6.21555">
        <ele>816</ele>
        <time>2025-11-21T13:47:58.000Z</time>
      </trkpt>
      <trkpt lat="44.46922" lon="6.21558">
        <ele>816</ele>
        <time>2025-11-21T13:47:59.000Z</time>
      </trkpt>
      <trkpt lat="44.46922" lon="6.2156">
        <ele>816</ele>
        <time>2025-11-21T13:48:00.000Z</time>
      </trkpt>
      <trkpt lat="44.46922" lon="6.21562">
        <ele>817</ele>
        <time>2025-11-21T13:48:01.000Z</time>
      </trkpt>
      <trkpt lat="44.46922" lon="6.21564">
        <ele>817</ele>
        <time>2025-11-21T13:48:02.000Z</time>
      </trkpt>
      <trkpt lat="44.46922" lon="6.21566">
        <ele>817</ele>
        <time>2025-11-21T13:48:03.000Z</time>
      </trkpt>
      <trkpt lat="44.46922" lon="6.21568">
        <ele>817</ele>
        <time>2025-11-21T13:48:04.000Z</time>
      </trkpt>
      <trkpt lat="44.46921" lon="6.2157">
        <ele>817</ele>
        <time>2025-11-21T13:48:05.000Z</time>
      </trkpt>
      <trkpt lat="44.4692" lon="6.21572">
        <ele>816</ele>
        <time>2025-11-21T13:48:06.000Z</time>
      </trkpt>
      <trkpt lat="44.4692" lon="6.21575">
        <ele>816</ele>
        <time>2025-11-21T13:48:07.000Z</time>
      </trkpt>
      <trkpt lat="44.46919" lon="6.21577">
        <ele>816</ele>
        <time>2025-11-21T13:48:08.000Z</time>
      </trkpt>
      <trkpt lat="44.46919" lon="6.21579">
        <ele>817</ele>
        <time>2025-11-21T13:48:09.000Z</time>
      </trkpt>
      <trkpt lat="44.46919" lon="6.21581">
        <ele>817</ele>
        <time>2025-11-21T13:48:10.000Z</time>
      </trkpt>
      <trkpt lat="44.46919" lon="6.21583">
        <ele>817</ele>
        <time>2025-11-21T13:48:11.000Z</time>
      </trkpt>
      <trkpt lat="44.46918" lon="6.21585">
        <ele>818</ele>
        <time>2025-11-21T13:48:12.000Z</time>
      </trkpt>
      <trkpt lat="44.46918" lon="6.21586">
        <ele>818</ele>
        <time>2025-11-21T13:48:13.000Z</time>
      </trkpt>
      <trkpt lat="44.46918" lon="6.21589">
        <ele>819</ele>
        <time>2025-11-21T13:48:14.000Z</time>
      </trkpt>
      <trkpt lat="44.46918" lon="6.21591">
        <ele>818</ele>
        <time>2025-11-21T13:48:15.000Z</time>
      </trkpt>
      <trkpt lat="44.46917" lon="6.21593">
        <ele>818</ele>
        <time>2025-11-21T13:48:16.000Z</time>
      </trkpt>
      <trkpt lat="44.46917" lon="6.21594">
        <ele>819</ele>
        <time>2025-11-21T13:48:17.000Z</time>
      </trkpt>
      <trkpt lat="44.46917" lon="6.21596">
        <ele>819</ele>
        <time>2025-11-21T13:48:18.000Z</time>
      </trkpt>
      <trkpt lat="44.46916" lon="6.21597">
        <ele>819</ele>
        <time>2025-11-21T13:48:19.000Z</time>
      </trkpt>
      <trkpt lat="44.46916" lon="6.21598">
        <ele>819</ele>
        <time>2025-11-21T13:48:20.000Z</time>
      </trkpt>
      <trkpt lat="44.46915" lon="6.21599">
        <ele>819</ele>
        <time>2025-11-21T13:48:21.000Z</time>
      </trkpt>
      <trkpt lat="44.46915" lon="6.21601">
        <ele>819</ele>
        <time>2025-11-21T13:48:22.000Z</time>
      </trkpt>
      <trkpt lat="44.46915" lon="6.21602">
        <ele>820</ele>
        <time>2025-11-21T13:48:23.000Z</time>
      </trkpt>
      <trkpt lat="44.46915" lon="6.21604">
        <ele>820</ele>
        <time>2025-11-21T13:48:24.000Z</time>
      </trkpt>
      <trkpt lat="44.46914" lon="6.21606">
        <ele>821</ele>
        <time>2025-11-21T13:48:25.000Z</time>
      </trkpt>
      <trkpt lat="44.46914" lon="6.21609">
        <ele>822</ele>
        <time>2025-11-21T13:48:26.000Z</time>
      </trkpt>
      <trkpt lat="44.46914" lon="6.2161">
        <ele>822</ele>
        <time>2025-11-21T13:48:27.000Z</time>
      </trkpt>
      <trkpt lat="44.46913" lon="6.21612">
        <ele>822</ele>
        <time>2025-11-21T13:48:28.000Z</time>
      </trkpt>
      <trkpt lat="44.46913" lon="6.21614">
        <ele>822</ele>
        <time>2025-11-21T13:48:29.000Z</time>
      </trkpt>
      <trkpt lat="44.46913" lon="6.21615">
        <ele>822</ele>
        <time>2025-11-21T13:48:30.000Z</time>
      </trkpt>
      <trkpt lat="44.46913" lon="6.21616">
        <ele>822</ele>
        <time>2025-11-21T13:48:31.000Z</time>
      </trkpt>
      <trkpt lat="44.46913" lon="6.21618">
        <ele>823</ele>
        <time>2025-11-21T13:48:32.000Z</time>
      </trkpt>
      <trkpt lat="44.46913" lon="6.2162">
        <ele>822</ele>
        <time>2025-11-21T13:48:33.000Z</time>
      </trkpt>
      <trkpt lat="44.46913" lon="6.21622">
        <ele>822</ele>
        <time>2025-11-21T13:48:34.000Z</time>
      </trkpt>
      <trkpt lat="44.46914" lon="6.21624">
        <ele>823</ele>
        <time>2025-11-21T13:48:35.000Z</time>
      </trkpt>
      <trkpt lat="44.46914" lon="6.21625">
        <ele>823</ele>
        <time>2025-11-21T13:48:36.000Z</time>
      </trkpt>
      <trkpt lat="44.46914" lon="6.21627">
        <ele>823</ele>
        <time>2025-11-21T13:48:37.000Z</time>
      </trkpt>
      <trkpt lat="44.46915" lon="6.21628">
        <ele>823</ele>
        <time>2025-11-21T13:48:38.000Z</time>
      </trkpt>
      <trkpt lat="44.46916" lon="6.21629">
        <ele>823</ele>
        <time>2025-11-21T13:48:39.000Z</time>
      </trkpt>
      <trkpt lat="44.46916" lon="6.21631">
        <ele>823</ele>
        <time>2025-11-21T13:48:40.000Z</time>
      </trkpt>
      <trkpt lat="44.46917" lon="6.21633">
        <ele>823</ele>
        <time>2025-11-21T13:48:41.000Z</time>
      </trkpt>
      <trkpt lat="44.46917" lon="6.21635">
        <ele>823</ele>
        <time>2025-11-21T13:48:42.000Z</time>
      </trkpt>
      <trkpt lat="44.46918" lon="6.21637">
        <ele>823</ele>
        <time>2025-11-21T13:48:43.000Z</time>
      </trkpt>
      <trkpt lat="44.46919" lon="6.21638">
        <ele>823</ele>
        <time>2025-11-21T13:48:44.000Z</time>
      </trkpt>
      <trkpt lat="44.4692" lon="6.21639">
        <ele>824</ele>
        <time>2025-11-21T13:48:45.000Z</time>
      </trkpt>
      <trkpt lat="44.4692" lon="6.21641">
        <ele>824</ele>
        <time>2025-11-21T13:48:46.000Z</time>
      </trkpt>
      <trkpt lat="44.4692" lon="6.21643">
        <ele>825</ele>
        <time>2025-11-21T13:48:47.000Z</time>
      </trkpt>
      <trkpt lat="44.46921" lon="6.21645">
        <ele>824</ele>
        <time>2025-11-21T13:48:48.000Z</time>
      </trkpt>
      <trkpt lat="44.46922" lon="6.21647">
        <ele>824</ele>
        <time>2025-11-21T13:48:49.000Z</time>
      </trkpt>
      <trkpt lat="44.46922" lon="6.21648">
        <ele>824</ele>
        <time>2025-11-21T13:48:50.000Z</time>
      </trkpt>
      <trkpt lat="44.46923" lon="6.2165">
        <ele>825</ele>
        <time>2025-11-21T13:48:51.000Z</time>
      </trkpt>
      <trkpt lat="44.46924" lon="6.21651">
        <ele>824</ele>
        <time>2025-11-21T13:48:52.000Z</time>
      </trkpt>
      <trkpt lat="44.46924" lon="6.21653">
        <ele>825</ele>
        <time>2025-11-21T13:48:53.000Z</time>
      </trkpt>
      <trkpt lat="44.46925" lon="6.21655">
        <ele>826</ele>
        <time>2025-11-21T13:48:54.000Z</time>
      </trkpt>
      <trkpt lat="44.46925" lon="6.21657">
        <ele>826</ele>
        <time>2025-11-21T13:48:55.000Z</time>
      </trkpt>
      <trkpt lat="44.46925" lon="6.21658">
        <ele>826</ele>
        <time>2025-11-21T13:48:56.000Z</time>
      </trkpt>
      <trkpt lat="44.46926" lon="6.2166">
        <ele>826</ele>
        <time>2025-11-21T13:48:57.000Z</time>
      </trkpt>
      <trkpt lat="44.46926" lon="6.21662">
        <ele>826</ele>
        <time>2025-11-21T13:48:58.000Z</time>
      </trkpt>
      <trkpt lat="44.46927" lon="6.21664">
        <ele>826</ele>
        <time>2025-11-21T13:48:59.000Z</time>
      </trkpt>
      <trkpt lat="44.46927" lon="6.21667">
        <ele>826</ele>
        <time>2025-11-21T13:49:00.000Z</time>
      </trkpt>
      <trkpt lat="44.46927" lon="6.21669">
        <ele>826</ele>
        <time>2025-11-21T13:49:01.000Z</time>
      </trkpt>
      <trkpt lat="44.46928" lon="6.21671">
        <ele>826</ele>
        <time>2025-11-21T13:49:02.000Z</time>
      </trkpt>
      <trkpt lat="44.46929" lon="6.21672">
        <ele>826</ele>
        <time>2025-11-21T13:49:03.000Z</time>
      </trkpt>
      <trkpt lat="44.46929" lon="6.21674">
        <ele>826</ele>
        <time>2025-11-21T13:49:04.000Z</time>
      </trkpt>
      <trkpt lat="44.4693" lon="6.21675">
        <ele>826</ele>
        <time>2025-11-21T13:49:05.000Z</time>
      </trkpt>
      <trkpt lat="44.4693" lon="6.21678">
        <ele>826</ele>
        <time>2025-11-21T13:49:06.000Z</time>
      </trkpt>
      <trkpt lat="44.4693" lon="6.21679">
        <ele>826</ele>
        <time>2025-11-21T13:49:07.000Z</time>
      </trkpt>
      <trkpt lat="44.4693" lon="6.21681">
        <ele>826</ele>
        <time>2025-11-21T13:49:08.000Z</time>
      </trkpt>
      <trkpt lat="44.4693" lon="6.21683">
        <ele>826</ele>
        <time>2025-11-21T13:49:09.000Z</time>
      </trkpt>
      <trkpt lat="44.4693" lon="6.21684">
        <ele>826</ele>
        <time>2025-11-21T13:49:10.000Z</time>
      </trkpt>
      <trkpt lat="44.4693" lon="6.21686">
        <ele>826</ele>
        <time>2025-11-21T13:49:11.000Z</time>
      </trkpt>
      <trkpt lat="44.4693" lon="6.21687">
        <ele>826</ele>
        <time>2025-11-21T13:49:12.000Z</time>
      </trkpt>
      <trkpt lat="44.4693" lon="6.21688">
        <ele>826</ele>
        <time>2025-11-21T13:49:13.000Z</time>
      </trkpt>
      <trkpt lat="44.4693" lon="6.2169">
        <ele>826</ele>
        <time>2025-11-21T13:49:14.000Z</time>
      </trkpt>
      <trkpt lat="44.4693" lon="6.21691">
        <ele>826</ele>
        <time>2025-11-21T13:49:15.000Z</time>
      </trkpt>
      <trkpt lat="44.46929" lon="6.21693">
        <ele>825</ele>
        <time>2025-11-21T13:49:16.000Z</time>
      </trkpt>
      <trkpt lat="44.46929" lon="6.21696">
        <ele>826</ele>
        <time>2025-11-21T13:49:17.000Z</time>
      </trkpt>
      <trkpt lat="44.46929" lon="6.21698">
        <ele>826</ele>
        <time>2025-11-21T13:49:18.000Z</time>
      </trkpt>
      <trkpt lat="44.46928" lon="6.217">
        <ele>826</ele>
        <time>2025-11-21T13:49:19.000Z</time>
      </trkpt>
      <trkpt lat="44.46928" lon="6.21701">
        <ele>827</ele>
        <time>2025-11-21T13:49:20.000Z</time>
      </trkpt>
      <trkpt lat="44.46928" lon="6.21702">
        <ele>826</ele>
        <time>2025-11-21T13:49:21.000Z</time>
      </trkpt>
      <trkpt lat="44.46928" lon="6.21703">
        <ele>827</ele>
        <time>2025-11-21T13:49:22.000Z</time>
      </trkpt>
      <trkpt lat="44.46927" lon="6.21705">
        <ele>827</ele>
        <time>2025-11-21T13:49:23.000Z</time>
      </trkpt>
      <trkpt lat="44.46927" lon="6.21708">
        <ele>828</ele>
        <time>2025-11-21T13:49:24.000Z</time>
      </trkpt>
      <trkpt lat="44.46927" lon="6.21709">
        <ele>827</ele>
        <time>2025-11-21T13:49:25.000Z</time>
      </trkpt>
      <trkpt lat="44.46927" lon="6.21712">
        <ele>827</ele>
        <time>2025-11-21T13:49:26.000Z</time>
      </trkpt>
      <trkpt lat="44.46926" lon="6.21714">
        <ele>827</ele>
        <time>2025-11-21T13:49:27.000Z</time>
      </trkpt>
      <trkpt lat="44.46925" lon="6.21717">
        <ele>828</ele>
        <time>2025-11-21T13:49:28.000Z</time>
      </trkpt>
      <trkpt lat="44.46925" lon="6.21719">
        <ele>828</ele>
        <time>2025-11-21T13:49:29.000Z</time>
      </trkpt>
      <trkpt lat="44.46925" lon="6.21721">
        <ele>828</ele>
        <time>2025-11-21T13:49:30.000Z</time>
      </trkpt>
      <trkpt lat="44.46925" lon="6.21723">
        <ele>829</ele>
        <time>2025-11-21T13:49:31.000Z</time>
      </trkpt>
      <trkpt lat="44.46925" lon="6.21725">
        <ele>829</ele>
        <time>2025-11-21T13:49:32.000Z</time>
      </trkpt>
      <trkpt lat="44.46925" lon="6.21726">
        <ele>829</ele>
        <time>2025-11-21T13:49:33.000Z</time>
      </trkpt>
      <trkpt lat="44.46925" lon="6.21727">
        <ele>829</ele>
        <time>2025-11-21T13:49:34.000Z</time>
      </trkpt>
      <trkpt lat="44.46925" lon="6.21729">
        <ele>829</ele>
        <time>2025-11-21T13:49:35.000Z</time>
      </trkpt>
      <trkpt lat="44.46925" lon="6.21731">
        <ele>830</ele>
        <time>2025-11-21T13:49:36.000Z</time>
      </trkpt>
      <trkpt lat="44.46925" lon="6.21733">
        <ele>830</ele>
        <time>2025-11-21T13:49:37.000Z</time>
      </trkpt>
      <trkpt lat="44.46926" lon="6.21736">
        <ele>831</ele>
        <time>2025-11-21T13:49:38.000Z</time>
      </trkpt>
      <trkpt lat="44.46927" lon="6.21738">
        <ele>831</ele>
        <time>2025-11-21T13:49:39.000Z</time>
      </trkpt>
      <trkpt lat="44.46928" lon="6.2174">
        <ele>831</ele>
        <time>2025-11-21T13:49:40.000Z</time>
      </trkpt>
      <trkpt lat="44.46929" lon="6.21742">
        <ele>831</ele>
        <time>2025-11-21T13:49:41.000Z</time>
      </trkpt>
      <trkpt lat="44.46929" lon="6.21743">
        <ele>831</ele>
        <time>2025-11-21T13:49:42.000Z</time>
      </trkpt>
      <trkpt lat="44.4693" lon="6.21744">
        <ele>831</ele>
        <time>2025-11-21T13:49:43.000Z</time>
      </trkpt>
      <trkpt lat="44.46931" lon="6.21746">
        <ele>831</ele>
        <time>2025-11-21T13:49:44.000Z</time>
      </trkpt>
      <trkpt lat="44.46932" lon="6.21747">
        <ele>831</ele>
        <time>2025-11-21T13:49:45.000Z</time>
      </trkpt>
      <trkpt lat="44.46932" lon="6.21748">
        <ele>832</ele>
        <time>2025-11-21T13:49:46.000Z</time>
      </trkpt>
      <trkpt lat="44.46933" lon="6.21747">
        <ele>832</ele>
        <time>2025-11-21T13:49:47.000Z</time>
      </trkpt>
      <trkpt lat="44.46934" lon="6.21747">
        <ele>832</ele>
        <time>2025-11-21T13:49:48.000Z</time>
      </trkpt>
      <trkpt lat="44.46934" lon="6.21748">
        <ele>833</ele>
        <time>2025-11-21T13:49:49.000Z</time>
      </trkpt>
      <trkpt lat="44.46935" lon="6.21748">
        <ele>833</ele>
        <time>2025-11-21T13:49:50.000Z</time>
      </trkpt>
      <trkpt lat="44.46935" lon="6.21748">
        <ele>833</ele>
        <time>2025-11-21T13:49:51.000Z</time>
      </trkpt>
      <trkpt lat="44.46935" lon="6.21748">
        <ele>833</ele>
        <time>2025-11-21T13:49:52.000Z</time>
      </trkpt>
      <trkpt lat="44.46936" lon="6.21749">
        <ele>832</ele>
        <time>2025-11-21T13:49:53.000Z</time>
      </trkpt>
      <trkpt lat="44.46938" lon="6.21749">
        <ele>833</ele>
        <time>2025-11-21T13:49:54.000Z</time>
      </trkpt>
      <trkpt lat="44.46939" lon="6.2175">
        <ele>834</ele>
        <time>2025-11-21T13:49:55.000Z</time>
      </trkpt>
      <trkpt lat="44.4694" lon="6.21751">
        <ele>834</ele>
        <time>2025-11-21T13:49:56.000Z</time>
      </trkpt>
      <trkpt lat="44.46941" lon="6.21752">
        <ele>834</ele>
        <time>2025-11-21T13:49:57.000Z</time>
      </trkpt>
      <trkpt lat="44.46941" lon="6.21753">
        <ele>835</ele>
        <time>2025-11-21T13:49:58.000Z</time>
      </trkpt>
      <trkpt lat="44.46941" lon="6.21754">
        <ele>836</ele>
        <time>2025-11-21T13:49:59.000Z</time>
      </trkpt>
      <trkpt lat="44.46942" lon="6.21754">
        <ele>835</ele>
        <time>2025-11-21T13:50:00.000Z</time>
      </trkpt>
      <trkpt lat="44.46943" lon="6.21754">
        <ele>836</ele>
        <time>2025-11-21T13:50:01.000Z</time>
      </trkpt>
      <trkpt lat="44.46944" lon="6.21755">
        <ele>835</ele>
        <time>2025-11-21T13:50:02.000Z</time>
      </trkpt>
      <trkpt lat="44.46945" lon="6.21756">
        <ele>836</ele>
        <time>2025-11-21T13:50:03.000Z</time>
      </trkpt>
      <trkpt lat="44.46946" lon="6.21756">
        <ele>836</ele>
        <time>2025-11-21T13:50:04.000Z</time>
      </trkpt>
      <trkpt lat="44.46948" lon="6.21757">
        <ele>836</ele>
        <time>2025-11-21T13:50:05.000Z</time>
      </trkpt>
      <trkpt lat="44.46948" lon="6.21758">
        <ele>836</ele>
        <time>2025-11-21T13:50:06.000Z</time>
      </trkpt>
      <trkpt lat="44.4695" lon="6.21758">
        <ele>836</ele>
        <time>2025-11-21T13:50:07.000Z</time>
      </trkpt>
      <trkpt lat="44.4695" lon="6.21759">
        <ele>835</ele>
        <time>2025-11-21T13:50:08.000Z</time>
      </trkpt>
      <trkpt lat="44.46951" lon="6.21761">
        <ele>836</ele>
        <time>2025-11-21T13:50:09.000Z</time>
      </trkpt>
      <trkpt lat="44.46951" lon="6.21763">
        <ele>836</ele>
        <time>2025-11-21T13:50:10.000Z</time>
      </trkpt>
      <trkpt lat="44.46952" lon="6.21764">
        <ele>836</ele>
        <time>2025-11-21T13:50:11.000Z</time>
      </trkpt>
      <trkpt lat="44.46953" lon="6.21766">
        <ele>837</ele>
        <time>2025-11-21T13:50:12.000Z</time>
      </trkpt>
      <trkpt lat="44.46954" lon="6.21767">
        <ele>837</ele>
        <time>2025-11-21T13:50:13.000Z</time>
      </trkpt>
      <trkpt lat="44.46955" lon="6.21768">
        <ele>837</ele>
        <time>2025-11-21T13:50:14.000Z</time>
      </trkpt>
      <trkpt lat="44.46955" lon="6.21769">
        <ele>837</ele>
        <time>2025-11-21T13:50:15.000Z</time>
      </trkpt>
      <trkpt lat="44.46956" lon="6.21769">
        <ele>837</ele>
        <time>2025-11-21T13:50:16.000Z</time>
      </trkpt>
      <trkpt lat="44.46957" lon="6.21769">
        <ele>838</ele>
        <time>2025-11-21T13:50:17.000Z</time>
      </trkpt>
      <trkpt lat="44.46957" lon="6.21769">
        <ele>838</ele>
        <time>2025-11-21T13:50:18.000Z</time>
      </trkpt>
      <trkpt lat="44.46957" lon="6.2177">
        <ele>838</ele>
        <time>2025-11-21T13:50:19.000Z</time>
      </trkpt>
      <trkpt lat="44.46956" lon="6.21772">
        <ele>837</ele>
        <time>2025-11-21T13:50:20.000Z</time>
      </trkpt>
      <trkpt lat="44.46956" lon="6.21774">
        <ele>837</ele>
        <time>2025-11-21T13:50:21.000Z</time>
      </trkpt>
      <trkpt lat="44.46957" lon="6.21775">
        <ele>838</ele>
        <time>2025-11-21T13:50:22.000Z</time>
      </trkpt>
      <trkpt lat="44.46958" lon="6.21776">
        <ele>837</ele>
        <time>2025-11-21T13:50:23.000Z</time>
      </trkpt>
      <trkpt lat="44.46959" lon="6.21778">
        <ele>838</ele>
        <time>2025-11-21T13:50:24.000Z</time>
      </trkpt>
      <trkpt lat="44.46959" lon="6.21776">
        <ele>838</ele>
        <time>2025-11-21T13:50:25.000Z</time>
      </trkpt>
      <trkpt lat="44.46959" lon="6.21778">
        <ele>837</ele>
        <time>2025-11-21T13:50:26.000Z</time>
      </trkpt>
      <trkpt lat="44.4696" lon="6.21781">
        <ele>837</ele>
        <time>2025-11-21T13:50:27.000Z</time>
      </trkpt>
      <trkpt lat="44.4696" lon="6.21783">
        <ele>838</ele>
        <time>2025-11-21T13:50:28.000Z</time>
      </trkpt>
      <trkpt lat="44.4696" lon="6.21785">
        <ele>837</ele>
        <time>2025-11-21T13:50:29.000Z</time>
      </trkpt>
      <trkpt lat="44.4696" lon="6.21785">
        <ele>838</ele>
        <time>2025-11-21T13:50:30.000Z</time>
      </trkpt>
      <trkpt lat="44.4696" lon="6.21787">
        <ele>837</ele>
        <time>2025-11-21T13:50:31.000Z</time>
      </trkpt>
      <trkpt lat="44.46961" lon="6.21788">
        <ele>837</ele>
        <time>2025-11-21T13:50:32.000Z</time>
      </trkpt>
      <trkpt lat="44.46961" lon="6.2179">
        <ele>838</ele>
        <time>2025-11-21T13:50:33.000Z</time>
      </trkpt>
      <trkpt lat="44.46961" lon="6.21791">
        <ele>838</ele>
        <time>2025-11-21T13:50:34.000Z</time>
      </trkpt>
      <trkpt lat="44.46961" lon="6.21792">
        <ele>838</ele>
        <time>2025-11-21T13:50:35.000Z</time>
      </trkpt>
      <trkpt lat="44.46961" lon="6.21792">
        <ele>838</ele>
        <time>2025-11-21T13:50:36.000Z</time>
      </trkpt>
      <trkpt lat="44.46961" lon="6.21793">
        <ele>839</ele>
        <time>2025-11-21T13:50:37.000Z</time>
      </trkpt>
      <trkpt lat="44.46962" lon="6.21794">
        <ele>839</ele>
        <time>2025-11-21T13:50:38.000Z</time>
      </trkpt>
      <trkpt lat="44.46962" lon="6.21796">
        <ele>839</ele>
        <time>2025-11-21T13:50:39.000Z</time>
      </trkpt>
      <trkpt lat="44.46962" lon="6.21797">
        <ele>838</ele>
        <time>2025-11-21T13:50:40.000Z</time>
      </trkpt>
      <trkpt lat="44.46963" lon="6.21799">
        <ele>839</ele>
        <time>2025-11-21T13:50:41.000Z</time>
      </trkpt>
      <trkpt lat="44.46964" lon="6.218">
        <ele>839</ele>
        <time>2025-11-21T13:50:42.000Z</time>
      </trkpt>
      <trkpt lat="44.46963" lon="6.21802">
        <ele>839</ele>
        <time>2025-11-21T13:50:43.000Z</time>
      </trkpt>
      <trkpt lat="44.46963" lon="6.21803">
        <ele>839</ele>
        <time>2025-11-21T13:50:44.000Z</time>
      </trkpt>
      <trkpt lat="44.46963" lon="6.21804">
        <ele>839</ele>
        <time>2025-11-21T13:50:45.000Z</time>
      </trkpt>
      <trkpt lat="44.46964" lon="6.21805">
        <ele>839</ele>
        <time>2025-11-21T13:50:46.000Z</time>
      </trkpt>
      <trkpt lat="44.46965" lon="6.21806">
        <ele>838</ele>
        <time>2025-11-21T13:50:47.000Z</time>
      </trkpt>
      <trkpt lat="44.46965" lon="6.21808">
        <ele>838</ele>
        <time>2025-11-21T13:50:48.000Z</time>
      </trkpt>
      <trkpt lat="44.46966" lon="6.21809">
        <ele>838</ele>
        <time>2025-11-21T13:50:49.000Z</time>
      </trkpt>
      <trkpt lat="44.46966" lon="6.2181">
        <ele>838</ele>
        <time>2025-11-21T13:50:50.000Z</time>
      </trkpt>
      <trkpt lat="44.46966" lon="6.21811">
        <ele>838</ele>
        <time>2025-11-21T13:50:51.000Z</time>
      </trkpt>
      <trkpt lat="44.46966" lon="6.21812">
        <ele>838</ele>
        <time>2025-11-21T13:50:52.000Z</time>
      </trkpt>
      <trkpt lat="44.46967" lon="6.21814">
        <ele>838</ele>
        <time>2025-11-21T13:50:53.000Z</time>
      </trkpt>
      <trkpt lat="44.46968" lon="6.21816">
        <ele>838</ele>
        <time>2025-11-21T13:50:54.000Z</time>
      </trkpt>
      <trkpt lat="44.46969" lon="6.21818">
        <ele>838</ele>
        <time>2025-11-21T13:50:55.000Z</time>
      </trkpt>
      <trkpt lat="44.4697" lon="6.21819">
        <ele>838</ele>
        <time>2025-11-21T13:50:56.000Z</time>
      </trkpt>
      <trkpt lat="44.46971" lon="6.21819">
        <ele>838</ele>
        <time>2025-11-21T13:50:57.000Z</time>
      </trkpt>
      <trkpt lat="44.46972" lon="6.21821">
        <ele>839</ele>
        <time>2025-11-21T13:50:58.000Z</time>
      </trkpt>
      <trkpt lat="44.46972" lon="6.21822">
        <ele>839</ele>
        <time>2025-11-21T13:50:59.000Z</time>
      </trkpt>
      <trkpt lat="44.46973" lon="6.21823">
        <ele>839</ele>
        <time>2025-11-21T13:51:00.000Z</time>
      </trkpt>
      <trkpt lat="44.46973" lon="6.21824">
        <ele>839</ele>
        <time>2025-11-21T13:51:01.000Z</time>
      </trkpt>
      <trkpt lat="44.46974" lon="6.21826">
        <ele>839</ele>
        <time>2025-11-21T13:51:02.000Z</time>
      </trkpt>
      <trkpt lat="44.46974" lon="6.21827">
        <ele>839</ele>
        <time>2025-11-21T13:51:03.000Z</time>
      </trkpt>
      <trkpt lat="44.46974" lon="6.21828">
        <ele>839</ele>
        <time>2025-11-21T13:51:04.000Z</time>
      </trkpt>
      <trkpt lat="44.46974" lon="6.21829">
        <ele>839</ele>
        <time>2025-11-21T13:51:05.000Z</time>
      </trkpt>
      <trkpt lat="44.46975" lon="6.2183">
        <ele>838</ele>
        <time>2025-11-21T13:51:06.000Z</time>
      </trkpt>
      <trkpt lat="44.46975" lon="6.21831">
        <ele>839</ele>
        <time>2025-11-21T13:51:07.000Z</time>
      </trkpt>
      <trkpt lat="44.46976" lon="6.21831">
        <ele>838</ele>
        <time>2025-11-21T13:51:08.000Z</time>
      </trkpt>
      <trkpt lat="44.46976" lon="6.21832">
        <ele>838</ele>
        <time>2025-11-21T13:51:09.000Z</time>
      </trkpt>
      <trkpt lat="44.46976" lon="6.21833">
        <ele>838</ele>
        <time>2025-11-21T13:51:10.000Z</time>
      </trkpt>
      <trkpt lat="44.46977" lon="6.21834">
        <ele>838</ele>
        <time>2025-11-21T13:51:11.000Z</time>
      </trkpt>
      <trkpt lat="44.46976" lon="6.21836">
        <ele>837</ele>
        <time>2025-11-21T13:51:12.000Z</time>
      </trkpt>
      <trkpt lat="44.46976" lon="6.21837">
        <ele>837</ele>
        <time>2025-11-21T13:51:13.000Z</time>
      </trkpt>
      <trkpt lat="44.46976" lon="6.21837">
        <ele>837</ele>
        <time>2025-11-21T13:51:14.000Z</time>
      </trkpt>
      <trkpt lat="44.46976" lon="6.21837">
        <ele>837</ele>
        <time>2025-11-21T13:51:15.000Z</time>
      </trkpt>
      <trkpt lat="44.46976" lon="6.2184">
        <ele>837</ele>
        <time>2025-11-21T13:51:16.000Z</time>
      </trkpt>
      <trkpt lat="44.46975" lon="6.21842">
        <ele>837</ele>
        <time>2025-11-21T13:51:17.000Z</time>
      </trkpt>
      <trkpt lat="44.46974" lon="6.21843">
        <ele>837</ele>
        <time>2025-11-21T13:51:18.000Z</time>
      </trkpt>
      <trkpt lat="44.46974" lon="6.21844">
        <ele>837</ele>
        <time>2025-11-21T13:51:19.000Z</time>
      </trkpt>
      <trkpt lat="44.46974" lon="6.21845">
        <ele>837</ele>
        <time>2025-11-21T13:51:20.000Z</time>
      </trkpt>
      <trkpt lat="44.46974" lon="6.21846">
        <ele>837</ele>
        <time>2025-11-21T13:51:21.000Z</time>
      </trkpt>
      <trkpt lat="44.46973" lon="6.21846">
        <ele>837</ele>
        <time>2025-11-21T13:51:22.000Z</time>
      </trkpt>
      <trkpt lat="44.46973" lon="6.21847">
        <ele>836</ele>
        <time>2025-11-21T13:51:23.000Z</time>
      </trkpt>
      <trkpt lat="44.46972" lon="6.21848">
        <ele>836</ele>
        <time>2025-11-21T13:51:24.000Z</time>
      </trkpt>
      <trkpt lat="44.46972" lon="6.21849">
        <ele>836</ele>
        <time>2025-11-21T13:51:25.000Z</time>
      </trkpt>
      <trkpt lat="44.46971" lon="6.21851">
        <ele>835</ele>
        <time>2025-11-21T13:51:26.000Z</time>
      </trkpt>
      <trkpt lat="44.4697" lon="6.21852">
        <ele>835</ele>
        <time>2025-11-21T13:51:27.000Z</time>
      </trkpt>
      <trkpt lat="44.46969" lon="6.21854">
        <ele>834</ele>
        <time>2025-11-21T13:51:28.000Z</time>
      </trkpt>
      <trkpt lat="44.46969" lon="6.21855">
        <ele>835</ele>
        <time>2025-11-21T13:51:29.000Z</time>
      </trkpt>
      <trkpt lat="44.46968" lon="6.21857">
        <ele>834</ele>
        <time>2025-11-21T13:51:30.000Z</time>
      </trkpt>
      <trkpt lat="44.46967" lon="6.21858">
        <ele>834</ele>
        <time>2025-11-21T13:51:31.000Z</time>
      </trkpt>
      <trkpt lat="44.46968" lon="6.21859">
        <ele>833</ele>
        <time>2025-11-21T13:51:32.000Z</time>
      </trkpt>
      <trkpt lat="44.46967" lon="6.2186">
        <ele>833</ele>
        <time>2025-11-21T13:51:33.000Z</time>
      </trkpt>
      <trkpt lat="44.46966" lon="6.21862">
        <ele>833</ele>
        <time>2025-11-21T13:51:34.000Z</time>
      </trkpt>
      <trkpt lat="44.46966" lon="6.21863">
        <ele>833</ele>
        <time>2025-11-21T13:51:35.000Z</time>
      </trkpt>
      <trkpt lat="44.46965" lon="6.21865">
        <ele>833</ele>
        <time>2025-11-21T13:51:36.000Z</time>
      </trkpt>
      <trkpt lat="44.46965" lon="6.21866">
        <ele>833</ele>
        <time>2025-11-21T13:51:37.000Z</time>
      </trkpt>
      <trkpt lat="44.46965" lon="6.21868">
        <ele>832</ele>
        <time>2025-11-21T13:51:38.000Z</time>
      </trkpt>
      <trkpt lat="44.46965" lon="6.2187">
        <ele>832</ele>
        <time>2025-11-21T13:51:39.000Z</time>
      </trkpt>
      <trkpt lat="44.46966" lon="6.21871">
        <ele>831</ele>
        <time>2025-11-21T13:51:40.000Z</time>
      </trkpt>
      <trkpt lat="44.46965" lon="6.21872">
        <ele>832</ele>
        <time>2025-11-21T13:51:41.000Z</time>
      </trkpt>
      <trkpt lat="44.46965" lon="6.21874">
        <ele>832</ele>
        <time>2025-11-21T13:51:42.000Z</time>
      </trkpt>
      <trkpt lat="44.46965" lon="6.21876">
        <ele>831</ele>
        <time>2025-11-21T13:51:43.000Z</time>
      </trkpt>
      <trkpt lat="44.46965" lon="6.21878">
        <ele>831</ele>
        <time>2025-11-21T13:51:44.000Z</time>
      </trkpt>
      <trkpt lat="44.46964" lon="6.21879">
        <ele>831</ele>
        <time>2025-11-21T13:51:45.000Z</time>
      </trkpt>
      <trkpt lat="44.46964" lon="6.2188">
        <ele>830</ele>
        <time>2025-11-21T13:51:46.000Z</time>
      </trkpt>
      <trkpt lat="44.46964" lon="6.21881">
        <ele>830</ele>
        <time>2025-11-21T13:51:47.000Z</time>
      </trkpt>
      <trkpt lat="44.46963" lon="6.21883">
        <ele>829</ele>
        <time>2025-11-21T13:51:48.000Z</time>
      </trkpt>
      <trkpt lat="44.46962" lon="6.21884">
        <ele>829</ele>
        <time>2025-11-21T13:51:49.000Z</time>
      </trkpt>
      <trkpt lat="44.46962" lon="6.21885">
        <ele>829</ele>
        <time>2025-11-21T13:51:50.000Z</time>
      </trkpt>
      <trkpt lat="44.46961" lon="6.21886">
        <ele>829</ele>
        <time>2025-11-21T13:51:51.000Z</time>
      </trkpt>
      <trkpt lat="44.4696" lon="6.21887">
        <ele>829</ele>
        <time>2025-11-21T13:51:52.000Z</time>
      </trkpt>
      <trkpt lat="44.46959" lon="6.21889">
        <ele>829</ele>
        <time>2025-11-21T13:51:53.000Z</time>
      </trkpt>
      <trkpt lat="44.46958" lon="6.2189">
        <ele>829</ele>
        <time>2025-11-21T13:51:54.000Z</time>
      </trkpt>
      <trkpt lat="44.46957" lon="6.21892">
        <ele>829</ele>
        <time>2025-11-21T13:51:55.000Z</time>
      </trkpt>
      <trkpt lat="44.46956" lon="6.21894">
        <ele>830</ele>
        <time>2025-11-21T13:51:56.000Z</time>
      </trkpt>
      <trkpt lat="44.46955" lon="6.21895">
        <ele>830</ele>
        <time>2025-11-21T13:51:57.000Z</time>
      </trkpt>
      <trkpt lat="44.46955" lon="6.21896">
        <ele>830</ele>
        <time>2025-11-21T13:51:58.000Z</time>
      </trkpt>
      <trkpt lat="44.46954" lon="6.21897">
        <ele>830</ele>
        <time>2025-11-21T13:51:59.000Z</time>
      </trkpt>
      <trkpt lat="44.46953" lon="6.21899">
        <ele>830</ele>
        <time>2025-11-21T13:52:00.000Z</time>
      </trkpt>
      <trkpt lat="44.46952" lon="6.21901">
        <ele>830</ele>
        <time>2025-11-21T13:52:01.000Z</time>
      </trkpt>
      <trkpt lat="44.46951" lon="6.21902">
        <ele>830</ele>
        <time>2025-11-21T13:52:02.000Z</time>
      </trkpt>
      <trkpt lat="44.4695" lon="6.21904">
        <ele>829</ele>
        <time>2025-11-21T13:52:03.000Z</time>
      </trkpt>
      <trkpt lat="44.4695" lon="6.21905">
        <ele>829</ele>
        <time>2025-11-21T13:52:04.000Z</time>
      </trkpt>
      <trkpt lat="44.46949" lon="6.21907">
        <ele>829</ele>
        <time>2025-11-21T13:52:05.000Z</time>
      </trkpt>
      <trkpt lat="44.46949" lon="6.2191">
        <ele>829</ele>
        <time>2025-11-21T13:52:06.000Z</time>
      </trkpt>
      <trkpt lat="44.46949" lon="6.21912">
        <ele>829</ele>
        <time>2025-11-21T13:52:07.000Z</time>
      </trkpt>
      <trkpt lat="44.46949" lon="6.21913">
        <ele>829</ele>
        <time>2025-11-21T13:52:08.000Z</time>
      </trkpt>
      <trkpt lat="44.46948" lon="6.21915">
        <ele>829</ele>
        <time>2025-11-21T13:52:09.000Z</time>
      </trkpt>
      <trkpt lat="44.46948" lon="6.21916">
        <ele>830</ele>
        <time>2025-11-21T13:52:10.000Z</time>
      </trkpt>
      <trkpt lat="44.46948" lon="6.21918">
        <ele>830</ele>
        <time>2025-11-21T13:52:11.000Z</time>
      </trkpt>
      <trkpt lat="44.46948" lon="6.21919">
        <ele>830</ele>
        <time>2025-11-21T13:52:12.000Z</time>
      </trkpt>
      <trkpt lat="44.46949" lon="6.21921">
        <ele>830</ele>
        <time>2025-11-21T13:52:13.000Z</time>
      </trkpt>
      <trkpt lat="44.46949" lon="6.21921">
        <ele>830</ele>
        <time>2025-11-21T13:52:14.000Z</time>
      </trkpt>
      <trkpt lat="44.46949" lon="6.21921">
        <ele>830</ele>
        <time>2025-11-21T13:52:15.000Z</time>
      </trkpt>
      <trkpt lat="44.46949" lon="6.21926">
        <ele>830</ele>
        <time>2025-11-21T13:52:16.000Z</time>
      </trkpt>
      <trkpt lat="44.46949" lon="6.21927">
        <ele>830</ele>
        <time>2025-11-21T13:52:17.000Z</time>
      </trkpt>
      <trkpt lat="44.46949" lon="6.21929">
        <ele>830</ele>
        <time>2025-11-21T13:52:18.000Z</time>
      </trkpt>
      <trkpt lat="44.46949" lon="6.21931">
        <ele>830</ele>
        <time>2025-11-21T13:52:19.000Z</time>
      </trkpt>
      <trkpt lat="44.46949" lon="6.21932">
        <ele>829</ele>
        <time>2025-11-21T13:52:20.000Z</time>
      </trkpt>
      <trkpt lat="44.46949" lon="6.21934">
        <ele>829</ele>
        <time>2025-11-21T13:52:21.000Z</time>
      </trkpt>
      <trkpt lat="44.46948" lon="6.21936">
        <ele>828</ele>
        <time>2025-11-21T13:52:22.000Z</time>
      </trkpt>
      <trkpt lat="44.46948" lon="6.21937">
        <ele>829</ele>
        <time>2025-11-21T13:52:23.000Z</time>
      </trkpt>
      <trkpt lat="44.46947" lon="6.21939">
        <ele>828</ele>
        <time>2025-11-21T13:52:24.000Z</time>
      </trkpt>
      <trkpt lat="44.46946" lon="6.21941">
        <ele>828</ele>
        <time>2025-11-21T13:52:25.000Z</time>
      </trkpt>
      <trkpt lat="44.46946" lon="6.21942">
        <ele>828</ele>
        <time>2025-11-21T13:52:26.000Z</time>
      </trkpt>
      <trkpt lat="44.46946" lon="6.21944">
        <ele>828</ele>
        <time>2025-11-21T13:52:27.000Z</time>
      </trkpt>
      <trkpt lat="44.46946" lon="6.21945">
        <ele>828</ele>
        <time>2025-11-21T13:52:28.000Z</time>
      </trkpt>
      <trkpt lat="44.46946" lon="6.21946">
        <ele>828</ele>
        <time>2025-11-21T13:52:29.000Z</time>
      </trkpt>
      <trkpt lat="44.46946" lon="6.21947">
        <ele>828</ele>
        <time>2025-11-21T13:52:30.000Z</time>
      </trkpt>
      <trkpt lat="44.46946" lon="6.21948">
        <ele>828</ele>
        <time>2025-11-21T13:52:31.000Z</time>
      </trkpt>
      <trkpt lat="44.46945" lon="6.21949">
        <ele>828</ele>
        <time>2025-11-21T13:52:32.000Z</time>
      </trkpt>
      <trkpt lat="44.46945" lon="6.21951">
        <ele>827</ele>
        <time>2025-11-21T13:52:33.000Z</time>
      </trkpt>
      <trkpt lat="44.46945" lon="6.21953">
        <ele>827</ele>
        <time>2025-11-21T13:52:34.000Z</time>
      </trkpt>
      <trkpt lat="44.46945" lon="6.21955">
        <ele>827</ele>
        <time>2025-11-21T13:52:35.000Z</time>
      </trkpt>
      <trkpt lat="44.46945" lon="6.21956">
        <ele>826</ele>
        <time>2025-11-21T13:52:36.000Z</time>
      </trkpt>
      <trkpt lat="44.46945" lon="6.21958">
        <ele>826</ele>
        <time>2025-11-21T13:52:37.000Z</time>
      </trkpt>
      <trkpt lat="44.46946" lon="6.21959">
        <ele>826</ele>
        <time>2025-11-21T13:52:38.000Z</time>
      </trkpt>
      <trkpt lat="44.46946" lon="6.21961">
        <ele>826</ele>
        <time>2025-11-21T13:52:39.000Z</time>
      </trkpt>
      <trkpt lat="44.46947" lon="6.21963">
        <ele>826</ele>
        <time>2025-11-21T13:52:40.000Z</time>
      </trkpt>
      <trkpt lat="44.46947" lon="6.21965">
        <ele>825</ele>
        <time>2025-11-21T13:52:41.000Z</time>
      </trkpt>
      <trkpt lat="44.46948" lon="6.21966">
        <ele>825</ele>
        <time>2025-11-21T13:52:42.000Z</time>
      </trkpt>
      <trkpt lat="44.46948" lon="6.21968">
        <ele>825</ele>
        <time>2025-11-21T13:52:43.000Z</time>
      </trkpt>
      <trkpt lat="44.46949" lon="6.2197">
        <ele>824</ele>
        <time>2025-11-21T13:52:44.000Z</time>
      </trkpt>
      <trkpt lat="44.46949" lon="6.21971">
        <ele>824</ele>
        <time>2025-11-21T13:52:45.000Z</time>
      </trkpt>
      <trkpt lat="44.46949" lon="6.21973">
        <ele>824</ele>
        <time>2025-11-21T13:52:46.000Z</time>
      </trkpt>
      <trkpt lat="44.46949" lon="6.21975">
        <ele>824</ele>
        <time>2025-11-21T13:52:47.000Z</time>
      </trkpt>
      <trkpt lat="44.46949" lon="6.21977">
        <ele>823</ele>
        <time>2025-11-21T13:52:48.000Z</time>
      </trkpt>
      <trkpt lat="44.4695" lon="6.21978">
        <ele>823</ele>
        <time>2025-11-21T13:52:49.000Z</time>
      </trkpt>
      <trkpt lat="44.4695" lon="6.21979">
        <ele>822</ele>
        <time>2025-11-21T13:52:50.000Z</time>
      </trkpt>
      <trkpt lat="44.4695" lon="6.21981">
        <ele>822</ele>
        <time>2025-11-21T13:52:51.000Z</time>
      </trkpt>
      <trkpt lat="44.46951" lon="6.21983">
        <ele>822</ele>
        <time>2025-11-21T13:52:52.000Z</time>
      </trkpt>
      <trkpt lat="44.46951" lon="6.21984">
        <ele>821</ele>
        <time>2025-11-21T13:52:53.000Z</time>
      </trkpt>
      <trkpt lat="44.4695" lon="6.21986">
        <ele>821</ele>
        <time>2025-11-21T13:52:54.000Z</time>
      </trkpt>
      <trkpt lat="44.4695" lon="6.21987">
        <ele>821</ele>
        <time>2025-11-21T13:52:55.000Z</time>
      </trkpt>
      <trkpt lat="44.4695" lon="6.21989">
        <ele>821</ele>
        <time>2025-11-21T13:52:56.000Z</time>
      </trkpt>
      <trkpt lat="44.4695" lon="6.2199">
        <ele>821</ele>
        <time>2025-11-21T13:52:57.000Z</time>
      </trkpt>
      <trkpt lat="44.4695" lon="6.21992">
        <ele>821</ele>
        <time>2025-11-21T13:52:58.000Z</time>
      </trkpt>
      <trkpt lat="44.4695" lon="6.21994">
        <ele>821</ele>
        <time>2025-11-21T13:52:59.000Z</time>
      </trkpt>
      <trkpt lat="44.46949" lon="6.21996">
        <ele>820</ele>
        <time>2025-11-21T13:53:00.000Z</time>
      </trkpt>
      <trkpt lat="44.46948" lon="6.21997">
        <ele>820</ele>
        <time>2025-11-21T13:53:01.000Z</time>
      </trkpt>
      <trkpt lat="44.46948" lon="6.21999">
        <ele>820</ele>
        <time>2025-11-21T13:53:02.000Z</time>
      </trkpt>
      <trkpt lat="44.46947" lon="6.22">
        <ele>820</ele>
        <time>2025-11-21T13:53:03.000Z</time>
      </trkpt>
      <trkpt lat="44.46947" lon="6.22003">
        <ele>820</ele>
        <time>2025-11-21T13:53:04.000Z</time>
      </trkpt>
      <trkpt lat="44.46946" lon="6.22005">
        <ele>821</ele>
        <time>2025-11-21T13:53:05.000Z</time>
      </trkpt>
      <trkpt lat="44.46946" lon="6.22007">
        <ele>821</ele>
        <time>2025-11-21T13:53:06.000Z</time>
      </trkpt>
      <trkpt lat="44.46947" lon="6.22009">
        <ele>821</ele>
        <time>2025-11-21T13:53:07.000Z</time>
      </trkpt>
      <trkpt lat="44.46948" lon="6.22009">
        <ele>820</ele>
        <time>2025-11-21T13:53:08.000Z</time>
      </trkpt>
      <trkpt lat="44.46948" lon="6.22011">
        <ele>819</ele>
        <time>2025-11-21T13:53:09.000Z</time>
      </trkpt>
      <trkpt lat="44.46949" lon="6.22013">
        <ele>819</ele>
        <time>2025-11-21T13:53:10.000Z</time>
      </trkpt>
      <trkpt lat="44.4695" lon="6.22014">
        <ele>818</ele>
        <time>2025-11-21T13:53:11.000Z</time>
      </trkpt>
      <trkpt lat="44.46951" lon="6.22015">
        <ele>818</ele>
        <time>2025-11-21T13:53:12.000Z</time>
      </trkpt>
      <trkpt lat="44.46952" lon="6.22016">
        <ele>818</ele>
        <time>2025-11-21T13:53:13.000Z</time>
      </trkpt>
      <trkpt lat="44.46953" lon="6.22018">
        <ele>817</ele>
        <time>2025-11-21T13:53:14.000Z</time>
      </trkpt>
      <trkpt lat="44.46954" lon="6.22019">
        <ele>817</ele>
        <time>2025-11-21T13:53:15.000Z</time>
      </trkpt>
      <trkpt lat="44.46954" lon="6.2202">
        <ele>816</ele>
        <time>2025-11-21T13:53:16.000Z</time>
      </trkpt>
      <trkpt lat="44.46955" lon="6.22019">
        <ele>816</ele>
        <time>2025-11-21T13:53:17.000Z</time>
      </trkpt>
      <trkpt lat="44.46956" lon="6.22019">
        <ele>816</ele>
        <time>2025-11-21T13:53:18.000Z</time>
      </trkpt>
      <trkpt lat="44.46957" lon="6.22019">
        <ele>815</ele>
        <time>2025-11-21T13:53:19.000Z</time>
      </trkpt>
      <trkpt lat="44.46958" lon="6.2202">
        <ele>815</ele>
        <time>2025-11-21T13:53:20.000Z</time>
      </trkpt>
      <trkpt lat="44.4696" lon="6.22021">
        <ele>815</ele>
        <time>2025-11-21T13:53:21.000Z</time>
      </trkpt>
      <trkpt lat="44.4696" lon="6.22021">
        <ele>814</ele>
        <time>2025-11-21T13:53:22.000Z</time>
      </trkpt>
      <trkpt lat="44.46962" lon="6.22022">
        <ele>815</ele>
        <time>2025-11-21T13:53:23.000Z</time>
      </trkpt>
      <trkpt lat="44.46962" lon="6.22022">
        <ele>815</ele>
        <time>2025-11-21T13:53:24.000Z</time>
      </trkpt>
      <trkpt lat="44.46964" lon="6.22022">
        <ele>814</ele>
        <time>2025-11-21T13:53:25.000Z</time>
      </trkpt>
      <trkpt lat="44.46964" lon="6.22024">
        <ele>814</ele>
        <time>2025-11-21T13:53:26.000Z</time>
      </trkpt>
      <trkpt lat="44.46965" lon="6.22025">
        <ele>814</ele>
        <time>2025-11-21T13:53:27.000Z</time>
      </trkpt>
      <trkpt lat="44.46966" lon="6.22027">
        <ele>814</ele>
        <time>2025-11-21T13:53:28.000Z</time>
      </trkpt>
      <trkpt lat="44.46966" lon="6.22029">
        <ele>813</ele>
        <time>2025-11-21T13:53:29.000Z</time>
      </trkpt>
      <trkpt lat="44.46965" lon="6.2203">
        <ele>814</ele>
        <time>2025-11-21T13:53:30.000Z</time>
      </trkpt>
      <trkpt lat="44.46966" lon="6.2203">
        <ele>813</ele>
        <time>2025-11-21T13:53:31.000Z</time>
      </trkpt>
      <trkpt lat="44.46966" lon="6.22031">
        <ele>813</ele>
        <time>2025-11-21T13:53:32.000Z</time>
      </trkpt>
      <trkpt lat="44.46966" lon="6.22032">
        <ele>812</ele>
        <time>2025-11-21T13:53:33.000Z</time>
      </trkpt>
      <trkpt lat="44.46966" lon="6.22034">
        <ele>812</ele>
        <time>2025-11-21T13:53:34.000Z</time>
      </trkpt>
      <trkpt lat="44.46967" lon="6.22036">
        <ele>812</ele>
        <time>2025-11-21T13:53:35.000Z</time>
      </trkpt>
      <trkpt lat="44.46967" lon="6.22038">
        <ele>812</ele>
        <time>2025-11-21T13:53:36.000Z</time>
      </trkpt>
      <trkpt lat="44.46966" lon="6.22039">
        <ele>812</ele>
        <time>2025-11-21T13:53:37.000Z</time>
      </trkpt>
      <trkpt lat="44.46966" lon="6.22042">
        <ele>813</ele>
        <time>2025-11-21T13:53:38.000Z</time>
      </trkpt>
      <trkpt lat="44.46964" lon="6.22044">
        <ele>813</ele>
        <time>2025-11-21T13:53:39.000Z</time>
      </trkpt>
      <trkpt lat="44.46963" lon="6.22047">
        <ele>813</ele>
        <time>2025-11-21T13:53:40.000Z</time>
      </trkpt>
      <trkpt lat="44.46962" lon="6.22049">
        <ele>812</ele>
        <time>2025-11-21T13:53:41.000Z</time>
      </trkpt>
      <trkpt lat="44.46962" lon="6.2205">
        <ele>812</ele>
        <time>2025-11-21T13:53:42.000Z</time>
      </trkpt>
      <trkpt lat="44.46961" lon="6.22051">
        <ele>813</ele>
        <time>2025-11-21T13:53:43.000Z</time>
      </trkpt>
      <trkpt lat="44.4696" lon="6.22052">
        <ele>813</ele>
        <time>2025-11-21T13:53:44.000Z</time>
      </trkpt>
      <trkpt lat="44.4696" lon="6.22053">
        <ele>813</ele>
        <time>2025-11-21T13:53:45.000Z</time>
      </trkpt>
      <trkpt lat="44.46959" lon="6.22055">
        <ele>813</ele>
        <time>2025-11-21T13:53:46.000Z</time>
      </trkpt>
      <trkpt lat="44.46959" lon="6.22056">
        <ele>814</ele>
        <time>2025-11-21T13:53:47.000Z</time>
      </trkpt>
      <trkpt lat="44.46959" lon="6.22058">
        <ele>814</ele>
        <time>2025-11-21T13:53:48.000Z</time>
      </trkpt>
      <trkpt lat="44.46958" lon="6.22061">
        <ele>814</ele>
        <time>2025-11-21T13:53:49.000Z</time>
      </trkpt>
      <trkpt lat="44.46958" lon="6.22064">
        <ele>815</ele>
        <time>2025-11-21T13:53:50.000Z</time>
      </trkpt>
      <trkpt lat="44.46957" lon="6.22067">
        <ele>815</ele>
        <time>2025-11-21T13:53:51.000Z</time>
      </trkpt>
      <trkpt lat="44.46956" lon="6.22068">
        <ele>815</ele>
        <time>2025-11-21T13:53:52.000Z</time>
      </trkpt>
      <trkpt lat="44.46955" lon="6.2207">
        <ele>816</ele>
        <time>2025-11-21T13:53:53.000Z</time>
      </trkpt>
      <trkpt lat="44.46955" lon="6.22071">
        <ele>816</ele>
        <time>2025-11-21T13:53:54.000Z</time>
      </trkpt>
      <trkpt lat="44.46956" lon="6.22073">
        <ele>816</ele>
        <time>2025-11-21T13:53:55.000Z</time>
      </trkpt>
      <trkpt lat="44.46956" lon="6.22074">
        <ele>817</ele>
        <time>2025-11-21T13:53:56.000Z</time>
      </trkpt>
      <trkpt lat="44.46957" lon="6.22075">
        <ele>818</ele>
        <time>2025-11-21T13:53:57.000Z</time>
      </trkpt>
      <trkpt lat="44.46957" lon="6.22076">
        <ele>818</ele>
        <time>2025-11-21T13:53:58.000Z</time>
      </trkpt>
      <trkpt lat="44.46958" lon="6.22078">
        <ele>818</ele>
        <time>2025-11-21T13:53:59.000Z</time>
      </trkpt>
      <trkpt lat="44.46959" lon="6.22079">
        <ele>818</ele>
        <time>2025-11-21T13:54:00.000Z</time>
      </trkpt>
      <trkpt lat="44.46959" lon="6.22079">
        <ele>819</ele>
        <time>2025-11-21T13:54:01.000Z</time>
      </trkpt>
      <trkpt lat="44.4696" lon="6.22079">
        <ele>819</ele>
        <time>2025-11-21T13:54:02.000Z</time>
      </trkpt>
      <trkpt lat="44.46961" lon="6.22079">
        <ele>819</ele>
        <time>2025-11-21T13:54:03.000Z</time>
      </trkpt>
      <trkpt lat="44.46961" lon="6.22081">
        <ele>819</ele>
        <time>2025-11-21T13:54:04.000Z</time>
      </trkpt>
      <trkpt lat="44.46961" lon="6.22082">
        <ele>819</ele>
        <time>2025-11-21T13:54:05.000Z</time>
      </trkpt>
      <trkpt lat="44.46961" lon="6.22084">
        <ele>819</ele>
        <time>2025-11-21T13:54:06.000Z</time>
      </trkpt>
      <trkpt lat="44.46961" lon="6.22087">
        <ele>819</ele>
        <time>2025-11-21T13:54:07.000Z</time>
      </trkpt>
      <trkpt lat="44.46961" lon="6.22088">
        <ele>819</ele>
        <time>2025-11-21T13:54:08.000Z</time>
      </trkpt>
      <trkpt lat="44.46961" lon="6.22089">
        <ele>818</ele>
        <time>2025-11-21T13:54:09.000Z</time>
      </trkpt>
      <trkpt lat="44.46961" lon="6.22091">
        <ele>818</ele>
        <time>2025-11-21T13:54:10.000Z</time>
      </trkpt>
      <trkpt lat="44.46961" lon="6.22092">
        <ele>817</ele>
        <time>2025-11-21T13:54:11.000Z</time>
      </trkpt>
      <trkpt lat="44.46961" lon="6.22094">
        <ele>816</ele>
        <time>2025-11-21T13:54:12.000Z</time>
      </trkpt>
      <trkpt lat="44.46961" lon="6.22096">
        <ele>816</ele>
        <time>2025-11-21T13:54:13.000Z</time>
      </trkpt>
      <trkpt lat="44.46961" lon="6.22097">
        <ele>816</ele>
        <time>2025-11-21T13:54:14.000Z</time>
      </trkpt>
      <trkpt lat="44.46962" lon="6.22099">
        <ele>817</ele>
        <time>2025-11-21T13:54:15.000Z</time>
      </trkpt>
      <trkpt lat="44.46962" lon="6.22101">
        <ele>817</ele>
        <time>2025-11-21T13:54:16.000Z</time>
      </trkpt>
      <trkpt lat="44.46963" lon="6.22102">
        <ele>816</ele>
        <time>2025-11-21T13:54:17.000Z</time>
      </trkpt>
      <trkpt lat="44.46963" lon="6.22103">
        <ele>815</ele>
        <time>2025-11-21T13:54:18.000Z</time>
      </trkpt>
      <trkpt lat="44.46964" lon="6.22104">
        <ele>815</ele>
        <time>2025-11-21T13:54:19.000Z</time>
      </trkpt>
      <trkpt lat="44.46965" lon="6.22105">
        <ele>814</ele>
        <time>2025-11-21T13:54:20.000Z</time>
      </trkpt>
      <trkpt lat="44.46965" lon="6.22106">
        <ele>814</ele>
        <time>2025-11-21T13:54:21.000Z</time>
      </trkpt>
      <trkpt lat="44.46965" lon="6.22107">
        <ele>814</ele>
        <time>2025-11-21T13:54:22.000Z</time>
      </trkpt>
      <trkpt lat="44.46966" lon="6.22108">
        <ele>813</ele>
        <time>2025-11-21T13:54:23.000Z</time>
      </trkpt>
      <trkpt lat="44.46966" lon="6.22108">
        <ele>813</ele>
        <time>2025-11-21T13:54:24.000Z</time>
      </trkpt>
      <trkpt lat="44.46967" lon="6.2211">
        <ele>812</ele>
        <time>2025-11-21T13:54:25.000Z</time>
      </trkpt>
      <trkpt lat="44.46967" lon="6.22111">
        <ele>812</ele>
        <time>2025-11-21T13:54:26.000Z</time>
      </trkpt>
      <trkpt lat="44.46968" lon="6.22111">
        <ele>812</ele>
        <time>2025-11-21T13:54:27.000Z</time>
      </trkpt>
      <trkpt lat="44.4697" lon="6.22112">
        <ele>811</ele>
        <time>2025-11-21T13:54:28.000Z</time>
      </trkpt>
      <trkpt lat="44.46971" lon="6.22113">
        <ele>811</ele>
        <time>2025-11-21T13:54:29.000Z</time>
      </trkpt>
      <trkpt lat="44.46972" lon="6.22114">
        <ele>811</ele>
        <time>2025-11-21T13:54:30.000Z</time>
      </trkpt>
      <trkpt lat="44.46973" lon="6.22115">
        <ele>811</ele>
        <time>2025-11-21T13:54:31.000Z</time>
      </trkpt>
      <trkpt lat="44.46973" lon="6.22115">
        <ele>811</ele>
        <time>2025-11-21T13:54:32.000Z</time>
      </trkpt>
      <trkpt lat="44.46974" lon="6.22116">
        <ele>811</ele>
        <time>2025-11-21T13:54:33.000Z</time>
      </trkpt>
      <trkpt lat="44.46974" lon="6.22118">
        <ele>810</ele>
        <time>2025-11-21T13:54:34.000Z</time>
      </trkpt>
      <trkpt lat="44.46974" lon="6.22118">
        <ele>810</ele>
        <time>2025-11-21T13:54:35.000Z</time>
      </trkpt>
      <trkpt lat="44.46974" lon="6.22118">
        <ele>810</ele>
        <time>2025-11-21T13:54:36.000Z</time>
      </trkpt>
      <trkpt lat="44.46976" lon="6.22123">
        <ele>808</ele>
        <time>2025-11-21T13:54:37.000Z</time>
      </trkpt>
      <trkpt lat="44.46978" lon="6.22129">
        <ele>809</ele>
        <time>2025-11-21T13:54:39.000Z</time>
      </trkpt>
      <trkpt lat="44.46979" lon="6.22135">
        <ele>809</ele>
        <time>2025-11-21T13:54:41.000Z</time>
      </trkpt>
      <trkpt lat="44.46979" lon="6.22136">
        <ele>808</ele>
        <time>2025-11-21T13:54:42.000Z</time>
      </trkpt>
      <trkpt lat="44.46978" lon="6.22139">
        <ele>807</ele>
        <time>2025-11-21T13:54:43.000Z</time>
      </trkpt>
      <trkpt lat="44.46978" lon="6.22141">
        <ele>806</ele>
        <time>2025-11-21T13:54:44.000Z</time>
      </trkpt>
      <trkpt lat="44.46978" lon="6.22144">
        <ele>805</ele>
        <time>2025-11-21T13:54:45.000Z</time>
      </trkpt>
      <trkpt lat="44.46977" lon="6.22146">
        <ele>806</ele>
        <time>2025-11-21T13:54:46.000Z</time>
      </trkpt>
      <trkpt lat="44.46978" lon="6.22148">
        <ele>805</ele>
        <time>2025-11-21T13:54:47.000Z</time>
      </trkpt>
      <trkpt lat="44.46979" lon="6.22151">
        <ele>805</ele>
        <time>2025-11-21T13:54:48.000Z</time>
      </trkpt>
      <trkpt lat="44.46979" lon="6.22151">
        <ele>805</ele>
        <time>2025-11-21T13:54:49.000Z</time>
      </trkpt>
      <trkpt lat="44.46979" lon="6.22153">
        <ele>805</ele>
        <time>2025-11-21T13:54:50.000Z</time>
      </trkpt>
      <trkpt lat="44.46978" lon="6.22154">
        <ele>805</ele>
        <time>2025-11-21T13:54:51.000Z</time>
      </trkpt>
      <trkpt lat="44.46979" lon="6.22155">
        <ele>805</ele>
        <time>2025-11-21T13:54:52.000Z</time>
      </trkpt>
      <trkpt lat="44.46979" lon="6.22157">
        <ele>805</ele>
        <time>2025-11-21T13:54:53.000Z</time>
      </trkpt>
      <trkpt lat="44.46979" lon="6.22157">
        <ele>805</ele>
        <time>2025-11-21T13:54:54.000Z</time>
      </trkpt>
      <trkpt lat="44.46979" lon="6.22157">
        <ele>805</ele>
        <time>2025-11-21T13:54:55.000Z</time>
      </trkpt>
      <trkpt lat="44.4698" lon="6.22161">
        <ele>806</ele>
        <time>2025-11-21T13:54:56.000Z</time>
      </trkpt>
      <trkpt lat="44.46981" lon="6.22162">
        <ele>806</ele>
        <time>2025-11-21T13:54:57.000Z</time>
      </trkpt>
      <trkpt lat="44.4698" lon="6.22165">
        <ele>806</ele>
        <time>2025-11-21T13:54:58.000Z</time>
      </trkpt>
      <trkpt lat="44.46979" lon="6.22167">
        <ele>805</ele>
        <time>2025-11-21T13:55:00.000Z</time>
      </trkpt>
      <trkpt lat="44.46977" lon="6.2217">
        <ele>806</ele>
        <time>2025-11-21T13:55:02.000Z</time>
      </trkpt>
      <trkpt lat="44.46977" lon="6.22171">
        <ele>806</ele>
        <time>2025-11-21T13:55:03.000Z</time>
      </trkpt>
      <trkpt lat="44.46976" lon="6.22173">
        <ele>806</ele>
        <time>2025-11-21T13:55:04.000Z</time>
      </trkpt>
      <trkpt lat="44.46975" lon="6.22174">
        <ele>806</ele>
        <time>2025-11-21T13:55:05.000Z</time>
      </trkpt>
      <trkpt lat="44.46973" lon="6.22175">
        <ele>806</ele>
        <time>2025-11-21T13:55:06.000Z</time>
      </trkpt>
      <trkpt lat="44.46973" lon="6.22176">
        <ele>806</ele>
        <time>2025-11-21T13:55:07.000Z</time>
      </trkpt>
      <trkpt lat="44.46972" lon="6.22177">
        <ele>806</ele>
        <time>2025-11-21T13:55:08.000Z</time>
      </trkpt>
      <trkpt lat="44.46971" lon="6.22178">
        <ele>806</ele>
        <time>2025-11-21T13:55:09.000Z</time>
      </trkpt>
      <trkpt lat="44.4697" lon="6.2218">
        <ele>806</ele>
        <time>2025-11-21T13:55:10.000Z</time>
      </trkpt>
      <trkpt lat="44.4697" lon="6.22182">
        <ele>807</ele>
        <time>2025-11-21T13:55:11.000Z</time>
      </trkpt>
      <trkpt lat="44.46969" lon="6.22183">
        <ele>807</ele>
        <time>2025-11-21T13:55:12.000Z</time>
      </trkpt>
      <trkpt lat="44.46968" lon="6.22185">
        <ele>807</ele>
        <time>2025-11-21T13:55:13.000Z</time>
      </trkpt>
      <trkpt lat="44.46967" lon="6.22187">
        <ele>807</ele>
        <time>2025-11-21T13:55:14.000Z</time>
      </trkpt>
      <trkpt lat="44.46966" lon="6.22189">
        <ele>807</ele>
        <time>2025-11-21T13:55:15.000Z</time>
      </trkpt>
      <trkpt lat="44.46966" lon="6.22192">
        <ele>806</ele>
        <time>2025-11-21T13:55:16.000Z</time>
      </trkpt>
      <trkpt lat="44.46966" lon="6.22193">
        <ele>806</ele>
        <time>2025-11-21T13:55:17.000Z</time>
      </trkpt>
      <trkpt lat="44.46965" lon="6.22194">
        <ele>807</ele>
        <time>2025-11-21T13:55:18.000Z</time>
      </trkpt>
      <trkpt lat="44.46965" lon="6.22195">
        <ele>807</ele>
        <time>2025-11-21T13:55:19.000Z</time>
      </trkpt>
      <trkpt lat="44.46964" lon="6.22195">
        <ele>807</ele>
        <time>2025-11-21T13:55:20.000Z</time>
      </trkpt>
      <trkpt lat="44.46963" lon="6.22197">
        <ele>807</ele>
        <time>2025-11-21T13:55:21.000Z</time>
      </trkpt>
      <trkpt lat="44.46963" lon="6.22198">
        <ele>808</ele>
        <time>2025-11-21T13:55:22.000Z</time>
      </trkpt>
      <trkpt lat="44.46963" lon="6.22198">
        <ele>808</ele>
        <time>2025-11-21T13:55:23.000Z</time>
      </trkpt>
      <trkpt lat="44.46961" lon="6.22201">
        <ele>808</ele>
        <time>2025-11-21T13:55:24.000Z</time>
      </trkpt>
      <trkpt lat="44.46961" lon="6.22203">
        <ele>807</ele>
        <time>2025-11-21T13:55:25.000Z</time>
      </trkpt>
      <trkpt lat="44.46961" lon="6.22206">
        <ele>808</ele>
        <time>2025-11-21T13:55:26.000Z</time>
      </trkpt>
      <trkpt lat="44.4696" lon="6.22208">
        <ele>809</ele>
        <time>2025-11-21T13:55:27.000Z</time>
      </trkpt>
      <trkpt lat="44.4696" lon="6.22209">
        <ele>809</ele>
        <time>2025-11-21T13:55:28.000Z</time>
      </trkpt>
      <trkpt lat="44.4696" lon="6.22211">
        <ele>811</ele>
        <time>2025-11-21T13:55:29.000Z</time>
      </trkpt>
      <trkpt lat="44.4696" lon="6.22213">
        <ele>811</ele>
        <time>2025-11-21T13:55:30.000Z</time>
      </trkpt>
      <trkpt lat="44.4696" lon="6.22215">
        <ele>811</ele>
        <time>2025-11-21T13:55:31.000Z</time>
      </trkpt>
      <trkpt lat="44.46959" lon="6.22217">
        <ele>812</ele>
        <time>2025-11-21T13:55:32.000Z</time>
      </trkpt>
      <trkpt lat="44.46959" lon="6.22219">
        <ele>813</ele>
        <time>2025-11-21T13:55:33.000Z</time>
      </trkpt>
      <trkpt lat="44.46959" lon="6.2222">
        <ele>813</ele>
        <time>2025-11-21T13:55:34.000Z</time>
      </trkpt>
      <trkpt lat="44.4696" lon="6.22221">
        <ele>813</ele>
        <time>2025-11-21T13:55:35.000Z</time>
      </trkpt>
      <trkpt lat="44.46961" lon="6.22222">
        <ele>813</ele>
        <time>2025-11-21T13:55:36.000Z</time>
      </trkpt>
      <trkpt lat="44.46962" lon="6.22222">
        <ele>812</ele>
        <time>2025-11-21T13:55:37.000Z</time>
      </trkpt>
      <trkpt lat="44.46963" lon="6.22223">
        <ele>811</ele>
        <time>2025-11-21T13:55:38.000Z</time>
      </trkpt>
      <trkpt lat="44.46964" lon="6.22224">
        <ele>811</ele>
        <time>2025-11-21T13:55:39.000Z</time>
      </trkpt>
      <trkpt lat="44.46964" lon="6.22225">
        <ele>811</ele>
        <time>2025-11-21T13:55:40.000Z</time>
      </trkpt>
      <trkpt lat="44.46966" lon="6.22225">
        <ele>811</ele>
        <time>2025-11-21T13:55:41.000Z</time>
      </trkpt>
      <trkpt lat="44.46966" lon="6.22227">
        <ele>810</ele>
        <time>2025-11-21T13:55:42.000Z</time>
      </trkpt>
      <trkpt lat="44.46966" lon="6.22228">
        <ele>810</ele>
        <time>2025-11-21T13:55:43.000Z</time>
      </trkpt>
      <trkpt lat="44.46967" lon="6.22229">
        <ele>810</ele>
        <time>2025-11-21T13:55:44.000Z</time>
      </trkpt>
      <trkpt lat="44.46967" lon="6.22231">
        <ele>809</ele>
        <time>2025-11-21T13:55:45.000Z</time>
      </trkpt>
      <trkpt lat="44.46967" lon="6.22231">
        <ele>809</ele>
        <time>2025-11-21T13:55:46.000Z</time>
      </trkpt>
      <trkpt lat="44.46968" lon="6.22233">
        <ele>807</ele>
        <time>2025-11-21T13:55:47.000Z</time>
      </trkpt>
      <trkpt lat="44.46969" lon="6.22234">
        <ele>808</ele>
        <time>2025-11-21T13:55:48.000Z</time>
      </trkpt>
      <trkpt lat="44.4697" lon="6.22235">
        <ele>808</ele>
        <time>2025-11-21T13:55:49.000Z</time>
      </trkpt>
      <trkpt lat="44.46971" lon="6.22235">
        <ele>808</ele>
        <time>2025-11-21T13:55:50.000Z</time>
      </trkpt>
      <trkpt lat="44.46971" lon="6.22236">
        <ele>808</ele>
        <time>2025-11-21T13:55:51.000Z</time>
      </trkpt>
      <trkpt lat="44.46972" lon="6.22237">
        <ele>808</ele>
        <time>2025-11-21T13:55:52.000Z</time>
      </trkpt>
      <trkpt lat="44.46972" lon="6.22238">
        <ele>808</ele>
        <time>2025-11-21T13:55:53.000Z</time>
      </trkpt>
      <trkpt lat="44.46972" lon="6.22239">
        <ele>808</ele>
        <time>2025-11-21T13:55:54.000Z</time>
      </trkpt>
      <trkpt lat="44.46972" lon="6.22239">
        <ele>808</ele>
        <time>2025-11-21T13:55:55.000Z</time>
      </trkpt>
      <trkpt lat="44.46972" lon="6.22239">
        <ele>808</ele>
        <time>2025-11-21T13:55:56.000Z</time>
      </trkpt>
      <trkpt lat="44.46972" lon="6.22242">
        <ele>808</ele>
        <time>2025-11-21T13:55:57.000Z</time>
      </trkpt>
      <trkpt lat="44.46972" lon="6.22243">
        <ele>808</ele>
        <time>2025-11-21T13:55:58.000Z</time>
      </trkpt>
      <trkpt lat="44.46971" lon="6.22246">
        <ele>809</ele>
        <time>2025-11-21T13:55:59.000Z</time>
      </trkpt>
      <trkpt lat="44.46971" lon="6.22248">
        <ele>809</ele>
        <time>2025-11-21T13:56:00.000Z</time>
      </trkpt>
      <trkpt lat="44.46971" lon="6.22249">
        <ele>810</ele>
        <time>2025-11-21T13:56:01.000Z</time>
      </trkpt>
      <trkpt lat="44.46971" lon="6.2225">
        <ele>810</ele>
        <time>2025-11-21T13:56:02.000Z</time>
      </trkpt>
      <trkpt lat="44.4697" lon="6.22251">
        <ele>810</ele>
        <time>2025-11-21T13:56:03.000Z</time>
      </trkpt>
      <trkpt lat="44.4697" lon="6.22251">
        <ele>810</ele>
        <time>2025-11-21T13:56:04.000Z</time>
      </trkpt>
      <trkpt lat="44.4697" lon="6.22251">
        <ele>810</ele>
        <time>2025-11-21T13:56:05.000Z</time>
      </trkpt>
      <trkpt lat="44.4697" lon="6.22252">
        <ele>811</ele>
        <time>2025-11-21T13:56:06.000Z</time>
      </trkpt>
      <trkpt lat="44.4697" lon="6.22253">
        <ele>811</ele>
        <time>2025-11-21T13:56:07.000Z</time>
      </trkpt>
      <trkpt lat="44.46969" lon="6.22254">
        <ele>811</ele>
        <time>2025-11-21T13:56:08.000Z</time>
      </trkpt>
      <trkpt lat="44.46968" lon="6.22255">
        <ele>811</ele>
        <time>2025-11-21T13:56:09.000Z</time>
      </trkpt>
      <trkpt lat="44.46967" lon="6.22256">
        <ele>810</ele>
        <time>2025-11-21T13:56:10.000Z</time>
      </trkpt>
      <trkpt lat="44.46966" lon="6.22257">
        <ele>810</ele>
        <time>2025-11-21T13:56:11.000Z</time>
      </trkpt>
      <trkpt lat="44.46965" lon="6.22257">
        <ele>809</ele>
        <time>2025-11-21T13:56:12.000Z</time>
      </trkpt>
      <trkpt lat="44.46965" lon="6.22258">
        <ele>809</ele>
        <time>2025-11-21T13:56:13.000Z</time>
      </trkpt>
      <trkpt lat="44.46964" lon="6.22258">
        <ele>809</ele>
        <time>2025-11-21T13:56:14.000Z</time>
      </trkpt>
      <trkpt lat="44.46963" lon="6.22259">
        <ele>809</ele>
        <time>2025-11-21T13:56:15.000Z</time>
      </trkpt>
      <trkpt lat="44.46962" lon="6.2226">
        <ele>809</ele>
        <time>2025-11-21T13:56:16.000Z</time>
      </trkpt>
      <trkpt lat="44.46961" lon="6.2226">
        <ele>809</ele>
        <time>2025-11-21T13:56:17.000Z</time>
      </trkpt>
      <trkpt lat="44.4696" lon="6.22261">
        <ele>809</ele>
        <time>2025-11-21T13:56:18.000Z</time>
      </trkpt>
      <trkpt lat="44.4696" lon="6.22262">
        <ele>809</ele>
        <time>2025-11-21T13:56:19.000Z</time>
      </trkpt>
      <trkpt lat="44.46959" lon="6.22265">
        <ele>809</ele>
        <time>2025-11-21T13:56:20.000Z</time>
      </trkpt>
      <trkpt lat="44.46958" lon="6.22267">
        <ele>808</ele>
        <time>2025-11-21T13:56:21.000Z</time>
      </trkpt>
      <trkpt lat="44.46957" lon="6.22268">
        <ele>808</ele>
        <time>2025-11-21T13:56:22.000Z</time>
      </trkpt>
      <trkpt lat="44.46956" lon="6.22269">
        <ele>808</ele>
        <time>2025-11-21T13:56:23.000Z</time>
      </trkpt>
      <trkpt lat="44.46956" lon="6.2227">
        <ele>807</ele>
        <time>2025-11-21T13:56:24.000Z</time>
      </trkpt>
      <trkpt lat="44.46954" lon="6.2227">
        <ele>807</ele>
        <time>2025-11-21T13:56:25.000Z</time>
      </trkpt>
      <trkpt lat="44.46954" lon="6.22271">
        <ele>808</ele>
        <time>2025-11-21T13:56:26.000Z</time>
      </trkpt>
      <trkpt lat="44.46952" lon="6.22271">
        <ele>807</ele>
        <time>2025-11-21T13:56:27.000Z</time>
      </trkpt>
      <trkpt lat="44.46952" lon="6.22272">
        <ele>806</ele>
        <time>2025-11-21T13:56:28.000Z</time>
      </trkpt>
      <trkpt lat="44.4695" lon="6.22272">
        <ele>806</ele>
        <time>2025-11-21T13:56:29.000Z</time>
      </trkpt>
      <trkpt lat="44.46949" lon="6.22273">
        <ele>806</ele>
        <time>2025-11-21T13:56:30.000Z</time>
      </trkpt>
      <trkpt lat="44.46947" lon="6.22273">
        <ele>806</ele>
        <time>2025-11-21T13:56:31.000Z</time>
      </trkpt>
      <trkpt lat="44.46946" lon="6.22274">
        <ele>806</ele>
        <time>2025-11-21T13:56:32.000Z</time>
      </trkpt>
      <trkpt lat="44.46945" lon="6.22274">
        <ele>806</ele>
        <time>2025-11-21T13:56:33.000Z</time>
      </trkpt>
      <trkpt lat="44.46944" lon="6.22274">
        <ele>805</ele>
        <time>2025-11-21T13:56:34.000Z</time>
      </trkpt>
      <trkpt lat="44.46943" lon="6.22275">
        <ele>806</ele>
        <time>2025-11-21T13:56:35.000Z</time>
      </trkpt>
      <trkpt lat="44.46941" lon="6.22275">
        <ele>806</ele>
        <time>2025-11-21T13:56:36.000Z</time>
      </trkpt>
      <trkpt lat="44.4694" lon="6.22275">
        <ele>805</ele>
        <time>2025-11-21T13:56:37.000Z</time>
      </trkpt>
      <trkpt lat="44.4694" lon="6.22276">
        <ele>805</ele>
        <time>2025-11-21T13:56:38.000Z</time>
      </trkpt>
      <trkpt lat="44.46939" lon="6.22277">
        <ele>804</ele>
        <time>2025-11-21T13:56:39.000Z</time>
      </trkpt>
      <trkpt lat="44.46939" lon="6.22279">
        <ele>803</ele>
        <time>2025-11-21T13:56:40.000Z</time>
      </trkpt>
      <trkpt lat="44.46938" lon="6.2228">
        <ele>803</ele>
        <time>2025-11-21T13:56:41.000Z</time>
      </trkpt>
      <trkpt lat="44.46938" lon="6.22281">
        <ele>803</ele>
        <time>2025-11-21T13:56:42.000Z</time>
      </trkpt>
      <trkpt lat="44.46937" lon="6.22282">
        <ele>803</ele>
        <time>2025-11-21T13:56:43.000Z</time>
      </trkpt>
      <trkpt lat="44.46936" lon="6.22283">
        <ele>803</ele>
        <time>2025-11-21T13:56:44.000Z</time>
      </trkpt>
      <trkpt lat="44.46935" lon="6.22284">
        <ele>802</ele>
        <time>2025-11-21T13:56:45.000Z</time>
      </trkpt>
      <trkpt lat="44.46934" lon="6.22285">
        <ele>801</ele>
        <time>2025-11-21T13:56:46.000Z</time>
      </trkpt>
      <trkpt lat="44.46933" lon="6.22286">
        <ele>802</ele>
        <time>2025-11-21T13:56:47.000Z</time>
      </trkpt>
      <trkpt lat="44.46933" lon="6.22287">
        <ele>801</ele>
        <time>2025-11-21T13:56:48.000Z</time>
      </trkpt>
      <trkpt lat="44.46932" lon="6.22288">
        <ele>801</ele>
        <time>2025-11-21T13:56:49.000Z</time>
      </trkpt>
      <trkpt lat="44.46932" lon="6.22288">
        <ele>800</ele>
        <time>2025-11-21T13:56:50.000Z</time>
      </trkpt>
      <trkpt lat="44.46931" lon="6.22288">
        <ele>800</ele>
        <time>2025-11-21T13:56:51.000Z</time>
      </trkpt>
      <trkpt lat="44.4693" lon="6.22288">
        <ele>799</ele>
        <time>2025-11-21T13:56:52.000Z</time>
      </trkpt>
      <trkpt lat="44.46928" lon="6.22287">
        <ele>800</ele>
        <time>2025-11-21T13:56:53.000Z</time>
      </trkpt>
      <trkpt lat="44.46928" lon="6.22286">
        <ele>800</ele>
        <time>2025-11-21T13:56:54.000Z</time>
      </trkpt>
      <trkpt lat="44.46927" lon="6.22286">
        <ele>800</ele>
        <time>2025-11-21T13:56:55.000Z</time>
      </trkpt>
      <trkpt lat="44.46926" lon="6.22287">
        <ele>800</ele>
        <time>2025-11-21T13:56:56.000Z</time>
      </trkpt>
      <trkpt lat="44.46925" lon="6.22288">
        <ele>799</ele>
        <time>2025-11-21T13:56:57.000Z</time>
      </trkpt>
      <trkpt lat="44.46925" lon="6.22289">
        <ele>799</ele>
        <time>2025-11-21T13:56:58.000Z</time>
      </trkpt>
      <trkpt lat="44.46924" lon="6.2229">
        <ele>798</ele>
        <time>2025-11-21T13:56:59.000Z</time>
      </trkpt>
      <trkpt lat="44.46924" lon="6.22291">
        <ele>798</ele>
        <time>2025-11-21T13:57:00.000Z</time>
      </trkpt>
      <trkpt lat="44.46924" lon="6.22293">
        <ele>798</ele>
        <time>2025-11-21T13:57:01.000Z</time>
      </trkpt>
      <trkpt lat="44.46924" lon="6.22294">
        <ele>797</ele>
        <time>2025-11-21T13:57:02.000Z</time>
      </trkpt>
      <trkpt lat="44.46923" lon="6.22295">
        <ele>798</ele>
        <time>2025-11-21T13:57:03.000Z</time>
      </trkpt>
      <trkpt lat="44.46921" lon="6.22294">
        <ele>797</ele>
        <time>2025-11-21T13:57:04.000Z</time>
      </trkpt>
      <trkpt lat="44.46921" lon="6.22292">
        <ele>797</ele>
        <time>2025-11-21T13:57:05.000Z</time>
      </trkpt>
      <trkpt lat="44.4692" lon="6.22291">
        <ele>797</ele>
        <time>2025-11-21T13:57:06.000Z</time>
      </trkpt>
      <trkpt lat="44.4692" lon="6.2229">
        <ele>797</ele>
        <time>2025-11-21T13:57:07.000Z</time>
      </trkpt>
      <trkpt lat="44.46919" lon="6.22289">
        <ele>796</ele>
        <time>2025-11-21T13:57:08.000Z</time>
      </trkpt>
      <trkpt lat="44.46919" lon="6.22289">
        <ele>796</ele>
        <time>2025-11-21T13:57:09.000Z</time>
      </trkpt>
      <trkpt lat="44.46918" lon="6.22288">
        <ele>796</ele>
        <time>2025-11-21T13:57:10.000Z</time>
      </trkpt>
      <trkpt lat="44.46917" lon="6.22288">
        <ele>795</ele>
        <time>2025-11-21T13:57:11.000Z</time>
      </trkpt>
      <trkpt lat="44.46916" lon="6.22289">
        <ele>795</ele>
        <time>2025-11-21T13:57:12.000Z</time>
      </trkpt>
      <trkpt lat="44.46916" lon="6.22289">
        <ele>796</ele>
        <time>2025-11-21T13:57:13.000Z</time>
      </trkpt>
      <trkpt lat="44.46915" lon="6.22291">
        <ele>796</ele>
        <time>2025-11-21T13:57:14.000Z</time>
      </trkpt>
      <trkpt lat="44.46914" lon="6.22292">
        <ele>796</ele>
        <time>2025-11-21T13:57:15.000Z</time>
      </trkpt>
      <trkpt lat="44.46914" lon="6.22294">
        <ele>796</ele>
        <time>2025-11-21T13:57:16.000Z</time>
      </trkpt>
      <trkpt lat="44.46913" lon="6.22296">
        <ele>797</ele>
        <time>2025-11-21T13:57:17.000Z</time>
      </trkpt>
      <trkpt lat="44.46913" lon="6.22298">
        <ele>797</ele>
        <time>2025-11-21T13:57:18.000Z</time>
      </trkpt>
      <trkpt lat="44.46913" lon="6.22299">
        <ele>797</ele>
        <time>2025-11-21T13:57:19.000Z</time>
      </trkpt>
      <trkpt lat="44.46913" lon="6.223">
        <ele>797</ele>
        <time>2025-11-21T13:57:20.000Z</time>
      </trkpt>
      <trkpt lat="44.46912" lon="6.22301">
        <ele>796</ele>
        <time>2025-11-21T13:57:21.000Z</time>
      </trkpt>
      <trkpt lat="44.46911" lon="6.22303">
        <ele>795</ele>
        <time>2025-11-21T13:57:22.000Z</time>
      </trkpt>
      <trkpt lat="44.46909" lon="6.22304">
        <ele>795</ele>
        <time>2025-11-21T13:57:23.000Z</time>
      </trkpt>
      <trkpt lat="44.46909" lon="6.22304">
        <ele>794</ele>
        <time>2025-11-21T13:57:24.000Z</time>
      </trkpt>
      <trkpt lat="44.46909" lon="6.22305">
        <ele>794</ele>
        <time>2025-11-21T13:57:25.000Z</time>
      </trkpt>
      <trkpt lat="44.46908" lon="6.22306">
        <ele>794</ele>
        <time>2025-11-21T13:57:26.000Z</time>
      </trkpt>
      <trkpt lat="44.46907" lon="6.22307">
        <ele>794</ele>
        <time>2025-11-21T13:57:27.000Z</time>
      </trkpt>
      <trkpt lat="44.46906" lon="6.22309">
        <ele>794</ele>
        <time>2025-11-21T13:57:28.000Z</time>
      </trkpt>
      <trkpt lat="44.46906" lon="6.22309">
        <ele>794</ele>
        <time>2025-11-21T13:57:29.000Z</time>
      </trkpt>
      <trkpt lat="44.46905" lon="6.2231">
        <ele>794</ele>
        <time>2025-11-21T13:57:30.000Z</time>
      </trkpt>
      <trkpt lat="44.46905" lon="6.22311">
        <ele>793</ele>
        <time>2025-11-21T13:57:31.000Z</time>
      </trkpt>
      <trkpt lat="44.46905" lon="6.22313">
        <ele>793</ele>
        <time>2025-11-21T13:57:32.000Z</time>
      </trkpt>
      <trkpt lat="44.46905" lon="6.22314">
        <ele>793</ele>
        <time>2025-11-21T13:57:33.000Z</time>
      </trkpt>
      <trkpt lat="44.46905" lon="6.22316">
        <ele>793</ele>
        <time>2025-11-21T13:57:34.000Z</time>
      </trkpt>
      <trkpt lat="44.46905" lon="6.22318">
        <ele>793</ele>
        <time>2025-11-21T13:57:35.000Z</time>
      </trkpt>
      <trkpt lat="44.46904" lon="6.22319">
        <ele>793</ele>
        <time>2025-11-21T13:57:36.000Z</time>
      </trkpt>
      <trkpt lat="44.46904" lon="6.22319">
        <ele>793</ele>
        <time>2025-11-21T13:57:37.000Z</time>
      </trkpt>
      <trkpt lat="44.46904" lon="6.2232">
        <ele>793</ele>
        <time>2025-11-21T13:57:38.000Z</time>
      </trkpt>
      <trkpt lat="44.46904" lon="6.22323">
        <ele>792</ele>
        <time>2025-11-21T13:57:39.000Z</time>
      </trkpt>
      <trkpt lat="44.46903" lon="6.22325">
        <ele>792</ele>
        <time>2025-11-21T13:57:40.000Z</time>
      </trkpt>
      <trkpt lat="44.46902" lon="6.22326">
        <ele>792</ele>
        <time>2025-11-21T13:57:41.000Z</time>
      </trkpt>
      <trkpt lat="44.46903" lon="6.22328">
        <ele>792</ele>
        <time>2025-11-21T13:57:42.000Z</time>
      </trkpt>
      <trkpt lat="44.46903" lon="6.22329">
        <ele>792</ele>
        <time>2025-11-21T13:57:43.000Z</time>
      </trkpt>
      <trkpt lat="44.46903" lon="6.22331">
        <ele>791</ele>
        <time>2025-11-21T13:57:44.000Z</time>
      </trkpt>
      <trkpt lat="44.46903" lon="6.22332">
        <ele>790</ele>
        <time>2025-11-21T13:57:45.000Z</time>
      </trkpt>
      <trkpt lat="44.46903" lon="6.22334">
        <ele>789</ele>
        <time>2025-11-21T13:57:46.000Z</time>
      </trkpt>
      <trkpt lat="44.46902" lon="6.22335">
        <ele>789</ele>
        <time>2025-11-21T13:57:47.000Z</time>
      </trkpt>
      <trkpt lat="44.46902" lon="6.22335">
        <ele>790</ele>
        <time>2025-11-21T13:57:48.000Z</time>
      </trkpt>
      <trkpt lat="44.46901" lon="6.22333">
        <ele>789</ele>
        <time>2025-11-21T13:57:49.000Z</time>
      </trkpt>
      <trkpt lat="44.46901" lon="6.22331">
        <ele>788</ele>
        <time>2025-11-21T13:57:50.000Z</time>
      </trkpt>
      <trkpt lat="44.46899" lon="6.2233">
        <ele>789</ele>
        <time>2025-11-21T13:57:51.000Z</time>
      </trkpt>
      <trkpt lat="44.46899" lon="6.2233">
        <ele>789</ele>
        <time>2025-11-21T13:57:52.000Z</time>
      </trkpt>
      <trkpt lat="44.46899" lon="6.22328">
        <ele>788</ele>
        <time>2025-11-21T13:57:53.000Z</time>
      </trkpt>
      <trkpt lat="44.46898" lon="6.22327">
        <ele>788</ele>
        <time>2025-11-21T13:57:54.000Z</time>
      </trkpt>
      <trkpt lat="44.46897" lon="6.22326">
        <ele>787</ele>
        <time>2025-11-21T13:57:55.000Z</time>
      </trkpt>
      <trkpt lat="44.46896" lon="6.22325">
        <ele>787</ele>
        <time>2025-11-21T13:57:56.000Z</time>
      </trkpt>
      <trkpt lat="44.46896" lon="6.22324">
        <ele>787</ele>
        <time>2025-11-21T13:57:57.000Z</time>
      </trkpt>
      <trkpt lat="44.46895" lon="6.22323">
        <ele>787</ele>
        <time>2025-11-21T13:57:58.000Z</time>
      </trkpt>
      <trkpt lat="44.46894" lon="6.22322">
        <ele>787</ele>
        <time>2025-11-21T13:57:59.000Z</time>
      </trkpt>
      <trkpt lat="44.46894" lon="6.22321">
        <ele>787</ele>
        <time>2025-11-21T13:58:00.000Z</time>
      </trkpt>
      <trkpt lat="44.46893" lon="6.2232">
        <ele>786</ele>
        <time>2025-11-21T13:58:01.000Z</time>
      </trkpt>
      <trkpt lat="44.46893" lon="6.2232">
        <ele>786</ele>
        <time>2025-11-21T13:58:02.000Z</time>
      </trkpt>
      <trkpt lat="44.46892" lon="6.22322">
        <ele>786</ele>
        <time>2025-11-21T13:58:03.000Z</time>
      </trkpt>
      <trkpt lat="44.4689" lon="6.22324">
        <ele>782</ele>
        <time>2025-11-21T13:58:20.000Z</time>
      </trkpt>
      <trkpt lat="44.4689" lon="6.22325">
        <ele>782</ele>
        <time>2025-11-21T13:58:21.000Z</time>
      </trkpt>
      <trkpt lat="44.4689" lon="6.22326">
        <ele>782</ele>
        <time>2025-11-21T13:58:22.000Z</time>
      </trkpt>
      <trkpt lat="44.46891" lon="6.22328">
        <ele>781</ele>
        <time>2025-11-21T13:58:23.000Z</time>
      </trkpt>
      <trkpt lat="44.46891" lon="6.22329">
        <ele>781</ele>
        <time>2025-11-21T13:58:24.000Z</time>
      </trkpt>
      <trkpt lat="44.46891" lon="6.22331">
        <ele>780</ele>
        <time>2025-11-21T13:58:25.000Z</time>
      </trkpt>
      <trkpt lat="44.46892" lon="6.22332">
        <ele>780</ele>
        <time>2025-11-21T13:58:26.000Z</time>
      </trkpt>
      <trkpt lat="44.46892" lon="6.22333">
        <ele>780</ele>
        <time>2025-11-21T13:58:27.000Z</time>
      </trkpt>
      <trkpt lat="44.46892" lon="6.22336">
        <ele>779</ele>
        <time>2025-11-21T13:58:28.000Z</time>
      </trkpt>
      <trkpt lat="44.46892" lon="6.22338">
        <ele>779</ele>
        <time>2025-11-21T13:58:29.000Z</time>
      </trkpt>
      <trkpt lat="44.46892" lon="6.2234">
        <ele>779</ele>
        <time>2025-11-21T13:58:30.000Z</time>
      </trkpt>
      <trkpt lat="44.46892" lon="6.22341">
        <ele>780</ele>
        <time>2025-11-21T13:58:31.000Z</time>
      </trkpt>
      <trkpt lat="44.46893" lon="6.22343">
        <ele>780</ele>
        <time>2025-11-21T13:58:32.000Z</time>
      </trkpt>
      <trkpt lat="44.46893" lon="6.22344">
        <ele>780</ele>
        <time>2025-11-21T13:58:33.000Z</time>
      </trkpt>
      <trkpt lat="44.46892" lon="6.22345">
        <ele>780</ele>
        <time>2025-11-21T13:58:34.000Z</time>
      </trkpt>
      <trkpt lat="44.46892" lon="6.22344">
        <ele>780</ele>
        <time>2025-11-21T13:58:35.000Z</time>
      </trkpt>
      <trkpt lat="44.46891" lon="6.22343">
        <ele>779</ele>
        <time>2025-11-21T13:58:36.000Z</time>
      </trkpt>
      <trkpt lat="44.46891" lon="6.22342">
        <ele>779</ele>
        <time>2025-11-21T13:58:37.000Z</time>
      </trkpt>
      <trkpt lat="44.46891" lon="6.22341">
        <ele>779</ele>
        <time>2025-11-21T13:58:38.000Z</time>
      </trkpt>
      <trkpt lat="44.4689" lon="6.22339">
        <ele>778</ele>
        <time>2025-11-21T13:58:39.000Z</time>
      </trkpt>
      <trkpt lat="44.4689" lon="6.22338">
        <ele>778</ele>
        <time>2025-11-21T13:58:40.000Z</time>
      </trkpt>
      <trkpt lat="44.4689" lon="6.22337">
        <ele>777</ele>
        <time>2025-11-21T13:58:41.000Z</time>
      </trkpt>
      <trkpt lat="44.46889" lon="6.22336">
        <ele>777</ele>
        <time>2025-11-21T13:58:42.000Z</time>
      </trkpt>
      <trkpt lat="44.46889" lon="6.22334">
        <ele>776</ele>
        <time>2025-11-21T13:58:43.000Z</time>
      </trkpt>
      <trkpt lat="44.46888" lon="6.22334">
        <ele>777</ele>
        <time>2025-11-21T13:58:44.000Z</time>
      </trkpt>
      <trkpt lat="44.46888" lon="6.22334">
        <ele>776</ele>
        <time>2025-11-21T13:58:45.000Z</time>
      </trkpt>
      <trkpt lat="44.46887" lon="6.22333">
        <ele>776</ele>
        <time>2025-11-21T13:58:46.000Z</time>
      </trkpt>
      <trkpt lat="44.46887" lon="6.22331">
        <ele>775</ele>
        <time>2025-11-21T13:58:47.000Z</time>
      </trkpt>
      <trkpt lat="44.46887" lon="6.2233">
        <ele>774</ele>
        <time>2025-11-21T13:58:48.000Z</time>
      </trkpt>
      <trkpt lat="44.46886" lon="6.22329">
        <ele>773</ele>
        <time>2025-11-21T13:58:49.000Z</time>
      </trkpt>
      <trkpt lat="44.46886" lon="6.22328">
        <ele>773</ele>
        <time>2025-11-21T13:58:50.000Z</time>
      </trkpt>
      <trkpt lat="44.46885" lon="6.22328">
        <ele>774</ele>
        <time>2025-11-21T13:58:51.000Z</time>
      </trkpt>
      <trkpt lat="44.46884" lon="6.22328">
        <ele>773</ele>
        <time>2025-11-21T13:58:52.000Z</time>
      </trkpt>
      <trkpt lat="44.46884" lon="6.22329">
        <ele>773</ele>
        <time>2025-11-21T13:58:53.000Z</time>
      </trkpt>
      <trkpt lat="44.46883" lon="6.22331">
        <ele>772</ele>
        <time>2025-11-21T13:58:54.000Z</time>
      </trkpt>
      <trkpt lat="44.46883" lon="6.22333">
        <ele>772</ele>
        <time>2025-11-21T13:58:55.000Z</time>
      </trkpt>
      <trkpt lat="44.46882" lon="6.22335">
        <ele>771</ele>
        <time>2025-11-21T13:58:56.000Z</time>
      </trkpt>
      <trkpt lat="44.46881" lon="6.22336">
        <ele>772</ele>
        <time>2025-11-21T13:58:57.000Z</time>
      </trkpt>
      <trkpt lat="44.4688" lon="6.22337">
        <ele>771</ele>
        <time>2025-11-21T13:58:58.000Z</time>
      </trkpt>
      <trkpt lat="44.4688" lon="6.22338">
        <ele>771</ele>
        <time>2025-11-21T13:58:59.000Z</time>
      </trkpt>
      <trkpt lat="44.4688" lon="6.22339">
        <ele>771</ele>
        <time>2025-11-21T13:59:00.000Z</time>
      </trkpt>
      <trkpt lat="44.46879" lon="6.2234">
        <ele>770</ele>
        <time>2025-11-21T13:59:01.000Z</time>
      </trkpt>
      <trkpt lat="44.4688" lon="6.22341">
        <ele>769</ele>
        <time>2025-11-21T13:59:02.000Z</time>
      </trkpt>
      <trkpt lat="44.4688" lon="6.22342">
        <ele>769</ele>
        <time>2025-11-21T13:59:03.000Z</time>
      </trkpt>
      <trkpt lat="44.46879" lon="6.22343">
        <ele>769</ele>
        <time>2025-11-21T13:59:04.000Z</time>
      </trkpt>
      <trkpt lat="44.46879" lon="6.22343">
        <ele>768</ele>
        <time>2025-11-21T13:59:05.000Z</time>
      </trkpt>
      <trkpt lat="44.46878" lon="6.22341">
        <ele>768</ele>
        <time>2025-11-21T13:59:06.000Z</time>
      </trkpt>
      <trkpt lat="44.46877" lon="6.2234">
        <ele>768</ele>
        <time>2025-11-21T13:59:07.000Z</time>
      </trkpt>
      <trkpt lat="44.46877" lon="6.22339">
        <ele>768</ele>
        <time>2025-11-21T13:59:08.000Z</time>
      </trkpt>
      <trkpt lat="44.46877" lon="6.22338">
        <ele>768</ele>
        <time>2025-11-21T13:59:09.000Z</time>
      </trkpt>
      <trkpt lat="44.46877" lon="6.22337">
        <ele>768</ele>
        <time>2025-11-21T13:59:10.000Z</time>
      </trkpt>
      <trkpt lat="44.46877" lon="6.22336">
        <ele>767</ele>
        <time>2025-11-21T13:59:11.000Z</time>
      </trkpt>
      <trkpt lat="44.46876" lon="6.22335">
        <ele>767</ele>
        <time>2025-11-21T13:59:12.000Z</time>
      </trkpt>
      <trkpt lat="44.46875" lon="6.22335">
        <ele>767</ele>
        <time>2025-11-21T13:59:13.000Z</time>
      </trkpt>
      <trkpt lat="44.46874" lon="6.22337">
        <ele>767</ele>
        <time>2025-11-21T13:59:14.000Z</time>
      </trkpt>
      <trkpt lat="44.46873" lon="6.22338">
        <ele>767</ele>
        <time>2025-11-21T13:59:15.000Z</time>
      </trkpt>
      <trkpt lat="44.46873" lon="6.22338">
        <ele>767</ele>
        <time>2025-11-21T13:59:16.000Z</time>
      </trkpt>
      <trkpt lat="44.46873" lon="6.22339">
        <ele>767</ele>
        <time>2025-11-21T13:59:17.000Z</time>
      </trkpt>
      <trkpt lat="44.46873" lon="6.22339">
        <ele>766</ele>
        <time>2025-11-21T13:59:18.000Z</time>
      </trkpt>
      <trkpt lat="44.46872" lon="6.22339">
        <ele>766</ele>
        <time>2025-11-21T13:59:19.000Z</time>
      </trkpt>
      <trkpt lat="44.46871" lon="6.22338">
        <ele>765</ele>
        <time>2025-11-21T13:59:20.000Z</time>
      </trkpt>
      <trkpt lat="44.4687" lon="6.22337">
        <ele>766</ele>
        <time>2025-11-21T13:59:21.000Z</time>
      </trkpt>
      <trkpt lat="44.4687" lon="6.22337">
        <ele>766</ele>
        <time>2025-11-21T13:59:22.000Z</time>
      </trkpt>
      <trkpt lat="44.46869" lon="6.22338">
        <ele>765</ele>
        <time>2025-11-21T13:59:23.000Z</time>
      </trkpt>
      <trkpt lat="44.46869" lon="6.22338">
        <ele>765</ele>
        <time>2025-11-21T13:59:24.000Z</time>
      </trkpt>
      <trkpt lat="44.46869" lon="6.22339">
        <ele>765</ele>
        <time>2025-11-21T13:59:25.000Z</time>
      </trkpt>
      <trkpt lat="44.46869" lon="6.2234">
        <ele>765</ele>
        <time>2025-11-21T13:59:26.000Z</time>
      </trkpt>
      <trkpt lat="44.4687" lon="6.22341">
        <ele>764</ele>
        <time>2025-11-21T13:59:27.000Z</time>
      </trkpt>
      <trkpt lat="44.4687" lon="6.22341">
        <ele>764</ele>
        <time>2025-11-21T13:59:28.000Z</time>
      </trkpt>
      <trkpt lat="44.46871" lon="6.22341">
        <ele>764</ele>
        <time>2025-11-21T13:59:29.000Z</time>
      </trkpt>
      <trkpt lat="44.46871" lon="6.22342">
        <ele>763</ele>
        <time>2025-11-21T13:59:30.000Z</time>
      </trkpt>
      <trkpt lat="44.46872" lon="6.22343">
        <ele>764</ele>
        <time>2025-11-21T13:59:31.000Z</time>
      </trkpt>
      <trkpt lat="44.46872" lon="6.22344">
        <ele>763</ele>
        <time>2025-11-21T13:59:32.000Z</time>
      </trkpt>
      <trkpt lat="44.46872" lon="6.22345">
        <ele>764</ele>
        <time>2025-11-21T13:59:33.000Z</time>
      </trkpt>
      <trkpt lat="44.46872" lon="6.22345">
        <ele>764</ele>
        <time>2025-11-21T13:59:34.000Z</time>
      </trkpt>
      <trkpt lat="44.46872" lon="6.22346">
        <ele>762</ele>
        <time>2025-11-21T13:59:35.000Z</time>
      </trkpt>
      <trkpt lat="44.46874" lon="6.22349">
        <ele>759</ele>
        <time>2025-11-21T14:00:04.000Z</time>
      </trkpt>
      <trkpt lat="44.46874" lon="6.2235">
        <ele>759</ele>
        <time>2025-11-21T14:00:05.000Z</time>
      </trkpt>
      <trkpt lat="44.46875" lon="6.2235">
        <ele>759</ele>
        <time>2025-11-21T14:00:06.000Z</time>
      </trkpt>
      <trkpt lat="44.46876" lon="6.2235">
        <ele>759</ele>
        <time>2025-11-21T14:00:07.000Z</time>
      </trkpt>
      <trkpt lat="44.46876" lon="6.22351">
        <ele>759</ele>
        <time>2025-11-21T14:00:08.000Z</time>
      </trkpt>
      <trkpt lat="44.46876" lon="6.22351">
        <ele>760</ele>
        <time>2025-11-21T14:00:09.000Z</time>
      </trkpt>
      <trkpt lat="44.46871" lon="6.22358">
        <ele>755</ele>
        <time>2025-11-21T14:00:45.000Z</time>
      </trkpt>
      <trkpt lat="44.46871" lon="6.22359">
        <ele>754</ele>
        <time>2025-11-21T14:00:46.000Z</time>
      </trkpt>
      <trkpt lat="44.46871" lon="6.2236">
        <ele>754</ele>
        <time>2025-11-21T14:00:47.000Z</time>
      </trkpt>
      <trkpt lat="44.46872" lon="6.22361">
        <ele>754</ele>
        <time>2025-11-21T14:00:48.000Z</time>
      </trkpt>
      <trkpt lat="44.46872" lon="6.22361">
        <ele>754</ele>
        <time>2025-11-21T14:00:49.000Z</time>
      </trkpt>
      <trkpt lat="44.46872" lon="6.22361">
        <ele>753</ele>
        <time>2025-11-21T14:00:50.000Z</time>
      </trkpt>
      <trkpt lat="44.46873" lon="6.22362">
        <ele>753</ele>
        <time>2025-11-21T14:00:51.000Z</time>
      </trkpt>
      <trkpt lat="44.46874" lon="6.22363">
        <ele>752</ele>
        <time>2025-11-21T14:00:52.000Z</time>
      </trkpt>
      <trkpt lat="44.46875" lon="6.22364">
        <ele>752</ele>
        <time>2025-11-21T14:00:53.000Z</time>
      </trkpt>
      <trkpt lat="44.46875" lon="6.22364">
        <ele>752</ele>
        <time>2025-11-21T14:00:54.000Z</time>
      </trkpt>
      <trkpt lat="44.46875" lon="6.22364">
        <ele>752</ele>
        <time>2025-11-21T14:00:55.000Z</time>
      </trkpt>
      <trkpt lat="44.46876" lon="6.22366">
        <ele>751</ele>
        <time>2025-11-21T14:00:56.000Z</time>
      </trkpt>
      <trkpt lat="44.46876" lon="6.22367">
        <ele>751</ele>
        <time>2025-11-21T14:00:57.000Z</time>
      </trkpt>
      <trkpt lat="44.46876" lon="6.22367">
        <ele>751</ele>
        <time>2025-11-21T14:00:58.000Z</time>
      </trkpt>
      <trkpt lat="44.46875" lon="6.22367">
        <ele>750</ele>
        <time>2025-11-21T14:00:59.000Z</time>
      </trkpt>
      <trkpt lat="44.46875" lon="6.22368">
        <ele>749</ele>
        <time>2025-11-21T14:01:00.000Z</time>
      </trkpt>
      <trkpt lat="44.46875" lon="6.22367">
        <ele>750</ele>
        <time>2025-11-21T14:01:01.000Z</time>
      </trkpt>
      <trkpt lat="44.46874" lon="6.22367">
        <ele>749</ele>
        <time>2025-11-21T14:01:02.000Z</time>
      </trkpt>
      <trkpt lat="44.46874" lon="6.22367">
        <ele>750</ele>
        <time>2025-11-21T14:01:03.000Z</time>
      </trkpt>
      <trkpt lat="44.46874" lon="6.22367">
        <ele>749</ele>
        <time>2025-11-21T14:01:04.000Z</time>
      </trkpt>
      <trkpt lat="44.46873" lon="6.22367">
        <ele>749</ele>
        <time>2025-11-21T14:01:05.000Z</time>
      </trkpt>
      <trkpt lat="44.46873" lon="6.22367">
        <ele>748</ele>
        <time>2025-11-21T14:01:06.000Z</time>
      </trkpt>
      <trkpt lat="44.46872" lon="6.22368">
        <ele>748</ele>
        <time>2025-11-21T14:01:07.000Z</time>
      </trkpt>
      <trkpt lat="44.46871" lon="6.22368">
        <ele>747</ele>
        <time>2025-11-21T14:01:08.000Z</time>
      </trkpt>
      <trkpt lat="44.46871" lon="6.22369">
        <ele>747</ele>
        <time>2025-11-21T14:01:09.000Z</time>
      </trkpt>
      <trkpt lat="44.4687" lon="6.2237">
        <ele>747</ele>
        <time>2025-11-21T14:01:10.000Z</time>
      </trkpt>
      <trkpt lat="44.4687" lon="6.22371">
        <ele>747</ele>
        <time>2025-11-21T14:01:11.000Z</time>
      </trkpt>
      <trkpt lat="44.46869" lon="6.22372">
        <ele>746</ele>
        <time>2025-11-21T14:01:12.000Z</time>
      </trkpt>
      <trkpt lat="44.46868" lon="6.22372">
        <ele>745</ele>
        <time>2025-11-21T14:01:13.000Z</time>
      </trkpt>
      <trkpt lat="44.46868" lon="6.22372">
        <ele>745</ele>
        <time>2025-11-21T14:01:14.000Z</time>
      </trkpt>
      <trkpt lat="44.46867" lon="6.22372">
        <ele>745</ele>
        <time>2025-11-21T14:01:15.000Z</time>
      </trkpt>
      <trkpt lat="44.46866" lon="6.22374">
        <ele>744</ele>
        <time>2025-11-21T14:01:16.000Z</time>
      </trkpt>
      <trkpt lat="44.46865" lon="6.22375">
        <ele>744</ele>
        <time>2025-11-21T14:01:17.000Z</time>
      </trkpt>
      <trkpt lat="44.46865" lon="6.22376">
        <ele>745</ele>
        <time>2025-11-21T14:01:18.000Z</time>
      </trkpt>
      <trkpt lat="44.46865" lon="6.22376">
        <ele>745</ele>
        <time>2025-11-21T14:01:19.000Z</time>
      </trkpt>
      <trkpt lat="44.46865" lon="6.22376">
        <ele>745</ele>
        <time>2025-11-21T14:01:20.000Z</time>
      </trkpt>
      <trkpt lat="44.46865" lon="6.22377">
        <ele>746</ele>
        <time>2025-11-21T14:01:21.000Z</time>
      </trkpt>
      <trkpt lat="44.46865" lon="6.22378">
        <ele>746</ele>
        <time>2025-11-21T14:01:22.000Z</time>
      </trkpt>
      <trkpt lat="44.46865" lon="6.2238">
        <ele>746</ele>
        <time>2025-11-21T14:01:23.000Z</time>
      </trkpt>
      <trkpt lat="44.46865" lon="6.22381">
        <ele>746</ele>
        <time>2025-11-21T14:01:24.000Z</time>
      </trkpt>
      <trkpt lat="44.46864" lon="6.22382">
        <ele>746</ele>
        <time>2025-11-21T14:01:25.000Z</time>
      </trkpt>
      <trkpt lat="44.46864" lon="6.22383">
        <ele>745</ele>
        <time>2025-11-21T14:01:26.000Z</time>
      </trkpt>
      <trkpt lat="44.46864" lon="6.22384">
        <ele>745</ele>
        <time>2025-11-21T14:01:27.000Z</time>
      </trkpt>
      <trkpt lat="44.46864" lon="6.22384">
        <ele>745</ele>
        <time>2025-11-21T14:01:28.000Z</time>
      </trkpt>
      <trkpt lat="44.46864" lon="6.22385">
        <ele>746</ele>
        <time>2025-11-21T14:01:29.000Z</time>
      </trkpt>
      <trkpt lat="44.46864" lon="6.22386">
        <ele>745</ele>
        <time>2025-11-21T14:01:30.000Z</time>
      </trkpt>
      <trkpt lat="44.46864" lon="6.22388">
        <ele>745</ele>
        <time>2025-11-21T14:01:31.000Z</time>
      </trkpt>
      <trkpt lat="44.46863" lon="6.22389">
        <ele>745</ele>
        <time>2025-11-21T14:01:32.000Z</time>
      </trkpt>
      <trkpt lat="44.46864" lon="6.22391">
        <ele>745</ele>
        <time>2025-11-21T14:01:33.000Z</time>
      </trkpt>
      <trkpt lat="44.46864" lon="6.22392">
        <ele>745</ele>
        <time>2025-11-21T14:01:34.000Z</time>
      </trkpt>
      <trkpt lat="44.46864" lon="6.22393">
        <ele>745</ele>
        <time>2025-11-21T14:01:35.000Z</time>
      </trkpt>
      <trkpt lat="44.46864" lon="6.22394">
        <ele>745</ele>
        <time>2025-11-21T14:01:36.000Z</time>
      </trkpt>
      <trkpt lat="44.46864" lon="6.22395">
        <ele>745</ele>
        <time>2025-11-21T14:01:37.000Z</time>
      </trkpt>
      <trkpt lat="44.46864" lon="6.22398">
        <ele>744</ele>
        <time>2025-11-21T14:01:38.000Z</time>
      </trkpt>
      <trkpt lat="44.46864" lon="6.22398">
        <ele>744</ele>
        <time>2025-11-21T14:01:39.000Z</time>
      </trkpt>
      <trkpt lat="44.46864" lon="6.22399">
        <ele>743</ele>
        <time>2025-11-21T14:01:40.000Z</time>
      </trkpt>
      <trkpt lat="44.46864" lon="6.22399">
        <ele>743</ele>
        <time>2025-11-21T14:01:41.000Z</time>
      </trkpt>
      <trkpt lat="44.46865" lon="6.224">
        <ele>743</ele>
        <time>2025-11-21T14:01:42.000Z</time>
      </trkpt>
      <trkpt lat="44.46864" lon="6.22402">
        <ele>744</ele>
        <time>2025-11-21T14:01:43.000Z</time>
      </trkpt>
      <trkpt lat="44.46864" lon="6.22403">
        <ele>743</ele>
        <time>2025-11-21T14:01:44.000Z</time>
      </trkpt>
      <trkpt lat="44.46863" lon="6.22405">
        <ele>744</ele>
        <time>2025-11-21T14:01:45.000Z</time>
      </trkpt>
      <trkpt lat="44.46863" lon="6.22407">
        <ele>745</ele>
        <time>2025-11-21T14:01:46.000Z</time>
      </trkpt>
      <trkpt lat="44.46864" lon="6.22408">
        <ele>745</ele>
        <time>2025-11-21T14:01:47.000Z</time>
      </trkpt>
      <trkpt lat="44.46864" lon="6.2241">
        <ele>746</ele>
        <time>2025-11-21T14:01:48.000Z</time>
      </trkpt>
      <trkpt lat="44.46864" lon="6.22412">
        <ele>746</ele>
        <time>2025-11-21T14:01:49.000Z</time>
      </trkpt>
      <trkpt lat="44.46863" lon="6.22414">
        <ele>746</ele>
        <time>2025-11-21T14:01:50.000Z</time>
      </trkpt>
      <trkpt lat="44.46862" lon="6.22416">
        <ele>747</ele>
        <time>2025-11-21T14:01:51.000Z</time>
      </trkpt>
      <trkpt lat="44.46862" lon="6.22417">
        <ele>747</ele>
        <time>2025-11-21T14:01:52.000Z</time>
      </trkpt>
      <trkpt lat="44.46862" lon="6.22419">
        <ele>747</ele>
        <time>2025-11-21T14:01:53.000Z</time>
      </trkpt>
      <trkpt lat="44.46861" lon="6.22421">
        <ele>747</ele>
        <time>2025-11-21T14:01:54.000Z</time>
      </trkpt>
      <trkpt lat="44.4686" lon="6.22423">
        <ele>747</ele>
        <time>2025-11-21T14:01:55.000Z</time>
      </trkpt>
      <trkpt lat="44.4686" lon="6.22425">
        <ele>748</ele>
        <time>2025-11-21T14:01:56.000Z</time>
      </trkpt>
      <trkpt lat="44.46859" lon="6.22427">
        <ele>748</ele>
        <time>2025-11-21T14:01:57.000Z</time>
      </trkpt>
      <trkpt lat="44.46858" lon="6.22428">
        <ele>748</ele>
        <time>2025-11-21T14:01:58.000Z</time>
      </trkpt>
      <trkpt lat="44.46858" lon="6.2243">
        <ele>748</ele>
        <time>2025-11-21T14:01:59.000Z</time>
      </trkpt>
      <trkpt lat="44.46857" lon="6.22431">
        <ele>748</ele>
        <time>2025-11-21T14:02:00.000Z</time>
      </trkpt>
      <trkpt lat="44.46857" lon="6.22433">
        <ele>749</ele>
        <time>2025-11-21T14:02:01.000Z</time>
      </trkpt>
      <trkpt lat="44.46856" lon="6.22434">
        <ele>749</ele>
        <time>2025-11-21T14:02:02.000Z</time>
      </trkpt>
      <trkpt lat="44.46856" lon="6.22436">
        <ele>749</ele>
        <time>2025-11-21T14:02:03.000Z</time>
      </trkpt>
      <trkpt lat="44.46855" lon="6.22437">
        <ele>749</ele>
        <time>2025-11-21T14:02:04.000Z</time>
      </trkpt>
      <trkpt lat="44.46855" lon="6.22439">
        <ele>750</ele>
        <time>2025-11-21T14:02:05.000Z</time>
      </trkpt>
      <trkpt lat="44.46855" lon="6.22441">
        <ele>750</ele>
        <time>2025-11-21T14:02:06.000Z</time>
      </trkpt>
      <trkpt lat="44.46854" lon="6.22442">
        <ele>750</ele>
        <time>2025-11-21T14:02:07.000Z</time>
      </trkpt>
      <trkpt lat="44.46854" lon="6.22444">
        <ele>750</ele>
        <time>2025-11-21T14:02:08.000Z</time>
      </trkpt>
      <trkpt lat="44.46854" lon="6.22445">
        <ele>750</ele>
        <time>2025-11-21T14:02:09.000Z</time>
      </trkpt>
      <trkpt lat="44.46854" lon="6.22447">
        <ele>749</ele>
        <time>2025-11-21T14:02:10.000Z</time>
      </trkpt>
      <trkpt lat="44.46854" lon="6.22449">
        <ele>748</ele>
        <time>2025-11-21T14:02:11.000Z</time>
      </trkpt>
      <trkpt lat="44.46854" lon="6.2245">
        <ele>748</ele>
        <time>2025-11-21T14:02:12.000Z</time>
      </trkpt>
      <trkpt lat="44.46853" lon="6.22452">
        <ele>748</ele>
        <time>2025-11-21T14:02:13.000Z</time>
      </trkpt>
      <trkpt lat="44.46854" lon="6.22454">
        <ele>748</ele>
        <time>2025-11-21T14:02:14.000Z</time>
      </trkpt>
      <trkpt lat="44.46854" lon="6.22455">
        <ele>748</ele>
        <time>2025-11-21T14:02:15.000Z</time>
      </trkpt>
      <trkpt lat="44.46854" lon="6.22456">
        <ele>748</ele>
        <time>2025-11-21T14:02:16.000Z</time>
      </trkpt>
      <trkpt lat="44.46855" lon="6.22459">
        <ele>747</ele>
        <time>2025-11-21T14:02:17.000Z</time>
      </trkpt>
      <trkpt lat="44.46855" lon="6.2246">
        <ele>747</ele>
        <time>2025-11-21T14:02:18.000Z</time>
      </trkpt>
      <trkpt lat="44.46856" lon="6.22462">
        <ele>747</ele>
        <time>2025-11-21T14:02:19.000Z</time>
      </trkpt>
      <trkpt lat="44.46856" lon="6.22463">
        <ele>747</ele>
        <time>2025-11-21T14:02:20.000Z</time>
      </trkpt>
      <trkpt lat="44.46856" lon="6.22465">
        <ele>746</ele>
        <time>2025-11-21T14:02:21.000Z</time>
      </trkpt>
      <trkpt lat="44.46856" lon="6.22466">
        <ele>746</ele>
        <time>2025-11-21T14:02:22.000Z</time>
      </trkpt>
      <trkpt lat="44.46855" lon="6.22468">
        <ele>746</ele>
        <time>2025-11-21T14:02:23.000Z</time>
      </trkpt>
      <trkpt lat="44.46855" lon="6.22469">
        <ele>746</ele>
        <time>2025-11-21T14:02:24.000Z</time>
      </trkpt>
      <trkpt lat="44.46854" lon="6.22471">
        <ele>746</ele>
        <time>2025-11-21T14:02:25.000Z</time>
      </trkpt>
      <trkpt lat="44.46853" lon="6.22472">
        <ele>746</ele>
        <time>2025-11-21T14:02:26.000Z</time>
      </trkpt>
      <trkpt lat="44.46853" lon="6.22473">
        <ele>747</ele>
        <time>2025-11-21T14:02:27.000Z</time>
      </trkpt>
      <trkpt lat="44.46853" lon="6.22475">
        <ele>746</ele>
        <time>2025-11-21T14:02:28.000Z</time>
      </trkpt>
      <trkpt lat="44.46853" lon="6.22477">
        <ele>746</ele>
        <time>2025-11-21T14:02:29.000Z</time>
      </trkpt>
      <trkpt lat="44.46852" lon="6.22478">
        <ele>746</ele>
        <time>2025-11-21T14:02:30.000Z</time>
      </trkpt>
      <trkpt lat="44.46852" lon="6.2248">
        <ele>746</ele>
        <time>2025-11-21T14:02:31.000Z</time>
      </trkpt>
      <trkpt lat="44.46852" lon="6.22482">
        <ele>746</ele>
        <time>2025-11-21T14:02:32.000Z</time>
      </trkpt>
      <trkpt lat="44.46852" lon="6.22485">
        <ele>746</ele>
        <time>2025-11-21T14:02:33.000Z</time>
      </trkpt>
      <trkpt lat="44.46852" lon="6.22486">
        <ele>746</ele>
        <time>2025-11-21T14:02:34.000Z</time>
      </trkpt>
      <trkpt lat="44.46852" lon="6.22488">
        <ele>745</ele>
        <time>2025-11-21T14:02:35.000Z</time>
      </trkpt>
      <trkpt lat="44.46852" lon="6.2249">
        <ele>746</ele>
        <time>2025-11-21T14:02:36.000Z</time>
      </trkpt>
      <trkpt lat="44.46852" lon="6.22491">
        <ele>746</ele>
        <time>2025-11-21T14:02:37.000Z</time>
      </trkpt>
      <trkpt lat="44.46852" lon="6.22493">
        <ele>746</ele>
        <time>2025-11-21T14:02:38.000Z</time>
      </trkpt>
      <trkpt lat="44.46851" lon="6.22495">
        <ele>746</ele>
        <time>2025-11-21T14:02:39.000Z</time>
      </trkpt>
      <trkpt lat="44.46851" lon="6.22496">
        <ele>746</ele>
        <time>2025-11-21T14:02:40.000Z</time>
      </trkpt>
      <trkpt lat="44.46851" lon="6.22498">
        <ele>747</ele>
        <time>2025-11-21T14:02:41.000Z</time>
      </trkpt>
      <trkpt lat="44.46851" lon="6.22499">
        <ele>748</ele>
        <time>2025-11-21T14:02:42.000Z</time>
      </trkpt>
      <trkpt lat="44.4685" lon="6.225">
        <ele>748</ele>
        <time>2025-11-21T14:02:43.000Z</time>
      </trkpt>
      <trkpt lat="44.4685" lon="6.22501">
        <ele>748</ele>
        <time>2025-11-21T14:02:44.000Z</time>
      </trkpt>
      <trkpt lat="44.4685" lon="6.22503">
        <ele>747</ele>
        <time>2025-11-21T14:02:45.000Z</time>
      </trkpt>
      <trkpt lat="44.4685" lon="6.22505">
        <ele>747</ele>
        <time>2025-11-21T14:02:46.000Z</time>
      </trkpt>
      <trkpt lat="44.4685" lon="6.22507">
        <ele>747</ele>
        <time>2025-11-21T14:02:47.000Z</time>
      </trkpt>
      <trkpt lat="44.46849" lon="6.22508">
        <ele>746</ele>
        <time>2025-11-21T14:02:48.000Z</time>
      </trkpt>
      <trkpt lat="44.46849" lon="6.2251">
        <ele>746</ele>
        <time>2025-11-21T14:02:49.000Z</time>
      </trkpt>
      <trkpt lat="44.46848" lon="6.22511">
        <ele>746</ele>
        <time>2025-11-21T14:02:50.000Z</time>
      </trkpt>
      <trkpt lat="44.46847" lon="6.22513">
        <ele>746</ele>
        <time>2025-11-21T14:02:51.000Z</time>
      </trkpt>
      <trkpt lat="44.46847" lon="6.22514">
        <ele>746</ele>
        <time>2025-11-21T14:02:52.000Z</time>
      </trkpt>
      <trkpt lat="44.46847" lon="6.22516">
        <ele>746</ele>
        <time>2025-11-21T14:02:53.000Z</time>
      </trkpt>
      <trkpt lat="44.46847" lon="6.22518">
        <ele>746</ele>
        <time>2025-11-21T14:02:54.000Z</time>
      </trkpt>
      <trkpt lat="44.46847" lon="6.2252">
        <ele>745</ele>
        <time>2025-11-21T14:02:55.000Z</time>
      </trkpt>
      <trkpt lat="44.46847" lon="6.22521">
        <ele>745</ele>
        <time>2025-11-21T14:02:56.000Z</time>
      </trkpt>
      <trkpt lat="44.46847" lon="6.22523">
        <ele>745</ele>
        <time>2025-11-21T14:02:57.000Z</time>
      </trkpt>
      <trkpt lat="44.46847" lon="6.22525">
        <ele>744</ele>
        <time>2025-11-21T14:02:58.000Z</time>
      </trkpt>
      <trkpt lat="44.46846" lon="6.22526">
        <ele>744</ele>
        <time>2025-11-21T14:02:59.000Z</time>
      </trkpt>
      <trkpt lat="44.46845" lon="6.22528">
        <ele>744</ele>
        <time>2025-11-21T14:03:00.000Z</time>
      </trkpt>
      <trkpt lat="44.46844" lon="6.2253">
        <ele>744</ele>
        <time>2025-11-21T14:03:01.000Z</time>
      </trkpt>
      <trkpt lat="44.46844" lon="6.22532">
        <ele>744</ele>
        <time>2025-11-21T14:03:02.000Z</time>
      </trkpt>
      <trkpt lat="44.46844" lon="6.22533">
        <ele>744</ele>
        <time>2025-11-21T14:03:03.000Z</time>
      </trkpt>
      <trkpt lat="44.46845" lon="6.22535">
        <ele>745</ele>
        <time>2025-11-21T14:03:04.000Z</time>
      </trkpt>
      <trkpt lat="44.46845" lon="6.22538">
        <ele>745</ele>
        <time>2025-11-21T14:03:05.000Z</time>
      </trkpt>
      <trkpt lat="44.46844" lon="6.22539">
        <ele>745</ele>
        <time>2025-11-21T14:03:06.000Z</time>
      </trkpt>
      <trkpt lat="44.46845" lon="6.2254">
        <ele>745</ele>
        <time>2025-11-21T14:03:07.000Z</time>
      </trkpt>
      <trkpt lat="44.46845" lon="6.22542">
        <ele>746</ele>
        <time>2025-11-21T14:03:08.000Z</time>
      </trkpt>
      <trkpt lat="44.46845" lon="6.22544">
        <ele>746</ele>
        <time>2025-11-21T14:03:09.000Z</time>
      </trkpt>
      <trkpt lat="44.46846" lon="6.22545">
        <ele>746</ele>
        <time>2025-11-21T14:03:10.000Z</time>
      </trkpt>
      <trkpt lat="44.46847" lon="6.22546">
        <ele>745</ele>
        <time>2025-11-21T14:03:11.000Z</time>
      </trkpt>
      <trkpt lat="44.46848" lon="6.22548">
        <ele>744</ele>
        <time>2025-11-21T14:03:12.000Z</time>
      </trkpt>
      <trkpt lat="44.46848" lon="6.2255">
        <ele>745</ele>
        <time>2025-11-21T14:03:13.000Z</time>
      </trkpt>
      <trkpt lat="44.46849" lon="6.22551">
        <ele>744</ele>
        <time>2025-11-21T14:03:14.000Z</time>
      </trkpt>
      <trkpt lat="44.4685" lon="6.22553">
        <ele>744</ele>
        <time>2025-11-21T14:03:15.000Z</time>
      </trkpt>
      <trkpt lat="44.46851" lon="6.22554">
        <ele>744</ele>
        <time>2025-11-21T14:03:16.000Z</time>
      </trkpt>
      <trkpt lat="44.46851" lon="6.22555">
        <ele>744</ele>
        <time>2025-11-21T14:03:17.000Z</time>
      </trkpt>
      <trkpt lat="44.46852" lon="6.22556">
        <ele>744</ele>
        <time>2025-11-21T14:03:18.000Z</time>
      </trkpt>
      <trkpt lat="44.46854" lon="6.22556">
        <ele>744</ele>
        <time>2025-11-21T14:03:19.000Z</time>
      </trkpt>
      <trkpt lat="44.46854" lon="6.22557">
        <ele>743</ele>
        <time>2025-11-21T14:03:20.000Z</time>
      </trkpt>
      <trkpt lat="44.46855" lon="6.22558">
        <ele>743</ele>
        <time>2025-11-21T14:03:21.000Z</time>
      </trkpt>
      <trkpt lat="44.46856" lon="6.22559">
        <ele>743</ele>
        <time>2025-11-21T14:03:22.000Z</time>
      </trkpt>
      <trkpt lat="44.46857" lon="6.2256">
        <ele>742</ele>
        <time>2025-11-21T14:03:23.000Z</time>
      </trkpt>
      <trkpt lat="44.46857" lon="6.22562">
        <ele>743</ele>
        <time>2025-11-21T14:03:24.000Z</time>
      </trkpt>
      <trkpt lat="44.46857" lon="6.22563">
        <ele>742</ele>
        <time>2025-11-21T14:03:25.000Z</time>
      </trkpt>
      <trkpt lat="44.46857" lon="6.22564">
        <ele>743</ele>
        <time>2025-11-21T14:03:26.000Z</time>
      </trkpt>
      <trkpt lat="44.46858" lon="6.22565">
        <ele>743</ele>
        <time>2025-11-21T14:03:27.000Z</time>
      </trkpt>
      <trkpt lat="44.46858" lon="6.22567">
        <ele>743</ele>
        <time>2025-11-21T14:03:28.000Z</time>
      </trkpt>
      <trkpt lat="44.4686" lon="6.22568">
        <ele>742</ele>
        <time>2025-11-21T14:03:29.000Z</time>
      </trkpt>
      <trkpt lat="44.46861" lon="6.22569">
        <ele>742</ele>
        <time>2025-11-21T14:03:30.000Z</time>
      </trkpt>
      <trkpt lat="44.46862" lon="6.2257">
        <ele>743</ele>
        <time>2025-11-21T14:03:31.000Z</time>
      </trkpt>
      <trkpt lat="44.46863" lon="6.22571">
        <ele>742</ele>
        <time>2025-11-21T14:03:32.000Z</time>
      </trkpt>
      <trkpt lat="44.46864" lon="6.22572">
        <ele>742</ele>
        <time>2025-11-21T14:03:33.000Z</time>
      </trkpt>
      <trkpt lat="44.46866" lon="6.22573">
        <ele>742</ele>
        <time>2025-11-21T14:03:34.000Z</time>
      </trkpt>
      <trkpt lat="44.46866" lon="6.22574">
        <ele>742</ele>
        <time>2025-11-21T14:03:35.000Z</time>
      </trkpt>
      <trkpt lat="44.46867" lon="6.22576">
        <ele>743</ele>
        <time>2025-11-21T14:03:36.000Z</time>
      </trkpt>
      <trkpt lat="44.46868" lon="6.22577">
        <ele>743</ele>
        <time>2025-11-21T14:03:37.000Z</time>
      </trkpt>
      <trkpt lat="44.46869" lon="6.22578">
        <ele>743</ele>
        <time>2025-11-21T14:03:38.000Z</time>
      </trkpt>
      <trkpt lat="44.46869" lon="6.22579">
        <ele>743</ele>
        <time>2025-11-21T14:03:39.000Z</time>
      </trkpt>
      <trkpt lat="44.4687" lon="6.2258">
        <ele>743</ele>
        <time>2025-11-21T14:03:40.000Z</time>
      </trkpt>
      <trkpt lat="44.46871" lon="6.22581">
        <ele>744</ele>
        <time>2025-11-21T14:03:41.000Z</time>
      </trkpt>
      <trkpt lat="44.46872" lon="6.22582">
        <ele>745</ele>
        <time>2025-11-21T14:03:42.000Z</time>
      </trkpt>
      <trkpt lat="44.46872" lon="6.22584">
        <ele>744</ele>
        <time>2025-11-21T14:03:43.000Z</time>
      </trkpt>
      <trkpt lat="44.46874" lon="6.22585">
        <ele>744</ele>
        <time>2025-11-21T14:03:44.000Z</time>
      </trkpt>
      <trkpt lat="44.46875" lon="6.22586">
        <ele>744</ele>
        <time>2025-11-21T14:03:45.000Z</time>
      </trkpt>
      <trkpt lat="44.46875" lon="6.22588">
        <ele>744</ele>
        <time>2025-11-21T14:03:46.000Z</time>
      </trkpt>
      <trkpt lat="44.46876" lon="6.22589">
        <ele>745</ele>
        <time>2025-11-21T14:03:47.000Z</time>
      </trkpt>
      <trkpt lat="44.46877" lon="6.22591">
        <ele>745</ele>
        <time>2025-11-21T14:03:48.000Z</time>
      </trkpt>
      <trkpt lat="44.46878" lon="6.22592">
        <ele>744</ele>
        <time>2025-11-21T14:03:49.000Z</time>
      </trkpt>
      <trkpt lat="44.46879" lon="6.22593">
        <ele>744</ele>
        <time>2025-11-21T14:03:50.000Z</time>
      </trkpt>
      <trkpt lat="44.4688" lon="6.22594">
        <ele>745</ele>
        <time>2025-11-21T14:03:51.000Z</time>
      </trkpt>
      <trkpt lat="44.4688" lon="6.22596">
        <ele>745</ele>
        <time>2025-11-21T14:03:52.000Z</time>
      </trkpt>
      <trkpt lat="44.4688" lon="6.22597">
        <ele>746</ele>
        <time>2025-11-21T14:03:53.000Z</time>
      </trkpt>
      <trkpt lat="44.46881" lon="6.22599">
        <ele>746</ele>
        <time>2025-11-21T14:03:54.000Z</time>
      </trkpt>
      <trkpt lat="44.46882" lon="6.226">
        <ele>746</ele>
        <time>2025-11-21T14:03:55.000Z</time>
      </trkpt>
      <trkpt lat="44.46883" lon="6.226">
        <ele>745</ele>
        <time>2025-11-21T14:03:56.000Z</time>
      </trkpt>
      <trkpt lat="44.46883" lon="6.22601">
        <ele>745</ele>
        <time>2025-11-21T14:03:57.000Z</time>
      </trkpt>
      <trkpt lat="44.46884" lon="6.22603">
        <ele>745</ele>
        <time>2025-11-21T14:03:58.000Z</time>
      </trkpt>
      <trkpt lat="44.46885" lon="6.22605">
        <ele>745</ele>
        <time>2025-11-21T14:03:59.000Z</time>
      </trkpt>
      <trkpt lat="44.46886" lon="6.22606">
        <ele>746</ele>
        <time>2025-11-21T14:04:00.000Z</time>
      </trkpt>
      <trkpt lat="44.46886" lon="6.22607">
        <ele>746</ele>
        <time>2025-11-21T14:04:01.000Z</time>
      </trkpt>
      <trkpt lat="44.46887" lon="6.22607">
        <ele>746</ele>
        <time>2025-11-21T14:04:02.000Z</time>
      </trkpt>
      <trkpt lat="44.46888" lon="6.22608">
        <ele>746</ele>
        <time>2025-11-21T14:04:03.000Z</time>
      </trkpt>
      <trkpt lat="44.46889" lon="6.22609">
        <ele>746</ele>
        <time>2025-11-21T14:04:04.000Z</time>
      </trkpt>
      <trkpt lat="44.4689" lon="6.2261">
        <ele>746</ele>
        <time>2025-11-21T14:04:05.000Z</time>
      </trkpt>
      <trkpt lat="44.46891" lon="6.22611">
        <ele>746</ele>
        <time>2025-11-21T14:04:06.000Z</time>
      </trkpt>
      <trkpt lat="44.46892" lon="6.22613">
        <ele>745</ele>
        <time>2025-11-21T14:04:07.000Z</time>
      </trkpt>
      <trkpt lat="44.46893" lon="6.22614">
        <ele>745</ele>
        <time>2025-11-21T14:04:08.000Z</time>
      </trkpt>
      <trkpt lat="44.46893" lon="6.22615">
        <ele>746</ele>
        <time>2025-11-21T14:04:09.000Z</time>
      </trkpt>
      <trkpt lat="44.46892" lon="6.22616">
        <ele>746</ele>
        <time>2025-11-21T14:04:10.000Z</time>
      </trkpt>
      <trkpt lat="44.46892" lon="6.22618">
        <ele>746</ele>
        <time>2025-11-21T14:04:11.000Z</time>
      </trkpt>
      <trkpt lat="44.46892" lon="6.2262">
        <ele>746</ele>
        <time>2025-11-21T14:04:12.000Z</time>
      </trkpt>
      <trkpt lat="44.46892" lon="6.22622">
        <ele>746</ele>
        <time>2025-11-21T14:04:13.000Z</time>
      </trkpt>
      <trkpt lat="44.46893" lon="6.22622">
        <ele>746</ele>
        <time>2025-11-21T14:04:14.000Z</time>
      </trkpt>
      <trkpt lat="44.46894" lon="6.22624">
        <ele>746</ele>
        <time>2025-11-21T14:04:15.000Z</time>
      </trkpt>
      <trkpt lat="44.46894" lon="6.22626">
        <ele>745</ele>
        <time>2025-11-21T14:04:16.000Z</time>
      </trkpt>
      <trkpt lat="44.46895" lon="6.22628">
        <ele>745</ele>
        <time>2025-11-21T14:04:17.000Z</time>
      </trkpt>
      <trkpt lat="44.46895" lon="6.2263">
        <ele>745</ele>
        <time>2025-11-21T14:04:18.000Z</time>
      </trkpt>
      <trkpt lat="44.46895" lon="6.22633">
        <ele>744</ele>
        <time>2025-11-21T14:04:19.000Z</time>
      </trkpt>
      <trkpt lat="44.46895" lon="6.22635">
        <ele>745</ele>
        <time>2025-11-21T14:04:20.000Z</time>
      </trkpt>
      <trkpt lat="44.46895" lon="6.22637">
        <ele>745</ele>
        <time>2025-11-21T14:04:21.000Z</time>
      </trkpt>
      <trkpt lat="44.46896" lon="6.22639">
        <ele>745</ele>
        <time>2025-11-21T14:04:22.000Z</time>
      </trkpt>
      <trkpt lat="44.46896" lon="6.22641">
        <ele>746</ele>
        <time>2025-11-21T14:04:23.000Z</time>
      </trkpt>
      <trkpt lat="44.46896" lon="6.22642">
        <ele>746</ele>
        <time>2025-11-21T14:04:24.000Z</time>
      </trkpt>
      <trkpt lat="44.46896" lon="6.22644">
        <ele>746</ele>
        <time>2025-11-21T14:04:25.000Z</time>
      </trkpt>
      <trkpt lat="44.46897" lon="6.22645">
        <ele>747</ele>
        <time>2025-11-21T14:04:26.000Z</time>
      </trkpt>
      <trkpt lat="44.46897" lon="6.22645">
        <ele>747</ele>
        <time>2025-11-21T14:04:27.000Z</time>
      </trkpt>
      <trkpt lat="44.46898" lon="6.22647">
        <ele>747</ele>
        <time>2025-11-21T14:04:28.000Z</time>
      </trkpt>
      <trkpt lat="44.46899" lon="6.22648">
        <ele>747</ele>
        <time>2025-11-21T14:04:29.000Z</time>
      </trkpt>
      <trkpt lat="44.46899" lon="6.2265">
        <ele>748</ele>
        <time>2025-11-21T14:04:30.000Z</time>
      </trkpt>
      <trkpt lat="44.469" lon="6.22652">
        <ele>747</ele>
        <time>2025-11-21T14:04:31.000Z</time>
      </trkpt>
      <trkpt lat="44.469" lon="6.22653">
        <ele>748</ele>
        <time>2025-11-21T14:04:32.000Z</time>
      </trkpt>
      <trkpt lat="44.469" lon="6.22654">
        <ele>747</ele>
        <time>2025-11-21T14:04:33.000Z</time>
      </trkpt>
      <trkpt lat="44.469" lon="6.22656">
        <ele>747</ele>
        <time>2025-11-21T14:04:34.000Z</time>
      </trkpt>
      <trkpt lat="44.469" lon="6.22657">
        <ele>746</ele>
        <time>2025-11-21T14:04:35.000Z</time>
      </trkpt>
      <trkpt lat="44.469" lon="6.22659">
        <ele>747</ele>
        <time>2025-11-21T14:04:36.000Z</time>
      </trkpt>
      <trkpt lat="44.469" lon="6.22661">
        <ele>746</ele>
        <time>2025-11-21T14:04:37.000Z</time>
      </trkpt>
      <trkpt lat="44.46899" lon="6.22663">
        <ele>746</ele>
        <time>2025-11-21T14:04:38.000Z</time>
      </trkpt>
      <trkpt lat="44.46899" lon="6.22664">
        <ele>746</ele>
        <time>2025-11-21T14:04:39.000Z</time>
      </trkpt>
      <trkpt lat="44.46899" lon="6.22666">
        <ele>747</ele>
        <time>2025-11-21T14:04:40.000Z</time>
      </trkpt>
      <trkpt lat="44.469" lon="6.22667">
        <ele>747</ele>
        <time>2025-11-21T14:04:41.000Z</time>
      </trkpt>
      <trkpt lat="44.46901" lon="6.22667">
        <ele>747</ele>
        <time>2025-11-21T14:04:42.000Z</time>
      </trkpt>
      <trkpt lat="44.46901" lon="6.22669">
        <ele>746</ele>
        <time>2025-11-21T14:04:43.000Z</time>
      </trkpt>
      <trkpt lat="44.46902" lon="6.22669">
        <ele>746</ele>
        <time>2025-11-21T14:04:44.000Z</time>
      </trkpt>
      <trkpt lat="44.46903" lon="6.22671">
        <ele>746</ele>
        <time>2025-11-21T14:04:45.000Z</time>
      </trkpt>
      <trkpt lat="44.46904" lon="6.22672">
        <ele>745</ele>
        <time>2025-11-21T14:04:46.000Z</time>
      </trkpt>
      <trkpt lat="44.46905" lon="6.22674">
        <ele>745</ele>
        <time>2025-11-21T14:04:47.000Z</time>
      </trkpt>
      <trkpt lat="44.46905" lon="6.22675">
        <ele>745</ele>
        <time>2025-11-21T14:04:48.000Z</time>
      </trkpt>
      <trkpt lat="44.46906" lon="6.22677">
        <ele>745</ele>
        <time>2025-11-21T14:04:49.000Z</time>
      </trkpt>
      <trkpt lat="44.46906" lon="6.2268">
        <ele>746</ele>
        <time>2025-11-21T14:04:50.000Z</time>
      </trkpt>
      <trkpt lat="44.46905" lon="6.22683">
        <ele>746</ele>
        <time>2025-11-21T14:04:51.000Z</time>
      </trkpt>
      <trkpt lat="44.46905" lon="6.22685">
        <ele>746</ele>
        <time>2025-11-21T14:04:52.000Z</time>
      </trkpt>
      <trkpt lat="44.46906" lon="6.22687">
        <ele>746</ele>
        <time>2025-11-21T14:04:53.000Z</time>
      </trkpt>
      <trkpt lat="44.46908" lon="6.22688">
        <ele>746</ele>
        <time>2025-11-21T14:04:54.000Z</time>
      </trkpt>
      <trkpt lat="44.46908" lon="6.22688">
        <ele>745</ele>
        <time>2025-11-21T14:04:55.000Z</time>
      </trkpt>
      <trkpt lat="44.46908" lon="6.22689">
        <ele>746</ele>
        <time>2025-11-21T14:04:56.000Z</time>
      </trkpt>
      <trkpt lat="44.46908" lon="6.2269">
        <ele>746</ele>
        <time>2025-11-21T14:04:57.000Z</time>
      </trkpt>
      <trkpt lat="44.46908" lon="6.22692">
        <ele>746</ele>
        <time>2025-11-21T14:04:58.000Z</time>
      </trkpt>
      <trkpt lat="44.46908" lon="6.22693">
        <ele>747</ele>
        <time>2025-11-21T14:04:59.000Z</time>
      </trkpt>
      <trkpt lat="44.46908" lon="6.22695">
        <ele>748</ele>
        <time>2025-11-21T14:05:00.000Z</time>
      </trkpt>
      <trkpt lat="44.46907" lon="6.22698">
        <ele>749</ele>
        <time>2025-11-21T14:05:01.000Z</time>
      </trkpt>
      <trkpt lat="44.46906" lon="6.227">
        <ele>749</ele>
        <time>2025-11-21T14:05:02.000Z</time>
      </trkpt>
      <trkpt lat="44.46906" lon="6.22702">
        <ele>750</ele>
        <time>2025-11-21T14:05:03.000Z</time>
      </trkpt>
      <trkpt lat="44.46907" lon="6.22703">
        <ele>750</ele>
        <time>2025-11-21T14:05:04.000Z</time>
      </trkpt>
      <trkpt lat="44.46907" lon="6.22704">
        <ele>750</ele>
        <time>2025-11-21T14:05:05.000Z</time>
      </trkpt>
      <trkpt lat="44.46907" lon="6.22706">
        <ele>750</ele>
        <time>2025-11-21T14:05:06.000Z</time>
      </trkpt>
      <trkpt lat="44.46907" lon="6.22708">
        <ele>750</ele>
        <time>2025-11-21T14:05:07.000Z</time>
      </trkpt>
      <trkpt lat="44.46907" lon="6.2271">
        <ele>749</ele>
        <time>2025-11-21T14:05:08.000Z</time>
      </trkpt>
      <trkpt lat="44.46907" lon="6.22711">
        <ele>750</ele>
        <time>2025-11-21T14:05:09.000Z</time>
      </trkpt>
      <trkpt lat="44.46907" lon="6.22712">
        <ele>749</ele>
        <time>2025-11-21T14:05:10.000Z</time>
      </trkpt>
      <trkpt lat="44.46907" lon="6.22714">
        <ele>748</ele>
        <time>2025-11-21T14:05:11.000Z</time>
      </trkpt>
      <trkpt lat="44.46908" lon="6.22715">
        <ele>748</ele>
        <time>2025-11-21T14:05:12.000Z</time>
      </trkpt>
      <trkpt lat="44.46908" lon="6.22717">
        <ele>748</ele>
        <time>2025-11-21T14:05:13.000Z</time>
      </trkpt>
      <trkpt lat="44.46908" lon="6.22718">
        <ele>748</ele>
        <time>2025-11-21T14:05:14.000Z</time>
      </trkpt>
      <trkpt lat="44.46907" lon="6.2272">
        <ele>748</ele>
        <time>2025-11-21T14:05:15.000Z</time>
      </trkpt>
      <trkpt lat="44.46907" lon="6.22723">
        <ele>748</ele>
        <time>2025-11-21T14:05:16.000Z</time>
      </trkpt>
      <trkpt lat="44.46906" lon="6.22725">
        <ele>747</ele>
        <time>2025-11-21T14:05:17.000Z</time>
      </trkpt>
      <trkpt lat="44.46906" lon="6.22726">
        <ele>747</ele>
        <time>2025-11-21T14:05:18.000Z</time>
      </trkpt>
      <trkpt lat="44.46906" lon="6.22726">
        <ele>747</ele>
        <time>2025-11-21T14:05:19.000Z</time>
      </trkpt>
      <trkpt lat="44.46906" lon="6.22727">
        <ele>747</ele>
        <time>2025-11-21T14:05:20.000Z</time>
      </trkpt>
      <trkpt lat="44.46906" lon="6.22729">
        <ele>747</ele>
        <time>2025-11-21T14:05:21.000Z</time>
      </trkpt>
      <trkpt lat="44.46906" lon="6.2273">
        <ele>747</ele>
        <time>2025-11-21T14:05:22.000Z</time>
      </trkpt>
      <trkpt lat="44.46906" lon="6.22732">
        <ele>747</ele>
        <time>2025-11-21T14:05:23.000Z</time>
      </trkpt>
      <trkpt lat="44.46906" lon="6.22734">
        <ele>746</ele>
        <time>2025-11-21T14:05:24.000Z</time>
      </trkpt>
      <trkpt lat="44.46906" lon="6.22735">
        <ele>747</ele>
        <time>2025-11-21T14:05:25.000Z</time>
      </trkpt>
      <trkpt lat="44.46906" lon="6.22736">
        <ele>746</ele>
        <time>2025-11-21T14:05:26.000Z</time>
      </trkpt>
      <trkpt lat="44.46906" lon="6.22738">
        <ele>746</ele>
        <time>2025-11-21T14:05:27.000Z</time>
      </trkpt>
      <trkpt lat="44.46906" lon="6.22739">
        <ele>746</ele>
        <time>2025-11-21T14:05:28.000Z</time>
      </trkpt>
      <trkpt lat="44.46906" lon="6.22741">
        <ele>746</ele>
        <time>2025-11-21T14:05:29.000Z</time>
      </trkpt>
      <trkpt lat="44.46907" lon="6.22742">
        <ele>746</ele>
        <time>2025-11-21T14:05:30.000Z</time>
      </trkpt>
      <trkpt lat="44.46907" lon="6.22743">
        <ele>745</ele>
        <time>2025-11-21T14:05:31.000Z</time>
      </trkpt>
      <trkpt lat="44.46907" lon="6.22744">
        <ele>745</ele>
        <time>2025-11-21T14:05:32.000Z</time>
      </trkpt>
      <trkpt lat="44.46908" lon="6.22745">
        <ele>744</ele>
        <time>2025-11-21T14:05:33.000Z</time>
      </trkpt>
      <trkpt lat="44.46909" lon="6.22747">
        <ele>743</ele>
        <time>2025-11-21T14:05:34.000Z</time>
      </trkpt>
      <trkpt lat="44.46909" lon="6.22748">
        <ele>743</ele>
        <time>2025-11-21T14:05:35.000Z</time>
      </trkpt>
      <trkpt lat="44.4691" lon="6.2275">
        <ele>744</ele>
        <time>2025-11-21T14:05:36.000Z</time>
      </trkpt>
      <trkpt lat="44.4691" lon="6.2275">
        <ele>744</ele>
        <time>2025-11-21T14:05:37.000Z</time>
      </trkpt>
      <trkpt lat="44.46911" lon="6.22752">
        <ele>744</ele>
        <time>2025-11-21T14:05:38.000Z</time>
      </trkpt>
      <trkpt lat="44.46912" lon="6.22754">
        <ele>744</ele>
        <time>2025-11-21T14:05:39.000Z</time>
      </trkpt>
      <trkpt lat="44.46912" lon="6.22756">
        <ele>744</ele>
        <time>2025-11-21T14:05:40.000Z</time>
      </trkpt>
      <trkpt lat="44.46913" lon="6.22757">
        <ele>744</ele>
        <time>2025-11-21T14:05:41.000Z</time>
      </trkpt>
      <trkpt lat="44.46913" lon="6.22759">
        <ele>744</ele>
        <time>2025-11-21T14:05:42.000Z</time>
      </trkpt>
      <trkpt lat="44.46913" lon="6.2276">
        <ele>744</ele>
        <time>2025-11-21T14:05:43.000Z</time>
      </trkpt>
      <trkpt lat="44.46914" lon="6.22761">
        <ele>743</ele>
        <time>2025-11-21T14:05:44.000Z</time>
      </trkpt>
      <trkpt lat="44.46915" lon="6.22763">
        <ele>743</ele>
        <time>2025-11-21T14:05:45.000Z</time>
      </trkpt>
      <trkpt lat="44.46916" lon="6.22764">
        <ele>743</ele>
        <time>2025-11-21T14:05:46.000Z</time>
      </trkpt>
      <trkpt lat="44.46916" lon="6.22766">
        <ele>743</ele>
        <time>2025-11-21T14:05:47.000Z</time>
      </trkpt>
      <trkpt lat="44.46916" lon="6.22767">
        <ele>743</ele>
        <time>2025-11-21T14:05:48.000Z</time>
      </trkpt>
      <trkpt lat="44.46917" lon="6.22769">
        <ele>743</ele>
        <time>2025-11-21T14:05:49.000Z</time>
      </trkpt>
      <trkpt lat="44.46917" lon="6.22771">
        <ele>743</ele>
        <time>2025-11-21T14:05:50.000Z</time>
      </trkpt>
      <trkpt lat="44.46918" lon="6.22772">
        <ele>743</ele>
        <time>2025-11-21T14:05:51.000Z</time>
      </trkpt>
      <trkpt lat="44.46918" lon="6.22774">
        <ele>743</ele>
        <time>2025-11-21T14:05:52.000Z</time>
      </trkpt>
      <trkpt lat="44.46919" lon="6.22775">
        <ele>743</ele>
        <time>2025-11-21T14:05:53.000Z</time>
      </trkpt>
      <trkpt lat="44.46919" lon="6.22777">
        <ele>742</ele>
        <time>2025-11-21T14:05:54.000Z</time>
      </trkpt>
      <trkpt lat="44.46919" lon="6.22778">
        <ele>742</ele>
        <time>2025-11-21T14:05:55.000Z</time>
      </trkpt>
      <trkpt lat="44.46919" lon="6.2278">
        <ele>742</ele>
        <time>2025-11-21T14:05:56.000Z</time>
      </trkpt>
      <trkpt lat="44.46919" lon="6.22782">
        <ele>742</ele>
        <time>2025-11-21T14:05:57.000Z</time>
      </trkpt>
      <trkpt lat="44.4692" lon="6.22783">
        <ele>741</ele>
        <time>2025-11-21T14:05:58.000Z</time>
      </trkpt>
      <trkpt lat="44.4692" lon="6.22784">
        <ele>741</ele>
        <time>2025-11-21T14:05:59.000Z</time>
      </trkpt>
      <trkpt lat="44.4692" lon="6.22786">
        <ele>741</ele>
        <time>2025-11-21T14:06:00.000Z</time>
      </trkpt>
      <trkpt lat="44.4692" lon="6.22788">
        <ele>741</ele>
        <time>2025-11-21T14:06:01.000Z</time>
      </trkpt>
      <trkpt lat="44.4692" lon="6.22789">
        <ele>740</ele>
        <time>2025-11-21T14:06:02.000Z</time>
      </trkpt>
      <trkpt lat="44.4692" lon="6.22791">
        <ele>740</ele>
        <time>2025-11-21T14:06:03.000Z</time>
      </trkpt>
      <trkpt lat="44.4692" lon="6.22793">
        <ele>740</ele>
        <time>2025-11-21T14:06:04.000Z</time>
      </trkpt>
      <trkpt lat="44.46919" lon="6.22795">
        <ele>741</ele>
        <time>2025-11-21T14:06:05.000Z</time>
      </trkpt>
      <trkpt lat="44.46919" lon="6.22796">
        <ele>741</ele>
        <time>2025-11-21T14:06:06.000Z</time>
      </trkpt>
      <trkpt lat="44.46918" lon="6.22799">
        <ele>739</ele>
        <time>2025-11-21T14:06:07.000Z</time>
      </trkpt>
      <trkpt lat="44.46918" lon="6.228">
        <ele>739</ele>
        <time>2025-11-21T14:06:08.000Z</time>
      </trkpt>
      <trkpt lat="44.46917" lon="6.22801">
        <ele>738</ele>
        <time>2025-11-21T14:06:09.000Z</time>
      </trkpt>
      <trkpt lat="44.46917" lon="6.22801">
        <ele>738</ele>
        <time>2025-11-21T14:06:10.000Z</time>
      </trkpt>
      <trkpt lat="44.46917" lon="6.22803">
        <ele>738</ele>
        <time>2025-11-21T14:06:11.000Z</time>
      </trkpt>
      <trkpt lat="44.46916" lon="6.22805">
        <ele>738</ele>
        <time>2025-11-21T14:06:12.000Z</time>
      </trkpt>
      <trkpt lat="44.46916" lon="6.22806">
        <ele>738</ele>
        <time>2025-11-21T14:06:13.000Z</time>
      </trkpt>
      <trkpt lat="44.46915" lon="6.22808">
        <ele>738</ele>
        <time>2025-11-21T14:06:14.000Z</time>
      </trkpt>
      <trkpt lat="44.46914" lon="6.2281">
        <ele>738</ele>
        <time>2025-11-21T14:06:15.000Z</time>
      </trkpt>
      <trkpt lat="44.46914" lon="6.22812">
        <ele>738</ele>
        <time>2025-11-21T14:06:16.000Z</time>
      </trkpt>
      <trkpt lat="44.46913" lon="6.22814">
        <ele>739</ele>
        <time>2025-11-21T14:06:17.000Z</time>
      </trkpt>
      <trkpt lat="44.46912" lon="6.22815">
        <ele>739</ele>
        <time>2025-11-21T14:06:18.000Z</time>
      </trkpt>
      <trkpt lat="44.46911" lon="6.22817">
        <ele>739</ele>
        <time>2025-11-21T14:06:19.000Z</time>
      </trkpt>
      <trkpt lat="44.4691" lon="6.22819">
        <ele>739</ele>
        <time>2025-11-21T14:06:20.000Z</time>
      </trkpt>
      <trkpt lat="44.46909" lon="6.2282">
        <ele>739</ele>
        <time>2025-11-21T14:06:21.000Z</time>
      </trkpt>
      <trkpt lat="44.46908" lon="6.22822">
        <ele>739</ele>
        <time>2025-11-21T14:06:22.000Z</time>
      </trkpt>
      <trkpt lat="44.46907" lon="6.22823">
        <ele>738</ele>
        <time>2025-11-21T14:06:23.000Z</time>
      </trkpt>
      <trkpt lat="44.46906" lon="6.22824">
        <ele>738</ele>
        <time>2025-11-21T14:06:24.000Z</time>
      </trkpt>
      <trkpt lat="44.46906" lon="6.22826">
        <ele>738</ele>
        <time>2025-11-21T14:06:25.000Z</time>
      </trkpt>
      <trkpt lat="44.46905" lon="6.22827">
        <ele>737</ele>
        <time>2025-11-21T14:06:26.000Z</time>
      </trkpt>
      <trkpt lat="44.46903" lon="6.22829">
        <ele>738</ele>
        <time>2025-11-21T14:06:27.000Z</time>
      </trkpt>
      <trkpt lat="44.46902" lon="6.2283">
        <ele>738</ele>
        <time>2025-11-21T14:06:28.000Z</time>
      </trkpt>
      <trkpt lat="44.46901" lon="6.22831">
        <ele>738</ele>
        <time>2025-11-21T14:06:29.000Z</time>
      </trkpt>
      <trkpt lat="44.469" lon="6.22833">
        <ele>738</ele>
        <time>2025-11-21T14:06:30.000Z</time>
      </trkpt>
      <trkpt lat="44.46898" lon="6.22835">
        <ele>738</ele>
        <time>2025-11-21T14:06:31.000Z</time>
      </trkpt>
      <trkpt lat="44.46897" lon="6.22837">
        <ele>738</ele>
        <time>2025-11-21T14:06:32.000Z</time>
      </trkpt>
      <trkpt lat="44.46895" lon="6.22838">
        <ele>738</ele>
        <time>2025-11-21T14:06:33.000Z</time>
      </trkpt>
      <trkpt lat="44.46894" lon="6.22839">
        <ele>739</ele>
        <time>2025-11-21T14:06:34.000Z</time>
      </trkpt>
      <trkpt lat="44.46893" lon="6.2284">
        <ele>739</ele>
        <time>2025-11-21T14:06:35.000Z</time>
      </trkpt>
      <trkpt lat="44.46893" lon="6.22841">
        <ele>738</ele>
        <time>2025-11-21T14:06:36.000Z</time>
      </trkpt>
      <trkpt lat="44.46891" lon="6.22843">
        <ele>738</ele>
        <time>2025-11-21T14:06:37.000Z</time>
      </trkpt>
      <trkpt lat="44.46891" lon="6.22844">
        <ele>738</ele>
        <time>2025-11-21T14:06:38.000Z</time>
      </trkpt>
      <trkpt lat="44.4689" lon="6.22845">
        <ele>738</ele>
        <time>2025-11-21T14:06:39.000Z</time>
      </trkpt>
      <trkpt lat="44.46889" lon="6.22846">
        <ele>738</ele>
        <time>2025-11-21T14:06:40.000Z</time>
      </trkpt>
      <trkpt lat="44.46889" lon="6.22848">
        <ele>738</ele>
        <time>2025-11-21T14:06:41.000Z</time>
      </trkpt>
      <trkpt lat="44.46887" lon="6.22848">
        <ele>738</ele>
        <time>2025-11-21T14:06:42.000Z</time>
      </trkpt>
      <trkpt lat="44.46886" lon="6.2285">
        <ele>738</ele>
        <time>2025-11-21T14:06:43.000Z</time>
      </trkpt>
      <trkpt lat="44.46886" lon="6.22851">
        <ele>738</ele>
        <time>2025-11-21T14:06:44.000Z</time>
      </trkpt>
      <trkpt lat="44.46885" lon="6.22853">
        <ele>738</ele>
        <time>2025-11-21T14:06:45.000Z</time>
      </trkpt>
      <trkpt lat="44.46884" lon="6.22855">
        <ele>739</ele>
        <time>2025-11-21T14:06:46.000Z</time>
      </trkpt>
      <trkpt lat="44.46883" lon="6.22856">
        <ele>739</ele>
        <time>2025-11-21T14:06:47.000Z</time>
      </trkpt>
      <trkpt lat="44.46882" lon="6.22857">
        <ele>739</ele>
        <time>2025-11-21T14:06:48.000Z</time>
      </trkpt>
      <trkpt lat="44.46881" lon="6.22859">
        <ele>739</ele>
        <time>2025-11-21T14:06:49.000Z</time>
      </trkpt>
      <trkpt lat="44.4688" lon="6.22861">
        <ele>739</ele>
        <time>2025-11-21T14:06:50.000Z</time>
      </trkpt>
      <trkpt lat="44.4688" lon="6.22862">
        <ele>740</ele>
        <time>2025-11-21T14:06:51.000Z</time>
      </trkpt>
      <trkpt lat="44.46879" lon="6.22863">
        <ele>739</ele>
        <time>2025-11-21T14:06:52.000Z</time>
      </trkpt>
      <trkpt lat="44.46878" lon="6.22865">
        <ele>740</ele>
        <time>2025-11-21T14:06:53.000Z</time>
      </trkpt>
      <trkpt lat="44.46876" lon="6.22866">
        <ele>740</ele>
        <time>2025-11-21T14:06:54.000Z</time>
      </trkpt>
      <trkpt lat="44.46875" lon="6.22867">
        <ele>740</ele>
        <time>2025-11-21T14:06:55.000Z</time>
      </trkpt>
      <trkpt lat="44.46874" lon="6.22868">
        <ele>740</ele>
        <time>2025-11-21T14:06:56.000Z</time>
      </trkpt>
      <trkpt lat="44.46873" lon="6.22868">
        <ele>740</ele>
        <time>2025-11-21T14:06:57.000Z</time>
      </trkpt>
      <trkpt lat="44.46872" lon="6.22869">
        <ele>740</ele>
        <time>2025-11-21T14:06:58.000Z</time>
      </trkpt>
      <trkpt lat="44.46871" lon="6.2287">
        <ele>739</ele>
        <time>2025-11-21T14:06:59.000Z</time>
      </trkpt>
      <trkpt lat="44.4687" lon="6.22871">
        <ele>739</ele>
        <time>2025-11-21T14:07:00.000Z</time>
      </trkpt>
      <trkpt lat="44.46869" lon="6.22873">
        <ele>740</ele>
        <time>2025-11-21T14:07:01.000Z</time>
      </trkpt>
      <trkpt lat="44.46868" lon="6.22874">
        <ele>740</ele>
        <time>2025-11-21T14:07:02.000Z</time>
      </trkpt>
      <trkpt lat="44.46867" lon="6.22875">
        <ele>740</ele>
        <time>2025-11-21T14:07:03.000Z</time>
      </trkpt>
      <trkpt lat="44.46867" lon="6.22877">
        <ele>740</ele>
        <time>2025-11-21T14:07:04.000Z</time>
      </trkpt>
      <trkpt lat="44.46866" lon="6.22879">
        <ele>740</ele>
        <time>2025-11-21T14:07:05.000Z</time>
      </trkpt>
      <trkpt lat="44.46865" lon="6.22881">
        <ele>739</ele>
        <time>2025-11-21T14:07:06.000Z</time>
      </trkpt>
      <trkpt lat="44.46864" lon="6.22883">
        <ele>740</ele>
        <time>2025-11-21T14:07:07.000Z</time>
      </trkpt>
      <trkpt lat="44.46863" lon="6.22884">
        <ele>740</ele>
        <time>2025-11-21T14:07:08.000Z</time>
      </trkpt>
      <trkpt lat="44.46863" lon="6.22885">
        <ele>740</ele>
        <time>2025-11-21T14:07:09.000Z</time>
      </trkpt>
      <trkpt lat="44.46862" lon="6.22887">
        <ele>740</ele>
        <time>2025-11-21T14:07:10.000Z</time>
      </trkpt>
      <trkpt lat="44.46861" lon="6.22889">
        <ele>741</ele>
        <time>2025-11-21T14:07:11.000Z</time>
      </trkpt>
      <trkpt lat="44.4686" lon="6.22891">
        <ele>741</ele>
        <time>2025-11-21T14:07:12.000Z</time>
      </trkpt>
      <trkpt lat="44.4686" lon="6.22892">
        <ele>741</ele>
        <time>2025-11-21T14:07:13.000Z</time>
      </trkpt>
      <trkpt lat="44.46859" lon="6.22893">
        <ele>741</ele>
        <time>2025-11-21T14:07:14.000Z</time>
      </trkpt>
      <trkpt lat="44.46858" lon="6.22895">
        <ele>740</ele>
        <time>2025-11-21T14:07:15.000Z</time>
      </trkpt>
      <trkpt lat="44.46858" lon="6.22897">
        <ele>740</ele>
        <time>2025-11-21T14:07:16.000Z</time>
      </trkpt>
      <trkpt lat="44.46858" lon="6.22899">
        <ele>739</ele>
        <time>2025-11-21T14:07:17.000Z</time>
      </trkpt>
      <trkpt lat="44.46857" lon="6.22901">
        <ele>739</ele>
        <time>2025-11-21T14:07:18.000Z</time>
      </trkpt>
      <trkpt lat="44.46856" lon="6.22903">
        <ele>739</ele>
        <time>2025-11-21T14:07:19.000Z</time>
      </trkpt>
      <trkpt lat="44.46856" lon="6.22905">
        <ele>740</ele>
        <time>2025-11-21T14:07:20.000Z</time>
      </trkpt>
      <trkpt lat="44.46855" lon="6.22908">
        <ele>741</ele>
        <time>2025-11-21T14:07:21.000Z</time>
      </trkpt>
      <trkpt lat="44.46854" lon="6.22909">
        <ele>741</ele>
        <time>2025-11-21T14:07:22.000Z</time>
      </trkpt>
      <trkpt lat="44.46854" lon="6.22911">
        <ele>742</ele>
        <time>2025-11-21T14:07:23.000Z</time>
      </trkpt>
      <trkpt lat="44.46854" lon="6.22912">
        <ele>742</ele>
        <time>2025-11-21T14:07:24.000Z</time>
      </trkpt>
      <trkpt lat="44.46854" lon="6.22913">
        <ele>742</ele>
        <time>2025-11-21T14:07:25.000Z</time>
      </trkpt>
      <trkpt lat="44.46853" lon="6.22914">
        <ele>741</ele>
        <time>2025-11-21T14:07:26.000Z</time>
      </trkpt>
      <trkpt lat="44.46852" lon="6.22915">
        <ele>741</ele>
        <time>2025-11-21T14:07:27.000Z</time>
      </trkpt>
      <trkpt lat="44.46851" lon="6.22917">
        <ele>741</ele>
        <time>2025-11-21T14:07:28.000Z</time>
      </trkpt>
      <trkpt lat="44.4685" lon="6.22919">
        <ele>741</ele>
        <time>2025-11-21T14:07:29.000Z</time>
      </trkpt>
      <trkpt lat="44.46849" lon="6.22921">
        <ele>742</ele>
        <time>2025-11-21T14:07:30.000Z</time>
      </trkpt>
      <trkpt lat="44.46848" lon="6.22923">
        <ele>742</ele>
        <time>2025-11-21T14:07:31.000Z</time>
      </trkpt>
      <trkpt lat="44.46847" lon="6.22925">
        <ele>742</ele>
        <time>2025-11-21T14:07:32.000Z</time>
      </trkpt>
      <trkpt lat="44.46845" lon="6.22926">
        <ele>742</ele>
        <time>2025-11-21T14:07:33.000Z</time>
      </trkpt>
      <trkpt lat="44.46844" lon="6.22928">
        <ele>742</ele>
        <time>2025-11-21T14:07:34.000Z</time>
      </trkpt>
      <trkpt lat="44.46843" lon="6.22929">
        <ele>742</ele>
        <time>2025-11-21T14:07:35.000Z</time>
      </trkpt>
      <trkpt lat="44.46843" lon="6.2293">
        <ele>742</ele>
        <time>2025-11-21T14:07:36.000Z</time>
      </trkpt>
      <trkpt lat="44.46842" lon="6.22932">
        <ele>743</ele>
        <time>2025-11-21T14:07:37.000Z</time>
      </trkpt>
      <trkpt lat="44.46842" lon="6.22933">
        <ele>743</ele>
        <time>2025-11-21T14:07:38.000Z</time>
      </trkpt>
      <trkpt lat="44.46842" lon="6.22935">
        <ele>743</ele>
        <time>2025-11-21T14:07:39.000Z</time>
      </trkpt>
      <trkpt lat="44.46841" lon="6.22937">
        <ele>743</ele>
        <time>2025-11-21T14:07:40.000Z</time>
      </trkpt>
      <trkpt lat="44.46841" lon="6.22938">
        <ele>743</ele>
        <time>2025-11-21T14:07:41.000Z</time>
      </trkpt>
      <trkpt lat="44.46841" lon="6.22939">
        <ele>744</ele>
        <time>2025-11-21T14:07:42.000Z</time>
      </trkpt>
      <trkpt lat="44.4684" lon="6.22942">
        <ele>743</ele>
        <time>2025-11-21T14:07:43.000Z</time>
      </trkpt>
      <trkpt lat="44.4684" lon="6.22943">
        <ele>743</ele>
        <time>2025-11-21T14:07:44.000Z</time>
      </trkpt>
      <trkpt lat="44.4684" lon="6.22945">
        <ele>743</ele>
        <time>2025-11-21T14:07:45.000Z</time>
      </trkpt>
      <trkpt lat="44.46839" lon="6.22947">
        <ele>742</ele>
        <time>2025-11-21T14:07:46.000Z</time>
      </trkpt>
      <trkpt lat="44.46838" lon="6.22948">
        <ele>742</ele>
        <time>2025-11-21T14:07:47.000Z</time>
      </trkpt>
      <trkpt lat="44.46838" lon="6.2295">
        <ele>743</ele>
        <time>2025-11-21T14:07:48.000Z</time>
      </trkpt>
      <trkpt lat="44.46837" lon="6.22952">
        <ele>742</ele>
        <time>2025-11-21T14:07:49.000Z</time>
      </trkpt>
      <trkpt lat="44.46836" lon="6.22954">
        <ele>742</ele>
        <time>2025-11-21T14:07:50.000Z</time>
      </trkpt>
      <trkpt lat="44.46836" lon="6.22955">
        <ele>741</ele>
        <time>2025-11-21T14:07:51.000Z</time>
      </trkpt>
      <trkpt lat="44.46835" lon="6.22957">
        <ele>741</ele>
        <time>2025-11-21T14:07:52.000Z</time>
      </trkpt>
      <trkpt lat="44.46835" lon="6.22959">
        <ele>741</ele>
        <time>2025-11-21T14:07:53.000Z</time>
      </trkpt>
      <trkpt lat="44.46834" lon="6.22961">
        <ele>741</ele>
        <time>2025-11-21T14:07:54.000Z</time>
      </trkpt>
      <trkpt lat="44.46834" lon="6.22963">
        <ele>741</ele>
        <time>2025-11-21T14:07:55.000Z</time>
      </trkpt>
      <trkpt lat="44.46833" lon="6.22966">
        <ele>740</ele>
        <time>2025-11-21T14:07:56.000Z</time>
      </trkpt>
      <trkpt lat="44.46833" lon="6.22967">
        <ele>740</ele>
        <time>2025-11-21T14:07:57.000Z</time>
      </trkpt>
      <trkpt lat="44.46833" lon="6.22969">
        <ele>740</ele>
        <time>2025-11-21T14:07:58.000Z</time>
      </trkpt>
      <trkpt lat="44.46833" lon="6.22972">
        <ele>741</ele>
        <time>2025-11-21T14:07:59.000Z</time>
      </trkpt>
      <trkpt lat="44.46833" lon="6.22974">
        <ele>741</ele>
        <time>2025-11-21T14:08:00.000Z</time>
      </trkpt>
      <trkpt lat="44.46833" lon="6.22977">
        <ele>741</ele>
        <time>2025-11-21T14:08:01.000Z</time>
      </trkpt>
      <trkpt lat="44.46833" lon="6.22979">
        <ele>741</ele>
        <time>2025-11-21T14:08:02.000Z</time>
      </trkpt>
      <trkpt lat="44.46833" lon="6.22981">
        <ele>741</ele>
        <time>2025-11-21T14:08:03.000Z</time>
      </trkpt>
      <trkpt lat="44.46834" lon="6.22983">
        <ele>741</ele>
        <time>2025-11-21T14:08:04.000Z</time>
      </trkpt>
      <trkpt lat="44.46834" lon="6.22985">
        <ele>741</ele>
        <time>2025-11-21T14:08:05.000Z</time>
      </trkpt>
      <trkpt lat="44.46835" lon="6.22987">
        <ele>741</ele>
        <time>2025-11-21T14:08:06.000Z</time>
      </trkpt>
      <trkpt lat="44.46835" lon="6.22989">
        <ele>740</ele>
        <time>2025-11-21T14:08:07.000Z</time>
      </trkpt>
      <trkpt lat="44.46835" lon="6.22991">
        <ele>740</ele>
        <time>2025-11-21T14:08:08.000Z</time>
      </trkpt>
      <trkpt lat="44.46836" lon="6.22992">
        <ele>740</ele>
        <time>2025-11-21T14:08:09.000Z</time>
      </trkpt>
      <trkpt lat="44.46837" lon="6.22994">
        <ele>740</ele>
        <time>2025-11-21T14:08:10.000Z</time>
      </trkpt>
      <trkpt lat="44.46837" lon="6.22997">
        <ele>739</ele>
        <time>2025-11-21T14:08:11.000Z</time>
      </trkpt>
      <trkpt lat="44.46837" lon="6.22998">
        <ele>739</ele>
        <time>2025-11-21T14:08:12.000Z</time>
      </trkpt>
      <trkpt lat="44.46838" lon="6.23">
        <ele>738</ele>
        <time>2025-11-21T14:08:13.000Z</time>
      </trkpt>
      <trkpt lat="44.46839" lon="6.23002">
        <ele>739</ele>
        <time>2025-11-21T14:08:14.000Z</time>
      </trkpt>
      <trkpt lat="44.4684" lon="6.23004">
        <ele>739</ele>
        <time>2025-11-21T14:08:15.000Z</time>
      </trkpt>
      <trkpt lat="44.46841" lon="6.23007">
        <ele>739</ele>
        <time>2025-11-21T14:08:16.000Z</time>
      </trkpt>
      <trkpt lat="44.46842" lon="6.23009">
        <ele>738</ele>
        <time>2025-11-21T14:08:17.000Z</time>
      </trkpt>
      <trkpt lat="44.46843" lon="6.23011">
        <ele>737</ele>
        <time>2025-11-21T14:08:18.000Z</time>
      </trkpt>
      <trkpt lat="44.46843" lon="6.23012">
        <ele>737</ele>
        <time>2025-11-21T14:08:19.000Z</time>
      </trkpt>
      <trkpt lat="44.46844" lon="6.23013">
        <ele>737</ele>
        <time>2025-11-21T14:08:20.000Z</time>
      </trkpt>
      <trkpt lat="44.46844" lon="6.23015">
        <ele>739</ele>
        <time>2025-11-21T14:08:21.000Z</time>
      </trkpt>
      <trkpt lat="44.46845" lon="6.23017">
        <ele>739</ele>
        <time>2025-11-21T14:08:22.000Z</time>
      </trkpt>
      <trkpt lat="44.46845" lon="6.23018">
        <ele>739</ele>
        <time>2025-11-21T14:08:23.000Z</time>
      </trkpt>
      <trkpt lat="44.46846" lon="6.23021">
        <ele>740</ele>
        <time>2025-11-21T14:08:24.000Z</time>
      </trkpt>
      <trkpt lat="44.46846" lon="6.23022">
        <ele>740</ele>
        <time>2025-11-21T14:08:25.000Z</time>
      </trkpt>
      <trkpt lat="44.46847" lon="6.23024">
        <ele>742</ele>
        <time>2025-11-21T14:08:26.000Z</time>
      </trkpt>
      <trkpt lat="44.46847" lon="6.23026">
        <ele>743</ele>
        <time>2025-11-21T14:08:27.000Z</time>
      </trkpt>
      <trkpt lat="44.46848" lon="6.23027">
        <ele>744</ele>
        <time>2025-11-21T14:08:28.000Z</time>
      </trkpt>
      <trkpt lat="44.46849" lon="6.23028">
        <ele>744</ele>
        <time>2025-11-21T14:08:29.000Z</time>
      </trkpt>
      <trkpt lat="44.46849" lon="6.2303">
        <ele>745</ele>
        <time>2025-11-21T14:08:30.000Z</time>
      </trkpt>
      <trkpt lat="44.46848" lon="6.23031">
        <ele>745</ele>
        <time>2025-11-21T14:08:31.000Z</time>
      </trkpt>
      <trkpt lat="44.46849" lon="6.23033">
        <ele>745</ele>
        <time>2025-11-21T14:08:32.000Z</time>
      </trkpt>
      <trkpt lat="44.46849" lon="6.23034">
        <ele>745</ele>
        <time>2025-11-21T14:08:33.000Z</time>
      </trkpt>
      <trkpt lat="44.46849" lon="6.23035">
        <ele>745</ele>
        <time>2025-11-21T14:08:34.000Z</time>
      </trkpt>
      <trkpt lat="44.46848" lon="6.23036">
        <ele>744</ele>
        <time>2025-11-21T14:08:35.000Z</time>
      </trkpt>
      <trkpt lat="44.46848" lon="6.23037">
        <ele>744</ele>
        <time>2025-11-21T14:08:36.000Z</time>
      </trkpt>
      <trkpt lat="44.46846" lon="6.23037">
        <ele>744</ele>
        <time>2025-11-21T14:08:37.000Z</time>
      </trkpt>
      <trkpt lat="44.46845" lon="6.23038">
        <ele>744</ele>
        <time>2025-11-21T14:08:38.000Z</time>
      </trkpt>
      <trkpt lat="44.46844" lon="6.23039">
        <ele>744</ele>
        <time>2025-11-21T14:08:39.000Z</time>
      </trkpt>
      <trkpt lat="44.46843" lon="6.2304">
        <ele>744</ele>
        <time>2025-11-21T14:08:40.000Z</time>
      </trkpt>
      <trkpt lat="44.46842" lon="6.2304">
        <ele>743</ele>
        <time>2025-11-21T14:08:41.000Z</time>
      </trkpt>
      <trkpt lat="44.46841" lon="6.23041">
        <ele>743</ele>
        <time>2025-11-21T14:08:42.000Z</time>
      </trkpt>
      <trkpt lat="44.46839" lon="6.23042">
        <ele>743</ele>
        <time>2025-11-21T14:08:43.000Z</time>
      </trkpt>
      <trkpt lat="44.46839" lon="6.23042">
        <ele>742</ele>
        <time>2025-11-21T14:08:44.000Z</time>
      </trkpt>
      <trkpt lat="44.46838" lon="6.23042">
        <ele>742</ele>
        <time>2025-11-21T14:08:45.000Z</time>
      </trkpt>
      <trkpt lat="44.46837" lon="6.23043">
        <ele>742</ele>
        <time>2025-11-21T14:08:46.000Z</time>
      </trkpt>
      <trkpt lat="44.46835" lon="6.23044">
        <ele>741</ele>
        <time>2025-11-21T14:08:47.000Z</time>
      </trkpt>
      <trkpt lat="44.46834" lon="6.23045">
        <ele>741</ele>
        <time>2025-11-21T14:08:48.000Z</time>
      </trkpt>
      <trkpt lat="44.46833" lon="6.23047">
        <ele>742</ele>
        <time>2025-11-21T14:08:49.000Z</time>
      </trkpt>
      <trkpt lat="44.46832" lon="6.23048">
        <ele>741</ele>
        <time>2025-11-21T14:08:50.000Z</time>
      </trkpt>
      <trkpt lat="44.46832" lon="6.23049">
        <ele>741</ele>
        <time>2025-11-21T14:08:51.000Z</time>
      </trkpt>
      <trkpt lat="44.46832" lon="6.2305">
        <ele>742</ele>
        <time>2025-11-21T14:08:52.000Z</time>
      </trkpt>
      <trkpt lat="44.46832" lon="6.23051">
        <ele>741</ele>
        <time>2025-11-21T14:08:53.000Z</time>
      </trkpt>
      <trkpt lat="44.46832" lon="6.23051">
        <ele>741</ele>
        <time>2025-11-21T14:08:54.000Z</time>
      </trkpt>
      <trkpt lat="44.46832" lon="6.23051">
        <ele>741</ele>
        <time>2025-11-21T14:08:55.000Z</time>
      </trkpt>
      <trkpt lat="44.46832" lon="6.23051">
        <ele>741</ele>
        <time>2025-11-21T14:08:56.000Z</time>
      </trkpt>
      <trkpt lat="44.46832" lon="6.23051">
        <ele>741</ele>
        <time>2025-11-21T14:08:57.000Z</time>
      </trkpt>
      <trkpt lat="44.46832" lon="6.23051">
        <ele>741</ele>
        <time>2025-11-21T14:08:58.000Z</time>
      </trkpt>
      <trkpt lat="44.46832" lon="6.23051">
        <ele>741</ele>
        <time>2025-11-21T14:08:59.000Z</time>
      </trkpt>
      <trkpt lat="44.46833" lon="6.2305">
        <ele>740</ele>
        <time>2025-11-21T14:09:00.000Z</time>
      </trkpt>
      <trkpt lat="44.46833" lon="6.2305">
        <ele>740</ele>
        <time>2025-11-21T14:09:01.000Z</time>
      </trkpt>
      <trkpt lat="44.46834" lon="6.23051">
        <ele>739</ele>
        <time>2025-11-21T14:09:02.000Z</time>
      </trkpt>
      <trkpt lat="44.46835" lon="6.23052">
        <ele>739</ele>
        <time>2025-11-21T14:09:03.000Z</time>
      </trkpt>
      <trkpt lat="44.46835" lon="6.23053">
        <ele>740</ele>
        <time>2025-11-21T14:09:04.000Z</time>
      </trkpt>
      <trkpt lat="44.46835" lon="6.23052">
        <ele>739</ele>
        <time>2025-11-21T14:09:05.000Z</time>
      </trkpt>
      <trkpt lat="44.46834" lon="6.23053">
        <ele>740</ele>
        <time>2025-11-21T14:09:06.000Z</time>
      </trkpt>
      <trkpt lat="44.46834" lon="6.23053">
        <ele>741</ele>
        <time>2025-11-21T14:09:07.000Z</time>
      </trkpt>
      <trkpt lat="44.46833" lon="6.23052">
        <ele>741</ele>
        <time>2025-11-21T14:09:08.000Z</time>
      </trkpt>
      <trkpt lat="44.4683" lon="6.23052">
        <ele>744</ele>
        <time>2025-11-21T14:09:52.000Z</time>
      </trkpt>
      <trkpt lat="44.46829" lon="6.23051">
        <ele>744</ele>
        <time>2025-11-21T14:09:53.000Z</time>
      </trkpt>
      <trkpt lat="44.46828" lon="6.23052">
        <ele>744</ele>
        <time>2025-11-21T14:09:54.000Z</time>
      </trkpt>
      <trkpt lat="44.46826" lon="6.23053">
        <ele>743</ele>
        <time>2025-11-21T14:09:55.000Z</time>
      </trkpt>
      <trkpt lat="44.46825" lon="6.23054">
        <ele>744</ele>
        <time>2025-11-21T14:09:56.000Z</time>
      </trkpt>
      <trkpt lat="44.46824" lon="6.23054">
        <ele>744</ele>
        <time>2025-11-21T14:09:57.000Z</time>
      </trkpt>
      <trkpt lat="44.46823" lon="6.23054">
        <ele>744</ele>
        <time>2025-11-21T14:09:58.000Z</time>
      </trkpt>
      <trkpt lat="44.46821" lon="6.23054">
        <ele>745</ele>
        <time>2025-11-21T14:09:59.000Z</time>
      </trkpt>
      <trkpt lat="44.46819" lon="6.23056">
        <ele>745</ele>
        <time>2025-11-21T14:10:00.000Z</time>
      </trkpt>
      <trkpt lat="44.46818" lon="6.23056">
        <ele>745</ele>
        <time>2025-11-21T14:10:01.000Z</time>
      </trkpt>
      <trkpt lat="44.46817" lon="6.23056">
        <ele>744</ele>
        <time>2025-11-21T14:10:02.000Z</time>
      </trkpt>
      <trkpt lat="44.46815" lon="6.23055">
        <ele>743</ele>
        <time>2025-11-21T14:10:03.000Z</time>
      </trkpt>
      <trkpt lat="44.46814" lon="6.23056">
        <ele>742</ele>
        <time>2025-11-21T14:10:04.000Z</time>
      </trkpt>
      <trkpt lat="44.46813" lon="6.23057">
        <ele>741</ele>
        <time>2025-11-21T14:10:05.000Z</time>
      </trkpt>
      <trkpt lat="44.46812" lon="6.23056">
        <ele>741</ele>
        <time>2025-11-21T14:10:06.000Z</time>
      </trkpt>
      <trkpt lat="44.46812" lon="6.23056">
        <ele>742</ele>
        <time>2025-11-21T14:10:07.000Z</time>
      </trkpt>
      <trkpt lat="44.46811" lon="6.23056">
        <ele>742</ele>
        <time>2025-11-21T14:10:08.000Z</time>
      </trkpt>
      <trkpt lat="44.46809" lon="6.23055">
        <ele>742</ele>
        <time>2025-11-21T14:10:09.000Z</time>
      </trkpt>
      <trkpt lat="44.46808" lon="6.23054">
        <ele>742</ele>
        <time>2025-11-21T14:10:10.000Z</time>
      </trkpt>
      <trkpt lat="44.46808" lon="6.23054">
        <ele>742</ele>
        <time>2025-11-21T14:10:11.000Z</time>
      </trkpt>
      <trkpt lat="44.46807" lon="6.23052">
        <ele>741</ele>
        <time>2025-11-21T14:10:12.000Z</time>
      </trkpt>
      <trkpt lat="44.46806" lon="6.23051">
        <ele>741</ele>
        <time>2025-11-21T14:10:13.000Z</time>
      </trkpt>
      <trkpt lat="44.46806" lon="6.23049">
        <ele>742</ele>
        <time>2025-11-21T14:10:14.000Z</time>
      </trkpt>
      <trkpt lat="44.46806" lon="6.23048">
        <ele>742</ele>
        <time>2025-11-21T14:10:15.000Z</time>
      </trkpt>
      <trkpt lat="44.46805" lon="6.23047">
        <ele>742</ele>
        <time>2025-11-21T14:10:16.000Z</time>
      </trkpt>
      <trkpt lat="44.46804" lon="6.23046">
        <ele>742</ele>
        <time>2025-11-21T14:10:17.000Z</time>
      </trkpt>
      <trkpt lat="44.46804" lon="6.23044">
        <ele>741</ele>
        <time>2025-11-21T14:10:18.000Z</time>
      </trkpt>
      <trkpt lat="44.46804" lon="6.23042">
        <ele>741</ele>
        <time>2025-11-21T14:10:19.000Z</time>
      </trkpt>
      <trkpt lat="44.46803" lon="6.23041">
        <ele>741</ele>
        <time>2025-11-21T14:10:20.000Z</time>
      </trkpt>
      <trkpt lat="44.46803" lon="6.23038">
        <ele>741</ele>
        <time>2025-11-21T14:10:21.000Z</time>
      </trkpt>
      <trkpt lat="44.46802" lon="6.23037">
        <ele>741</ele>
        <time>2025-11-21T14:10:22.000Z</time>
      </trkpt>
      <trkpt lat="44.46801" lon="6.23036">
        <ele>741</ele>
        <time>2025-11-21T14:10:23.000Z</time>
      </trkpt>
      <trkpt lat="44.468" lon="6.23035">
        <ele>742</ele>
        <time>2025-11-21T14:10:24.000Z</time>
      </trkpt>
      <trkpt lat="44.46799" lon="6.23034">
        <ele>741</ele>
        <time>2025-11-21T14:10:25.000Z</time>
      </trkpt>
      <trkpt lat="44.46798" lon="6.23032">
        <ele>741</ele>
        <time>2025-11-21T14:10:26.000Z</time>
      </trkpt>
      <trkpt lat="44.46797" lon="6.2303">
        <ele>741</ele>
        <time>2025-11-21T14:10:27.000Z</time>
      </trkpt>
      <trkpt lat="44.46797" lon="6.23028">
        <ele>741</ele>
        <time>2025-11-21T14:10:28.000Z</time>
      </trkpt>
      <trkpt lat="44.46797" lon="6.23026">
        <ele>741</ele>
        <time>2025-11-21T14:10:29.000Z</time>
      </trkpt>
      <trkpt lat="44.46797" lon="6.23025">
        <ele>741</ele>
        <time>2025-11-21T14:10:30.000Z</time>
      </trkpt>
      <trkpt lat="44.46796" lon="6.23023">
        <ele>741</ele>
        <time>2025-11-21T14:10:31.000Z</time>
      </trkpt>
      <trkpt lat="44.46796" lon="6.23021">
        <ele>741</ele>
        <time>2025-11-21T14:10:32.000Z</time>
      </trkpt>
      <trkpt lat="44.46795" lon="6.23019">
        <ele>741</ele>
        <time>2025-11-21T14:10:33.000Z</time>
      </trkpt>
      <trkpt lat="44.46794" lon="6.23018">
        <ele>740</ele>
        <time>2025-11-21T14:10:34.000Z</time>
      </trkpt>
      <trkpt lat="44.46794" lon="6.23017">
        <ele>740</ele>
        <time>2025-11-21T14:10:35.000Z</time>
      </trkpt>
      <trkpt lat="44.46794" lon="6.23015">
        <ele>740</ele>
        <time>2025-11-21T14:10:36.000Z</time>
      </trkpt>
      <trkpt lat="44.46793" lon="6.23014">
        <ele>740</ele>
        <time>2025-11-21T14:10:37.000Z</time>
      </trkpt>
      <trkpt lat="44.46793" lon="6.23012">
        <ele>740</ele>
        <time>2025-11-21T14:10:38.000Z</time>
      </trkpt>
      <trkpt lat="44.46792" lon="6.2301">
        <ele>740</ele>
        <time>2025-11-21T14:10:39.000Z</time>
      </trkpt>
      <trkpt lat="44.46792" lon="6.23008">
        <ele>740</ele>
        <time>2025-11-21T14:10:40.000Z</time>
      </trkpt>
      <trkpt lat="44.46791" lon="6.23007">
        <ele>740</ele>
        <time>2025-11-21T14:10:41.000Z</time>
      </trkpt>
      <trkpt lat="44.46791" lon="6.23005">
        <ele>740</ele>
        <time>2025-11-21T14:10:42.000Z</time>
      </trkpt>
      <trkpt lat="44.4679" lon="6.23004">
        <ele>739</ele>
        <time>2025-11-21T14:10:43.000Z</time>
      </trkpt>
      <trkpt lat="44.46789" lon="6.23003">
        <ele>739</ele>
        <time>2025-11-21T14:10:44.000Z</time>
      </trkpt>
      <trkpt lat="44.46788" lon="6.23001">
        <ele>739</ele>
        <time>2025-11-21T14:10:45.000Z</time>
      </trkpt>
      <trkpt lat="44.46787" lon="6.23001">
        <ele>739</ele>
        <time>2025-11-21T14:10:46.000Z</time>
      </trkpt>
      <trkpt lat="44.46786" lon="6.22999">
        <ele>738</ele>
        <time>2025-11-21T14:10:47.000Z</time>
      </trkpt>
      <trkpt lat="44.46786" lon="6.22998">
        <ele>738</ele>
        <time>2025-11-21T14:10:48.000Z</time>
      </trkpt>
      <trkpt lat="44.46785" lon="6.22997">
        <ele>738</ele>
        <time>2025-11-21T14:10:49.000Z</time>
      </trkpt>
      <trkpt lat="44.46784" lon="6.22996">
        <ele>738</ele>
        <time>2025-11-21T14:10:50.000Z</time>
      </trkpt>
      <trkpt lat="44.46783" lon="6.22995">
        <ele>739</ele>
        <time>2025-11-21T14:10:51.000Z</time>
      </trkpt>
      <trkpt lat="44.46782" lon="6.22993">
        <ele>738</ele>
        <time>2025-11-21T14:10:52.000Z</time>
      </trkpt>
      <trkpt lat="44.46781" lon="6.22992">
        <ele>738</ele>
        <time>2025-11-21T14:10:53.000Z</time>
      </trkpt>
      <trkpt lat="44.46779" lon="6.22991">
        <ele>738</ele>
        <time>2025-11-21T14:10:54.000Z</time>
      </trkpt>
      <trkpt lat="44.46779" lon="6.2299">
        <ele>738</ele>
        <time>2025-11-21T14:10:55.000Z</time>
      </trkpt>
      <trkpt lat="44.46778" lon="6.2299">
        <ele>738</ele>
        <time>2025-11-21T14:10:56.000Z</time>
      </trkpt>
      <trkpt lat="44.46776" lon="6.22989">
        <ele>738</ele>
        <time>2025-11-21T14:10:57.000Z</time>
      </trkpt>
      <trkpt lat="44.46775" lon="6.22988">
        <ele>738</ele>
        <time>2025-11-21T14:10:58.000Z</time>
      </trkpt>
      <trkpt lat="44.46773" lon="6.22988">
        <ele>738</ele>
        <time>2025-11-21T14:10:59.000Z</time>
      </trkpt>
      <trkpt lat="44.46772" lon="6.22987">
        <ele>738</ele>
        <time>2025-11-21T14:11:00.000Z</time>
      </trkpt>
      <trkpt lat="44.46771" lon="6.22986">
        <ele>738</ele>
        <time>2025-11-21T14:11:01.000Z</time>
      </trkpt>
      <trkpt lat="44.46769" lon="6.22986">
        <ele>738</ele>
        <time>2025-11-21T14:11:02.000Z</time>
      </trkpt>
      <trkpt lat="44.46768" lon="6.22986">
        <ele>738</ele>
        <time>2025-11-21T14:11:03.000Z</time>
      </trkpt>
      <trkpt lat="44.46766" lon="6.22985">
        <ele>739</ele>
        <time>2025-11-21T14:11:04.000Z</time>
      </trkpt>
      <trkpt lat="44.46765" lon="6.22985">
        <ele>738</ele>
        <time>2025-11-21T14:11:05.000Z</time>
      </trkpt>
      <trkpt lat="44.46764" lon="6.22986">
        <ele>738</ele>
        <time>2025-11-21T14:11:06.000Z</time>
      </trkpt>
      <trkpt lat="44.46764" lon="6.22986">
        <ele>738</ele>
        <time>2025-11-21T14:11:07.000Z</time>
      </trkpt>
      <trkpt lat="44.46763" lon="6.22986">
        <ele>739</ele>
        <time>2025-11-21T14:11:08.000Z</time>
      </trkpt>
      <trkpt lat="44.46762" lon="6.22986">
        <ele>739</ele>
        <time>2025-11-21T14:11:09.000Z</time>
      </trkpt>
      <trkpt lat="44.46761" lon="6.22986">
        <ele>739</ele>
        <time>2025-11-21T14:11:10.000Z</time>
      </trkpt>
      <trkpt lat="44.4676" lon="6.22987">
        <ele>739</ele>
        <time>2025-11-21T14:11:11.000Z</time>
      </trkpt>
      <trkpt lat="44.46758" lon="6.22987">
        <ele>739</ele>
        <time>2025-11-21T14:11:12.000Z</time>
      </trkpt>
      <trkpt lat="44.46757" lon="6.22987">
        <ele>739</ele>
        <time>2025-11-21T14:11:13.000Z</time>
      </trkpt>
      <trkpt lat="44.46757" lon="6.22988">
        <ele>740</ele>
        <time>2025-11-21T14:11:14.000Z</time>
      </trkpt>
      <trkpt lat="44.46756" lon="6.22988">
        <ele>740</ele>
        <time>2025-11-21T14:11:15.000Z</time>
      </trkpt>
      <trkpt lat="44.46755" lon="6.22987">
        <ele>739</ele>
        <time>2025-11-21T14:11:16.000Z</time>
      </trkpt>
      <trkpt lat="44.46755" lon="6.22986">
        <ele>738</ele>
        <time>2025-11-21T14:11:17.000Z</time>
      </trkpt>
      <trkpt lat="44.46755" lon="6.22986">
        <ele>738</ele>
        <time>2025-11-21T14:11:18.000Z</time>
      </trkpt>
      <trkpt lat="44.46754" lon="6.22984">
        <ele>739</ele>
        <time>2025-11-21T14:11:19.000Z</time>
      </trkpt>
      <trkpt lat="44.46754" lon="6.22981">
        <ele>739</ele>
        <time>2025-11-21T14:11:20.000Z</time>
      </trkpt>
      <trkpt lat="44.46754" lon="6.2298">
        <ele>738</ele>
        <time>2025-11-21T14:11:21.000Z</time>
      </trkpt>
      <trkpt lat="44.46754" lon="6.22978">
        <ele>738</ele>
        <time>2025-11-21T14:11:22.000Z</time>
      </trkpt>
      <trkpt lat="44.46754" lon="6.22977">
        <ele>738</ele>
        <time>2025-11-21T14:11:23.000Z</time>
      </trkpt>
      <trkpt lat="44.46755" lon="6.22975">
        <ele>738</ele>
        <time>2025-11-21T14:11:24.000Z</time>
      </trkpt>
      <trkpt lat="44.46755" lon="6.22973">
        <ele>738</ele>
        <time>2025-11-21T14:11:25.000Z</time>
      </trkpt>
      <trkpt lat="44.46755" lon="6.22971">
        <ele>737</ele>
        <time>2025-11-21T14:11:26.000Z</time>
      </trkpt>
      <trkpt lat="44.46756" lon="6.22968">
        <ele>737</ele>
        <time>2025-11-21T14:11:27.000Z</time>
      </trkpt>
      <trkpt lat="44.46756" lon="6.22965">
        <ele>737</ele>
        <time>2025-11-21T14:11:28.000Z</time>
      </trkpt>
      <trkpt lat="44.46756" lon="6.22963">
        <ele>737</ele>
        <time>2025-11-21T14:11:29.000Z</time>
      </trkpt>
      <trkpt lat="44.46756" lon="6.2296">
        <ele>736</ele>
        <time>2025-11-21T14:11:30.000Z</time>
      </trkpt>
      <trkpt lat="44.46756" lon="6.22958">
        <ele>736</ele>
        <time>2025-11-21T14:11:31.000Z</time>
      </trkpt>
      <trkpt lat="44.46756" lon="6.22956">
        <ele>736</ele>
        <time>2025-11-21T14:11:32.000Z</time>
      </trkpt>
      <trkpt lat="44.46757" lon="6.22955">
        <ele>735</ele>
        <time>2025-11-21T14:11:33.000Z</time>
      </trkpt>
      <trkpt lat="44.46757" lon="6.22953">
        <ele>735</ele>
        <time>2025-11-21T14:11:34.000Z</time>
      </trkpt>
      <trkpt lat="44.46757" lon="6.22951">
        <ele>734</ele>
        <time>2025-11-21T14:11:35.000Z</time>
      </trkpt>
      <trkpt lat="44.46757" lon="6.2295">
        <ele>735</ele>
        <time>2025-11-21T14:11:36.000Z</time>
      </trkpt>
      <trkpt lat="44.46757" lon="6.22948">
        <ele>735</ele>
        <time>2025-11-21T14:11:37.000Z</time>
      </trkpt>
      <trkpt lat="44.46758" lon="6.22947">
        <ele>735</ele>
        <time>2025-11-21T14:11:38.000Z</time>
      </trkpt>
      <trkpt lat="44.46758" lon="6.22946">
        <ele>735</ele>
        <time>2025-11-21T14:11:39.000Z</time>
      </trkpt>
      <trkpt lat="44.46758" lon="6.22944">
        <ele>736</ele>
        <time>2025-11-21T14:11:40.000Z</time>
      </trkpt>
      <trkpt lat="44.46759" lon="6.22942">
        <ele>736</ele>
        <time>2025-11-21T14:11:41.000Z</time>
      </trkpt>
      <trkpt lat="44.46759" lon="6.2294">
        <ele>736</ele>
        <time>2025-11-21T14:11:42.000Z</time>
      </trkpt>
      <trkpt lat="44.4676" lon="6.22939">
        <ele>737</ele>
        <time>2025-11-21T14:11:43.000Z</time>
      </trkpt>
      <trkpt lat="44.4676" lon="6.22937">
        <ele>737</ele>
        <time>2025-11-21T14:11:44.000Z</time>
      </trkpt>
      <trkpt lat="44.4676" lon="6.22935">
        <ele>737</ele>
        <time>2025-11-21T14:11:45.000Z</time>
      </trkpt>
      <trkpt lat="44.46761" lon="6.22934">
        <ele>737</ele>
        <time>2025-11-21T14:11:46.000Z</time>
      </trkpt>
      <trkpt lat="44.46762" lon="6.22933">
        <ele>736</ele>
        <time>2025-11-21T14:11:47.000Z</time>
      </trkpt>
      <trkpt lat="44.46762" lon="6.22932">
        <ele>737</ele>
        <time>2025-11-21T14:11:48.000Z</time>
      </trkpt>
      <trkpt lat="44.46762" lon="6.22931">
        <ele>738</ele>
        <time>2025-11-21T14:11:49.000Z</time>
      </trkpt>
      <trkpt lat="44.46763" lon="6.22931">
        <ele>737</ele>
        <time>2025-11-21T14:11:50.000Z</time>
      </trkpt>
      <trkpt lat="44.46763" lon="6.22931">
        <ele>737</ele>
        <time>2025-11-21T14:11:51.000Z</time>
      </trkpt>
      <trkpt lat="44.46763" lon="6.2293">
        <ele>737</ele>
        <time>2025-11-21T14:11:52.000Z</time>
      </trkpt>
      <trkpt lat="44.46764" lon="6.2293">
        <ele>738</ele>
        <time>2025-11-21T14:11:53.000Z</time>
      </trkpt>
      <trkpt lat="44.46764" lon="6.2293">
        <ele>738</ele>
        <time>2025-11-21T14:11:54.000Z</time>
      </trkpt>
      <trkpt lat="44.46764" lon="6.2293">
        <ele>738</ele>
        <time>2025-11-21T14:11:55.000Z</time>
      </trkpt>
      <trkpt lat="44.46764" lon="6.22929">
        <ele>737</ele>
        <time>2025-11-21T14:11:56.000Z</time>
      </trkpt>
      <trkpt lat="44.46764" lon="6.22929">
        <ele>737</ele>
        <time>2025-11-21T14:11:57.000Z</time>
      </trkpt>
      <trkpt lat="44.46764" lon="6.22928">
        <ele>738</ele>
        <time>2025-11-21T14:11:58.000Z</time>
      </trkpt>
      <trkpt lat="44.46764" lon="6.22927">
        <ele>738</ele>
        <time>2025-11-21T14:11:59.000Z</time>
      </trkpt>
      <trkpt lat="44.46764" lon="6.22926">
        <ele>738</ele>
        <time>2025-11-21T14:12:00.000Z</time>
      </trkpt>
      <trkpt lat="44.46764" lon="6.22924">
        <ele>738</ele>
        <time>2025-11-21T14:12:01.000Z</time>
      </trkpt>
      <trkpt lat="44.46764" lon="6.22923">
        <ele>738</ele>
        <time>2025-11-21T14:12:02.000Z</time>
      </trkpt>
      <trkpt lat="44.46764" lon="6.22922">
        <ele>738</ele>
        <time>2025-11-21T14:12:03.000Z</time>
      </trkpt>
      <trkpt lat="44.46764" lon="6.2292">
        <ele>738</ele>
        <time>2025-11-21T14:12:04.000Z</time>
      </trkpt>
      <trkpt lat="44.46765" lon="6.22919">
        <ele>738</ele>
        <time>2025-11-21T14:12:05.000Z</time>
      </trkpt>
      <trkpt lat="44.46764" lon="6.22918">
        <ele>738</ele>
        <time>2025-11-21T14:12:06.000Z</time>
      </trkpt>
      <trkpt lat="44.46764" lon="6.22916">
        <ele>738</ele>
        <time>2025-11-21T14:12:07.000Z</time>
      </trkpt>
      <trkpt lat="44.46765" lon="6.22915">
        <ele>737</ele>
        <time>2025-11-21T14:12:08.000Z</time>
      </trkpt>
      <trkpt lat="44.46765" lon="6.22913">
        <ele>737</ele>
        <time>2025-11-21T14:12:09.000Z</time>
      </trkpt>
      <trkpt lat="44.46765" lon="6.22911">
        <ele>738</ele>
        <time>2025-11-21T14:12:10.000Z</time>
      </trkpt>
      <trkpt lat="44.46766" lon="6.2291">
        <ele>738</ele>
        <time>2025-11-21T14:12:11.000Z</time>
      </trkpt>
      <trkpt lat="44.46766" lon="6.22908">
        <ele>738</ele>
        <time>2025-11-21T14:12:12.000Z</time>
      </trkpt>
      <trkpt lat="44.46766" lon="6.22907">
        <ele>738</ele>
        <time>2025-11-21T14:12:13.000Z</time>
      </trkpt>
      <trkpt lat="44.46766" lon="6.22905">
        <ele>738</ele>
        <time>2025-11-21T14:12:14.000Z</time>
      </trkpt>
      <trkpt lat="44.46765" lon="6.22904">
        <ele>737</ele>
        <time>2025-11-21T14:12:15.000Z</time>
      </trkpt>
      <trkpt lat="44.46765" lon="6.22902">
        <ele>736</ele>
        <time>2025-11-21T14:12:16.000Z</time>
      </trkpt>
      <trkpt lat="44.46765" lon="6.229">
        <ele>736</ele>
        <time>2025-11-21T14:12:17.000Z</time>
      </trkpt>
      <trkpt lat="44.46765" lon="6.22898">
        <ele>735</ele>
        <time>2025-11-21T14:12:18.000Z</time>
      </trkpt>
      <trkpt lat="44.46765" lon="6.22897">
        <ele>735</ele>
        <time>2025-11-21T14:12:19.000Z</time>
      </trkpt>
      <trkpt lat="44.46765" lon="6.22896">
        <ele>735</ele>
        <time>2025-11-21T14:12:20.000Z</time>
      </trkpt>
      <trkpt lat="44.46765" lon="6.22894">
        <ele>735</ele>
        <time>2025-11-21T14:12:21.000Z</time>
      </trkpt>
      <trkpt lat="44.46765" lon="6.22894">
        <ele>735</ele>
        <time>2025-11-21T14:12:22.000Z</time>
      </trkpt>
      <trkpt lat="44.46763" lon="6.22894">
        <ele>734</ele>
        <time>2025-11-21T14:12:23.000Z</time>
      </trkpt>
      <trkpt lat="44.46763" lon="6.22895">
        <ele>734</ele>
        <time>2025-11-21T14:12:24.000Z</time>
      </trkpt>
      <trkpt lat="44.46763" lon="6.22894">
        <ele>734</ele>
        <time>2025-11-21T14:12:25.000Z</time>
      </trkpt>
      <trkpt lat="44.46763" lon="6.22894">
        <ele>733</ele>
        <time>2025-11-21T14:12:26.000Z</time>
      </trkpt>
      <trkpt lat="44.46764" lon="6.22893">
        <ele>733</ele>
        <time>2025-11-21T14:12:27.000Z</time>
      </trkpt>
      <trkpt lat="44.46764" lon="6.22891">
        <ele>733</ele>
        <time>2025-11-21T14:12:28.000Z</time>
      </trkpt>
      <trkpt lat="44.46764" lon="6.2289">
        <ele>733</ele>
        <time>2025-11-21T14:12:29.000Z</time>
      </trkpt>
      <trkpt lat="44.46764" lon="6.22888">
        <ele>733</ele>
        <time>2025-11-21T14:12:30.000Z</time>
      </trkpt>
      <trkpt lat="44.46764" lon="6.22886">
        <ele>733</ele>
        <time>2025-11-21T14:12:31.000Z</time>
      </trkpt>
      <trkpt lat="44.46763" lon="6.22884">
        <ele>733</ele>
        <time>2025-11-21T14:12:32.000Z</time>
      </trkpt>
      <trkpt lat="44.46763" lon="6.22882">
        <ele>734</ele>
        <time>2025-11-21T14:12:33.000Z</time>
      </trkpt>
      <trkpt lat="44.46763" lon="6.2288">
        <ele>734</ele>
        <time>2025-11-21T14:12:34.000Z</time>
      </trkpt>
      <trkpt lat="44.46763" lon="6.22878">
        <ele>734</ele>
        <time>2025-11-21T14:12:35.000Z</time>
      </trkpt>
      <trkpt lat="44.46762" lon="6.22877">
        <ele>735</ele>
        <time>2025-11-21T14:12:36.000Z</time>
      </trkpt>
      <trkpt lat="44.46762" lon="6.22876">
        <ele>735</ele>
        <time>2025-11-21T14:12:37.000Z</time>
      </trkpt>
      <trkpt lat="44.46761" lon="6.22874">
        <ele>734</ele>
        <time>2025-11-21T14:12:38.000Z</time>
      </trkpt>
      <trkpt lat="44.4676" lon="6.22874">
        <ele>734</ele>
        <time>2025-11-21T14:12:39.000Z</time>
      </trkpt>
      <trkpt lat="44.4676" lon="6.22872">
        <ele>734</ele>
        <time>2025-11-21T14:12:40.000Z</time>
      </trkpt>
      <trkpt lat="44.46759" lon="6.22871">
        <ele>734</ele>
        <time>2025-11-21T14:12:41.000Z</time>
      </trkpt>
      <trkpt lat="44.46759" lon="6.22871">
        <ele>734</ele>
        <time>2025-11-21T14:12:42.000Z</time>
      </trkpt>
      <trkpt lat="44.46759" lon="6.2287">
        <ele>734</ele>
        <time>2025-11-21T14:12:43.000Z</time>
      </trkpt>
      <trkpt lat="44.46759" lon="6.22868">
        <ele>733</ele>
        <time>2025-11-21T14:12:44.000Z</time>
      </trkpt>
      <trkpt lat="44.46759" lon="6.22867">
        <ele>734</ele>
        <time>2025-11-21T14:12:45.000Z</time>
      </trkpt>
      <trkpt lat="44.46759" lon="6.22867">
        <ele>734</ele>
        <time>2025-11-21T14:12:46.000Z</time>
      </trkpt>
      <trkpt lat="44.46758" lon="6.22865">
        <ele>735</ele>
        <time>2025-11-21T14:12:47.000Z</time>
      </trkpt>
      <trkpt lat="44.46758" lon="6.22863">
        <ele>734</ele>
        <time>2025-11-21T14:12:48.000Z</time>
      </trkpt>
      <trkpt lat="44.46757" lon="6.22862">
        <ele>734</ele>
        <time>2025-11-21T14:12:49.000Z</time>
      </trkpt>
      <trkpt lat="44.46756" lon="6.22861">
        <ele>734</ele>
        <time>2025-11-21T14:12:50.000Z</time>
      </trkpt>
      <trkpt lat="44.46755" lon="6.22859">
        <ele>734</ele>
        <time>2025-11-21T14:12:51.000Z</time>
      </trkpt>
      <trkpt lat="44.46755" lon="6.22858">
        <ele>734</ele>
        <time>2025-11-21T14:12:52.000Z</time>
      </trkpt>
      <trkpt lat="44.46755" lon="6.22857">
        <ele>734</ele>
        <time>2025-11-21T14:12:53.000Z</time>
      </trkpt>
      <trkpt lat="44.46754" lon="6.22855">
        <ele>734</ele>
        <time>2025-11-21T14:12:54.000Z</time>
      </trkpt>
      <trkpt lat="44.46754" lon="6.22854">
        <ele>733</ele>
        <time>2025-11-21T14:12:55.000Z</time>
      </trkpt>
      <trkpt lat="44.46753" lon="6.22853">
        <ele>733</ele>
        <time>2025-11-21T14:12:56.000Z</time>
      </trkpt>
      <trkpt lat="44.46752" lon="6.22852">
        <ele>734</ele>
        <time>2025-11-21T14:12:57.000Z</time>
      </trkpt>
      <trkpt lat="44.46751" lon="6.22852">
        <ele>733</ele>
        <time>2025-11-21T14:12:58.000Z</time>
      </trkpt>
      <trkpt lat="44.4675" lon="6.22851">
        <ele>733</ele>
        <time>2025-11-21T14:12:59.000Z</time>
      </trkpt>
      <trkpt lat="44.4675" lon="6.22849">
        <ele>733</ele>
        <time>2025-11-21T14:13:00.000Z</time>
      </trkpt>
      <trkpt lat="44.46749" lon="6.22849">
        <ele>733</ele>
        <time>2025-11-21T14:13:01.000Z</time>
      </trkpt>
      <trkpt lat="44.46749" lon="6.22848">
        <ele>734</ele>
        <time>2025-11-21T14:13:02.000Z</time>
      </trkpt>
      <trkpt lat="44.46748" lon="6.22847">
        <ele>734</ele>
        <time>2025-11-21T14:13:03.000Z</time>
      </trkpt>
      <trkpt lat="44.46748" lon="6.22846">
        <ele>734</ele>
        <time>2025-11-21T14:13:04.000Z</time>
      </trkpt>
      <trkpt lat="44.46747" lon="6.22846">
        <ele>734</ele>
        <time>2025-11-21T14:13:05.000Z</time>
      </trkpt>
      <trkpt lat="44.46747" lon="6.22846">
        <ele>734</ele>
        <time>2025-11-21T14:13:06.000Z</time>
      </trkpt>
      <trkpt lat="44.46746" lon="6.22846">
        <ele>733</ele>
        <time>2025-11-21T14:13:07.000Z</time>
      </trkpt>
      <trkpt lat="44.46746" lon="6.22846">
        <ele>733</ele>
        <time>2025-11-21T14:13:08.000Z</time>
      </trkpt>
      <trkpt lat="44.46745" lon="6.22845">
        <ele>733</ele>
        <time>2025-11-21T14:13:09.000Z</time>
      </trkpt>
      <trkpt lat="44.46745" lon="6.22845">
        <ele>734</ele>
        <time>2025-11-21T14:13:10.000Z</time>
      </trkpt>
      <trkpt lat="44.46744" lon="6.22845">
        <ele>733</ele>
        <time>2025-11-21T14:13:11.000Z</time>
      </trkpt>
      <trkpt lat="44.46744" lon="6.22843">
        <ele>733</ele>
        <time>2025-11-21T14:13:12.000Z</time>
      </trkpt>
      <trkpt lat="44.46743" lon="6.22842">
        <ele>733</ele>
        <time>2025-11-21T14:13:13.000Z</time>
      </trkpt>
      <trkpt lat="44.46742" lon="6.22841">
        <ele>733</ele>
        <time>2025-11-21T14:13:14.000Z</time>
      </trkpt>
      <trkpt lat="44.46741" lon="6.2284">
        <ele>734</ele>
        <time>2025-11-21T14:13:15.000Z</time>
      </trkpt>
      <trkpt lat="44.4674" lon="6.22838">
        <ele>734</ele>
        <time>2025-11-21T14:13:16.000Z</time>
      </trkpt>
      <trkpt lat="44.4674" lon="6.22837">
        <ele>733</ele>
        <time>2025-11-21T14:13:17.000Z</time>
      </trkpt>
      <trkpt lat="44.46739" lon="6.22837">
        <ele>732</ele>
        <time>2025-11-21T14:13:18.000Z</time>
      </trkpt>
      <trkpt lat="44.46738" lon="6.22835">
        <ele>732</ele>
        <time>2025-11-21T14:13:19.000Z</time>
      </trkpt>
      <trkpt lat="44.46737" lon="6.22835">
        <ele>732</ele>
        <time>2025-11-21T14:13:20.000Z</time>
      </trkpt>
      <trkpt lat="44.46736" lon="6.22834">
        <ele>732</ele>
        <time>2025-11-21T14:13:21.000Z</time>
      </trkpt>
      <trkpt lat="44.46735" lon="6.22833">
        <ele>732</ele>
        <time>2025-11-21T14:13:22.000Z</time>
      </trkpt>
      <trkpt lat="44.46735" lon="6.22832">
        <ele>732</ele>
        <time>2025-11-21T14:13:23.000Z</time>
      </trkpt>
      <trkpt lat="44.46734" lon="6.22831">
        <ele>732</ele>
        <time>2025-11-21T14:13:24.000Z</time>
      </trkpt>
      <trkpt lat="44.46734" lon="6.22831">
        <ele>732</ele>
        <time>2025-11-21T14:13:25.000Z</time>
      </trkpt>
      <trkpt lat="44.46733" lon="6.2283">
        <ele>732</ele>
        <time>2025-11-21T14:13:26.000Z</time>
      </trkpt>
      <trkpt lat="44.46733" lon="6.22829">
        <ele>732</ele>
        <time>2025-11-21T14:13:27.000Z</time>
      </trkpt>
      <trkpt lat="44.46732" lon="6.22828">
        <ele>731</ele>
        <time>2025-11-21T14:13:28.000Z</time>
      </trkpt>
      <trkpt lat="44.46731" lon="6.22827">
        <ele>732</ele>
        <time>2025-11-21T14:13:29.000Z</time>
      </trkpt>
      <trkpt lat="44.4673" lon="6.22825">
        <ele>731</ele>
        <time>2025-11-21T14:13:30.000Z</time>
      </trkpt>
      <trkpt lat="44.46729" lon="6.22825">
        <ele>731</ele>
        <time>2025-11-21T14:13:31.000Z</time>
      </trkpt>
      <trkpt lat="44.46728" lon="6.22824">
        <ele>731</ele>
        <time>2025-11-21T14:13:32.000Z</time>
      </trkpt>
      <trkpt lat="44.46728" lon="6.22823">
        <ele>730</ele>
        <time>2025-11-21T14:13:33.000Z</time>
      </trkpt>
      <trkpt lat="44.46727" lon="6.22822">
        <ele>730</ele>
        <time>2025-11-21T14:13:34.000Z</time>
      </trkpt>
      <trkpt lat="44.46726" lon="6.22821">
        <ele>730</ele>
        <time>2025-11-21T14:13:35.000Z</time>
      </trkpt>
      <trkpt lat="44.46725" lon="6.2282">
        <ele>729</ele>
        <time>2025-11-21T14:13:36.000Z</time>
      </trkpt>
      <trkpt lat="44.46724" lon="6.22818">
        <ele>729</ele>
        <time>2025-11-21T14:13:37.000Z</time>
      </trkpt>
      <trkpt lat="44.46724" lon="6.22818">
        <ele>729</ele>
        <time>2025-11-21T14:13:38.000Z</time>
      </trkpt>
      <trkpt lat="44.46723" lon="6.22817">
        <ele>729</ele>
        <time>2025-11-21T14:13:39.000Z</time>
      </trkpt>
      <trkpt lat="44.46722" lon="6.22816">
        <ele>729</ele>
        <time>2025-11-21T14:13:40.000Z</time>
      </trkpt>
      <trkpt lat="44.46721" lon="6.22814">
        <ele>729</ele>
        <time>2025-11-21T14:13:41.000Z</time>
      </trkpt>
      <trkpt lat="44.4672" lon="6.22813">
        <ele>729</ele>
        <time>2025-11-21T14:13:42.000Z</time>
      </trkpt>
      <trkpt lat="44.46719" lon="6.22812">
        <ele>729</ele>
        <time>2025-11-21T14:13:43.000Z</time>
      </trkpt>
      <trkpt lat="44.46719" lon="6.22811">
        <ele>728</ele>
        <time>2025-11-21T14:13:44.000Z</time>
      </trkpt>
      <trkpt lat="44.46718" lon="6.2281">
        <ele>728</ele>
        <time>2025-11-21T14:13:45.000Z</time>
      </trkpt>
      <trkpt lat="44.46717" lon="6.22809">
        <ele>727</ele>
        <time>2025-11-21T14:13:46.000Z</time>
      </trkpt>
      <trkpt lat="44.46716" lon="6.22809">
        <ele>727</ele>
        <time>2025-11-21T14:13:47.000Z</time>
      </trkpt>
      <trkpt lat="44.46715" lon="6.22808">
        <ele>727</ele>
        <time>2025-11-21T14:13:48.000Z</time>
      </trkpt>
      <trkpt lat="44.46715" lon="6.22808">
        <ele>727</ele>
        <time>2025-11-21T14:13:49.000Z</time>
      </trkpt>
      <trkpt lat="44.46715" lon="6.22807">
        <ele>727</ele>
        <time>2025-11-21T14:13:50.000Z</time>
      </trkpt>
      <trkpt lat="44.46714" lon="6.22806">
        <ele>727</ele>
        <time>2025-11-21T14:13:51.000Z</time>
      </trkpt>
      <trkpt lat="44.46713" lon="6.22805">
        <ele>727</ele>
        <time>2025-11-21T14:13:52.000Z</time>
      </trkpt>
      <trkpt lat="44.46712" lon="6.22804">
        <ele>727</ele>
        <time>2025-11-21T14:13:53.000Z</time>
      </trkpt>
      <trkpt lat="44.4671" lon="6.22804">
        <ele>728</ele>
        <time>2025-11-21T14:13:54.000Z</time>
      </trkpt>
      <trkpt lat="44.46709" lon="6.22804">
        <ele>728</ele>
        <time>2025-11-21T14:13:55.000Z</time>
      </trkpt>
      <trkpt lat="44.46708" lon="6.22803">
        <ele>728</ele>
        <time>2025-11-21T14:13:56.000Z</time>
      </trkpt>
      <trkpt lat="44.46707" lon="6.22802">
        <ele>728</ele>
        <time>2025-11-21T14:13:57.000Z</time>
      </trkpt>
      <trkpt lat="44.46705" lon="6.22801">
        <ele>727</ele>
        <time>2025-11-21T14:13:58.000Z</time>
      </trkpt>
      <trkpt lat="44.46704" lon="6.22799">
        <ele>727</ele>
        <time>2025-11-21T14:13:59.000Z</time>
      </trkpt>
      <trkpt lat="44.46703" lon="6.22797">
        <ele>726</ele>
        <time>2025-11-21T14:14:00.000Z</time>
      </trkpt>
      <trkpt lat="44.46702" lon="6.22796">
        <ele>726</ele>
        <time>2025-11-21T14:14:01.000Z</time>
      </trkpt>
      <trkpt lat="44.46701" lon="6.22795">
        <ele>726</ele>
        <time>2025-11-21T14:14:02.000Z</time>
      </trkpt>
      <trkpt lat="44.467" lon="6.22794">
        <ele>726</ele>
        <time>2025-11-21T14:14:03.000Z</time>
      </trkpt>
      <trkpt lat="44.46699" lon="6.22793">
        <ele>726</ele>
        <time>2025-11-21T14:14:04.000Z</time>
      </trkpt>
      <trkpt lat="44.46699" lon="6.22792">
        <ele>726</ele>
        <time>2025-11-21T14:14:05.000Z</time>
      </trkpt>
      <trkpt lat="44.46698" lon="6.22792">
        <ele>726</ele>
        <time>2025-11-21T14:14:06.000Z</time>
      </trkpt>
      <trkpt lat="44.46697" lon="6.22792">
        <ele>725</ele>
        <time>2025-11-21T14:14:07.000Z</time>
      </trkpt>
      <trkpt lat="44.46697" lon="6.22792">
        <ele>725</ele>
        <time>2025-11-21T14:14:08.000Z</time>
      </trkpt>
      <trkpt lat="44.46696" lon="6.22793">
        <ele>724</ele>
        <time>2025-11-21T14:14:09.000Z</time>
      </trkpt>
      <trkpt lat="44.46695" lon="6.22794">
        <ele>724</ele>
        <time>2025-11-21T14:14:10.000Z</time>
      </trkpt>
      <trkpt lat="44.46693" lon="6.22794">
        <ele>724</ele>
        <time>2025-11-21T14:14:11.000Z</time>
      </trkpt>
      <trkpt lat="44.46692" lon="6.22795">
        <ele>724</ele>
        <time>2025-11-21T14:14:12.000Z</time>
      </trkpt>
      <trkpt lat="44.46691" lon="6.22796">
        <ele>724</ele>
        <time>2025-11-21T14:14:13.000Z</time>
      </trkpt>
      <trkpt lat="44.4669" lon="6.22797">
        <ele>725</ele>
        <time>2025-11-21T14:14:14.000Z</time>
      </trkpt>
      <trkpt lat="44.4669" lon="6.22797">
        <ele>725</ele>
        <time>2025-11-21T14:14:15.000Z</time>
      </trkpt>
      <trkpt lat="44.4669" lon="6.22797">
        <ele>726</ele>
        <time>2025-11-21T14:14:16.000Z</time>
      </trkpt>
      <trkpt lat="44.46689" lon="6.22798">
        <ele>726</ele>
        <time>2025-11-21T14:14:17.000Z</time>
      </trkpt>
      <trkpt lat="44.46688" lon="6.22799">
        <ele>725</ele>
        <time>2025-11-21T14:14:18.000Z</time>
      </trkpt>
      <trkpt lat="44.46688" lon="6.22801">
        <ele>725</ele>
        <time>2025-11-21T14:14:19.000Z</time>
      </trkpt>
      <trkpt lat="44.46687" lon="6.22802">
        <ele>725</ele>
        <time>2025-11-21T14:14:20.000Z</time>
      </trkpt>
      <trkpt lat="44.46687" lon="6.22804">
        <ele>724</ele>
        <time>2025-11-21T14:14:21.000Z</time>
      </trkpt>
      <trkpt lat="44.46686" lon="6.22805">
        <ele>725</ele>
        <time>2025-11-21T14:14:22.000Z</time>
      </trkpt>
      <trkpt lat="44.46685" lon="6.22806">
        <ele>725</ele>
        <time>2025-11-21T14:14:23.000Z</time>
      </trkpt>
      <trkpt lat="44.46684" lon="6.22808">
        <ele>724</ele>
        <time>2025-11-21T14:14:24.000Z</time>
      </trkpt>
      <trkpt lat="44.46683" lon="6.22809">
        <ele>724</ele>
        <time>2025-11-21T14:14:25.000Z</time>
      </trkpt>
      <trkpt lat="44.46683" lon="6.2281">
        <ele>725</ele>
        <time>2025-11-21T14:14:26.000Z</time>
      </trkpt>
      <trkpt lat="44.46682" lon="6.22812">
        <ele>725</ele>
        <time>2025-11-21T14:14:27.000Z</time>
      </trkpt>
      <trkpt lat="44.46681" lon="6.22814">
        <ele>725</ele>
        <time>2025-11-21T14:14:28.000Z</time>
      </trkpt>
      <trkpt lat="44.46681" lon="6.22815">
        <ele>725</ele>
        <time>2025-11-21T14:14:29.000Z</time>
      </trkpt>
      <trkpt lat="44.4668" lon="6.22816">
        <ele>725</ele>
        <time>2025-11-21T14:14:30.000Z</time>
      </trkpt>
      <trkpt lat="44.4668" lon="6.22818">
        <ele>724</ele>
        <time>2025-11-21T14:14:31.000Z</time>
      </trkpt>
      <trkpt lat="44.46679" lon="6.22819">
        <ele>724</ele>
        <time>2025-11-21T14:14:32.000Z</time>
      </trkpt>
      <trkpt lat="44.46679" lon="6.2282">
        <ele>723</ele>
        <time>2025-11-21T14:14:33.000Z</time>
      </trkpt>
      <trkpt lat="44.46678" lon="6.22823">
        <ele>722</ele>
        <time>2025-11-21T14:14:34.000Z</time>
      </trkpt>
      <trkpt lat="44.46678" lon="6.22824">
        <ele>722</ele>
        <time>2025-11-21T14:14:35.000Z</time>
      </trkpt>
      <trkpt lat="44.46677" lon="6.22826">
        <ele>723</ele>
        <time>2025-11-21T14:14:36.000Z</time>
      </trkpt>
      <trkpt lat="44.46676" lon="6.22827">
        <ele>723</ele>
        <time>2025-11-21T14:14:37.000Z</time>
      </trkpt>
      <trkpt lat="44.46676" lon="6.22828">
        <ele>723</ele>
        <time>2025-11-21T14:14:38.000Z</time>
      </trkpt>
      <trkpt lat="44.46675" lon="6.2283">
        <ele>723</ele>
        <time>2025-11-21T14:14:39.000Z</time>
      </trkpt>
      <trkpt lat="44.46675" lon="6.22831">
        <ele>723</ele>
        <time>2025-11-21T14:14:40.000Z</time>
      </trkpt>
      <trkpt lat="44.46674" lon="6.22833">
        <ele>723</ele>
        <time>2025-11-21T14:14:41.000Z</time>
      </trkpt>
      <trkpt lat="44.46673" lon="6.22834">
        <ele>723</ele>
        <time>2025-11-21T14:14:42.000Z</time>
      </trkpt>
      <trkpt lat="44.46672" lon="6.22835">
        <ele>723</ele>
        <time>2025-11-21T14:14:43.000Z</time>
      </trkpt>
      <trkpt lat="44.46672" lon="6.22837">
        <ele>723</ele>
        <time>2025-11-21T14:14:44.000Z</time>
      </trkpt>
      <trkpt lat="44.46671" lon="6.22838">
        <ele>723</ele>
        <time>2025-11-21T14:14:45.000Z</time>
      </trkpt>
      <trkpt lat="44.4667" lon="6.2284">
        <ele>723</ele>
        <time>2025-11-21T14:14:46.000Z</time>
      </trkpt>
      <trkpt lat="44.4667" lon="6.22842">
        <ele>723</ele>
        <time>2025-11-21T14:14:47.000Z</time>
      </trkpt>
      <trkpt lat="44.46669" lon="6.22844">
        <ele>723</ele>
        <time>2025-11-21T14:14:48.000Z</time>
      </trkpt>
      <trkpt lat="44.46669" lon="6.22845">
        <ele>723</ele>
        <time>2025-11-21T14:14:49.000Z</time>
      </trkpt>
      <trkpt lat="44.46668" lon="6.22847">
        <ele>724</ele>
        <time>2025-11-21T14:14:50.000Z</time>
      </trkpt>
      <trkpt lat="44.46668" lon="6.22849">
        <ele>723</ele>
        <time>2025-11-21T14:14:51.000Z</time>
      </trkpt>
      <trkpt lat="44.46667" lon="6.22851">
        <ele>724</ele>
        <time>2025-11-21T14:14:52.000Z</time>
      </trkpt>
      <trkpt lat="44.46666" lon="6.22853">
        <ele>724</ele>
        <time>2025-11-21T14:14:53.000Z</time>
      </trkpt>
      <trkpt lat="44.46666" lon="6.22854">
        <ele>724</ele>
        <time>2025-11-21T14:14:54.000Z</time>
      </trkpt>
      <trkpt lat="44.46666" lon="6.22856">
        <ele>724</ele>
        <time>2025-11-21T14:14:55.000Z</time>
      </trkpt>
      <trkpt lat="44.46665" lon="6.22857">
        <ele>724</ele>
        <time>2025-11-21T14:14:56.000Z</time>
      </trkpt>
      <trkpt lat="44.46665" lon="6.22858">
        <ele>723</ele>
        <time>2025-11-21T14:14:57.000Z</time>
      </trkpt>
      <trkpt lat="44.46665" lon="6.22858">
        <ele>723</ele>
        <time>2025-11-21T14:14:58.000Z</time>
      </trkpt>
      <trkpt lat="44.46664" lon="6.22859">
        <ele>723</ele>
        <time>2025-11-21T14:14:59.000Z</time>
      </trkpt>
      <trkpt lat="44.46664" lon="6.2286">
        <ele>723</ele>
        <time>2025-11-21T14:15:00.000Z</time>
      </trkpt>
      <trkpt lat="44.46664" lon="6.22862">
        <ele>723</ele>
        <time>2025-11-21T14:15:01.000Z</time>
      </trkpt>
      <trkpt lat="44.46663" lon="6.22863">
        <ele>724</ele>
        <time>2025-11-21T14:15:02.000Z</time>
      </trkpt>
      <trkpt lat="44.46662" lon="6.22865">
        <ele>724</ele>
        <time>2025-11-21T14:15:03.000Z</time>
      </trkpt>
      <trkpt lat="44.46662" lon="6.22867">
        <ele>724</ele>
        <time>2025-11-21T14:15:04.000Z</time>
      </trkpt>
      <trkpt lat="44.46661" lon="6.22868">
        <ele>724</ele>
        <time>2025-11-21T14:15:05.000Z</time>
      </trkpt>
      <trkpt lat="44.46661" lon="6.22869">
        <ele>724</ele>
        <time>2025-11-21T14:15:06.000Z</time>
      </trkpt>
      <trkpt lat="44.46661" lon="6.2287">
        <ele>725</ele>
        <time>2025-11-21T14:15:07.000Z</time>
      </trkpt>
      <trkpt lat="44.4666" lon="6.22872">
        <ele>724</ele>
        <time>2025-11-21T14:15:08.000Z</time>
      </trkpt>
      <trkpt lat="44.4666" lon="6.22873">
        <ele>724</ele>
        <time>2025-11-21T14:15:09.000Z</time>
      </trkpt>
      <trkpt lat="44.46659" lon="6.22875">
        <ele>724</ele>
        <time>2025-11-21T14:15:10.000Z</time>
      </trkpt>
      <trkpt lat="44.46658" lon="6.22877">
        <ele>723</ele>
        <time>2025-11-21T14:15:11.000Z</time>
      </trkpt>
      <trkpt lat="44.46657" lon="6.22878">
        <ele>723</ele>
        <time>2025-11-21T14:15:12.000Z</time>
      </trkpt>
      <trkpt lat="44.46657" lon="6.22879">
        <ele>723</ele>
        <time>2025-11-21T14:15:13.000Z</time>
      </trkpt>
      <trkpt lat="44.46657" lon="6.2288">
        <ele>723</ele>
        <time>2025-11-21T14:15:14.000Z</time>
      </trkpt>
      <trkpt lat="44.46657" lon="6.22881">
        <ele>724</ele>
        <time>2025-11-21T14:15:15.000Z</time>
      </trkpt>
      <trkpt lat="44.46656" lon="6.22882">
        <ele>724</ele>
        <time>2025-11-21T14:15:16.000Z</time>
      </trkpt>
      <trkpt lat="44.46656" lon="6.22883">
        <ele>724</ele>
        <time>2025-11-21T14:15:17.000Z</time>
      </trkpt>
      <trkpt lat="44.46655" lon="6.22885">
        <ele>724</ele>
        <time>2025-11-21T14:15:18.000Z</time>
      </trkpt>
      <trkpt lat="44.46654" lon="6.22885">
        <ele>724</ele>
        <time>2025-11-21T14:15:19.000Z</time>
      </trkpt>
      <trkpt lat="44.46654" lon="6.22886">
        <ele>725</ele>
        <time>2025-11-21T14:15:20.000Z</time>
      </trkpt>
      <trkpt lat="44.46653" lon="6.22888">
        <ele>725</ele>
        <time>2025-11-21T14:15:21.000Z</time>
      </trkpt>
      <trkpt lat="44.46652" lon="6.22889">
        <ele>725</ele>
        <time>2025-11-21T14:15:22.000Z</time>
      </trkpt>
      <trkpt lat="44.46651" lon="6.2289">
        <ele>725</ele>
        <time>2025-11-21T14:15:23.000Z</time>
      </trkpt>
      <trkpt lat="44.4665" lon="6.22891">
        <ele>725</ele>
        <time>2025-11-21T14:15:24.000Z</time>
      </trkpt>
      <trkpt lat="44.46649" lon="6.22891">
        <ele>725</ele>
        <time>2025-11-21T14:15:25.000Z</time>
      </trkpt>
      <trkpt lat="44.46648" lon="6.22891">
        <ele>725</ele>
        <time>2025-11-21T14:15:26.000Z</time>
      </trkpt>
      <trkpt lat="44.46647" lon="6.22891">
        <ele>725</ele>
        <time>2025-11-21T14:15:27.000Z</time>
      </trkpt>
      <trkpt lat="44.46647" lon="6.22892">
        <ele>725</ele>
        <time>2025-11-21T14:15:28.000Z</time>
      </trkpt>
      <trkpt lat="44.46646" lon="6.22893">
        <ele>724</ele>
        <time>2025-11-21T14:15:29.000Z</time>
      </trkpt>
      <trkpt lat="44.46645" lon="6.22894">
        <ele>724</ele>
        <time>2025-11-21T14:15:30.000Z</time>
      </trkpt>
      <trkpt lat="44.46643" lon="6.22894">
        <ele>724</ele>
        <time>2025-11-21T14:15:31.000Z</time>
      </trkpt>
      <trkpt lat="44.46642" lon="6.22896">
        <ele>724</ele>
        <time>2025-11-21T14:15:32.000Z</time>
      </trkpt>
      <trkpt lat="44.4664" lon="6.22896">
        <ele>725</ele>
        <time>2025-11-21T14:15:33.000Z</time>
      </trkpt>
      <trkpt lat="44.46639" lon="6.22896">
        <ele>724</ele>
        <time>2025-11-21T14:15:34.000Z</time>
      </trkpt>
      <trkpt lat="44.46638" lon="6.22896">
        <ele>725</ele>
        <time>2025-11-21T14:15:35.000Z</time>
      </trkpt>
      <trkpt lat="44.46637" lon="6.22896">
        <ele>724</ele>
        <time>2025-11-21T14:15:36.000Z</time>
      </trkpt>
      <trkpt lat="44.46635" lon="6.22895">
        <ele>725</ele>
        <time>2025-11-21T14:15:37.000Z</time>
      </trkpt>
      <trkpt lat="44.46634" lon="6.22894">
        <ele>724</ele>
        <time>2025-11-21T14:15:38.000Z</time>
      </trkpt>
      <trkpt lat="44.46633" lon="6.22894">
        <ele>723</ele>
        <time>2025-11-21T14:15:39.000Z</time>
      </trkpt>
      <trkpt lat="44.46632" lon="6.22894">
        <ele>723</ele>
        <time>2025-11-21T14:15:40.000Z</time>
      </trkpt>
      <trkpt lat="44.46631" lon="6.22894">
        <ele>722</ele>
        <time>2025-11-21T14:15:41.000Z</time>
      </trkpt>
      <trkpt lat="44.4663" lon="6.22893">
        <ele>722</ele>
        <time>2025-11-21T14:15:42.000Z</time>
      </trkpt>
      <trkpt lat="44.46629" lon="6.22893">
        <ele>722</ele>
        <time>2025-11-21T14:15:43.000Z</time>
      </trkpt>
      <trkpt lat="44.46627" lon="6.22893">
        <ele>723</ele>
        <time>2025-11-21T14:15:44.000Z</time>
      </trkpt>
      <trkpt lat="44.46625" lon="6.22893">
        <ele>722</ele>
        <time>2025-11-21T14:15:45.000Z</time>
      </trkpt>
      <trkpt lat="44.46625" lon="6.22893">
        <ele>722</ele>
        <time>2025-11-21T14:15:46.000Z</time>
      </trkpt>
      <trkpt lat="44.46624" lon="6.22892">
        <ele>722</ele>
        <time>2025-11-21T14:15:47.000Z</time>
      </trkpt>
      <trkpt lat="44.46622" lon="6.22892">
        <ele>721</ele>
        <time>2025-11-21T14:15:48.000Z</time>
      </trkpt>
      <trkpt lat="44.46622" lon="6.22892">
        <ele>721</ele>
        <time>2025-11-21T14:15:49.000Z</time>
      </trkpt>
      <trkpt lat="44.46621" lon="6.22891">
        <ele>721</ele>
        <time>2025-11-21T14:15:50.000Z</time>
      </trkpt>
      <trkpt lat="44.4662" lon="6.22891">
        <ele>721</ele>
        <time>2025-11-21T14:15:51.000Z</time>
      </trkpt>
      <trkpt lat="44.46619" lon="6.22891">
        <ele>721</ele>
        <time>2025-11-21T14:15:52.000Z</time>
      </trkpt>
      <trkpt lat="44.46618" lon="6.2289">
        <ele>722</ele>
        <time>2025-11-21T14:15:53.000Z</time>
      </trkpt>
      <trkpt lat="44.46616" lon="6.2289">
        <ele>722</ele>
        <time>2025-11-21T14:15:54.000Z</time>
      </trkpt>
      <trkpt lat="44.46616" lon="6.2289">
        <ele>721</ele>
        <time>2025-11-21T14:15:55.000Z</time>
      </trkpt>
      <trkpt lat="44.46615" lon="6.2289">
        <ele>721</ele>
        <time>2025-11-21T14:15:56.000Z</time>
      </trkpt>
      <trkpt lat="44.46614" lon="6.2289">
        <ele>721</ele>
        <time>2025-11-21T14:15:57.000Z</time>
      </trkpt>
      <trkpt lat="44.46613" lon="6.2289">
        <ele>721</ele>
        <time>2025-11-21T14:15:58.000Z</time>
      </trkpt>
      <trkpt lat="44.46612" lon="6.2289">
        <ele>720</ele>
        <time>2025-11-21T14:15:59.000Z</time>
      </trkpt>
      <trkpt lat="44.4661" lon="6.22889">
        <ele>720</ele>
        <time>2025-11-21T14:16:00.000Z</time>
      </trkpt>
      <trkpt lat="44.46609" lon="6.22889">
        <ele>720</ele>
        <time>2025-11-21T14:16:01.000Z</time>
      </trkpt>
      <trkpt lat="44.46608" lon="6.22889">
        <ele>720</ele>
        <time>2025-11-21T14:16:02.000Z</time>
      </trkpt>
      <trkpt lat="44.46608" lon="6.22888">
        <ele>720</ele>
        <time>2025-11-21T14:16:03.000Z</time>
      </trkpt>
      <trkpt lat="44.46608" lon="6.22888">
        <ele>719</ele>
        <time>2025-11-21T14:16:04.000Z</time>
      </trkpt>
      <trkpt lat="44.46608" lon="6.22887">
        <ele>718</ele>
        <time>2025-11-21T14:16:05.000Z</time>
      </trkpt>
      <trkpt lat="44.46607" lon="6.22887">
        <ele>719</ele>
        <time>2025-11-21T14:16:06.000Z</time>
      </trkpt>
      <trkpt lat="44.46606" lon="6.22888">
        <ele>720</ele>
        <time>2025-11-21T14:16:07.000Z</time>
      </trkpt>
      <trkpt lat="44.46605" lon="6.22888">
        <ele>719</ele>
        <time>2025-11-21T14:16:08.000Z</time>
      </trkpt>
      <trkpt lat="44.46604" lon="6.22889">
        <ele>719</ele>
        <time>2025-11-21T14:16:09.000Z</time>
      </trkpt>
      <trkpt lat="44.46603" lon="6.22889">
        <ele>719</ele>
        <time>2025-11-21T14:16:10.000Z</time>
      </trkpt>
      <trkpt lat="44.46603" lon="6.22889">
        <ele>719</ele>
        <time>2025-11-21T14:16:11.000Z</time>
      </trkpt>
      <trkpt lat="44.46602" lon="6.22889">
        <ele>719</ele>
        <time>2025-11-21T14:16:12.000Z</time>
      </trkpt>
      <trkpt lat="44.46602" lon="6.2289">
        <ele>719</ele>
        <time>2025-11-21T14:16:13.000Z</time>
      </trkpt>
      <trkpt lat="44.46602" lon="6.2289">
        <ele>719</ele>
        <time>2025-11-21T14:16:14.000Z</time>
      </trkpt>
      <trkpt lat="44.46602" lon="6.22889">
        <ele>718</ele>
        <time>2025-11-21T14:16:15.000Z</time>
      </trkpt>
      <trkpt lat="44.46602" lon="6.22888">
        <ele>718</ele>
        <time>2025-11-21T14:16:16.000Z</time>
      </trkpt>
      <trkpt lat="44.46601" lon="6.22887">
        <ele>719</ele>
        <time>2025-11-21T14:16:17.000Z</time>
      </trkpt>
      <trkpt lat="44.46601" lon="6.22885">
        <ele>718</ele>
        <time>2025-11-21T14:16:18.000Z</time>
      </trkpt>
      <trkpt lat="44.466" lon="6.22885">
        <ele>719</ele>
        <time>2025-11-21T14:16:19.000Z</time>
      </trkpt>
      <trkpt lat="44.466" lon="6.22883">
        <ele>719</ele>
        <time>2025-11-21T14:16:20.000Z</time>
      </trkpt>
      <trkpt lat="44.46599" lon="6.22882">
        <ele>719</ele>
        <time>2025-11-21T14:16:21.000Z</time>
      </trkpt>
      <trkpt lat="44.46599" lon="6.22881">
        <ele>719</ele>
        <time>2025-11-21T14:16:22.000Z</time>
      </trkpt>
      <trkpt lat="44.46599" lon="6.2288">
        <ele>719</ele>
        <time>2025-11-21T14:16:23.000Z</time>
      </trkpt>
      <trkpt lat="44.46598" lon="6.22879">
        <ele>719</ele>
        <time>2025-11-21T14:16:24.000Z</time>
      </trkpt>
      <trkpt lat="44.46596" lon="6.22879">
        <ele>719</ele>
        <time>2025-11-21T14:16:25.000Z</time>
      </trkpt>
      <trkpt lat="44.46595" lon="6.22879">
        <ele>719</ele>
        <time>2025-11-21T14:16:26.000Z</time>
      </trkpt>
      <trkpt lat="44.46595" lon="6.22879">
        <ele>718</ele>
        <time>2025-11-21T14:16:27.000Z</time>
      </trkpt>
      <trkpt lat="44.46593" lon="6.22879">
        <ele>719</ele>
        <time>2025-11-21T14:16:28.000Z</time>
      </trkpt>
      <trkpt lat="44.46592" lon="6.22877">
        <ele>719</ele>
        <time>2025-11-21T14:16:29.000Z</time>
      </trkpt>
      <trkpt lat="44.46591" lon="6.22876">
        <ele>718</ele>
        <time>2025-11-21T14:16:30.000Z</time>
      </trkpt>
      <trkpt lat="44.4659" lon="6.22876">
        <ele>719</ele>
        <time>2025-11-21T14:16:31.000Z</time>
      </trkpt>
      <trkpt lat="44.46589" lon="6.22875">
        <ele>718</ele>
        <time>2025-11-21T14:16:32.000Z</time>
      </trkpt>
      <trkpt lat="44.46588" lon="6.22875">
        <ele>717</ele>
        <time>2025-11-21T14:16:33.000Z</time>
      </trkpt>
      <trkpt lat="44.46587" lon="6.22876">
        <ele>717</ele>
        <time>2025-11-21T14:16:34.000Z</time>
      </trkpt>
      <trkpt lat="44.46586" lon="6.22875">
        <ele>717</ele>
        <time>2025-11-21T14:16:35.000Z</time>
      </trkpt>
      <trkpt lat="44.46584" lon="6.22875">
        <ele>717</ele>
        <time>2025-11-21T14:16:36.000Z</time>
      </trkpt>
      <trkpt lat="44.46583" lon="6.22875">
        <ele>717</ele>
        <time>2025-11-21T14:16:37.000Z</time>
      </trkpt>
      <trkpt lat="44.46582" lon="6.22875">
        <ele>716</ele>
        <time>2025-11-21T14:16:38.000Z</time>
      </trkpt>
      <trkpt lat="44.46581" lon="6.22874">
        <ele>716</ele>
        <time>2025-11-21T14:16:39.000Z</time>
      </trkpt>
      <trkpt lat="44.4658" lon="6.22873">
        <ele>716</ele>
        <time>2025-11-21T14:16:40.000Z</time>
      </trkpt>
      <trkpt lat="44.46578" lon="6.22873">
        <ele>716</ele>
        <time>2025-11-21T14:16:41.000Z</time>
      </trkpt>
      <trkpt lat="44.46577" lon="6.22872">
        <ele>716</ele>
        <time>2025-11-21T14:16:42.000Z</time>
      </trkpt>
      <trkpt lat="44.46576" lon="6.22872">
        <ele>716</ele>
        <time>2025-11-21T14:16:43.000Z</time>
      </trkpt>
      <trkpt lat="44.46575" lon="6.22872">
        <ele>716</ele>
        <time>2025-11-21T14:16:44.000Z</time>
      </trkpt>
      <trkpt lat="44.46573" lon="6.22871">
        <ele>715</ele>
        <time>2025-11-21T14:16:45.000Z</time>
      </trkpt>
      <trkpt lat="44.46572" lon="6.22871">
        <ele>716</ele>
        <time>2025-11-21T14:16:46.000Z</time>
      </trkpt>
      <trkpt lat="44.46571" lon="6.2287">
        <ele>715</ele>
        <time>2025-11-21T14:16:47.000Z</time>
      </trkpt>
      <trkpt lat="44.4657" lon="6.22869">
        <ele>715</ele>
        <time>2025-11-21T14:16:48.000Z</time>
      </trkpt>
      <trkpt lat="44.46569" lon="6.22869">
        <ele>715</ele>
        <time>2025-11-21T14:16:49.000Z</time>
      </trkpt>
      <trkpt lat="44.46567" lon="6.22869">
        <ele>715</ele>
        <time>2025-11-21T14:16:50.000Z</time>
      </trkpt>
      <trkpt lat="44.46566" lon="6.22868">
        <ele>715</ele>
        <time>2025-11-21T14:16:51.000Z</time>
      </trkpt>
      <trkpt lat="44.46565" lon="6.22868">
        <ele>715</ele>
        <time>2025-11-21T14:16:52.000Z</time>
      </trkpt>
      <trkpt lat="44.46564" lon="6.22868">
        <ele>716</ele>
        <time>2025-11-21T14:16:53.000Z</time>
      </trkpt>
      <trkpt lat="44.46562" lon="6.22868">
        <ele>716</ele>
        <time>2025-11-21T14:16:54.000Z</time>
      </trkpt>
      <trkpt lat="44.46561" lon="6.22868">
        <ele>716</ele>
        <time>2025-11-21T14:16:55.000Z</time>
      </trkpt>
      <trkpt lat="44.4656" lon="6.22867">
        <ele>717</ele>
        <time>2025-11-21T14:16:56.000Z</time>
      </trkpt>
      <trkpt lat="44.4656" lon="6.22867">
        <ele>716</ele>
        <time>2025-11-21T14:16:57.000Z</time>
      </trkpt>
      <trkpt lat="44.46559" lon="6.22867">
        <ele>717</ele>
        <time>2025-11-21T14:16:58.000Z</time>
      </trkpt>
      <trkpt lat="44.46558" lon="6.22866">
        <ele>716</ele>
        <time>2025-11-21T14:16:59.000Z</time>
      </trkpt>
      <trkpt lat="44.46557" lon="6.22866">
        <ele>716</ele>
        <time>2025-11-21T14:17:00.000Z</time>
      </trkpt>
      <trkpt lat="44.46556" lon="6.22866">
        <ele>716</ele>
        <time>2025-11-21T14:17:01.000Z</time>
      </trkpt>
      <trkpt lat="44.46555" lon="6.22866">
        <ele>717</ele>
        <time>2025-11-21T14:17:02.000Z</time>
      </trkpt>
      <trkpt lat="44.46554" lon="6.22866">
        <ele>717</ele>
        <time>2025-11-21T14:17:03.000Z</time>
      </trkpt>
      <trkpt lat="44.46553" lon="6.22866">
        <ele>717</ele>
        <time>2025-11-21T14:17:04.000Z</time>
      </trkpt>
      <trkpt lat="44.46552" lon="6.22866">
        <ele>717</ele>
        <time>2025-11-21T14:17:05.000Z</time>
      </trkpt>
      <trkpt lat="44.46551" lon="6.22866">
        <ele>716</ele>
        <time>2025-11-21T14:17:06.000Z</time>
      </trkpt>
      <trkpt lat="44.4655" lon="6.22867">
        <ele>716</ele>
        <time>2025-11-21T14:17:07.000Z</time>
      </trkpt>
      <trkpt lat="44.46549" lon="6.22868">
        <ele>716</ele>
        <time>2025-11-21T14:17:08.000Z</time>
      </trkpt>
      <trkpt lat="44.46548" lon="6.22869">
        <ele>715</ele>
        <time>2025-11-21T14:17:09.000Z</time>
      </trkpt>
      <trkpt lat="44.46548" lon="6.2287">
        <ele>715</ele>
        <time>2025-11-21T14:17:10.000Z</time>
      </trkpt>
      <trkpt lat="44.46547" lon="6.22871">
        <ele>714</ele>
        <time>2025-11-21T14:17:11.000Z</time>
      </trkpt>
      <trkpt lat="44.46546" lon="6.22872">
        <ele>714</ele>
        <time>2025-11-21T14:17:12.000Z</time>
      </trkpt>
      <trkpt lat="44.46545" lon="6.22874">
        <ele>714</ele>
        <time>2025-11-21T14:17:13.000Z</time>
      </trkpt>
      <trkpt lat="44.46544" lon="6.22875">
        <ele>713</ele>
        <time>2025-11-21T14:17:14.000Z</time>
      </trkpt>
      <trkpt lat="44.46544" lon="6.22877">
        <ele>714</ele>
        <time>2025-11-21T14:17:15.000Z</time>
      </trkpt>
      <trkpt lat="44.46543" lon="6.22878">
        <ele>713</ele>
        <time>2025-11-21T14:17:16.000Z</time>
      </trkpt>
      <trkpt lat="44.46542" lon="6.2288">
        <ele>714</ele>
        <time>2025-11-21T14:17:17.000Z</time>
      </trkpt>
      <trkpt lat="44.46541" lon="6.22882">
        <ele>713</ele>
        <time>2025-11-21T14:17:18.000Z</time>
      </trkpt>
      <trkpt lat="44.46541" lon="6.22883">
        <ele>713</ele>
        <time>2025-11-21T14:17:19.000Z</time>
      </trkpt>
      <trkpt lat="44.4654" lon="6.22885">
        <ele>713</ele>
        <time>2025-11-21T14:17:20.000Z</time>
      </trkpt>
      <trkpt lat="44.4654" lon="6.22887">
        <ele>714</ele>
        <time>2025-11-21T14:17:21.000Z</time>
      </trkpt>
      <trkpt lat="44.46539" lon="6.22889">
        <ele>714</ele>
        <time>2025-11-21T14:17:22.000Z</time>
      </trkpt>
      <trkpt lat="44.46538" lon="6.2289">
        <ele>714</ele>
        <time>2025-11-21T14:17:23.000Z</time>
      </trkpt>
      <trkpt lat="44.46538" lon="6.22891">
        <ele>714</ele>
        <time>2025-11-21T14:17:24.000Z</time>
      </trkpt>
      <trkpt lat="44.46537" lon="6.22893">
        <ele>714</ele>
        <time>2025-11-21T14:17:25.000Z</time>
      </trkpt>
      <trkpt lat="44.46535" lon="6.22894">
        <ele>714</ele>
        <time>2025-11-21T14:17:26.000Z</time>
      </trkpt>
      <trkpt lat="44.46534" lon="6.22895">
        <ele>714</ele>
        <time>2025-11-21T14:17:27.000Z</time>
      </trkpt>
      <trkpt lat="44.46534" lon="6.22897">
        <ele>714</ele>
        <time>2025-11-21T14:17:28.000Z</time>
      </trkpt>
      <trkpt lat="44.46533" lon="6.22899">
        <ele>714</ele>
        <time>2025-11-21T14:17:29.000Z</time>
      </trkpt>
      <trkpt lat="44.46533" lon="6.22899">
        <ele>714</ele>
        <time>2025-11-21T14:17:30.000Z</time>
      </trkpt>
      <trkpt lat="44.46533" lon="6.22901">
        <ele>714</ele>
        <time>2025-11-21T14:17:31.000Z</time>
      </trkpt>
      <trkpt lat="44.46532" lon="6.22903">
        <ele>714</ele>
        <time>2025-11-21T14:17:32.000Z</time>
      </trkpt>
      <trkpt lat="44.46532" lon="6.22904">
        <ele>714</ele>
        <time>2025-11-21T14:17:33.000Z</time>
      </trkpt>
      <trkpt lat="44.46532" lon="6.22905">
        <ele>714</ele>
        <time>2025-11-21T14:17:34.000Z</time>
      </trkpt>
      <trkpt lat="44.46531" lon="6.22908">
        <ele>713</ele>
        <time>2025-11-21T14:17:35.000Z</time>
      </trkpt>
      <trkpt lat="44.46531" lon="6.2291">
        <ele>713</ele>
        <time>2025-11-21T14:17:36.000Z</time>
      </trkpt>
      <trkpt lat="44.46531" lon="6.22911">
        <ele>713</ele>
        <time>2025-11-21T14:17:37.000Z</time>
      </trkpt>
      <trkpt lat="44.4653" lon="6.22913">
        <ele>713</ele>
        <time>2025-11-21T14:17:38.000Z</time>
      </trkpt>
      <trkpt lat="44.4653" lon="6.22914">
        <ele>713</ele>
        <time>2025-11-21T14:17:39.000Z</time>
      </trkpt>
      <trkpt lat="44.4653" lon="6.22915">
        <ele>712</ele>
        <time>2025-11-21T14:17:40.000Z</time>
      </trkpt>
      <trkpt lat="44.46529" lon="6.22916">
        <ele>712</ele>
        <time>2025-11-21T14:17:41.000Z</time>
      </trkpt>
      <trkpt lat="44.46529" lon="6.22918">
        <ele>712</ele>
        <time>2025-11-21T14:17:42.000Z</time>
      </trkpt>
      <trkpt lat="44.46529" lon="6.22919">
        <ele>712</ele>
        <time>2025-11-21T14:17:43.000Z</time>
      </trkpt>
      <trkpt lat="44.46529" lon="6.2292">
        <ele>713</ele>
        <time>2025-11-21T14:17:44.000Z</time>
      </trkpt>
      <trkpt lat="44.46528" lon="6.22922">
        <ele>712</ele>
        <time>2025-11-21T14:17:45.000Z</time>
      </trkpt>
      <trkpt lat="44.46528" lon="6.22924">
        <ele>713</ele>
        <time>2025-11-21T14:17:46.000Z</time>
      </trkpt>
      <trkpt lat="44.46528" lon="6.22926">
        <ele>713</ele>
        <time>2025-11-21T14:17:47.000Z</time>
      </trkpt>
      <trkpt lat="44.46527" lon="6.22927">
        <ele>713</ele>
        <time>2025-11-21T14:17:48.000Z</time>
      </trkpt>
      <trkpt lat="44.46527" lon="6.22929">
        <ele>713</ele>
        <time>2025-11-21T14:17:49.000Z</time>
      </trkpt>
      <trkpt lat="44.46526" lon="6.22931">
        <ele>713</ele>
        <time>2025-11-21T14:17:50.000Z</time>
      </trkpt>
      <trkpt lat="44.46525" lon="6.22932">
        <ele>712</ele>
        <time>2025-11-21T14:17:51.000Z</time>
      </trkpt>
      <trkpt lat="44.46524" lon="6.22933">
        <ele>712</ele>
        <time>2025-11-21T14:17:52.000Z</time>
      </trkpt>
      <trkpt lat="44.46523" lon="6.22935">
        <ele>713</ele>
        <time>2025-11-21T14:17:53.000Z</time>
      </trkpt>
      <trkpt lat="44.46523" lon="6.22936">
        <ele>713</ele>
        <time>2025-11-21T14:17:54.000Z</time>
      </trkpt>
      <trkpt lat="44.46523" lon="6.22937">
        <ele>712</ele>
        <time>2025-11-21T14:17:55.000Z</time>
      </trkpt>
      <trkpt lat="44.46522" lon="6.22939">
        <ele>712</ele>
        <time>2025-11-21T14:17:56.000Z</time>
      </trkpt>
      <trkpt lat="44.46523" lon="6.22941">
        <ele>712</ele>
        <time>2025-11-21T14:17:57.000Z</time>
      </trkpt>
      <trkpt lat="44.46523" lon="6.22943">
        <ele>713</ele>
        <time>2025-11-21T14:17:58.000Z</time>
      </trkpt>
      <trkpt lat="44.46522" lon="6.22945">
        <ele>712</ele>
        <time>2025-11-21T14:17:59.000Z</time>
      </trkpt>
      <trkpt lat="44.46521" lon="6.22946">
        <ele>712</ele>
        <time>2025-11-21T14:18:00.000Z</time>
      </trkpt>
      <trkpt lat="44.4652" lon="6.22948">
        <ele>712</ele>
        <time>2025-11-21T14:18:01.000Z</time>
      </trkpt>
      <trkpt lat="44.4652" lon="6.22949">
        <ele>712</ele>
        <time>2025-11-21T14:18:02.000Z</time>
      </trkpt>
      <trkpt lat="44.4652" lon="6.22951">
        <ele>712</ele>
        <time>2025-11-21T14:18:03.000Z</time>
      </trkpt>
      <trkpt lat="44.46519" lon="6.22953">
        <ele>711</ele>
        <time>2025-11-21T14:18:04.000Z</time>
      </trkpt>
      <trkpt lat="44.46519" lon="6.22955">
        <ele>712</ele>
        <time>2025-11-21T14:18:05.000Z</time>
      </trkpt>
      <trkpt lat="44.46518" lon="6.22957">
        <ele>711</ele>
        <time>2025-11-21T14:18:06.000Z</time>
      </trkpt>
      <trkpt lat="44.46518" lon="6.22958">
        <ele>710</ele>
        <time>2025-11-21T14:18:07.000Z</time>
      </trkpt>
      <trkpt lat="44.46518" lon="6.2296">
        <ele>710</ele>
        <time>2025-11-21T14:18:08.000Z</time>
      </trkpt>
      <trkpt lat="44.46518" lon="6.22962">
        <ele>710</ele>
        <time>2025-11-21T14:18:09.000Z</time>
      </trkpt>
      <trkpt lat="44.46518" lon="6.22964">
        <ele>710</ele>
        <time>2025-11-21T14:18:10.000Z</time>
      </trkpt>
      <trkpt lat="44.46518" lon="6.22966">
        <ele>711</ele>
        <time>2025-11-21T14:18:11.000Z</time>
      </trkpt>
      <trkpt lat="44.46518" lon="6.22968">
        <ele>711</ele>
        <time>2025-11-21T14:18:12.000Z</time>
      </trkpt>
      <trkpt lat="44.46518" lon="6.2297">
        <ele>712</ele>
        <time>2025-11-21T14:18:13.000Z</time>
      </trkpt>
      <trkpt lat="44.46517" lon="6.22972">
        <ele>712</ele>
        <time>2025-11-21T14:18:14.000Z</time>
      </trkpt>
      <trkpt lat="44.46517" lon="6.22973">
        <ele>711</ele>
        <time>2025-11-21T14:18:15.000Z</time>
      </trkpt>
      <trkpt lat="44.46516" lon="6.22975">
        <ele>711</ele>
        <time>2025-11-21T14:18:16.000Z</time>
      </trkpt>
      <trkpt lat="44.46516" lon="6.22977">
        <ele>710</ele>
        <time>2025-11-21T14:18:17.000Z</time>
      </trkpt>
      <trkpt lat="44.46515" lon="6.22979">
        <ele>710</ele>
        <time>2025-11-21T14:18:18.000Z</time>
      </trkpt>
      <trkpt lat="44.46515" lon="6.2298">
        <ele>710</ele>
        <time>2025-11-21T14:18:19.000Z</time>
      </trkpt>
      <trkpt lat="44.46515" lon="6.22981">
        <ele>710</ele>
        <time>2025-11-21T14:18:20.000Z</time>
      </trkpt>
      <trkpt lat="44.46514" lon="6.22983">
        <ele>710</ele>
        <time>2025-11-21T14:18:21.000Z</time>
      </trkpt>
      <trkpt lat="44.46514" lon="6.22985">
        <ele>711</ele>
        <time>2025-11-21T14:18:22.000Z</time>
      </trkpt>
      <trkpt lat="44.46513" lon="6.22986">
        <ele>711</ele>
        <time>2025-11-21T14:18:23.000Z</time>
      </trkpt>
      <trkpt lat="44.46513" lon="6.22988">
        <ele>712</ele>
        <time>2025-11-21T14:18:24.000Z</time>
      </trkpt>
      <trkpt lat="44.46512" lon="6.2299">
        <ele>712</ele>
        <time>2025-11-21T14:18:25.000Z</time>
      </trkpt>
      <trkpt lat="44.46512" lon="6.22992">
        <ele>712</ele>
        <time>2025-11-21T14:18:26.000Z</time>
      </trkpt>
      <trkpt lat="44.46512" lon="6.22993">
        <ele>712</ele>
        <time>2025-11-21T14:18:27.000Z</time>
      </trkpt>
      <trkpt lat="44.46512" lon="6.22994">
        <ele>712</ele>
        <time>2025-11-21T14:18:28.000Z</time>
      </trkpt>
      <trkpt lat="44.46511" lon="6.22996">
        <ele>711</ele>
        <time>2025-11-21T14:18:29.000Z</time>
      </trkpt>
      <trkpt lat="44.46511" lon="6.22998">
        <ele>712</ele>
        <time>2025-11-21T14:18:30.000Z</time>
      </trkpt>
      <trkpt lat="44.46511" lon="6.22999">
        <ele>712</ele>
        <time>2025-11-21T14:18:31.000Z</time>
      </trkpt>
      <trkpt lat="44.4651" lon="6.23001">
        <ele>712</ele>
        <time>2025-11-21T14:18:32.000Z</time>
      </trkpt>
      <trkpt lat="44.4651" lon="6.23003">
        <ele>712</ele>
        <time>2025-11-21T14:18:33.000Z</time>
      </trkpt>
      <trkpt lat="44.4651" lon="6.23004">
        <ele>712</ele>
        <time>2025-11-21T14:18:34.000Z</time>
      </trkpt>
      <trkpt lat="44.4651" lon="6.23006">
        <ele>713</ele>
        <time>2025-11-21T14:18:35.000Z</time>
      </trkpt>
      <trkpt lat="44.46509" lon="6.23008">
        <ele>712</ele>
        <time>2025-11-21T14:18:36.000Z</time>
      </trkpt>
      <trkpt lat="44.46509" lon="6.23009">
        <ele>712</ele>
        <time>2025-11-21T14:18:37.000Z</time>
      </trkpt>
      <trkpt lat="44.46509" lon="6.23011">
        <ele>712</ele>
        <time>2025-11-21T14:18:38.000Z</time>
      </trkpt>
      <trkpt lat="44.46508" lon="6.23012">
        <ele>712</ele>
        <time>2025-11-21T14:18:39.000Z</time>
      </trkpt>
      <trkpt lat="44.46507" lon="6.23014">
        <ele>712</ele>
        <time>2025-11-21T14:18:40.000Z</time>
      </trkpt>
      <trkpt lat="44.46506" lon="6.23016">
        <ele>711</ele>
        <time>2025-11-21T14:18:41.000Z</time>
      </trkpt>
      <trkpt lat="44.46506" lon="6.23017">
        <ele>712</ele>
        <time>2025-11-21T14:18:42.000Z</time>
      </trkpt>
      <trkpt lat="44.46506" lon="6.23017">
        <ele>712</ele>
        <time>2025-11-21T14:18:43.000Z</time>
      </trkpt>
      <trkpt lat="44.46506" lon="6.23018">
        <ele>711</ele>
        <time>2025-11-21T14:18:44.000Z</time>
      </trkpt>
      <trkpt lat="44.46505" lon="6.2302">
        <ele>712</ele>
        <time>2025-11-21T14:18:45.000Z</time>
      </trkpt>
      <trkpt lat="44.46505" lon="6.23022">
        <ele>712</ele>
        <time>2025-11-21T14:18:46.000Z</time>
      </trkpt>
      <trkpt lat="44.46504" lon="6.23025">
        <ele>712</ele>
        <time>2025-11-21T14:18:47.000Z</time>
      </trkpt>
      <trkpt lat="44.46503" lon="6.23027">
        <ele>713</ele>
        <time>2025-11-21T14:18:48.000Z</time>
      </trkpt>
      <trkpt lat="44.46503" lon="6.23028">
        <ele>712</ele>
        <time>2025-11-21T14:18:49.000Z</time>
      </trkpt>
      <trkpt lat="44.46503" lon="6.23029">
        <ele>711</ele>
        <time>2025-11-21T14:18:50.000Z</time>
      </trkpt>
      <trkpt lat="44.46503" lon="6.23031">
        <ele>712</ele>
        <time>2025-11-21T14:18:51.000Z</time>
      </trkpt>
      <trkpt lat="44.46503" lon="6.23032">
        <ele>712</ele>
        <time>2025-11-21T14:18:52.000Z</time>
      </trkpt>
      <trkpt lat="44.46503" lon="6.23033">
        <ele>712</ele>
        <time>2025-11-21T14:18:53.000Z</time>
      </trkpt>
      <trkpt lat="44.46503" lon="6.23036">
        <ele>712</ele>
        <time>2025-11-21T14:18:54.000Z</time>
      </trkpt>
      <trkpt lat="44.46503" lon="6.23038">
        <ele>712</ele>
        <time>2025-11-21T14:18:55.000Z</time>
      </trkpt>
      <trkpt lat="44.46502" lon="6.23041">
        <ele>712</ele>
        <time>2025-11-21T14:18:56.000Z</time>
      </trkpt>
      <trkpt lat="44.46502" lon="6.23043">
        <ele>713</ele>
        <time>2025-11-21T14:18:57.000Z</time>
      </trkpt>
      <trkpt lat="44.46503" lon="6.23045">
        <ele>712</ele>
        <time>2025-11-21T14:18:58.000Z</time>
      </trkpt>
      <trkpt lat="44.46503" lon="6.23046">
        <ele>711</ele>
        <time>2025-11-21T14:18:59.000Z</time>
      </trkpt>
      <trkpt lat="44.46504" lon="6.23047">
        <ele>711</ele>
        <time>2025-11-21T14:19:00.000Z</time>
      </trkpt>
      <trkpt lat="44.46505" lon="6.23048">
        <ele>711</ele>
        <time>2025-11-21T14:19:01.000Z</time>
      </trkpt>
      <trkpt lat="44.46506" lon="6.23049">
        <ele>710</ele>
        <time>2025-11-21T14:19:02.000Z</time>
      </trkpt>
      <trkpt lat="44.46507" lon="6.2305">
        <ele>711</ele>
        <time>2025-11-21T14:19:03.000Z</time>
      </trkpt>
      <trkpt lat="44.46508" lon="6.23051">
        <ele>710</ele>
        <time>2025-11-21T14:19:04.000Z</time>
      </trkpt>
      <trkpt lat="44.46509" lon="6.23053">
        <ele>711</ele>
        <time>2025-11-21T14:19:05.000Z</time>
      </trkpt>
      <trkpt lat="44.46509" lon="6.23055">
        <ele>710</ele>
        <time>2025-11-21T14:19:06.000Z</time>
      </trkpt>
      <trkpt lat="44.4651" lon="6.23057">
        <ele>710</ele>
        <time>2025-11-21T14:19:07.000Z</time>
      </trkpt>
      <trkpt lat="44.4651" lon="6.23059">
        <ele>709</ele>
        <time>2025-11-21T14:19:08.000Z</time>
      </trkpt>
      <trkpt lat="44.4651" lon="6.2306">
        <ele>709</ele>
        <time>2025-11-21T14:19:09.000Z</time>
      </trkpt>
      <trkpt lat="44.46511" lon="6.23061">
        <ele>709</ele>
        <time>2025-11-21T14:19:10.000Z</time>
      </trkpt>
      <trkpt lat="44.46511" lon="6.23063">
        <ele>709</ele>
        <time>2025-11-21T14:19:11.000Z</time>
      </trkpt>
      <trkpt lat="44.46511" lon="6.23064">
        <ele>708</ele>
        <time>2025-11-21T14:19:12.000Z</time>
      </trkpt>
      <trkpt lat="44.46511" lon="6.23066">
        <ele>708</ele>
        <time>2025-11-21T14:19:13.000Z</time>
      </trkpt>
      <trkpt lat="44.46511" lon="6.23067">
        <ele>708</ele>
        <time>2025-11-21T14:19:14.000Z</time>
      </trkpt>
      <trkpt lat="44.46511" lon="6.23069">
        <ele>707</ele>
        <time>2025-11-21T14:19:15.000Z</time>
      </trkpt>
      <trkpt lat="44.46511" lon="6.2307">
        <ele>707</ele>
        <time>2025-11-21T14:19:16.000Z</time>
      </trkpt>
      <trkpt lat="44.46511" lon="6.23072">
        <ele>707</ele>
        <time>2025-11-21T14:19:17.000Z</time>
      </trkpt>
      <trkpt lat="44.46511" lon="6.23073">
        <ele>707</ele>
        <time>2025-11-21T14:19:18.000Z</time>
      </trkpt>
      <trkpt lat="44.4651" lon="6.23075">
        <ele>707</ele>
        <time>2025-11-21T14:19:19.000Z</time>
      </trkpt>
      <trkpt lat="44.4651" lon="6.23077">
        <ele>707</ele>
        <time>2025-11-21T14:19:20.000Z</time>
      </trkpt>
      <trkpt lat="44.46509" lon="6.23079">
        <ele>708</ele>
        <time>2025-11-21T14:19:21.000Z</time>
      </trkpt>
      <trkpt lat="44.46509" lon="6.23081">
        <ele>708</ele>
        <time>2025-11-21T14:19:22.000Z</time>
      </trkpt>
      <trkpt lat="44.46509" lon="6.23083">
        <ele>707</ele>
        <time>2025-11-21T14:19:23.000Z</time>
      </trkpt>
      <trkpt lat="44.46509" lon="6.23086">
        <ele>707</ele>
        <time>2025-11-21T14:19:24.000Z</time>
      </trkpt>
      <trkpt lat="44.4651" lon="6.23087">
        <ele>707</ele>
        <time>2025-11-21T14:19:25.000Z</time>
      </trkpt>
      <trkpt lat="44.4651" lon="6.23089">
        <ele>708</ele>
        <time>2025-11-21T14:19:26.000Z</time>
      </trkpt>
      <trkpt lat="44.46509" lon="6.23092">
        <ele>708</ele>
        <time>2025-11-21T14:19:27.000Z</time>
      </trkpt>
      <trkpt lat="44.46509" lon="6.23095">
        <ele>708</ele>
        <time>2025-11-21T14:19:28.000Z</time>
      </trkpt>
      <trkpt lat="44.46509" lon="6.23097">
        <ele>708</ele>
        <time>2025-11-21T14:19:29.000Z</time>
      </trkpt>
      <trkpt lat="44.4651" lon="6.23098">
        <ele>709</ele>
        <time>2025-11-21T14:19:30.000Z</time>
      </trkpt>
      <trkpt lat="44.4651" lon="6.231">
        <ele>709</ele>
        <time>2025-11-21T14:19:31.000Z</time>
      </trkpt>
      <trkpt lat="44.4651" lon="6.23102">
        <ele>708</ele>
        <time>2025-11-21T14:19:32.000Z</time>
      </trkpt>
      <trkpt lat="44.4651" lon="6.23104">
        <ele>709</ele>
        <time>2025-11-21T14:19:33.000Z</time>
      </trkpt>
      <trkpt lat="44.4651" lon="6.23106">
        <ele>709</ele>
        <time>2025-11-21T14:19:34.000Z</time>
      </trkpt>
      <trkpt lat="44.4651" lon="6.23107">
        <ele>709</ele>
        <time>2025-11-21T14:19:35.000Z</time>
      </trkpt>
      <trkpt lat="44.46511" lon="6.23109">
        <ele>710</ele>
        <time>2025-11-21T14:19:36.000Z</time>
      </trkpt>
      <trkpt lat="44.4651" lon="6.23111">
        <ele>711</ele>
        <time>2025-11-21T14:19:37.000Z</time>
      </trkpt>
      <trkpt lat="44.46511" lon="6.23113">
        <ele>711</ele>
        <time>2025-11-21T14:19:38.000Z</time>
      </trkpt>
      <trkpt lat="44.46511" lon="6.23114">
        <ele>711</ele>
        <time>2025-11-21T14:19:39.000Z</time>
      </trkpt>
      <trkpt lat="44.46511" lon="6.23116">
        <ele>712</ele>
        <time>2025-11-21T14:19:40.000Z</time>
      </trkpt>
      <trkpt lat="44.46511" lon="6.23117">
        <ele>712</ele>
        <time>2025-11-21T14:19:41.000Z</time>
      </trkpt>
      <trkpt lat="44.46511" lon="6.23119">
        <ele>713</ele>
        <time>2025-11-21T14:19:42.000Z</time>
      </trkpt>
      <trkpt lat="44.46512" lon="6.23121">
        <ele>713</ele>
        <time>2025-11-21T14:19:43.000Z</time>
      </trkpt>
      <trkpt lat="44.46512" lon="6.23123">
        <ele>713</ele>
        <time>2025-11-21T14:19:44.000Z</time>
      </trkpt>
      <trkpt lat="44.46512" lon="6.23124">
        <ele>713</ele>
        <time>2025-11-21T14:19:45.000Z</time>
      </trkpt>
      <trkpt lat="44.46512" lon="6.23125">
        <ele>714</ele>
        <time>2025-11-21T14:19:46.000Z</time>
      </trkpt>
      <trkpt lat="44.46512" lon="6.23126">
        <ele>715</ele>
        <time>2025-11-21T14:19:47.000Z</time>
      </trkpt>
      <trkpt lat="44.46512" lon="6.23127">
        <ele>715</ele>
        <time>2025-11-21T14:19:48.000Z</time>
      </trkpt>
      <trkpt lat="44.46513" lon="6.23128">
        <ele>716</ele>
        <time>2025-11-21T14:19:49.000Z</time>
      </trkpt>
      <trkpt lat="44.46514" lon="6.23128">
        <ele>716</ele>
        <time>2025-11-21T14:19:50.000Z</time>
      </trkpt>
      <trkpt lat="44.46514" lon="6.2313">
        <ele>718</ele>
        <time>2025-11-21T14:19:51.000Z</time>
      </trkpt>
      <trkpt lat="44.46516" lon="6.23129">
        <ele>718</ele>
        <time>2025-11-21T14:19:52.000Z</time>
      </trkpt>
      <trkpt lat="44.46517" lon="6.23129">
        <ele>719</ele>
        <time>2025-11-21T14:19:53.000Z</time>
      </trkpt>
      <trkpt lat="44.46517" lon="6.23129">
        <ele>719</ele>
        <time>2025-11-21T14:19:54.000Z</time>
      </trkpt>
      <trkpt lat="44.46518" lon="6.23129">
        <ele>719</ele>
        <time>2025-11-21T14:19:55.000Z</time>
      </trkpt>
      <trkpt lat="44.46519" lon="6.23128">
        <ele>719</ele>
        <time>2025-11-21T14:19:56.000Z</time>
      </trkpt>
      <trkpt lat="44.4652" lon="6.23128">
        <ele>719</ele>
        <time>2025-11-21T14:19:57.000Z</time>
      </trkpt>
      <trkpt lat="44.46521" lon="6.23127">
        <ele>718</ele>
        <time>2025-11-21T14:19:58.000Z</time>
      </trkpt>
      <trkpt lat="44.46521" lon="6.23127">
        <ele>718</ele>
        <time>2025-11-21T14:19:59.000Z</time>
      </trkpt>
      <trkpt lat="44.46522" lon="6.23126">
        <ele>718</ele>
        <time>2025-11-21T14:20:00.000Z</time>
      </trkpt>
      <trkpt lat="44.46524" lon="6.23125">
        <ele>718</ele>
        <time>2025-11-21T14:20:01.000Z</time>
      </trkpt>
      <trkpt lat="44.46525" lon="6.23124">
        <ele>717</ele>
        <time>2025-11-21T14:20:02.000Z</time>
      </trkpt>
      <trkpt lat="44.46526" lon="6.23124">
        <ele>717</ele>
        <time>2025-11-21T14:20:03.000Z</time>
      </trkpt>
      <trkpt lat="44.46528" lon="6.23122">
        <ele>717</ele>
        <time>2025-11-21T14:20:04.000Z</time>
      </trkpt>
      <trkpt lat="44.46529" lon="6.23121">
        <ele>717</ele>
        <time>2025-11-21T14:20:05.000Z</time>
      </trkpt>
      <trkpt lat="44.4653" lon="6.2312">
        <ele>715</ele>
        <time>2025-11-21T14:20:06.000Z</time>
      </trkpt>
      <trkpt lat="44.4653" lon="6.23119">
        <ele>715</ele>
        <time>2025-11-21T14:20:07.000Z</time>
      </trkpt>
      <trkpt lat="44.46531" lon="6.23118">
        <ele>715</ele>
        <time>2025-11-21T14:20:08.000Z</time>
      </trkpt>
      <trkpt lat="44.46532" lon="6.23116">
        <ele>715</ele>
        <time>2025-11-21T14:20:09.000Z</time>
      </trkpt>
      <trkpt lat="44.46532" lon="6.23115">
        <ele>715</ele>
        <time>2025-11-21T14:20:10.000Z</time>
      </trkpt>
      <trkpt lat="44.46533" lon="6.23114">
        <ele>715</ele>
        <time>2025-11-21T14:20:11.000Z</time>
      </trkpt>
      <trkpt lat="44.46534" lon="6.23113">
        <ele>714</ele>
        <time>2025-11-21T14:20:12.000Z</time>
      </trkpt>
      <trkpt lat="44.46534" lon="6.23112">
        <ele>715</ele>
        <time>2025-11-21T14:20:13.000Z</time>
      </trkpt>
      <trkpt lat="44.46535" lon="6.23111">
        <ele>715</ele>
        <time>2025-11-21T14:20:14.000Z</time>
      </trkpt>
      <trkpt lat="44.46536" lon="6.2311">
        <ele>714</ele>
        <time>2025-11-21T14:20:15.000Z</time>
      </trkpt>
      <trkpt lat="44.46538" lon="6.2311">
        <ele>713</ele>
        <time>2025-11-21T14:20:16.000Z</time>
      </trkpt>
      <trkpt lat="44.46538" lon="6.2311">
        <ele>713</ele>
        <time>2025-11-21T14:20:17.000Z</time>
      </trkpt>
      <trkpt lat="44.46539" lon="6.23109">
        <ele>713</ele>
        <time>2025-11-21T14:20:18.000Z</time>
      </trkpt>
      <trkpt lat="44.4654" lon="6.23108">
        <ele>713</ele>
        <time>2025-11-21T14:20:19.000Z</time>
      </trkpt>
      <trkpt lat="44.4654" lon="6.23107">
        <ele>714</ele>
        <time>2025-11-21T14:20:20.000Z</time>
      </trkpt>
      <trkpt lat="44.46541" lon="6.23107">
        <ele>713</ele>
        <time>2025-11-21T14:20:21.000Z</time>
      </trkpt>
      <trkpt lat="44.46542" lon="6.23106">
        <ele>714</ele>
        <time>2025-11-21T14:20:22.000Z</time>
      </trkpt>
      <trkpt lat="44.46542" lon="6.23105">
        <ele>713</ele>
        <time>2025-11-21T14:20:23.000Z</time>
      </trkpt>
      <trkpt lat="44.46542" lon="6.23105">
        <ele>713</ele>
        <time>2025-11-21T14:20:24.000Z</time>
      </trkpt>
      <trkpt lat="44.46543" lon="6.23104">
        <ele>713</ele>
        <time>2025-11-21T14:20:25.000Z</time>
      </trkpt>
      <trkpt lat="44.46543" lon="6.23104">
        <ele>713</ele>
        <time>2025-11-21T14:20:26.000Z</time>
      </trkpt>
    </trkseg>
  </trk>
</gpx>